Data listing in reverse chronological order (most recent data at top)

       Date-Time(UTC)    Hawaiʻi-Standard-Time     Approximate-Local-Time     Latitude  Longitude  Course Speed Vessel
  YYYY-MM-DDThh:mm:ss    YYYY-MM-DDThh:mm:ss-10:00 YYYY-MM-DDThh:mm:ss∓HH:MM   degrees    degrees degrees knots 
  2022-01-23T23:18:20UTC 2022-01-23T13:18:20-10:00 2022-01-23T12:18:20-11:00  21.31307 -157.88883       0   0.0 Hōkūleʻa
  2022-01-23T23:09:16UTC 2022-01-23T13:09:16-10:00 2022-01-23T12:09:16-11:00  21.31335 -157.88851      11   0.0 Hikianalia
  2022-01-23T22:18:46UTC 2022-01-23T12:18:46-10:00 2022-01-23T11:18:46-11:00  21.31306 -157.88883      75   0.0 Hōkūleʻa
  2022-01-23T22:10:11UTC 2022-01-23T12:10:11-10:00 2022-01-23T11:10:11-11:00  21.31325 -157.88853     262   0.0 Hikianalia
  2022-01-23T21:17:38UTC 2022-01-23T11:17:38-10:00 2022-01-23T10:17:38-11:00  21.31305 -157.88888     270   0.0 Hōkūleʻa
  2022-01-23T21:10:46UTC 2022-01-23T11:10:46-10:00 2022-01-23T10:10:46-11:00  21.31326 -157.88845     270   0.0 Hikianalia
  2022-01-23T20:18:22UTC 2022-01-23T10:18:22-10:00 2022-01-23T09:18:22-11:00  21.31305 -157.88883       0   0.0 Hōkūleʻa
  2022-01-23T20:09:08UTC 2022-01-23T10:09:08-10:00 2022-01-23T09:09:08-11:00  21.31326 -157.88841       0   0.0 Hikianalia
  2022-01-23T19:18:32UTC 2022-01-23T09:18:32-10:00 2022-01-23T08:18:32-11:00  21.31303 -157.88883       0   0.0 Hōkūleʻa
  2022-01-23T19:10:06UTC 2022-01-23T09:10:06-10:00 2022-01-23T08:10:06-11:00  21.31324 -157.88841      99   0.0 Hikianalia
  2022-01-23T18:18:48UTC 2022-01-23T08:18:48-10:00 2022-01-23T07:18:48-11:00  21.31303 -157.88883     180   0.0 Hōkūleʻa
  2022-01-23T18:10:46UTC 2022-01-23T08:10:46-10:00 2022-01-23T07:10:46-11:00  21.31325 -157.88847     250   0.0 Hikianalia
  2022-01-23T17:18:29UTC 2022-01-23T07:18:29-10:00 2022-01-23T06:18:29-11:00  21.31304 -157.88883       0   0.0 Hōkūleʻa
  2022-01-23T17:10:08UTC 2022-01-23T07:10:08-10:00 2022-01-23T06:10:08-11:00  21.31327 -157.88841      75   0.0 Hikianalia
  2022-01-23T16:18:34UTC 2022-01-23T06:18:34-10:00 2022-01-23T05:18:34-11:00  21.31304 -157.88883       0   0.0 Hōkūleʻa
  2022-01-23T16:10:16UTC 2022-01-23T06:10:16-10:00 2022-01-23T05:10:16-11:00  21.31326 -157.88845     180   0.0 Hikianalia
  2022-01-23T15:17:33UTC 2022-01-23T05:17:33-10:00 2022-01-23T04:17:33-11:00  21.31302 -157.88883     180   0.0 Hōkūleʻa
  2022-01-23T15:09:18UTC 2022-01-23T05:09:18-10:00 2022-01-23T04:09:18-11:00  21.31330 -157.88845       0   0.0 Hikianalia
  2022-01-23T14:28:57UTC 2022-01-23T04:28:57-10:00 2022-01-23T03:28:57-11:00  21.31303 -157.88883     102   0.0 Hōkūleʻa
  2022-01-23T14:10:41UTC 2022-01-23T04:10:41-10:00 2022-01-23T03:10:41-11:00  21.31323 -157.88845       0   0.0 Hikianalia
  2022-01-23T13:18:37UTC 2022-01-23T03:18:37-10:00 2022-01-23T02:18:37-11:00  21.31305 -157.88894     241   0.0 Hōkūleʻa
  2022-01-23T13:10:06UTC 2022-01-23T03:10:06-10:00 2022-01-23T02:10:06-11:00  21.31322 -157.88845     128   0.0 Hikianalia
  2022-01-23T12:17:23UTC 2022-01-23T02:17:23-10:00 2022-01-23T01:17:23-11:00  21.31307 -157.88890     308   0.0 Hōkūleʻa
  2022-01-23T12:09:09UTC 2022-01-23T02:09:09-10:00 2022-01-23T01:09:09-11:00  21.31328 -157.88853     305   0.0 Hikianalia
  2022-01-23T11:18:22UTC 2022-01-23T01:18:22-10:00 2022-01-23T00:18:22-11:00  21.31304 -157.88886     270   0.0 Hōkūleʻa
  2022-01-23T11:10:37UTC 2022-01-23T01:10:37-10:00 2022-01-23T00:10:37-11:00  21.31324 -157.88847     105   0.0 Hikianalia
  2022-01-23T10:18:37UTC 2022-01-23T00:18:37-10:00 2022-01-22T23:18:37-11:00  21.31304 -157.88883     130   0.0 Hōkūleʻa
  2022-01-23T10:10:17UTC 2022-01-23T00:10:17-10:00 2022-01-22T23:10:17-11:00  21.31326 -157.88856     264   0.0 Hikianalia
  2022-01-23T09:18:31UTC 2022-01-22T23:18:31-10:00 2022-01-22T22:18:31-11:00  21.31312 -157.88894     307   0.0 Hōkūleʻa
  2022-01-23T09:10:09UTC 2022-01-22T23:10:09-10:00 2022-01-22T22:10:09-11:00  21.31327 -157.88845       0   0.0 Hikianalia
  2022-01-23T08:18:22UTC 2022-01-22T22:18:22-10:00 2022-01-22T21:18:22-11:00  21.31305 -157.88883       0   0.0 Hōkūleʻa
  2022-01-23T08:10:43UTC 2022-01-22T22:10:43-10:00 2022-01-22T21:10:43-11:00  21.31325 -157.88845     180   0.0 Hikianalia
  2022-01-23T07:18:33UTC 2022-01-22T21:18:33-10:00 2022-01-22T20:18:33-11:00  21.31304 -157.88883     180   0.0 Hōkūleʻa
  2022-01-23T07:09:07UTC 2022-01-22T21:09:07-10:00 2022-01-22T20:09:07-11:00  21.31329 -157.88845       0   0.0 Hikianalia
  2022-01-23T06:18:50UTC 2022-01-22T20:18:50-10:00 2022-01-22T19:18:50-11:00  21.31305 -157.88883     180   0.0 Hōkūleʻa
  2022-01-23T06:10:12UTC 2022-01-22T20:10:12-10:00 2022-01-22T19:10:12-11:00  21.31326 -157.88845     136   0.0 Hikianalia
  2022-01-23T05:18:44UTC 2022-01-22T19:18:44-10:00 2022-01-22T18:18:44-11:00  21.31307 -157.88883       0   0.0 Hōkūleʻa
  2022-01-23T05:10:09UTC 2022-01-22T19:10:09-10:00 2022-01-22T18:10:09-11:00  21.31328 -157.88847     316   0.0 Hikianalia
  2022-01-23T04:18:24UTC 2022-01-22T18:18:24-10:00 2022-01-22T17:18:24-11:00  21.31303 -157.88883     180   0.0 Hōkūleʻa
  2022-01-23T04:11:08UTC 2022-01-22T18:11:08-10:00 2022-01-22T17:11:08-11:00  21.31326 -157.88845      33   0.0 Hikianalia
  2022-01-23T03:18:24UTC 2022-01-22T17:18:24-10:00 2022-01-22T16:18:24-11:00  21.31305 -157.88883     180   0.0 Hōkūleʻa
  2022-01-23T03:10:10UTC 2022-01-22T17:10:10-10:00 2022-01-22T16:10:10-11:00  21.31323 -157.88847     229   0.0 Hikianalia
  2022-01-23T02:17:46UTC 2022-01-22T16:17:46-10:00 2022-01-22T15:17:46-11:00  21.31308 -157.88883      32   0.0 Hōkūleʻa
  2022-01-23T02:09:17UTC 2022-01-22T16:09:17-10:00 2022-01-22T15:09:17-11:00  21.31328 -157.88841      52   0.0 Hikianalia
  2022-01-23T01:18:35UTC 2022-01-22T15:18:35-10:00 2022-01-22T14:18:35-11:00  21.31302 -157.88888     162   0.0 Hōkūleʻa
  2022-01-23T01:10:38UTC 2022-01-22T15:10:38-10:00 2022-01-22T14:10:38-11:00  21.31325 -157.88845     148   0.0 Hikianalia
  2022-01-23T00:18:33UTC 2022-01-22T14:18:33-10:00 2022-01-22T13:18:33-11:00  21.31308 -157.88890     270   0.0 Hōkūleʻa
  2022-01-23T00:09:18UTC 2022-01-22T14:09:18-10:00 2022-01-22T13:09:18-11:00  21.31332 -157.88849     116   0.0 Hikianalia
  2022-01-22T23:17:34UTC 2022-01-22T13:17:34-10:00 2022-01-22T12:17:34-11:00  21.31308 -157.88886       0   0.0 Hōkūleʻa
  2022-01-22T23:10:16UTC 2022-01-22T13:10:16-10:00 2022-01-22T12:10:16-11:00  21.31333 -157.88851       0   0.0 Hikianalia
  2022-01-22T22:18:40UTC 2022-01-22T12:18:40-10:00 2022-01-22T11:18:40-11:00  21.31308 -157.88886       0   0.0 Hōkūleʻa
  2022-01-22T22:09:47UTC 2022-01-22T12:09:47-10:00 2022-01-22T11:09:47-11:00  21.31330 -157.88851     327   0.0 Hikianalia
  2022-01-22T21:17:29UTC 2022-01-22T11:17:29-10:00 2022-01-22T10:17:29-11:00  21.31308 -157.88886     328   0.0 Hōkūleʻa
  2022-01-22T21:09:38UTC 2022-01-22T11:09:38-10:00 2022-01-22T10:09:38-11:00  21.31327 -157.88849     180   0.0 Hikianalia
  2022-01-22T20:18:32UTC 2022-01-22T10:18:32-10:00 2022-01-22T09:18:32-11:00  21.31305 -157.88883       0   0.0 Hōkūleʻa
  2022-01-22T20:16:08UTC 2022-01-22T10:16:08-10:00 2022-01-22T09:16:08-11:00  21.31332 -157.88849     329   0.0 Hikianalia
  2022-01-22T19:18:33UTC 2022-01-22T09:18:33-10:00 2022-01-22T08:18:33-11:00  21.31305 -157.88883       0   0.0 Hōkūleʻa
  2022-01-22T19:10:16UTC 2022-01-22T09:10:16-10:00 2022-01-22T08:10:16-11:00  21.31328 -157.88847      32   0.0 Hikianalia
  2022-01-22T18:18:49UTC 2022-01-22T08:18:49-10:00 2022-01-22T07:18:49-11:00  21.31305 -157.88883       0   0.0 Hōkūleʻa
  2022-01-22T18:10:43UTC 2022-01-22T08:10:43-10:00 2022-01-22T07:10:43-11:00  21.31325 -157.88849     270   0.0 Hikianalia
  2022-01-22T17:18:25UTC 2022-01-22T07:18:25-10:00 2022-01-22T06:18:25-11:00  21.31304 -157.88883     116   0.0 Hōkūleʻa
  2022-01-22T17:10:43UTC 2022-01-22T07:10:43-10:00 2022-01-22T06:10:43-11:00  21.31325 -157.88847     296   0.0 Hikianalia
  2022-01-22T16:19:33UTC 2022-01-22T06:19:33-10:00 2022-01-22T05:19:33-11:00  21.31305 -157.88886     270   0.0 Hōkūleʻa
  2022-01-22T16:10:47UTC 2022-01-22T06:10:47-10:00 2022-01-22T05:10:47-11:00  21.31324 -157.88845     104   0.0 Hikianalia
  2022-01-22T15:18:31UTC 2022-01-22T05:18:31-10:00 2022-01-22T04:18:31-11:00  21.31305 -157.88883      64   0.0 Hōkūleʻa
  2022-01-22T15:10:21UTC 2022-01-22T05:10:21-10:00 2022-01-22T04:10:21-11:00  21.31325 -157.88849     270   0.0 Hikianalia
  2022-01-22T14:18:46UTC 2022-01-22T04:18:46-10:00 2022-01-22T03:18:46-11:00  21.31304 -157.88886     278   0.0 Hōkūleʻa
  2022-01-22T14:09:36UTC 2022-01-22T04:09:36-10:00 2022-01-22T03:09:36-11:00  21.31325 -157.88847      90   0.0 Hikianalia
  2022-01-22T13:18:32UTC 2022-01-22T03:18:32-10:00 2022-01-22T02:18:32-11:00  21.31303 -157.88877       0   0.0 Hōkūleʻa
  2022-01-22T13:10:38UTC 2022-01-22T03:10:38-10:00 2022-01-22T02:10:38-11:00  21.31325 -157.88849     332   0.0 Hikianalia
  2022-01-22T12:17:30UTC 2022-01-22T02:17:30-10:00 2022-01-22T01:17:30-11:00  21.31302 -157.88877     100   0.0 Hōkūleʻa
  2022-01-22T12:10:17UTC 2022-01-22T02:10:17-10:00 2022-01-22T01:10:17-11:00  21.31318 -157.88845     180   0.0 Hikianalia
  2022-01-22T11:18:22UTC 2022-01-22T01:18:22-10:00 2022-01-22T00:18:22-11:00  21.31303 -157.88883       0   0.0 Hōkūleʻa
  2022-01-22T11:10:17UTC 2022-01-22T01:10:17-10:00 2022-01-22T00:10:17-11:00  21.31325 -157.88845      64   0.0 Hikianalia
  2022-01-22T10:18:37UTC 2022-01-22T00:18:37-10:00 2022-01-21T23:18:37-11:00  21.31303 -157.88883     298   0.0 Hōkūleʻa
  2022-01-22T10:10:45UTC 2022-01-22T00:10:45-10:00 2022-01-21T23:10:45-11:00  21.31324 -157.88847     298   0.0 Hikianalia
  2022-01-22T09:18:33UTC 2022-01-21T23:18:33-10:00 2022-01-21T22:18:33-11:00  21.31296 -157.88871     121   0.0 Hōkūleʻa
  2022-01-22T09:10:10UTC 2022-01-21T23:10:10-10:00 2022-01-21T22:10:10-11:00  21.31321 -157.88841      90   0.0 Hikianalia
  2022-01-22T08:18:33UTC 2022-01-21T22:18:33-10:00 2022-01-21T21:18:33-11:00  21.31305 -157.88886     270   0.0 Hōkūleʻa
  2022-01-22T08:10:15UTC 2022-01-21T22:10:15-10:00 2022-01-21T21:10:15-11:00  21.31321 -157.88845     180   0.0 Hikianalia
  2022-01-22T07:18:25UTC 2022-01-21T21:18:25-10:00 2022-01-21T20:18:25-11:00  21.31305 -157.88883       0   0.0 Hōkūleʻa
  2022-01-22T07:10:15UTC 2022-01-21T21:10:15-10:00 2022-01-21T20:10:15-11:00  21.31326 -157.88845       0   0.0 Hikianalia
  2022-01-22T06:18:49UTC 2022-01-21T20:18:49-10:00 2022-01-21T19:18:49-11:00  21.31304 -157.88883     270   0.0 Hōkūleʻa
  2022-01-22T06:09:46UTC 2022-01-21T20:09:46-10:00 2022-01-21T19:09:46-11:00  21.31326 -157.88845     180   0.0 Hikianalia
  2022-01-22T05:18:30UTC 2022-01-21T19:18:30-10:00 2022-01-21T18:18:30-11:00  21.31304 -157.88881      90   0.0 Hōkūleʻa
  2022-01-22T05:10:09UTC 2022-01-21T19:10:09-10:00 2022-01-21T18:10:09-11:00  21.31334 -157.88845     351   0.0 Hikianalia
  2022-01-22T04:18:23UTC 2022-01-21T18:18:23-10:00 2022-01-21T17:18:23-11:00  21.31304 -157.88883       0   0.0 Hōkūleʻa
  2022-01-22T04:10:14UTC 2022-01-21T18:10:14-10:00 2022-01-21T17:10:14-11:00  21.31321 -157.88843     148   0.0 Hikianalia
  2022-01-22T03:18:31UTC 2022-01-21T17:18:31-10:00 2022-01-21T16:18:31-11:00  21.31303 -157.88883     180   0.0 Hōkūleʻa
  2022-01-22T03:10:46UTC 2022-01-21T17:10:46-10:00 2022-01-21T16:10:46-11:00  21.31327 -157.88847       0   0.0 Hikianalia
  2022-01-22T02:17:47UTC 2022-01-21T16:17:47-10:00 2022-01-21T15:17:47-11:00  21.31308 -157.88883      32   0.0 Hōkūleʻa
  2022-01-22T02:09:06UTC 2022-01-21T16:09:06-10:00 2022-01-21T15:09:06-11:00  21.31323 -157.88847     317   0.0 Hikianalia
  2022-01-22T01:18:33UTC 2022-01-21T15:18:33-10:00 2022-01-21T14:18:33-11:00  21.31302 -157.88888     212   0.0 Hōkūleʻa
  2022-01-22T01:10:15UTC 2022-01-21T15:10:15-10:00 2022-01-21T14:10:15-11:00  21.31310 -157.88834     145   0.0 Hikianalia
  2022-01-22T00:18:33UTC 2022-01-21T14:18:33-10:00 2022-01-21T13:18:33-11:00  21.31308 -157.88883      43   0.0 Hōkūleʻa
  2022-01-22T00:09:53UTC 2022-01-21T14:09:53-10:00 2022-01-21T13:09:53-11:00  21.31327 -157.88847     323   0.0 Hikianalia
  2022-01-21T23:17:29UTC 2022-01-21T13:17:29-10:00 2022-01-21T12:17:29-11:00  21.31306 -157.88886     298   0.0 Hōkūleʻa
  2022-01-21T23:10:09UTC 2022-01-21T13:10:09-10:00 2022-01-21T12:10:09-11:00  21.31322 -157.88843     141   0.0 Hikianalia
  2022-01-21T22:18:49UTC 2022-01-21T12:18:49-10:00 2022-01-21T11:18:49-11:00  21.31305 -157.88883       0   0.0 Hōkūleʻa
  2022-01-21T22:09:15UTC 2022-01-21T12:09:15-10:00 2022-01-21T11:09:15-11:00  21.31339 -157.88858     330   0.0 Hikianalia
  2022-01-21T21:17:38UTC 2022-01-21T11:17:38-10:00 2022-01-21T10:17:38-11:00  21.31304 -157.88883      90   0.0 Hōkūleʻa
  2022-01-21T21:10:17UTC 2022-01-21T11:10:17-10:00 2022-01-21T10:10:17-11:00  21.31325 -157.88849     284   0.0 Hikianalia
  2022-01-21T20:18:37UTC 2022-01-21T10:18:37-10:00 2022-01-21T09:18:37-11:00  21.31304 -157.88886     270   0.0 Hōkūleʻa
  2022-01-21T20:09:43UTC 2022-01-21T10:09:43-10:00 2022-01-21T09:09:43-11:00  21.31324 -157.88845      82   0.0 Hikianalia
  2022-01-21T19:20:59UTC 2022-01-21T09:20:59-10:00 2022-01-21T08:20:59-11:00  21.31323 -157.88853     255   0.0 Hikianalia
  2022-01-21T19:17:32UTC 2022-01-21T09:17:32-10:00 2022-01-21T08:17:32-11:00  21.31304 -157.88883     116   0.0 Hōkūleʻa
  2022-01-21T18:18:40UTC 2022-01-21T08:18:40-10:00 2022-01-21T07:18:40-11:00  21.31305 -157.88886     327   0.0 Hōkūleʻa
  2022-01-21T18:10:46UTC 2022-01-21T08:10:46-10:00 2022-01-21T07:10:46-11:00  21.31325 -157.88845     180   0.0 Hikianalia
  2022-01-21T17:19:13UTC 2022-01-21T07:19:13-10:00 2022-01-21T06:19:13-11:00  21.31326 -157.88845     232   0.0 Hikianalia
  2022-01-21T17:18:36UTC 2022-01-21T07:18:36-10:00 2022-01-21T06:18:36-11:00  21.31302 -157.88883     180   0.0 Hōkūleʻa
  2022-01-21T16:17:24UTC 2022-01-21T06:17:24-10:00 2022-01-21T05:17:24-11:00  21.31303 -157.88883       0   0.0 Hōkūleʻa
  2022-01-21T16:10:13UTC 2022-01-21T06:10:13-10:00 2022-01-21T05:10:13-11:00  21.31329 -157.88841      49   0.0 Hikianalia
  2022-01-21T15:18:24UTC 2022-01-21T05:18:24-10:00 2022-01-21T04:18:24-11:00  21.31302 -157.88883     180   0.0 Hōkūleʻa
  2022-01-21T15:10:43UTC 2022-01-21T05:10:43-10:00 2022-01-21T04:10:43-11:00  21.31324 -157.88847      61   0.0 Hikianalia
  2022-01-21T14:18:41UTC 2022-01-21T04:18:41-10:00 2022-01-21T03:18:41-11:00  21.31303 -157.88883     180   0.0 Hōkūleʻa
  2022-01-21T14:11:18UTC 2022-01-21T04:11:18-10:00 2022-01-21T03:11:18-11:00  21.31322 -157.88851     213   0.0 Hikianalia
  2022-01-21T13:18:36UTC 2022-01-21T03:18:36-10:00 2022-01-21T02:18:36-11:00  21.31304 -157.88883       0   0.0 Hōkūleʻa
  2022-01-21T13:09:44UTC 2022-01-21T03:09:44-10:00 2022-01-21T02:09:44-11:00  21.31325 -157.88849     284   0.0 Hikianalia
  2022-01-21T12:18:24UTC 2022-01-21T02:18:24-10:00 2022-01-21T01:18:24-11:00  21.31303 -157.88883     299   0.0 Hōkūleʻa
  2022-01-21T12:10:38UTC 2022-01-21T02:10:38-10:00 2022-01-21T01:10:38-11:00  21.31324 -157.88845     118   0.0 Hikianalia
  2022-01-21T11:18:30UTC 2022-01-21T01:18:30-10:00 2022-01-21T00:18:30-11:00  21.31302 -157.88881     119   0.0 Hōkūleʻa
  2022-01-21T11:10:09UTC 2022-01-21T01:10:09-10:00 2022-01-21T00:10:09-11:00  21.31333 -157.88862     304   0.0 Hikianalia
  2022-01-21T10:17:37UTC 2022-01-21T00:17:37-10:00 2022-01-20T23:17:37-11:00  21.31303 -157.88883     180   0.0 Hōkūleʻa
  2022-01-21T10:10:16UTC 2022-01-21T00:10:16-10:00 2022-01-20T23:10:16-11:00  21.31322 -157.88845     118   0.0 Hikianalia
  2022-01-21T09:18:27UTC 2022-01-20T23:18:27-10:00 2022-01-20T22:18:27-11:00  21.31305 -157.88883     317   0.0 Hōkūleʻa
  2022-01-21T09:10:12UTC 2022-01-20T23:10:12-10:00 2022-01-20T22:10:12-11:00  21.31325 -157.88851     270   0.0 Hikianalia
  2022-01-21T08:19:22UTC 2022-01-20T22:19:22-10:00 2022-01-20T21:19:22-11:00  21.31303 -157.88881     119   0.0 Hōkūleʻa
  2022-01-21T08:10:41UTC 2022-01-20T22:10:41-10:00 2022-01-20T21:10:41-11:00  21.31325 -157.88845     328   0.0 Hikianalia
  2022-01-21T07:17:40UTC 2022-01-20T21:17:40-10:00 2022-01-20T20:17:40-11:00  21.31304 -157.88883     180   0.0 Hōkūleʻa
  2022-01-21T07:10:08UTC 2022-01-20T21:10:08-10:00 2022-01-20T20:10:08-11:00  21.31315 -157.88838     140   0.0 Hikianalia
  2022-01-21T06:19:22UTC 2022-01-20T20:19:22-10:00 2022-01-20T19:19:22-11:00  21.31325 -157.88847     296   0.0 Hikianalia
  2022-01-21T06:18:40UTC 2022-01-20T20:18:40-10:00 2022-01-20T19:18:40-11:00  21.31305 -157.88883       0   0.0 Hōkūleʻa
  2022-01-21T05:27:58UTC 2022-01-20T19:27:58-10:00 2022-01-20T18:27:58-11:00  21.31305 -157.88883       0   0.0 Hōkūleʻa
  2022-01-21T05:10:09UTC 2022-01-20T19:10:09-10:00 2022-01-20T18:10:09-11:00  21.31324 -157.88845     180   0.0 Hikianalia
  2022-01-21T04:18:29UTC 2022-01-20T18:18:29-10:00 2022-01-20T17:18:29-11:00  21.31303 -157.88883     180   0.0 Hōkūleʻa
  2022-01-21T04:10:47UTC 2022-01-20T18:10:47-10:00 2022-01-20T17:10:47-11:00  21.31325 -157.88845     248   0.0 Hikianalia
  2022-01-21T03:18:31UTC 2022-01-20T17:18:31-10:00 2022-01-20T16:18:31-11:00  21.31306 -157.88883     180   0.0 Hōkūleʻa
  2022-01-21T03:10:20UTC 2022-01-20T17:10:20-10:00 2022-01-20T16:10:20-11:00  21.31328 -157.88836      83   0.0 Hikianalia
  2022-01-21T02:18:38UTC 2022-01-20T16:18:38-10:00 2022-01-20T15:18:38-11:00  21.31307 -157.88883      75   0.0 Hōkūleʻa
  2022-01-21T02:09:17UTC 2022-01-20T16:09:17-10:00 2022-01-20T15:09:17-11:00  21.31327 -157.88845     116   0.0 Hikianalia
  2022-01-21T01:17:34UTC 2022-01-20T15:17:34-10:00 2022-01-20T14:17:34-11:00  21.31306 -157.88888     299   0.0 Hōkūleʻa
  2022-01-21T01:10:38UTC 2022-01-20T15:10:38-10:00 2022-01-20T14:10:38-11:00  21.31328 -157.88847     327   0.0 Hikianalia
  2022-01-21T00:18:30UTC 2022-01-20T14:18:30-10:00 2022-01-20T13:18:30-11:00  21.31305 -157.88886     212   0.0 Hōkūleʻa
  2022-01-21T00:09:16UTC 2022-01-20T14:09:16-10:00 2022-01-20T13:09:16-11:00  21.31325 -157.88845      62   0.0 Hikianalia
  2022-01-20T23:17:21UTC 2022-01-20T13:17:21-10:00 2022-01-20T12:17:21-11:00  21.31308 -157.88883       0   0.0 Hōkūleʻa
  2022-01-20T23:10:07UTC 2022-01-20T13:10:07-10:00 2022-01-20T12:10:07-11:00  21.31322 -157.88851     223   0.0 Hikianalia
  2022-01-20T22:18:45UTC 2022-01-20T12:18:45-10:00 2022-01-20T11:18:45-11:00  21.31306 -157.88883       0   0.0 Hōkūleʻa
  2022-01-20T22:09:45UTC 2022-01-20T12:09:45-10:00 2022-01-20T11:09:45-11:00  21.31326 -157.88847     270   0.0 Hikianalia
  2022-01-20T21:17:34UTC 2022-01-20T11:17:34-10:00 2022-01-20T10:17:34-11:00  21.31306 -157.88883       0   0.0 Hōkūleʻa
  2022-01-20T21:10:45UTC 2022-01-20T11:10:45-10:00 2022-01-20T10:10:45-11:00  21.31326 -157.88845       0   0.0 Hikianalia
  2022-01-20T20:17:20UTC 2022-01-20T10:17:20-10:00 2022-01-20T09:17:20-11:00  21.31304 -157.88883      90   0.0 Hōkūleʻa
  2022-01-20T20:09:16UTC 2022-01-20T10:09:16-10:00 2022-01-20T09:09:16-11:00  21.31322 -157.88845     180   0.0 Hikianalia
  2022-01-20T19:18:24UTC 2022-01-20T09:18:24-10:00 2022-01-20T08:18:24-11:00  21.31304 -157.88886     270   0.0 Hōkūleʻa
  2022-01-20T19:10:06UTC 2022-01-20T09:10:06-10:00 2022-01-20T08:10:06-11:00  21.31330 -157.88845       0   0.0 Hikianalia
  2022-01-20T18:18:51UTC 2022-01-20T08:18:51-10:00 2022-01-20T07:18:51-11:00  21.31304 -157.88883     180   0.0 Hōkūleʻa
  2022-01-20T18:09:47UTC 2022-01-20T08:09:47-10:00 2022-01-20T07:09:47-11:00  21.31324 -157.88845     147   0.0 Hikianalia
  2022-01-20T17:18:30UTC 2022-01-20T07:18:30-10:00 2022-01-20T06:18:30-11:00  21.31305 -157.88883       0   0.0 Hōkūleʻa
  2022-01-20T17:11:08UTC 2022-01-20T07:11:08-10:00 2022-01-20T06:11:08-11:00  21.31327 -157.88847     327   0.0 Hikianalia
  2022-01-20T16:18:37UTC 2022-01-20T06:18:37-10:00 2022-01-20T05:18:37-11:00  21.31305 -157.88883      90   0.0 Hōkūleʻa
  2022-01-20T16:10:46UTC 2022-01-20T06:10:46-10:00 2022-01-20T05:10:46-11:00  21.31324 -157.88845     205   0.0 Hikianalia
  2022-01-20T15:18:31UTC 2022-01-20T05:18:31-10:00 2022-01-20T04:18:31-11:00  21.31305 -157.88886       0   0.0 Hōkūleʻa
  2022-01-20T15:10:16UTC 2022-01-20T05:10:16-10:00 2022-01-20T04:10:16-11:00  21.31333 -157.88841      10   0.0 Hikianalia
  2022-01-20T14:18:46UTC 2022-01-20T04:18:46-10:00 2022-01-20T03:18:46-11:00  21.31304 -157.88886       0   0.0 Hōkūleʻa
  2022-01-20T14:09:15UTC 2022-01-20T04:09:15-10:00 2022-01-20T03:09:15-11:00  21.31321 -157.88843     129   0.0 Hikianalia
  2022-01-20T13:18:27UTC 2022-01-20T03:18:27-10:00 2022-01-20T02:18:27-11:00  21.31303 -157.88886     270   0.0 Hōkūleʻa
  2022-01-20T13:10:40UTC 2022-01-20T03:10:40-10:00 2022-01-20T02:10:40-11:00  21.31324 -157.88847     109   0.0 Hikianalia
  2022-01-20T12:19:31UTC 2022-01-20T02:19:31-10:00 2022-01-20T01:19:31-11:00  21.31303 -157.88883     270   0.0 Hōkūleʻa
  2022-01-20T12:10:14UTC 2022-01-20T02:10:14-10:00 2022-01-20T01:10:14-11:00  21.31326 -157.88853     275   0.0 Hikianalia
  2022-01-20T11:18:32UTC 2022-01-20T01:18:32-10:00 2022-01-20T00:18:32-11:00  21.31303 -157.88881      61   0.0 Hōkūleʻa
  2022-01-20T11:10:09UTC 2022-01-20T01:10:09-10:00 2022-01-20T00:10:09-11:00  21.31325 -157.88841      76   0.0 Hikianalia
  2022-01-20T10:18:47UTC 2022-01-20T00:18:47-10:00 2022-01-19T23:18:47-11:00  21.31302 -157.88883     180   0.0 Hōkūleʻa
  2022-01-20T10:10:46UTC 2022-01-20T00:10:46-10:00 2022-01-19T23:10:46-11:00  21.31324 -157.88845       0   0.0 Hikianalia
  2022-01-20T09:17:32UTC 2022-01-19T23:17:32-10:00 2022-01-19T22:17:32-11:00  21.31303 -157.88883     180   0.0 Hōkūleʻa
  2022-01-20T09:09:17UTC 2022-01-19T23:09:17-10:00 2022-01-19T22:09:17-11:00  21.31321 -157.88845     180   0.0 Hikianalia
  2022-01-20T08:18:21UTC 2022-01-19T22:18:21-10:00 2022-01-19T21:18:21-11:00  21.31304 -157.88883       0   0.0 Hōkūleʻa
  2022-01-20T08:10:18UTC 2022-01-19T22:10:18-10:00 2022-01-19T21:10:18-11:00  21.31324 -157.88845      90   0.0 Hikianalia
  2022-01-20T07:19:26UTC 2022-01-19T21:19:26-10:00 2022-01-19T20:19:26-11:00  21.31303 -157.88883     180   0.0 Hōkūleʻa
  2022-01-20T07:10:24UTC 2022-01-19T21:10:24-10:00 2022-01-19T20:10:24-11:00  21.31324 -157.88847       0   0.0 Hikianalia
  2022-01-20T06:18:48UTC 2022-01-19T20:18:48-10:00 2022-01-19T19:18:48-11:00  21.31304 -157.88883     180   0.0 Hōkūleʻa
  2022-01-20T06:10:38UTC 2022-01-19T20:10:38-10:00 2022-01-19T19:10:38-11:00  21.31324 -157.88847       0   0.0 Hikianalia
  2022-01-20T05:18:36UTC 2022-01-19T19:18:36-10:00 2022-01-19T18:18:36-11:00  21.31306 -157.88883     299   0.0 Hōkūleʻa
  2022-01-20T05:10:18UTC 2022-01-19T19:10:18-10:00 2022-01-19T18:10:18-11:00  21.31323 -157.88847       0   0.0 Hikianalia
  2022-01-20T04:18:36UTC 2022-01-19T18:18:36-10:00 2022-01-19T17:18:36-11:00  21.31305 -157.88881     119   0.0 Hōkūleʻa
  2022-01-20T04:10:31UTC 2022-01-19T18:10:31-10:00 2022-01-19T17:10:31-11:00  21.31323 -157.88847     201   0.0 Hikianalia
  2022-01-20T03:17:32UTC 2022-01-19T17:17:32-10:00 2022-01-19T16:17:32-11:00  21.31307 -157.88886     270   0.0 Hōkūleʻa
  2022-01-20T03:10:45UTC 2022-01-19T17:10:45-10:00 2022-01-19T16:10:45-11:00  21.31328 -157.88845      21   0.0 Hikianalia
  2022-01-20T02:18:39UTC 2022-01-19T16:18:39-10:00 2022-01-19T15:18:39-11:00  21.31307 -157.88883      90   0.0 Hōkūleʻa
  2022-01-20T02:09:17UTC 2022-01-19T16:09:17-10:00 2022-01-19T15:09:17-11:00  21.31323 -157.88847       0   0.0 Hikianalia
  2022-01-20T01:17:26UTC 2022-01-19T15:17:26-10:00 2022-01-19T14:17:26-11:00  21.31307 -157.88888     232   0.0 Hōkūleʻa
  2022-01-20T01:10:14UTC 2022-01-19T15:10:14-10:00 2022-01-19T14:10:14-11:00  21.31323 -157.88847     192   0.0 Hikianalia
  2022-01-20T00:18:39UTC 2022-01-19T14:18:39-10:00 2022-01-19T13:18:39-11:00  21.31333 -157.88845      12   0.0 Hikianalia
  2022-01-20T00:18:32UTC 2022-01-19T14:18:32-10:00 2022-01-19T13:18:32-11:00  21.31310 -157.88883       0   0.0 Hōkūleʻa
  2022-01-19T23:17:31UTC 2022-01-19T13:17:31-10:00 2022-01-19T12:17:31-11:00  21.31307 -157.88883       0   0.0 Hōkūleʻa
  2022-01-19T23:10:08UTC 2022-01-19T13:10:08-10:00 2022-01-19T12:10:08-11:00  21.31323 -157.88847       0   0.0 Hikianalia
  2022-01-19T22:18:40UTC 2022-01-19T12:18:40-10:00 2022-01-19T11:18:40-11:00  21.31306 -157.88883     270   0.0 Hōkūleʻa
  2022-01-19T22:09:15UTC 2022-01-19T12:09:15-10:00 2022-01-19T11:09:15-11:00  21.31323 -157.88847     155   0.0 Hikianalia
  2022-01-19T21:26:28UTC 2022-01-19T11:26:28-10:00 2022-01-19T10:26:28-11:00  21.31306 -157.88879      51   0.0 Hōkūleʻa
  2022-01-19T21:10:09UTC 2022-01-19T11:10:09-10:00 2022-01-19T10:10:09-11:00  21.31332 -157.88851     321   0.0 Hikianalia
  2022-01-19T20:18:29UTC 2022-01-19T10:18:29-10:00 2022-01-19T09:18:29-11:00  21.31303 -157.88883     180   0.0 Hōkūleʻa
  2022-01-19T20:09:39UTC 2022-01-19T10:09:39-10:00 2022-01-19T09:09:39-11:00  21.31324 -157.88845      90   0.0 Hikianalia
  2022-01-19T19:18:33UTC 2022-01-19T09:18:33-10:00 2022-01-19T08:18:33-11:00  21.31306 -157.88883       0   0.0 Hōkūleʻa
  2022-01-19T19:17:26UTC 2022-01-19T09:17:26-10:00 2022-01-19T08:17:26-11:00  21.31324 -157.88849     270   0.0 Hikianalia
  2022-01-19T18:18:47UTC 2022-01-19T08:18:47-10:00 2022-01-19T07:18:47-11:00  21.31305 -157.88883       0   0.0 Hōkūleʻa
  2022-01-19T18:10:09UTC 2022-01-19T08:10:09-10:00 2022-01-19T07:10:09-11:00  21.31324 -157.88845      70   0.0 Hikianalia
  2022-01-19T17:18:38UTC 2022-01-19T07:18:38-10:00 2022-01-19T06:18:38-11:00  21.31303 -157.88883       0   0.0 Hōkūleʻa
  2022-01-19T17:10:16UTC 2022-01-19T07:10:16-10:00 2022-01-19T06:10:16-11:00  21.31322 -157.88851     241   0.0 Hikianalia
  2022-01-19T16:18:24UTC 2022-01-19T06:18:24-10:00 2022-01-19T05:18:24-11:00  21.31303 -157.88883     180   0.0 Hōkūleʻa
  2022-01-19T16:10:41UTC 2022-01-19T06:10:41-10:00 2022-01-19T05:10:41-11:00  21.31324 -157.88847       0   0.0 Hikianalia
  2022-01-19T15:18:24UTC 2022-01-19T05:18:24-10:00 2022-01-19T04:18:24-11:00  21.31304 -157.88883      62   0.0 Hōkūleʻa
  2022-01-19T15:10:09UTC 2022-01-19T05:10:09-10:00 2022-01-19T04:10:09-11:00  21.31323 -157.88847     298   0.0 Hikianalia
  2022-01-19T14:17:39UTC 2022-01-19T04:17:39-10:00 2022-01-19T03:17:39-11:00  21.31303 -157.88886     298   0.0 Hōkūleʻa
  2022-01-19T14:10:14UTC 2022-01-19T04:10:14-10:00 2022-01-19T03:10:14-11:00  21.31322 -157.88845     137   0.0 Hikianalia
  2022-01-19T13:18:27UTC 2022-01-19T03:18:27-10:00 2022-01-19T02:18:27-11:00  21.31302 -157.88883     147   0.0 Hōkūleʻa
  2022-01-19T13:10:45UTC 2022-01-19T03:10:45-10:00 2022-01-19T02:10:45-11:00  21.31324 -157.88847     280   0.0 Hikianalia
  2022-01-19T12:18:23UTC 2022-01-19T02:18:23-10:00 2022-01-19T01:18:23-11:00  21.31305 -157.88886       0   0.0 Hōkūleʻa
  2022-01-19T12:10:17UTC 2022-01-19T02:10:17-10:00 2022-01-19T01:10:17-11:00  21.31323 -157.88841     100   0.0 Hikianalia
  2022-01-19T11:18:30UTC 2022-01-19T01:18:30-10:00 2022-01-19T00:18:30-11:00  21.31303 -157.88886     224   0.0 Hōkūleʻa
  2022-01-19T11:10:43UTC 2022-01-19T01:10:43-10:00 2022-01-19T00:10:43-11:00  21.31324 -157.88847       0   0.0 Hikianalia
  2022-01-19T10:18:41UTC 2022-01-19T00:18:41-10:00 2022-01-18T23:18:41-11:00  21.31305 -157.88883       0   0.0 Hōkūleʻa
  2022-01-19T10:09:38UTC 2022-01-19T00:09:38-10:00 2022-01-18T23:09:38-11:00  21.31320 -157.88847     137   0.0 Hikianalia
  2022-01-19T09:19:24UTC 2022-01-18T23:19:24-10:00 2022-01-18T22:19:24-11:00  21.31303 -157.88883     180   0.0 Hōkūleʻa
  2022-01-19T09:10:10UTC 2022-01-18T23:10:10-10:00 2022-01-18T22:10:10-11:00  21.31322 -157.88849     223   0.0 Hikianalia
  2022-01-19T08:18:32UTC 2022-01-18T22:18:32-10:00 2022-01-18T21:18:32-11:00  21.31304 -157.88883      90   0.0 Hōkūleʻa
  2022-01-19T08:10:45UTC 2022-01-18T22:10:45-10:00 2022-01-18T21:10:45-11:00  21.31326 -157.88845     328   0.0 Hikianalia
  2022-01-19T07:18:36UTC 2022-01-18T21:18:36-10:00 2022-01-18T20:18:36-11:00  21.31304 -157.88886     270   0.0 Hōkūleʻa
  2022-01-19T07:11:24UTC 2022-01-18T21:11:24-10:00 2022-01-18T20:11:24-11:00  21.31323 -157.88843     119   0.0 Hikianalia
  2022-01-19T06:18:49UTC 2022-01-18T20:18:49-10:00 2022-01-18T19:18:49-11:00  21.31304 -157.88883       0   0.0 Hōkūleʻa
  2022-01-19T06:10:48UTC 2022-01-18T20:10:48-10:00 2022-01-18T19:10:48-11:00  21.31324 -157.88845     285   0.0 Hikianalia
  2022-01-19T05:18:30UTC 2022-01-18T19:18:30-10:00 2022-01-18T18:18:30-11:00  21.31304 -157.88883       0   0.0 Hōkūleʻa
  2022-01-19T05:09:17UTC 2022-01-18T19:09:17-10:00 2022-01-18T18:09:17-11:00  21.31323 -157.88841      90   0.0 Hikianalia
  2022-01-19T04:17:33UTC 2022-01-18T18:17:33-10:00 2022-01-18T17:17:33-11:00  21.31303 -157.88883     241   0.0 Hōkūleʻa
  2022-01-19T04:10:06UTC 2022-01-18T18:10:06-10:00 2022-01-18T17:10:06-11:00  21.31323 -157.88845     136   0.0 Hikianalia
  2022-01-19T03:18:24UTC 2022-01-18T17:18:24-10:00 2022-01-18T16:18:24-11:00  21.31304 -157.88881     117   0.0 Hōkūleʻa
  2022-01-19T03:10:44UTC 2022-01-18T17:10:44-10:00 2022-01-18T16:10:44-11:00  21.31325 -157.88847      40   0.0 Hikianalia
  2022-01-19T02:18:45UTC 2022-01-18T16:18:45-10:00 2022-01-18T15:18:45-11:00  21.31305 -157.88883     270   0.0 Hōkūleʻa
  2022-01-19T02:10:17UTC 2022-01-18T16:10:17-10:00 2022-01-18T15:10:17-11:00  21.31313 -157.88858     226   0.0 Hikianalia
  2022-01-19T01:17:27UTC 2022-01-18T15:17:27-10:00 2022-01-18T14:17:27-11:00  21.31305 -157.88879     119   0.0 Hōkūleʻa
  2022-01-19T01:09:14UTC 2022-01-18T15:09:14-10:00 2022-01-18T14:09:14-11:00  21.31323 -157.88847     180   0.0 Hikianalia
  2022-01-19T00:18:30UTC 2022-01-18T14:18:30-10:00 2022-01-18T13:18:30-11:00  21.31307 -157.88883      90   0.0 Hōkūleʻa
  2022-01-19T00:09:35UTC 2022-01-18T14:09:35-10:00 2022-01-18T13:09:35-11:00  21.31326 -157.88847       0   0.0 Hikianalia
  2022-01-18T23:17:28UTC 2022-01-18T13:17:28-10:00 2022-01-18T12:17:28-11:00  21.31307 -157.88886       0   0.0 Hōkūleʻa
  2022-01-18T23:10:18UTC 2022-01-18T13:10:18-10:00 2022-01-18T12:10:18-11:00  21.31323 -157.88847       0   0.0 Hikianalia
  2022-01-18T22:18:46UTC 2022-01-18T12:18:46-10:00 2022-01-18T11:18:46-11:00  21.31307 -157.88886     213   0.0 Hōkūleʻa
  2022-01-18T22:09:14UTC 2022-01-18T12:09:14-10:00 2022-01-18T11:09:14-11:00  21.31323 -157.88847       9   0.0 Hikianalia
  2022-01-18T21:17:32UTC 2022-01-18T11:17:32-10:00 2022-01-18T10:17:32-11:00  21.31310 -157.88883       0   0.0 Hōkūleʻa
  2022-01-18T21:10:16UTC 2022-01-18T11:10:16-10:00 2022-01-18T10:10:16-11:00  21.31311 -157.88849     197   0.0 Hikianalia
  2022-01-18T20:28:26UTC 2022-01-18T10:28:26-10:00 2022-01-18T09:28:26-11:00  21.31304 -157.88883       0   0.0 Hōkūleʻa
  2022-01-18T20:09:39UTC 2022-01-18T10:09:39-10:00 2022-01-18T09:09:39-11:00  21.31324 -157.88845     335   0.0 Hikianalia
  2022-01-18T19:18:24UTC 2022-01-18T09:18:24-10:00 2022-01-18T08:18:24-11:00  21.31304 -157.88883     180   0.0 Hōkūleʻa
  2022-01-18T19:10:13UTC 2022-01-18T09:10:13-10:00 2022-01-18T08:10:13-11:00  21.31320 -157.88843     118   0.0 Hikianalia
  2022-01-18T18:18:49UTC 2022-01-18T08:18:49-10:00 2022-01-18T07:18:49-11:00  21.31305 -157.88883     180   0.0 Hōkūleʻa
  2022-01-18T18:09:16UTC 2022-01-18T08:09:16-10:00 2022-01-18T07:09:16-11:00  21.31322 -157.88847     180   0.0 Hikianalia
  2022-01-18T17:18:29UTC 2022-01-18T07:18:29-10:00 2022-01-18T06:18:29-11:00  21.31306 -157.88883       0   0.0 Hōkūleʻa
  2022-01-18T17:10:09UTC 2022-01-18T07:10:09-10:00 2022-01-18T06:10:09-11:00  21.31324 -157.88847       0   0.0 Hikianalia
  2022-01-18T16:18:25UTC 2022-01-18T06:18:25-10:00 2022-01-18T05:18:25-11:00  21.31304 -157.88883       0   0.0 Hōkūleʻa
  2022-01-18T16:10:41UTC 2022-01-18T06:10:41-10:00 2022-01-18T05:10:41-11:00  21.31324 -157.88847      42   0.0 Hikianalia
  2022-01-18T15:18:24UTC 2022-01-18T05:18:24-10:00 2022-01-18T04:18:24-11:00  21.31304 -157.88883       0   0.0 Hōkūleʻa
  2022-01-18T15:09:09UTC 2022-01-18T05:09:09-10:00 2022-01-18T04:09:09-11:00  21.31322 -157.88849     270   0.0 Hikianalia
  2022-01-18T14:18:49UTC 2022-01-18T04:18:49-10:00 2022-01-18T03:18:49-11:00  21.31303 -157.88883     290   0.0 Hōkūleʻa
  2022-01-18T14:10:18UTC 2022-01-18T04:10:18-10:00 2022-01-18T03:10:18-11:00  21.31322 -157.88845     105   0.0 Hikianalia
  2022-01-18T13:18:36UTC 2022-01-18T03:18:36-10:00 2022-01-18T02:18:36-11:00  21.31300 -157.88877     110   0.0 Hōkūleʻa
  2022-01-18T13:10:11UTC 2022-01-18T03:10:11-10:00 2022-01-18T02:10:11-11:00  21.31323 -157.88849     180   0.0 Hikianalia
  2022-01-18T12:18:31UTC 2022-01-18T02:18:31-10:00 2022-01-18T01:18:31-11:00  21.31303 -157.88883     180   0.0 Hōkūleʻa
  2022-01-18T12:10:51UTC 2022-01-18T02:10:51-10:00 2022-01-18T01:10:51-11:00  21.31325 -157.88849     301   0.3 Hikianalia
  2022-01-18T11:18:22UTC 2022-01-18T01:18:22-10:00 2022-01-18T00:18:22-11:00  21.31306 -157.88883       0   0.0 Hōkūleʻa
  2022-01-18T11:18:04UTC 2022-01-18T01:18:04-10:00 2022-01-18T00:18:04-11:00  21.31104 -157.88452     121   0.2 Hikianalia
  2022-01-18T10:18:42UTC 2022-01-18T00:18:42-10:00 2022-01-17T23:18:42-11:00  21.31303 -157.88883     180   0.0 Hōkūleʻa
  2022-01-18T10:10:47UTC 2022-01-18T00:10:47-10:00 2022-01-17T23:10:47-11:00  21.31324 -157.88849      72   0.0 Hikianalia
  2022-01-18T09:18:33UTC 2022-01-17T23:18:33-10:00 2022-01-17T22:18:33-11:00  21.31304 -157.88883     180   0.0 Hōkūleʻa
  2022-01-18T09:09:09UTC 2022-01-17T23:09:09-10:00 2022-01-17T22:09:09-11:00  21.31321 -157.88860       0   0.0 Hikianalia
  2022-01-18T08:18:30UTC 2022-01-17T22:18:30-10:00 2022-01-17T21:18:30-11:00  21.31305 -157.88883       0   0.0 Hōkūleʻa
  2022-01-18T08:10:09UTC 2022-01-17T22:10:09-10:00 2022-01-17T21:10:09-11:00  21.31321 -157.88860      55   0.0 Hikianalia
  2022-01-18T07:18:29UTC 2022-01-17T21:18:29-10:00 2022-01-17T20:18:29-11:00  21.31305 -157.88883     180   0.0 Hōkūleʻa
  2022-01-18T07:10:08UTC 2022-01-17T21:10:08-10:00 2022-01-17T20:10:08-11:00  21.31312 -157.88873     246   0.0 Hikianalia
  2022-01-18T06:18:49UTC 2022-01-17T20:18:49-10:00 2022-01-17T19:18:49-11:00  21.31306 -157.88883     180   0.0 Hōkūleʻa
  2022-01-18T06:10:47UTC 2022-01-17T20:10:47-10:00 2022-01-17T19:10:47-11:00  21.31323 -157.88847      88   0.0 Hikianalia
  2022-01-18T05:18:22UTC 2022-01-17T19:18:22-10:00 2022-01-17T18:18:22-11:00  21.31307 -157.88883     309   0.0 Hōkūleʻa
  2022-01-18T05:10:14UTC 2022-01-17T19:10:14-10:00 2022-01-17T18:10:14-11:00  21.31322 -157.88879     273   0.0 Hikianalia
  2022-01-18T04:18:24UTC 2022-01-17T18:18:24-10:00 2022-01-17T17:18:24-11:00  21.31304 -157.88879     138   0.0 Hōkūleʻa
  2022-01-18T04:10:07UTC 2022-01-17T18:10:07-10:00 2022-01-17T17:10:07-11:00  21.31321 -157.88860     267   0.0 Hikianalia
  2022-01-18T03:18:29UTC 2022-01-17T17:18:29-10:00 2022-01-17T16:18:29-11:00  21.31308 -157.88883     299   0.0 Hōkūleʻa
  2022-01-18T03:10:26UTC 2022-01-17T17:10:26-10:00 2022-01-17T16:10:26-11:00  21.31322 -157.88841     148   0.0 Hikianalia
  2022-01-18T02:17:49UTC 2022-01-17T16:17:49-10:00 2022-01-17T15:17:49-11:00  21.31307 -157.88881      43   0.0 Hōkūleʻa
  2022-01-18T02:10:45UTC 2022-01-17T16:10:45-10:00 2022-01-17T15:10:45-11:00  21.31328 -157.88845      44   0.0 Hikianalia
  2022-01-18T01:18:34UTC 2022-01-17T15:18:34-10:00 2022-01-17T14:18:34-11:00  21.31303 -157.88886     224   0.0 Hōkūleʻa
  2022-01-18T01:09:12UTC 2022-01-17T15:09:12-10:00 2022-01-17T14:09:12-11:00  21.31324 -157.88849     212   0.0 Hikianalia
  2022-01-18T00:17:24UTC 2022-01-17T14:17:24-10:00 2022-01-17T13:17:24-11:00  21.31305 -157.88883       0   0.0 Hōkūleʻa
  2022-01-18T00:10:10UTC 2022-01-17T14:10:10-10:00 2022-01-17T13:10:10-11:00  21.31327 -157.88847     298   0.0 Hikianalia
  2022-01-17T23:18:30UTC 2022-01-17T13:18:30-10:00 2022-01-17T12:18:30-11:00  21.31305 -157.88883      64   0.0 Hōkūleʻa
  2022-01-17T23:09:40UTC 2022-01-17T13:09:40-10:00 2022-01-17T12:09:40-11:00  21.31326 -157.88845     125   0.0 Hikianalia
  2022-01-17T22:24:13UTC 2022-01-17T12:24:13-10:00 2022-01-17T11:24:13-11:00  21.31304 -157.88886     299   0.0 Hōkūleʻa
  2022-01-17T22:09:14UTC 2022-01-17T12:09:14-10:00 2022-01-17T11:09:14-11:00  21.31330 -157.88851     316   0.0 Hikianalia
  2022-01-17T21:18:23UTC 2022-01-17T11:18:23-10:00 2022-01-17T10:18:23-11:00  21.31302 -157.88881     148   0.0 Hōkūleʻa
  2022-01-17T21:10:09UTC 2022-01-17T11:10:09-10:00 2022-01-17T10:10:09-11:00  21.31324 -157.88845       0   0.0 Hikianalia
  2022-01-17T20:17:27UTC 2022-01-17T10:17:27-10:00 2022-01-17T09:17:27-11:00  21.31305 -157.88883       0   0.0 Hōkūleʻa
  2022-01-17T20:09:37UTC 2022-01-17T10:09:37-10:00 2022-01-17T09:09:37-11:00  21.31324 -157.88845     180   0.0 Hikianalia
  2022-01-17T19:18:23UTC 2022-01-17T09:18:23-10:00 2022-01-17T08:18:23-11:00  21.31305 -157.88883     180   0.0 Hōkūleʻa
  2022-01-17T19:10:39UTC 2022-01-17T09:10:39-10:00 2022-01-17T08:10:39-11:00  21.31327 -157.88845     104   0.0 Hikianalia
  2022-01-17T18:18:47UTC 2022-01-17T08:18:47-10:00 2022-01-17T07:18:47-11:00  21.31307 -157.88883      33   0.0 Hōkūleʻa
  2022-01-17T18:10:51UTC 2022-01-17T08:10:51-10:00 2022-01-17T07:10:51-11:00  21.31328 -157.88849     311   0.0 Hikianalia
  2022-01-17T17:24:29UTC 2022-01-17T07:24:29-10:00 2022-01-17T06:24:29-11:00  21.31323 -157.88843     105   0.0 Hikianalia
  2022-01-17T17:19:31UTC 2022-01-17T07:19:31-10:00 2022-01-17T06:19:31-11:00  21.31304 -157.88886     270   0.0 Hōkūleʻa
  2022-01-17T16:18:33UTC 2022-01-17T06:18:33-10:00 2022-01-17T05:18:33-11:00  21.31304 -157.88883     116   0.0 Hōkūleʻa
  2022-01-17T16:10:37UTC 2022-01-17T06:10:37-10:00 2022-01-17T05:10:37-11:00  21.31324 -157.88847      75   0.0 Hikianalia
  2022-01-17T15:18:30UTC 2022-01-17T05:18:30-10:00 2022-01-17T04:18:30-11:00  21.31305 -157.88886     296   0.0 Hōkūleʻa
  2022-01-17T15:10:45UTC 2022-01-17T05:10:45-10:00 2022-01-17T04:10:45-11:00  21.31323 -157.88851     223   0.0 Hikianalia
  2022-01-17T14:18:47UTC 2022-01-17T04:18:47-10:00 2022-01-17T03:18:47-11:00  21.31304 -157.88883     286   0.0 Hōkūleʻa
  2022-01-17T14:10:16UTC 2022-01-17T04:10:16-10:00 2022-01-17T03:10:16-11:00  21.31327 -157.88847       0   0.0 Hikianalia
  2022-01-17T13:20:09UTC 2022-01-17T03:20:09-10:00 2022-01-17T02:20:09-11:00  21.31323 -157.88847     290   0.0 Hikianalia
  2022-01-17T13:18:27UTC 2022-01-17T03:18:27-10:00 2022-01-17T02:18:27-11:00  21.31303 -157.88879     106   0.0 Hōkūleʻa
  2022-01-17T12:18:32UTC 2022-01-17T02:18:32-10:00 2022-01-17T01:18:32-11:00  21.31304 -157.88883       0   0.0 Hōkūleʻa
  2022-01-17T12:10:09UTC 2022-01-17T02:10:09-10:00 2022-01-17T01:10:09-11:00  21.31321 -157.88841     130   0.0 Hikianalia
  2022-01-17T11:18:30UTC 2022-01-17T01:18:30-10:00 2022-01-17T00:18:30-11:00  21.31302 -157.88883     180   0.0 Hōkūleʻa
  2022-01-17T11:10:17UTC 2022-01-17T01:10:17-10:00 2022-01-17T00:10:17-11:00  21.31329 -157.88851     317   0.0 Hikianalia
  2022-01-17T10:18:44UTC 2022-01-17T00:18:44-10:00 2022-01-16T23:18:44-11:00  21.31303 -157.88883     136   0.0 Hōkūleʻa
  2022-01-17T10:10:49UTC 2022-01-17T00:10:49-10:00 2022-01-16T23:10:49-11:00  21.31325 -157.88847       0   0.0 Hikianalia
  2022-01-17T09:18:30UTC 2022-01-16T23:18:30-10:00 2022-01-16T22:18:30-11:00  21.31305 -157.88886     316   0.0 Hōkūleʻa
  2022-01-17T09:10:18UTC 2022-01-16T23:10:18-10:00 2022-01-16T22:10:18-11:00  21.31324 -157.88847      75   0.0 Hikianalia
  2022-01-17T08:18:38UTC 2022-01-16T22:18:38-10:00 2022-01-16T21:18:38-11:00  21.31303 -157.88883     180   0.0 Hōkūleʻa
  2022-01-17T08:09:34UTC 2022-01-16T22:09:34-10:00 2022-01-16T21:09:34-11:00  21.31321 -157.88860       0   0.0 Hikianalia
  2022-01-17T07:18:23UTC 2022-01-16T21:18:23-10:00 2022-01-16T20:18:23-11:00  21.31305 -157.88883       0   0.0 Hōkūleʻa
  2022-01-17T07:10:06UTC 2022-01-16T21:10:06-10:00 2022-01-16T20:10:06-11:00  21.31321 -157.88860     242   0.0 Hikianalia
  2022-01-17T06:18:48UTC 2022-01-16T20:18:48-10:00 2022-01-16T19:18:48-11:00  21.31303 -157.88883       0   0.0 Hōkūleʻa
  2022-01-17T06:10:38UTC 2022-01-16T20:10:38-10:00 2022-01-16T19:10:38-11:00  21.31327 -157.88847       7   0.0 Hikianalia
  2022-01-17T05:18:32UTC 2022-01-16T19:18:32-10:00 2022-01-16T18:18:32-11:00  21.31300 -157.88883     137   0.0 Hōkūleʻa
  2022-01-17T05:10:18UTC 2022-01-16T19:10:18-10:00 2022-01-16T18:10:18-11:00  21.31310 -157.88849     137   0.0 Hikianalia
  2022-01-17T04:18:33UTC 2022-01-16T18:18:33-10:00 2022-01-16T17:18:33-11:00  21.31303 -157.88886     224   0.0 Hōkūleʻa
  2022-01-17T04:10:16UTC 2022-01-16T18:10:16-10:00 2022-01-16T17:10:16-11:00  21.31321 -157.88860       0   0.0 Hikianalia
  2022-01-17T03:18:24UTC 2022-01-16T17:18:24-10:00 2022-01-16T16:18:24-11:00  21.31305 -157.88883       0   0.0 Hōkūleʻa
  2022-01-17T03:09:08UTC 2022-01-16T17:09:08-10:00 2022-01-16T16:09:08-11:00  21.31321 -157.88860     250   0.0 Hikianalia
  2022-01-17T02:17:46UTC 2022-01-16T16:17:46-10:00 2022-01-16T15:17:46-11:00  21.31305 -157.88883     298   0.0 Hōkūleʻa
  2022-01-17T02:10:35UTC 2022-01-16T16:10:35-10:00 2022-01-16T15:10:35-11:00  21.31325 -157.88847     157   0.0 Hikianalia
  2022-01-17T01:18:25UTC 2022-01-16T15:18:25-10:00 2022-01-16T14:18:25-11:00  21.31303 -157.88879     132   0.0 Hōkūleʻa
  2022-01-17T01:10:47UTC 2022-01-16T15:10:47-10:00 2022-01-16T14:10:47-11:00  21.31339 -157.88853      18   0.0 Hikianalia
  2022-01-17T00:17:33UTC 2022-01-16T14:17:33-10:00 2022-01-16T13:17:33-11:00  21.31308 -157.88886     334   0.0 Hōkūleʻa
  2022-01-17T00:09:19UTC 2022-01-16T14:09:19-10:00 2022-01-16T13:09:19-11:00  21.31321 -157.88860     275   0.0 Hikianalia
  2022-01-16T23:18:30UTC 2022-01-16T13:18:30-10:00 2022-01-16T12:18:30-11:00  21.31304 -157.88883     136   0.0 Hōkūleʻa
  2022-01-16T23:10:09UTC 2022-01-16T13:10:09-10:00 2022-01-16T12:10:09-11:00  21.31320 -157.88847     180   0.0 Hikianalia
  2022-01-16T22:17:54UTC 2022-01-16T12:17:54-10:00 2022-01-16T11:17:54-11:00  21.31306 -157.88886     308   0.0 Hōkūleʻa
  2022-01-16T22:15:40UTC 2022-01-16T12:15:40-10:00 2022-01-16T11:15:40-11:00  21.31325 -157.88847     213   0.0 Hikianalia
  2022-01-16T21:18:31UTC 2022-01-16T11:18:31-10:00 2022-01-16T10:18:31-11:00  21.31303 -157.88881     119   0.0 Hōkūleʻa
  2022-01-16T21:10:10UTC 2022-01-16T11:10:10-10:00 2022-01-16T10:10:10-11:00  21.31328 -157.88845       0   0.0 Hikianalia
  2022-01-16T20:17:36UTC 2022-01-16T10:17:36-10:00 2022-01-16T09:17:36-11:00  21.31304 -157.88883     137   0.0 Hōkūleʻa
  2022-01-16T20:10:15UTC 2022-01-16T10:10:15-10:00 2022-01-16T09:10:15-11:00  21.31325 -157.88845       0   0.0 Hikianalia
  2022-01-16T19:18:27UTC 2022-01-16T09:18:27-10:00 2022-01-16T08:18:27-11:00  21.31308 -157.88888     317   0.0 Hōkūleʻa
  2022-01-16T19:10:49UTC 2022-01-16T09:10:49-10:00 2022-01-16T08:10:49-11:00  21.31323 -157.88845      81   0.0 Hikianalia
  2022-01-16T18:18:49UTC 2022-01-16T08:18:49-10:00 2022-01-16T07:18:49-11:00  21.31304 -157.88883       0   0.0 Hōkūleʻa
  2022-01-16T18:10:18UTC 2022-01-16T08:10:18-10:00 2022-01-16T07:10:18-11:00  21.31321 -157.88860     249   0.0 Hikianalia
  2022-01-16T17:18:32UTC 2022-01-16T07:18:32-10:00 2022-01-16T06:18:32-11:00  21.31302 -157.88883     137   0.0 Hōkūleʻa
  2022-01-16T17:10:16UTC 2022-01-16T07:10:16-10:00 2022-01-16T06:10:16-11:00  21.31326 -157.88845       0   0.0 Hikianalia
  2022-01-16T16:18:25UTC 2022-01-16T06:18:25-10:00 2022-01-16T05:18:25-11:00  21.31304 -157.88886     270   0.0 Hōkūleʻa
  2022-01-16T16:10:47UTC 2022-01-16T06:10:47-10:00 2022-01-16T05:10:47-11:00  21.31323 -157.88845      81   0.0 Hikianalia
  2022-01-16T15:18:31UTC 2022-01-16T05:18:31-10:00 2022-01-16T04:18:31-11:00  21.31304 -157.88883       0   0.0 Hōkūleʻa
  2022-01-16T15:10:09UTC 2022-01-16T05:10:09-10:00 2022-01-16T04:10:09-11:00  21.31321 -157.88860     247   0.0 Hikianalia
  2022-01-16T14:18:47UTC 2022-01-16T04:18:47-10:00 2022-01-16T03:18:47-11:00  21.31304 -157.88883       0   0.0 Hōkūleʻa
  2022-01-16T14:10:17UTC 2022-01-16T04:10:17-10:00 2022-01-16T03:10:17-11:00  21.31325 -157.88849     270   0.0 Hikianalia
  2022-01-16T13:18:27UTC 2022-01-16T03:18:27-10:00 2022-01-16T02:18:27-11:00  21.31304 -157.88883       0   0.0 Hōkūleʻa
  2022-01-16T13:10:11UTC 2022-01-16T03:10:11-10:00 2022-01-16T02:10:11-11:00  21.31325 -157.88845       0   0.0 Hikianalia
  2022-01-16T12:22:02UTC 2022-01-16T02:22:02-10:00 2022-01-16T01:22:02-11:00  21.31324 -157.88845      77   0.0 Hikianalia
  2022-01-16T12:18:33UTC 2022-01-16T02:18:33-10:00 2022-01-16T01:18:33-11:00  21.31303 -157.88883     180   0.0 Hōkūleʻa
  2022-01-16T11:18:31UTC 2022-01-16T01:18:31-10:00 2022-01-16T00:18:31-11:00  21.31304 -157.88883       0   0.0 Hōkūleʻa
  2022-01-16T11:10:16UTC 2022-01-16T01:10:16-10:00 2022-01-16T00:10:16-11:00  21.31321 -157.88860     257   0.0 Hikianalia
  2022-01-16T10:18:46UTC 2022-01-16T00:18:46-10:00 2022-01-15T23:18:46-11:00  21.31303 -157.88883     118   0.0 Hōkūleʻa
  2022-01-16T10:10:15UTC 2022-01-16T00:10:15-10:00 2022-01-15T23:10:15-11:00  21.31324 -157.88845     180   0.0 Hikianalia
  2022-01-16T09:18:24UTC 2022-01-15T23:18:24-10:00 2022-01-15T22:18:24-11:00  21.31304 -157.88886     270   0.0 Hōkūleʻa
  2022-01-16T09:16:46UTC 2022-01-15T23:16:46-10:00 2022-01-15T22:16:46-11:00  21.31325 -157.88845       0   0.0 Hikianalia
  2022-01-16T08:18:38UTC 2022-01-15T22:18:38-10:00 2022-01-15T21:18:38-11:00  21.31304 -157.88883     318   0.0 Hōkūleʻa
  2022-01-16T08:10:49UTC 2022-01-15T22:10:49-10:00 2022-01-15T21:10:49-11:00  21.31324 -157.88845       0   0.0 Hikianalia
  2022-01-16T07:19:33UTC 2022-01-15T21:19:33-10:00 2022-01-15T20:19:33-11:00  21.31302 -157.88881     138   0.0 Hōkūleʻa
  2022-01-16T07:10:17UTC 2022-01-15T21:10:17-10:00 2022-01-15T20:10:17-11:00  21.31315 -157.88845     180   0.0 Hikianalia
  2022-01-16T06:18:47UTC 2022-01-15T20:18:47-10:00 2022-01-15T19:18:47-11:00  21.31304 -157.88883     180   0.0 Hōkūleʻa
  2022-01-16T06:10:18UTC 2022-01-15T20:10:18-10:00 2022-01-15T19:10:18-11:00  21.31322 -157.88845     241   0.0 Hikianalia
  2022-01-16T05:18:37UTC 2022-01-15T19:18:37-10:00 2022-01-15T18:18:37-11:00  21.31305 -157.88883     254   0.0 Hōkūleʻa
  2022-01-16T05:10:09UTC 2022-01-15T19:10:09-10:00 2022-01-15T18:10:09-11:00  21.31324 -157.88841     104   0.0 Hikianalia
  2022-01-16T04:17:33UTC 2022-01-15T18:17:33-10:00 2022-01-15T17:17:33-11:00  21.31306 -157.88879      90   0.0 Hōkūleʻa
  2022-01-16T04:10:49UTC 2022-01-15T18:10:49-10:00 2022-01-15T17:10:49-11:00  21.31325 -157.88845     222   0.0 Hikianalia
  2022-01-16T03:18:24UTC 2022-01-15T17:18:24-10:00 2022-01-15T16:18:24-11:00  21.31306 -157.88883     299   0.0 Hōkūleʻa
  2022-01-16T03:09:43UTC 2022-01-15T17:09:43-10:00 2022-01-15T16:09:43-11:00  21.31327 -157.88843     224   0.0 Hikianalia
  2022-01-16T02:18:45UTC 2022-01-15T16:18:45-10:00 2022-01-15T15:18:45-11:00  21.31305 -157.88881      90   0.0 Hōkūleʻa
  2022-01-16T02:10:35UTC 2022-01-15T16:10:35-10:00 2022-01-15T15:10:35-11:00  21.31329 -157.88841      62   0.0 Hikianalia
  2022-01-16T01:18:34UTC 2022-01-15T15:18:34-10:00 2022-01-15T14:18:34-11:00  21.31305 -157.88883     180   0.0 Hōkūleʻa
  2022-01-16T01:10:14UTC 2022-01-15T15:10:14-10:00 2022-01-15T14:10:14-11:00  21.31327 -157.88845       0   0.0 Hikianalia
  2022-01-16T00:18:32UTC 2022-01-15T14:18:32-10:00 2022-01-15T13:18:32-11:00  21.31306 -157.88883     299   0.0 Hōkūleʻa
  2022-01-16T00:09:17UTC 2022-01-15T14:09:17-10:00 2022-01-15T13:09:17-11:00  21.31325 -157.88845     217   0.0 Hikianalia
  2022-01-15T23:17:28UTC 2022-01-15T13:17:28-10:00 2022-01-15T12:17:28-11:00  21.31305 -157.88881     180   0.0 Hōkūleʻa
  2022-01-15T23:10:09UTC 2022-01-15T13:10:09-10:00 2022-01-15T12:10:09-11:00  21.31330 -157.88841      26   0.0 Hikianalia
  2022-01-15T22:17:50UTC 2022-01-15T12:17:50-10:00 2022-01-15T11:17:50-11:00  21.31306 -157.88881     299   0.0 Hōkūleʻa
  2022-01-15T22:09:41UTC 2022-01-15T12:09:41-10:00 2022-01-15T11:09:41-11:00  21.31326 -157.88843      32   0.0 Hikianalia
  2022-01-15T21:18:30UTC 2022-01-15T11:18:30-10:00 2022-01-15T10:18:30-11:00  21.31305 -157.88879      90   0.0 Hōkūleʻa
  2022-01-15T21:10:08UTC 2022-01-15T11:10:08-10:00 2022-01-15T10:10:08-11:00  21.31323 -157.88845     205   0.0 Hikianalia
  2022-01-15T20:17:55UTC 2022-01-15T10:17:55-10:00 2022-01-15T09:17:55-11:00  21.31305 -157.88883       0   0.0 Hōkūleʻa
  2022-01-15T20:09:17UTC 2022-01-15T10:09:17-10:00 2022-01-15T09:09:17-11:00  21.31327 -157.88843      42   0.0 Hikianalia
  2022-01-15T19:18:32UTC 2022-01-15T09:18:32-10:00 2022-01-15T08:18:32-11:00  21.31305 -157.88883      64   0.0 Hōkūleʻa
  2022-01-15T19:16:09UTC 2022-01-15T09:16:09-10:00 2022-01-15T08:16:09-11:00  21.31325 -157.88845      73   0.0 Hikianalia
  2022-01-15T18:18:49UTC 2022-01-15T08:18:49-10:00 2022-01-15T07:18:49-11:00  21.31304 -157.88886      61   0.0 Hōkūleʻa
  2022-01-15T18:10:18UTC 2022-01-15T08:10:18-10:00 2022-01-15T07:10:18-11:00  21.31321 -157.88860     260   0.0 Hikianalia
  2022-01-15T17:18:29UTC 2022-01-15T07:18:29-10:00 2022-01-15T06:18:29-11:00  21.31303 -157.88888     255   0.0 Hōkūleʻa
  2022-01-15T17:10:17UTC 2022-01-15T07:10:17-10:00 2022-01-15T06:10:17-11:00  21.31324 -157.88841      90   0.0 Hikianalia
  2022-01-15T16:18:33UTC 2022-01-15T06:18:33-10:00 2022-01-15T05:18:33-11:00  21.31304 -157.88883       0   0.0 Hōkūleʻa
  2022-01-15T16:10:37UTC 2022-01-15T06:10:37-10:00 2022-01-15T05:10:37-11:00  21.31324 -157.88847      62   0.0 Hikianalia
  2022-01-15T15:19:32UTC 2022-01-15T05:19:32-10:00 2022-01-15T04:19:32-11:00  21.31302 -157.88883     118   0.0 Hōkūleʻa
  2022-01-15T15:10:11UTC 2022-01-15T05:10:11-10:00 2022-01-15T04:10:11-11:00  21.31319 -157.88858     234   0.0 Hikianalia
  2022-01-15T14:18:47UTC 2022-01-15T04:18:47-10:00 2022-01-15T03:18:47-11:00  21.31303 -157.88886     270   0.0 Hōkūleʻa
  2022-01-15T14:10:13UTC 2022-01-15T04:10:13-10:00 2022-01-15T03:10:13-11:00  21.31323 -157.88851     317   0.0 Hikianalia
  2022-01-15T13:17:35UTC 2022-01-15T03:17:35-10:00 2022-01-15T02:17:35-11:00  21.31303 -157.88881      90   0.0 Hōkūleʻa
  2022-01-15T13:10:16UTC 2022-01-15T03:10:16-10:00 2022-01-15T02:10:16-11:00  21.31321 -157.88849     231   0.0 Hikianalia
  2022-01-15T12:26:08UTC 2022-01-15T02:26:08-10:00 2022-01-15T01:26:08-11:00  21.31303 -157.88883       0   0.0 Hōkūleʻa
  2022-01-15T12:18:24UTC 2022-01-15T02:18:24-10:00 2022-01-15T01:18:24-11:00  21.31324 -157.88845     109   0.0 Hikianalia
  2022-01-15T11:18:28UTC 2022-01-15T01:18:28-10:00 2022-01-15T00:18:28-11:00  21.31303 -157.88883     270   0.0 Hōkūleʻa
  2022-01-15T11:10:16UTC 2022-01-15T01:10:16-10:00 2022-01-15T00:10:16-11:00  21.31326 -157.88851     298   0.0 Hikianalia
  2022-01-15T10:18:46UTC 2022-01-15T00:18:46-10:00 2022-01-14T23:18:46-11:00  21.31303 -157.88881     118   0.0 Hōkūleʻa
  2022-01-15T10:10:46UTC 2022-01-15T00:10:46-10:00 2022-01-14T23:10:46-11:00  21.31323 -157.88845     180   0.0 Hikianalia
  2022-01-15T09:18:38UTC 2022-01-14T23:18:38-10:00 2022-01-14T22:18:38-11:00  21.31305 -157.88886     270   0.0 Hōkūleʻa
  2022-01-15T09:18:29UTC 2022-01-14T23:18:29-10:00 2022-01-14T22:18:29-11:00  21.31324 -157.88845      77   0.0 Hikianalia
  2022-01-15T08:18:26UTC 2022-01-14T22:18:26-10:00 2022-01-14T21:18:26-11:00  21.31305 -157.88883       0   0.0 Hōkūleʻa
  2022-01-15T08:10:17UTC 2022-01-14T22:10:17-10:00 2022-01-14T21:10:17-11:00  21.31321 -157.88860       0   0.0 Hikianalia
  2022-01-15T07:18:25UTC 2022-01-14T21:18:25-10:00 2022-01-14T20:18:25-11:00  21.31303 -157.88883     180   0.0 Hōkūleʻa
  2022-01-15T07:10:07UTC 2022-01-14T21:10:07-10:00 2022-01-14T20:10:07-11:00  21.31321 -157.88860     257   0.0 Hikianalia
  2022-01-15T06:18:48UTC 2022-01-14T20:18:48-10:00 2022-01-14T19:18:48-11:00  21.31304 -157.88883     180   0.0 Hōkūleʻa
  2022-01-15T06:10:46UTC 2022-01-14T20:10:46-10:00 2022-01-14T19:10:46-11:00  21.31324 -157.88845      43   0.0 Hikianalia
  2022-01-15T05:17:28UTC 2022-01-14T19:17:28-10:00 2022-01-14T18:17:28-11:00  21.31305 -157.88883     297   0.0 Hōkūleʻa
  2022-01-15T05:10:16UTC 2022-01-14T19:10:16-10:00 2022-01-14T18:10:16-11:00  21.31315 -157.88853     131   0.0 Hikianalia
  2022-01-15T04:18:24UTC 2022-01-14T18:18:24-10:00 2022-01-14T17:18:24-11:00  21.31304 -157.88881     117   0.0 Hōkūleʻa
  2022-01-15T04:10:11UTC 2022-01-14T18:10:11-10:00 2022-01-14T17:10:11-11:00  21.31321 -157.88860     335   0.0 Hikianalia
  2022-01-15T03:18:25UTC 2022-01-14T17:18:25-10:00 2022-01-14T16:18:25-11:00  21.31305 -157.88883       0   0.0 Hōkūleʻa
  2022-01-15T03:10:18UTC 2022-01-14T17:10:18-10:00 2022-01-14T16:10:18-11:00  21.31312 -157.88856     207   0.0 Hikianalia
  2022-01-15T02:17:40UTC 2022-01-14T16:17:40-10:00 2022-01-14T15:17:40-11:00  21.31305 -157.88883     270   0.0 Hōkūleʻa
  2022-01-15T02:10:45UTC 2022-01-14T16:10:45-10:00 2022-01-14T15:10:45-11:00  21.31324 -157.88849     270   0.0 Hikianalia
  2022-01-15T01:18:24UTC 2022-01-14T15:18:24-10:00 2022-01-14T14:18:24-11:00  21.31305 -157.88881     149   0.0 Hōkūleʻa
  2022-01-15T01:09:14UTC 2022-01-14T15:09:14-10:00 2022-01-14T14:09:14-11:00  21.31324 -157.88847     299   0.0 Hikianalia
  2022-01-15T00:17:33UTC 2022-01-14T14:17:33-10:00 2022-01-14T13:17:33-11:00  21.31308 -157.88883       0   0.0 Hōkūleʻa
  2022-01-15T00:10:17UTC 2022-01-14T14:10:17-10:00 2022-01-14T13:10:17-11:00  21.31322 -157.88843     128   0.0 Hikianalia
  2022-01-14T23:18:28UTC 2022-01-14T13:18:28-10:00 2022-01-14T12:18:28-11:00  21.31306 -157.88883     180   0.0 Hōkūleʻa
  2022-01-14T23:09:17UTC 2022-01-14T13:09:17-10:00 2022-01-14T12:09:17-11:00  21.31325 -157.88847     180   0.0 Hikianalia
  2022-01-14T22:17:57UTC 2022-01-14T12:17:57-10:00 2022-01-14T11:17:57-11:00  21.31307 -157.88883       0   0.0 Hōkūleʻa
  2022-01-14T22:09:48UTC 2022-01-14T12:09:48-10:00 2022-01-14T11:09:48-11:00  21.31328 -157.88847      43   0.0 Hikianalia
  2022-01-14T21:18:33UTC 2022-01-14T11:18:33-10:00 2022-01-14T10:18:33-11:00  21.31307 -157.88883       0   0.0 Hōkūleʻa
  2022-01-14T21:10:10UTC 2022-01-14T11:10:10-10:00 2022-01-14T10:10:10-11:00  21.31326 -157.88849      62   0.0 Hikianalia
  2022-01-14T20:17:31UTC 2022-01-14T10:17:31-10:00 2022-01-14T09:17:31-11:00  21.31304 -157.88883     116   0.0 Hōkūleʻa
  2022-01-14T20:10:17UTC 2022-01-14T10:10:17-10:00 2022-01-14T09:10:17-11:00  21.31321 -157.88860     253   0.0 Hikianalia
  2022-01-14T19:20:11UTC 2022-01-14T09:20:11-10:00 2022-01-14T08:20:11-11:00  21.31325 -157.88845       0   0.0 Hikianalia
  2022-01-14T19:18:24UTC 2022-01-14T09:18:24-10:00 2022-01-14T08:18:24-11:00  21.31305 -157.88886     296   0.0 Hōkūleʻa
  2022-01-14T18:18:57UTC 2022-01-14T08:18:57-10:00 2022-01-14T07:18:57-11:00  21.31304 -157.88883      43   0.0 Hōkūleʻa
  2022-01-14T18:10:17UTC 2022-01-14T08:10:17-10:00 2022-01-14T07:10:17-11:00  21.31322 -157.88845     180   0.0 Hikianalia
  2022-01-14T17:25:48UTC 2022-01-14T07:25:48-10:00 2022-01-14T06:25:48-11:00  21.31302 -157.88886       0   0.0 Hōkūleʻa
  2022-01-14T17:09:08UTC 2022-01-14T07:09:08-10:00 2022-01-14T06:09:08-11:00  21.31328 -157.88845      21   0.0 Hikianalia
  2022-01-14T16:18:33UTC 2022-01-14T06:18:33-10:00 2022-01-14T05:18:33-11:00  21.31300 -157.88886     270   0.0 Hōkūleʻa
  2022-01-14T16:11:39UTC 2022-01-14T06:11:39-10:00 2022-01-14T05:11:39-11:00  21.31323 -157.88847      74   0.0 Hikianalia
  2022-01-14T15:18:33UTC 2022-01-14T05:18:33-10:00 2022-01-14T04:18:33-11:00  21.31300 -157.88883       0   0.0 Hōkūleʻa
  2022-01-14T15:10:18UTC 2022-01-14T05:10:18-10:00 2022-01-14T04:10:18-11:00  21.31314 -157.88879     252   0.0 Hikianalia
  2022-01-14T14:18:47UTC 2022-01-14T04:18:47-10:00 2022-01-14T03:18:47-11:00  21.31300 -157.88883     119   0.0 Hōkūleʻa
  2022-01-14T14:09:17UTC 2022-01-14T04:09:17-10:00 2022-01-14T03:09:17-11:00  21.31325 -157.88845      15   0.0 Hikianalia
  2022-01-14T13:18:27UTC 2022-01-14T03:18:27-10:00 2022-01-14T02:18:27-11:00  21.31303 -157.88888     180   0.0 Hōkūleʻa
  2022-01-14T13:10:06UTC 2022-01-14T03:10:06-10:00 2022-01-14T02:10:06-11:00  21.31318 -157.88847     198   0.0 Hikianalia
  2022-01-14T12:28:56UTC 2022-01-14T02:28:56-10:00 2022-01-14T01:28:56-11:00  21.31306 -157.88888     317   0.0 Hōkūleʻa
  2022-01-14T12:10:41UTC 2022-01-14T02:10:41-10:00 2022-01-14T01:10:41-11:00  21.31324 -157.88845       0   0.0 Hikianalia
  2022-01-14T11:18:30UTC 2022-01-14T01:18:30-10:00 2022-01-14T00:18:30-11:00  21.31302 -157.88883       0   0.0 Hōkūleʻa
  2022-01-14T11:10:09UTC 2022-01-14T01:10:09-10:00 2022-01-14T00:10:09-11:00  21.31323 -157.88845       0   0.0 Hikianalia
  2022-01-14T10:18:49UTC 2022-01-14T00:18:49-10:00 2022-01-13T23:18:49-11:00  21.31302 -157.88883       0   0.0 Hōkūleʻa
  2022-01-14T10:09:45UTC 2022-01-14T00:09:45-10:00 2022-01-13T23:09:45-11:00  21.31323 -157.88845     242   0.0 Hikianalia
  2022-01-14T09:18:31UTC 2022-01-13T23:18:31-10:00 2022-01-13T22:18:31-11:00  21.31302 -157.88883     180   0.0 Hōkūleʻa
  2022-01-14T09:10:11UTC 2022-01-13T23:10:11-10:00 2022-01-13T22:10:11-11:00  21.31325 -157.88841      90   0.0 Hikianalia
  2022-01-14T08:18:35UTC 2022-01-13T22:18:35-10:00 2022-01-13T21:18:35-11:00  21.31303 -157.88883       0   0.0 Hōkūleʻa
  2022-01-14T08:10:43UTC 2022-01-13T22:10:43-10:00 2022-01-13T21:10:43-11:00  21.31325 -157.88843      67   0.0 Hikianalia
  2022-01-14T07:18:24UTC 2022-01-13T21:18:24-10:00 2022-01-13T20:18:24-11:00  21.31302 -157.88883     180   0.0 Hōkūleʻa
  2022-01-14T07:10:06UTC 2022-01-13T21:10:06-10:00 2022-01-13T20:10:06-11:00  21.31321 -157.88853     284   0.0 Hikianalia
  2022-01-14T06:17:45UTC 2022-01-13T20:17:45-10:00 2022-01-13T19:17:45-11:00  21.31303 -157.88883       0   0.0 Hōkūleʻa
  2022-01-14T06:10:11UTC 2022-01-13T20:10:11-10:00 2022-01-13T19:10:11-11:00  21.31320 -157.88849     205   0.0 Hikianalia
  2022-01-14T05:18:24UTC 2022-01-13T19:18:24-10:00 2022-01-13T18:18:24-11:00  21.31302 -157.88883     212   0.0 Hōkūleʻa
  2022-01-14T05:10:48UTC 2022-01-13T19:10:48-10:00 2022-01-13T18:10:48-11:00  21.31324 -157.88847      73   0.0 Hikianalia
  2022-01-14T04:18:33UTC 2022-01-13T18:18:33-10:00 2022-01-13T17:18:33-11:00  21.31305 -157.88881      90   0.0 Hōkūleʻa
  2022-01-14T04:10:38UTC 2022-01-13T18:10:38-10:00 2022-01-13T17:10:38-11:00  21.31320 -157.88862     270   0.0 Hikianalia
  2022-01-14T03:18:32UTC 2022-01-13T17:18:32-10:00 2022-01-13T16:18:32-11:00  21.31305 -157.88883       0   0.0 Hōkūleʻa
  2022-01-14T03:09:11UTC 2022-01-13T17:09:11-10:00 2022-01-13T16:09:11-11:00  21.31320 -157.88851     235   0.0 Hikianalia
  2022-01-14T02:18:47UTC 2022-01-13T16:18:47-10:00 2022-01-13T15:18:47-11:00  21.31305 -157.88883     180   0.0 Hōkūleʻa
  2022-01-14T01:18:32UTC 2022-01-13T15:18:32-10:00 2022-01-13T14:18:32-11:00  21.31307 -157.88883     270   0.0 Hōkūleʻa
  2022-01-14T01:10:15UTC 2022-01-13T15:10:15-10:00 2022-01-13T14:10:15-11:00  21.31324 -157.88845     180   0.0 Hikianalia
  2022-01-14T00:18:32UTC 2022-01-13T14:18:32-10:00 2022-01-13T13:18:32-11:00  21.31307 -157.88881      32   0.0 Hōkūleʻa
  2022-01-14T00:09:45UTC 2022-01-13T14:09:45-10:00 2022-01-13T13:09:45-11:00  21.31328 -157.88845      62   0.0 Hikianalia
  2022-01-13T23:17:31UTC 2022-01-13T13:17:31-10:00 2022-01-13T12:17:31-11:00  21.31304 -157.88883     180   0.0 Hōkūleʻa
  2022-01-13T23:10:15UTC 2022-01-13T13:10:15-10:00 2022-01-13T12:10:15-11:00  21.31320 -157.88862     259   0.0 Hikianalia
  2022-01-13T22:18:47UTC 2022-01-13T12:18:47-10:00 2022-01-13T11:18:47-11:00  21.31305 -157.88883     328   0.0 Hōkūleʻa
  2022-01-13T22:09:46UTC 2022-01-13T12:09:46-10:00 2022-01-13T11:09:46-11:00  21.31323 -157.88845      26   0.0 Hikianalia
  2022-01-13T21:17:31UTC 2022-01-13T11:17:31-10:00 2022-01-13T10:17:31-11:00  21.31302 -157.88881       0   0.0 Hōkūleʻa
  2022-01-13T21:10:09UTC 2022-01-13T11:10:09-10:00 2022-01-13T10:10:09-11:00  21.31319 -157.88847     180   0.0 Hikianalia
  2022-01-13T20:18:24UTC 2022-01-13T10:18:24-10:00 2022-01-13T09:18:24-11:00  21.31299 -157.88881     128   0.0 Hōkūleʻa
  2022-01-13T20:10:15UTC 2022-01-13T10:10:15-10:00 2022-01-13T09:10:15-11:00  21.31322 -157.88847     223   0.0 Hikianalia
  2022-01-13T19:20:17UTC 2022-01-13T09:20:17-10:00 2022-01-13T08:20:17-11:00  21.31324 -157.88845     318   0.0 Hikianalia
  2022-01-13T19:17:31UTC 2022-01-13T09:17:31-10:00 2022-01-13T08:17:31-11:00  21.31303 -157.88886     270   0.0 Hōkūleʻa
  2022-01-13T18:18:40UTC 2022-01-13T08:18:40-10:00 2022-01-13T07:18:40-11:00  21.31303 -157.88883      43   0.0 Hōkūleʻa
  2022-01-13T18:10:11UTC 2022-01-13T08:10:11-10:00 2022-01-13T07:10:11-11:00  21.31322 -157.88843     128   0.0 Hikianalia
  2022-01-13T17:18:36UTC 2022-01-13T07:18:36-10:00 2022-01-13T06:18:36-11:00  21.31298 -157.88888     232   0.0 Hōkūleʻa
  2022-01-13T17:10:15UTC 2022-01-13T07:10:15-10:00 2022-01-13T06:10:15-11:00  21.31325 -157.88847      90   0.0 Hikianalia
  2022-01-13T16:18:33UTC 2022-01-13T06:18:33-10:00 2022-01-13T05:18:33-11:00  21.31302 -157.88883       0   0.0 Hōkūleʻa
  2022-01-13T16:10:47UTC 2022-01-13T06:10:47-10:00 2022-01-13T05:10:47-11:00  21.31325 -157.88849     180   0.0 Hikianalia
  2022-01-13T15:18:24UTC 2022-01-13T05:18:24-10:00 2022-01-13T04:18:24-11:00  21.31300 -157.88883     180   0.0 Hōkūleʻa
  2022-01-13T15:10:38UTC 2022-01-13T05:10:38-10:00 2022-01-13T04:10:38-11:00  21.31326 -157.88849     335   0.0 Hikianalia
  2022-01-13T14:18:39UTC 2022-01-13T04:18:39-10:00 2022-01-13T03:18:39-11:00  21.31302 -157.88883     299   0.0 Hōkūleʻa
  2022-01-13T14:10:17UTC 2022-01-13T04:10:17-10:00 2022-01-13T03:10:17-11:00  21.31318 -157.88845     180   0.0 Hikianalia
  2022-01-13T13:18:34UTC 2022-01-13T03:18:34-10:00 2022-01-13T02:18:34-11:00  21.31300 -157.88881      63   0.0 Hōkūleʻa
  2022-01-13T13:10:12UTC 2022-01-13T03:10:12-10:00 2022-01-13T02:10:12-11:00  21.31323 -157.88845       0   0.0 Hikianalia
  2022-01-13T12:17:29UTC 2022-01-13T02:17:29-10:00 2022-01-13T01:17:29-11:00  21.31299 -157.88883     223   0.0 Hōkūleʻa
  2022-01-13T12:10:37UTC 2022-01-13T02:10:37-10:00 2022-01-13T01:10:37-11:00  21.31322 -157.88845     270   0.0 Hikianalia
  2022-01-13T11:18:21UTC 2022-01-13T01:18:21-10:00 2022-01-13T00:18:21-11:00  21.31302 -157.88881      61   0.0 Hōkūleʻa
  2022-01-13T11:10:08UTC 2022-01-13T01:10:08-10:00 2022-01-13T00:10:08-11:00  21.31322 -157.88841     154   0.0 Hikianalia
  2022-01-13T10:18:40UTC 2022-01-13T00:18:40-10:00 2022-01-12T23:18:40-11:00  21.31300 -157.88883     154   0.0 Hōkūleʻa
  2022-01-13T10:09:42UTC 2022-01-13T00:09:42-10:00 2022-01-12T23:09:42-11:00  21.31326 -157.88843      25   0.0 Hikianalia
  2022-01-13T09:27:46UTC 2022-01-12T23:27:46-10:00 2022-01-12T22:27:46-11:00  21.31305 -157.88886     296   0.0 Hōkūleʻa
  2022-01-13T09:10:08UTC 2022-01-12T23:10:08-10:00 2022-01-12T22:10:08-11:00  21.31322 -157.88845      90   0.0 Hikianalia
  2022-01-13T08:18:36UTC 2022-01-12T22:18:36-10:00 2022-01-12T21:18:36-11:00  21.31304 -157.88883       0   0.0 Hōkūleʻa
  2022-01-13T08:10:41UTC 2022-01-12T22:10:41-10:00 2022-01-12T21:10:41-11:00  21.31322 -157.88847      82   0.0 Hikianalia
  2022-01-13T07:26:13UTC 2022-01-12T21:26:13-10:00 2022-01-12T20:26:13-11:00  21.31302 -157.88883       0   0.0 Hōkūleʻa
  2022-01-13T07:10:09UTC 2022-01-12T21:10:09-10:00 2022-01-12T20:10:09-11:00  21.31320 -157.88862     263   0.0 Hikianalia
  2022-01-13T06:18:49UTC 2022-01-12T20:18:49-10:00 2022-01-12T19:18:49-11:00  21.31299 -157.88883     270   0.0 Hōkūleʻa
  2022-01-13T06:10:47UTC 2022-01-12T20:10:47-10:00 2022-01-12T19:10:47-11:00  21.31322 -157.88845      83   0.0 Hikianalia
  2022-01-13T05:18:22UTC 2022-01-12T19:18:22-10:00 2022-01-12T18:18:22-11:00  21.31299 -157.88881      90   0.0 Hōkūleʻa
  2022-01-13T05:10:16UTC 2022-01-12T19:10:16-10:00 2022-01-12T18:10:16-11:00  21.31320 -157.88862       0   0.0 Hikianalia
  2022-01-13T04:17:33UTC 2022-01-12T18:17:33-10:00 2022-01-12T17:17:33-11:00  21.31299 -157.88883     180   0.0 Hōkūleʻa
  2022-01-13T04:10:14UTC 2022-01-12T18:10:14-10:00 2022-01-12T17:10:14-11:00  21.31320 -157.88862       0   0.0 Hikianalia
  2022-01-13T03:18:23UTC 2022-01-12T17:18:23-10:00 2022-01-12T16:18:23-11:00  21.31303 -157.88883       0   0.0 Hōkūleʻa
  2022-01-13T03:10:17UTC 2022-01-12T17:10:17-10:00 2022-01-12T16:10:17-11:00  21.31320 -157.88862     266   0.0 Hikianalia
  2022-01-13T02:18:46UTC 2022-01-12T16:18:46-10:00 2022-01-12T15:18:46-11:00  21.31303 -157.88883     231   0.0 Hōkūleʻa
  2022-01-13T02:09:35UTC 2022-01-12T16:09:35-10:00 2022-01-12T15:09:35-11:00  21.31321 -157.88845      86   0.0 Hikianalia
  2022-01-13T01:18:36UTC 2022-01-12T15:18:36-10:00 2022-01-12T14:18:36-11:00  21.31309 -157.88875      84   0.0 Hōkūleʻa
  2022-01-13T01:10:21UTC 2022-01-12T15:10:21-10:00 2022-01-12T14:10:21-11:00  21.31320 -157.88862     236   0.0 Hikianalia
  2022-01-13T00:18:30UTC 2022-01-12T14:18:30-10:00 2022-01-12T13:18:30-11:00  21.31308 -157.88886       0   0.0 Hōkūleʻa
  2022-01-13T00:10:18UTC 2022-01-12T14:10:18-10:00 2022-01-12T13:10:18-11:00  21.31330 -157.88845       0   0.0 Hikianalia
  2022-01-12T23:17:29UTC 2022-01-12T13:17:29-10:00 2022-01-12T12:17:29-11:00  21.31304 -157.88886     298   0.0 Hōkūleʻa
  2022-01-12T23:10:16UTC 2022-01-12T13:10:16-10:00 2022-01-12T12:10:16-11:00  21.31325 -157.88845     137   0.0 Hikianalia
  2022-01-12T22:18:42UTC 2022-01-12T12:18:42-10:00 2022-01-12T11:18:42-11:00  21.31303 -157.88883     280   0.0 Hōkūleʻa
  2022-01-12T22:09:48UTC 2022-01-12T12:09:48-10:00 2022-01-12T11:09:48-11:00  21.31327 -157.88847     198   0.0 Hikianalia
  2022-01-12T21:17:32UTC 2022-01-12T11:17:32-10:00 2022-01-12T10:17:32-11:00  21.31302 -157.88877      90   0.0 Hōkūleʻa
  2022-01-12T21:10:14UTC 2022-01-12T11:10:14-10:00 2022-01-12T10:10:14-11:00  21.31334 -157.88845       0   0.0 Hikianalia
  2022-01-12T20:18:37UTC 2022-01-12T10:18:37-10:00 2022-01-12T09:18:37-11:00  21.31302 -157.88883       0   0.0 Hōkūleʻa
  2022-01-12T20:09:16UTC 2022-01-12T10:09:16-10:00 2022-01-12T09:09:16-11:00  21.31324 -157.88845       0   0.0 Hikianalia
  2022-01-12T19:18:32UTC 2022-01-12T09:18:32-10:00 2022-01-12T08:18:32-11:00  21.31302 -157.88883       0   0.0 Hōkūleʻa
  2022-01-12T19:10:07UTC 2022-01-12T09:10:07-10:00 2022-01-12T08:10:07-11:00  21.31321 -157.88845     180   0.0 Hikianalia
  2022-01-12T18:17:41UTC 2022-01-12T08:17:41-10:00 2022-01-12T07:17:41-11:00  21.31300 -157.88883      76   0.0 Hōkūleʻa
  2022-01-12T18:11:16UTC 2022-01-12T08:11:16-10:00 2022-01-12T07:11:16-11:00  21.31323 -157.88845      79   0.0 Hikianalia
  2022-01-12T17:18:30UTC 2022-01-12T07:18:30-10:00 2022-01-12T06:18:30-11:00  21.31299 -157.88888       0   0.0 Hōkūleʻa
  2022-01-12T17:10:14UTC 2022-01-12T07:10:14-10:00 2022-01-12T06:10:14-11:00  21.31320 -157.88862     263   0.0 Hikianalia
  2022-01-12T16:18:29UTC 2022-01-12T06:18:29-10:00 2022-01-12T05:18:29-11:00  21.31298 -157.88888     242   0.0 Hōkūleʻa
  2022-01-12T16:10:11UTC 2022-01-12T06:10:11-10:00 2022-01-12T05:10:11-11:00  21.31322 -157.88845     241   0.0 Hikianalia
  2022-01-12T15:18:24UTC 2022-01-12T05:18:24-10:00 2022-01-12T04:18:24-11:00  21.31300 -157.88883     297   0.0 Hōkūleʻa
  2022-01-12T15:09:16UTC 2022-01-12T05:09:16-10:00 2022-01-12T04:09:16-11:00  21.31324 -157.88841      75   0.0 Hikianalia
  2022-01-12T14:19:48UTC 2022-01-12T04:19:48-10:00 2022-01-12T03:19:48-11:00  21.31299 -157.88881     212   0.0 Hōkūleʻa
  2022-01-12T14:10:41UTC 2022-01-12T04:10:41-10:00 2022-01-12T03:10:41-11:00  21.31323 -157.88845     136   0.0 Hikianalia
  2022-01-12T13:18:37UTC 2022-01-12T03:18:37-10:00 2022-01-12T02:18:37-11:00  21.31303 -157.88879      74   0.0 Hōkūleʻa
  2022-01-12T13:10:12UTC 2022-01-12T03:10:12-10:00 2022-01-12T02:10:12-11:00  21.31325 -157.88847     327   0.0 Hikianalia
  2022-01-12T12:17:32UTC 2022-01-12T02:17:32-10:00 2022-01-12T01:17:32-11:00  21.31302 -157.88883       0   0.0 Hōkūleʻa
  2022-01-12T12:10:44UTC 2022-01-12T02:10:44-10:00 2022-01-12T01:10:44-11:00  21.31322 -157.88845      83   0.0 Hikianalia
  2022-01-12T11:18:21UTC 2022-01-12T01:18:21-10:00 2022-01-12T00:18:21-11:00  21.31302 -157.88883       0   0.0 Hōkūleʻa
  2022-01-12T11:10:09UTC 2022-01-12T01:10:09-10:00 2022-01-12T00:10:09-11:00  21.31320 -157.88862     257   0.0 Hikianalia
  2022-01-12T10:18:37UTC 2022-01-12T00:18:37-10:00 2022-01-11T23:18:37-11:00  21.31300 -157.88883     180   0.0 Hōkūleʻa
  2022-01-12T10:10:46UTC 2022-01-12T00:10:46-10:00 2022-01-11T23:10:46-11:00  21.31323 -157.88847      77   0.0 Hikianalia
  2022-01-12T09:21:25UTC 2022-01-11T23:21:25-10:00 2022-01-11T22:21:25-11:00  21.31320 -157.88862     245   0.0 Hikianalia
  2022-01-12T09:18:38UTC 2022-01-11T23:18:38-10:00 2022-01-11T22:18:38-11:00  21.31302 -157.88883       0   0.0 Hōkūleʻa
  2022-01-12T08:18:37UTC 2022-01-11T22:18:37-10:00 2022-01-11T21:18:37-11:00  21.31299 -157.88883     180   0.0 Hōkūleʻa
  2022-01-12T08:10:15UTC 2022-01-11T22:10:15-10:00 2022-01-11T21:10:15-11:00  21.31327 -157.88845       0   0.0 Hikianalia
  2022-01-12T07:18:33UTC 2022-01-11T21:18:33-10:00 2022-01-11T20:18:33-11:00  21.31302 -157.88883       0   0.0 Hōkūleʻa
  2022-01-12T07:09:45UTC 2022-01-11T21:09:45-10:00 2022-01-11T20:09:45-11:00  21.31322 -157.88845      26   0.0 Hikianalia
  2022-01-12T06:18:47UTC 2022-01-11T20:18:47-10:00 2022-01-11T19:18:47-11:00  21.31300 -157.88883     297   0.0 Hōkūleʻa
  2022-01-12T06:10:38UTC 2022-01-11T20:10:38-10:00 2022-01-11T19:10:38-11:00  21.31318 -157.88847     180   0.0 Hikianalia
  2022-01-12T05:18:27UTC 2022-01-11T19:18:27-10:00 2022-01-11T18:18:27-11:00  21.31299 -157.88881     160   0.0 Hōkūleʻa
  2022-01-12T05:10:43UTC 2022-01-11T19:10:43-10:00 2022-01-11T18:10:43-11:00  21.31324 -157.88847     136   0.0 Hikianalia
  2022-01-12T04:18:26UTC 2022-01-11T18:18:26-10:00 2022-01-11T17:18:26-11:00  21.31305 -157.88883       0   0.0 Hōkūleʻa
  2022-01-12T04:09:13UTC 2022-01-11T18:09:13-10:00 2022-01-11T17:09:13-11:00  21.31328 -157.88851     316   0.0 Hikianalia
  2022-01-12T03:18:31UTC 2022-01-11T17:18:31-10:00 2022-01-11T16:18:31-11:00  21.31303 -157.88883     180   0.0 Hōkūleʻa
  2022-01-12T03:10:08UTC 2022-01-11T17:10:08-10:00 2022-01-11T16:10:08-11:00  21.31326 -157.88849     241   0.0 Hikianalia
  2022-01-12T02:25:39UTC 2022-01-11T16:25:39-10:00 2022-01-11T15:25:39-11:00  21.31308 -157.88883       0   0.0 Hōkūleʻa
  2022-01-12T02:10:43UTC 2022-01-11T16:10:43-10:00 2022-01-11T15:10:43-11:00  21.31327 -157.88847     118   0.0 Hikianalia
  2022-01-12T01:18:35UTC 2022-01-11T15:18:35-10:00 2022-01-11T14:18:35-11:00  21.31304 -157.88883     256   0.0 Hōkūleʻa
  2022-01-12T01:09:11UTC 2022-01-11T15:09:11-10:00 2022-01-11T14:09:11-11:00  21.31334 -157.88860     298   0.0 Hikianalia
  2022-01-12T00:17:32UTC 2022-01-11T14:17:32-10:00 2022-01-11T13:17:32-11:00  21.31305 -157.88879       0   0.0 Hōkūleʻa
  2022-01-12T00:10:10UTC 2022-01-11T14:10:10-10:00 2022-01-11T13:10:10-11:00  21.31324 -157.88841     136   0.0 Hikianalia
  2022-01-11T23:18:22UTC 2022-01-11T13:18:22-10:00 2022-01-11T12:18:22-11:00  21.31303 -157.88879      90   0.0 Hōkūleʻa
  2022-01-11T23:09:18UTC 2022-01-11T13:09:18-10:00 2022-01-11T12:09:18-11:00  21.31328 -157.88845       0   0.0 Hikianalia
  2022-01-11T22:17:57UTC 2022-01-11T12:17:57-10:00 2022-01-11T11:17:57-11:00  21.31303 -157.88883     290   0.0 Hōkūleʻa
  2022-01-11T22:10:47UTC 2022-01-11T12:10:47-10:00 2022-01-11T11:10:47-11:00  21.31327 -157.88845      65   0.0 Hikianalia
  2022-01-11T21:18:38UTC 2022-01-11T11:18:38-10:00 2022-01-11T10:18:38-11:00  21.31300 -157.88877      81   0.0 Hōkūleʻa
  2022-01-11T21:09:18UTC 2022-01-11T11:09:18-10:00 2022-01-11T10:09:18-11:00  21.31320 -157.88862     228   0.0 Hikianalia
  2022-01-11T20:17:36UTC 2022-01-11T10:17:36-10:00 2022-01-11T09:17:36-11:00  21.31299 -157.88883     147   0.0 Hōkūleʻa
  2022-01-11T20:10:08UTC 2022-01-11T10:10:08-10:00 2022-01-11T09:10:08-11:00  21.31330 -157.88849     308   0.0 Hikianalia
  2022-01-11T19:18:26UTC 2022-01-11T09:18:26-10:00 2022-01-11T08:18:26-11:00  21.31303 -157.88886     298   0.0 Hōkūleʻa
  2022-01-11T19:10:14UTC 2022-01-11T09:10:14-10:00 2022-01-11T08:10:14-11:00  21.31327 -157.88845       0   0.0 Hikianalia
  2022-01-11T18:18:48UTC 2022-01-11T08:18:48-10:00 2022-01-11T07:18:48-11:00  21.31302 -157.88883       0   0.0 Hōkūleʻa
  2022-01-11T18:09:46UTC 2022-01-11T08:09:46-10:00 2022-01-11T07:09:46-11:00  21.31324 -157.88845      32   0.0 Hikianalia
  2022-01-11T17:18:30UTC 2022-01-11T07:18:30-10:00 2022-01-11T06:18:30-11:00  21.31300 -157.88883     241   0.0 Hōkūleʻa
  2022-01-11T17:10:09UTC 2022-01-11T07:10:09-10:00 2022-01-11T06:10:09-11:00  21.31321 -157.88847     235   0.0 Hikianalia
  2022-01-11T16:18:25UTC 2022-01-11T06:18:25-10:00 2022-01-11T05:18:25-11:00  21.31302 -157.88881       0   0.0 Hōkūleʻa
  2022-01-11T16:10:06UTC 2022-01-11T06:10:06-10:00 2022-01-11T05:10:06-11:00  21.31325 -157.88841      62   0.0 Hikianalia
  2022-01-11T15:18:33UTC 2022-01-11T05:18:33-10:00 2022-01-11T04:18:33-11:00  21.31302 -157.88881      90   0.0 Hōkūleʻa
  2022-01-11T15:10:45UTC 2022-01-11T05:10:45-10:00 2022-01-11T04:10:45-11:00  21.31322 -157.88847     242   0.0 Hikianalia
  2022-01-11T14:18:47UTC 2022-01-11T04:18:47-10:00 2022-01-11T03:18:47-11:00  21.31302 -157.88883     228   0.0 Hōkūleʻa
  2022-01-11T14:10:15UTC 2022-01-11T04:10:15-10:00 2022-01-11T03:10:15-11:00  21.31323 -157.88845     270   0.0 Hikianalia
  2022-01-11T13:18:27UTC 2022-01-11T03:18:27-10:00 2022-01-11T02:18:27-11:00  21.31307 -157.88877      18   0.0 Hōkūleʻa
  2022-01-11T13:10:06UTC 2022-01-11T03:10:06-10:00 2022-01-11T02:10:06-11:00  21.31323 -157.88841      90   0.0 Hikianalia
  2022-01-11T12:18:33UTC 2022-01-11T02:18:33-10:00 2022-01-11T01:18:33-11:00  21.31300 -157.88879     106   0.0 Hōkūleʻa
  2022-01-11T12:10:37UTC 2022-01-11T02:10:37-10:00 2022-01-11T01:10:37-11:00  21.31323 -157.88845     113   0.0 Hikianalia
  2022-01-11T11:18:31UTC 2022-01-11T01:18:31-10:00 2022-01-11T00:18:31-11:00  21.31302 -157.88883     317   0.0 Hōkūleʻa
  2022-01-11T11:10:19UTC 2022-01-11T01:10:19-10:00 2022-01-11T00:10:19-11:00  21.31327 -157.88856     310   0.0 Hikianalia
  2022-01-11T10:18:41UTC 2022-01-11T00:18:41-10:00 2022-01-10T23:18:41-11:00  21.31299 -157.88881     137   0.0 Hōkūleʻa
  2022-01-11T10:09:10UTC 2022-01-11T00:09:10-10:00 2022-01-10T23:09:10-11:00  21.31319 -157.88845     180   0.0 Hikianalia
  2022-01-11T09:18:28UTC 2022-01-10T23:18:28-10:00 2022-01-10T22:18:28-11:00  21.31302 -157.88883       0   0.0 Hōkūleʻa
  2022-01-11T09:10:09UTC 2022-01-10T23:10:09-10:00 2022-01-10T22:10:09-11:00  21.31321 -157.88845     180   0.0 Hikianalia
  2022-01-11T08:26:36UTC 2022-01-10T22:26:36-10:00 2022-01-10T21:26:36-11:00  21.31302 -157.88883       0   0.0 Hōkūleʻa
  2022-01-11T08:10:35UTC 2022-01-10T22:10:35-10:00 2022-01-10T21:10:35-11:00  21.31323 -157.88845      79   0.0 Hikianalia
  2022-01-11T07:18:21UTC 2022-01-10T21:18:21-10:00 2022-01-10T20:18:21-11:00  21.31302 -157.88883     241   0.0 Hōkūleʻa
  2022-01-11T07:09:07UTC 2022-01-10T21:09:07-10:00 2022-01-10T20:09:07-11:00  21.31320 -157.88862     259   0.0 Hikianalia
  2022-01-11T06:18:41UTC 2022-01-10T20:18:41-10:00 2022-01-10T19:18:41-11:00  21.31303 -157.88881       0   0.0 Hōkūleʻa
  2022-01-11T06:10:38UTC 2022-01-10T20:10:38-10:00 2022-01-10T19:10:38-11:00  21.31323 -157.88845      79   0.0 Hikianalia
  2022-01-11T05:18:32UTC 2022-01-10T19:18:32-10:00 2022-01-10T18:18:32-11:00  21.31300 -157.88881     180   0.0 Hōkūleʻa
  2022-01-11T05:10:09UTC 2022-01-10T19:10:09-10:00 2022-01-10T18:10:09-11:00  21.31320 -157.88862       0   0.0 Hikianalia
  2022-01-11T04:18:24UTC 2022-01-10T18:18:24-10:00 2022-01-10T17:18:24-11:00  21.31303 -157.88881     180   0.0 Hōkūleʻa
  2022-01-11T04:10:19UTC 2022-01-10T18:10:19-10:00 2022-01-10T17:10:19-11:00  21.31320 -157.88862     208   0.0 Hikianalia
  2022-01-11T03:17:30UTC 2022-01-10T17:17:30-10:00 2022-01-10T16:17:30-11:00  21.31304 -157.88881       0   0.0 Hōkūleʻa
  2022-01-11T03:10:06UTC 2022-01-10T17:10:06-10:00 2022-01-10T16:10:06-11:00  21.31327 -157.88858     280   0.0 Hikianalia
  2022-01-11T02:18:38UTC 2022-01-10T16:18:38-10:00 2022-01-10T15:18:38-11:00  21.31303 -157.88881     118   0.0 Hōkūleʻa
  2022-01-11T02:09:40UTC 2022-01-10T16:09:40-10:00 2022-01-10T15:09:40-11:00  21.31325 -157.88845      72   0.0 Hikianalia
  2022-01-11T01:17:26UTC 2022-01-10T15:17:26-10:00 2022-01-10T14:17:26-11:00  21.31305 -157.88886     270   0.0 Hōkūleʻa
  2022-01-11T01:10:15UTC 2022-01-10T15:10:15-10:00 2022-01-10T14:10:15-11:00  21.31320 -157.88862       0   0.0 Hikianalia
  2022-01-11T00:25:44UTC 2022-01-10T14:25:44-10:00 2022-01-10T13:25:44-11:00  21.31305 -157.88883       0   0.0 Hōkūleʻa
  2022-01-11T00:10:19UTC 2022-01-10T14:10:19-10:00 2022-01-10T13:10:19-11:00  21.31320 -157.88862     275   0.0 Hikianalia
  2022-01-10T23:18:30UTC 2022-01-10T13:18:30-10:00 2022-01-10T12:18:30-11:00  21.31304 -157.88883       0   0.0 Hōkūleʻa
  2022-01-10T23:10:15UTC 2022-01-10T13:10:15-10:00 2022-01-10T12:10:15-11:00  21.31319 -157.88849     217   0.0 Hikianalia
  2022-01-10T22:18:46UTC 2022-01-10T12:18:46-10:00 2022-01-10T11:18:46-11:00  21.31303 -157.88883     242   0.0 Hōkūleʻa
  2022-01-10T22:17:50UTC 2022-01-10T12:17:50-10:00 2022-01-10T11:17:50-11:00  21.31324 -157.88845     309   0.0 Hikianalia
  2022-01-10T21:17:46UTC 2022-01-10T11:17:46-10:00 2022-01-10T10:17:46-11:00  21.31305 -157.88879      43   0.0 Hōkūleʻa
  2022-01-10T21:09:10UTC 2022-01-10T11:09:10-10:00 2022-01-10T10:09:10-11:00  21.31321 -157.88841      87   0.0 Hikianalia
  2022-01-10T20:18:29UTC 2022-01-10T10:18:29-10:00 2022-01-10T09:18:29-11:00  21.31303 -157.88881      90   0.0 Hōkūleʻa
  2022-01-10T20:10:09UTC 2022-01-10T10:10:09-10:00 2022-01-10T09:10:09-11:00  21.31320 -157.88862     245   0.0 Hikianalia
  2022-01-10T19:17:31UTC 2022-01-10T09:17:31-10:00 2022-01-10T08:17:31-11:00  21.31303 -157.88886     270   0.0 Hōkūleʻa
  2022-01-10T19:10:17UTC 2022-01-10T09:10:17-10:00 2022-01-10T08:10:17-11:00  21.31327 -157.88845      26   0.0 Hikianalia
  2022-01-10T18:18:41UTC 2022-01-10T08:18:41-10:00 2022-01-10T07:18:41-11:00  21.31303 -157.88883       0   0.0 Hōkūleʻa
  2022-01-10T18:10:38UTC 2022-01-10T08:10:38-10:00 2022-01-10T07:10:38-11:00  21.31323 -157.88847     270   0.0 Hikianalia
  2022-01-10T17:18:55UTC 2022-01-10T07:18:55-10:00 2022-01-10T06:18:55-11:00  21.31300 -157.88883     205   0.0 Hōkūleʻa
  2022-01-10T17:10:15UTC 2022-01-10T07:10:15-10:00 2022-01-10T06:10:15-11:00  21.31323 -157.88845       0   0.0 Hikianalia
  2022-01-10T16:18:25UTC 2022-01-10T06:18:25-10:00 2022-01-10T05:18:25-11:00  21.31305 -157.88881       0   0.0 Hōkūleʻa
  2022-01-10T16:10:16UTC 2022-01-10T06:10:16-10:00 2022-01-10T05:10:16-11:00  21.31322 -157.88845     180   0.0 Hikianalia
  2022-01-10T15:18:24UTC 2022-01-10T05:18:24-10:00 2022-01-10T04:18:24-11:00  21.31300 -157.88881      63   0.0 Hōkūleʻa
  2022-01-10T15:10:38UTC 2022-01-10T05:10:38-10:00 2022-01-10T04:10:38-11:00  21.31323 -157.88845       0   0.0 Hikianalia
  2022-01-10T14:20:14UTC 2022-01-10T04:20:14-10:00 2022-01-10T03:20:14-11:00  21.31323 -157.88845     145   0.0 Hikianalia
  2022-01-10T14:18:45UTC 2022-01-10T04:18:45-10:00 2022-01-10T03:18:45-11:00  21.31299 -157.88883     180   0.0 Hōkūleʻa
  2022-01-10T13:18:33UTC 2022-01-10T03:18:33-10:00 2022-01-10T02:18:33-11:00  21.31300 -157.88883     180   0.0 Hōkūleʻa
  2022-01-10T13:10:19UTC 2022-01-10T03:10:19-10:00 2022-01-10T02:10:19-11:00  21.31332 -157.88851     328   0.0 Hikianalia
  2022-01-10T12:19:33UTC 2022-01-10T02:19:33-10:00 2022-01-10T01:19:33-11:00  21.31303 -157.88883       0   0.0 Hōkūleʻa
  2022-01-10T12:09:37UTC 2022-01-10T02:09:37-10:00 2022-01-10T01:09:37-11:00  21.31325 -157.88847      69   0.0 Hikianalia
  2022-01-10T11:18:31UTC 2022-01-10T01:18:31-10:00 2022-01-10T00:18:31-11:00  21.31302 -157.88883     241   0.0 Hōkūleʻa
  2022-01-10T11:10:08UTC 2022-01-10T01:10:08-10:00 2022-01-10T00:10:08-11:00  21.31320 -157.88862     255   0.0 Hikianalia
  2022-01-10T10:17:48UTC 2022-01-10T00:17:48-10:00 2022-01-09T23:17:48-11:00  21.31303 -157.88881      61   0.0 Hōkūleʻa
  2022-01-10T10:10:38UTC 2022-01-10T00:10:38-10:00 2022-01-09T23:10:38-11:00  21.31324 -157.88845       0   0.0 Hikianalia
  2022-01-10T09:18:30UTC 2022-01-09T23:18:30-10:00 2022-01-09T22:18:30-11:00  21.31302 -157.88883     180   0.0 Hōkūleʻa
  2022-01-10T09:10:45UTC 2022-01-09T23:10:45-10:00 2022-01-09T22:10:45-11:00  21.31323 -157.88845      79   0.0 Hikianalia
  2022-01-10T08:18:37UTC 2022-01-09T22:18:37-10:00 2022-01-09T21:18:37-11:00  21.31303 -157.88883     180   0.0 Hōkūleʻa
  2022-01-10T08:09:08UTC 2022-01-09T22:09:08-10:00 2022-01-09T21:09:08-11:00  21.31320 -157.88862     159   0.0 Hikianalia
  2022-01-10T07:18:24UTC 2022-01-09T21:18:24-10:00 2022-01-09T20:18:24-11:00  21.31305 -157.88883       0   0.0 Hōkūleʻa
  2022-01-10T07:17:58UTC 2022-01-09T21:17:58-10:00 2022-01-09T20:17:58-11:00  21.31330 -157.88866     292   0.0 Hikianalia
  2022-01-10T06:18:48UTC 2022-01-09T20:18:48-10:00 2022-01-09T19:18:48-11:00  21.31303 -157.88883     318   0.0 Hōkūleʻa
  2022-01-10T06:10:47UTC 2022-01-09T20:10:47-10:00 2022-01-09T19:10:47-11:00  21.31324 -157.88849      70   0.0 Hikianalia
  2022-01-10T05:18:22UTC 2022-01-09T19:18:22-10:00 2022-01-09T18:18:22-11:00  21.31300 -157.88881     119   0.0 Hōkūleʻa
  2022-01-10T05:09:17UTC 2022-01-09T19:09:17-10:00 2022-01-09T18:09:17-11:00  21.31320 -157.88862       0   0.0 Hikianalia
  2022-01-10T04:18:33UTC 2022-01-09T18:18:33-10:00 2022-01-09T17:18:33-11:00  21.31302 -157.88883     180   0.0 Hōkūleʻa
  2022-01-10T04:10:06UTC 2022-01-09T18:10:06-10:00 2022-01-09T17:10:06-11:00  21.31320 -157.88862     252   0.0 Hikianalia
  2022-01-10T03:17:29UTC 2022-01-09T17:17:29-10:00 2022-01-09T16:17:29-11:00  21.31303 -157.88883     212   0.0 Hōkūleʻa
  2022-01-10T03:17:25UTC 2022-01-09T17:17:25-10:00 2022-01-09T16:17:25-11:00  21.31326 -157.88841      80   0.0 Hikianalia
  2022-01-10T02:26:52UTC 2022-01-09T16:26:52-10:00 2022-01-09T15:26:52-11:00  21.31306 -157.88881      43   0.0 Hōkūleʻa
  2022-01-10T02:09:41UTC 2022-01-09T16:09:41-10:00 2022-01-09T15:09:41-11:00  21.31325 -157.88847     339   0.0 Hikianalia
  2022-01-10T01:29:22UTC 2022-01-09T15:29:22-10:00 2022-01-09T14:29:22-11:00  21.31304 -157.88883     223   0.0 Hōkūleʻa
  2022-01-10T01:10:12UTC 2022-01-09T15:10:12-10:00 2022-01-09T14:10:12-11:00  21.31320 -157.88845     159   0.0 Hikianalia
  2022-01-10T00:18:41UTC 2022-01-09T14:18:41-10:00 2022-01-09T13:18:41-11:00  21.31306 -157.88881      61   0.0 Hōkūleʻa
  2022-01-10T00:10:13UTC 2022-01-09T14:10:13-10:00 2022-01-09T13:10:13-11:00  21.31325 -157.88847       0   0.0 Hikianalia
  2022-01-09T23:17:21UTC 2022-01-09T13:17:21-10:00 2022-01-09T12:17:21-11:00  21.31305 -157.88883       0   0.0 Hōkūleʻa
  2022-01-09T23:09:40UTC 2022-01-09T13:09:40-10:00 2022-01-09T12:09:40-11:00  21.31325 -157.88847      63   0.0 Hikianalia
  2022-01-09T22:17:43UTC 2022-01-09T12:17:43-10:00 2022-01-09T11:17:43-11:00  21.31305 -157.88883     270   0.0 Hōkūleʻa
  2022-01-09T22:16:01UTC 2022-01-09T12:16:01-10:00 2022-01-09T11:16:01-11:00  21.31324 -157.88849       0   0.0 Hikianalia
  2022-01-09T21:18:29UTC 2022-01-09T11:18:29-10:00 2022-01-09T10:18:29-11:00  21.31305 -157.88877     118   0.0 Hōkūleʻa
  2022-01-09T21:10:16UTC 2022-01-09T11:10:16-10:00 2022-01-09T10:10:16-11:00  21.31310 -157.88849     197   0.0 Hikianalia
  2022-01-09T20:17:37UTC 2022-01-09T10:17:37-10:00 2022-01-09T09:17:37-11:00  21.31310 -157.88888     340   0.0 Hōkūleʻa
  2022-01-09T20:09:49UTC 2022-01-09T10:09:49-10:00 2022-01-09T09:09:49-11:00  21.31323 -157.88845      90   0.0 Hikianalia
  2022-01-09T19:18:25UTC 2022-01-09T09:18:25-10:00 2022-01-09T08:18:25-11:00  21.31305 -157.88886     296   0.0 Hōkūleʻa
  2022-01-09T19:10:22UTC 2022-01-09T09:10:22-10:00 2022-01-09T08:10:22-11:00  21.31323 -157.88849     270   0.0 Hikianalia
  2022-01-09T18:18:46UTC 2022-01-09T08:18:46-10:00 2022-01-09T07:18:46-11:00  21.31304 -157.88883       0   0.0 Hōkūleʻa
  2022-01-09T18:17:15UTC 2022-01-09T08:17:15-10:00 2022-01-09T07:17:15-11:00  21.31323 -157.88843     119   0.0 Hikianalia
  2022-01-09T17:18:38UTC 2022-01-09T07:18:38-10:00 2022-01-09T06:18:38-11:00  21.31300 -157.88883      90   0.0 Hōkūleʻa
  2022-01-09T17:10:50UTC 2022-01-09T07:10:50-10:00 2022-01-09T06:10:50-11:00  21.31324 -157.88845       0   0.0 Hikianalia
  2022-01-09T16:18:25UTC 2022-01-09T06:18:25-10:00 2022-01-09T05:18:25-11:00  21.31300 -157.88886     223   0.0 Hōkūleʻa
  2022-01-09T16:10:07UTC 2022-01-09T06:10:07-10:00 2022-01-09T05:10:07-11:00  21.31322 -157.88845     100   0.0 Hikianalia
  2022-01-09T15:18:24UTC 2022-01-09T05:18:24-10:00 2022-01-09T04:18:24-11:00  21.31303 -157.88883       0   0.0 Hōkūleʻa
  2022-01-09T15:10:16UTC 2022-01-09T05:10:16-10:00 2022-01-09T04:10:16-11:00  21.31323 -157.88851     260   0.0 Hikianalia
  2022-01-09T14:18:39UTC 2022-01-09T04:18:39-10:00 2022-01-09T03:18:39-11:00  21.31302 -157.88883     286   0.0 Hōkūleʻa
  2022-01-09T14:10:36UTC 2022-01-09T04:10:36-10:00 2022-01-09T03:10:36-11:00  21.31324 -157.88845     317   0.0 Hikianalia
  2022-01-09T13:18:33UTC 2022-01-09T03:18:33-10:00 2022-01-09T02:18:33-11:00  21.31300 -157.88879       0   0.0 Hōkūleʻa
  2022-01-09T13:10:14UTC 2022-01-09T03:10:14-10:00 2022-01-09T02:10:14-11:00  21.31320 -157.88841     165   0.0 Hikianalia
  2022-01-09T12:18:32UTC 2022-01-09T02:18:32-10:00 2022-01-09T01:18:32-11:00  21.31300 -157.88879     119   0.0 Hōkūleʻa
  2022-01-09T12:10:09UTC 2022-01-09T02:10:09-10:00 2022-01-09T01:10:09-11:00  21.31327 -157.88843      42   0.0 Hikianalia
  2022-01-09T11:18:27UTC 2022-01-09T01:18:27-10:00 2022-01-09T00:18:27-11:00  21.31302 -157.88881       0   0.0 Hōkūleʻa
  2022-01-09T11:10:15UTC 2022-01-09T01:10:15-10:00 2022-01-09T00:10:15-11:00  21.31325 -157.88845       0   0.0 Hikianalia
  2022-01-09T10:18:44UTC 2022-01-09T00:18:44-10:00 2022-01-08T23:18:44-11:00  21.31302 -157.88881     100   0.0 Hōkūleʻa
  2022-01-09T10:11:50UTC 2022-01-09T00:11:50-10:00 2022-01-08T23:11:50-11:00  21.31323 -157.88845       0   0.0 Hikianalia
  2022-01-09T09:18:41UTC 2022-01-08T23:18:41-10:00 2022-01-08T22:18:41-11:00  21.31303 -157.88888     285   0.0 Hōkūleʻa
  2022-01-09T09:10:53UTC 2022-01-08T23:10:53-10:00 2022-01-08T22:10:53-11:00  21.31322 -157.88845     100   0.0 Hikianalia
  2022-01-09T08:28:28UTC 2022-01-08T22:28:28-10:00 2022-01-08T21:28:28-11:00  21.31302 -157.88883     180   0.0 Hōkūleʻa
  2022-01-09T08:10:18UTC 2022-01-08T22:10:18-10:00 2022-01-08T21:10:18-11:00  21.31323 -157.88851     334   0.0 Hikianalia
  2022-01-09T07:18:32UTC 2022-01-08T21:18:32-10:00 2022-01-08T20:18:32-11:00  21.31303 -157.88883       0   0.0 Hōkūleʻa
  2022-01-09T07:10:08UTC 2022-01-08T21:10:08-10:00 2022-01-08T20:10:08-11:00  21.31319 -157.88849     217   0.0 Hikianalia
  2022-01-09T06:18:48UTC 2022-01-08T20:18:48-10:00 2022-01-08T19:18:48-11:00  21.31303 -157.88883     270   0.0 Hōkūleʻa
  2022-01-09T06:10:43UTC 2022-01-08T20:10:43-10:00 2022-01-08T19:10:43-11:00  21.31324 -157.88845      62   0.0 Hikianalia
  2022-01-09T05:17:31UTC 2022-01-08T19:17:31-10:00 2022-01-08T18:17:31-11:00  21.31303 -157.88881      61   0.0 Hōkūleʻa
  2022-01-09T05:09:19UTC 2022-01-08T19:09:19-10:00 2022-01-08T18:09:19-11:00  21.31323 -157.88847     242   0.0 Hikianalia
  2022-01-09T04:18:25UTC 2022-01-08T18:18:25-10:00 2022-01-08T17:18:25-11:00  21.31302 -157.88883     180   0.0 Hōkūleʻa
  2022-01-09T04:10:40UTC 2022-01-08T18:10:40-10:00 2022-01-08T17:10:40-11:00  21.31324 -157.88845     155   0.0 Hikianalia
  2022-01-09T03:18:36UTC 2022-01-08T17:18:36-10:00 2022-01-08T16:18:36-11:00  21.31303 -157.88883     299   0.0 Hōkūleʻa
  2022-01-09T03:10:12UTC 2022-01-08T17:10:12-10:00 2022-01-08T16:10:12-11:00  21.31333 -157.88849     328   0.0 Hikianalia
  2022-01-09T02:18:47UTC 2022-01-08T16:18:47-10:00 2022-01-08T15:18:47-11:00  21.31302 -157.88881     160   0.0 Hōkūleʻa
  2022-01-09T02:10:43UTC 2022-01-08T16:10:43-10:00 2022-01-08T15:10:43-11:00  21.31323 -157.88843     180   0.0 Hikianalia
  2022-01-09T01:18:37UTC 2022-01-08T15:18:37-10:00 2022-01-08T14:18:37-11:00  21.31307 -157.88883       0   0.0 Hōkūleʻa
  2022-01-09T01:09:15UTC 2022-01-08T15:09:15-10:00 2022-01-08T14:09:15-11:00  21.31326 -157.88843     345   0.0 Hikianalia
  2022-01-09T00:17:31UTC 2022-01-08T14:17:31-10:00 2022-01-08T13:17:31-11:00  21.31305 -157.88883     317   0.0 Hōkūleʻa
  2022-01-09T00:10:10UTC 2022-01-08T14:10:10-10:00 2022-01-08T13:10:10-11:00  21.31319 -157.88841     118   0.0 Hikianalia
  2022-01-08T23:18:31UTC 2022-01-08T13:18:31-10:00 2022-01-08T12:18:31-11:00  21.31303 -157.88881      90   0.0 Hōkūleʻa
  2022-01-08T23:09:17UTC 2022-01-08T13:09:17-10:00 2022-01-08T12:09:17-11:00  21.31321 -157.88845     180   0.0 Hikianalia
  2022-01-08T22:17:37UTC 2022-01-08T12:17:37-10:00 2022-01-08T11:17:37-11:00  21.31303 -157.88883     241   0.0 Hōkūleʻa
  2022-01-08T22:09:45UTC 2022-01-08T12:09:45-10:00 2022-01-08T11:09:45-11:00  21.31324 -157.88845     309   0.0 Hikianalia
  2022-01-08T21:18:38UTC 2022-01-08T11:18:38-10:00 2022-01-08T10:18:38-11:00  21.31304 -157.88881     137   0.0 Hōkūleʻa
  2022-01-08T21:10:09UTC 2022-01-08T11:10:09-10:00 2022-01-08T10:10:09-11:00  21.31321 -157.88841     180   0.0 Hikianalia
  2022-01-08T20:17:31UTC 2022-01-08T10:17:31-10:00 2022-01-08T09:17:31-11:00  21.31308 -157.88886     334   0.0 Hōkūleʻa
  2022-01-08T20:09:16UTC 2022-01-08T10:09:16-10:00 2022-01-08T09:09:16-11:00  21.31322 -157.88841      98   0.0 Hikianalia
  2022-01-08T19:18:24UTC 2022-01-08T09:18:24-10:00 2022-01-08T08:18:24-11:00  21.31304 -157.88883       0   0.0 Hōkūleʻa
  2022-01-08T19:10:06UTC 2022-01-08T09:10:06-10:00 2022-01-08T08:10:06-11:00  21.31323 -157.88849     270   0.0 Hikianalia
  2022-01-08T18:18:46UTC 2022-01-08T08:18:46-10:00 2022-01-08T07:18:46-11:00  21.31302 -157.88883      90   0.0 Hōkūleʻa
  2022-01-08T18:10:45UTC 2022-01-08T08:10:45-10:00 2022-01-08T07:10:45-11:00  21.31323 -157.88845      90   0.0 Hikianalia
  2022-01-08T17:18:36UTC 2022-01-08T07:18:36-10:00 2022-01-08T06:18:36-11:00  21.31302 -157.88886     232   0.0 Hōkūleʻa
  2022-01-08T17:10:43UTC 2022-01-08T07:10:43-10:00 2022-01-08T06:10:43-11:00  21.31323 -157.88847     285   0.0 Hikianalia
  2022-01-08T16:18:25UTC 2022-01-08T06:18:25-10:00 2022-01-08T05:18:25-11:00  21.31305 -157.88881      32   0.0 Hōkūleʻa
  2022-01-08T16:16:08UTC 2022-01-08T06:16:08-10:00 2022-01-08T05:16:08-11:00  21.31322 -157.88843     100   0.0 Hikianalia
  2022-01-08T15:18:34UTC 2022-01-08T05:18:34-10:00 2022-01-08T04:18:34-11:00  21.31302 -157.88883       0   0.0 Hōkūleʻa
  2022-01-08T15:09:09UTC 2022-01-08T05:09:09-10:00 2022-01-08T04:09:09-11:00  21.31323 -157.88849     270   0.0 Hikianalia
  2022-01-08T14:18:47UTC 2022-01-08T04:18:47-10:00 2022-01-08T03:18:47-11:00  21.31300 -157.88883     270   0.0 Hōkūleʻa
  2022-01-08T14:10:35UTC 2022-01-08T04:10:35-10:00 2022-01-08T03:10:35-11:00  21.31323 -157.88845     285   0.0 Hikianalia
  2022-01-08T13:17:34UTC 2022-01-08T03:17:34-10:00 2022-01-08T02:17:34-11:00  21.31300 -157.88879      62   0.0 Hōkūleʻa
  2022-01-08T13:10:08UTC 2022-01-08T03:10:08-10:00 2022-01-08T02:10:08-11:00  21.31322 -157.88841     105   0.0 Hikianalia
  2022-01-08T12:18:24UTC 2022-01-08T02:18:24-10:00 2022-01-08T01:18:24-11:00  21.31298 -157.88883     180   0.0 Hōkūleʻa
  2022-01-08T12:10:38UTC 2022-01-08T02:10:38-10:00 2022-01-08T01:10:38-11:00  21.31323 -157.88845      79   0.0 Hikianalia
  2022-01-08T11:18:29UTC 2022-01-08T01:18:29-10:00 2022-01-08T00:18:29-11:00  21.31302 -157.88883     270   0.0 Hōkūleʻa
  2022-01-08T11:10:15UTC 2022-01-08T01:10:15-10:00 2022-01-08T00:10:15-11:00  21.31320 -157.88862     266   0.0 Hikianalia
  2022-01-08T10:18:44UTC 2022-01-08T00:18:44-10:00 2022-01-07T23:18:44-11:00  21.31302 -157.88881       0   0.0 Hōkūleʻa
  2022-01-08T10:10:07UTC 2022-01-08T00:10:07-10:00 2022-01-07T23:10:07-11:00  21.31321 -157.88845     297   0.0 Hikianalia
  2022-01-08T09:18:27UTC 2022-01-07T23:18:27-10:00 2022-01-07T22:18:27-11:00  21.31302 -157.88881       0   0.0 Hōkūleʻa
  2022-01-08T09:09:17UTC 2022-01-07T23:09:17-10:00 2022-01-07T22:09:17-11:00  21.31320 -157.88843     148   0.0 Hikianalia
  2022-01-08T08:18:41UTC 2022-01-07T22:18:41-10:00 2022-01-07T21:18:41-11:00  21.31302 -157.88881     180   0.0 Hōkūleʻa
  2022-01-08T08:10:42UTC 2022-01-07T22:10:42-10:00 2022-01-07T21:10:42-11:00  21.31323 -157.88845       0   0.0 Hikianalia
  2022-01-08T07:18:21UTC 2022-01-07T21:18:21-10:00 2022-01-07T20:18:21-11:00  21.31303 -157.88881      90   0.0 Hōkūleʻa
  2022-01-08T07:10:39UTC 2022-01-07T21:10:39-10:00 2022-01-07T20:10:39-11:00  21.31323 -157.88845      40   0.0 Hikianalia
  2022-01-08T06:18:48UTC 2022-01-07T20:18:48-10:00 2022-01-07T19:18:48-11:00  21.31303 -157.88883     293   0.0 Hōkūleʻa
  2022-01-08T06:18:06UTC 2022-01-07T20:18:06-10:00 2022-01-07T19:18:06-11:00  21.31313 -157.88853     185   0.0 Hikianalia
  2022-01-08T05:18:28UTC 2022-01-07T19:18:28-10:00 2022-01-07T18:18:28-11:00  21.31298 -157.88873      98   0.0 Hōkūleʻa
  2022-01-08T05:10:09UTC 2022-01-07T19:10:09-10:00 2022-01-07T18:10:09-11:00  21.31336 -157.88851     333   0.0 Hikianalia
  2022-01-08T04:18:24UTC 2022-01-07T18:18:24-10:00 2022-01-07T17:18:24-11:00  21.31300 -157.88888     255   0.0 Hōkūleʻa
  2022-01-08T04:10:50UTC 2022-01-07T18:10:50-10:00 2022-01-07T17:10:50-11:00  21.31324 -157.88845      10   0.0 Hikianalia
  2022-01-08T03:17:32UTC 2022-01-07T17:17:32-10:00 2022-01-07T16:17:32-11:00  21.31302 -157.88883       0   0.0 Hōkūleʻa
  2022-01-08T03:10:13UTC 2022-01-07T17:10:13-10:00 2022-01-07T16:10:13-11:00  21.31312 -157.88847     118   0.0 Hikianalia
  2022-01-08T02:18:38UTC 2022-01-07T16:18:38-10:00 2022-01-07T15:18:38-11:00  21.31302 -157.88883     137   0.0 Hōkūleʻa
  2022-01-08T02:10:18UTC 2022-01-07T16:10:18-10:00 2022-01-07T15:10:18-11:00  21.31320 -157.88862     252   0.0 Hikianalia
  2022-01-08T01:18:35UTC 2022-01-07T15:18:35-10:00 2022-01-07T14:18:35-11:00  21.31310 -157.88892     303   0.0 Hōkūleʻa
  2022-01-08T01:09:17UTC 2022-01-07T15:09:17-10:00 2022-01-07T14:09:17-11:00  21.31325 -157.88845       0   0.0 Hikianalia
  2022-01-08T00:17:32UTC 2022-01-07T14:17:32-10:00 2022-01-07T13:17:32-11:00  21.31304 -157.88881      90   0.0 Hōkūleʻa
  2022-01-08T00:10:46UTC 2022-01-07T14:10:46-10:00 2022-01-07T13:10:46-11:00  21.31325 -157.88845      72   0.0 Hikianalia
  2022-01-07T23:18:29UTC 2022-01-07T13:18:29-10:00 2022-01-07T12:18:29-11:00  21.31304 -157.88883       0   0.0 Hōkūleʻa
  2022-01-07T23:17:53UTC 2022-01-07T13:17:53-10:00 2022-01-07T12:17:53-11:00  21.31320 -157.88862     259   0.0 Hikianalia
  2022-01-07T22:17:45UTC 2022-01-07T12:17:45-10:00 2022-01-07T11:17:45-11:00  21.31303 -157.88883       0   0.0 Hōkūleʻa
  2022-01-07T22:09:47UTC 2022-01-07T12:09:47-10:00 2022-01-07T11:09:47-11:00  21.31323 -157.88845      79   0.0 Hikianalia
  2022-01-07T21:17:25UTC 2022-01-07T11:17:25-10:00 2022-01-07T10:17:25-11:00  21.31303 -157.88883     141   0.0 Hōkūleʻa
  2022-01-07T21:10:16UTC 2022-01-07T11:10:16-10:00 2022-01-07T10:10:16-11:00  21.31320 -157.88862     270   0.0 Hikianalia
  2022-01-07T20:18:29UTC 2022-01-07T10:18:29-10:00 2022-01-07T09:18:29-11:00  21.31310 -157.88890     325   0.0 Hōkūleʻa
  2022-01-07T20:10:09UTC 2022-01-07T10:10:09-10:00 2022-01-07T09:10:09-11:00  21.31320 -157.88841     137   0.0 Hikianalia
  2022-01-07T19:18:32UTC 2022-01-07T09:18:32-10:00 2022-01-07T08:18:32-11:00  21.31302 -157.88883       0   0.0 Hōkūleʻa
  2022-01-07T19:09:53UTC 2022-01-07T09:09:53-10:00 2022-01-07T08:09:53-11:00  21.31324 -157.88845       0   0.0 Hikianalia
  2022-01-07T18:18:41UTC 2022-01-07T08:18:41-10:00 2022-01-07T07:18:41-11:00  21.31302 -157.88883     118   0.0 Hōkūleʻa
  2022-01-07T18:10:38UTC 2022-01-07T08:10:38-10:00 2022-01-07T07:10:38-11:00  21.31323 -157.88845     103   0.0 Hikianalia
  2022-01-07T17:18:36UTC 2022-01-07T07:18:36-10:00 2022-01-07T06:18:36-11:00  21.31303 -157.88886     270   0.0 Hōkūleʻa
  2022-01-07T17:10:08UTC 2022-01-07T07:10:08-10:00 2022-01-07T06:10:08-11:00  21.31326 -157.88860     324   0.0 Hikianalia
  2022-01-07T16:18:36UTC 2022-01-07T06:18:36-10:00 2022-01-07T05:18:36-11:00  21.31303 -157.88879     106   0.0 Hōkūleʻa
  2022-01-07T16:10:16UTC 2022-01-07T06:10:16-10:00 2022-01-07T05:10:16-11:00  21.31321 -157.88856     242   0.0 Hikianalia
  2022-01-07T15:18:29UTC 2022-01-07T05:18:29-10:00 2022-01-07T04:18:29-11:00  21.31304 -157.88883       0   0.0 Hōkūleʻa
  2022-01-07T15:10:18UTC 2022-01-07T05:10:18-10:00 2022-01-07T04:10:18-11:00  21.31326 -157.88845       0   0.0 Hikianalia
  2022-01-07T14:18:46UTC 2022-01-07T04:18:46-10:00 2022-01-07T03:18:46-11:00  21.31302 -157.88883      52   0.0 Hōkūleʻa
  2022-01-07T14:10:34UTC 2022-01-07T04:10:34-10:00 2022-01-07T03:10:34-11:00  21.31323 -157.88845     241   0.0 Hikianalia
  2022-01-07T13:17:27UTC 2022-01-07T03:17:27-10:00 2022-01-07T02:17:27-11:00  21.31298 -157.88888     242   0.0 Hōkūleʻa
  2022-01-07T13:10:18UTC 2022-01-07T03:10:18-10:00 2022-01-07T02:10:18-11:00  21.31324 -157.88843      90   0.0 Hikianalia
  2022-01-07T12:18:24UTC 2022-01-07T02:18:24-10:00 2022-01-07T01:18:24-11:00  21.31302 -157.88881      90   0.0 Hōkūleʻa
  2022-01-07T12:10:38UTC 2022-01-07T02:10:38-10:00 2022-01-07T01:10:38-11:00  21.31324 -157.88845       0   0.0 Hikianalia
  2022-01-07T11:18:29UTC 2022-01-07T01:18:29-10:00 2022-01-07T00:18:29-11:00  21.31302 -157.88883     270   0.0 Hōkūleʻa
  2022-01-07T11:10:17UTC 2022-01-07T01:10:17-10:00 2022-01-07T00:10:17-11:00  21.31322 -157.88845      83   0.0 Hikianalia
  2022-01-07T10:18:51UTC 2022-01-07T00:18:51-10:00 2022-01-06T23:18:51-11:00  21.31302 -157.88881      90   0.0 Hōkūleʻa
  2022-01-07T10:09:13UTC 2022-01-07T00:09:13-10:00 2022-01-06T23:09:13-11:00  21.31320 -157.88864     260   0.0 Hikianalia
  2022-01-07T09:18:31UTC 2022-01-06T23:18:31-10:00 2022-01-06T22:18:31-11:00  21.31302 -157.88883       0   0.0 Hōkūleʻa
  2022-01-07T09:10:38UTC 2022-01-06T23:10:38-10:00 2022-01-06T22:10:38-11:00  21.31323 -157.88845      80   0.0 Hikianalia
  2022-01-07T08:18:21UTC 2022-01-06T22:18:21-10:00 2022-01-06T21:18:21-11:00  21.31300 -157.88883     180   0.0 Hōkūleʻa
  2022-01-07T08:10:09UTC 2022-01-06T22:10:09-10:00 2022-01-06T21:10:09-11:00  21.31320 -157.88864       0   0.0 Hikianalia
  2022-01-07T07:18:53UTC 2022-01-06T21:18:53-10:00 2022-01-06T20:18:53-11:00  21.31302 -157.88883     317   0.0 Hōkūleʻa
  2022-01-07T07:10:06UTC 2022-01-06T21:10:06-10:00 2022-01-06T20:10:06-11:00  21.31320 -157.88864     260   0.0 Hikianalia
  2022-01-07T06:17:23UTC 2022-01-06T20:17:23-10:00 2022-01-06T19:17:23-11:00  21.31299 -157.88881     137   0.0 Hōkūleʻa
  2022-01-07T06:10:48UTC 2022-01-06T20:10:48-10:00 2022-01-06T19:10:48-11:00  21.31323 -157.88845      80   0.0 Hikianalia
  2022-01-07T05:18:21UTC 2022-01-06T19:18:21-10:00 2022-01-06T18:18:21-11:00  21.31302 -157.88883     299   0.0 Hōkūleʻa
  2022-01-07T05:10:15UTC 2022-01-06T19:10:15-10:00 2022-01-06T18:10:15-11:00  21.31320 -157.88864       0   0.0 Hikianalia
  2022-01-07T04:18:43UTC 2022-01-06T18:18:43-10:00 2022-01-06T17:18:43-11:00  21.31300 -157.88881     138   0.0 Hōkūleʻa
  2022-01-07T04:10:06UTC 2022-01-06T18:10:06-10:00 2022-01-06T17:10:06-11:00  21.31320 -157.88864       0   0.0 Hikianalia
  2022-01-07T03:18:33UTC 2022-01-06T17:18:33-10:00 2022-01-06T16:18:33-11:00  21.31303 -157.88883     299   0.0 Hōkūleʻa
  2022-01-07T03:09:17UTC 2022-01-06T17:09:17-10:00 2022-01-06T16:09:17-11:00  21.31320 -157.88864     260   0.0 Hikianalia
  2022-01-07T02:17:21UTC 2022-01-06T16:17:21-10:00 2022-01-06T15:17:21-11:00  21.31302 -157.88881     160   0.0 Hōkūleʻa
  2022-01-07T02:09:40UTC 2022-01-06T16:09:40-10:00 2022-01-06T15:09:40-11:00  21.31323 -157.88845      80   0.0 Hikianalia
  2022-01-07T01:18:55UTC 2022-01-06T15:18:55-10:00 2022-01-06T14:18:55-11:00  21.31307 -157.88883     299   0.0 Hōkūleʻa
  2022-01-07T01:10:11UTC 2022-01-06T15:10:11-10:00 2022-01-06T14:10:11-11:00  21.31320 -157.88864     223   0.0 Hikianalia
  2022-01-07T00:17:46UTC 2022-01-06T14:17:46-10:00 2022-01-06T13:17:46-11:00  21.31306 -157.88881     118   0.0 Hōkūleʻa
  2022-01-07T00:10:17UTC 2022-01-06T14:10:17-10:00 2022-01-06T13:10:17-11:00  21.31328 -157.88856     270   0.0 Hikianalia
  2022-01-06T23:25:59UTC 2022-01-06T13:25:59-10:00 2022-01-06T12:25:59-11:00  21.31311 -157.88892     321   0.0 Hōkūleʻa
  2022-01-06T23:09:14UTC 2022-01-06T13:09:14-10:00 2022-01-06T12:09:14-11:00  21.31328 -157.88845       0   0.0 Hikianalia
  2022-01-06T22:17:26UTC 2022-01-06T12:17:26-10:00 2022-01-06T11:17:26-11:00  21.31304 -157.88886     285   0.0 Hōkūleʻa
  2022-01-06T22:09:38UTC 2022-01-06T12:09:38-10:00 2022-01-06T11:09:38-11:00  21.31324 -157.88845      77   0.0 Hikianalia
  2022-01-06T21:18:31UTC 2022-01-06T11:18:31-10:00 2022-01-06T10:18:31-11:00  21.31303 -157.88881      90   0.0 Hōkūleʻa
  2022-01-06T21:10:18UTC 2022-01-06T11:10:18-10:00 2022-01-06T10:10:18-11:00  21.31320 -157.88864       0   0.0 Hikianalia
  2022-01-06T20:17:46UTC 2022-01-06T10:17:46-10:00 2022-01-06T09:17:46-11:00  21.31303 -157.88883       0   0.0 Hōkūleʻa
  2022-01-06T20:10:17UTC 2022-01-06T10:10:17-10:00 2022-01-06T09:10:17-11:00  21.31320 -157.88864     253   0.0 Hikianalia
  2022-01-06T19:18:27UTC 2022-01-06T09:18:27-10:00 2022-01-06T08:18:27-11:00  21.31300 -157.88883       0   0.0 Hōkūleʻa
  2022-01-06T19:09:07UTC 2022-01-06T09:09:07-10:00 2022-01-06T08:09:07-11:00  21.31324 -157.88849     285   0.0 Hikianalia
  2022-01-06T18:18:33UTC 2022-01-06T08:18:33-10:00 2022-01-06T07:18:33-11:00  21.31300 -157.88883     230   0.0 Hōkūleʻa
  2022-01-06T18:17:33UTC 2022-01-06T08:17:33-10:00 2022-01-06T07:17:33-11:00  21.31323 -157.88845      90   0.0 Hikianalia
  2022-01-06T17:19:03UTC 2022-01-06T07:19:03-10:00 2022-01-06T06:19:03-11:00  21.31323 -157.88851       0   0.0 Hikianalia
  2022-01-06T17:18:26UTC 2022-01-06T07:18:26-10:00 2022-01-06T06:18:26-11:00  21.31304 -157.88879      74   0.0 Hōkūleʻa
  2022-01-06T16:18:49UTC 2022-01-06T06:18:49-10:00 2022-01-06T05:18:49-11:00  21.31303 -157.88883     260   0.0 Hōkūleʻa
  2022-01-06T16:10:07UTC 2022-01-06T06:10:07-10:00 2022-01-06T05:10:07-11:00  21.31323 -157.88851     223   0.0 Hikianalia
  2022-01-06T15:17:30UTC 2022-01-06T05:17:30-10:00 2022-01-06T04:17:30-11:00  21.31304 -157.88877      61   0.0 Hōkūleʻa
  2022-01-06T15:10:16UTC 2022-01-06T05:10:16-10:00 2022-01-06T04:10:16-11:00  21.31327 -157.88847     334   0.0 Hikianalia
  2022-01-06T14:18:22UTC 2022-01-06T04:18:22-10:00 2022-01-06T03:18:22-11:00  21.31302 -157.88881     138   0.0 Hōkūleʻa
  2022-01-06T14:11:48UTC 2022-01-06T04:11:48-10:00 2022-01-06T03:11:48-11:00  21.31323 -157.88845     128   0.0 Hikianalia
  2022-01-06T13:18:33UTC 2022-01-06T03:18:33-10:00 2022-01-06T02:18:33-11:00  21.31304 -157.88883     329   0.0 Hōkūleʻa
  2022-01-06T13:09:57UTC 2022-01-06T03:09:57-10:00 2022-01-06T02:09:57-11:00  21.31329 -157.88853      46   0.0 Hikianalia
  2022-01-06T12:18:49UTC 2022-01-06T02:18:49-10:00 2022-01-06T01:18:49-11:00  21.31300 -157.88881     180   0.0 Hōkūleʻa
  2022-01-06T12:10:10UTC 2022-01-06T02:10:10-10:00 2022-01-06T01:10:10-11:00  21.31320 -157.88864       0   0.0 Hikianalia
  2022-01-06T11:18:30UTC 2022-01-06T01:18:30-10:00 2022-01-06T00:18:30-11:00  21.31303 -157.88881     328   0.0 Hōkūleʻa
  2022-01-06T11:10:09UTC 2022-01-06T01:10:09-10:00 2022-01-06T00:10:09-11:00  21.31320 -157.88864     260   0.0 Hikianalia
  2022-01-06T10:18:31UTC 2022-01-06T00:18:31-10:00 2022-01-05T23:18:31-11:00  21.31299 -157.88879     118   0.0 Hōkūleʻa
  2022-01-06T10:10:39UTC 2022-01-06T00:10:39-10:00 2022-01-05T23:10:39-11:00  21.31323 -157.88845     180   0.0 Hikianalia
  2022-01-06T09:18:30UTC 2022-01-05T23:18:30-10:00 2022-01-05T22:18:30-11:00  21.31302 -157.88883       0   0.0 Hōkūleʻa
  2022-01-06T09:10:26UTC 2022-01-05T23:10:26-10:00 2022-01-05T22:10:26-11:00  21.31324 -157.88845       0   0.0 Hikianalia
  2022-01-06T08:18:45UTC 2022-01-05T22:18:45-10:00 2022-01-05T21:18:45-11:00  21.31302 -157.88883       0   0.0 Hōkūleʻa
  2022-01-06T08:10:24UTC 2022-01-05T22:10:24-10:00 2022-01-05T21:10:24-11:00  21.31324 -157.88845      62   0.0 Hikianalia
  2022-01-06T07:18:26UTC 2022-01-05T21:18:26-10:00 2022-01-05T20:18:26-11:00  21.31302 -157.88883     299   0.0 Hōkūleʻa
  2022-01-06T07:10:47UTC 2022-01-05T21:10:47-10:00 2022-01-05T20:10:47-11:00  21.31323 -157.88847      79   0.0 Hikianalia
  2022-01-06T06:18:31UTC 2022-01-05T20:18:31-10:00 2022-01-05T19:18:31-11:00  21.31300 -157.88881      63   0.0 Hōkūleʻa
  2022-01-06T06:10:19UTC 2022-01-05T20:10:19-10:00 2022-01-05T19:10:19-11:00  21.31320 -157.88864       0   0.0 Hikianalia
  2022-01-06T05:18:31UTC 2022-01-05T19:18:31-10:00 2022-01-05T18:18:31-11:00  21.31299 -157.88883     212   0.0 Hōkūleʻa
  2022-01-06T05:10:08UTC 2022-01-05T19:10:08-10:00 2022-01-05T18:10:08-11:00  21.31320 -157.88864     230   0.0 Hikianalia
  2022-01-06T04:17:40UTC 2022-01-05T18:17:40-10:00 2022-01-05T17:17:40-11:00  21.31303 -157.88881      61   0.0 Hōkūleʻa
  2022-01-06T04:10:47UTC 2022-01-05T18:10:47-10:00 2022-01-05T17:10:47-11:00  21.31332 -157.88849      50   0.0 Hikianalia
  2022-01-06T03:18:25UTC 2022-01-05T17:18:25-10:00 2022-01-05T16:18:25-11:00  21.31302 -157.88883       0   0.0 Hōkūleʻa
  2022-01-06T03:10:16UTC 2022-01-05T17:10:16-10:00 2022-01-05T16:10:16-11:00  21.31320 -157.88864       0   0.0 Hikianalia
  2022-01-06T02:18:29UTC 2022-01-05T16:18:29-10:00 2022-01-05T15:18:29-11:00  21.31300 -157.88883     180   0.0 Hōkūleʻa
  2022-01-06T02:10:18UTC 2022-01-05T16:10:18-10:00 2022-01-05T15:10:18-11:00  21.31320 -157.88864       0   0.0 Hikianalia
  2022-01-06T01:18:37UTC 2022-01-05T15:18:37-10:00 2022-01-05T14:18:37-11:00  21.31307 -157.88883     286   0.0 Hōkūleʻa
  2022-01-06T01:09:16UTC 2022-01-05T15:09:16-10:00 2022-01-05T14:09:16-11:00  21.31320 -157.88864       0   0.0 Hikianalia
  2022-01-06T00:17:40UTC 2022-01-05T14:17:40-10:00 2022-01-05T13:17:40-11:00  21.31306 -157.88879     110   0.0 Hōkūleʻa
  2022-01-06T00:10:38UTC 2022-01-05T14:10:38-10:00 2022-01-05T13:10:38-11:00  21.31320 -157.88864     198   0.0 Hikianalia
  2022-01-05T23:18:36UTC 2022-01-05T13:18:36-10:00 2022-01-05T12:18:36-11:00  21.31308 -157.88886     328   0.0 Hōkūleʻa
  2022-01-05T23:09:31UTC 2022-01-05T13:09:31-10:00 2022-01-05T12:09:31-11:00  21.31338 -157.88858      18   0.0 Hikianalia
  2022-01-05T22:17:27UTC 2022-01-05T12:17:27-10:00 2022-01-05T11:17:27-11:00  21.31302 -157.88881     180   0.0 Hōkūleʻa
  2022-01-05T22:10:15UTC 2022-01-05T12:10:15-10:00 2022-01-05T11:10:15-11:00  21.31320 -157.88864     252   0.0 Hikianalia
  2022-01-05T21:18:33UTC 2022-01-05T11:18:33-10:00 2022-01-05T10:18:33-11:00  21.31304 -157.88881      90   0.0 Hōkūleʻa
  2022-01-05T21:10:25UTC 2022-01-05T11:10:25-10:00 2022-01-05T10:10:25-11:00  21.31325 -157.88847     270   0.0 Hikianalia
  2022-01-05T20:17:45UTC 2022-01-05T10:17:45-10:00 2022-01-05T09:17:45-11:00  21.31304 -157.88883     299   0.0 Hōkūleʻa
  2022-01-05T20:09:47UTC 2022-01-05T10:09:47-10:00 2022-01-05T09:09:47-11:00  21.31325 -157.88845      90   0.0 Hikianalia
  2022-01-05T19:18:41UTC 2022-01-05T09:18:41-10:00 2022-01-05T08:18:41-11:00  21.31303 -157.88881      90   0.0 Hōkūleʻa
  2022-01-05T19:10:45UTC 2022-01-05T09:10:45-10:00 2022-01-05T08:10:45-11:00  21.31325 -157.88847      37   0.0 Hikianalia
  2022-01-05T18:18:31UTC 2022-01-05T08:18:31-10:00 2022-01-05T07:18:31-11:00  21.31303 -157.88886     270   0.0 Hōkūleʻa
  2022-01-05T18:10:11UTC 2022-01-05T08:10:11-10:00 2022-01-05T07:10:11-11:00  21.31320 -157.88851     180   0.0 Hikianalia
  2022-01-05T17:18:31UTC 2022-01-05T07:18:31-10:00 2022-01-05T06:18:31-11:00  21.31303 -157.88881      90   0.0 Hōkūleʻa
  2022-01-05T17:09:17UTC 2022-01-05T07:09:17-10:00 2022-01-05T06:09:17-11:00  21.31323 -157.88851     280   0.0 Hikianalia
  2022-01-05T16:18:36UTC 2022-01-05T06:18:36-10:00 2022-01-05T05:18:36-11:00  21.31303 -157.88883     159   0.0 Hōkūleʻa
  2022-01-05T16:10:39UTC 2022-01-05T06:10:39-10:00 2022-01-05T05:10:39-11:00  21.31322 -157.88845     148   0.0 Hikianalia
  2022-01-05T15:18:40UTC 2022-01-05T05:18:40-10:00 2022-01-05T04:18:40-11:00  21.31308 -157.88886     332   0.0 Hōkūleʻa
  2022-01-05T15:10:10UTC 2022-01-05T05:10:10-10:00 2022-01-05T04:10:10-11:00  21.31328 -157.88849     332   0.0 Hikianalia
  2022-01-05T14:17:30UTC 2022-01-05T04:17:30-10:00 2022-01-05T03:17:30-11:00  21.31300 -157.88881     138   0.0 Hōkūleʻa
  2022-01-05T14:10:16UTC 2022-01-05T04:10:16-10:00 2022-01-05T03:10:16-11:00  21.31321 -157.88845     137   0.0 Hikianalia
  2022-01-05T13:18:25UTC 2022-01-05T03:18:25-10:00 2022-01-05T02:18:25-11:00  21.31303 -157.88883       0   0.0 Hōkūleʻa
  2022-01-05T13:10:18UTC 2022-01-05T03:10:18-10:00 2022-01-05T02:10:18-11:00  21.31323 -157.88847       0   0.0 Hikianalia
  2022-01-05T12:18:40UTC 2022-01-05T02:18:40-10:00 2022-01-05T01:18:40-11:00  21.31302 -157.88883     137   0.0 Hōkūleʻa
  2022-01-05T12:10:38UTC 2022-01-05T02:10:38-10:00 2022-01-05T01:10:38-11:00  21.31323 -157.88847     317   0.0 Hikianalia
  2022-01-05T11:18:34UTC 2022-01-05T01:18:34-10:00 2022-01-05T00:18:34-11:00  21.31306 -157.88888     306   0.0 Hōkūleʻa
  2022-01-05T11:10:19UTC 2022-01-05T01:10:19-10:00 2022-01-05T00:10:19-11:00  21.31321 -157.88845     180   0.0 Hikianalia
  2022-01-05T10:18:32UTC 2022-01-05T00:18:32-10:00 2022-01-04T23:18:32-11:00  21.31302 -157.88881      90   0.0 Hōkūleʻa
  2022-01-05T10:10:18UTC 2022-01-05T00:10:18-10:00 2022-01-04T23:10:18-11:00  21.31322 -157.88845     180   0.0 Hikianalia
  2022-01-05T09:18:32UTC 2022-01-04T23:18:32-10:00 2022-01-04T22:18:32-11:00  21.31302 -157.88883     270   0.0 Hōkūleʻa
  2022-01-05T09:10:44UTC 2022-01-04T23:10:44-10:00 2022-01-04T22:10:44-11:00  21.31324 -157.88845     116   0.0 Hikianalia
  2022-01-05T08:18:52UTC 2022-01-04T22:18:52-10:00 2022-01-04T21:18:52-11:00  21.31302 -157.88881      75   0.0 Hōkūleʻa
  2022-01-05T08:10:40UTC 2022-01-04T22:10:40-10:00 2022-01-04T21:10:40-11:00  21.31325 -157.88847     334   0.0 Hikianalia
  2022-01-05T07:18:35UTC 2022-01-04T21:18:35-10:00 2022-01-04T20:18:35-11:00  21.31300 -157.88886       0   0.0 Hōkūleʻa
  2022-01-05T07:16:42UTC 2022-01-04T21:16:42-10:00 2022-01-04T20:16:42-11:00  21.31321 -157.88845      81   0.0 Hikianalia
  2022-01-05T06:18:25UTC 2022-01-04T20:18:25-10:00 2022-01-04T19:18:25-11:00  21.31299 -157.88886     224   0.0 Hōkūleʻa
  2022-01-05T06:10:16UTC 2022-01-04T20:10:16-10:00 2022-01-04T19:10:16-11:00  21.31320 -157.88851      90   0.0 Hikianalia
  2022-01-05T05:18:29UTC 2022-01-04T19:18:29-10:00 2022-01-04T18:18:29-11:00  21.31302 -157.88883     270   0.0 Hōkūleʻa
  2022-01-05T05:10:09UTC 2022-01-04T19:10:09-10:00 2022-01-04T18:10:09-11:00  21.31320 -157.88864     260   0.0 Hikianalia
  2022-01-05T04:18:38UTC 2022-01-04T18:18:38-10:00 2022-01-04T17:18:38-11:00  21.31302 -157.88881      61   0.0 Hōkūleʻa
  2022-01-05T04:10:47UTC 2022-01-04T18:10:47-10:00 2022-01-04T17:10:47-11:00  21.31323 -157.88845       0   0.0 Hikianalia
  2022-01-05T03:17:38UTC 2022-01-04T17:17:38-10:00 2022-01-04T16:17:38-11:00  21.31300 -157.88883     222   0.0 Hōkūleʻa
  2022-01-05T03:09:47UTC 2022-01-04T17:09:47-10:00 2022-01-04T16:09:47-11:00  21.31323 -157.88845     118   0.0 Hikianalia
  2022-01-05T02:18:22UTC 2022-01-04T16:18:22-10:00 2022-01-04T15:18:22-11:00  21.31303 -157.88881     160   0.0 Hōkūleʻa
  2022-01-05T02:10:09UTC 2022-01-04T16:10:09-10:00 2022-01-04T15:10:09-11:00  21.31326 -157.88851     206   0.0 Hikianalia
  2022-01-05T01:18:32UTC 2022-01-04T15:18:32-10:00 2022-01-04T14:18:32-11:00  21.31308 -157.88883     299   0.0 Hōkūleʻa
  2022-01-05T01:10:07UTC 2022-01-04T15:10:07-10:00 2022-01-04T14:10:07-11:00  21.31330 -157.88849     299   0.0 Hikianalia
  2022-01-05T00:17:41UTC 2022-01-04T14:17:41-10:00 2022-01-04T13:17:41-11:00  21.31307 -157.88881     105   0.0 Hōkūleʻa
  2022-01-05T00:09:46UTC 2022-01-04T14:09:46-10:00 2022-01-04T13:09:46-11:00  21.31328 -157.88845     129   0.0 Hikianalia
  2022-01-04T23:19:05UTC 2022-01-04T13:19:05-10:00 2022-01-04T12:19:05-11:00  21.31308 -157.88886     264   0.0 Hōkūleʻa
  2022-01-04T23:10:16UTC 2022-01-04T13:10:16-10:00 2022-01-04T12:10:16-11:00  21.31335 -157.88853     299   0.0 Hikianalia
  2022-01-04T22:18:36UTC 2022-01-04T12:18:36-10:00 2022-01-04T11:18:36-11:00  21.31309 -157.88875      56   0.0 Hōkūleʻa
  2022-01-04T22:10:05UTC 2022-01-04T12:10:05-10:00 2022-01-04T11:10:05-11:00  21.31333 -157.88849      48   0.0 Hikianalia
  2022-01-04T21:17:31UTC 2022-01-04T11:17:31-10:00 2022-01-04T10:17:31-11:00  21.31304 -157.88883       0   0.0 Hōkūleʻa
  2022-01-04T21:09:19UTC 2022-01-04T11:09:19-10:00 2022-01-04T10:09:19-11:00  21.31320 -157.88864     254   0.0 Hikianalia
  2022-01-04T20:18:40UTC 2022-01-04T10:18:40-10:00 2022-01-04T09:18:40-11:00  21.31304 -157.88883     270   0.0 Hōkūleʻa
  2022-01-04T20:10:43UTC 2022-01-04T10:10:43-10:00 2022-01-04T09:10:43-11:00  21.31325 -157.88845     180   0.0 Hikianalia
  2022-01-04T19:17:33UTC 2022-01-04T09:17:33-10:00 2022-01-04T08:17:33-11:00  21.31304 -157.88879      61   0.0 Hōkūleʻa
  2022-01-04T19:10:15UTC 2022-01-04T09:10:15-10:00 2022-01-04T08:10:15-11:00  21.31327 -157.88845      43   0.0 Hikianalia
  2022-01-04T18:18:25UTC 2022-01-04T08:18:25-10:00 2022-01-04T07:18:25-11:00  21.31302 -157.88883     180   0.0 Hōkūleʻa
  2022-01-04T18:10:11UTC 2022-01-04T08:10:11-10:00 2022-01-04T07:10:11-11:00  21.31325 -157.88847       0   0.0 Hikianalia
  2022-01-04T17:18:20UTC 2022-01-04T07:18:20-10:00 2022-01-04T06:18:20-11:00  21.31304 -157.88883       0   0.0 Hōkūleʻa
  2022-01-04T17:10:49UTC 2022-01-04T07:10:49-10:00 2022-01-04T06:10:49-11:00  21.31323 -157.88847     137   0.0 Hikianalia
  2022-01-04T16:17:38UTC 2022-01-04T06:17:38-10:00 2022-01-04T05:17:38-11:00  21.31302 -157.88883     180   0.0 Hōkūleʻa
  2022-01-04T16:10:16UTC 2022-01-04T06:10:16-10:00 2022-01-04T05:10:16-11:00  21.31327 -157.88851     312   0.0 Hikianalia
  2022-01-04T15:29:30UTC 2022-01-04T05:29:30-10:00 2022-01-04T04:29:30-11:00  21.31322 -157.88845      90   0.0 Hikianalia
  2022-01-04T15:18:31UTC 2022-01-04T05:18:31-10:00 2022-01-04T04:18:31-11:00  21.31303 -157.88883     299   0.0 Hōkūleʻa
  2022-01-04T14:18:21UTC 2022-01-04T04:18:21-10:00 2022-01-04T03:18:21-11:00  21.31302 -157.88881       0   0.0 Hōkūleʻa
  2022-01-04T14:10:41UTC 2022-01-04T04:10:41-10:00 2022-01-04T03:10:41-11:00  21.31322 -157.88847     223   0.0 Hikianalia
  2022-01-04T13:18:32UTC 2022-01-04T03:18:32-10:00 2022-01-04T02:18:32-11:00  21.31302 -157.88881      90   0.0 Hōkūleʻa
  2022-01-04T13:10:39UTC 2022-01-04T03:10:39-10:00 2022-01-04T02:10:39-11:00  21.31324 -157.88845      77   0.0 Hikianalia
  2022-01-04T12:26:54UTC 2022-01-04T02:26:54-10:00 2022-01-04T01:26:54-11:00  21.31302 -157.88883     299   0.0 Hōkūleʻa
  2022-01-04T12:10:17UTC 2022-01-04T02:10:17-10:00 2022-01-04T01:10:17-11:00  21.31320 -157.88864     257   0.0 Hikianalia
  2022-01-04T11:18:29UTC 2022-01-04T01:18:29-10:00 2022-01-04T00:18:29-11:00  21.31300 -157.88881     138   0.0 Hōkūleʻa
  2022-01-04T11:10:13UTC 2022-01-04T01:10:13-10:00 2022-01-04T00:10:13-11:00  21.31323 -157.88849     242   0.0 Hikianalia
  2022-01-04T10:18:24UTC 2022-01-04T00:18:24-10:00 2022-01-03T23:18:24-11:00  21.31303 -157.88883       0   0.0 Hōkūleʻa
  2022-01-04T10:10:47UTC 2022-01-04T00:10:47-10:00 2022-01-03T23:10:47-11:00  21.31325 -157.88845      74   0.0 Hikianalia
  2022-01-04T09:18:31UTC 2022-01-03T23:18:31-10:00 2022-01-03T22:18:31-11:00  21.31302 -157.88883       0   0.0 Hōkūleʻa
  2022-01-04T09:09:18UTC 2022-01-03T23:09:18-10:00 2022-01-03T22:09:18-11:00  21.31320 -157.88864     267   0.0 Hikianalia
  2022-01-04T08:18:39UTC 2022-01-03T22:18:39-10:00 2022-01-03T21:18:39-11:00  21.31302 -157.88883     270   0.0 Hōkūleʻa
  2022-01-04T08:10:09UTC 2022-01-03T22:10:09-10:00 2022-01-03T21:10:09-11:00  21.31321 -157.88845     137   0.0 Hikianalia
  2022-01-04T07:17:35UTC 2022-01-03T21:17:35-10:00 2022-01-03T20:17:35-11:00  21.31302 -157.88881      61   0.0 Hōkūleʻa
  2022-01-04T07:10:39UTC 2022-01-03T21:10:39-10:00 2022-01-03T20:10:39-11:00  21.31323 -157.88847      28   0.0 Hikianalia
  2022-01-04T06:18:25UTC 2022-01-03T20:18:25-10:00 2022-01-03T19:18:25-11:00  21.31300 -157.88883     180   0.0 Hōkūleʻa
  2022-01-04T06:10:14UTC 2022-01-03T20:10:14-10:00 2022-01-03T19:10:14-11:00  21.31315 -157.88851     205   0.0 Hikianalia
  2022-01-04T05:18:27UTC 2022-01-03T19:18:27-10:00 2022-01-03T18:18:27-11:00  21.31302 -157.88883       0   0.0 Hōkūleʻa
  2022-01-04T05:10:17UTC 2022-01-03T19:10:17-10:00 2022-01-03T18:10:17-11:00  21.31324 -157.88847      90   0.0 Hikianalia
  2022-01-04T04:20:41UTC 2022-01-03T18:20:41-10:00 2022-01-03T17:20:41-11:00  21.31324 -157.88851     270   0.0 Hikianalia
  2022-01-04T04:18:46UTC 2022-01-03T18:18:46-10:00 2022-01-03T17:18:46-11:00  21.31300 -157.88883     241   0.0 Hōkūleʻa
  2022-01-04T03:21:26UTC 2022-01-03T17:21:26-10:00 2022-01-03T16:21:26-11:00  21.31324 -157.88847      20   0.0 Hikianalia
  2022-01-04T03:18:31UTC 2022-01-03T17:18:31-10:00 2022-01-03T16:18:31-11:00  21.31303 -157.88879      74   0.0 Hōkūleʻa
  2022-01-04T02:18:22UTC 2022-01-03T16:18:22-10:00 2022-01-03T15:18:22-11:00  21.31302 -157.88883     180   0.0 Hōkūleʻa
  2022-01-04T02:09:17UTC 2022-01-03T16:09:17-10:00 2022-01-03T15:09:17-11:00  21.31319 -157.88849     190   0.0 Hikianalia
  2022-01-04T01:17:32UTC 2022-01-03T15:17:32-10:00 2022-01-03T14:17:32-11:00  21.31308 -157.88883       0   0.0 Hōkūleʻa
  2022-01-04T01:10:06UTC 2022-01-03T15:10:06-10:00 2022-01-03T14:10:06-11:00  21.31329 -157.88847      59   0.0 Hikianalia
  2022-01-04T00:18:48UTC 2022-01-03T14:18:48-10:00 2022-01-03T13:18:48-11:00  21.31306 -157.88883     317   0.0 Hōkūleʻa
  2022-01-04T00:09:47UTC 2022-01-03T14:09:47-10:00 2022-01-03T13:09:47-11:00  21.31320 -157.88864     245   0.0 Hikianalia
  2022-01-03T23:17:37UTC 2022-01-03T13:17:37-10:00 2022-01-03T12:17:37-11:00  21.31299 -157.88877     137   0.0 Hōkūleʻa
  2022-01-03T23:10:33UTC 2022-01-03T13:10:33-10:00 2022-01-03T12:10:33-11:00  21.31327 -157.88847      32   0.0 Hikianalia
  2022-01-03T22:18:25UTC 2022-01-03T12:18:25-10:00 2022-01-03T11:18:25-11:00  21.31308 -157.88886     339   0.0 Hōkūleʻa
  2022-01-03T22:09:37UTC 2022-01-03T12:09:37-10:00 2022-01-03T11:09:37-11:00  21.31324 -157.88849     270   0.0 Hikianalia
  2022-01-03T21:18:32UTC 2022-01-03T11:18:32-10:00 2022-01-03T10:18:32-11:00  21.31303 -157.88883     180   0.0 Hōkūleʻa
  2022-01-03T21:10:12UTC 2022-01-03T11:10:12-10:00 2022-01-03T10:10:12-11:00  21.31324 -157.88847     339   0.0 Hikianalia
  2022-01-03T20:18:39UTC 2022-01-03T10:18:39-10:00 2022-01-03T09:18:39-11:00  21.31305 -157.88883      44   0.0 Hōkūleʻa
  2022-01-03T20:10:15UTC 2022-01-03T10:10:15-10:00 2022-01-03T09:10:15-11:00  21.31319 -157.88845     180   0.0 Hikianalia
  2022-01-03T19:18:36UTC 2022-01-03T09:18:36-10:00 2022-01-03T08:18:36-11:00  21.31303 -157.88886     299   0.0 Hōkūleʻa
  2022-01-03T19:10:40UTC 2022-01-03T09:10:40-10:00 2022-01-03T08:10:40-11:00  21.31325 -157.88845      62   0.0 Hikianalia
  2022-01-03T18:18:30UTC 2022-01-03T08:18:30-10:00 2022-01-03T07:18:30-11:00  21.31300 -157.88881     180   0.0 Hōkūleʻa
  2022-01-03T18:10:31UTC 2022-01-03T08:10:31-10:00 2022-01-03T07:10:31-11:00  21.31321 -157.88853     285   0.0 Hikianalia
  2022-01-03T17:18:28UTC 2022-01-03T07:18:28-10:00 2022-01-03T06:18:28-11:00  21.31303 -157.88881      61   0.0 Hōkūleʻa
  2022-01-03T17:10:19UTC 2022-01-03T07:10:19-10:00 2022-01-03T06:10:19-11:00  21.31319 -157.88845     180   0.0 Hikianalia
  2022-01-03T16:18:47UTC 2022-01-03T06:18:47-10:00 2022-01-03T05:18:47-11:00  21.31302 -157.88883     270   0.0 Hōkūleʻa
  2022-01-03T16:10:39UTC 2022-01-03T06:10:39-10:00 2022-01-03T05:10:39-11:00  21.31321 -157.88845     180   0.0 Hikianalia
  2022-01-03T15:18:38UTC 2022-01-03T05:18:38-10:00 2022-01-03T04:18:38-11:00  21.31302 -157.88879      90   0.0 Hōkūleʻa
  2022-01-03T15:10:09UTC 2022-01-03T05:10:09-10:00 2022-01-03T04:10:09-11:00  21.31325 -157.88845       0   0.0 Hikianalia
  2022-01-03T14:18:30UTC 2022-01-03T04:18:30-10:00 2022-01-03T03:18:30-11:00  21.31302 -157.88883       0   0.0 Hōkūleʻa
  2022-01-03T14:10:15UTC 2022-01-03T04:10:15-10:00 2022-01-03T03:10:15-11:00  21.31322 -157.88845       0   0.0 Hikianalia
  2022-01-03T13:18:33UTC 2022-01-03T03:18:33-10:00 2022-01-03T02:18:33-11:00  21.31302 -157.88883     299   0.0 Hōkūleʻa
  2022-01-03T13:10:47UTC 2022-01-03T03:10:47-10:00 2022-01-03T02:10:47-11:00  21.31322 -157.88845      83   0.0 Hikianalia
  2022-01-03T12:18:49UTC 2022-01-03T02:18:49-10:00 2022-01-03T01:18:49-11:00  21.31300 -157.88881     132   0.0 Hōkūleʻa
  2022-01-03T12:10:19UTC 2022-01-03T02:10:19-10:00 2022-01-03T01:10:19-11:00  21.31320 -157.88864     254   0.0 Hikianalia
  2022-01-03T11:17:30UTC 2022-01-03T01:17:30-10:00 2022-01-03T00:17:30-11:00  21.31306 -157.88888     306   0.0 Hōkūleʻa
  2022-01-03T11:09:17UTC 2022-01-03T01:09:17-10:00 2022-01-03T00:09:17-11:00  21.31325 -157.88845      74   0.0 Hikianalia
  2022-01-03T10:18:25UTC 2022-01-03T00:18:25-10:00 2022-01-02T23:18:25-11:00  21.31302 -157.88881      90   0.0 Hōkūleʻa
  2022-01-03T10:10:38UTC 2022-01-03T00:10:38-10:00 2022-01-02T23:10:38-11:00  21.31320 -157.88864     273   0.0 Hikianalia
  2022-01-03T09:18:24UTC 2022-01-02T23:18:24-10:00 2022-01-02T22:18:24-11:00  21.31302 -157.88883     270   0.0 Hōkūleʻa
  2022-01-03T09:10:18UTC 2022-01-02T23:10:18-10:00 2022-01-02T22:10:18-11:00  21.31319 -157.88845     180   0.0 Hikianalia
  2022-01-03T08:18:48UTC 2022-01-02T22:18:48-10:00 2022-01-02T21:18:48-11:00  21.31302 -157.88881      43   0.0 Hōkūleʻa
  2022-01-03T08:10:16UTC 2022-01-02T22:10:16-10:00 2022-01-02T21:10:16-11:00  21.31320 -157.88845     147   0.0 Hikianalia
  2022-01-03T07:18:35UTC 2022-01-02T21:18:35-10:00 2022-01-02T20:18:35-11:00  21.31299 -157.88883     223   0.0 Hōkūleʻa
  2022-01-03T07:10:06UTC 2022-01-02T21:10:06-10:00 2022-01-02T20:10:06-11:00  21.31323 -157.88847       0   0.0 Hikianalia
  2022-01-03T06:18:31UTC 2022-01-02T20:18:31-10:00 2022-01-02T19:18:31-11:00  21.31302 -157.88881      61   0.0 Hōkūleʻa
  2022-01-03T06:10:38UTC 2022-01-02T20:10:38-10:00 2022-01-02T19:10:38-11:00  21.31323 -157.88847      79   0.0 Hikianalia
  2022-01-03T05:18:27UTC 2022-01-02T19:18:27-10:00 2022-01-02T18:18:27-11:00  21.31300 -157.88883     222   0.0 Hōkūleʻa
  2022-01-03T05:10:16UTC 2022-01-02T19:10:16-10:00 2022-01-02T18:10:16-11:00  21.31320 -157.88864       0   0.0 Hikianalia
  2022-01-03T04:18:49UTC 2022-01-02T18:18:49-10:00 2022-01-02T17:18:49-11:00  21.31303 -157.88881      61   0.0 Hōkūleʻa
  2022-01-03T04:09:14UTC 2022-01-02T18:09:14-10:00 2022-01-02T17:09:14-11:00  21.31320 -157.88864     263   0.0 Hikianalia
  2022-01-03T03:18:33UTC 2022-01-02T17:18:33-10:00 2022-01-02T16:18:33-11:00  21.31302 -157.88883       0   0.0 Hōkūleʻa
  2022-01-03T03:10:09UTC 2022-01-02T17:10:09-10:00 2022-01-02T16:10:09-11:00  21.31322 -157.88845     180   0.0 Hikianalia
  2022-01-03T02:18:30UTC 2022-01-02T16:18:30-10:00 2022-01-02T15:18:30-11:00  21.31300 -157.88883     211   0.0 Hōkūleʻa
  2022-01-03T02:10:45UTC 2022-01-02T16:10:45-10:00 2022-01-02T15:10:45-11:00  21.31323 -157.88845     118   0.0 Hikianalia
  2022-01-03T01:17:24UTC 2022-01-02T15:17:24-10:00 2022-01-02T14:17:24-11:00  21.31304 -157.88881       0   0.0 Hōkūleʻa
  2022-01-03T01:10:25UTC 2022-01-02T15:10:25-10:00 2022-01-02T14:10:25-11:00  21.31324 -157.88847      31   0.0 Hikianalia
  2022-01-03T00:18:41UTC 2022-01-02T14:18:41-10:00 2022-01-02T13:18:41-11:00  21.31304 -157.88881     217   0.0 Hōkūleʻa
  2022-01-03T00:09:09UTC 2022-01-02T14:09:09-10:00 2022-01-02T13:09:09-11:00  21.31321 -157.88849     212   0.0 Hikianalia
  2022-01-02T23:18:30UTC 2022-01-02T13:18:30-10:00 2022-01-02T12:18:30-11:00  21.31309 -157.88877       0   0.0 Hōkūleʻa
  2022-01-02T23:10:41UTC 2022-01-02T13:10:41-10:00 2022-01-02T12:10:41-11:00  21.31327 -157.88845      67   0.0 Hikianalia
  2022-01-02T22:18:29UTC 2022-01-02T12:18:29-10:00 2022-01-02T11:18:29-11:00  21.31303 -157.88877     180   0.0 Hōkūleʻa
  2022-01-02T22:10:16UTC 2022-01-02T12:10:16-10:00 2022-01-02T11:10:16-11:00  21.31320 -157.88864       0   0.0 Hikianalia
  2022-01-02T21:18:41UTC 2022-01-02T11:18:41-10:00 2022-01-02T10:18:41-11:00  21.31304 -157.88877      99   0.0 Hōkūleʻa
  2022-01-02T21:17:07UTC 2022-01-02T11:17:07-10:00 2022-01-02T10:17:07-11:00  21.31320 -157.88864     251   0.0 Hikianalia
  2022-01-02T20:19:05UTC 2022-01-02T10:19:05-10:00 2022-01-02T09:19:05-11:00  21.31326 -157.88845      85   0.0 Hikianalia
  2022-01-02T20:18:48UTC 2022-01-02T10:18:48-10:00 2022-01-02T09:18:48-11:00  21.31305 -157.88883     276   0.0 Hōkūleʻa
  2022-01-02T19:18:33UTC 2022-01-02T09:18:33-10:00 2022-01-02T08:18:33-11:00  21.31304 -157.88873      67   0.0 Hōkūleʻa
  2022-01-02T19:10:21UTC 2022-01-02T09:10:21-10:00 2022-01-02T08:10:21-11:00  21.31325 -157.88858     306   0.0 Hikianalia
  2022-01-02T18:18:24UTC 2022-01-02T08:18:24-10:00 2022-01-02T07:18:24-11:00  21.31299 -157.88883     180   0.0 Hōkūleʻa
  2022-01-02T18:10:17UTC 2022-01-02T08:10:17-10:00 2022-01-02T07:10:17-11:00  21.31321 -157.88851     260   0.0 Hikianalia
  2022-01-02T17:18:32UTC 2022-01-02T07:18:32-10:00 2022-01-02T06:18:32-11:00  21.31303 -157.88883       0   0.0 Hōkūleʻa
  2022-01-02T17:10:09UTC 2022-01-02T07:10:09-10:00 2022-01-02T06:10:09-11:00  21.31322 -157.88845       0   0.0 Hikianalia
  2022-01-02T16:18:37UTC 2022-01-02T06:18:37-10:00 2022-01-02T05:18:37-11:00  21.31300 -157.88883     270   0.0 Hōkūleʻa
  2022-01-02T16:10:46UTC 2022-01-02T06:10:46-10:00 2022-01-02T05:10:46-11:00  21.31320 -157.88845      90   0.0 Hikianalia
  2022-01-02T15:28:07UTC 2022-01-02T05:28:07-10:00 2022-01-02T04:28:07-11:00  21.31300 -157.88881      90   0.0 Hōkūleʻa
  2022-01-02T15:10:16UTC 2022-01-02T05:10:16-10:00 2022-01-02T04:10:16-11:00  21.31320 -157.88864       0   0.0 Hikianalia
  2022-01-02T14:18:32UTC 2022-01-02T04:18:32-10:00 2022-01-02T03:18:32-11:00  21.31300 -157.88883     180   0.0 Hōkūleʻa
  2022-01-02T14:10:15UTC 2022-01-02T04:10:15-10:00 2022-01-02T03:10:15-11:00  21.31320 -157.88864       0   0.0 Hikianalia
  2022-01-02T13:28:36UTC 2022-01-02T03:28:36-10:00 2022-01-02T02:28:36-11:00  21.31303 -157.88883     118   0.0 Hōkūleʻa
  2022-01-02T13:10:15UTC 2022-01-02T03:10:15-10:00 2022-01-02T02:10:15-11:00  21.31320 -157.88864     263   0.0 Hikianalia
  2022-01-02T12:27:45UTC 2022-01-02T02:27:45-10:00 2022-01-02T01:27:45-11:00  21.31322 -157.88845      83   0.0 Hikianalia
  2022-01-02T12:18:24UTC 2022-01-02T02:18:24-10:00 2022-01-02T01:18:24-11:00  21.31305 -157.88888     298   0.0 Hōkūleʻa
  2022-01-02T11:18:30UTC 2022-01-02T01:18:30-10:00 2022-01-02T00:18:30-11:00  21.31302 -157.88881      43   0.0 Hōkūleʻa
  2022-01-02T11:10:09UTC 2022-01-02T01:10:09-10:00 2022-01-02T00:10:09-11:00  21.31320 -157.88864     242   0.0 Hikianalia
  2022-01-02T10:18:44UTC 2022-01-02T00:18:44-10:00 2022-01-01T23:18:44-11:00  21.31299 -157.88883     147   0.0 Hōkūleʻa
  2022-01-02T10:10:09UTC 2022-01-02T00:10:09-10:00 2022-01-01T23:10:09-11:00  21.31325 -157.88853     277   0.0 Hikianalia
  2022-01-02T09:18:38UTC 2022-01-01T23:18:38-10:00 2022-01-01T22:18:38-11:00  21.31303 -157.88886     327   0.0 Hōkūleʻa
  2022-01-02T09:09:16UTC 2022-01-01T23:09:16-10:00 2022-01-01T22:09:16-11:00  21.31324 -157.88845       0   0.0 Hikianalia
  2022-01-02T08:18:30UTC 2022-01-01T22:18:30-10:00 2022-01-01T21:18:30-11:00  21.31299 -157.88883       0   0.0 Hōkūleʻa
  2022-01-02T08:10:41UTC 2022-01-01T22:10:41-10:00 2022-01-01T21:10:41-11:00  21.31323 -157.88845     105   0.0 Hikianalia
  2022-01-02T07:18:33UTC 2022-01-01T21:18:33-10:00 2022-01-01T20:18:33-11:00  21.31299 -157.88883     180   0.0 Hōkūleʻa
  2022-01-02T07:10:06UTC 2022-01-01T21:10:06-10:00 2022-01-01T20:10:06-11:00  21.31324 -157.88849      73   0.0 Hikianalia
  2022-01-02T06:18:47UTC 2022-01-01T20:18:47-10:00 2022-01-01T19:18:47-11:00  21.31303 -157.88883     318   0.0 Hōkūleʻa
  2022-01-02T06:09:09UTC 2022-01-01T20:09:09-10:00 2022-01-01T19:09:09-11:00  21.31320 -157.88864     263   0.0 Hikianalia
  2022-01-02T05:17:29UTC 2022-01-01T19:17:29-10:00 2022-01-01T18:17:29-11:00  21.31300 -157.88881     180   0.0 Hōkūleʻa
  2022-01-02T05:10:41UTC 2022-01-01T19:10:41-10:00 2022-01-01T18:10:41-11:00  21.31322 -157.88847     242   0.0 Hikianalia
  2022-01-02T04:18:25UTC 2022-01-01T18:18:25-10:00 2022-01-01T17:18:25-11:00  21.31303 -157.88881      61   0.0 Hōkūleʻa
  2022-01-02T04:10:47UTC 2022-01-01T18:10:47-10:00 2022-01-01T17:10:47-11:00  21.31323 -157.88845      62   0.0 Hikianalia
  2022-01-02T03:18:30UTC 2022-01-01T17:18:30-10:00 2022-01-01T16:18:30-11:00  21.31302 -157.88883     270   0.0 Hōkūleʻa
  2022-01-02T03:10:13UTC 2022-01-01T17:10:13-10:00 2022-01-01T16:10:13-11:00  21.31322 -157.88847     180   0.0 Hikianalia
  2022-01-02T02:18:48UTC 2022-01-01T16:18:48-10:00 2022-01-01T15:18:48-11:00  21.31302 -157.88881     212   0.0 Hōkūleʻa
  2022-01-02T02:10:43UTC 2022-01-01T16:10:43-10:00 2022-01-01T15:10:43-11:00  21.31323 -157.88847     146   0.0 Hikianalia
  2022-01-02T01:17:28UTC 2022-01-01T15:17:28-10:00 2022-01-01T14:17:28-11:00  21.31305 -157.88879     132   0.0 Hōkūleʻa
  2022-01-02T01:10:15UTC 2022-01-01T15:10:15-10:00 2022-01-01T14:10:15-11:00  21.31335 -157.88856     299   0.0 Hikianalia
  2022-01-02T00:18:25UTC 2022-01-01T14:18:25-10:00 2022-01-01T13:18:25-11:00  21.31310 -157.88886     323   0.0 Hōkūleʻa
  2022-01-02T00:10:44UTC 2022-01-01T14:10:44-10:00 2022-01-01T13:10:44-11:00  21.31333 -157.88851      43   0.0 Hikianalia
  2022-01-01T23:18:27UTC 2022-01-01T13:18:27-10:00 2022-01-01T12:18:27-11:00  21.31305 -157.88881       0   0.0 Hōkūleʻa
  2022-01-01T23:09:42UTC 2022-01-01T13:09:42-10:00 2022-01-01T12:09:42-11:00  21.31320 -157.88864       0   0.0 Hikianalia
  2022-01-01T22:18:49UTC 2022-01-01T12:18:49-10:00 2022-01-01T11:18:49-11:00  21.31305 -157.88881     155   0.0 Hōkūleʻa
  2022-01-01T22:10:15UTC 2022-01-01T12:10:15-10:00 2022-01-01T11:10:15-11:00  21.31320 -157.88864       0   0.0 Hikianalia
  2022-01-01T21:18:31UTC 2022-01-01T11:18:31-10:00 2022-01-01T10:18:31-11:00  21.31309 -157.88883      64   0.0 Hōkūleʻa
  2022-01-01T21:10:18UTC 2022-01-01T11:10:18-10:00 2022-01-01T10:10:18-11:00  21.31320 -157.88864     246   0.0 Hikianalia
  2022-01-01T20:18:23UTC 2022-01-01T10:18:23-10:00 2022-01-01T09:18:23-11:00  21.31308 -157.88886     334   0.0 Hōkūleʻa
  2022-01-01T20:09:45UTC 2022-01-01T10:09:45-10:00 2022-01-01T09:09:45-11:00  21.31326 -157.88849      90   0.0 Hikianalia
  2022-01-01T19:19:04UTC 2022-01-01T09:19:04-10:00 2022-01-01T08:19:04-11:00  21.31304 -157.88883       0   0.0 Hōkūleʻa
  2022-01-01T19:10:21UTC 2022-01-01T09:10:21-10:00 2022-01-01T08:10:21-11:00  21.31326 -157.88860      32   0.0 Hikianalia
  2022-01-01T18:18:48UTC 2022-01-01T08:18:48-10:00 2022-01-01T07:18:48-11:00  21.31302 -157.88883     180   0.0 Hōkūleʻa
  2022-01-01T18:10:17UTC 2022-01-01T08:10:17-10:00 2022-01-01T07:10:17-11:00  21.31320 -157.88864     255   0.0 Hikianalia
  2022-01-01T17:18:30UTC 2022-01-01T07:18:30-10:00 2022-01-01T06:18:30-11:00  21.31303 -157.88883       0   0.0 Hōkūleʻa
  2022-01-01T17:10:34UTC 2022-01-01T07:10:34-10:00 2022-01-01T06:10:34-11:00  21.31324 -157.88847      75   0.0 Hikianalia
  2022-01-01T16:25:20UTC 2022-01-01T06:25:20-10:00 2022-01-01T05:25:20-11:00  21.31302 -157.88883       0   0.0 Hōkūleʻa
  2022-01-01T16:10:16UTC 2022-01-01T06:10:16-10:00 2022-01-01T05:10:16-11:00  21.31320 -157.88864     238   0.0 Hikianalia
  2022-01-01T15:18:32UTC 2022-01-01T05:18:32-10:00 2022-01-01T04:18:32-11:00  21.31300 -157.88883     180   0.0 Hōkūleʻa
  2022-01-01T15:09:09UTC 2022-01-01T05:09:09-10:00 2022-01-01T04:09:09-11:00  21.31327 -157.88851     298   0.0 Hikianalia
  2022-01-01T14:18:47UTC 2022-01-01T04:18:47-10:00 2022-01-01T03:18:47-11:00  21.31302 -157.88883       0   0.0 Hōkūleʻa
  2022-01-01T14:10:35UTC 2022-01-01T04:10:35-10:00 2022-01-01T03:10:35-11:00  21.31324 -157.88845      77   0.0 Hikianalia
  2022-01-01T13:18:38UTC 2022-01-01T03:18:38-10:00 2022-01-01T02:18:38-11:00  21.31300 -157.88883     241   0.0 Hōkūleʻa
  2022-01-01T13:10:14UTC 2022-01-01T03:10:14-10:00 2022-01-01T02:10:14-11:00  21.31320 -157.88864     257   0.0 Hikianalia
  2022-01-01T12:18:24UTC 2022-01-01T02:18:24-10:00 2022-01-01T01:18:24-11:00  21.31302 -157.88881       0   0.0 Hōkūleʻa
  2022-01-01T12:10:09UTC 2022-01-01T02:10:09-10:00 2022-01-01T01:10:09-11:00  21.31324 -157.88845       0   0.0 Hikianalia
  2022-01-01T11:18:29UTC 2022-01-01T01:18:29-10:00 2022-01-01T00:18:29-11:00  21.31302 -157.88881       0   0.0 Hōkūleʻa
  2022-01-01T11:10:40UTC 2022-01-01T01:10:40-10:00 2022-01-01T00:10:40-11:00  21.31324 -157.88845       0   0.0 Hikianalia
  2022-01-01T10:18:49UTC 2022-01-01T00:18:49-10:00 2021-12-31T23:18:49-11:00  21.31302 -157.88881      90   0.0 Hōkūleʻa
  2022-01-01T10:10:12UTC 2022-01-01T00:10:12-10:00 2021-12-31T23:10:12-11:00  21.31320 -157.88845     143   0.0 Hikianalia
  2022-01-01T09:18:35UTC 2021-12-31T23:18:35-10:00 2021-12-31T22:18:35-11:00  21.31302 -157.88883     180   0.0 Hōkūleʻa
  2022-01-01T09:09:23UTC 2021-12-31T23:09:23-10:00 2021-12-31T22:09:23-11:00  21.31325 -157.88849     298   0.0 Hikianalia
  2022-01-01T08:18:25UTC 2021-12-31T22:18:25-10:00 2021-12-31T21:18:25-11:00  21.31304 -157.88883       0   0.0 Hōkūleʻa
  2022-01-01T08:10:36UTC 2021-12-31T22:10:36-10:00 2021-12-31T21:10:36-11:00  21.31323 -157.88845      62   0.0 Hikianalia
  2022-01-01T07:18:24UTC 2021-12-31T21:18:24-10:00 2021-12-31T20:18:24-11:00  21.31304 -157.88883       0   0.0 Hōkūleʻa
  2022-01-01T07:17:26UTC 2021-12-31T21:17:26-10:00 2021-12-31T20:17:26-11:00  21.31322 -157.88847     327   0.0 Hikianalia
  2022-01-01T06:18:48UTC 2021-12-31T20:18:48-10:00 2021-12-31T19:18:48-11:00  21.31303 -157.88883      90   0.0 Hōkūleʻa
  2022-01-01T06:10:06UTC 2021-12-31T20:10:06-10:00 2021-12-31T19:10:06-11:00  21.31319 -157.88845     180   0.0 Hikianalia
  2022-01-01T05:18:37UTC 2021-12-31T19:18:37-10:00 2021-12-31T18:18:37-11:00  21.31303 -157.88888     262   0.0 Hōkūleʻa
  2022-01-01T05:10:17UTC 2021-12-31T19:10:17-10:00 2021-12-31T18:10:17-11:00  21.31324 -157.88845       0   0.0 Hikianalia
  2022-01-01T04:18:32UTC 2021-12-31T18:18:32-10:00 2021-12-31T17:18:32-11:00  21.31304 -157.88879      61   0.0 Hōkūleʻa
  2022-01-01T04:10:48UTC 2021-12-31T18:10:48-10:00 2021-12-31T17:10:48-11:00  21.31324 -157.88845      90   0.0 Hikianalia
  2022-01-01T03:18:30UTC 2021-12-31T17:18:30-10:00 2021-12-31T16:18:30-11:00  21.31302 -157.88883     180   0.0 Hōkūleʻa
  2022-01-01T03:10:10UTC 2021-12-31T17:10:10-10:00 2021-12-31T16:10:10-11:00  21.31324 -157.88851     334   0.0 Hikianalia
  2022-01-01T02:17:45UTC 2021-12-31T16:17:45-10:00 2021-12-31T15:17:45-11:00  21.31303 -157.88883     231   0.0 Hōkūleʻa
  2022-01-01T02:09:17UTC 2021-12-31T16:09:17-10:00 2021-12-31T15:09:17-11:00  21.31320 -157.88849     189   0.0 Hikianalia
  2022-01-01T01:18:26UTC 2021-12-31T15:18:26-10:00 2021-12-31T14:18:26-11:00  21.31306 -157.88879     134   0.0 Hōkūleʻa
  2022-01-01T01:10:06UTC 2021-12-31T15:10:06-10:00 2021-12-31T14:10:06-11:00  21.31332 -157.88847     328   0.0 Hikianalia
  2022-01-01T00:18:33UTC 2021-12-31T14:18:33-10:00 2021-12-31T13:18:33-11:00  21.31315 -157.88890     331   0.0 Hōkūleʻa
  2022-01-01T00:10:44UTC 2021-12-31T14:10:44-10:00 2021-12-31T13:10:44-11:00  21.31328 -157.88845      15   0.0 Hikianalia
  2021-12-31T23:29:29UTC 2021-12-31T13:29:29-10:00 2021-12-31T12:29:29-11:00  21.31305 -157.88883     241   0.0 Hōkūleʻa
  2021-12-31T23:09:16UTC 2021-12-31T13:09:16-10:00 2021-12-31T12:09:16-11:00  21.31321 -157.88847      86   0.0 Hikianalia
  2021-12-31T22:17:40UTC 2021-12-31T12:17:40-10:00 2021-12-31T11:17:40-11:00  21.31306 -157.88881     148   0.0 Hōkūleʻa
  2021-12-31T22:17:35UTC 2021-12-31T12:17:35-10:00 2021-12-31T11:17:35-11:00  21.31320 -157.88864     223   0.0 Hikianalia
  2021-12-31T21:17:29UTC 2021-12-31T11:17:29-10:00 2021-12-31T10:17:29-11:00  21.31312 -157.88886     348   0.0 Hōkūleʻa
  2021-12-31T21:10:17UTC 2021-12-31T11:10:17-10:00 2021-12-31T10:10:17-11:00  21.31333 -157.88851     345   0.0 Hikianalia
  2021-12-31T20:18:23UTC 2021-12-31T10:18:23-10:00 2021-12-31T09:18:23-11:00  21.31303 -157.88883     270   0.0 Hōkūleʻa
  2021-12-31T20:17:00UTC 2021-12-31T10:17:00-10:00 2021-12-31T09:17:00-11:00  21.31325 -157.88849     340   0.0 Hikianalia
  2021-12-31T19:18:31UTC 2021-12-31T09:18:31-10:00 2021-12-31T08:18:31-11:00  21.31303 -157.88881      61   0.0 Hōkūleʻa
  2021-12-31T19:10:06UTC 2021-12-31T09:10:06-10:00 2021-12-31T08:10:06-11:00  21.31320 -157.88847     180   0.0 Hikianalia
  2021-12-31T18:26:34UTC 2021-12-31T08:26:34-10:00 2021-12-31T07:26:34-11:00  21.31302 -157.88883       0   0.0 Hōkūleʻa
  2021-12-31T18:10:44UTC 2021-12-31T08:10:44-10:00 2021-12-31T07:10:44-11:00  21.31323 -157.88847      61   0.0 Hikianalia
  2021-12-31T17:18:30UTC 2021-12-31T07:18:30-10:00 2021-12-31T06:18:30-11:00  21.31300 -157.88883       0   0.0 Hōkūleʻa
  2021-12-31T17:17:44UTC 2021-12-31T07:17:44-10:00 2021-12-31T06:17:44-11:00  21.31322 -157.88849     180   0.0 Hikianalia
  2021-12-31T16:19:33UTC 2021-12-31T06:19:33-10:00 2021-12-31T05:19:33-11:00  21.31299 -157.88883     180   0.0 Hōkūleʻa
  2021-12-31T16:10:14UTC 2021-12-31T06:10:14-10:00 2021-12-31T05:10:14-11:00  21.31324 -157.88849     318   0.0 Hikianalia
  2021-12-31T15:17:54UTC 2021-12-31T05:17:54-10:00 2021-12-31T04:17:54-11:00  21.31303 -157.88883       0   0.0 Hōkūleʻa
  2021-12-31T15:10:17UTC 2021-12-31T05:10:17-10:00 2021-12-31T04:10:17-11:00  21.31322 -157.88847     270   0.0 Hikianalia
  2021-12-31T14:27:05UTC 2021-12-31T04:27:05-10:00 2021-12-31T03:27:05-11:00  21.31300 -157.88883     180   0.0 Hōkūleʻa
  2021-12-31T14:10:49UTC 2021-12-31T04:10:49-10:00 2021-12-31T03:10:49-11:00  21.31322 -157.88845     110   0.0 Hikianalia
  2021-12-31T13:18:34UTC 2021-12-31T03:18:34-10:00 2021-12-31T02:18:34-11:00  21.31303 -157.88883       0   0.0 Hōkūleʻa
  2021-12-31T13:10:39UTC 2021-12-31T03:10:39-10:00 2021-12-31T02:10:39-11:00  21.31324 -157.88851      70   0.0 Hikianalia
  2021-12-31T12:18:22UTC 2021-12-31T02:18:22-10:00 2021-12-31T01:18:22-11:00  21.31303 -157.88883     270   0.0 Hōkūleʻa
  2021-12-31T12:10:18UTC 2021-12-31T02:10:18-10:00 2021-12-31T01:10:18-11:00  21.31320 -157.88864     263   0.0 Hikianalia
  2021-12-31T11:17:30UTC 2021-12-31T01:17:30-10:00 2021-12-31T00:17:30-11:00  21.31303 -157.88881      61   0.0 Hōkūleʻa
  2021-12-31T11:10:17UTC 2021-12-31T01:10:17-10:00 2021-12-31T00:10:17-11:00  21.31322 -157.88845     180   0.0 Hikianalia
  2021-12-31T10:19:53UTC 2021-12-31T00:19:53-10:00 2021-12-30T23:19:53-11:00  21.31323 -157.88845      81   0.0 Hikianalia
  2021-12-31T10:18:37UTC 2021-12-31T00:18:37-10:00 2021-12-30T23:18:37-11:00  21.31302 -157.88883     100   0.0 Hōkūleʻa
  2021-12-31T09:18:30UTC 2021-12-30T23:18:30-10:00 2021-12-30T22:18:30-11:00  21.31303 -157.88890     334   0.0 Hōkūleʻa
  2021-12-31T09:10:10UTC 2021-12-30T23:10:10-10:00 2021-12-30T22:10:10-11:00  21.31320 -157.88866     258   0.0 Hikianalia
  2021-12-31T08:18:30UTC 2021-12-30T22:18:30-10:00 2021-12-30T21:18:30-11:00  21.31298 -157.88888     242   0.0 Hōkūleʻa
  2021-12-31T08:10:09UTC 2021-12-30T22:10:09-10:00 2021-12-30T21:10:09-11:00  21.31324 -157.88845       0   0.0 Hikianalia
  2021-12-31T07:18:33UTC 2021-12-30T21:18:33-10:00 2021-12-30T20:18:33-11:00  21.31302 -157.88881      90   0.0 Hōkūleʻa
  2021-12-31T07:10:15UTC 2021-12-30T21:10:15-10:00 2021-12-30T20:10:15-11:00  21.31324 -157.88845       0   0.0 Hikianalia
  2021-12-31T06:18:50UTC 2021-12-30T20:18:50-10:00 2021-12-30T19:18:50-11:00  21.31302 -157.88883       0   0.0 Hōkūleʻa
  2021-12-31T06:09:46UTC 2021-12-30T20:09:46-10:00 2021-12-30T19:09:46-11:00  21.31323 -157.88845      81   0.0 Hikianalia
  2021-12-31T05:18:37UTC 2021-12-30T19:18:37-10:00 2021-12-30T18:18:37-11:00  21.31300 -157.88883     211   0.0 Hōkūleʻa
  2021-12-31T05:10:09UTC 2021-12-30T19:10:09-10:00 2021-12-30T18:10:09-11:00  21.31320 -157.88866     255   0.0 Hikianalia
  2021-12-31T04:17:24UTC 2021-12-30T18:17:24-10:00 2021-12-30T17:17:24-11:00  21.31304 -157.88881       0   0.0 Hōkūleʻa
  2021-12-31T04:10:15UTC 2021-12-30T18:10:15-10:00 2021-12-30T17:10:15-11:00  21.31324 -157.88849     285   0.0 Hikianalia
  2021-12-31T03:18:24UTC 2021-12-30T17:18:24-10:00 2021-12-30T16:18:24-11:00  21.31302 -157.88881     119   0.0 Hōkūleʻa
  2021-12-31T03:10:45UTC 2021-12-30T17:10:45-10:00 2021-12-30T16:10:45-11:00  21.31323 -157.88845      81   0.0 Hikianalia
  2021-12-31T02:21:05UTC 2021-12-30T16:21:05-10:00 2021-12-30T15:21:05-11:00  21.31320 -157.88866       0   0.0 Hikianalia
  2021-12-31T02:18:47UTC 2021-12-30T16:18:47-10:00 2021-12-30T15:18:47-11:00  21.31303 -157.88883     205   0.0 Hōkūleʻa
  2021-12-31T01:18:42UTC 2021-12-30T15:18:42-10:00 2021-12-30T14:18:42-11:00  21.31307 -157.88881     124   0.0 Hōkūleʻa
  2021-12-31T01:18:18UTC 2021-12-30T15:18:18-10:00 2021-12-30T14:18:18-11:00  21.31320 -157.88866     247   0.0 Hikianalia
  2021-12-31T00:18:38UTC 2021-12-30T14:18:38-10:00 2021-12-30T13:18:38-11:00  21.31312 -157.88890     312   0.0 Hōkūleʻa
  2021-12-31T00:09:37UTC 2021-12-30T14:09:37-10:00 2021-12-30T13:09:37-11:00  21.31327 -157.88847      67   0.0 Hikianalia
  2021-12-30T23:18:30UTC 2021-12-30T13:18:30-10:00 2021-12-30T12:18:30-11:00  21.31307 -157.88883       0   0.0 Hōkūleʻa
  2021-12-30T23:10:09UTC 2021-12-30T13:10:09-10:00 2021-12-30T12:10:09-11:00  21.31320 -157.88866       0   0.0 Hikianalia
  2021-12-30T22:17:41UTC 2021-12-30T12:17:41-10:00 2021-12-30T11:17:41-11:00  21.31307 -157.88883       0   0.0 Hōkūleʻa
  2021-12-30T22:09:15UTC 2021-12-30T12:09:15-10:00 2021-12-30T11:09:15-11:00  21.31320 -157.88866       0   0.0 Hikianalia
  2021-12-30T21:18:32UTC 2021-12-30T11:18:32-10:00 2021-12-30T10:18:32-11:00  21.31306 -157.88883      44   0.0 Hōkūleʻa
  2021-12-30T21:10:10UTC 2021-12-30T11:10:10-10:00 2021-12-30T10:10:10-11:00  21.31320 -157.88866     251   0.0 Hikianalia
  2021-12-30T20:17:29UTC 2021-12-30T10:17:29-10:00 2021-12-30T09:17:29-11:00  21.31304 -157.88886     298   0.0 Hōkūleʻa
  2021-12-30T20:09:49UTC 2021-12-30T10:09:49-10:00 2021-12-30T09:09:49-11:00  21.31326 -157.88847      71   0.0 Hikianalia
  2021-12-30T19:18:24UTC 2021-12-30T09:18:24-10:00 2021-12-30T08:18:24-11:00  21.31303 -157.88883       0   0.0 Hōkūleʻa
  2021-12-30T19:10:11UTC 2021-12-30T09:10:11-10:00 2021-12-30T08:10:11-11:00  21.31320 -157.88866     258   0.0 Hikianalia
  2021-12-30T18:18:41UTC 2021-12-30T08:18:41-10:00 2021-12-30T07:18:41-11:00  21.31302 -157.88883     241   0.0 Hōkūleʻa
  2021-12-30T18:10:17UTC 2021-12-30T08:10:17-10:00 2021-12-30T07:10:17-11:00  21.31324 -157.88845      90   0.0 Hikianalia
  2021-12-30T17:18:36UTC 2021-12-30T07:18:36-10:00 2021-12-30T06:18:36-11:00  21.31303 -157.88881      42   0.0 Hōkūleʻa
  2021-12-30T17:10:15UTC 2021-12-30T07:10:15-10:00 2021-12-30T06:10:15-11:00  21.31324 -157.88853     280   0.0 Hikianalia
  2021-12-30T16:18:32UTC 2021-12-30T06:18:32-10:00 2021-12-30T05:18:32-11:00  21.31300 -157.88883     180   0.0 Hōkūleʻa
  2021-12-30T16:10:48UTC 2021-12-30T06:10:48-10:00 2021-12-30T05:10:48-11:00  21.31323 -157.88847      75   0.0 Hikianalia
  2021-12-30T15:18:24UTC 2021-12-30T05:18:24-10:00 2021-12-30T04:18:24-11:00  21.31304 -157.88883       0   0.0 Hōkūleʻa
  2021-12-30T15:10:09UTC 2021-12-30T05:10:09-10:00 2021-12-30T04:10:09-11:00  21.31322 -157.88851      82   0.0 Hikianalia
  2021-12-30T14:18:45UTC 2021-12-30T04:18:45-10:00 2021-12-30T03:18:45-11:00  21.31303 -157.88883     180   0.0 Hōkūleʻa
  2021-12-30T14:10:15UTC 2021-12-30T04:10:15-10:00 2021-12-30T03:10:15-11:00  21.31320 -157.88866       0   0.0 Hikianalia
  2021-12-30T13:27:38UTC 2021-12-30T03:27:38-10:00 2021-12-30T02:27:38-11:00  21.31304 -157.88883       0   0.0 Hōkūleʻa
  2021-12-30T13:10:47UTC 2021-12-30T03:10:47-10:00 2021-12-30T02:10:47-11:00  21.31320 -157.88866     266   0.0 Hikianalia
  2021-12-30T12:18:33UTC 2021-12-30T02:18:33-10:00 2021-12-30T01:18:33-11:00  21.31302 -157.88883       0   0.0 Hōkūleʻa
  2021-12-30T12:10:17UTC 2021-12-30T02:10:17-10:00 2021-12-30T01:10:17-11:00  21.31321 -157.88851     260   0.0 Hikianalia
  2021-12-30T11:18:30UTC 2021-12-30T01:18:30-10:00 2021-12-30T00:18:30-11:00  21.31302 -157.88883       0   0.0 Hōkūleʻa
  2021-12-30T11:10:09UTC 2021-12-30T01:10:09-10:00 2021-12-30T00:10:09-11:00  21.31322 -157.88845     180   0.0 Hikianalia
  2021-12-30T10:18:46UTC 2021-12-30T00:18:46-10:00 2021-12-29T23:18:46-11:00  21.31302 -157.88883       0   0.0 Hōkūleʻa
  2021-12-30T10:10:47UTC 2021-12-30T00:10:47-10:00 2021-12-29T23:10:47-11:00  21.31324 -157.88845     118   0.0 Hikianalia
  2021-12-30T09:18:30UTC 2021-12-29T23:18:30-10:00 2021-12-29T22:18:30-11:00  21.31302 -157.88883     299   0.0 Hōkūleʻa
  2021-12-30T09:10:17UTC 2021-12-29T23:10:17-10:00 2021-12-29T22:10:17-11:00  21.31327 -157.88851     298   0.0 Hikianalia
  2021-12-30T08:18:32UTC 2021-12-29T22:18:32-10:00 2021-12-29T21:18:32-11:00  21.31300 -157.88881      90   0.0 Hōkūleʻa
  2021-12-30T08:10:47UTC 2021-12-29T22:10:47-10:00 2021-12-29T21:10:47-11:00  21.31324 -157.88845      78   0.0 Hikianalia
  2021-12-30T07:18:24UTC 2021-12-29T21:18:24-10:00 2021-12-29T20:18:24-11:00  21.31300 -157.88883     241   0.0 Hōkūleʻa
  2021-12-30T07:10:47UTC 2021-12-29T21:10:47-10:00 2021-12-29T20:10:47-11:00  21.31320 -157.88866     260   0.0 Hikianalia
  2021-12-30T06:17:47UTC 2021-12-29T20:17:47-10:00 2021-12-29T19:17:47-11:00  21.31302 -157.88881      90   0.0 Hōkūleʻa
  2021-12-30T06:10:13UTC 2021-12-29T20:10:13-10:00 2021-12-29T19:10:13-11:00  21.31323 -157.88847     128   0.0 Hikianalia
  2021-12-30T05:18:30UTC 2021-12-29T19:18:30-10:00 2021-12-29T18:18:30-11:00  21.31302 -157.88883     180   0.0 Hōkūleʻa
  2021-12-30T05:10:09UTC 2021-12-29T19:10:09-10:00 2021-12-29T18:10:09-11:00  21.31326 -157.88851     316   0.0 Hikianalia
  2021-12-30T04:18:29UTC 2021-12-29T18:18:29-10:00 2021-12-29T17:18:29-11:00  21.31303 -157.88883       0   0.0 Hōkūleʻa
  2021-12-30T04:10:58UTC 2021-12-29T18:10:58-10:00 2021-12-29T17:10:58-11:00  21.31324 -157.88849     285   0.0 Hikianalia
  2021-12-30T03:18:33UTC 2021-12-29T17:18:33-10:00 2021-12-29T16:18:33-11:00  21.31302 -157.88883     180   0.0 Hōkūleʻa
  2021-12-30T03:10:17UTC 2021-12-29T17:10:17-10:00 2021-12-29T16:10:17-11:00  21.31323 -157.88845     136   0.0 Hikianalia
  2021-12-30T02:18:47UTC 2021-12-29T16:18:47-10:00 2021-12-29T15:18:47-11:00  21.31304 -157.88883       0   0.0 Hōkūleʻa
  2021-12-30T02:10:16UTC 2021-12-29T16:10:16-10:00 2021-12-29T15:10:16-11:00  21.31325 -157.88847     180   0.0 Hikianalia
  2021-12-30T01:17:34UTC 2021-12-29T15:17:34-10:00 2021-12-29T14:17:34-11:00  21.31303 -157.88883     180   0.0 Hōkūleʻa
  2021-12-30T01:10:06UTC 2021-12-29T15:10:06-10:00 2021-12-29T14:10:06-11:00  21.31327 -157.88847       0   0.0 Hikianalia
  2021-12-30T00:23:40UTC 2021-12-29T14:23:40-10:00 2021-12-29T13:23:40-11:00  21.31304 -157.88883       0   0.0 Hōkūleʻa
  2021-12-30T00:09:46UTC 2021-12-29T14:09:46-10:00 2021-12-29T13:09:46-11:00  21.31325 -157.88847     148   0.0 Hikianalia
  2021-12-29T23:18:21UTC 2021-12-29T13:18:21-10:00 2021-12-29T12:18:21-11:00  21.31304 -157.88883     180   0.0 Hōkūleʻa
  2021-12-29T23:09:08UTC 2021-12-29T13:09:08-10:00 2021-12-29T12:09:08-11:00  21.31332 -157.88851     342   0.0 Hikianalia
  2021-12-29T22:19:50UTC 2021-12-29T12:19:50-10:00 2021-12-29T11:19:50-11:00  21.31325 -157.88849      72   0.0 Hikianalia
  2021-12-29T22:18:47UTC 2021-12-29T12:18:47-10:00 2021-12-29T11:18:47-11:00  21.31305 -157.88883     154   0.0 Hōkūleʻa
  2021-12-29T21:17:38UTC 2021-12-29T11:17:38-10:00 2021-12-29T10:17:38-11:00  21.31309 -157.88886     345   0.0 Hōkūleʻa
  2021-12-29T21:10:05UTC 2021-12-29T11:10:05-10:00 2021-12-29T10:10:05-11:00  21.31320 -157.88866     254   0.0 Hikianalia
  2021-12-29T20:18:29UTC 2021-12-29T10:18:29-10:00 2021-12-29T09:18:29-11:00  21.31302 -157.88883     180   0.0 Hōkūleʻa
  2021-12-29T20:09:37UTC 2021-12-29T10:09:37-10:00 2021-12-29T09:09:37-11:00  21.31325 -157.88847      74   0.0 Hikianalia
  2021-12-29T19:18:32UTC 2021-12-29T09:18:32-10:00 2021-12-29T08:18:32-11:00  21.31303 -157.88883       0   0.0 Hōkūleʻa
  2021-12-29T19:10:14UTC 2021-12-29T09:10:14-10:00 2021-12-29T08:10:14-11:00  21.31320 -157.88866     270   0.0 Hikianalia
  2021-12-29T18:17:39UTC 2021-12-29T08:17:39-10:00 2021-12-29T07:17:39-11:00  21.31302 -157.88883       0   0.0 Hōkūleʻa
  2021-12-29T18:10:18UTC 2021-12-29T08:10:18-10:00 2021-12-29T07:10:18-11:00  21.31320 -157.88853      90   0.0 Hikianalia
  2021-12-29T17:18:22UTC 2021-12-29T07:18:22-10:00 2021-12-29T06:18:22-11:00  21.31300 -157.88883     118   0.0 Hōkūleʻa
  2021-12-29T17:10:08UTC 2021-12-29T07:10:08-10:00 2021-12-29T06:10:08-11:00  21.31320 -157.88866     259   0.0 Hikianalia
  2021-12-29T16:18:33UTC 2021-12-29T06:18:33-10:00 2021-12-29T05:18:33-11:00  21.31302 -157.88886     270   0.0 Hōkūleʻa
  2021-12-29T16:10:38UTC 2021-12-29T06:10:38-10:00 2021-12-29T05:10:38-11:00  21.31323 -157.88849      79   0.0 Hikianalia
  2021-12-29T15:18:24UTC 2021-12-29T05:18:24-10:00 2021-12-29T04:18:24-11:00  21.31302 -157.88883       0   0.0 Hōkūleʻa
  2021-12-29T15:10:19UTC 2021-12-29T05:10:19-10:00 2021-12-29T04:10:19-11:00  21.31320 -157.88866     257   0.0 Hikianalia
  2021-12-29T14:18:47UTC 2021-12-29T04:18:47-10:00 2021-12-29T03:18:47-11:00  21.31302 -157.88883     125   0.0 Hōkūleʻa
  2021-12-29T14:10:44UTC 2021-12-29T04:10:44-10:00 2021-12-29T03:10:44-11:00  21.31323 -157.88851     255   0.0 Hikianalia
  2021-12-29T13:18:27UTC 2021-12-29T03:18:27-10:00 2021-12-29T02:18:27-11:00  21.31306 -157.88890     298   0.0 Hōkūleʻa
  2021-12-29T13:09:39UTC 2021-12-29T03:09:39-10:00 2021-12-29T02:09:39-11:00  21.31324 -157.88847      77   0.0 Hikianalia
  2021-12-29T12:18:24UTC 2021-12-29T02:18:24-10:00 2021-12-29T01:18:24-11:00  21.31303 -157.88883     180   0.0 Hōkūleʻa
  2021-12-29T12:10:09UTC 2021-12-29T02:10:09-10:00 2021-12-29T01:10:09-11:00  21.31320 -157.88866     264   0.0 Hikianalia
  2021-12-29T11:18:29UTC 2021-12-29T01:18:29-10:00 2021-12-29T00:18:29-11:00  21.31304 -157.88883       0   0.0 Hōkūleʻa
  2021-12-29T11:09:09UTC 2021-12-29T01:09:09-10:00 2021-12-29T00:09:09-11:00  21.31322 -157.88845      90   0.0 Hikianalia
  2021-12-29T10:18:42UTC 2021-12-29T00:18:42-10:00 2021-12-28T23:18:42-11:00  21.31302 -157.88883     299   0.0 Hōkūleʻa
  2021-12-29T10:10:40UTC 2021-12-29T00:10:40-10:00 2021-12-28T23:10:40-11:00  21.31322 -157.88847      90   0.0 Hikianalia
  2021-12-29T09:18:37UTC 2021-12-28T23:18:37-10:00 2021-12-28T22:18:37-11:00  21.31300 -157.88881     119   0.0 Hōkūleʻa
  2021-12-29T09:10:12UTC 2021-12-28T23:10:12-10:00 2021-12-28T22:10:12-11:00  21.31322 -157.88849     270   0.0 Hikianalia
  2021-12-29T08:17:29UTC 2021-12-28T22:17:29-10:00 2021-12-28T21:17:29-11:00  21.31302 -157.88883     299   0.0 Hōkūleʻa
  2021-12-29T08:10:09UTC 2021-12-28T22:10:09-10:00 2021-12-28T21:10:09-11:00  21.31322 -157.88847     242   0.0 Hikianalia
  2021-12-29T07:18:24UTC 2021-12-28T21:18:24-10:00 2021-12-28T20:18:24-11:00  21.31300 -157.88881     119   0.0 Hōkūleʻa
  2021-12-29T07:09:39UTC 2021-12-28T21:09:39-10:00 2021-12-28T20:09:39-11:00  21.31323 -157.88845       0   0.0 Hikianalia
  2021-12-29T06:18:48UTC 2021-12-28T20:18:48-10:00 2021-12-28T19:18:48-11:00  21.31302 -157.88883     254   0.0 Hōkūleʻa
  2021-12-29T06:10:10UTC 2021-12-28T20:10:10-10:00 2021-12-28T19:10:10-11:00  21.31322 -157.88845      84   0.0 Hikianalia
  2021-12-29T05:18:34UTC 2021-12-28T19:18:34-10:00 2021-12-28T18:18:34-11:00  21.31303 -157.88879       0   0.0 Hōkūleʻa
  2021-12-29T05:10:14UTC 2021-12-28T19:10:14-10:00 2021-12-28T18:10:14-11:00  21.31320 -157.88866     254   0.0 Hikianalia
  2021-12-29T04:18:31UTC 2021-12-28T18:18:31-10:00 2021-12-28T17:18:31-11:00  21.31302 -157.88879      74   0.0 Hōkūleʻa
  2021-12-29T04:10:48UTC 2021-12-28T18:10:48-10:00 2021-12-28T17:10:48-11:00  21.31325 -157.88847      83   0.0 Hikianalia
  2021-12-29T03:18:32UTC 2021-12-28T17:18:32-10:00 2021-12-28T16:18:32-11:00  21.31300 -157.88883     270   0.0 Hōkūleʻa
  2021-12-29T03:10:11UTC 2021-12-28T17:10:11-10:00 2021-12-28T16:10:11-11:00  21.31324 -157.88856      67   0.0 Hikianalia
  2021-12-29T02:18:38UTC 2021-12-28T16:18:38-10:00 2021-12-28T15:18:38-11:00  21.31300 -157.88881     167   0.0 Hōkūleʻa
  2021-12-29T02:09:17UTC 2021-12-28T16:09:17-10:00 2021-12-28T15:09:17-11:00  21.31320 -157.88866       0   0.0 Hikianalia
  2021-12-29T01:24:54UTC 2021-12-28T15:24:54-10:00 2021-12-28T14:24:54-11:00  21.31309 -157.88883     347   0.0 Hōkūleʻa
  2021-12-29T01:10:06UTC 2021-12-28T15:10:06-10:00 2021-12-28T14:10:06-11:00  21.31320 -157.88866       0   0.0 Hikianalia
  2021-12-29T00:25:45UTC 2021-12-28T14:25:45-10:00 2021-12-28T13:25:45-11:00  21.31300 -157.88881     149   0.0 Hōkūleʻa
  2021-12-29T00:10:46UTC 2021-12-28T14:10:46-10:00 2021-12-28T13:10:46-11:00  21.31320 -157.88866       0   0.0 Hikianalia
  2021-12-28T23:18:30UTC 2021-12-28T13:18:30-10:00 2021-12-28T12:18:30-11:00  21.31304 -157.88883     180   0.0 Hōkūleʻa
  2021-12-28T23:09:17UTC 2021-12-28T13:09:17-10:00 2021-12-28T12:09:17-11:00  21.31320 -157.88866     251   0.0 Hikianalia
  2021-12-28T22:17:41UTC 2021-12-28T12:17:41-10:00 2021-12-28T11:17:41-11:00  21.31305 -157.88883     343   0.0 Hōkūleʻa
  2021-12-28T22:09:38UTC 2021-12-28T12:09:38-10:00 2021-12-28T11:09:38-11:00  21.31326 -157.88847     143   0.0 Hikianalia
  2021-12-28T21:17:25UTC 2021-12-28T11:17:25-10:00 2021-12-28T10:17:25-11:00  21.31298 -157.88881     148   0.0 Hōkūleʻa
  2021-12-28T21:10:13UTC 2021-12-28T11:10:13-10:00 2021-12-28T10:10:13-11:00  21.31332 -157.88851     321   0.0 Hikianalia
  2021-12-28T20:18:24UTC 2021-12-28T10:18:24-10:00 2021-12-28T09:18:24-11:00  21.31305 -157.88886     327   0.0 Hōkūleʻa
  2021-12-28T20:17:57UTC 2021-12-28T10:17:57-10:00 2021-12-28T09:17:57-11:00  21.31324 -157.88845     180   0.0 Hikianalia
  2021-12-28T19:18:24UTC 2021-12-28T09:18:24-10:00 2021-12-28T08:18:24-11:00  21.31302 -157.88883       0   0.0 Hōkūleʻa
  2021-12-28T19:10:06UTC 2021-12-28T09:10:06-10:00 2021-12-28T08:10:06-11:00  21.31326 -157.88845      62   0.0 Hikianalia
  2021-12-28T18:18:57UTC 2021-12-28T08:18:57-10:00 2021-12-28T07:18:57-11:00  21.31302 -157.88883      90   0.0 Hōkūleʻa
  2021-12-28T18:10:48UTC 2021-12-28T08:10:48-10:00 2021-12-28T07:10:48-11:00  21.31324 -157.88849     299   0.0 Hikianalia
  2021-12-28T17:18:38UTC 2021-12-28T07:18:38-10:00 2021-12-28T06:18:38-11:00  21.31302 -157.88886     316   0.0 Hōkūleʻa
  2021-12-28T17:10:18UTC 2021-12-28T07:10:18-10:00 2021-12-28T06:10:18-11:00  21.31323 -157.88847      80   0.0 Hikianalia
  2021-12-28T16:18:24UTC 2021-12-28T06:18:24-10:00 2021-12-28T05:18:24-11:00  21.31299 -157.88883     180   0.0 Hōkūleʻa
  2021-12-28T16:10:48UTC 2021-12-28T06:10:48-10:00 2021-12-28T05:10:48-11:00  21.31320 -157.88866     266   0.0 Hikianalia
  2021-12-28T15:18:23UTC 2021-12-28T05:18:23-10:00 2021-12-28T04:18:23-11:00  21.31300 -157.88883     180   0.0 Hōkūleʻa
  2021-12-28T15:10:11UTC 2021-12-28T05:10:11-10:00 2021-12-28T04:10:11-11:00  21.31321 -157.88849     255   0.0 Hikianalia
  2021-12-28T14:25:59UTC 2021-12-28T04:25:59-10:00 2021-12-28T03:25:59-11:00  21.31302 -157.88883     137   0.0 Hōkūleʻa
  2021-12-28T14:09:48UTC 2021-12-28T04:09:48-10:00 2021-12-28T03:09:48-11:00  21.31322 -157.88845     159   0.0 Hikianalia
  2021-12-28T13:18:27UTC 2021-12-28T03:18:27-10:00 2021-12-28T02:18:27-11:00  21.31306 -157.88888     308   0.0 Hōkūleʻa
  2021-12-28T13:10:06UTC 2021-12-28T03:10:06-10:00 2021-12-28T02:10:06-11:00  21.31327 -157.88847       0   0.0 Hikianalia
  2021-12-28T12:18:24UTC 2021-12-28T02:18:24-10:00 2021-12-28T01:18:24-11:00  21.31303 -157.88883       0   0.0 Hōkūleʻa
  2021-12-28T12:10:18UTC 2021-12-28T02:10:18-10:00 2021-12-28T01:10:18-11:00  21.31323 -157.88847       0   0.0 Hikianalia
  2021-12-28T11:27:32UTC 2021-12-28T01:27:32-10:00 2021-12-28T00:27:32-11:00  21.31302 -157.88883       0   0.0 Hōkūleʻa
  2021-12-28T11:10:36UTC 2021-12-28T01:10:36-10:00 2021-12-28T00:10:36-11:00  21.31322 -157.88847      83   0.0 Hikianalia
  2021-12-28T10:18:37UTC 2021-12-28T00:18:37-10:00 2021-12-27T23:18:37-11:00  21.31302 -157.88883     286   0.0 Hōkūleʻa
  2021-12-28T10:10:12UTC 2021-12-28T00:10:12-10:00 2021-12-27T23:10:12-11:00  21.31320 -157.88866     264   0.0 Hikianalia
  2021-12-28T09:18:47UTC 2021-12-27T23:18:47-10:00 2021-12-27T22:18:47-11:00  21.31300 -157.88879     223   0.0 Hōkūleʻa
  2021-12-28T09:09:38UTC 2021-12-27T23:09:38-10:00 2021-12-27T22:09:38-11:00  21.31322 -157.88845      84   0.0 Hikianalia
  2021-12-28T08:18:31UTC 2021-12-27T22:18:31-10:00 2021-12-27T21:18:31-11:00  21.31303 -157.88877      90   0.0 Hōkūleʻa
  2021-12-28T08:10:09UTC 2021-12-27T22:10:09-10:00 2021-12-27T21:10:09-11:00  21.31320 -157.88866       0   0.0 Hikianalia
  2021-12-28T07:18:24UTC 2021-12-27T21:18:24-10:00 2021-12-27T20:18:24-11:00  21.31303 -157.88883       0   0.0 Hōkūleʻa
  2021-12-28T07:10:09UTC 2021-12-27T21:10:09-10:00 2021-12-27T20:10:09-11:00  21.31320 -157.88866     260   0.0 Hikianalia
  2021-12-28T06:18:49UTC 2021-12-27T20:18:49-10:00 2021-12-27T19:18:49-11:00  21.31302 -157.88883     167   0.0 Hōkūleʻa
  2021-12-28T06:10:45UTC 2021-12-27T20:10:45-10:00 2021-12-27T19:10:45-11:00  21.31323 -157.88847      80   0.0 Hikianalia
  2021-12-28T05:17:43UTC 2021-12-27T19:17:43-10:00 2021-12-27T18:17:43-11:00  21.31310 -157.88886     325   0.0 Hōkūleʻa
  2021-12-28T05:17:12UTC 2021-12-27T19:17:12-10:00 2021-12-27T18:17:12-11:00  21.31320 -157.88866       0   0.0 Hikianalia
  2021-12-28T04:18:20UTC 2021-12-27T18:18:20-10:00 2021-12-27T17:18:20-11:00  21.31302 -157.88879      90   0.0 Hōkūleʻa
  2021-12-28T04:10:18UTC 2021-12-27T18:10:18-10:00 2021-12-27T17:10:18-11:00  21.31320 -157.88866     220   0.0 Hikianalia
  2021-12-28T03:18:24UTC 2021-12-27T17:18:24-10:00 2021-12-27T16:18:24-11:00  21.31302 -157.88883       0   0.0 Hōkūleʻa
  2021-12-28T03:10:08UTC 2021-12-27T17:10:08-10:00 2021-12-27T16:10:08-11:00  21.31332 -157.88856     303   0.0 Hikianalia
  2021-12-28T02:17:50UTC 2021-12-27T16:17:50-10:00 2021-12-27T15:17:50-11:00  21.31302 -157.88883     289   0.0 Hōkūleʻa
  2021-12-28T02:10:50UTC 2021-12-27T16:10:50-10:00 2021-12-27T15:10:50-11:00  21.31325 -157.88845      75   0.0 Hikianalia
  2021-12-28T01:18:36UTC 2021-12-27T15:18:36-10:00 2021-12-27T14:18:36-11:00  21.31299 -157.88877      99   0.0 Hōkūleʻa
  2021-12-28T01:10:15UTC 2021-12-27T15:10:15-10:00 2021-12-27T14:10:15-11:00  21.31320 -157.88866       0   0.0 Hikianalia
  2021-12-28T00:18:32UTC 2021-12-27T14:18:32-10:00 2021-12-27T13:18:32-11:00  21.31300 -157.88883     180   0.0 Hōkūleʻa
  2021-12-28T00:09:16UTC 2021-12-27T14:09:16-10:00 2021-12-27T13:09:16-11:00  21.31320 -157.88866     255   0.0 Hikianalia
  2021-12-27T23:17:28UTC 2021-12-27T13:17:28-10:00 2021-12-27T12:17:28-11:00  21.31305 -157.88883     317   0.0 Hōkūleʻa
  2021-12-27T23:09:34UTC 2021-12-27T13:09:34-10:00 2021-12-27T12:09:34-11:00  21.31325 -157.88845      75   0.0 Hikianalia
  2021-12-27T22:17:40UTC 2021-12-27T12:17:40-10:00 2021-12-27T11:17:40-11:00  21.31303 -157.88881     317   0.0 Hōkūleʻa
  2021-12-27T22:09:38UTC 2021-12-27T12:09:38-10:00 2021-12-27T11:09:38-11:00  21.31320 -157.88866       0   0.0 Hikianalia
  2021-12-27T21:18:33UTC 2021-12-27T11:18:33-10:00 2021-12-27T10:18:33-11:00  21.31298 -157.88877     126   0.0 Hōkūleʻa
  2021-12-27T21:10:19UTC 2021-12-27T11:10:19-10:00 2021-12-27T10:10:19-11:00  21.31320 -157.88866     254   0.0 Hikianalia
  2021-12-27T20:18:30UTC 2021-12-27T10:18:30-10:00 2021-12-27T09:18:30-11:00  21.31303 -157.88883       0   0.0 Hōkūleʻa
  2021-12-27T20:09:39UTC 2021-12-27T10:09:39-10:00 2021-12-27T09:09:39-11:00  21.31325 -157.88847       0   0.0 Hikianalia
  2021-12-27T19:18:33UTC 2021-12-27T09:18:33-10:00 2021-12-27T08:18:33-11:00  21.31303 -157.88883       0   0.0 Hōkūleʻa
  2021-12-27T19:10:14UTC 2021-12-27T09:10:14-10:00 2021-12-27T08:10:14-11:00  21.31322 -157.88847     180   0.0 Hikianalia
  2021-12-27T18:18:49UTC 2021-12-27T08:18:49-10:00 2021-12-27T07:18:49-11:00  21.31302 -157.88883     231   0.0 Hōkūleʻa
  2021-12-27T18:10:44UTC 2021-12-27T08:10:44-10:00 2021-12-27T07:10:44-11:00  21.31323 -157.88847      80   0.0 Hikianalia
  2021-12-27T17:18:29UTC 2021-12-27T07:18:29-10:00 2021-12-27T06:18:29-11:00  21.31305 -157.88879      81   0.0 Hōkūleʻa
  2021-12-27T17:10:16UTC 2021-12-27T07:10:16-10:00 2021-12-27T06:10:16-11:00  21.31320 -157.88866       0   0.0 Hikianalia
  2021-12-27T16:18:33UTC 2021-12-27T06:18:33-10:00 2021-12-27T05:18:33-11:00  21.31304 -157.88886     317   0.0 Hōkūleʻa
  2021-12-27T16:10:07UTC 2021-12-27T06:10:07-10:00 2021-12-27T05:10:07-11:00  21.31320 -157.88866     260   0.0 Hikianalia
  2021-12-27T15:18:24UTC 2021-12-27T05:18:24-10:00 2021-12-27T04:18:24-11:00  21.31302 -157.88883     270   0.0 Hōkūleʻa
  2021-12-27T15:10:38UTC 2021-12-27T05:10:38-10:00 2021-12-27T04:10:38-11:00  21.31323 -157.88847      80   0.0 Hikianalia
  2021-12-27T14:30:01UTC 2021-12-27T04:30:01-10:00 2021-12-27T03:30:01-11:00  21.31302 -157.88881     303   0.0 Hōkūleʻa
  2021-12-27T14:10:17UTC 2021-12-27T04:10:17-10:00 2021-12-27T03:10:17-11:00  21.31320 -157.88866     257   0.0 Hikianalia
  2021-12-27T13:17:40UTC 2021-12-27T03:17:40-10:00 2021-12-27T02:17:40-11:00  21.31296 -157.88873     125   0.0 Hōkūleʻa
  2021-12-27T13:10:11UTC 2021-12-27T03:10:11-10:00 2021-12-27T02:10:11-11:00  21.31324 -157.88847       0   0.0 Hikianalia
  2021-12-27T12:18:31UTC 2021-12-27T02:18:31-10:00 2021-12-27T01:18:31-11:00  21.31300 -157.88879     119   0.0 Hōkūleʻa
  2021-12-27T12:09:46UTC 2021-12-27T02:09:46-10:00 2021-12-27T01:09:46-11:00  21.31323 -157.88847     137   0.0 Hikianalia
  2021-12-27T11:18:22UTC 2021-12-27T01:18:22-10:00 2021-12-27T00:18:22-11:00  21.31303 -157.88883       0   0.0 Hōkūleʻa
  2021-12-27T11:10:09UTC 2021-12-27T01:10:09-10:00 2021-12-27T00:10:09-11:00  21.31325 -157.88849     347   0.0 Hikianalia
  2021-12-27T10:18:46UTC 2021-12-27T00:18:46-10:00 2021-12-26T23:18:46-11:00  21.31300 -157.88883     270   0.0 Hōkūleʻa
  2021-12-27T10:10:16UTC 2021-12-27T00:10:16-10:00 2021-12-26T23:10:16-11:00  21.31317 -157.88847     100   0.0 Hikianalia
  2021-12-27T09:17:29UTC 2021-12-26T23:17:29-10:00 2021-12-26T22:17:29-11:00  21.31300 -157.88881     180   0.0 Hōkūleʻa
  2021-12-27T09:10:14UTC 2021-12-26T23:10:14-10:00 2021-12-26T22:10:14-11:00  21.31320 -157.88866     254   0.0 Hikianalia
  2021-12-27T08:18:21UTC 2021-12-26T22:18:21-10:00 2021-12-26T21:18:21-11:00  21.31303 -157.88881      90   0.0 Hōkūleʻa
  2021-12-27T08:10:36UTC 2021-12-26T22:10:36-10:00 2021-12-26T21:10:36-11:00  21.31325 -157.88847      74   0.0 Hikianalia
  2021-12-27T07:19:33UTC 2021-12-26T21:19:33-10:00 2021-12-26T20:19:33-11:00  21.31303 -157.88883       0   0.0 Hōkūleʻa
  2021-12-27T07:10:07UTC 2021-12-26T21:10:07-10:00 2021-12-26T20:10:07-11:00  21.31320 -157.88866     261   0.0 Hikianalia
  2021-12-27T06:18:47UTC 2021-12-26T20:18:47-10:00 2021-12-26T19:18:47-11:00  21.31303 -157.88883      43   0.0 Hōkūleʻa
  2021-12-27T06:09:13UTC 2021-12-26T20:09:13-10:00 2021-12-26T19:09:13-11:00  21.31323 -157.88845       0   0.0 Hikianalia
  2021-12-27T05:17:37UTC 2021-12-26T19:17:37-10:00 2021-12-26T18:17:37-11:00  21.31300 -157.88886     242   0.0 Hōkūleʻa
  2021-12-27T05:10:09UTC 2021-12-26T19:10:09-10:00 2021-12-26T18:10:09-11:00  21.31317 -157.88845     165   0.0 Hikianalia
  2021-12-27T04:18:28UTC 2021-12-26T18:18:28-10:00 2021-12-26T17:18:28-11:00  21.31302 -157.88883     180   0.0 Hōkūleʻa
  2021-12-27T04:10:39UTC 2021-12-26T18:10:39-10:00 2021-12-26T17:10:39-11:00  21.31324 -157.88847      77   0.0 Hikianalia
  2021-12-27T03:18:24UTC 2021-12-26T17:18:24-10:00 2021-12-26T16:18:24-11:00  21.31303 -157.88883     180   0.0 Hōkūleʻa
  2021-12-27T03:10:18UTC 2021-12-26T17:10:18-10:00 2021-12-26T16:10:18-11:00  21.31320 -157.88866       0   0.0 Hikianalia
  2021-12-27T02:17:46UTC 2021-12-26T16:17:46-10:00 2021-12-26T15:17:46-11:00  21.31304 -157.88883     180   0.0 Hōkūleʻa
  2021-12-27T02:10:24UTC 2021-12-26T16:10:24-10:00 2021-12-26T15:10:24-11:00  21.31320 -157.88866       0   0.0 Hikianalia
  2021-12-27T01:18:24UTC 2021-12-26T15:18:24-10:00 2021-12-26T14:18:24-11:00  21.31310 -157.88883       0   0.0 Hōkūleʻa
  2021-12-27T01:10:06UTC 2021-12-26T15:10:06-10:00 2021-12-26T14:10:06-11:00  21.31320 -157.88866     242   0.0 Hikianalia
  2021-12-27T00:18:33UTC 2021-12-26T14:18:33-10:00 2021-12-26T13:18:33-11:00  21.31307 -157.88883     180   0.0 Hōkūleʻa
  2021-12-27T00:09:46UTC 2021-12-26T14:09:46-10:00 2021-12-26T13:09:46-11:00  21.31329 -157.88847      62   0.0 Hikianalia
  2021-12-26T23:17:21UTC 2021-12-26T13:17:21-10:00 2021-12-26T12:17:21-11:00  21.31308 -157.88883       0   0.0 Hōkūleʻa
  2021-12-26T23:10:14UTC 2021-12-26T13:10:14-10:00 2021-12-26T12:10:14-11:00  21.31320 -157.88866     242   0.0 Hikianalia
  2021-12-26T22:18:46UTC 2021-12-26T12:18:46-10:00 2021-12-26T11:18:46-11:00  21.31306 -157.88883       0   0.0 Hōkūleʻa
  2021-12-26T22:09:15UTC 2021-12-26T12:09:15-10:00 2021-12-26T11:09:15-11:00  21.31328 -157.88849      62   0.0 Hikianalia
  2021-12-26T21:18:38UTC 2021-12-26T11:18:38-10:00 2021-12-26T10:18:38-11:00  21.31304 -157.88883     118   0.0 Hōkūleʻa
  2021-12-26T21:10:10UTC 2021-12-26T11:10:10-10:00 2021-12-26T10:10:10-11:00  21.31320 -157.88866     257   0.0 Hikianalia
  2021-12-26T20:17:28UTC 2021-12-26T10:17:28-10:00 2021-12-26T09:17:28-11:00  21.31306 -157.88888     308   0.0 Hōkūleʻa
  2021-12-26T20:09:48UTC 2021-12-26T10:09:48-10:00 2021-12-26T09:09:48-11:00  21.31324 -157.88847     180   0.0 Hikianalia
  2021-12-26T19:18:31UTC 2021-12-26T09:18:31-10:00 2021-12-26T08:18:31-11:00  21.31303 -157.88883       0   0.0 Hōkūleʻa
  2021-12-26T19:10:07UTC 2021-12-26T09:10:07-10:00 2021-12-26T08:10:07-11:00  21.31325 -157.88847      25   0.0 Hikianalia
  2021-12-26T18:18:48UTC 2021-12-26T08:18:48-10:00 2021-12-26T07:18:48-11:00  21.31303 -157.88883     212   0.0 Hōkūleʻa
  2021-12-26T18:09:27UTC 2021-12-26T08:09:27-10:00 2021-12-26T07:09:27-11:00  21.31321 -157.88849     270   0.0 Hikianalia
  2021-12-26T17:18:28UTC 2021-12-26T07:18:28-10:00 2021-12-26T06:18:28-11:00  21.31321 -157.88845     180   0.0 Hikianalia
  2021-12-26T17:18:21UTC 2021-12-26T07:18:21-10:00 2021-12-26T06:18:21-11:00  21.31306 -157.88881       0   0.0 Hōkūleʻa
  2021-12-26T16:18:33UTC 2021-12-26T06:18:33-10:00 2021-12-26T05:18:33-11:00  21.31303 -157.88881     119   0.0 Hōkūleʻa
  2021-12-26T16:10:49UTC 2021-12-26T06:10:49-10:00 2021-12-26T05:10:49-11:00  21.31324 -157.88845      78   0.0 Hikianalia
  2021-12-26T15:18:31UTC 2021-12-26T05:18:31-10:00 2021-12-26T04:18:31-11:00  21.31304 -157.88883       0   0.0 Hōkūleʻa
  2021-12-26T15:09:20UTC 2021-12-26T05:09:20-10:00 2021-12-26T04:09:20-11:00  21.31320 -157.88866     266   0.0 Hikianalia
  2021-12-26T14:18:39UTC 2021-12-26T04:18:39-10:00 2021-12-26T03:18:39-11:00  21.31302 -157.88883     121   0.0 Hōkūleʻa
  2021-12-26T14:10:09UTC 2021-12-26T04:10:09-10:00 2021-12-26T03:10:09-11:00  21.31321 -157.88851      86   0.0 Hikianalia
  2021-12-26T13:18:32UTC 2021-12-26T03:18:32-10:00 2021-12-26T02:18:32-11:00  21.31311 -157.88901     301   0.0 Hōkūleʻa
  2021-12-26T13:10:38UTC 2021-12-26T03:10:38-10:00 2021-12-26T02:10:38-11:00  21.31320 -157.88866       0   0.0 Hikianalia
  2021-12-26T12:17:38UTC 2021-12-26T02:17:38-10:00 2021-12-26T01:17:38-11:00  21.31302 -157.88883     299   0.0 Hōkūleʻa
  2021-12-26T12:10:09UTC 2021-12-26T02:10:09-10:00 2021-12-26T01:10:09-11:00  21.31320 -157.88866       0   0.0 Hikianalia
  2021-12-26T11:18:22UTC 2021-12-26T01:18:22-10:00 2021-12-26T00:18:22-11:00  21.31300 -157.88881      90   0.0 Hōkūleʻa
  2021-12-26T11:10:14UTC 2021-12-26T01:10:14-10:00 2021-12-26T00:10:14-11:00  21.31320 -157.88866     261   0.0 Hikianalia
  2021-12-26T10:18:41UTC 2021-12-26T00:18:41-10:00 2021-12-25T23:18:41-11:00  21.31300 -157.88883     222   0.0 Hōkūleʻa
  2021-12-26T10:09:47UTC 2021-12-26T00:09:47-10:00 2021-12-25T23:09:47-11:00  21.31323 -157.88845      68   0.0 Hikianalia
  2021-12-26T09:18:39UTC 2021-12-25T23:18:39-10:00 2021-12-25T22:18:39-11:00  21.31303 -157.88881      61   0.0 Hōkūleʻa
  2021-12-26T09:10:10UTC 2021-12-25T23:10:10-10:00 2021-12-25T22:10:10-11:00  21.31320 -157.88853     219   0.0 Hikianalia
  2021-12-26T08:18:32UTC 2021-12-25T22:18:32-10:00 2021-12-25T21:18:32-11:00  21.31302 -157.88883       0   0.0 Hōkūleʻa
  2021-12-26T08:10:15UTC 2021-12-25T22:10:15-10:00 2021-12-25T21:10:15-11:00  21.31327 -157.88847      67   0.0 Hikianalia
  2021-12-26T07:18:24UTC 2021-12-25T21:18:24-10:00 2021-12-25T20:18:24-11:00  21.31302 -157.88883     241   0.0 Hōkūleʻa
  2021-12-26T07:10:06UTC 2021-12-25T21:10:06-10:00 2021-12-25T20:10:06-11:00  21.31320 -157.88866     257   0.0 Hikianalia
  2021-12-26T06:17:40UTC 2021-12-25T20:17:40-10:00 2021-12-25T19:17:40-11:00  21.31303 -157.88881      90   0.0 Hōkūleʻa
  2021-12-26T06:10:46UTC 2021-12-25T20:10:46-10:00 2021-12-25T19:10:46-11:00  21.31324 -157.88847      77   0.0 Hikianalia
  2021-12-26T05:18:29UTC 2021-12-25T19:18:29-10:00 2021-12-25T18:18:29-11:00  21.31303 -157.88894     278   0.0 Hōkūleʻa
  2021-12-26T05:10:45UTC 2021-12-25T19:10:45-10:00 2021-12-25T18:10:45-11:00  21.31320 -157.88866     295   0.0 Hikianalia
  2021-12-26T04:18:26UTC 2021-12-25T18:18:26-10:00 2021-12-25T17:18:26-11:00  21.31302 -157.88886     285   0.0 Hōkūleʻa
  2021-12-26T04:10:16UTC 2021-12-25T18:10:16-10:00 2021-12-25T17:10:16-11:00  21.31313 -157.88851     115   0.0 Hikianalia
  2021-12-26T03:18:32UTC 2021-12-25T17:18:32-10:00 2021-12-25T16:18:32-11:00  21.31300 -157.88881     160   0.0 Hōkūleʻa
  2021-12-26T03:09:09UTC 2021-12-25T17:09:09-10:00 2021-12-25T16:09:09-11:00  21.31320 -157.88866       0   0.0 Hikianalia
  2021-12-26T02:17:44UTC 2021-12-25T16:17:44-10:00 2021-12-25T15:17:44-11:00  21.31306 -157.88883     242   0.0 Hōkūleʻa
  2021-12-26T02:10:35UTC 2021-12-25T16:10:35-10:00 2021-12-25T15:10:35-11:00  21.31320 -157.88866       0   0.0 Hikianalia
  2021-12-26T01:18:26UTC 2021-12-25T15:18:26-10:00 2021-12-25T14:18:26-11:00  21.31309 -157.88877     108   0.0 Hōkūleʻa
  2021-12-26T01:09:06UTC 2021-12-25T15:09:06-10:00 2021-12-25T14:09:06-11:00  21.31320 -157.88866       0   0.0 Hikianalia
  2021-12-26T00:18:47UTC 2021-12-25T14:18:47-10:00 2021-12-25T13:18:47-11:00  21.31312 -157.88888     332   0.0 Hōkūleʻa
  2021-12-26T00:10:17UTC 2021-12-25T14:10:17-10:00 2021-12-25T13:10:17-11:00  21.31320 -157.88866       0   0.0 Hikianalia
  2021-12-25T23:17:29UTC 2021-12-25T13:17:29-10:00 2021-12-25T12:17:29-11:00  21.31305 -157.88883     270   0.0 Hōkūleʻa
  2021-12-25T23:09:50UTC 2021-12-25T13:09:50-10:00 2021-12-25T12:09:50-11:00  21.31320 -157.88866       0   0.0 Hikianalia
  2021-12-25T22:17:40UTC 2021-12-25T12:17:40-10:00 2021-12-25T11:17:40-11:00  21.31305 -157.88881     335   0.0 Hōkūleʻa
  2021-12-25T22:09:46UTC 2021-12-25T12:09:46-10:00 2021-12-25T11:09:46-11:00  21.31320 -157.88866       0   0.0 Hikianalia
  2021-12-25T21:18:25UTC 2021-12-25T11:18:25-10:00 2021-12-25T10:18:25-11:00  21.31300 -157.88879     130   0.0 Hōkūleʻa
  2021-12-25T21:10:09UTC 2021-12-25T11:10:09-10:00 2021-12-25T10:10:09-11:00  21.31320 -157.88866     254   0.0 Hikianalia
  2021-12-25T20:17:25UTC 2021-12-25T10:17:25-10:00 2021-12-25T09:17:25-11:00  21.31304 -157.88883       0   0.0 Hōkūleʻa
  2021-12-25T20:09:47UTC 2021-12-25T10:09:47-10:00 2021-12-25T09:09:47-11:00  21.31325 -157.88847     296   0.0 Hikianalia
  2021-12-25T19:18:24UTC 2021-12-25T09:18:24-10:00 2021-12-25T08:18:24-11:00  21.31304 -157.88883       0   0.0 Hōkūleʻa
  2021-12-25T19:10:11UTC 2021-12-25T09:10:11-10:00 2021-12-25T08:10:11-11:00  21.31324 -157.88845       0   0.0 Hikianalia
  2021-12-25T18:18:48UTC 2021-12-25T08:18:48-10:00 2021-12-25T07:18:48-11:00  21.31303 -157.88883       0   0.0 Hōkūleʻa
  2021-12-25T18:10:43UTC 2021-12-25T08:10:43-10:00 2021-12-25T07:10:43-11:00  21.31324 -157.88845      90   0.0 Hikianalia
  2021-12-25T17:18:38UTC 2021-12-25T07:18:38-10:00 2021-12-25T06:18:38-11:00  21.31302 -157.88883       0   0.0 Hōkūleʻa
  2021-12-25T17:10:16UTC 2021-12-25T07:10:16-10:00 2021-12-25T06:10:16-11:00  21.31324 -157.88851     270   0.0 Hikianalia
  2021-12-25T16:18:36UTC 2021-12-25T06:18:36-10:00 2021-12-25T05:18:36-11:00  21.31299 -157.88883     180   0.0 Hōkūleʻa
  2021-12-25T16:10:47UTC 2021-12-25T06:10:47-10:00 2021-12-25T05:10:47-11:00  21.31324 -157.88845      90   0.0 Hikianalia
  2021-12-25T15:18:32UTC 2021-12-25T05:18:32-10:00 2021-12-25T04:18:32-11:00  21.31300 -157.88883       0   0.0 Hōkūleʻa
  2021-12-25T15:10:37UTC 2021-12-25T05:10:37-10:00 2021-12-25T04:10:37-11:00  21.31324 -157.88849     345   0.0 Hikianalia
  2021-12-25T14:18:39UTC 2021-12-25T04:18:39-10:00 2021-12-25T03:18:39-11:00  21.31300 -157.88883     270   0.0 Hōkūleʻa
  2021-12-25T14:10:17UTC 2021-12-25T04:10:17-10:00 2021-12-25T03:10:17-11:00  21.31317 -157.88847     100   0.0 Hikianalia
  2021-12-25T13:18:27UTC 2021-12-25T03:18:27-10:00 2021-12-25T02:18:27-11:00  21.31300 -157.88877     180   0.0 Hōkūleʻa
  2021-12-25T13:10:14UTC 2021-12-25T03:10:14-10:00 2021-12-25T02:10:14-11:00  21.31320 -157.88866     260   0.0 Hikianalia
  2021-12-25T12:18:30UTC 2021-12-25T02:18:30-10:00 2021-12-25T01:18:30-11:00  21.31302 -157.88877      75   0.0 Hōkūleʻa
  2021-12-25T12:10:46UTC 2021-12-25T02:10:46-10:00 2021-12-25T01:10:46-11:00  21.31323 -157.88847      80   0.0 Hikianalia
  2021-12-25T11:18:30UTC 2021-12-25T01:18:30-10:00 2021-12-25T00:18:30-11:00  21.31300 -157.88881     119   0.0 Hōkūleʻa
  2021-12-25T11:10:08UTC 2021-12-25T01:10:08-10:00 2021-12-25T00:10:08-11:00  21.31320 -157.88866     239   0.0 Hikianalia
  2021-12-25T10:18:46UTC 2021-12-25T00:18:46-10:00 2021-12-24T23:18:46-11:00  21.31302 -157.88883     180   0.0 Hōkūleʻa
  2021-12-25T10:09:14UTC 2021-12-25T00:09:14-10:00 2021-12-24T23:09:14-11:00  21.31328 -157.88851     341   0.0 Hikianalia
  2021-12-25T09:18:35UTC 2021-12-24T23:18:35-10:00 2021-12-24T22:18:35-11:00  21.31303 -157.88883     180   0.0 Hōkūleʻa
  2021-12-25T09:10:09UTC 2021-12-24T23:10:09-10:00 2021-12-24T22:10:09-11:00  21.31317 -157.88847     180   0.0 Hikianalia
  2021-12-25T08:17:31UTC 2021-12-24T22:17:31-10:00 2021-12-24T21:17:31-11:00  21.31304 -157.88883       0   0.0 Hōkūleʻa
  2021-12-25T08:10:35UTC 2021-12-24T22:10:35-10:00 2021-12-24T21:10:35-11:00  21.31324 -157.88847      77   0.0 Hikianalia
  2021-12-25T07:18:24UTC 2021-12-24T21:18:24-10:00 2021-12-24T20:18:24-11:00  21.31302 -157.88883       0   0.0 Hōkūleʻa
  2021-12-25T07:10:17UTC 2021-12-24T21:10:17-10:00 2021-12-24T20:10:17-11:00  21.31320 -157.88866     263   0.0 Hikianalia
  2021-12-25T06:18:49UTC 2021-12-24T20:18:49-10:00 2021-12-24T19:18:49-11:00  21.31302 -157.88883       0   0.0 Hōkūleʻa
  2021-12-25T06:10:38UTC 2021-12-24T20:10:38-10:00 2021-12-24T19:10:38-11:00  21.31322 -157.88847       0   0.0 Hikianalia
  2021-12-25T05:18:30UTC 2021-12-24T19:18:30-10:00 2021-12-24T18:18:30-11:00  21.31302 -157.88883       0   0.0 Hōkūleʻa
  2021-12-25T05:09:17UTC 2021-12-24T19:09:17-10:00 2021-12-24T18:09:17-11:00  21.31319 -157.88847     180   0.0 Hikianalia
  2021-12-25T04:18:33UTC 2021-12-24T18:18:33-10:00 2021-12-24T17:18:33-11:00  21.31302 -157.88883     180   0.0 Hōkūleʻa
  2021-12-25T04:10:11UTC 2021-12-24T18:10:11-10:00 2021-12-24T17:10:11-11:00  21.31324 -157.88847       0   0.0 Hikianalia
  2021-12-25T03:18:32UTC 2021-12-24T17:18:32-10:00 2021-12-24T16:18:32-11:00  21.31303 -157.88883     241   0.0 Hōkūleʻa
  2021-12-25T03:10:18UTC 2021-12-24T17:10:18-10:00 2021-12-24T16:10:18-11:00  21.31323 -157.88847      80   0.0 Hikianalia
  2021-12-25T02:18:47UTC 2021-12-24T16:18:47-10:00 2021-12-24T15:18:47-11:00  21.31304 -157.88881     163   0.0 Hōkūleʻa
  2021-12-25T02:09:41UTC 2021-12-24T16:09:41-10:00 2021-12-24T15:09:41-11:00  21.31320 -157.88866       0   0.0 Hikianalia
  2021-12-25T01:17:25UTC 2021-12-24T15:17:25-10:00 2021-12-24T14:17:25-11:00  21.31310 -157.88883       0   0.0 Hōkūleʻa
  2021-12-25T01:10:21UTC 2021-12-24T15:10:21-10:00 2021-12-24T14:10:21-11:00  21.31320 -157.88866       0   0.0 Hikianalia
  2021-12-25T00:24:51UTC 2021-12-24T14:24:51-10:00 2021-12-24T13:24:51-11:00  21.31309 -157.88883       0   0.0 Hōkūleʻa
  2021-12-25T00:10:18UTC 2021-12-24T14:10:18-10:00 2021-12-24T13:10:18-11:00  21.31320 -157.88866       0   0.0 Hikianalia
  2021-12-24T23:18:21UTC 2021-12-24T13:18:21-10:00 2021-12-24T12:18:21-11:00  21.31305 -157.88883     270   0.0 Hōkūleʻa
  2021-12-24T23:16:46UTC 2021-12-24T13:16:46-10:00 2021-12-24T12:16:46-11:00  21.31320 -157.88866       0   0.0 Hikianalia
  2021-12-24T22:25:32UTC 2021-12-24T12:25:32-10:00 2021-12-24T11:25:32-11:00  21.31305 -157.88881     143   0.0 Hōkūleʻa
  2021-12-24T22:09:37UTC 2021-12-24T12:09:37-10:00 2021-12-24T11:09:37-11:00  21.31320 -157.88866       0   0.0 Hikianalia
  2021-12-24T21:18:33UTC 2021-12-24T11:18:33-10:00 2021-12-24T10:18:33-11:00  21.31310 -157.88886     345   0.0 Hōkūleʻa
  2021-12-24T21:10:28UTC 2021-12-24T11:10:28-10:00 2021-12-24T10:10:28-11:00  21.31320 -157.88866     254   0.0 Hikianalia
  2021-12-24T20:18:33UTC 2021-12-24T10:18:33-10:00 2021-12-24T09:18:33-11:00  21.31303 -157.88883       0   0.0 Hōkūleʻa
  2021-12-24T20:10:17UTC 2021-12-24T10:10:17-10:00 2021-12-24T09:10:17-11:00  21.31325 -157.88847      74   0.0 Hikianalia
  2021-12-24T19:18:32UTC 2021-12-24T09:18:32-10:00 2021-12-24T08:18:32-11:00  21.31303 -157.88883       0   0.0 Hōkūleʻa
  2021-12-24T19:10:16UTC 2021-12-24T09:10:16-10:00 2021-12-24T08:10:16-11:00  21.31320 -157.88866     257   0.0 Hikianalia
  2021-12-24T18:17:49UTC 2021-12-24T08:17:49-10:00 2021-12-24T07:17:49-11:00  21.31303 -157.88883     212   0.0 Hōkūleʻa
  2021-12-24T18:10:48UTC 2021-12-24T08:10:48-10:00 2021-12-24T07:10:48-11:00  21.31324 -157.88847     244   0.0 Hikianalia
  2021-12-24T17:18:23UTC 2021-12-24T07:18:23-10:00 2021-12-24T06:18:23-11:00  21.31306 -157.88881      25   0.0 Hōkūleʻa
  2021-12-24T17:10:15UTC 2021-12-24T07:10:15-10:00 2021-12-24T06:10:15-11:00  21.31325 -157.88845       0   0.0 Hikianalia
  2021-12-24T16:18:25UTC 2021-12-24T06:18:25-10:00 2021-12-24T05:18:25-11:00  21.31302 -157.88883       0   0.0 Hōkūleʻa
  2021-12-24T16:10:15UTC 2021-12-24T06:10:15-10:00 2021-12-24T05:10:15-11:00  21.31323 -157.88845     118   0.0 Hikianalia
  2021-12-24T15:18:40UTC 2021-12-24T05:18:40-10:00 2021-12-24T04:18:40-11:00  21.31302 -157.88883     180   0.0 Hōkūleʻa
  2021-12-24T15:10:45UTC 2021-12-24T05:10:45-10:00 2021-12-24T04:10:45-11:00  21.31324 -157.88847      77   0.0 Hikianalia
  2021-12-24T14:17:35UTC 2021-12-24T04:17:35-10:00 2021-12-24T03:17:35-11:00  21.31306 -157.88883     340   0.0 Hōkūleʻa
  2021-12-24T14:10:46UTC 2021-12-24T04:10:46-10:00 2021-12-24T03:10:46-11:00  21.31320 -157.88866     258   0.0 Hikianalia
  2021-12-24T13:26:13UTC 2021-12-24T03:26:13-10:00 2021-12-24T02:26:13-11:00  21.31300 -157.88881     180   0.0 Hōkūleʻa
  2021-12-24T13:10:48UTC 2021-12-24T03:10:48-10:00 2021-12-24T02:10:48-11:00  21.31324 -157.88845      78   0.0 Hikianalia
  2021-12-24T12:18:40UTC 2021-12-24T02:18:40-10:00 2021-12-24T01:18:40-11:00  21.31302 -157.88881     285   0.0 Hōkūleʻa
  2021-12-24T12:10:14UTC 2021-12-24T02:10:14-10:00 2021-12-24T01:10:14-11:00  21.31320 -157.88866     273   0.0 Hikianalia
  2021-12-24T11:18:37UTC 2021-12-24T01:18:37-10:00 2021-12-24T00:18:37-11:00  21.31300 -157.88877     100   0.0 Hōkūleʻa
  2021-12-24T11:09:08UTC 2021-12-24T01:09:08-10:00 2021-12-24T00:09:08-11:00  21.31319 -157.88845     180   0.0 Hikianalia
  2021-12-24T10:26:18UTC 2021-12-24T00:26:18-10:00 2021-12-23T23:26:18-11:00  21.31302 -157.88883       0   0.0 Hōkūleʻa
  2021-12-24T10:10:40UTC 2021-12-24T00:10:40-10:00 2021-12-23T23:10:40-11:00  21.31324 -157.88845      62   0.0 Hikianalia
  2021-12-24T09:18:24UTC 2021-12-23T23:18:24-10:00 2021-12-23T22:18:24-11:00  21.31302 -157.88883     241   0.0 Hōkūleʻa
  2021-12-24T09:10:20UTC 2021-12-23T23:10:20-10:00 2021-12-23T22:10:20-11:00  21.31323 -157.88847      79   0.0 Hikianalia
  2021-12-24T08:18:46UTC 2021-12-23T22:18:46-10:00 2021-12-23T21:18:46-11:00  21.31303 -157.88881     255   0.0 Hōkūleʻa
  2021-12-24T08:10:18UTC 2021-12-23T22:10:18-10:00 2021-12-23T21:10:18-11:00  21.31319 -157.88871       0   0.0 Hikianalia
  2021-12-24T07:25:47UTC 2021-12-23T21:25:47-10:00 2021-12-23T20:25:47-11:00  21.31304 -157.88877      61   0.0 Hōkūleʻa
  2021-12-24T07:10:11UTC 2021-12-23T21:10:11-10:00 2021-12-23T20:10:11-11:00  21.31319 -157.88871       0   0.0 Hikianalia
  2021-12-24T06:26:08UTC 2021-12-23T20:26:08-10:00 2021-12-23T19:26:08-11:00  21.31302 -157.88881     180   0.0 Hōkūleʻa
  2021-12-24T06:10:38UTC 2021-12-23T20:10:38-10:00 2021-12-23T19:10:38-11:00  21.31319 -157.88871     253   0.0 Hikianalia
  2021-12-24T05:18:26UTC 2021-12-23T19:18:26-10:00 2021-12-23T18:18:26-11:00  21.31303 -157.88881     144   0.0 Hōkūleʻa
  2021-12-24T05:09:47UTC 2021-12-23T19:09:47-10:00 2021-12-23T18:09:47-11:00  21.31324 -157.88851      73   0.0 Hikianalia
  2021-12-24T04:18:52UTC 2021-12-23T18:18:52-10:00 2021-12-23T17:18:52-11:00  21.31325 -157.88898      14   4.3 Hōkūleʻa
  2021-12-24T04:10:07UTC 2021-12-23T18:10:07-10:00 2021-12-23T17:10:07-11:00  21.31319 -157.88871       0   0.0 Hikianalia
  2021-12-24T03:26:36UTC 2021-12-23T17:26:36-10:00 2021-12-23T16:26:36-11:00  21.25175 -157.90499     345   2.7 Hōkūleʻa
  2021-12-24T03:16:58UTC 2021-12-23T17:16:58-10:00 2021-12-23T16:16:58-11:00  21.31319 -157.88871       0   0.0 Hikianalia
  2021-12-24T02:17:27UTC 2021-12-23T16:17:27-10:00 2021-12-23T15:17:27-11:00  21.20224 -157.89057     177   6.1 Hōkūleʻa
  2021-12-24T02:10:49UTC 2021-12-23T16:10:49-10:00 2021-12-23T15:10:49-11:00  21.31319 -157.88871     273   0.0 Hikianalia
  2021-12-24T01:18:27UTC 2021-12-23T15:18:27-10:00 2021-12-23T14:18:27-11:00  21.30223 -157.89669     214   0.8 Hōkūleʻa
  2021-12-24T01:09:11UTC 2021-12-23T15:09:11-10:00 2021-12-23T14:09:11-11:00  21.31318 -157.88851      90   0.0 Hikianalia
  2021-12-24T00:17:47UTC 2021-12-23T14:17:47-10:00 2021-12-23T13:17:47-11:00  21.31307 -157.88898       0   0.0 Hōkūleʻa
  2021-12-24T00:10:18UTC 2021-12-23T14:10:18-10:00 2021-12-23T13:10:18-11:00  21.31318 -157.88871     255   0.0 Hikianalia
  2021-12-23T23:17:21UTC 2021-12-23T13:17:21-10:00 2021-12-23T12:17:21-11:00  21.31307 -157.88898       0   0.0 Hōkūleʻa
  2021-12-23T23:09:43UTC 2021-12-23T13:09:43-10:00 2021-12-23T12:09:43-11:00  21.31319 -157.88866       0   0.0 Hikianalia
  2021-12-23T22:18:33UTC 2021-12-23T12:18:33-10:00 2021-12-23T11:18:33-11:00  21.31307 -157.88898       0   0.0 Hōkūleʻa
  2021-12-23T22:09:10UTC 2021-12-23T12:09:10-10:00 2021-12-23T11:09:10-11:00  21.31319 -157.88866      80   0.0 Hikianalia
  2021-12-23T21:17:33UTC 2021-12-23T11:17:33-10:00 2021-12-23T10:17:33-11:00  21.31307 -157.88898       0   0.0 Hōkūleʻa
  2021-12-23T21:10:09UTC 2021-12-23T11:10:09-10:00 2021-12-23T10:10:09-11:00  21.31318 -157.88873     298   0.0 Hikianalia
  2021-12-23T20:18:43UTC 2021-12-23T10:18:43-10:00 2021-12-23T09:18:43-11:00  21.31307 -157.88898       0   0.0 Hōkūleʻa
  2021-12-23T20:09:39UTC 2021-12-23T10:09:39-10:00 2021-12-23T09:09:39-11:00  21.31314 -157.88866     180   0.0 Hikianalia
  2021-12-23T19:18:33UTC 2021-12-23T09:18:33-10:00 2021-12-23T08:18:33-11:00  21.31307 -157.88898       0   0.0 Hōkūleʻa
  2021-12-23T19:10:11UTC 2021-12-23T09:10:11-10:00 2021-12-23T08:10:11-11:00  21.31315 -157.88866      32   0.0 Hikianalia
  2021-12-23T18:17:34UTC 2021-12-23T08:17:34-10:00 2021-12-23T07:17:34-11:00  21.31307 -157.88898       0   0.0 Hōkūleʻa
  2021-12-23T18:09:47UTC 2021-12-23T08:09:47-10:00 2021-12-23T07:09:47-11:00  21.31312 -157.88868      90   0.0 Hikianalia
  2021-12-23T17:18:22UTC 2021-12-23T07:18:22-10:00 2021-12-23T06:18:22-11:00  21.31307 -157.88898       0   0.0 Hōkūleʻa
  2021-12-23T17:10:10UTC 2021-12-23T07:10:10-10:00 2021-12-23T06:10:10-11:00  21.31312 -157.88873       0   0.0 Hikianalia
  2021-12-23T16:18:42UTC 2021-12-23T06:18:42-10:00 2021-12-23T05:18:42-11:00  21.31307 -157.88898       0   0.0 Hōkūleʻa
  2021-12-23T16:10:13UTC 2021-12-23T06:10:13-10:00 2021-12-23T05:10:13-11:00  21.31310 -157.88873     260   0.0 Hikianalia
  2021-12-23T15:18:38UTC 2021-12-23T05:18:38-10:00 2021-12-23T04:18:38-11:00  21.31307 -157.88898       0   0.0 Hōkūleʻa
  2021-12-23T15:10:35UTC 2021-12-23T05:10:35-10:00 2021-12-23T04:10:35-11:00  21.31311 -157.88866     137   0.0 Hikianalia
  2021-12-23T14:18:28UTC 2021-12-23T04:18:28-10:00 2021-12-23T03:18:28-11:00  21.31307 -157.88898       0   0.0 Hōkūleʻa
  2021-12-23T14:10:20UTC 2021-12-23T04:10:20-10:00 2021-12-23T03:10:20-11:00  21.31313 -157.88868     328   0.0 Hikianalia
  2021-12-23T13:18:25UTC 2021-12-23T03:18:25-10:00 2021-12-23T02:18:25-11:00  21.31307 -157.88898       0   0.0 Hōkūleʻa
  2021-12-23T13:10:06UTC 2021-12-23T03:10:06-10:00 2021-12-23T02:10:06-11:00  21.31310 -157.88866     148   0.0 Hikianalia
  2021-12-23T12:18:58UTC 2021-12-23T02:18:58-10:00 2021-12-23T01:18:58-11:00  21.31307 -157.88898       0   0.0 Hōkūleʻa
  2021-12-23T12:10:43UTC 2021-12-23T02:10:43-10:00 2021-12-23T01:10:43-11:00  21.31313 -157.88868     343   0.0 Hikianalia
  2021-12-23T11:18:21UTC 2021-12-23T01:18:21-10:00 2021-12-23T00:18:21-11:00  21.31307 -157.88898       0   0.0 Hōkūleʻa
  2021-12-23T11:10:14UTC 2021-12-23T01:10:14-10:00 2021-12-23T00:10:14-11:00  21.31307 -157.88866     180   0.0 Hikianalia
  2021-12-23T10:18:33UTC 2021-12-23T00:18:33-10:00 2021-12-22T23:18:33-11:00  21.31307 -157.88898       0   0.0 Hōkūleʻa
  2021-12-23T10:16:06UTC 2021-12-23T00:16:06-10:00 2021-12-22T23:16:06-11:00  21.31311 -157.88866     171   0.0 Hikianalia
  2021-12-23T09:18:36UTC 2021-12-22T23:18:36-10:00 2021-12-22T22:18:36-11:00  21.31307 -157.88898       0   0.0 Hōkūleʻa
  2021-12-23T09:10:16UTC 2021-12-22T23:10:16-10:00 2021-12-22T22:10:16-11:00  21.31323 -157.88868       0   0.0 Hikianalia
  2021-12-23T08:18:48UTC 2021-12-22T22:18:48-10:00 2021-12-22T21:18:48-11:00  21.31307 -157.88898       0   0.0 Hōkūleʻa
  2021-12-23T08:10:16UTC 2021-12-22T22:10:16-10:00 2021-12-22T21:10:16-11:00  21.31310 -157.88868     241   0.0 Hikianalia
  2021-12-23T07:18:36UTC 2021-12-22T21:18:36-10:00 2021-12-22T20:18:36-11:00  21.31307 -157.88898       0   0.0 Hōkūleʻa
  2021-12-23T07:09:07UTC 2021-12-22T21:09:07-10:00 2021-12-22T20:09:07-11:00  21.31312 -157.88864      90   0.0 Hikianalia
  2021-12-23T06:18:30UTC 2021-12-22T20:18:30-10:00 2021-12-22T19:18:30-11:00  21.31307 -157.88898       0   0.0 Hōkūleʻa
  2021-12-23T06:10:38UTC 2021-12-22T20:10:38-10:00 2021-12-22T19:10:38-11:00  21.31312 -157.88866     118   0.0 Hikianalia
  2021-12-23T05:25:07UTC 2021-12-22T19:25:07-10:00 2021-12-22T18:25:07-11:00  21.31307 -157.88898       0   0.0 Hōkūleʻa
  2021-12-23T05:10:18UTC 2021-12-22T19:10:18-10:00 2021-12-22T18:10:18-11:00  21.31319 -157.88879     279   0.0 Hikianalia
  2021-12-23T04:18:46UTC 2021-12-22T18:18:46-10:00 2021-12-22T17:18:46-11:00  21.31307 -157.88898       0   0.0 Hōkūleʻa
  2021-12-23T04:10:11UTC 2021-12-22T18:10:11-10:00 2021-12-22T17:10:11-11:00  21.31317 -157.88864       0   0.0 Hikianalia
  2021-12-23T03:18:38UTC 2021-12-22T17:18:38-10:00 2021-12-22T16:18:38-11:00  21.31307 -157.88898       0   0.0 Hōkūleʻa
  2021-12-23T03:10:08UTC 2021-12-22T17:10:08-10:00 2021-12-22T16:10:08-11:00  21.31317 -157.88864     148   0.0 Hikianalia
  2021-12-23T02:28:06UTC 2021-12-22T16:28:06-10:00 2021-12-22T15:28:06-11:00  21.31307 -157.88898       0   0.0 Hōkūleʻa
  2021-12-23T02:09:48UTC 2021-12-22T16:09:48-10:00 2021-12-22T15:09:48-11:00  21.31320 -157.88866      25   0.0 Hikianalia
  2021-12-23T01:18:24UTC 2021-12-22T15:18:24-10:00 2021-12-22T14:18:24-11:00  21.31307 -157.88898       0   0.0 Hōkūleʻa
  2021-12-23T01:10:07UTC 2021-12-22T15:10:07-10:00 2021-12-22T14:10:07-11:00  21.31315 -157.88868     223   0.0 Hikianalia
  2021-12-23T00:17:41UTC 2021-12-22T14:17:41-10:00 2021-12-22T13:17:41-11:00  21.31307 -157.88898       0   0.0 Hōkūleʻa
  2021-12-23T00:09:09UTC 2021-12-22T14:09:09-10:00 2021-12-22T13:09:09-11:00  21.31318 -157.88866     180   0.0 Hikianalia
  2021-12-22T23:18:37UTC 2021-12-22T13:18:37-10:00 2021-12-22T12:18:37-11:00  21.31307 -157.88898       0   0.0 Hōkūleʻa
  2021-12-22T23:10:43UTC 2021-12-22T13:10:43-10:00 2021-12-22T12:10:43-11:00  21.31320 -157.88866     148   0.0 Hikianalia
  2021-12-22T22:17:32UTC 2021-12-22T12:17:32-10:00 2021-12-22T11:17:32-11:00  21.31307 -157.88898       0   0.0 Hōkūleʻa
  2021-12-22T22:09:17UTC 2021-12-22T12:09:17-10:00 2021-12-22T11:09:17-11:00  21.31323 -157.88868     118   0.0 Hikianalia
  2021-12-22T21:18:32UTC 2021-12-22T11:18:32-10:00 2021-12-22T10:18:32-11:00  21.31307 -157.88898       0   0.0 Hōkūleʻa
  2021-12-22T21:10:17UTC 2021-12-22T11:10:17-10:00 2021-12-22T10:10:17-11:00  21.31325 -157.88873     341   0.0 Hikianalia
  2021-12-22T20:17:49UTC 2021-12-22T10:17:49-10:00 2021-12-22T09:17:49-11:00  21.31307 -157.88898       0   0.0 Hōkūleʻa
  2021-12-22T20:09:45UTC 2021-12-22T10:09:45-10:00 2021-12-22T09:09:45-11:00  21.31313 -157.88868      18   0.0 Hikianalia
  2021-12-22T19:18:35UTC 2021-12-22T09:18:35-10:00 2021-12-22T08:18:35-11:00  21.31307 -157.88898       0   0.0 Hōkūleʻa
  2021-12-22T19:10:15UTC 2021-12-22T09:10:15-10:00 2021-12-22T08:10:15-11:00  21.31307 -157.88871     242   0.0 Hikianalia
  2021-12-22T18:18:33UTC 2021-12-22T08:18:33-10:00 2021-12-22T07:18:33-11:00  21.31307 -157.88898       0   0.0 Hōkūleʻa
  2021-12-22T18:10:12UTC 2021-12-22T08:10:12-10:00 2021-12-22T07:10:12-11:00  21.31309 -157.88866     105   0.0 Hikianalia
  2021-12-22T17:19:32UTC 2021-12-22T07:19:32-10:00 2021-12-22T06:19:32-11:00  21.31307 -157.88898       0   0.0 Hōkūleʻa
  2021-12-22T17:10:17UTC 2021-12-22T07:10:17-10:00 2021-12-22T06:10:17-11:00  21.31310 -157.88871     255   0.0 Hikianalia
  2021-12-22T16:18:55UTC 2021-12-22T06:18:55-10:00 2021-12-22T05:18:55-11:00  21.31307 -157.88898       0   0.0 Hōkūleʻa
  2021-12-22T16:10:47UTC 2021-12-22T06:10:47-10:00 2021-12-22T05:10:47-11:00  21.31311 -157.88866      90   0.0 Hikianalia
  2021-12-22T15:18:32UTC 2021-12-22T05:18:32-10:00 2021-12-22T04:18:32-11:00  21.31307 -157.88898       0   0.0 Hōkūleʻa
  2021-12-22T15:09:37UTC 2021-12-22T05:09:37-10:00 2021-12-22T04:09:37-11:00  21.31311 -157.88868     223   0.0 Hikianalia
  2021-12-22T14:17:32UTC 2021-12-22T04:17:32-10:00 2021-12-22T03:17:32-11:00  21.31307 -157.88898       0   0.0 Hōkūleʻa
  2021-12-22T14:10:07UTC 2021-12-22T04:10:07-10:00 2021-12-22T03:10:07-11:00  21.31315 -157.88864      62   0.0 Hikianalia
  2021-12-22T13:18:25UTC 2021-12-22T03:18:25-10:00 2021-12-22T02:18:25-11:00  21.31307 -157.88898       0   0.0 Hōkūleʻa
  2021-12-22T13:10:14UTC 2021-12-22T03:10:14-10:00 2021-12-22T02:10:14-11:00  21.31312 -157.88871     270   0.0 Hikianalia
  2021-12-22T12:18:49UTC 2021-12-22T02:18:49-10:00 2021-12-22T01:18:49-11:00  21.31307 -157.88898       0   0.0 Hōkūleʻa
  2021-12-22T12:10:39UTC 2021-12-22T02:10:39-10:00 2021-12-22T01:10:39-11:00  21.31312 -157.88866     328   0.0 Hikianalia
  2021-12-22T11:18:30UTC 2021-12-22T01:18:30-10:00 2021-12-22T00:18:30-11:00  21.31307 -157.88898       0   0.0 Hōkūleʻa
  2021-12-22T11:10:15UTC 2021-12-22T01:10:15-10:00 2021-12-22T00:10:15-11:00  21.31309 -157.88864     148   0.0 Hikianalia
  2021-12-22T10:17:23UTC 2021-12-22T00:17:23-10:00 2021-12-21T23:17:23-11:00  21.31307 -157.88898       0   0.0 Hōkūleʻa
  2021-12-22T10:10:47UTC 2021-12-22T00:10:47-10:00 2021-12-21T23:10:47-11:00  21.31312 -157.88866       0   0.0 Hikianalia
  2021-12-22T09:18:24UTC 2021-12-21T23:18:24-10:00 2021-12-21T22:18:24-11:00  21.31307 -157.88898       0   0.0 Hōkūleʻa
  2021-12-22T09:10:19UTC 2021-12-21T23:10:19-10:00 2021-12-21T22:10:19-11:00  21.31312 -157.88866     180   0.0 Hikianalia
  2021-12-22T08:18:39UTC 2021-12-21T22:18:39-10:00 2021-12-21T21:18:39-11:00  21.31307 -157.88898       0   0.0 Hōkūleʻa
  2021-12-22T08:10:37UTC 2021-12-21T22:10:37-10:00 2021-12-21T21:10:37-11:00  21.31315 -157.88866     287   0.0 Hikianalia
  2021-12-22T07:18:33UTC 2021-12-21T21:18:33-10:00 2021-12-21T20:18:33-11:00  21.31307 -157.88898       0   0.0 Hōkūleʻa
  2021-12-22T07:10:16UTC 2021-12-21T21:10:16-10:00 2021-12-21T20:10:16-11:00  21.31311 -157.88851      94   0.0 Hikianalia
  2021-12-22T06:18:32UTC 2021-12-21T20:18:32-10:00 2021-12-21T19:18:32-11:00  21.31307 -157.88898       0   0.0 Hōkūleʻa
  2021-12-22T06:09:46UTC 2021-12-21T20:09:46-10:00 2021-12-21T19:09:46-11:00  21.31312 -157.88868     212   0.0 Hikianalia
  2021-12-22T05:18:29UTC 2021-12-21T19:18:29-10:00 2021-12-21T18:18:29-11:00  21.31307 -157.88898       0   0.0 Hōkūleʻa
  2021-12-22T05:10:35UTC 2021-12-21T19:10:35-10:00 2021-12-21T18:10:35-11:00  21.31315 -157.88866     117   0.0 Hikianalia
  2021-12-22T04:18:46UTC 2021-12-21T18:18:46-10:00 2021-12-21T17:18:46-11:00  21.31307 -157.88898       0   0.0 Hōkūleʻa
  2021-12-22T04:10:14UTC 2021-12-21T18:10:14-10:00 2021-12-21T17:10:14-11:00  21.31317 -157.88868     317   0.0 Hikianalia
  2021-12-22T03:17:24UTC 2021-12-21T17:17:24-10:00 2021-12-21T16:17:24-11:00  21.31307 -157.88898       0   0.0 Hōkūleʻa
  2021-12-22T03:10:16UTC 2021-12-21T17:10:16-10:00 2021-12-21T16:10:16-11:00  21.31314 -157.88866     180   0.0 Hikianalia
  2021-12-22T02:18:22UTC 2021-12-21T16:18:22-10:00 2021-12-21T15:18:22-11:00  21.31307 -157.88898       0   0.0 Hōkūleʻa
  2021-12-22T02:09:39UTC 2021-12-21T16:09:39-10:00 2021-12-21T15:09:39-11:00  21.31320 -157.88866     130   0.0 Hikianalia
  2021-12-22T01:17:27UTC 2021-12-21T15:17:27-10:00 2021-12-21T14:17:27-11:00  21.31307 -157.88898       0   0.0 Hōkūleʻa
  2021-12-22T01:16:14UTC 2021-12-21T15:16:14-10:00 2021-12-21T14:16:14-11:00  21.31328 -157.88877     315   0.0 Hikianalia
  2021-12-22T00:27:02UTC 2021-12-21T14:27:02-10:00 2021-12-21T13:27:02-11:00  21.31307 -157.88898       0   0.0 Hōkūleʻa
  2021-12-22T00:10:19UTC 2021-12-21T14:10:19-10:00 2021-12-21T13:10:19-11:00  21.31314 -157.88862     148   0.0 Hikianalia
  2021-12-21T23:17:31UTC 2021-12-21T13:17:31-10:00 2021-12-21T12:17:31-11:00  21.31307 -157.88898       0   0.0 Hōkūleʻa
  2021-12-21T23:10:16UTC 2021-12-21T13:10:16-10:00 2021-12-21T12:10:16-11:00  21.31321 -157.88866       0   0.0 Hikianalia
  2021-12-21T22:17:24UTC 2021-12-21T12:17:24-10:00 2021-12-21T11:17:24-11:00  21.31307 -157.88898       0   0.0 Hōkūleʻa
  2021-12-21T22:09:45UTC 2021-12-21T12:09:45-10:00 2021-12-21T11:09:45-11:00  21.31318 -157.88866     105   0.0 Hikianalia
  2021-12-21T21:18:33UTC 2021-12-21T11:18:33-10:00 2021-12-21T10:18:33-11:00  21.31307 -157.88898       0   0.0 Hōkūleʻa
  2021-12-21T21:09:19UTC 2021-12-21T11:09:19-10:00 2021-12-21T10:09:19-11:00  21.31319 -157.88871     328   0.0 Hikianalia
  2021-12-21T20:18:47UTC 2021-12-21T10:18:47-10:00 2021-12-21T09:18:47-11:00  21.31307 -157.88898       0   0.0 Hōkūleʻa
  2021-12-21T20:10:44UTC 2021-12-21T10:10:44-10:00 2021-12-21T09:10:44-11:00  21.31312 -157.88866       0   0.0 Hikianalia
  2021-12-21T19:18:35UTC 2021-12-21T09:18:35-10:00 2021-12-21T08:18:35-11:00  21.31307 -157.88898       0   0.0 Hōkūleʻa
  2021-12-21T19:10:16UTC 2021-12-21T09:10:16-10:00 2021-12-21T08:10:16-11:00  21.31311 -157.88866     137   0.0 Hikianalia
  2021-12-21T18:20:35UTC 2021-12-21T08:20:35-10:00 2021-12-21T07:20:35-11:00  21.31313 -157.88868      62   0.0 Hikianalia
  2021-12-21T18:18:32UTC 2021-12-21T08:18:32-10:00 2021-12-21T07:18:32-11:00  21.31307 -157.88898       0   0.0 Hōkūleʻa
  2021-12-21T17:18:29UTC 2021-12-21T07:18:29-10:00 2021-12-21T06:18:29-11:00  21.31307 -157.88898       0   0.0 Hōkūleʻa
  2021-12-21T17:10:09UTC 2021-12-21T07:10:09-10:00 2021-12-21T06:10:09-11:00  21.31311 -157.88873     251   0.0 Hikianalia
  2021-12-21T16:18:49UTC 2021-12-21T06:18:49-10:00 2021-12-21T05:18:49-11:00  21.31307 -157.88898       0   0.0 Hōkūleʻa
  2021-12-21T16:10:14UTC 2021-12-21T06:10:14-10:00 2021-12-21T05:10:14-11:00  21.31313 -157.88866      25   0.0 Hikianalia
  2021-12-21T15:18:32UTC 2021-12-21T05:18:32-10:00 2021-12-21T04:18:32-11:00  21.31307 -157.88898       0   0.0 Hōkūleʻa
  2021-12-21T15:10:38UTC 2021-12-21T05:10:38-10:00 2021-12-21T04:10:38-11:00  21.31309 -157.88868      25   0.0 Hikianalia
  2021-12-21T14:18:30UTC 2021-12-21T04:18:30-10:00 2021-12-21T03:18:30-11:00  21.31307 -157.88898       0   0.0 Hōkūleʻa
  2021-12-21T14:10:42UTC 2021-12-21T04:10:42-10:00 2021-12-21T03:10:42-11:00  21.31300 -157.88873     186   0.0 Hikianalia
  2021-12-21T13:18:28UTC 2021-12-21T03:18:28-10:00 2021-12-21T02:18:28-11:00  21.31307 -157.88898       0   0.0 Hōkūleʻa
  2021-12-21T13:10:21UTC 2021-12-21T03:10:21-10:00 2021-12-21T02:10:21-11:00  21.31319 -157.88871     323   0.0 Hikianalia
  2021-12-21T12:18:48UTC 2021-12-21T02:18:48-10:00 2021-12-21T01:18:48-11:00  21.31307 -157.88898       0   0.0 Hōkūleʻa
  2021-12-21T12:10:46UTC 2021-12-21T02:10:46-10:00 2021-12-21T01:10:46-11:00  21.31313 -157.88866     180   0.0 Hikianalia
  2021-12-21T11:18:38UTC 2021-12-21T01:18:38-10:00 2021-12-21T00:18:38-11:00  21.31307 -157.88898       0   0.0 Hōkūleʻa
  2021-12-21T11:10:08UTC 2021-12-21T01:10:08-10:00 2021-12-21T00:10:08-11:00  21.31326 -157.88866      71   0.0 Hikianalia
  2021-12-21T10:18:27UTC 2021-12-21T00:18:27-10:00 2021-12-20T23:18:27-11:00  21.31307 -157.88898       0   0.0 Hōkūleʻa
  2021-12-21T10:16:07UTC 2021-12-21T00:16:07-10:00 2021-12-20T23:16:07-11:00  21.31324 -157.88873     309   0.0 Hikianalia
  2021-12-21T09:18:33UTC 2021-12-20T23:18:33-10:00 2021-12-20T22:18:33-11:00  21.31307 -157.88898       0   0.0 Hōkūleʻa
  2021-12-21T09:10:17UTC 2021-12-20T23:10:17-10:00 2021-12-20T22:10:17-11:00  21.31311 -157.88856      95   0.0 Hikianalia
  2021-12-21T08:18:39UTC 2021-12-20T22:18:39-10:00 2021-12-20T21:18:39-11:00  21.31307 -157.88898       0   0.0 Hōkūleʻa
  2021-12-21T08:10:41UTC 2021-12-20T22:10:41-10:00 2021-12-20T21:10:41-11:00  21.31312 -157.88868     255   0.0 Hikianalia
  2021-12-21T07:29:12UTC 2021-12-20T21:29:12-10:00 2021-12-20T20:29:12-11:00  21.31307 -157.88898       0   0.0 Hōkūleʻa
  2021-12-21T07:10:14UTC 2021-12-20T21:10:14-10:00 2021-12-20T20:10:14-11:00  21.31315 -157.88856     130   0.0 Hikianalia
  2021-12-21T06:18:33UTC 2021-12-20T20:18:33-10:00 2021-12-20T19:18:33-11:00  21.31307 -157.88898       0   0.0 Hōkūleʻa
  2021-12-21T06:10:36UTC 2021-12-20T20:10:36-10:00 2021-12-20T19:10:36-11:00  21.31330 -157.88875       7   0.0 Hikianalia
  2021-12-21T05:18:46UTC 2021-12-20T19:18:46-10:00 2021-12-20T18:18:46-11:00  21.31307 -157.88898       0   0.0 Hōkūleʻa
  2021-12-21T05:10:16UTC 2021-12-20T19:10:16-10:00 2021-12-20T18:10:16-11:00  21.31314 -157.88877     278   0.0 Hikianalia
  2021-12-21T04:26:38UTC 2021-12-20T18:26:38-10:00 2021-12-20T17:26:38-11:00  21.31307 -157.88898       0   0.0 Hōkūleʻa
  2021-12-21T04:10:40UTC 2021-12-20T18:10:40-10:00 2021-12-20T17:10:40-11:00  21.31313 -157.88868     270   0.0 Hikianalia
  2021-12-21T03:18:24UTC 2021-12-20T17:18:24-10:00 2021-12-20T16:18:24-11:00  21.31307 -157.88898       0   0.0 Hōkūleʻa
  2021-12-21T03:10:18UTC 2021-12-20T17:10:18-10:00 2021-12-20T16:10:18-11:00  21.31313 -157.88862     242   0.0 Hikianalia
  2021-12-21T02:17:46UTC 2021-12-20T16:17:46-10:00 2021-12-20T15:17:46-11:00  21.31307 -157.88898       0   0.0 Hōkūleʻa
  2021-12-21T02:09:14UTC 2021-12-20T16:09:14-10:00 2021-12-20T15:09:14-11:00  21.31314 -157.88860      79   0.0 Hikianalia
  2021-12-21T01:18:24UTC 2021-12-20T15:18:24-10:00 2021-12-20T14:18:24-11:00  21.31307 -157.88898       0   0.0 Hōkūleʻa
  2021-12-21T01:10:07UTC 2021-12-20T15:10:07-10:00 2021-12-20T14:10:07-11:00  21.31311 -157.88877     208   0.0 Hikianalia
  2021-12-21T00:17:40UTC 2021-12-20T14:17:40-10:00 2021-12-20T13:17:40-11:00  21.31307 -157.88898       0   0.0 Hōkūleʻa
  2021-12-21T00:09:45UTC 2021-12-20T14:09:45-10:00 2021-12-20T13:09:45-11:00  21.31319 -157.88873     270   0.0 Hikianalia
  2021-12-20T23:18:22UTC 2021-12-20T13:18:22-10:00 2021-12-20T12:18:22-11:00  21.31307 -157.88898       0   0.0 Hōkūleʻa
  2021-12-20T23:10:18UTC 2021-12-20T13:10:18-10:00 2021-12-20T12:10:18-11:00  21.31319 -157.88862      43   0.0 Hikianalia
  2021-12-20T22:18:00UTC 2021-12-20T12:18:00-10:00 2021-12-20T11:18:00-11:00  21.31307 -157.88898       0   0.0 Hōkūleʻa
  2021-12-20T22:09:14UTC 2021-12-20T12:09:14-10:00 2021-12-20T11:09:14-11:00  21.31314 -157.88866     108   0.0 Hikianalia
  2021-12-20T21:26:54UTC 2021-12-20T11:26:54-10:00 2021-12-20T10:26:54-11:00  21.31307 -157.88898       0   0.0 Hōkūleʻa
  2021-12-20T21:10:23UTC 2021-12-20T11:10:23-10:00 2021-12-20T10:10:23-11:00  21.31318 -157.88877     303   0.0 Hikianalia
  2021-12-20T20:18:26UTC 2021-12-20T10:18:26-10:00 2021-12-20T09:18:26-11:00  21.31307 -157.88898       0   0.0 Hōkūleʻa
  2021-12-20T20:09:39UTC 2021-12-20T10:09:39-10:00 2021-12-20T09:09:39-11:00  21.31312 -157.88868      61   0.0 Hikianalia
  2021-12-20T19:18:33UTC 2021-12-20T09:18:33-10:00 2021-12-20T08:18:33-11:00  21.31307 -157.88898       0   0.0 Hōkūleʻa
  2021-12-20T19:10:14UTC 2021-12-20T09:10:14-10:00 2021-12-20T08:10:14-11:00  21.31310 -157.88873     270   0.0 Hikianalia
  2021-12-20T18:19:42UTC 2021-12-20T08:19:42-10:00 2021-12-20T07:19:42-11:00  21.31310 -157.88871     119   0.0 Hikianalia
  2021-12-20T18:17:47UTC 2021-12-20T08:17:47-10:00 2021-12-20T07:17:47-11:00  21.31307 -157.88898       0   0.0 Hōkūleʻa
  2021-12-20T17:18:22UTC 2021-12-20T07:18:22-10:00 2021-12-20T06:18:22-11:00  21.31307 -157.88898       0   0.0 Hōkūleʻa
  2021-12-20T17:09:07UTC 2021-12-20T07:09:07-10:00 2021-12-20T06:09:07-11:00  21.31311 -157.88873     299   0.0 Hikianalia
  2021-12-20T16:19:24UTC 2021-12-20T06:19:24-10:00 2021-12-20T05:19:24-11:00  21.31307 -157.88898       0   0.0 Hōkūleʻa
  2021-12-20T16:10:06UTC 2021-12-20T06:10:06-10:00 2021-12-20T05:10:06-11:00  21.31310 -157.88871     255   0.0 Hikianalia
  2021-12-20T15:17:56UTC 2021-12-20T05:17:56-10:00 2021-12-20T04:17:56-11:00  21.31307 -157.88898       0   0.0 Hōkūleʻa
  2021-12-20T15:10:44UTC 2021-12-20T05:10:44-10:00 2021-12-20T04:10:44-11:00  21.31311 -157.88866     128   0.0 Hikianalia
  2021-12-20T14:18:29UTC 2021-12-20T04:18:29-10:00 2021-12-20T03:18:29-11:00  21.31307 -157.88898       0   0.0 Hōkūleʻa
  2021-12-20T14:10:15UTC 2021-12-20T04:10:15-10:00 2021-12-20T03:10:15-11:00  21.31314 -157.88871     298   0.0 Hikianalia
  2021-12-20T13:18:33UTC 2021-12-20T03:18:33-10:00 2021-12-20T02:18:33-11:00  21.31307 -157.88898       0   0.0 Hōkūleʻa
  2021-12-20T13:10:14UTC 2021-12-20T03:10:14-10:00 2021-12-20T02:10:14-11:00  21.31310 -157.88862     119   0.0 Hikianalia
  2021-12-20T12:18:40UTC 2021-12-20T02:18:40-10:00 2021-12-20T01:18:40-11:00  21.31307 -157.88898       0   0.0 Hōkūleʻa
  2021-12-20T12:10:38UTC 2021-12-20T02:10:38-10:00 2021-12-20T01:10:38-11:00  21.31312 -157.88866     180   0.0 Hikianalia
  2021-12-20T11:18:28UTC 2021-12-20T01:18:28-10:00 2021-12-20T00:18:28-11:00  21.31307 -157.88898       0   0.0 Hōkūleʻa
  2021-12-20T11:10:17UTC 2021-12-20T01:10:17-10:00 2021-12-20T00:10:17-11:00  21.31313 -157.88866       0   0.0 Hikianalia
  2021-12-20T10:18:24UTC 2021-12-20T00:18:24-10:00 2021-12-19T23:18:24-11:00  21.31307 -157.88898       0   0.0 Hōkūleʻa
  2021-12-20T10:10:12UTC 2021-12-20T00:10:12-10:00 2021-12-19T23:10:12-11:00  21.31308 -157.88866     160   0.0 Hikianalia
  2021-12-20T09:26:03UTC 2021-12-19T23:26:03-10:00 2021-12-19T22:26:03-11:00  21.31307 -157.88898       0   0.0 Hōkūleʻa
  2021-12-20T09:10:17UTC 2021-12-19T23:10:17-10:00 2021-12-19T22:10:17-11:00  21.31313 -157.88868       0   0.0 Hikianalia
  2021-12-20T08:18:37UTC 2021-12-19T22:18:37-10:00 2021-12-19T21:18:37-11:00  21.31307 -157.88898       0   0.0 Hōkūleʻa
  2021-12-20T08:17:04UTC 2021-12-19T22:17:04-10:00 2021-12-19T21:17:04-11:00  21.31310 -157.88868       0   0.0 Hikianalia
  2021-12-20T07:17:32UTC 2021-12-19T21:17:32-10:00 2021-12-19T20:17:32-11:00  21.31307 -157.88898       0   0.0 Hōkūleʻa
  2021-12-20T07:10:16UTC 2021-12-19T21:10:16-10:00 2021-12-19T20:10:16-11:00  21.31309 -157.88868     250   0.0 Hikianalia
  2021-12-20T06:18:40UTC 2021-12-19T20:18:40-10:00 2021-12-19T19:18:40-11:00  21.31307 -157.88898       0   0.0 Hōkūleʻa
  2021-12-20T06:10:18UTC 2021-12-19T20:10:18-10:00 2021-12-19T19:10:18-11:00  21.31311 -157.88862      98   0.0 Hikianalia
  2021-12-20T05:17:29UTC 2021-12-19T19:17:29-10:00 2021-12-19T18:17:29-11:00  21.31307 -157.88898       0   0.0 Hōkūleʻa
  2021-12-20T05:10:10UTC 2021-12-19T19:10:10-10:00 2021-12-19T18:10:10-11:00  21.31312 -157.88871     270   0.0 Hikianalia
  2021-12-20T04:18:24UTC 2021-12-19T18:18:24-10:00 2021-12-19T17:18:24-11:00  21.31307 -157.88898       0   0.0 Hōkūleʻa
  2021-12-20T04:10:48UTC 2021-12-19T18:10:48-10:00 2021-12-19T17:10:48-11:00  21.31312 -157.88866     109   0.0 Hikianalia
  2021-12-20T03:18:24UTC 2021-12-19T17:18:24-10:00 2021-12-19T16:18:24-11:00  21.31307 -157.88898       0   0.0 Hōkūleʻa
  2021-12-20T03:10:17UTC 2021-12-19T17:10:17-10:00 2021-12-19T16:10:17-11:00  21.31314 -157.88873     304   0.0 Hikianalia
  2021-12-20T02:17:48UTC 2021-12-19T16:17:48-10:00 2021-12-19T15:17:48-11:00  21.31307 -157.88898       0   0.0 Hōkūleʻa
  2021-12-20T02:09:14UTC 2021-12-19T16:09:14-10:00 2021-12-19T15:09:14-11:00  21.31309 -157.88864     148   0.0 Hikianalia
  2021-12-20T01:18:24UTC 2021-12-19T15:18:24-10:00 2021-12-19T14:18:24-11:00  21.31307 -157.88898       0   0.0 Hōkūleʻa
  2021-12-20T01:10:14UTC 2021-12-19T15:10:14-10:00 2021-12-19T14:10:14-11:00  21.31315 -157.88868     116   0.0 Hikianalia
  2021-12-20T00:17:32UTC 2021-12-19T14:17:32-10:00 2021-12-19T13:17:32-11:00  21.31307 -157.88898       0   0.0 Hōkūleʻa
  2021-12-20T00:09:37UTC 2021-12-19T14:09:37-10:00 2021-12-19T13:09:37-11:00  21.31317 -157.88871     270   0.0 Hikianalia
  2021-12-19T23:18:30UTC 2021-12-19T13:18:30-10:00 2021-12-19T12:18:30-11:00  21.31307 -157.88898       0   0.0 Hōkūleʻa
  2021-12-19T23:10:15UTC 2021-12-19T13:10:15-10:00 2021-12-19T12:10:15-11:00  21.31317 -157.88866      81   0.0 Hikianalia
  2021-12-19T22:17:49UTC 2021-12-19T12:17:49-10:00 2021-12-19T11:17:49-11:00  21.31307 -157.88898       0   0.0 Hōkūleʻa
  2021-12-19T22:10:24UTC 2021-12-19T12:10:24-10:00 2021-12-19T11:10:24-11:00  21.31315 -157.88873     312   0.0 Hikianalia
  2021-12-19T21:18:38UTC 2021-12-19T11:18:38-10:00 2021-12-19T10:18:38-11:00  21.31307 -157.88898       0   0.0 Hōkūleʻa
  2021-12-19T21:09:09UTC 2021-12-19T11:09:09-10:00 2021-12-19T10:09:09-11:00  21.31310 -157.88866     138   0.0 Hikianalia
  2021-12-19T20:18:31UTC 2021-12-19T10:18:31-10:00 2021-12-19T09:18:31-11:00  21.31307 -157.88898       0   0.0 Hōkūleʻa
  2021-12-19T20:10:40UTC 2021-12-19T10:10:40-10:00 2021-12-19T09:10:40-11:00  21.31312 -157.88868      55   0.0 Hikianalia
  2021-12-19T19:17:32UTC 2021-12-19T09:17:32-10:00 2021-12-19T08:17:32-11:00  21.31307 -157.88898       0   0.0 Hōkūleʻa
  2021-12-19T19:09:14UTC 2021-12-19T09:09:14-10:00 2021-12-19T08:09:14-11:00  21.31308 -157.88875     242   0.0 Hikianalia
  2021-12-19T18:18:41UTC 2021-12-19T08:18:41-10:00 2021-12-19T07:18:41-11:00  21.31307 -157.88898       0   0.0 Hōkūleʻa
  2021-12-19T18:10:09UTC 2021-12-19T08:10:09-10:00 2021-12-19T07:10:09-11:00  21.31312 -157.88866       0   0.0 Hikianalia
  2021-12-19T17:18:36UTC 2021-12-19T07:18:36-10:00 2021-12-19T06:18:36-11:00  21.31307 -157.88898       0   0.0 Hōkūleʻa
  2021-12-19T17:10:15UTC 2021-12-19T07:10:15-10:00 2021-12-19T06:10:15-11:00  21.31311 -157.88866     180   0.0 Hikianalia
  2021-12-19T16:20:35UTC 2021-12-19T06:20:35-10:00 2021-12-19T05:20:35-11:00  21.31312 -157.88866     104   0.0 Hikianalia
  2021-12-19T16:18:24UTC 2021-12-19T06:18:24-10:00 2021-12-19T05:18:24-11:00  21.31307 -157.88898       0   0.0 Hōkūleʻa
  2021-12-19T15:18:24UTC 2021-12-19T05:18:24-10:00 2021-12-19T04:18:24-11:00  21.31307 -157.88898       0   0.0 Hōkūleʻa
  2021-12-19T15:10:46UTC 2021-12-19T05:10:46-10:00 2021-12-19T04:10:46-11:00  21.31313 -157.88871       0   0.0 Hikianalia
  2021-12-19T14:17:49UTC 2021-12-19T04:17:49-10:00 2021-12-19T03:17:49-11:00  21.31307 -157.88898       0   0.0 Hōkūleʻa
  2021-12-19T14:10:09UTC 2021-12-19T04:10:09-10:00 2021-12-19T03:10:09-11:00  21.31309 -157.88871     242   0.0 Hikianalia
  2021-12-19T13:18:27UTC 2021-12-19T03:18:27-10:00 2021-12-19T02:18:27-11:00  21.31307 -157.88898       0   0.0 Hōkūleʻa
  2021-12-19T13:10:14UTC 2021-12-19T03:10:14-10:00 2021-12-19T02:10:14-11:00  21.31310 -157.88868     241   0.0 Hikianalia
  2021-12-19T12:18:26UTC 2021-12-19T02:18:26-10:00 2021-12-19T01:18:26-11:00  21.31307 -157.88898       0   0.0 Hōkūleʻa
  2021-12-19T12:10:46UTC 2021-12-19T02:10:46-10:00 2021-12-19T01:10:46-11:00  21.31311 -157.88866     141   0.0 Hikianalia
  2021-12-19T11:18:23UTC 2021-12-19T01:18:23-10:00 2021-12-19T00:18:23-11:00  21.31307 -157.88898       0   0.0 Hōkūleʻa
  2021-12-19T11:10:08UTC 2021-12-19T01:10:08-10:00 2021-12-19T00:10:08-11:00  21.31319 -157.88873     321   0.0 Hikianalia
  2021-12-19T10:18:47UTC 2021-12-19T00:18:47-10:00 2021-12-18T23:18:47-11:00  21.31307 -157.88898       0   0.0 Hōkūleʻa
  2021-12-19T10:10:47UTC 2021-12-19T00:10:47-10:00 2021-12-18T23:10:47-11:00  21.31311 -157.88866       0   0.0 Hikianalia
  2021-12-19T09:18:35UTC 2021-12-18T23:18:35-10:00 2021-12-18T22:18:35-11:00  21.31307 -157.88898       0   0.0 Hōkūleʻa
  2021-12-19T09:09:18UTC 2021-12-18T23:09:18-10:00 2021-12-18T22:09:18-11:00  21.31310 -157.88866     138   0.0 Hikianalia
  2021-12-19T08:18:21UTC 2021-12-18T22:18:21-10:00 2021-12-18T21:18:21-11:00  21.31307 -157.88898       0   0.0 Hōkūleʻa
  2021-12-19T08:10:36UTC 2021-12-18T22:10:36-10:00 2021-12-18T21:10:36-11:00  21.31312 -157.88868     205   0.0 Hikianalia
  2021-12-19T07:18:32UTC 2021-12-18T21:18:32-10:00 2021-12-18T20:18:32-11:00  21.31307 -157.88898       0   0.0 Hōkūleʻa
  2021-12-19T07:10:07UTC 2021-12-18T21:10:07-10:00 2021-12-18T20:10:07-11:00  21.31317 -157.88866       0   0.0 Hikianalia
  2021-12-19T06:18:49UTC 2021-12-18T20:18:49-10:00 2021-12-18T19:18:49-11:00  21.31307 -157.88898       0   0.0 Hōkūleʻa
  2021-12-19T06:10:46UTC 2021-12-18T20:10:46-10:00 2021-12-18T19:10:46-11:00  21.31312 -157.88866     270   0.0 Hikianalia
  2021-12-19T05:18:35UTC 2021-12-18T19:18:35-10:00 2021-12-18T18:18:35-11:00  21.31307 -157.88898       0   0.0 Hōkūleʻa
  2021-12-19T05:10:17UTC 2021-12-18T19:10:17-10:00 2021-12-18T18:10:17-11:00  21.31312 -157.88864     136   0.0 Hikianalia
  2021-12-19T04:17:31UTC 2021-12-18T18:17:31-10:00 2021-12-18T17:17:31-11:00  21.31307 -157.88898       0   0.0 Hōkūleʻa
  2021-12-19T04:10:06UTC 2021-12-18T18:10:06-10:00 2021-12-18T17:10:06-11:00  21.31314 -157.88866      43   0.0 Hikianalia
  2021-12-19T03:18:24UTC 2021-12-18T17:18:24-10:00 2021-12-18T16:18:24-11:00  21.31307 -157.88898       0   0.0 Hōkūleʻa
  2021-12-19T03:10:01UTC 2021-12-18T17:10:01-10:00 2021-12-18T16:10:01-11:00  21.31312 -157.88868     180   0.0 Hikianalia
  2021-12-19T02:17:38UTC 2021-12-18T16:17:38-10:00 2021-12-18T15:17:38-11:00  21.31307 -157.88898       0   0.0 Hōkūleʻa
  2021-12-19T02:10:36UTC 2021-12-18T16:10:36-10:00 2021-12-18T15:10:36-11:00  21.31313 -157.88868     159   0.0 Hikianalia
  2021-12-19T01:18:29UTC 2021-12-18T15:18:29-10:00 2021-12-18T14:18:29-11:00  21.31307 -157.88898       0   0.0 Hōkūleʻa
  2021-12-19T01:10:17UTC 2021-12-18T15:10:17-10:00 2021-12-18T14:10:17-11:00  21.31319 -157.88871     180   0.0 Hikianalia
  2021-12-19T00:18:31UTC 2021-12-18T14:18:31-10:00 2021-12-18T13:18:31-11:00  21.31307 -157.88898       0   0.0 Hōkūleʻa
  2021-12-19T00:09:17UTC 2021-12-18T14:09:17-10:00 2021-12-18T13:09:17-11:00  21.31321 -157.88871     328   0.0 Hikianalia
  2021-12-18T23:17:21UTC 2021-12-18T13:17:21-10:00 2021-12-18T12:17:21-11:00  21.31307 -157.88898       0   0.0 Hōkūleʻa
  2021-12-18T23:10:16UTC 2021-12-18T13:10:16-10:00 2021-12-18T12:10:16-11:00  21.31314 -157.88866      61   0.0 Hikianalia
  2021-12-18T22:27:21UTC 2021-12-18T12:27:21-10:00 2021-12-18T11:27:21-11:00  21.31307 -157.88898       0   0.0 Hōkūleʻa
  2021-12-18T22:09:40UTC 2021-12-18T12:09:40-10:00 2021-12-18T11:09:40-11:00  21.31313 -157.88868     147   0.0 Hikianalia
  2021-12-18T21:18:33UTC 2021-12-18T11:18:33-10:00 2021-12-18T10:18:33-11:00  21.31307 -157.88898       0   0.0 Hōkūleʻa
  2021-12-18T21:18:07UTC 2021-12-18T11:18:07-10:00 2021-12-18T10:18:07-11:00  21.31317 -157.88871       0   0.0 Hikianalia
  2021-12-18T20:17:29UTC 2021-12-18T10:17:29-10:00 2021-12-18T09:17:29-11:00  21.31307 -157.88898       0   0.0 Hōkūleʻa
  2021-12-18T20:09:16UTC 2021-12-18T10:09:16-10:00 2021-12-18T09:09:16-11:00  21.31314 -157.88871     242   0.0 Hikianalia
  2021-12-18T19:18:26UTC 2021-12-18T09:18:26-10:00 2021-12-18T08:18:26-11:00  21.31307 -157.88898       0   0.0 Hōkūleʻa
  2021-12-18T19:10:12UTC 2021-12-18T09:10:12-10:00 2021-12-18T08:10:12-11:00  21.31315 -157.88868      33   0.0 Hikianalia
  2021-12-18T18:18:48UTC 2021-12-18T08:18:48-10:00 2021-12-18T07:18:48-11:00  21.31307 -157.88898       0   0.0 Hōkūleʻa
  2021-12-18T18:10:42UTC 2021-12-18T08:10:42-10:00 2021-12-18T07:10:42-11:00  21.31312 -157.88871     288   0.0 Hikianalia
  2021-12-18T17:19:38UTC 2021-12-18T07:19:38-10:00 2021-12-18T06:19:38-11:00  21.31307 -157.88898       0   0.0 Hōkūleʻa
  2021-12-18T17:10:14UTC 2021-12-18T07:10:14-10:00 2021-12-18T06:10:14-11:00  21.31309 -157.88860     102   0.0 Hikianalia
  2021-12-18T16:17:41UTC 2021-12-18T06:17:41-10:00 2021-12-18T05:17:41-11:00  21.31307 -157.88898       0   0.0 Hōkūleʻa
  2021-12-18T16:10:38UTC 2021-12-18T06:10:38-10:00 2021-12-18T05:10:38-11:00  21.31311 -157.88871     270   0.0 Hikianalia
  2021-12-18T15:18:24UTC 2021-12-18T05:18:24-10:00 2021-12-18T04:18:24-11:00  21.31307 -157.88898       0   0.0 Hōkūleʻa
  2021-12-18T15:10:45UTC 2021-12-18T05:10:45-10:00 2021-12-18T04:10:45-11:00  21.31311 -157.88860     109   0.0 Hikianalia
  2021-12-18T14:18:38UTC 2021-12-18T04:18:38-10:00 2021-12-18T03:18:38-11:00  21.31307 -157.88898       0   0.0 Hōkūleʻa
  2021-12-18T14:10:16UTC 2021-12-18T04:10:16-10:00 2021-12-18T03:10:16-11:00  21.31313 -157.88866      98   0.0 Hikianalia
  2021-12-18T13:18:37UTC 2021-12-18T03:18:37-10:00 2021-12-18T02:18:37-11:00  21.31307 -157.88898       0   0.0 Hōkūleʻa
  2021-12-18T13:10:16UTC 2021-12-18T03:10:16-10:00 2021-12-18T02:10:16-11:00  21.31314 -157.88875     292   0.0 Hikianalia
  2021-12-18T12:18:31UTC 2021-12-18T02:18:31-10:00 2021-12-18T01:18:31-11:00  21.31307 -157.88898       0   0.0 Hōkūleʻa
  2021-12-18T12:10:46UTC 2021-12-18T02:10:46-10:00 2021-12-18T01:10:46-11:00  21.31311 -157.88866       0   0.0 Hikianalia
  2021-12-18T11:18:30UTC 2021-12-18T01:18:30-10:00 2021-12-18T00:18:30-11:00  21.31307 -157.88898       0   0.0 Hōkūleʻa
  2021-12-18T11:10:23UTC 2021-12-18T01:10:23-10:00 2021-12-18T00:10:23-11:00  21.31310 -157.88866      90   0.0 Hikianalia
  2021-12-18T10:18:44UTC 2021-12-18T00:18:44-10:00 2021-12-17T23:18:44-11:00  21.31307 -157.88898       0   0.0 Hōkūleʻa
  2021-12-18T10:09:11UTC 2021-12-18T00:09:11-10:00 2021-12-17T23:09:11-11:00  21.31310 -157.88868      75   0.0 Hikianalia
  2021-12-18T09:18:38UTC 2021-12-17T23:18:38-10:00 2021-12-17T22:18:38-11:00  21.31307 -157.88898       0   0.0 Hōkūleʻa
  2021-12-18T09:10:08UTC 2021-12-17T23:10:08-10:00 2021-12-17T22:10:08-11:00  21.31309 -157.88873     223   0.0 Hikianalia
  2021-12-18T08:18:35UTC 2021-12-17T22:18:35-10:00 2021-12-17T21:18:35-11:00  21.31307 -157.88898      75   0.0 Hōkūleʻa
  2021-12-18T08:10:42UTC 2021-12-17T22:10:42-10:00 2021-12-17T21:10:42-11:00  21.31313 -157.88868      83   0.0 Hikianalia
  2021-12-18T07:18:45UTC 2021-12-17T21:18:45-10:00 2021-12-17T20:18:45-11:00  21.31304 -157.88911       0   0.0 Hōkūleʻa
  2021-12-18T07:09:06UTC 2021-12-17T21:09:06-10:00 2021-12-17T20:09:06-11:00  21.31312 -157.88877     270   0.0 Hikianalia
  2021-12-18T06:18:46UTC 2021-12-17T20:18:46-10:00 2021-12-17T19:18:46-11:00  21.31304 -157.88911       0   0.0 Hōkūleʻa
  2021-12-18T06:10:10UTC 2021-12-17T20:10:10-10:00 2021-12-17T19:10:10-11:00  21.31312 -157.88866     117   0.0 Hikianalia
  2021-12-18T05:17:30UTC 2021-12-17T19:17:30-10:00 2021-12-17T18:17:30-11:00  21.31304 -157.88911       0   0.0 Hōkūleʻa
  2021-12-18T05:10:43UTC 2021-12-17T19:10:43-10:00 2021-12-17T18:10:43-11:00  21.31313 -157.88868     212   0.0 Hikianalia
  2021-12-18T04:18:25UTC 2021-12-17T18:18:25-10:00 2021-12-17T17:18:25-11:00  21.31304 -157.88911       0   0.0 Hōkūleʻa
  2021-12-18T04:10:06UTC 2021-12-17T18:10:06-10:00 2021-12-17T17:10:06-11:00  21.31317 -157.88866       0   0.0 Hikianalia
  2021-12-18T03:18:31UTC 2021-12-17T17:18:31-10:00 2021-12-17T16:18:31-11:00  21.31304 -157.88911       0   0.0 Hōkūleʻa
  2021-12-18T03:10:16UTC 2021-12-17T17:10:16-10:00 2021-12-17T16:10:16-11:00  21.31313 -157.88866     180   0.0 Hikianalia
  2021-12-18T02:28:59UTC 2021-12-17T16:28:59-10:00 2021-12-17T15:28:59-11:00  21.31320 -157.88866     123   0.0 Hikianalia
  2021-12-18T02:18:47UTC 2021-12-17T16:18:47-10:00 2021-12-17T15:18:47-11:00  21.31304 -157.88911       0   0.0 Hōkūleʻa
  2021-12-18T01:17:25UTC 2021-12-17T15:17:25-10:00 2021-12-17T14:17:25-11:00  21.31304 -157.88911       0   0.0 Hōkūleʻa
  2021-12-18T01:09:28UTC 2021-12-17T15:09:28-10:00 2021-12-17T14:09:28-11:00  21.31326 -157.88877     319   0.0 Hikianalia
  2021-12-18T00:18:32UTC 2021-12-17T14:18:32-10:00 2021-12-17T13:18:32-11:00  21.31304 -157.88911       0   0.0 Hōkūleʻa
  2021-12-18T00:10:10UTC 2021-12-17T14:10:10-10:00 2021-12-17T13:10:10-11:00  21.31310 -157.88862     155   0.0 Hikianalia
  2021-12-17T23:17:29UTC 2021-12-17T13:17:29-10:00 2021-12-17T12:17:29-11:00  21.31304 -157.88911       0   0.0 Hōkūleʻa
  2021-12-17T23:09:17UTC 2021-12-17T13:09:17-10:00 2021-12-17T12:09:17-11:00  21.31319 -157.88866       0   0.0 Hikianalia
  2021-12-17T22:17:40UTC 2021-12-17T12:17:40-10:00 2021-12-17T11:17:40-11:00  21.31304 -157.88911       0   0.0 Hōkūleʻa
  2021-12-17T22:10:38UTC 2021-12-17T12:10:38-10:00 2021-12-17T11:10:38-11:00  21.31315 -157.88866     244   0.0 Hikianalia
  2021-12-17T21:18:31UTC 2021-12-17T11:18:31-10:00 2021-12-17T10:18:31-11:00  21.31304 -157.88911       0   0.0 Hōkūleʻa
  2021-12-17T21:09:46UTC 2021-12-17T11:09:46-10:00 2021-12-17T10:09:46-11:00  21.31317 -157.88864      44   0.0 Hikianalia
  2021-12-17T20:17:29UTC 2021-12-17T10:17:29-10:00 2021-12-17T09:17:29-11:00  21.31304 -157.88911       0   0.0 Hōkūleʻa
  2021-12-17T20:09:15UTC 2021-12-17T10:09:15-10:00 2021-12-17T09:09:15-11:00  21.31314 -157.88866      75   0.0 Hikianalia
  2021-12-17T19:27:33UTC 2021-12-17T09:27:33-10:00 2021-12-17T08:27:33-11:00  21.31304 -157.88911       0   0.0 Hōkūleʻa
  2021-12-17T19:10:06UTC 2021-12-17T09:10:06-10:00 2021-12-17T08:10:06-11:00  21.31313 -157.88871     296   0.0 Hikianalia
  2021-12-17T18:18:46UTC 2021-12-17T08:18:46-10:00 2021-12-17T07:18:46-11:00  21.31304 -157.88911       0   0.0 Hōkūleʻa
  2021-12-17T18:10:46UTC 2021-12-17T08:10:46-10:00 2021-12-17T07:10:46-11:00  21.31312 -157.88868     255   0.0 Hikianalia
  2021-12-17T17:18:30UTC 2021-12-17T07:18:30-10:00 2021-12-17T06:18:30-11:00  21.31304 -157.88911       0   0.0 Hōkūleʻa
  2021-12-17T17:10:15UTC 2021-12-17T07:10:15-10:00 2021-12-17T06:10:15-11:00  21.31315 -157.88856      70   0.0 Hikianalia
  2021-12-17T16:19:26UTC 2021-12-17T06:19:26-10:00 2021-12-17T05:19:26-11:00  21.31304 -157.88911       0   0.0 Hōkūleʻa
  2021-12-17T16:10:06UTC 2021-12-17T06:10:06-10:00 2021-12-17T05:10:06-11:00  21.31311 -157.88868       0   0.0 Hikianalia
  2021-12-17T15:18:48UTC 2021-12-17T05:18:48-10:00 2021-12-17T04:18:48-11:00  21.31304 -157.88911       0   0.0 Hōkūleʻa
  2021-12-17T15:10:48UTC 2021-12-17T05:10:48-10:00 2021-12-17T04:10:48-11:00  21.31310 -157.88868     180   0.0 Hikianalia
  2021-12-17T14:17:38UTC 2021-12-17T04:17:38-10:00 2021-12-17T03:17:38-11:00  21.31304 -157.88911       0   0.0 Hōkūleʻa
  2021-12-17T14:10:44UTC 2021-12-17T04:10:44-10:00 2021-12-17T03:10:44-11:00  21.31315 -157.88868      55   0.0 Hikianalia
  2021-12-17T13:18:24UTC 2021-12-17T03:18:24-10:00 2021-12-17T02:18:24-11:00  21.31304 -157.88911       0   0.0 Hōkūleʻa
  2021-12-17T13:10:16UTC 2021-12-17T03:10:16-10:00 2021-12-17T02:10:16-11:00  21.31311 -157.88875     260   0.0 Hikianalia
  2021-12-17T12:18:49UTC 2021-12-17T02:18:49-10:00 2021-12-17T01:18:49-11:00  21.31304 -157.88911       0   0.0 Hōkūleʻa
  2021-12-17T12:10:38UTC 2021-12-17T02:10:38-10:00 2021-12-17T01:10:38-11:00  21.31312 -157.88868     104   0.0 Hikianalia
  2021-12-17T11:18:38UTC 2021-12-17T01:18:38-10:00 2021-12-17T00:18:38-11:00  21.31304 -157.88911       0   0.0 Hōkūleʻa
  2021-12-17T11:10:16UTC 2021-12-17T01:10:16-10:00 2021-12-17T00:10:16-11:00  21.31313 -157.88873      25   0.0 Hikianalia
  2021-12-17T10:18:32UTC 2021-12-17T00:18:32-10:00 2021-12-16T23:18:32-11:00  21.31304 -157.88911       0   0.0 Hōkūleʻa
  2021-12-17T10:10:15UTC 2021-12-17T00:10:15-10:00 2021-12-16T23:10:15-11:00  21.31305 -157.88877     241   0.0 Hikianalia
  2021-12-17T09:19:22UTC 2021-12-16T23:19:22-10:00 2021-12-16T22:19:22-11:00  21.31304 -157.88911       0   0.0 Hōkūleʻa
  2021-12-17T09:10:08UTC 2021-12-16T23:10:08-10:00 2021-12-16T22:10:08-11:00  21.31308 -157.88871     206   0.0 Hikianalia
  2021-12-17T08:19:01UTC 2021-12-16T22:19:01-10:00 2021-12-16T21:19:01-11:00  21.31304 -157.88911       0   0.0 Hōkūleʻa
  2021-12-17T08:10:48UTC 2021-12-16T22:10:48-10:00 2021-12-16T21:10:48-11:00  21.31312 -157.88868     180   0.0 Hikianalia
  2021-12-17T07:17:33UTC 2021-12-16T21:17:33-10:00 2021-12-16T20:17:33-11:00  21.31304 -157.88911       0   0.0 Hōkūleʻa
  2021-12-17T07:10:16UTC 2021-12-16T21:10:16-10:00 2021-12-16T20:10:16-11:00  21.31319 -157.88868       0   0.0 Hikianalia
  2021-12-17T06:18:24UTC 2021-12-16T20:18:24-10:00 2021-12-16T19:18:24-11:00  21.31304 -157.88911       0   0.0 Hōkūleʻa
  2021-12-17T06:09:37UTC 2021-12-16T20:09:37-10:00 2021-12-16T19:09:37-11:00  21.31311 -157.88868     168   0.0 Hikianalia
  2021-12-17T05:18:30UTC 2021-12-16T19:18:30-10:00 2021-12-16T18:18:30-11:00  21.31304 -157.88911       0   0.0 Hōkūleʻa
  2021-12-17T05:10:07UTC 2021-12-16T19:10:07-10:00 2021-12-16T18:10:07-11:00  21.31321 -157.88871     346   0.0 Hikianalia
  2021-12-17T04:18:41UTC 2021-12-16T18:18:41-10:00 2021-12-16T17:18:41-11:00  21.31304 -157.88911       0   0.0 Hōkūleʻa
  2021-12-17T04:10:45UTC 2021-12-16T18:10:45-10:00 2021-12-16T17:10:45-11:00  21.31312 -157.88868     166   0.0 Hikianalia
  2021-12-17T03:18:34UTC 2021-12-16T17:18:34-10:00 2021-12-16T16:18:34-11:00  21.31304 -157.88911       0   0.0 Hōkūleʻa
  2021-12-17T03:10:18UTC 2021-12-16T17:10:18-10:00 2021-12-16T16:10:18-11:00  21.31321 -157.88871       0   0.0 Hikianalia
  2021-12-17T02:18:18UTC 2021-12-16T16:18:18-10:00 2021-12-16T15:18:18-11:00  21.31321 -157.88871      10   0.0 Hikianalia
  2021-12-17T02:17:28UTC 2021-12-16T16:17:28-10:00 2021-12-16T15:17:28-11:00  21.31304 -157.88911       0   0.0 Hōkūleʻa
  2021-12-17T01:19:01UTC 2021-12-16T15:19:01-10:00 2021-12-16T14:19:01-11:00  21.31310 -157.88873     208   0.0 Hikianalia
  2021-12-17T01:18:23UTC 2021-12-16T15:18:23-10:00 2021-12-16T14:18:23-11:00  21.31304 -157.88911       0   0.0 Hōkūleʻa
  2021-12-17T00:17:49UTC 2021-12-16T14:17:49-10:00 2021-12-16T13:17:49-11:00  21.31304 -157.88911       0   0.0 Hōkūleʻa
  2021-12-17T00:09:38UTC 2021-12-16T14:09:38-10:00 2021-12-16T13:09:38-11:00  21.31318 -157.88868     147   0.0 Hikianalia
  2021-12-16T23:25:51UTC 2021-12-16T13:25:51-10:00 2021-12-16T12:25:51-11:00  21.31304 -157.88911       0   0.0 Hōkūleʻa
  2021-12-16T23:10:15UTC 2021-12-16T13:10:15-10:00 2021-12-16T12:10:15-11:00  21.31321 -157.88871       0   0.0 Hikianalia
  2021-12-16T22:17:32UTC 2021-12-16T12:17:32-10:00 2021-12-16T11:17:32-11:00  21.31304 -157.88911       0   0.0 Hōkūleʻa
  2021-12-16T22:09:18UTC 2021-12-16T12:09:18-10:00 2021-12-16T11:09:18-11:00  21.31321 -157.88871     337   0.0 Hikianalia
  2021-12-16T21:18:30UTC 2021-12-16T11:18:30-10:00 2021-12-16T10:18:30-11:00  21.31304 -157.88911       0   0.0 Hōkūleʻa
  2021-12-16T21:10:09UTC 2021-12-16T11:10:09-10:00 2021-12-16T10:10:09-11:00  21.31311 -157.88866     180   0.0 Hikianalia
  2021-12-16T20:17:47UTC 2021-12-16T10:17:47-10:00 2021-12-16T09:17:47-11:00  21.31304 -157.88911       0   0.0 Hōkūleʻa
  2021-12-16T20:10:48UTC 2021-12-16T10:10:48-10:00 2021-12-16T09:10:48-11:00  21.31312 -157.88866      46   0.0 Hikianalia
  2021-12-16T19:18:29UTC 2021-12-16T09:18:29-10:00 2021-12-16T08:18:29-11:00  21.31304 -157.88911       0   0.0 Hōkūleʻa
  2021-12-16T19:09:16UTC 2021-12-16T09:09:16-10:00 2021-12-16T08:09:16-11:00  21.31303 -157.88877     223   0.0 Hikianalia
  2021-12-16T18:18:33UTC 2021-12-16T08:18:33-10:00 2021-12-16T07:18:33-11:00  21.31304 -157.88911       0   0.0 Hōkūleʻa
  2021-12-16T18:10:09UTC 2021-12-16T08:10:09-10:00 2021-12-16T07:10:09-11:00  21.31313 -157.88866      81   0.0 Hikianalia
  2021-12-16T17:18:27UTC 2021-12-16T07:18:27-10:00 2021-12-16T06:18:27-11:00  21.31304 -157.88911       0   0.0 Hōkūleʻa
  2021-12-16T17:10:15UTC 2021-12-16T07:10:15-10:00 2021-12-16T06:10:15-11:00  21.31312 -157.88873     280   0.0 Hikianalia
  2021-12-16T16:17:43UTC 2021-12-16T06:17:43-10:00 2021-12-16T05:17:43-11:00  21.31304 -157.88911       0   0.0 Hōkūleʻa
  2021-12-16T16:10:48UTC 2021-12-16T06:10:48-10:00 2021-12-16T05:10:48-11:00  21.31311 -157.88866     328   0.0 Hikianalia
  2021-12-16T15:18:30UTC 2021-12-16T05:18:30-10:00 2021-12-16T04:18:30-11:00  21.31304 -157.88911       0   0.0 Hōkūleʻa
  2021-12-16T15:10:18UTC 2021-12-16T05:10:18-10:00 2021-12-16T04:10:18-11:00  21.31305 -157.88862     137   0.0 Hikianalia
  2021-12-16T14:18:28UTC 2021-12-16T04:18:28-10:00 2021-12-16T03:18:28-11:00  21.31304 -157.88911       0   0.0 Hōkūleʻa
  2021-12-16T14:10:16UTC 2021-12-16T04:10:16-10:00 2021-12-16T03:10:16-11:00  21.31309 -157.88866     119   0.0 Hikianalia
  2021-12-16T13:17:24UTC 2021-12-16T03:17:24-10:00 2021-12-16T02:17:24-11:00  21.31304 -157.88911       0   0.0 Hōkūleʻa
  2021-12-16T13:10:14UTC 2021-12-16T03:10:14-10:00 2021-12-16T02:10:14-11:00  21.31310 -157.88868     222   0.0 Hikianalia
  2021-12-16T12:18:41UTC 2021-12-16T02:18:41-10:00 2021-12-16T01:18:41-11:00  21.31304 -157.88911       0   0.0 Hōkūleʻa
  2021-12-16T12:10:38UTC 2021-12-16T02:10:38-10:00 2021-12-16T01:10:38-11:00  21.31312 -157.88866     332   0.0 Hikianalia
  2021-12-16T11:18:30UTC 2021-12-16T01:18:30-10:00 2021-12-16T00:18:30-11:00  21.31304 -157.88911       0   0.0 Hōkūleʻa
  2021-12-16T11:10:17UTC 2021-12-16T01:10:17-10:00 2021-12-16T00:10:17-11:00  21.31305 -157.88862     148   0.0 Hikianalia
  2021-12-16T10:18:36UTC 2021-12-16T00:18:36-10:00 2021-12-15T23:18:36-11:00  21.31304 -157.88911       0   0.0 Hōkūleʻa
  2021-12-16T10:10:16UTC 2021-12-16T00:10:16-10:00 2021-12-15T23:10:16-11:00  21.31311 -157.88866     180   0.0 Hikianalia
  2021-12-16T09:26:01UTC 2021-12-15T23:26:01-10:00 2021-12-15T22:26:01-11:00  21.31304 -157.88911       0   0.0 Hōkūleʻa
  2021-12-16T09:10:13UTC 2021-12-15T23:10:13-10:00 2021-12-15T22:10:13-11:00  21.31313 -157.88866      43   0.0 Hikianalia
  2021-12-16T08:18:39UTC 2021-12-15T22:18:39-10:00 2021-12-15T21:18:39-11:00  21.31304 -157.88911       0   0.0 Hōkūleʻa
  2021-12-16T08:10:41UTC 2021-12-15T22:10:41-10:00 2021-12-15T21:10:41-11:00  21.31311 -157.88868     193   0.0 Hikianalia
  2021-12-16T07:18:32UTC 2021-12-15T21:18:32-10:00 2021-12-15T20:18:32-11:00  21.31304 -157.88911       0   0.0 Hōkūleʻa
  2021-12-16T07:09:14UTC 2021-12-15T21:09:14-10:00 2021-12-15T20:09:14-11:00  21.31320 -157.88866       0   0.0 Hikianalia
  2021-12-16T06:18:31UTC 2021-12-15T20:18:31-10:00 2021-12-15T19:18:31-11:00  21.31304 -157.88911       0   0.0 Hōkūleʻa
  2021-12-16T06:10:09UTC 2021-12-15T20:10:09-10:00 2021-12-15T19:10:09-11:00  21.31315 -157.88866      42   0.0 Hikianalia
  2021-12-16T05:18:22UTC 2021-12-15T19:18:22-10:00 2021-12-15T18:18:22-11:00  21.31304 -157.88911       0   0.0 Hōkūleʻa
  2021-12-16T05:10:46UTC 2021-12-15T19:10:46-10:00 2021-12-15T18:10:46-11:00  21.31313 -157.88868     180   0.0 Hikianalia
  2021-12-16T04:18:49UTC 2021-12-15T18:18:49-10:00 2021-12-15T17:18:49-11:00  21.31304 -157.88911       0   0.0 Hōkūleʻa
  2021-12-16T04:10:39UTC 2021-12-15T18:10:39-10:00 2021-12-15T17:10:39-11:00  21.31314 -157.88868     241   0.0 Hikianalia
  2021-12-16T03:26:34UTC 2021-12-15T17:26:34-10:00 2021-12-15T16:26:34-11:00  21.31304 -157.88911       0   0.0 Hōkūleʻa
  2021-12-16T03:10:56UTC 2021-12-15T17:10:56-10:00 2021-12-15T16:10:56-11:00  21.31315 -157.88866     155   0.0 Hikianalia
  2021-12-16T02:18:22UTC 2021-12-15T16:18:22-10:00 2021-12-15T15:18:22-11:00  21.31304 -157.88911       0   0.0 Hōkūleʻa
  2021-12-16T02:09:39UTC 2021-12-15T16:09:39-10:00 2021-12-15T15:09:39-11:00  21.31324 -157.88871       0   0.0 Hikianalia
  2021-12-16T01:18:30UTC 2021-12-15T15:18:30-10:00 2021-12-15T14:18:30-11:00  21.31304 -157.88911       0   0.0 Hōkūleʻa
  2021-12-16T01:10:21UTC 2021-12-15T15:10:21-10:00 2021-12-15T14:10:21-11:00  21.31321 -157.88871       0   0.0 Hikianalia
  2021-12-16T00:17:46UTC 2021-12-15T14:17:46-10:00 2021-12-15T13:17:46-11:00  21.31304 -157.88911       0   0.0 Hōkūleʻa
  2021-12-16T00:10:17UTC 2021-12-15T14:10:17-10:00 2021-12-15T13:10:17-11:00  21.31317 -157.88871     255   0.0 Hikianalia
  2021-12-15T23:20:39UTC 2021-12-15T13:20:39-10:00 2021-12-15T12:20:39-11:00  21.31319 -157.88862      62   0.0 Hikianalia
  2021-12-15T23:18:29UTC 2021-12-15T13:18:29-10:00 2021-12-15T12:18:29-11:00  21.31304 -157.88911       0   0.0 Hōkūleʻa
  2021-12-15T22:18:35UTC 2021-12-15T12:18:35-10:00 2021-12-15T11:18:35-11:00  21.31304 -157.88911       0   0.0 Hōkūleʻa
  2021-12-15T21:24:24UTC 2021-12-15T11:24:24-10:00 2021-12-15T10:24:24-11:00  21.31304 -157.88911       0   0.0 Hōkūleʻa
  2021-12-15T21:09:38UTC 2021-12-15T11:09:38-10:00 2021-12-15T10:09:38-11:00  21.31314 -157.88871     308   0.0 Hikianalia
  2021-12-15T20:17:46UTC 2021-12-15T10:17:46-10:00 2021-12-15T09:17:46-11:00  21.31304 -157.88911       0   0.0 Hōkūleʻa
  2021-12-15T20:09:35UTC 2021-12-15T10:09:35-10:00 2021-12-15T09:09:35-11:00  21.31311 -157.88866     298   0.0 Hikianalia
  2021-12-15T19:18:38UTC 2021-12-15T09:18:38-10:00 2021-12-15T08:18:38-11:00  21.31304 -157.88911       0   0.0 Hōkūleʻa
  2021-12-15T19:10:11UTC 2021-12-15T09:10:11-10:00 2021-12-15T08:10:11-11:00  21.31308 -157.88860     137   0.0 Hikianalia
  2021-12-15T18:19:33UTC 2021-12-15T08:19:33-10:00 2021-12-15T07:19:33-11:00  21.31312 -157.88864     104   0.0 Hikianalia
  2021-12-15T18:18:33UTC 2021-12-15T08:18:33-10:00 2021-12-15T07:18:33-11:00  21.31304 -157.88911       0   0.0 Hōkūleʻa
  2021-12-15T17:18:30UTC 2021-12-15T07:18:30-10:00 2021-12-15T06:18:30-11:00  21.31304 -157.88911       0   0.0 Hōkūleʻa
  2021-12-15T17:10:15UTC 2021-12-15T07:10:15-10:00 2021-12-15T06:10:15-11:00  21.31313 -157.88868       0   0.0 Hikianalia
  2021-12-15T16:18:49UTC 2021-12-15T06:18:49-10:00 2021-12-15T05:18:49-11:00  21.31304 -157.88911       0   0.0 Hōkūleʻa
  2021-12-15T16:10:38UTC 2021-12-15T06:10:38-10:00 2021-12-15T05:10:38-11:00  21.31312 -157.88868     280   0.0 Hikianalia
  2021-12-15T15:18:31UTC 2021-12-15T05:18:31-10:00 2021-12-15T04:18:31-11:00  21.31304 -157.88911       0   0.0 Hōkūleʻa
  2021-12-15T15:09:09UTC 2021-12-15T05:09:09-10:00 2021-12-15T04:09:09-11:00  21.31311 -157.88862      48   0.0 Hikianalia
  2021-12-15T14:18:28UTC 2021-12-15T04:18:28-10:00 2021-12-15T03:18:28-11:00  21.31304 -157.88911       0   0.0 Hōkūleʻa
  2021-12-15T14:10:09UTC 2021-12-15T04:10:09-10:00 2021-12-15T03:10:09-11:00  21.31306 -157.88868     180   0.0 Hikianalia
  2021-12-15T13:18:33UTC 2021-12-15T03:18:33-10:00 2021-12-15T02:18:33-11:00  21.31304 -157.88911       0   0.0 Hōkūleʻa
  2021-12-15T13:10:06UTC 2021-12-15T03:10:06-10:00 2021-12-15T02:10:06-11:00  21.31312 -157.88868     270   0.0 Hikianalia
  2021-12-15T12:17:39UTC 2021-12-15T02:17:39-10:00 2021-12-15T01:17:39-11:00  21.31304 -157.88911       0   0.0 Hōkūleʻa
  2021-12-15T12:10:42UTC 2021-12-15T02:10:42-10:00 2021-12-15T01:10:42-11:00  21.31312 -157.88866       0   0.0 Hikianalia
  2021-12-15T11:18:30UTC 2021-12-15T01:18:30-10:00 2021-12-15T00:18:30-11:00  21.31304 -157.88911       0   0.0 Hōkūleʻa
  2021-12-15T11:10:45UTC 2021-12-15T01:10:45-10:00 2021-12-15T00:10:45-11:00  21.31311 -157.88866     180   0.0 Hikianalia
  2021-12-15T10:18:24UTC 2021-12-15T00:18:24-10:00 2021-12-14T23:18:24-11:00  21.31304 -157.88911       0   0.0 Hōkūleʻa
  2021-12-15T10:09:06UTC 2021-12-15T00:09:06-10:00 2021-12-14T23:09:06-11:00  21.31312 -157.88866      90   0.0 Hikianalia
  2021-12-15T09:18:30UTC 2021-12-14T23:18:30-10:00 2021-12-14T22:18:30-11:00  21.31304 -157.88911       0   0.0 Hōkūleʻa
  2021-12-15T09:10:38UTC 2021-12-14T23:10:38-10:00 2021-12-14T22:10:38-11:00  21.31312 -157.88868      90   0.0 Hikianalia
  2021-12-15T08:18:47UTC 2021-12-14T22:18:47-10:00 2021-12-14T21:18:47-11:00  21.31304 -157.88911       0   0.0 Hōkūleʻa
  2021-12-15T08:10:44UTC 2021-12-14T22:10:44-10:00 2021-12-14T21:10:44-11:00  21.31312 -157.88873     270   0.0 Hikianalia
  2021-12-15T07:18:24UTC 2021-12-14T21:18:24-10:00 2021-12-14T20:18:24-11:00  21.31304 -157.88911       0   0.0 Hōkūleʻa
  2021-12-15T07:10:13UTC 2021-12-14T21:10:13-10:00 2021-12-14T20:10:13-11:00  21.31312 -157.88868       0   0.0 Hikianalia
  2021-12-15T06:18:30UTC 2021-12-14T20:18:30-10:00 2021-12-14T19:18:30-11:00  21.31304 -157.88911       0   0.0 Hōkūleʻa
  2021-12-15T06:10:46UTC 2021-12-14T20:10:46-10:00 2021-12-14T19:10:46-11:00  21.31309 -157.88868     148   0.0 Hikianalia
  2021-12-15T05:24:58UTC 2021-12-14T19:24:58-10:00 2021-12-14T18:24:58-11:00  21.31304 -157.88911       0   0.0 Hōkūleʻa
  2021-12-15T05:10:39UTC 2021-12-14T19:10:39-10:00 2021-12-14T18:10:39-11:00  21.31312 -157.88871      90   0.0 Hikianalia
  2021-12-15T04:18:37UTC 2021-12-14T18:18:37-10:00 2021-12-14T17:18:37-11:00  21.31304 -157.88911       0   0.0 Hōkūleʻa
  2021-12-15T04:09:13UTC 2021-12-14T18:09:13-10:00 2021-12-14T17:09:13-11:00  21.31312 -157.88875     270   0.0 Hikianalia
  2021-12-15T03:18:30UTC 2021-12-14T17:18:30-10:00 2021-12-14T16:18:30-11:00  21.31304 -157.88911       0   0.0 Hōkūleʻa
  2021-12-15T03:10:37UTC 2021-12-14T17:10:37-10:00 2021-12-14T16:10:37-11:00  21.31312 -157.88866      61   0.0 Hikianalia
  2021-12-15T02:17:26UTC 2021-12-14T16:17:26-10:00 2021-12-14T15:17:26-11:00  21.31304 -157.88911       0   0.0 Hōkūleʻa
  2021-12-15T02:10:19UTC 2021-12-14T16:10:19-10:00 2021-12-14T15:10:19-11:00  21.31311 -157.88868     205   0.0 Hikianalia
  2021-12-15T01:18:33UTC 2021-12-14T15:18:33-10:00 2021-12-14T14:18:33-11:00  21.31304 -157.88911       0   0.0 Hōkūleʻa
  2021-12-15T01:10:25UTC 2021-12-14T15:10:25-10:00 2021-12-14T14:10:25-11:00  21.31315 -157.88866       0   0.0 Hikianalia
  2021-12-15T00:18:49UTC 2021-12-14T14:18:49-10:00 2021-12-14T13:18:49-11:00  21.31304 -157.88911       0   0.0 Hōkūleʻa
  2021-12-15T00:09:44UTC 2021-12-14T14:09:44-10:00 2021-12-14T13:09:44-11:00  21.31313 -157.88866      15   0.0 Hikianalia
  2021-12-14T23:17:28UTC 2021-12-14T13:17:28-10:00 2021-12-14T12:17:28-11:00  21.31304 -157.88911       0   0.0 Hōkūleʻa
  2021-12-14T23:10:10UTC 2021-12-14T13:10:10-10:00 2021-12-14T12:10:10-11:00  21.31306 -157.88868     164   0.0 Hikianalia
  2021-12-14T22:18:24UTC 2021-12-14T12:18:24-10:00 2021-12-14T11:18:24-11:00  21.31304 -157.88911       0   0.0 Hōkūleʻa
  2021-12-14T22:09:15UTC 2021-12-14T12:09:15-10:00 2021-12-14T11:09:15-11:00  21.31320 -157.88873     346   0.0 Hikianalia
  2021-12-14T21:18:59UTC 2021-12-14T11:18:59-10:00 2021-12-14T10:18:59-11:00  21.31304 -157.88911       0   0.0 Hōkūleʻa
  2021-12-14T21:10:09UTC 2021-12-14T11:10:09-10:00 2021-12-14T10:10:09-11:00  21.31304 -157.88868     180   0.0 Hikianalia
  2021-12-14T20:17:38UTC 2021-12-14T10:17:38-10:00 2021-12-14T09:17:38-11:00  21.31304 -157.88911       0   0.0 Hōkūleʻa
  2021-12-14T20:09:49UTC 2021-12-14T10:09:49-10:00 2021-12-14T09:09:49-11:00  21.31312 -157.88868      90   0.0 Hikianalia
  2021-12-14T19:18:24UTC 2021-12-14T09:18:24-10:00 2021-12-14T08:18:24-11:00  21.31304 -157.88911       0   0.0 Hōkūleʻa
  2021-12-14T19:10:11UTC 2021-12-14T09:10:11-10:00 2021-12-14T08:10:11-11:00  21.31312 -157.88871     285   0.0 Hikianalia
  2021-12-14T18:18:24UTC 2021-12-14T08:18:24-10:00 2021-12-14T07:18:24-11:00  21.31304 -157.88911       0   0.0 Hōkūleʻa
  2021-12-14T18:10:45UTC 2021-12-14T08:10:45-10:00 2021-12-14T07:10:45-11:00  21.31311 -157.88866       0   0.0 Hikianalia
  2021-12-14T17:18:34UTC 2021-12-14T07:18:34-10:00 2021-12-14T06:18:34-11:00  21.31304 -157.88911       0   0.0 Hōkūleʻa
  2021-12-14T17:10:42UTC 2021-12-14T07:10:42-10:00 2021-12-14T06:10:42-11:00  21.31309 -157.88866     241   0.0 Hikianalia
  2021-12-14T16:18:38UTC 2021-12-14T06:18:38-10:00 2021-12-14T05:18:38-11:00  21.31304 -157.88911       0   0.0 Hōkūleʻa
  2021-12-14T16:10:06UTC 2021-12-14T06:10:06-10:00 2021-12-14T05:10:06-11:00  21.31311 -157.88862      90   0.0 Hikianalia
  2021-12-14T15:18:39UTC 2021-12-14T05:18:39-10:00 2021-12-14T04:18:39-11:00  21.31304 -157.88911       0   0.0 Hōkūleʻa
  2021-12-14T15:10:38UTC 2021-12-14T05:10:38-10:00 2021-12-14T04:10:38-11:00  21.31311 -157.88866     180   0.0 Hikianalia
  2021-12-14T14:18:30UTC 2021-12-14T04:18:30-10:00 2021-12-14T03:18:30-11:00  21.31304 -157.88911       0   0.0 Hōkūleʻa
  2021-12-14T14:10:17UTC 2021-12-14T04:10:17-10:00 2021-12-14T03:10:17-11:00  21.31313 -157.88866      71   0.0 Hikianalia
  2021-12-14T13:18:35UTC 2021-12-14T03:18:35-10:00 2021-12-14T02:18:35-11:00  21.31304 -157.88911       0   0.0 Hōkūleʻa
  2021-12-14T13:10:27UTC 2021-12-14T03:10:27-10:00 2021-12-14T02:10:27-11:00  21.31311 -157.88873     270   0.0 Hikianalia
  2021-12-14T12:18:47UTC 2021-12-14T02:18:47-10:00 2021-12-14T01:18:47-11:00  21.31304 -157.88911       0   0.0 Hōkūleʻa
  2021-12-14T12:10:45UTC 2021-12-14T02:10:45-10:00 2021-12-14T01:10:45-11:00  21.31311 -157.88866      90   0.0 Hikianalia
  2021-12-14T11:17:36UTC 2021-12-14T01:17:36-10:00 2021-12-14T00:17:36-11:00  21.31304 -157.88911       0   0.0 Hōkūleʻa
  2021-12-14T11:10:17UTC 2021-12-14T01:10:17-10:00 2021-12-14T00:10:17-11:00  21.31311 -157.88871     323   0.0 Hikianalia
  2021-12-14T10:18:25UTC 2021-12-14T00:18:25-10:00 2021-12-13T23:18:25-11:00  21.31304 -157.88911       0   0.0 Hōkūleʻa
  2021-12-14T10:10:14UTC 2021-12-14T00:10:14-10:00 2021-12-13T23:10:14-11:00  21.31306 -157.88866     160   0.0 Hikianalia
  2021-12-14T09:18:24UTC 2021-12-13T23:18:24-10:00 2021-12-13T22:18:24-11:00  21.31304 -157.88911       0   0.0 Hōkūleʻa
  2021-12-14T09:10:46UTC 2021-12-13T23:10:46-10:00 2021-12-13T22:10:46-11:00  21.31311 -157.88868     223   0.0 Hikianalia
  2021-12-14T08:18:47UTC 2021-12-13T22:18:47-10:00 2021-12-13T21:18:47-11:00  21.31304 -157.88911       0   0.0 Hōkūleʻa
  2021-12-14T08:10:35UTC 2021-12-13T22:10:35-10:00 2021-12-13T21:10:35-11:00  21.31313 -157.88866       0   0.0 Hikianalia
  2021-12-14T07:18:33UTC 2021-12-13T21:18:33-10:00 2021-12-13T20:18:33-11:00  21.31304 -157.88911       0   0.0 Hōkūleʻa
  2021-12-14T07:10:15UTC 2021-12-13T21:10:15-10:00 2021-12-13T20:10:15-11:00  21.31312 -157.88866       0   0.0 Hikianalia
  2021-12-14T06:18:52UTC 2021-12-13T20:18:52-10:00 2021-12-13T19:18:52-11:00  21.31311 -157.88866     148   0.0 Hikianalia
  2021-12-14T06:18:24UTC 2021-12-13T20:18:24-10:00 2021-12-13T19:18:24-11:00  21.31304 -157.88911       0   0.0 Hōkūleʻa
  2021-12-14T05:18:26UTC 2021-12-13T19:18:26-10:00 2021-12-13T18:18:26-11:00  21.31304 -157.88911       0   0.0 Hōkūleʻa
  2021-12-14T05:10:08UTC 2021-12-13T19:10:08-10:00 2021-12-13T18:10:08-11:00  21.31314 -157.88868      52   0.0 Hikianalia
  2021-12-14T04:17:48UTC 2021-12-13T18:17:48-10:00 2021-12-13T17:17:48-11:00  21.31304 -157.88911       0   0.0 Hōkūleʻa
  2021-12-14T04:10:17UTC 2021-12-13T18:10:17-10:00 2021-12-13T17:10:17-11:00  21.31311 -157.88873     232   0.0 Hikianalia
  2021-12-14T03:18:32UTC 2021-12-13T17:18:32-10:00 2021-12-13T16:18:32-11:00  21.31304 -157.88911       0   0.0 Hōkūleʻa
  2021-12-14T03:09:47UTC 2021-12-13T17:09:47-10:00 2021-12-13T16:09:47-11:00  21.31314 -157.88868     162   0.0 Hikianalia
  2021-12-14T02:18:30UTC 2021-12-13T16:18:30-10:00 2021-12-13T15:18:30-11:00  21.31304 -157.88911       0   0.0 Hōkūleʻa
  2021-12-14T02:10:09UTC 2021-12-13T16:10:09-10:00 2021-12-13T15:10:09-11:00  21.31321 -157.88871     332   0.0 Hikianalia
  2021-12-14T01:18:33UTC 2021-12-13T15:18:33-10:00 2021-12-13T14:18:33-11:00  21.31304 -157.88911       0   0.0 Hōkūleʻa
  2021-12-14T01:09:47UTC 2021-12-13T15:09:47-10:00 2021-12-13T14:09:47-11:00  21.31313 -157.88866      90   0.0 Hikianalia
  2021-12-14T00:17:48UTC 2021-12-13T14:17:48-10:00 2021-12-13T13:17:48-11:00  21.31304 -157.88911       0   0.0 Hōkūleʻa
  2021-12-14T00:09:37UTC 2021-12-13T14:09:37-10:00 2021-12-13T13:09:37-11:00  21.31313 -157.88868     242   0.0 Hikianalia
  2021-12-13T23:18:41UTC 2021-12-13T13:18:41-10:00 2021-12-13T12:18:41-11:00  21.31304 -157.88911       0   0.0 Hōkūleʻa
  2021-12-13T23:09:09UTC 2021-12-13T13:09:09-10:00 2021-12-13T12:09:09-11:00  21.31317 -157.88862      15   0.0 Hikianalia
  2021-12-13T22:17:35UTC 2021-12-13T12:17:35-10:00 2021-12-13T11:17:35-11:00  21.31304 -157.88911       0   0.0 Hōkūleʻa
  2021-12-13T22:10:16UTC 2021-12-13T12:10:16-10:00 2021-12-13T11:10:16-11:00  21.31309 -157.88864     137   0.0 Hikianalia
  2021-12-13T21:26:45UTC 2021-12-13T11:26:45-10:00 2021-12-13T10:26:45-11:00  21.31304 -157.88911       0   0.0 Hōkūleʻa
  2021-12-13T21:09:09UTC 2021-12-13T11:09:09-10:00 2021-12-13T10:09:09-11:00  21.31311 -157.88866     180   0.0 Hikianalia
  2021-12-13T20:17:48UTC 2021-12-13T10:17:48-10:00 2021-12-13T09:17:48-11:00  21.31304 -157.88911       0   0.0 Hōkūleʻa
  2021-12-13T20:10:36UTC 2021-12-13T10:10:36-10:00 2021-12-13T09:10:36-11:00  21.31313 -157.88866      86   0.0 Hikianalia
  2021-12-13T19:36:16UTC 2021-12-13T09:36:16-10:00 2021-12-13T08:36:16-11:00  21.31304 -157.88911       0   0.0 Hōkūleʻa
  2021-12-13T19:09:14UTC 2021-12-13T09:09:14-10:00 2021-12-13T08:09:14-11:00  21.31312 -157.88881     343   0.0 Hikianalia
  2021-12-13T18:18:32UTC 2021-12-13T08:18:32-10:00 2021-12-13T07:18:32-11:00  21.31304 -157.88911       0   0.0 Hōkūleʻa
  2021-12-13T18:10:11UTC 2021-12-13T08:10:11-10:00 2021-12-13T07:10:11-11:00  21.31306 -157.88879     238   0.0 Hikianalia
  2021-12-13T17:18:39UTC 2021-12-13T07:18:39-10:00 2021-12-13T06:18:39-11:00  21.31304 -157.88911       0   0.0 Hōkūleʻa
  2021-12-13T17:10:15UTC 2021-12-13T07:10:15-10:00 2021-12-13T06:10:15-11:00  21.31313 -157.88866      62   0.0 Hikianalia
  2021-12-13T16:18:33UTC 2021-12-13T06:18:33-10:00 2021-12-13T05:18:33-11:00  21.31304 -157.88911       0   0.0 Hōkūleʻa
  2021-12-13T16:10:46UTC 2021-12-13T06:10:46-10:00 2021-12-13T05:10:46-11:00  21.31311 -157.88871     317   0.0 Hikianalia
  2021-12-13T15:18:29UTC 2021-12-13T05:18:29-10:00 2021-12-13T04:18:29-11:00  21.31304 -157.88911       0   0.0 Hōkūleʻa
  2021-12-13T15:10:17UTC 2021-12-13T05:10:17-10:00 2021-12-13T04:10:17-11:00  21.31307 -157.88866     180   0.0 Hikianalia
  2021-12-13T14:18:46UTC 2021-12-13T04:18:46-10:00 2021-12-13T03:18:46-11:00  21.31304 -157.88911       0   0.0 Hōkūleʻa
  2021-12-13T14:10:35UTC 2021-12-13T04:10:35-10:00 2021-12-13T03:10:35-11:00  21.31312 -157.88866       0   0.0 Hikianalia
  2021-12-13T13:18:25UTC 2021-12-13T03:18:25-10:00 2021-12-13T02:18:25-11:00  21.31304 -157.88911       0   0.0 Hōkūleʻa
  2021-12-13T13:09:12UTC 2021-12-13T03:09:12-10:00 2021-12-13T02:09:12-11:00  21.31312 -157.88866      75   0.0 Hikianalia
  2021-12-13T12:18:24UTC 2021-12-13T02:18:24-10:00 2021-12-13T01:18:24-11:00  21.31304 -157.88911       0   0.0 Hōkūleʻa
  2021-12-13T12:10:10UTC 2021-12-13T02:10:10-10:00 2021-12-13T01:10:10-11:00  21.31311 -157.88871     308   0.0 Hikianalia
  2021-12-13T11:18:31UTC 2021-12-13T01:18:31-10:00 2021-12-13T00:18:31-11:00  21.31304 -157.88911       0   0.0 Hōkūleʻa
  2021-12-13T11:10:17UTC 2021-12-13T01:10:17-10:00 2021-12-13T00:10:17-11:00  21.31308 -157.88866     148   0.0 Hikianalia
  2021-12-13T10:18:46UTC 2021-12-13T00:18:46-10:00 2021-12-12T23:18:46-11:00  21.31304 -157.88911       0   0.0 Hōkūleʻa
  2021-12-13T10:10:41UTC 2021-12-13T00:10:41-10:00 2021-12-12T23:10:41-11:00  21.31311 -157.88868      43   0.0 Hikianalia
  2021-12-13T09:18:41UTC 2021-12-12T23:18:41-10:00 2021-12-12T22:18:41-11:00  21.31304 -157.88911       0   0.0 Hōkūleʻa
  2021-12-13T09:10:48UTC 2021-12-12T23:10:48-10:00 2021-12-12T22:10:48-11:00  21.31309 -157.88871     241   0.0 Hikianalia
  2021-12-13T08:18:31UTC 2021-12-12T22:18:31-10:00 2021-12-12T21:18:31-11:00  21.31304 -157.88911       0   0.0 Hōkūleʻa
  2021-12-13T08:09:38UTC 2021-12-12T22:09:38-10:00 2021-12-12T21:09:38-11:00  21.31311 -157.88866     223   0.0 Hikianalia
  2021-12-13T07:18:27UTC 2021-12-12T21:18:27-10:00 2021-12-12T20:18:27-11:00  21.31304 -157.88911       0   0.0 Hōkūleʻa
  2021-12-13T07:10:06UTC 2021-12-12T21:10:06-10:00 2021-12-12T20:10:06-11:00  21.31315 -157.88862      43   0.0 Hikianalia
  2021-12-13T06:18:49UTC 2021-12-12T20:18:49-10:00 2021-12-12T19:18:49-11:00  21.31304 -157.88911       0   0.0 Hōkūleʻa
  2021-12-13T06:10:46UTC 2021-12-12T20:10:46-10:00 2021-12-12T19:10:46-11:00  21.31311 -157.88866     334   0.0 Hikianalia
  2021-12-13T05:18:38UTC 2021-12-12T19:18:38-10:00 2021-12-12T18:18:38-11:00  21.31304 -157.88911       0   0.0 Hōkūleʻa
  2021-12-13T05:10:17UTC 2021-12-12T19:10:17-10:00 2021-12-12T18:10:17-11:00  21.31307 -157.88864     156   0.0 Hikianalia
  2021-12-13T04:18:33UTC 2021-12-12T18:18:33-10:00 2021-12-12T17:18:33-11:00  21.31304 -157.88911       0   0.0 Hōkūleʻa
  2021-12-13T04:10:48UTC 2021-12-12T18:10:48-10:00 2021-12-12T17:10:48-11:00  21.31321 -157.88871      25   0.0 Hikianalia
  2021-12-13T03:18:53UTC 2021-12-12T17:18:53-10:00 2021-12-12T16:18:53-11:00  21.31304 -157.88911       0   0.0 Hōkūleʻa
  2021-12-13T03:10:18UTC 2021-12-12T17:10:18-10:00 2021-12-12T16:10:18-11:00  21.31317 -157.88873     298   0.0 Hikianalia
  2021-12-13T02:17:38UTC 2021-12-12T16:17:38-10:00 2021-12-12T15:17:38-11:00  21.31304 -157.88911       0   0.0 Hōkūleʻa
  2021-12-13T02:10:17UTC 2021-12-12T16:10:17-10:00 2021-12-12T15:10:17-11:00  21.31313 -157.88866       0   0.0 Hikianalia
  2021-12-13T01:18:36UTC 2021-12-12T15:18:36-10:00 2021-12-12T14:18:36-11:00  21.31304 -157.88911       0   0.0 Hōkūleʻa
  2021-12-13T01:10:11UTC 2021-12-12T15:10:11-10:00 2021-12-12T14:10:11-11:00  21.31313 -157.88866       0   0.0 Hikianalia
  2021-12-13T00:17:24UTC 2021-12-12T14:17:24-10:00 2021-12-12T13:17:24-11:00  21.31304 -157.88911       0   0.0 Hōkūleʻa
  2021-12-13T00:09:48UTC 2021-12-12T14:09:48-10:00 2021-12-12T13:09:48-11:00  21.31313 -157.88866     152   0.0 Hikianalia
  2021-12-12T23:18:28UTC 2021-12-12T13:18:28-10:00 2021-12-12T12:18:28-11:00  21.31304 -157.88911       0   0.0 Hōkūleʻa
  2021-12-12T23:09:16UTC 2021-12-12T13:09:16-10:00 2021-12-12T12:09:16-11:00  21.31321 -157.88871     345   0.0 Hikianalia
  2021-12-12T22:19:55UTC 2021-12-12T12:19:55-10:00 2021-12-12T11:19:55-11:00  21.31313 -157.88868     317   0.0 Hikianalia
  2021-12-12T22:17:43UTC 2021-12-12T12:17:43-10:00 2021-12-12T11:17:43-11:00  21.31304 -157.88911       0   0.0 Hōkūleʻa
  2021-12-12T21:20:04UTC 2021-12-12T11:20:04-10:00 2021-12-12T10:20:04-11:00  21.31311 -157.88866      90   0.0 Hikianalia
  2021-12-12T21:17:38UTC 2021-12-12T11:17:38-10:00 2021-12-12T10:17:38-11:00  21.31304 -157.88911       0   0.0 Hōkūleʻa
  2021-12-12T20:18:30UTC 2021-12-12T10:18:30-10:00 2021-12-12T09:18:30-11:00  21.31304 -157.88911       0   0.0 Hōkūleʻa
  2021-12-12T20:09:17UTC 2021-12-12T10:09:17-10:00 2021-12-12T09:09:17-11:00  21.31311 -157.88868     147   0.0 Hikianalia
  2021-12-12T19:18:32UTC 2021-12-12T09:18:32-10:00 2021-12-12T08:18:32-11:00  21.31304 -157.88911       0   0.0 Hōkūleʻa
  2021-12-12T19:10:06UTC 2021-12-12T09:10:06-10:00 2021-12-12T08:10:06-11:00  21.31314 -157.88871     317   0.0 Hikianalia
  2021-12-12T18:18:49UTC 2021-12-12T08:18:49-10:00 2021-12-12T07:18:49-11:00  21.31304 -157.88911       0   0.0 Hōkūleʻa
  2021-12-12T18:09:39UTC 2021-12-12T08:09:39-10:00 2021-12-12T07:09:39-11:00  21.31310 -157.88866      99   0.0 Hikianalia
  2021-12-12T17:17:29UTC 2021-12-12T07:17:29-10:00 2021-12-12T06:17:29-11:00  21.31304 -157.88911       0   0.0 Hōkūleʻa
  2021-12-12T17:10:09UTC 2021-12-12T07:10:09-10:00 2021-12-12T06:10:09-11:00  21.31312 -157.88881     285   0.0 Hikianalia
  2021-12-12T16:18:24UTC 2021-12-12T06:18:24-10:00 2021-12-12T05:18:24-11:00  21.31304 -157.88911       0   0.0 Hōkūleʻa
  2021-12-12T16:10:14UTC 2021-12-12T06:10:14-10:00 2021-12-12T05:10:14-11:00  21.31311 -157.88877     270   0.0 Hikianalia
  2021-12-12T15:18:31UTC 2021-12-12T05:18:31-10:00 2021-12-12T04:18:31-11:00  21.31304 -157.88911       0   0.0 Hōkūleʻa
  2021-12-12T15:10:17UTC 2021-12-12T05:10:17-10:00 2021-12-12T04:10:17-11:00  21.31311 -157.88873     270   0.0 Hikianalia
  2021-12-12T14:18:38UTC 2021-12-12T04:18:38-10:00 2021-12-12T03:18:38-11:00  21.31304 -157.88911       0   0.0 Hōkūleʻa
  2021-12-12T14:10:35UTC 2021-12-12T04:10:35-10:00 2021-12-12T03:10:35-11:00  21.31311 -157.88866     270   0.0 Hikianalia
  2021-12-12T13:18:38UTC 2021-12-12T03:18:38-10:00 2021-12-12T02:18:38-11:00  21.31304 -157.88911       0   0.0 Hōkūleʻa
  2021-12-12T13:10:10UTC 2021-12-12T03:10:10-10:00 2021-12-12T02:10:10-11:00  21.31311 -157.88864     122   0.0 Hikianalia
  2021-12-12T12:18:34UTC 2021-12-12T02:18:34-10:00 2021-12-12T01:18:34-11:00  21.31304 -157.88911       0   0.0 Hōkūleʻa
  2021-12-12T12:10:19UTC 2021-12-12T02:10:19-10:00 2021-12-12T01:10:19-11:00  21.31319 -157.88877     305   0.0 Hikianalia
  2021-12-12T11:18:24UTC 2021-12-12T01:18:24-10:00 2021-12-12T00:18:24-11:00  21.31304 -157.88911       0   0.0 Hōkūleʻa
  2021-12-12T11:09:15UTC 2021-12-12T01:09:15-10:00 2021-12-12T00:09:15-11:00  21.31310 -157.88864      90   0.0 Hikianalia
  2021-12-12T10:18:43UTC 2021-12-12T00:18:43-10:00 2021-12-11T23:18:43-11:00  21.31304 -157.88911       0   0.0 Hōkūleʻa
  2021-12-12T10:10:38UTC 2021-12-12T00:10:38-10:00 2021-12-11T23:10:38-11:00  21.31310 -157.88866     203   0.0 Hikianalia
  2021-12-12T09:18:35UTC 2021-12-11T23:18:35-10:00 2021-12-11T22:18:35-11:00  21.31304 -157.88911       0   0.0 Hōkūleʻa
  2021-12-12T09:10:09UTC 2021-12-11T23:10:09-10:00 2021-12-11T22:10:09-11:00  21.31320 -157.88862       9   0.0 Hikianalia
  2021-12-12T08:18:30UTC 2021-12-11T22:18:30-10:00 2021-12-11T21:18:30-11:00  21.31304 -157.88911       0   0.0 Hōkūleʻa
  2021-12-12T08:10:45UTC 2021-12-11T22:10:45-10:00 2021-12-11T21:10:45-11:00  21.31308 -157.88864     154   0.0 Hikianalia
  2021-12-12T07:18:26UTC 2021-12-11T21:18:26-10:00 2021-12-11T20:18:26-11:00  21.31304 -157.88911       0   0.0 Hōkūleʻa
  2021-12-12T07:10:06UTC 2021-12-11T21:10:06-10:00 2021-12-11T20:10:06-11:00  21.31312 -157.88866      61   0.0 Hikianalia
  2021-12-12T06:18:49UTC 2021-12-11T20:18:49-10:00 2021-12-11T19:18:49-11:00  21.31304 -157.88911       0   0.0 Hōkūleʻa
  2021-12-12T06:10:17UTC 2021-12-11T20:10:17-10:00 2021-12-11T19:10:17-11:00  21.31310 -157.88871     270   0.0 Hikianalia
  2021-12-12T05:17:36UTC 2021-12-11T19:17:36-10:00 2021-12-11T18:17:36-11:00  21.31304 -157.88911       0   0.0 Hōkūleʻa
  2021-12-12T05:10:14UTC 2021-12-11T19:10:14-10:00 2021-12-11T18:10:14-11:00  21.31310 -157.88866     180   0.0 Hikianalia
  2021-12-12T04:18:23UTC 2021-12-11T18:18:23-10:00 2021-12-11T17:18:23-11:00  21.31304 -157.88911       0   0.0 Hōkūleʻa
  2021-12-12T04:09:47UTC 2021-12-11T18:09:47-10:00 2021-12-11T17:09:47-11:00  21.31312 -157.88866     104   0.0 Hikianalia
  2021-12-12T03:18:32UTC 2021-12-11T17:18:32-10:00 2021-12-11T16:18:32-11:00  21.31304 -157.88911       0   0.0 Hōkūleʻa
  2021-12-12T03:10:38UTC 2021-12-11T17:10:38-10:00 2021-12-11T16:10:38-11:00  21.31313 -157.88871     134   0.0 Hikianalia
  2021-12-12T02:18:45UTC 2021-12-11T16:18:45-10:00 2021-12-11T15:18:45-11:00  21.31304 -157.88911       0   0.0 Hōkūleʻa
  2021-12-12T02:10:26UTC 2021-12-11T16:10:26-10:00 2021-12-11T15:10:26-11:00  21.31323 -157.88881     304   0.0 Hikianalia
  2021-12-12T01:17:22UTC 2021-12-11T15:17:22-10:00 2021-12-11T14:17:22-11:00  21.31304 -157.88911       0   0.0 Hōkūleʻa
  2021-12-12T01:10:16UTC 2021-12-11T15:10:16-10:00 2021-12-11T14:10:16-11:00  21.31312 -157.88864     116   0.0 Hikianalia
  2021-12-12T00:18:24UTC 2021-12-11T14:18:24-10:00 2021-12-11T13:18:24-11:00  21.31304 -157.88911       0   0.0 Hōkūleʻa
  2021-12-12T00:09:37UTC 2021-12-11T14:09:37-10:00 2021-12-11T13:09:37-11:00  21.31313 -157.88866      37   0.0 Hikianalia
  2021-12-11T23:18:33UTC 2021-12-11T13:18:33-10:00 2021-12-11T12:18:33-11:00  21.31304 -157.88911       0   0.0 Hōkūleʻa
  2021-12-11T23:10:14UTC 2021-12-11T13:10:14-10:00 2021-12-11T12:10:14-11:00  21.31308 -157.88871     160   0.0 Hikianalia
  2021-12-11T22:17:39UTC 2021-12-11T12:17:39-10:00 2021-12-11T11:17:39-11:00  21.31304 -157.88911       0   0.0 Hōkūleʻa
  2021-12-11T22:09:16UTC 2021-12-11T12:09:16-10:00 2021-12-11T11:09:16-11:00  21.31324 -157.88877     328   0.0 Hikianalia
  2021-12-11T21:17:37UTC 2021-12-11T11:17:37-10:00 2021-12-11T10:17:37-11:00  21.31304 -157.88911       0   0.0 Hōkūleʻa
  2021-12-11T21:10:17UTC 2021-12-11T11:10:17-10:00 2021-12-11T10:10:17-11:00  21.31311 -157.88868       0   0.0 Hikianalia
  2021-12-11T20:18:21UTC 2021-12-11T10:18:21-10:00 2021-12-11T09:18:21-11:00  21.31304 -157.88911       0   0.0 Hōkūleʻa
  2021-12-11T20:09:36UTC 2021-12-11T10:09:36-10:00 2021-12-11T09:09:36-11:00  21.31311 -157.88868      90   0.0 Hikianalia
  2021-12-11T19:18:32UTC 2021-12-11T09:18:32-10:00 2021-12-11T08:18:32-11:00  21.31304 -157.88911       0   0.0 Hōkūleʻa
  2021-12-11T19:10:06UTC 2021-12-11T09:10:06-10:00 2021-12-11T08:10:06-11:00  21.31311 -157.88881     253   0.0 Hikianalia
  2021-12-11T18:18:40UTC 2021-12-11T08:18:40-10:00 2021-12-11T07:18:40-11:00  21.31304 -157.88911       0   0.0 Hōkūleʻa
  2021-12-11T18:10:19UTC 2021-12-11T08:10:19-10:00 2021-12-11T07:10:19-11:00  21.31315 -157.88866      32   0.0 Hikianalia
  2021-12-11T17:28:05UTC 2021-12-11T07:28:05-10:00 2021-12-11T06:28:05-11:00  21.31304 -157.88911       0   0.0 Hōkūleʻa
  2021-12-11T17:09:17UTC 2021-12-11T07:09:17-10:00 2021-12-11T06:09:17-11:00  21.31312 -157.88868     116   0.0 Hikianalia
  2021-12-11T16:18:33UTC 2021-12-11T06:18:33-10:00 2021-12-11T05:18:33-11:00  21.31304 -157.88911       0   0.0 Hōkūleʻa
  2021-12-11T16:10:40UTC 2021-12-11T06:10:40-10:00 2021-12-11T05:10:40-11:00  21.31313 -157.88871     328   0.0 Hikianalia
  2021-12-11T15:18:31UTC 2021-12-11T05:18:31-10:00 2021-12-11T04:18:31-11:00  21.31304 -157.88911       0   0.0 Hōkūleʻa
  2021-12-11T15:10:10UTC 2021-12-11T05:10:10-10:00 2021-12-11T04:10:10-11:00  21.31307 -157.88866     180   0.0 Hikianalia
  2021-12-11T14:18:50UTC 2021-12-11T04:18:50-10:00 2021-12-11T03:18:50-11:00  21.31304 -157.88911       0   0.0 Hōkūleʻa
  2021-12-11T14:10:19UTC 2021-12-11T04:10:19-10:00 2021-12-11T03:10:19-11:00  21.31310 -157.88866     270   0.0 Hikianalia
  2021-12-11T13:17:25UTC 2021-12-11T03:17:25-10:00 2021-12-11T02:17:25-11:00  21.31304 -157.88911       0   0.0 Hōkūleʻa
  2021-12-11T13:10:32UTC 2021-12-11T03:10:32-10:00 2021-12-11T02:10:32-11:00  21.31310 -157.88864      90   0.0 Hikianalia
  2021-12-11T12:18:24UTC 2021-12-11T02:18:24-10:00 2021-12-11T01:18:24-11:00  21.31304 -157.88911       0   0.0 Hōkūleʻa
  2021-12-11T12:10:44UTC 2021-12-11T02:10:44-10:00 2021-12-11T01:10:44-11:00  21.31310 -157.88866       0   0.0 Hikianalia
  2021-12-11T11:26:34UTC 2021-12-11T01:26:34-10:00 2021-12-11T00:26:34-11:00  21.31304 -157.88911       0   0.0 Hōkūleʻa
  2021-12-11T11:20:04UTC 2021-12-11T01:20:04-10:00 2021-12-11T00:20:04-11:00  21.31309 -157.88866     180   0.0 Hikianalia
  2021-12-11T10:18:37UTC 2021-12-11T00:18:37-10:00 2021-12-10T23:18:37-11:00  21.31304 -157.88911       0   0.0 Hōkūleʻa
  2021-12-11T10:10:06UTC 2021-12-11T00:10:06-10:00 2021-12-10T23:10:06-11:00  21.31310 -157.88866     223   0.0 Hikianalia
  2021-12-11T09:18:40UTC 2021-12-10T23:18:40-10:00 2021-12-10T22:18:40-11:00  21.31304 -157.88911       0   0.0 Hōkūleʻa
  2021-12-11T09:09:11UTC 2021-12-10T23:09:11-10:00 2021-12-10T22:09:11-11:00  21.31314 -157.88862      52   0.0 Hikianalia
  2021-12-11T08:18:30UTC 2021-12-10T22:18:30-10:00 2021-12-10T21:18:30-11:00  21.31304 -157.88911       0   0.0 Hōkūleʻa
  2021-12-11T08:10:37UTC 2021-12-10T22:10:37-10:00 2021-12-10T21:10:37-11:00  21.31311 -157.88866      90   0.0 Hikianalia
  2021-12-11T07:29:30UTC 2021-12-10T21:29:30-10:00 2021-12-10T20:29:30-11:00  21.31304 -157.88911     261   0.0 Hōkūleʻa
  2021-12-11T07:10:16UTC 2021-12-10T21:10:16-10:00 2021-12-10T20:10:16-11:00  21.31311 -157.88873     308   0.0 Hikianalia
  2021-12-11T06:17:41UTC 2021-12-10T20:17:41-10:00 2021-12-10T19:17:41-11:00  21.31311 -157.88860      81   0.1 Hōkūleʻa
  2021-12-11T06:10:04UTC 2021-12-10T20:10:04-10:00 2021-12-10T19:10:04-11:00  21.31308 -157.88868     109   0.0 Hikianalia
  2021-12-11T05:18:27UTC 2021-12-10T19:18:27-10:00 2021-12-10T18:18:27-11:00  21.31288 -157.89014     322   2.8 Hōkūleʻa
  2021-12-11T05:10:09UTC 2021-12-10T19:10:09-10:00 2021-12-10T18:10:09-11:00  21.31310 -157.88875     260   0.0 Hikianalia
  2021-12-11T04:18:36UTC 2021-12-10T18:18:36-10:00 2021-12-10T17:18:36-11:00  21.27570 -157.85912     291   1.8 Hōkūleʻa
  2021-12-11T04:10:49UTC 2021-12-10T18:10:49-10:00 2021-12-10T17:10:49-11:00  21.31311 -157.88868     285   0.0 Hikianalia
  2021-12-11T03:18:37UTC 2021-12-10T17:18:37-10:00 2021-12-10T16:18:37-11:00  21.26472 -157.82923     127   4.5 Hōkūleʻa
  2021-12-11T03:09:17UTC 2021-12-10T17:09:17-10:00 2021-12-10T16:09:17-11:00  21.31310 -157.88864     148   0.0 Hikianalia
  2021-12-11T02:18:49UTC 2021-12-10T16:18:49-10:00 2021-12-10T15:18:49-11:00  21.31034 -157.89341     238   0.4 Hōkūleʻa
  2021-12-11T02:10:08UTC 2021-12-10T16:10:08-10:00 2021-12-10T15:10:08-11:00  21.31317 -157.88868     317   0.0 Hikianalia
  2021-12-11T01:28:58UTC 2021-12-10T15:28:58-10:00 2021-12-10T14:28:58-11:00  21.31315 -157.88858      42   0.0 Hōkūleʻa
  2021-12-11T01:10:13UTC 2021-12-10T15:10:13-10:00 2021-12-10T14:10:13-11:00  21.31314 -157.88866       0   0.0 Hikianalia
  2021-12-11T00:17:23UTC 2021-12-10T14:17:23-10:00 2021-12-10T13:17:23-11:00  21.31313 -157.88860       0   0.0 Hōkūleʻa
  2021-12-11T00:09:36UTC 2021-12-10T14:09:36-10:00 2021-12-10T13:09:36-11:00  21.31314 -157.88866     148   0.0 Hikianalia
  2021-12-10T23:18:29UTC 2021-12-10T13:18:29-10:00 2021-12-10T12:18:29-11:00  21.31313 -157.88860     137   0.0 Hōkūleʻa
  2021-12-10T23:10:16UTC 2021-12-10T13:10:16-10:00 2021-12-10T12:10:16-11:00  21.31321 -157.88871     129   0.0 Hikianalia
  2021-12-10T22:17:49UTC 2021-12-10T12:17:49-10:00 2021-12-10T11:17:49-11:00  21.31315 -157.88862     264   0.0 Hōkūleʻa
  2021-12-10T22:09:16UTC 2021-12-10T12:09:16-10:00 2021-12-10T11:09:16-11:00  21.31327 -157.88879     314   0.0 Hikianalia
  2021-12-10T21:25:53UTC 2021-12-10T11:25:53-10:00 2021-12-10T10:25:53-11:00  21.31317 -157.88851      72   0.0 Hōkūleʻa
  2021-12-10T21:10:08UTC 2021-12-10T11:10:08-10:00 2021-12-10T10:10:08-11:00  21.31315 -157.88866       0   0.0 Hikianalia
  2021-12-10T20:18:23UTC 2021-12-10T10:18:23-10:00 2021-12-10T09:18:23-11:00  21.31313 -157.88862       0   0.0 Hōkūleʻa
  2021-12-10T20:10:49UTC 2021-12-10T10:10:49-10:00 2021-12-10T09:10:49-11:00  21.31313 -157.88866     288   0.0 Hikianalia
  2021-12-10T19:17:33UTC 2021-12-10T09:17:33-10:00 2021-12-10T08:17:33-11:00  21.31311 -157.88862     180   0.0 Hōkūleʻa
  2021-12-10T19:09:15UTC 2021-12-10T09:09:15-10:00 2021-12-10T08:09:15-11:00  21.31310 -157.88856      90   0.0 Hikianalia
  2021-12-10T18:18:41UTC 2021-12-10T08:18:41-10:00 2021-12-10T07:18:41-11:00  21.31313 -157.88862     119   0.0 Hōkūleʻa
  2021-12-10T18:10:09UTC 2021-12-10T08:10:09-10:00 2021-12-10T07:10:09-11:00  21.31310 -157.88873     285   0.0 Hikianalia
  2021-12-10T17:20:04UTC 2021-12-10T07:20:04-10:00 2021-12-10T06:20:04-11:00  21.31309 -157.88868     222   0.0 Hikianalia
  2021-12-10T17:18:30UTC 2021-12-10T07:18:30-10:00 2021-12-10T06:18:30-11:00  21.31314 -157.88864     335   0.0 Hōkūleʻa
  2021-12-10T16:18:33UTC 2021-12-10T06:18:33-10:00 2021-12-10T05:18:33-11:00  21.31310 -157.88862     119   0.0 Hōkūleʻa
  2021-12-10T16:17:52UTC 2021-12-10T06:17:52-10:00 2021-12-10T05:17:52-11:00  21.31311 -157.88866     242   0.0 Hikianalia
  2021-12-10T15:19:49UTC 2021-12-10T05:19:49-10:00 2021-12-10T04:19:49-11:00  21.31312 -157.88866     242   0.0 Hōkūleʻa
  2021-12-10T15:10:18UTC 2021-12-10T05:10:18-10:00 2021-12-10T04:10:18-11:00  21.31313 -157.88862      90   0.0 Hikianalia
  2021-12-10T14:18:38UTC 2021-12-10T04:18:38-10:00 2021-12-10T03:18:38-11:00  21.31314 -157.88862     316   0.0 Hōkūleʻa
  2021-12-10T14:10:17UTC 2021-12-10T04:10:17-10:00 2021-12-10T03:10:17-11:00  21.31313 -157.88871     284   0.0 Hikianalia
  2021-12-10T13:17:29UTC 2021-12-10T03:17:29-10:00 2021-12-10T02:17:29-11:00  21.31312 -157.88860      90   0.0 Hōkūleʻa
  2021-12-10T13:10:07UTC 2021-12-10T03:10:07-10:00 2021-12-10T02:10:07-11:00  21.31312 -157.88866       0   0.0 Hikianalia
  2021-12-10T12:18:40UTC 2021-12-10T02:18:40-10:00 2021-12-10T01:18:40-11:00  21.31312 -157.88862       0   0.0 Hōkūleʻa
  2021-12-10T12:11:47UTC 2021-12-10T02:11:47-10:00 2021-12-10T01:11:47-11:00  21.31312 -157.88866     155   0.0 Hikianalia
  2021-12-10T11:19:30UTC 2021-12-10T01:19:30-10:00 2021-12-10T00:19:30-11:00  21.31312 -157.88862     180   0.0 Hōkūleʻa
  2021-12-10T11:10:31UTC 2021-12-10T01:10:31-10:00 2021-12-10T00:10:31-11:00  21.31321 -157.88871       0   0.0 Hikianalia
  2021-12-10T10:18:42UTC 2021-12-10T00:18:42-10:00 2021-12-09T23:18:42-11:00  21.31313 -157.88862       0   0.0 Hōkūleʻa
  2021-12-10T10:10:15UTC 2021-12-10T00:10:15-10:00 2021-12-09T23:10:15-11:00  21.31321 -157.88871       0   0.0 Hikianalia
  2021-12-10T09:18:33UTC 2021-12-09T23:18:33-10:00 2021-12-09T22:18:33-11:00  21.31311 -157.88862     180   0.0 Hōkūleʻa
  2021-12-10T09:10:16UTC 2021-12-09T23:10:16-10:00 2021-12-09T22:10:16-11:00  21.31321 -157.88871     335   0.0 Hikianalia
  2021-12-10T08:17:47UTC 2021-12-09T22:17:47-10:00 2021-12-09T21:17:47-11:00  21.31312 -157.88862     244   0.0 Hōkūleʻa
  2021-12-10T08:09:44UTC 2021-12-09T22:09:44-10:00 2021-12-09T21:09:44-11:00  21.31312 -157.88866     162   0.0 Hikianalia
  2021-12-10T07:18:23UTC 2021-12-09T21:18:23-10:00 2021-12-09T20:18:23-11:00  21.31313 -157.88860      64   0.0 Hōkūleʻa
  2021-12-10T07:10:15UTC 2021-12-09T21:10:15-10:00 2021-12-09T20:10:15-11:00  21.31330 -157.88873      34   0.0 Hikianalia
  2021-12-10T06:18:24UTC 2021-12-09T20:18:24-10:00 2021-12-09T19:18:24-11:00  21.31312 -157.88862       0   0.0 Hōkūleʻa
  2021-12-10T06:17:06UTC 2021-12-09T20:17:06-10:00 2021-12-09T19:17:06-11:00  21.31319 -157.88881     270   0.0 Hikianalia
  2021-12-10T05:18:22UTC 2021-12-09T19:18:22-10:00 2021-12-09T18:18:22-11:00  21.31311 -157.88862     180   0.0 Hōkūleʻa
  2021-12-10T05:10:08UTC 2021-12-09T19:10:08-10:00 2021-12-09T18:10:08-11:00  21.31319 -157.88873     317   0.0 Hikianalia
  2021-12-10T04:17:48UTC 2021-12-09T18:17:48-10:00 2021-12-09T17:17:48-11:00  21.31313 -157.88862       0   0.0 Hōkūleʻa
  2021-12-10T04:10:49UTC 2021-12-09T18:10:49-10:00 2021-12-09T17:10:49-11:00  21.31312 -157.88866     195   0.0 Hikianalia
  2021-12-10T03:18:23UTC 2021-12-09T17:18:23-10:00 2021-12-09T16:18:23-11:00  21.31312 -157.88862     180   0.0 Hōkūleʻa
  2021-12-10T03:10:07UTC 2021-12-09T17:10:07-10:00 2021-12-09T16:10:07-11:00  21.31320 -157.88864      61   0.0 Hikianalia
  2021-12-10T02:18:30UTC 2021-12-09T16:18:30-10:00 2021-12-09T15:18:30-11:00  21.31319 -157.88862       0   0.0 Hōkūleʻa
  2021-12-10T02:09:16UTC 2021-12-09T16:09:16-10:00 2021-12-09T15:09:16-11:00  21.31318 -157.88868      75   0.0 Hikianalia
  2021-12-10T01:18:32UTC 2021-12-09T15:18:32-10:00 2021-12-09T14:18:32-11:00  21.31317 -157.88862       0   0.0 Hōkūleʻa
  2021-12-10T01:10:06UTC 2021-12-09T15:10:06-10:00 2021-12-09T14:10:06-11:00  21.31317 -157.88873     310   0.0 Hikianalia
  2021-12-10T00:17:41UTC 2021-12-09T14:17:41-10:00 2021-12-09T13:17:41-11:00  21.31314 -157.88862     234   0.0 Hōkūleʻa
  2021-12-10T00:09:48UTC 2021-12-09T14:09:48-10:00 2021-12-09T13:09:48-11:00  21.31308 -157.88862       0   0.0 Hikianalia
  2021-12-09T23:18:32UTC 2021-12-09T13:18:32-10:00 2021-12-09T12:18:32-11:00  21.31319 -157.88856       0   0.0 Hōkūleʻa
  2021-12-09T23:10:15UTC 2021-12-09T13:10:15-10:00 2021-12-09T12:10:15-11:00  21.31307 -157.88862     118   0.0 Hikianalia
  2021-12-09T22:17:32UTC 2021-12-09T12:17:32-10:00 2021-12-09T11:17:32-11:00  21.31307 -157.88856     137   0.0 Hōkūleʻa
  2021-12-09T22:09:12UTC 2021-12-09T12:09:12-10:00 2021-12-09T11:09:12-11:00  21.31312 -157.88873     285   0.0 Hikianalia
  2021-12-09T21:18:32UTC 2021-12-09T11:18:32-10:00 2021-12-09T10:18:32-11:00  21.31313 -157.88862       0   0.0 Hōkūleʻa
  2021-12-09T21:10:16UTC 2021-12-09T11:10:16-10:00 2021-12-09T10:10:16-11:00  21.31310 -157.88864     137   0.0 Hikianalia
  2021-12-09T20:17:38UTC 2021-12-09T10:17:38-10:00 2021-12-09T09:17:38-11:00  21.31313 -157.88862     270   0.0 Hōkūleʻa
  2021-12-09T20:09:37UTC 2021-12-09T10:09:37-10:00 2021-12-09T09:09:37-11:00  21.31312 -157.88866     247   0.0 Hikianalia
  2021-12-09T19:18:32UTC 2021-12-09T09:18:32-10:00 2021-12-09T08:18:32-11:00  21.31313 -157.88860      90   0.0 Hōkūleʻa
  2021-12-09T19:10:13UTC 2021-12-09T09:10:13-10:00 2021-12-09T08:10:13-11:00  21.31317 -157.88856      53   0.0 Hikianalia
  2021-12-09T18:18:30UTC 2021-12-09T08:18:30-10:00 2021-12-09T07:18:30-11:00  21.31313 -157.88862       0   0.0 Hōkūleʻa
  2021-12-09T18:09:10UTC 2021-12-09T08:09:10-10:00 2021-12-09T07:09:10-11:00  21.31309 -157.88866       0   0.0 Hikianalia
  2021-12-09T17:18:27UTC 2021-12-09T07:18:27-10:00 2021-12-09T06:18:27-11:00  21.31313 -157.88862       0   0.0 Hōkūleʻa
  2021-12-09T17:10:09UTC 2021-12-09T07:10:09-10:00 2021-12-09T06:10:09-11:00  21.31309 -157.88866     180   0.0 Hikianalia
  2021-12-09T16:18:37UTC 2021-12-09T06:18:37-10:00 2021-12-09T05:18:37-11:00  21.31313 -157.88862     316   0.0 Hōkūleʻa
  2021-12-09T16:10:40UTC 2021-12-09T06:10:40-10:00 2021-12-09T05:10:40-11:00  21.31312 -157.88866     180   0.0 Hikianalia
  2021-12-09T15:18:33UTC 2021-12-09T05:18:33-10:00 2021-12-09T04:18:33-11:00  21.31311 -157.88860     105   0.0 Hōkūleʻa
  2021-12-09T15:10:18UTC 2021-12-09T05:10:18-10:00 2021-12-09T04:10:18-11:00  21.31314 -157.88866     342   0.0 Hikianalia
  2021-12-09T14:17:29UTC 2021-12-09T04:17:29-10:00 2021-12-09T03:17:29-11:00  21.31312 -157.88864     243   0.0 Hōkūleʻa
  2021-12-09T14:10:16UTC 2021-12-09T04:10:16-10:00 2021-12-09T03:10:16-11:00  21.31308 -157.88864     200   0.0 Hikianalia
  2021-12-09T13:19:24UTC 2021-12-09T03:19:24-10:00 2021-12-09T02:19:24-11:00  21.31313 -157.88862       0   0.0 Hōkūleʻa
  2021-12-09T13:10:14UTC 2021-12-09T03:10:14-10:00 2021-12-09T02:10:14-11:00  21.31313 -157.88862      62   0.0 Hikianalia
  2021-12-09T12:18:49UTC 2021-12-09T02:18:49-10:00 2021-12-09T01:18:49-11:00  21.31313 -157.88862       0   0.0 Hōkūleʻa
  2021-12-09T12:10:48UTC 2021-12-09T02:10:48-10:00 2021-12-09T01:10:48-11:00  21.31311 -157.88866      90   0.0 Hikianalia
  2021-12-09T11:26:00UTC 2021-12-09T01:26:00-10:00 2021-12-09T00:26:00-11:00  21.31311 -157.88862     180   0.0 Hōkūleʻa
  2021-12-09T11:10:18UTC 2021-12-09T01:10:18-10:00 2021-12-09T00:10:18-11:00  21.31311 -157.88879     270   0.0 Hikianalia
  2021-12-09T10:18:33UTC 2021-12-09T00:18:33-10:00 2021-12-08T23:18:33-11:00  21.31312 -157.88862     180   0.0 Hōkūleʻa
  2021-12-09T10:10:14UTC 2021-12-09T00:10:14-10:00 2021-12-08T23:10:14-11:00  21.31311 -157.88851      90   0.0 Hikianalia
  2021-12-09T09:28:17UTC 2021-12-08T23:28:17-10:00 2021-12-08T22:28:17-11:00  21.31313 -157.88862       0   0.0 Hōkūleʻa
  2021-12-09T09:09:37UTC 2021-12-08T23:09:37-10:00 2021-12-08T22:09:37-11:00  21.31311 -157.88866     180   0.0 Hikianalia
  2021-12-09T08:17:40UTC 2021-12-08T22:17:40-10:00 2021-12-08T21:17:40-11:00  21.31313 -157.88862     296   0.0 Hōkūleʻa
  2021-12-09T08:10:36UTC 2021-12-08T22:10:36-10:00 2021-12-08T21:10:36-11:00  21.31318 -157.88866      49   0.0 Hikianalia
  2021-12-09T07:18:27UTC 2021-12-08T21:18:27-10:00 2021-12-08T20:18:27-11:00  21.31312 -157.88860      90   0.0 Hōkūleʻa
  2021-12-09T07:10:15UTC 2021-12-08T21:10:15-10:00 2021-12-08T20:10:15-11:00  21.31312 -157.88873     251   0.0 Hikianalia
  2021-12-09T06:18:33UTC 2021-12-08T20:18:33-10:00 2021-12-08T19:18:33-11:00  21.31312 -157.88862     180   0.0 Hōkūleʻa
  2021-12-09T06:10:17UTC 2021-12-08T20:10:17-10:00 2021-12-08T19:10:17-11:00  21.31314 -157.88866      61   0.0 Hikianalia
  2021-12-09T05:18:30UTC 2021-12-08T19:18:30-10:00 2021-12-08T18:18:30-11:00  21.31313 -157.88862       0   0.0 Hōkūleʻa
  2021-12-09T05:10:08UTC 2021-12-08T19:10:08-10:00 2021-12-08T18:10:08-11:00  21.31313 -157.88868     297   0.0 Hikianalia
  2021-12-09T04:17:40UTC 2021-12-08T18:17:40-10:00 2021-12-08T17:17:40-11:00  21.31313 -157.88862      20   0.0 Hōkūleʻa
  2021-12-09T04:09:46UTC 2021-12-08T18:09:46-10:00 2021-12-08T17:09:46-11:00  21.31312 -157.88866     224   0.0 Hikianalia
  2021-12-09T03:18:24UTC 2021-12-08T17:18:24-10:00 2021-12-08T16:18:24-11:00  21.31308 -157.88864     192   0.0 Hōkūleʻa
  2021-12-09T03:10:09UTC 2021-12-08T17:10:09-10:00 2021-12-08T16:10:09-11:00  21.31314 -157.88864     159   0.0 Hikianalia
  2021-12-09T02:18:30UTC 2021-12-08T16:18:30-10:00 2021-12-08T15:18:30-11:00  21.31318 -157.88862       0   0.0 Hōkūleʻa
  2021-12-09T02:10:18UTC 2021-12-08T16:10:18-10:00 2021-12-08T15:10:18-11:00  21.31320 -157.88866     137   0.0 Hikianalia
  2021-12-09T01:17:50UTC 2021-12-08T15:17:50-10:00 2021-12-08T14:17:50-11:00  21.31317 -157.88862     323   0.0 Hōkūleʻa
  2021-12-09T01:10:14UTC 2021-12-08T15:10:14-10:00 2021-12-08T14:10:14-11:00  21.31322 -157.88868     335   0.0 Hikianalia
  2021-12-09T00:18:25UTC 2021-12-08T14:18:25-10:00 2021-12-08T13:18:25-11:00  21.31311 -157.88858     105   0.0 Hōkūleʻa
  2021-12-09T00:09:38UTC 2021-12-08T14:09:38-10:00 2021-12-08T13:09:38-11:00  21.31318 -157.88866       0   0.0 Hikianalia
  2021-12-08T23:17:32UTC 2021-12-08T13:17:32-10:00 2021-12-08T12:17:32-11:00  21.31312 -157.88862     180   0.0 Hōkūleʻa
  2021-12-08T23:10:18UTC 2021-12-08T13:10:18-10:00 2021-12-08T12:10:18-11:00  21.31315 -157.88866      25   0.0 Hikianalia
  2021-12-08T22:18:40UTC 2021-12-08T12:18:40-10:00 2021-12-08T11:18:40-11:00  21.31313 -157.88862     296   0.0 Hōkūleʻa
  2021-12-08T22:10:36UTC 2021-12-08T12:10:36-10:00 2021-12-08T11:10:36-11:00  21.31311 -157.88868     241   0.0 Hikianalia
  2021-12-08T21:17:39UTC 2021-12-08T11:17:39-10:00 2021-12-08T10:17:39-11:00  21.31312 -157.88860     154   0.0 Hōkūleʻa
  2021-12-08T21:09:37UTC 2021-12-08T11:09:37-10:00 2021-12-08T10:09:37-11:00  21.31312 -157.88866     309   0.0 Hikianalia
  2021-12-08T20:18:38UTC 2021-12-08T10:18:38-10:00 2021-12-08T09:18:38-11:00  21.31317 -157.88862       0   0.0 Hōkūleʻa
  2021-12-08T20:10:17UTC 2021-12-08T10:10:17-10:00 2021-12-08T09:10:17-11:00  21.31309 -157.88862     119   0.0 Hikianalia
  2021-12-08T19:28:11UTC 2021-12-08T09:28:11-10:00 2021-12-08T08:28:11-11:00  21.31312 -157.88862       0   0.0 Hōkūleʻa
  2021-12-08T19:10:45UTC 2021-12-08T09:10:45-10:00 2021-12-08T08:10:45-11:00  21.31311 -157.88866     223   0.0 Hikianalia
  2021-12-08T18:18:40UTC 2021-12-08T08:18:40-10:00 2021-12-08T07:18:40-11:00  21.31312 -157.88862       0   0.0 Hōkūleʻa
  2021-12-08T18:09:17UTC 2021-12-08T08:09:17-10:00 2021-12-08T07:09:17-11:00  21.31320 -157.88858     347   0.0 Hikianalia
  2021-12-08T17:18:38UTC 2021-12-08T07:18:38-10:00 2021-12-08T06:18:38-11:00  21.31311 -157.88862     180   0.0 Hōkūleʻa
  2021-12-08T17:10:08UTC 2021-12-08T07:10:08-10:00 2021-12-08T06:10:08-11:00  21.31311 -157.88856      84   0.0 Hikianalia
  2021-12-08T16:18:32UTC 2021-12-08T06:18:32-10:00 2021-12-08T05:18:32-11:00  21.31312 -157.88862     244   0.0 Hōkūleʻa
  2021-12-08T16:10:37UTC 2021-12-08T06:10:37-10:00 2021-12-08T05:10:37-11:00  21.31310 -157.88866     180   0.0 Hikianalia
  2021-12-08T15:18:31UTC 2021-12-08T05:18:31-10:00 2021-12-08T04:18:31-11:00  21.31313 -157.88860      90   0.0 Hōkūleʻa
  2021-12-08T15:10:38UTC 2021-12-08T05:10:38-10:00 2021-12-08T04:10:38-11:00  21.31312 -157.88866     125   0.0 Hikianalia
  2021-12-08T14:27:36UTC 2021-12-08T04:27:36-10:00 2021-12-08T03:27:36-11:00  21.31313 -157.88862       0   0.0 Hōkūleʻa
  2021-12-08T14:10:16UTC 2021-12-08T04:10:16-10:00 2021-12-08T03:10:16-11:00  21.31317 -157.88873     321   0.0 Hikianalia
  2021-12-08T13:18:29UTC 2021-12-08T03:18:29-10:00 2021-12-08T02:18:29-11:00  21.31313 -157.88862       0   0.0 Hōkūleʻa
  2021-12-08T13:09:16UTC 2021-12-08T03:09:16-10:00 2021-12-08T02:09:16-11:00  21.31309 -157.88866     180   0.0 Hikianalia
  2021-12-08T12:18:33UTC 2021-12-08T02:18:33-10:00 2021-12-08T01:18:33-11:00  21.31311 -157.88862     224   0.0 Hōkūleʻa
  2021-12-08T12:10:37UTC 2021-12-08T02:10:37-10:00 2021-12-08T01:10:37-11:00  21.31311 -157.88866     323   0.0 Hikianalia
  2021-12-08T11:18:24UTC 2021-12-08T01:18:24-10:00 2021-12-08T00:18:24-11:00  21.31313 -157.88860      90   0.0 Hōkūleʻa
  2021-12-08T11:10:17UTC 2021-12-08T01:10:17-10:00 2021-12-08T00:10:17-11:00  21.31306 -157.88862     148   0.0 Hikianalia
  2021-12-08T10:30:18UTC 2021-12-08T00:30:18-10:00 2021-12-07T23:30:18-11:00  21.31313 -157.88862      25   0.0 Hōkūleʻa
  2021-12-08T10:10:14UTC 2021-12-08T00:10:14-10:00 2021-12-07T23:10:14-11:00  21.31312 -157.88866       0   0.0 Hikianalia
  2021-12-08T09:18:24UTC 2021-12-07T23:18:24-10:00 2021-12-07T22:18:24-11:00  21.31309 -157.88864     222   0.0 Hōkūleʻa
  2021-12-08T09:10:46UTC 2021-12-07T23:10:46-10:00 2021-12-07T22:10:46-11:00  21.31305 -157.88866     171   0.0 Hikianalia
  2021-12-08T08:18:30UTC 2021-12-07T22:18:30-10:00 2021-12-07T21:18:30-11:00  21.31311 -157.88862     180   0.0 Hōkūleʻa
  2021-12-08T08:10:15UTC 2021-12-07T22:10:15-10:00 2021-12-07T21:10:15-11:00  21.31318 -157.88868     159   0.0 Hikianalia
  2021-12-08T07:18:49UTC 2021-12-07T21:18:49-10:00 2021-12-07T20:18:49-11:00  21.31313 -157.88862      90   0.0 Hōkūleʻa
  2021-12-08T07:10:07UTC 2021-12-07T21:10:07-10:00 2021-12-07T20:10:07-11:00  21.31323 -157.88871     333   0.0 Hikianalia
  2021-12-08T06:24:51UTC 2021-12-07T20:24:51-10:00 2021-12-07T19:24:51-11:00  21.31313 -157.88866     284   0.0 Hōkūleʻa
  2021-12-08T06:09:43UTC 2021-12-07T20:09:43-10:00 2021-12-07T19:09:43-11:00  21.31311 -157.88864      80   0.0 Hikianalia
  2021-12-08T05:18:22UTC 2021-12-07T19:18:22-10:00 2021-12-07T18:18:22-11:00  21.31312 -157.88862       0   0.0 Hōkūleʻa
  2021-12-08T05:10:09UTC 2021-12-07T19:10:09-10:00 2021-12-07T18:10:09-11:00  21.31310 -157.88871      61   0.0 Hikianalia
  2021-12-08T04:18:42UTC 2021-12-07T18:18:42-10:00 2021-12-07T17:18:42-11:00  21.31312 -157.88862     109   0.0 Hōkūleʻa
  2021-12-08T04:10:09UTC 2021-12-07T18:10:09-10:00 2021-12-07T17:10:09-11:00  21.31309 -157.88873     200   0.0 Hikianalia
  2021-12-08T03:18:24UTC 2021-12-07T17:18:24-10:00 2021-12-07T16:18:24-11:00  21.31314 -157.88868     242   0.0 Hōkūleʻa
  2021-12-08T03:09:11UTC 2021-12-07T17:09:11-10:00 2021-12-07T16:09:11-11:00  21.31314 -157.88871     270   0.0 Hikianalia
  2021-12-08T02:17:36UTC 2021-12-07T16:17:36-10:00 2021-12-07T15:17:36-11:00  21.31318 -157.88862       0   0.0 Hōkūleʻa
  2021-12-08T02:10:40UTC 2021-12-07T16:10:40-10:00 2021-12-07T15:10:40-11:00  21.31314 -157.88866     285   0.0 Hikianalia
  2021-12-08T01:18:33UTC 2021-12-07T15:18:33-10:00 2021-12-07T14:18:33-11:00  21.31314 -157.88862     180   0.0 Hōkūleʻa
  2021-12-08T01:10:40UTC 2021-12-07T15:10:40-10:00 2021-12-07T14:10:40-11:00  21.31313 -157.88862      90   0.0 Hikianalia
  2021-12-08T00:18:49UTC 2021-12-07T14:18:49-10:00 2021-12-07T13:18:49-11:00  21.31315 -157.88862     299   0.0 Hōkūleʻa
  2021-12-08T00:09:46UTC 2021-12-07T14:09:46-10:00 2021-12-07T13:09:46-11:00  21.31313 -157.88864     147   0.0 Hikianalia
  2021-12-07T23:18:29UTC 2021-12-07T13:18:29-10:00 2021-12-07T12:18:29-11:00  21.31313 -157.88858     105   0.0 Hōkūleʻa
  2021-12-07T23:10:09UTC 2021-12-07T13:10:09-10:00 2021-12-07T12:10:09-11:00  21.31317 -157.88866     169   0.0 Hikianalia
  2021-12-07T22:17:34UTC 2021-12-07T12:17:34-10:00 2021-12-07T11:17:34-11:00  21.31314 -157.88862       0   0.0 Hōkūleʻa
  2021-12-07T22:09:47UTC 2021-12-07T12:09:47-10:00 2021-12-07T11:09:47-11:00  21.31326 -157.88868     350   0.0 Hikianalia
  2021-12-07T21:18:25UTC 2021-12-07T11:18:25-10:00 2021-12-07T10:18:25-11:00  21.31313 -157.88862       0   0.0 Hōkūleʻa
  2021-12-07T21:10:09UTC 2021-12-07T11:10:09-10:00 2021-12-07T10:10:09-11:00  21.31315 -157.88866      43   0.0 Hikianalia
  2021-12-07T20:18:44UTC 2021-12-07T10:18:44-10:00 2021-12-07T09:18:44-11:00  21.31313 -157.88862      63   0.0 Hōkūleʻa
  2021-12-07T20:10:16UTC 2021-12-07T10:10:16-10:00 2021-12-07T09:10:16-11:00  21.31309 -157.88873     262   0.0 Hikianalia
  2021-12-07T19:17:25UTC 2021-12-07T09:17:25-10:00 2021-12-07T08:17:25-11:00  21.31312 -157.88864     270   0.0 Hōkūleʻa
  2021-12-07T19:10:14UTC 2021-12-07T09:10:14-10:00 2021-12-07T08:10:14-11:00  21.31310 -157.88864      90   0.0 Hikianalia
  2021-12-07T18:18:22UTC 2021-12-07T08:18:22-10:00 2021-12-07T07:18:22-11:00  21.31312 -157.88862       0   0.0 Hōkūleʻa
  2021-12-07T18:10:47UTC 2021-12-07T08:10:47-10:00 2021-12-07T07:10:47-11:00  21.31310 -157.88866     180   0.0 Hikianalia
  2021-12-07T17:18:45UTC 2021-12-07T07:18:45-10:00 2021-12-07T06:18:45-11:00  21.31312 -157.88862       0   0.0 Hōkūleʻa
  2021-12-07T17:10:09UTC 2021-12-07T07:10:09-10:00 2021-12-07T06:10:09-11:00  21.31312 -157.88866     180   0.0 Hikianalia
  2021-12-07T16:18:33UTC 2021-12-07T06:18:33-10:00 2021-12-07T05:18:33-11:00  21.31310 -157.88862     138   0.0 Hōkūleʻa
  2021-12-07T16:10:38UTC 2021-12-07T06:10:38-10:00 2021-12-07T05:10:38-11:00  21.31314 -157.88866      37   0.0 Hikianalia
  2021-12-07T15:18:33UTC 2021-12-07T05:18:33-10:00 2021-12-07T04:18:33-11:00  21.31312 -157.88864     270   0.0 Hōkūleʻa
  2021-12-07T15:10:17UTC 2021-12-07T05:10:17-10:00 2021-12-07T04:10:17-11:00  21.31309 -157.88871     180   0.0 Hikianalia
  2021-12-07T14:18:38UTC 2021-12-07T04:18:38-10:00 2021-12-07T03:18:38-11:00  21.31312 -157.88862     285   0.0 Hōkūleʻa
  2021-12-07T14:10:14UTC 2021-12-07T04:10:14-10:00 2021-12-07T03:10:14-11:00  21.31311 -157.88871     270   0.0 Hikianalia
  2021-12-07T13:18:33UTC 2021-12-07T03:18:33-10:00 2021-12-07T02:18:33-11:00  21.31311 -157.88858     119   0.0 Hōkūleʻa
  2021-12-07T13:17:20UTC 2021-12-07T03:17:20-10:00 2021-12-07T02:17:20-11:00  21.31311 -157.88868     241   0.0 Hikianalia
  2021-12-07T12:17:24UTC 2021-12-07T02:17:24-10:00 2021-12-07T01:17:24-11:00  21.31312 -157.88860      43   0.0 Hōkūleʻa
  2021-12-07T12:10:48UTC 2021-12-07T02:10:48-10:00 2021-12-07T01:10:48-11:00  21.31312 -157.88866       0   0.0 Hikianalia
  2021-12-07T11:18:21UTC 2021-12-07T01:18:21-10:00 2021-12-07T00:18:21-11:00  21.31310 -157.88862     223   0.0 Hōkūleʻa
  2021-12-07T11:10:17UTC 2021-12-07T01:10:17-10:00 2021-12-07T00:10:17-11:00  21.31308 -157.88866     213   0.0 Hikianalia
  2021-12-07T10:18:37UTC 2021-12-07T00:18:37-10:00 2021-12-06T23:18:37-11:00  21.31312 -157.88860      90   0.0 Hōkūleʻa
  2021-12-07T10:11:14UTC 2021-12-07T00:11:14-10:00 2021-12-06T23:11:14-11:00  21.31311 -157.88864     162   0.0 Hikianalia
  2021-12-07T09:18:38UTC 2021-12-06T23:18:38-10:00 2021-12-06T22:18:38-11:00  21.31312 -157.88862     317   0.0 Hōkūleʻa
  2021-12-07T09:10:16UTC 2021-12-06T23:10:16-10:00 2021-12-06T22:10:16-11:00  21.31318 -157.88866       0   0.0 Hikianalia
  2021-12-07T08:28:19UTC 2021-12-06T22:28:19-10:00 2021-12-06T21:28:19-11:00  21.31310 -157.88866     180   0.0 Hikianalia
  2021-12-07T08:18:27UTC 2021-12-06T22:18:27-10:00 2021-12-06T21:18:27-11:00  21.31310 -157.88860     137   0.0 Hōkūleʻa
  2021-12-07T07:18:24UTC 2021-12-06T21:18:24-10:00 2021-12-06T20:18:24-11:00  21.31312 -157.88862     180   0.0 Hōkūleʻa
  2021-12-07T07:10:39UTC 2021-12-06T21:10:39-10:00 2021-12-06T20:10:39-11:00  21.31311 -157.88866     123   0.0 Hikianalia
  2021-12-07T06:18:48UTC 2021-12-06T20:18:48-10:00 2021-12-06T19:18:48-11:00  21.31313 -157.88862      90   0.0 Hōkūleʻa
  2021-12-07T06:10:17UTC 2021-12-06T20:10:17-10:00 2021-12-06T19:10:17-11:00  21.31318 -157.88877     298   0.0 Hikianalia
  2021-12-07T05:18:38UTC 2021-12-06T19:18:38-10:00 2021-12-06T18:18:38-11:00  21.31313 -157.88866     308   0.0 Hōkūleʻa
  2021-12-07T05:10:14UTC 2021-12-06T19:10:14-10:00 2021-12-06T18:10:14-11:00  21.31312 -157.88866       0   0.0 Hikianalia
  2021-12-07T04:18:32UTC 2021-12-06T18:18:32-10:00 2021-12-06T17:18:32-11:00  21.31310 -157.88862     180   0.0 Hōkūleʻa
  2021-12-07T04:10:46UTC 2021-12-06T18:10:46-10:00 2021-12-06T17:10:46-11:00  21.31311 -157.88866     270   0.0 Hikianalia
  2021-12-07T03:18:23UTC 2021-12-06T17:18:23-10:00 2021-12-06T16:18:23-11:00  21.31318 -157.88862     285   0.0 Hōkūleʻa
  2021-12-07T03:10:17UTC 2021-12-06T17:10:17-10:00 2021-12-06T16:10:17-11:00  21.31311 -157.88851     105   0.0 Hikianalia
  2021-12-07T02:18:46UTC 2021-12-06T16:18:46-10:00 2021-12-06T15:18:46-11:00  21.31317 -157.88858     328   0.0 Hōkūleʻa
  2021-12-07T02:09:14UTC 2021-12-06T16:09:14-10:00 2021-12-06T15:09:14-11:00  21.31314 -157.88864     180   0.0 Hikianalia
  2021-12-07T01:18:34UTC 2021-12-06T15:18:34-10:00 2021-12-06T14:18:34-11:00  21.31313 -157.88856      90   0.0 Hōkūleʻa
  2021-12-07T01:10:39UTC 2021-12-06T15:10:39-10:00 2021-12-06T14:10:39-11:00  21.31317 -157.88864     305   0.0 Hikianalia
  2021-12-07T00:18:33UTC 2021-12-06T14:18:33-10:00 2021-12-06T13:18:33-11:00  21.31313 -157.88860     180   0.0 Hōkūleʻa
  2021-12-07T00:10:16UTC 2021-12-06T14:10:16-10:00 2021-12-06T13:10:16-11:00  21.31312 -157.88858     118   0.0 Hikianalia
  2021-12-06T23:18:31UTC 2021-12-06T13:18:31-10:00 2021-12-06T12:18:31-11:00  21.31315 -157.88860      43   0.0 Hōkūleʻa
  2021-12-06T23:10:17UTC 2021-12-06T13:10:17-10:00 2021-12-06T12:10:17-11:00  21.31317 -157.88866       0   0.0 Hikianalia
  2021-12-06T22:18:48UTC 2021-12-06T12:18:48-10:00 2021-12-06T11:18:48-11:00  21.31313 -157.88862      52   0.0 Hōkūleʻa
  2021-12-06T22:10:43UTC 2021-12-06T12:10:43-10:00 2021-12-06T11:10:43-11:00  21.31314 -157.88866     248   0.0 Hikianalia
  2021-12-06T21:27:33UTC 2021-12-06T11:27:33-10:00 2021-12-06T10:27:33-11:00  21.31310 -157.88866     223   0.0 Hōkūleʻa
  2021-12-06T21:10:17UTC 2021-12-06T11:10:17-10:00 2021-12-06T10:10:17-11:00  21.31318 -157.88858       0   0.0 Hikianalia
  2021-12-06T20:35:21UTC 2021-12-06T10:35:21-10:00 2021-12-06T09:35:21-11:00  21.31314 -157.88862       0   0.0 Hōkūleʻa
  2021-12-06T20:09:19UTC 2021-12-06T10:09:19-10:00 2021-12-06T09:09:19-11:00  21.31317 -157.88858      62   0.0 Hikianalia
  2021-12-06T19:18:25UTC 2021-12-06T09:18:25-10:00 2021-12-06T08:18:25-11:00  21.31312 -157.88862     180   0.0 Hōkūleʻa
  2021-12-06T19:10:37UTC 2021-12-06T09:10:37-10:00 2021-12-06T08:10:37-11:00  21.31312 -157.88866      80   0.0 Hikianalia
  2021-12-06T18:18:49UTC 2021-12-06T08:18:49-10:00 2021-12-06T07:18:49-11:00  21.31313 -157.88862     255   0.0 Hōkūleʻa
  2021-12-06T18:10:17UTC 2021-12-06T08:10:17-10:00 2021-12-06T07:10:17-11:00  21.31311 -157.88873     285   0.0 Hikianalia
  2021-12-06T17:18:35UTC 2021-12-06T07:18:35-10:00 2021-12-06T06:18:35-11:00  21.31314 -157.88858      43   0.0 Hōkūleʻa
  2021-12-06T17:10:09UTC 2021-12-06T07:10:09-10:00 2021-12-06T06:10:09-11:00  21.31310 -157.88868     212   0.0 Hikianalia
  2021-12-06T16:18:32UTC 2021-12-06T06:18:32-10:00 2021-12-06T05:18:32-11:00  21.31312 -157.88860      62   0.0 Hōkūleʻa
  2021-12-06T16:10:46UTC 2021-12-06T06:10:46-10:00 2021-12-06T05:10:46-11:00  21.31313 -157.88866     155   0.0 Hikianalia
  2021-12-06T15:18:30UTC 2021-12-06T05:18:30-10:00 2021-12-06T04:18:30-11:00  21.31311 -157.88862     180   0.0 Hōkūleʻa
  2021-12-06T15:10:19UTC 2021-12-06T05:10:19-10:00 2021-12-06T04:10:19-11:00  21.31318 -157.88868     347   0.0 Hikianalia
  2021-12-06T14:18:43UTC 2021-12-06T04:18:43-10:00 2021-12-06T03:18:43-11:00  21.31312 -157.88862       0   0.0 Hōkūleʻa
  2021-12-06T14:10:14UTC 2021-12-06T04:10:14-10:00 2021-12-06T03:10:14-11:00  21.31309 -157.88866     138   0.0 Hikianalia
  2021-12-06T13:18:26UTC 2021-12-06T03:18:26-10:00 2021-12-06T02:18:26-11:00  21.31312 -157.88862       0   0.0 Hōkūleʻa
  2021-12-06T13:10:13UTC 2021-12-06T03:10:13-10:00 2021-12-06T02:10:13-11:00  21.31311 -157.88868     270   0.0 Hikianalia
  2021-12-06T12:19:31UTC 2021-12-06T02:19:31-10:00 2021-12-06T01:19:31-11:00  21.31312 -157.88862     180   0.0 Hōkūleʻa
  2021-12-06T12:10:43UTC 2021-12-06T02:10:43-10:00 2021-12-06T01:10:43-11:00  21.31311 -157.88866     180   0.0 Hikianalia
  2021-12-06T11:18:40UTC 2021-12-06T01:18:40-10:00 2021-12-06T00:18:40-11:00  21.31313 -157.88862       0   0.0 Hōkūleʻa
  2021-12-06T11:10:18UTC 2021-12-06T01:10:18-10:00 2021-12-06T00:10:18-11:00  21.31314 -157.88866     270   0.0 Hikianalia
  2021-12-06T10:18:55UTC 2021-12-06T00:18:55-10:00 2021-12-05T23:18:55-11:00  21.31311 -157.88862     251   0.0 Hōkūleʻa
  2021-12-06T10:10:19UTC 2021-12-06T00:10:19-10:00 2021-12-05T23:10:19-11:00  21.31314 -157.88864      43   0.0 Hikianalia
  2021-12-06T09:18:38UTC 2021-12-05T23:18:38-10:00 2021-12-05T22:18:38-11:00  21.31313 -157.88856      90   0.0 Hōkūleʻa
  2021-12-06T09:10:38UTC 2021-12-05T23:10:38-10:00 2021-12-05T22:10:38-11:00  21.31310 -157.88868     299   0.0 Hikianalia
  2021-12-06T08:18:37UTC 2021-12-05T22:18:37-10:00 2021-12-05T21:18:37-11:00  21.31313 -157.88862       0   0.0 Hōkūleʻa
  2021-12-06T08:10:17UTC 2021-12-05T22:10:17-10:00 2021-12-05T21:10:17-11:00  21.31309 -157.88866     180   0.0 Hikianalia
  2021-12-06T07:19:33UTC 2021-12-05T21:19:33-10:00 2021-12-05T20:19:33-11:00  21.31311 -157.88862     180   0.0 Hōkūleʻa
  2021-12-06T07:10:12UTC 2021-12-05T21:10:12-10:00 2021-12-05T20:10:12-11:00  21.31311 -157.88866     180   0.0 Hikianalia
  2021-12-06T06:19:03UTC 2021-12-05T20:19:03-10:00 2021-12-05T19:19:03-11:00  21.31313 -157.88862     308   0.0 Hōkūleʻa
  2021-12-06T06:10:46UTC 2021-12-05T20:10:46-10:00 2021-12-05T19:10:46-11:00  21.31312 -157.88866       0   0.0 Hikianalia
  2021-12-06T05:18:37UTC 2021-12-05T19:18:37-10:00 2021-12-05T18:18:37-11:00  21.31310 -157.88858      75   0.0 Hōkūleʻa
  2021-12-06T05:10:43UTC 2021-12-05T19:10:43-10:00 2021-12-05T18:10:43-11:00  21.31312 -157.88866     244   0.0 Hikianalia
  2021-12-06T04:17:32UTC 2021-12-05T18:17:32-10:00 2021-12-05T17:17:32-11:00  21.31309 -157.88862     180   0.0 Hōkūleʻa
  2021-12-06T04:16:23UTC 2021-12-05T18:16:23-10:00 2021-12-05T17:16:23-11:00  21.31313 -157.88864     110   0.0 Hikianalia
  2021-12-06T03:18:24UTC 2021-12-05T17:18:24-10:00 2021-12-05T16:18:24-11:00  21.31315 -157.88862       0   0.0 Hōkūleʻa
  2021-12-06T03:10:09UTC 2021-12-05T17:10:09-10:00 2021-12-05T16:10:09-11:00  21.31315 -157.88871     299   0.0 Hikianalia
  2021-12-06T02:18:45UTC 2021-12-05T16:18:45-10:00 2021-12-05T15:18:45-11:00  21.31313 -157.88862     219   0.0 Hōkūleʻa
  2021-12-06T02:10:43UTC 2021-12-05T16:10:43-10:00 2021-12-05T15:10:43-11:00  21.31313 -157.88866     145   0.0 Hikianalia
  2021-12-06T01:17:35UTC 2021-12-05T15:17:35-10:00 2021-12-05T14:17:35-11:00  21.31321 -157.88856      32   0.0 Hōkūleʻa
  2021-12-06T01:10:14UTC 2021-12-05T15:10:14-10:00 2021-12-05T14:10:14-11:00  21.31330 -157.88879     290   0.0 Hikianalia
  2021-12-06T00:18:25UTC 2021-12-05T14:18:25-10:00 2021-12-05T13:18:25-11:00  21.31318 -157.88858      32   0.0 Hōkūleʻa
  2021-12-06T00:09:17UTC 2021-12-05T14:09:17-10:00 2021-12-05T13:09:17-11:00  21.31326 -157.88866       0   0.0 Hikianalia
  2021-12-05T23:18:29UTC 2021-12-05T13:18:29-10:00 2021-12-05T12:18:29-11:00  21.31311 -157.88862     180   0.0 Hōkūleʻa
  2021-12-05T23:10:09UTC 2021-12-05T13:10:09-10:00 2021-12-05T12:10:09-11:00  21.31312 -157.88866     137   0.0 Hikianalia
  2021-12-05T22:17:50UTC 2021-12-05T12:17:50-10:00 2021-12-05T11:17:50-11:00  21.31315 -157.88862      61   0.0 Hōkūleʻa
  2021-12-05T22:09:45UTC 2021-12-05T12:09:45-10:00 2021-12-05T11:09:45-11:00  21.31314 -157.88868     180   0.0 Hikianalia
  2021-12-05T21:18:36UTC 2021-12-05T11:18:36-10:00 2021-12-05T10:18:36-11:00  21.31313 -157.88866     250   0.0 Hōkūleʻa
  2021-12-05T21:10:18UTC 2021-12-05T11:10:18-10:00 2021-12-05T10:10:18-11:00  21.31315 -157.88868     299   0.0 Hikianalia
  2021-12-05T20:18:30UTC 2021-12-05T10:18:30-10:00 2021-12-05T09:18:30-11:00  21.31315 -157.88860      33   0.0 Hōkūleʻa
  2021-12-05T20:10:09UTC 2021-12-05T10:10:09-10:00 2021-12-05T09:10:09-11:00  21.31313 -157.88864     119   0.0 Hikianalia
  2021-12-05T19:17:24UTC 2021-12-05T09:17:24-10:00 2021-12-05T08:17:24-11:00  21.31312 -157.88862     180   0.0 Hōkūleʻa
  2021-12-05T19:10:18UTC 2021-12-05T09:10:18-10:00 2021-12-05T08:10:18-11:00  21.31315 -157.88868     328   0.0 Hikianalia
  2021-12-05T18:18:41UTC 2021-12-05T08:18:41-10:00 2021-12-05T07:18:41-11:00  21.31313 -157.88862       0   0.0 Hōkūleʻa
  2021-12-05T18:09:44UTC 2021-12-05T08:09:44-10:00 2021-12-05T07:09:44-11:00  21.31312 -157.88866     303   0.0 Hikianalia
  2021-12-05T17:18:35UTC 2021-12-05T07:18:35-10:00 2021-12-05T06:18:35-11:00  21.31312 -157.88862     117   0.0 Hōkūleʻa
  2021-12-05T17:10:09UTC 2021-12-05T07:10:09-10:00 2021-12-05T06:10:09-11:00  21.31306 -157.88856     133   0.0 Hikianalia
  2021-12-05T16:18:25UTC 2021-12-05T06:18:25-10:00 2021-12-05T05:18:25-11:00  21.31313 -157.88864     297   0.0 Hōkūleʻa
  2021-12-05T16:10:20UTC 2021-12-05T06:10:20-10:00 2021-12-05T05:10:20-11:00  21.31313 -157.88864     345   0.0 Hikianalia
  2021-12-05T15:18:25UTC 2021-12-05T05:18:25-10:00 2021-12-05T04:18:25-11:00  21.31312 -157.88862       0   0.0 Hōkūleʻa
  2021-12-05T15:10:18UTC 2021-12-05T05:10:18-10:00 2021-12-05T04:10:18-11:00  21.31306 -157.88862     169   0.0 Hikianalia
  2021-12-05T14:18:49UTC 2021-12-05T04:18:49-10:00 2021-12-05T03:18:49-11:00  21.31312 -157.88862     288   0.0 Hōkūleʻa
  2021-12-05T14:10:36UTC 2021-12-05T04:10:36-10:00 2021-12-05T03:10:36-11:00  21.31315 -157.88864     347   0.0 Hikianalia
  2021-12-05T13:18:34UTC 2021-12-05T03:18:34-10:00 2021-12-05T02:18:34-11:00  21.31309 -157.88851     108   0.0 Hōkūleʻa
  2021-12-05T13:09:06UTC 2021-12-05T03:09:06-10:00 2021-12-05T02:09:06-11:00  21.31307 -157.88862     152   0.0 Hikianalia
  2021-12-05T12:18:33UTC 2021-12-05T02:18:33-10:00 2021-12-05T01:18:33-11:00  21.31312 -157.88862       0   0.0 Hōkūleʻa
  2021-12-05T12:10:09UTC 2021-12-05T02:10:09-10:00 2021-12-05T01:10:09-11:00  21.31314 -157.88866       0   0.0 Hikianalia
  2021-12-05T11:18:32UTC 2021-12-05T01:18:32-10:00 2021-12-05T00:18:32-11:00  21.31311 -157.88862     180   0.0 Hōkūleʻa
  2021-12-05T11:10:14UTC 2021-12-05T01:10:14-10:00 2021-12-05T00:10:14-11:00  21.31313 -157.88866       0   0.0 Hikianalia
  2021-12-05T10:18:42UTC 2021-12-05T00:18:42-10:00 2021-12-04T23:18:42-11:00  21.31312 -157.88862      57   0.0 Hōkūleʻa
  2021-12-05T10:10:46UTC 2021-12-05T00:10:46-10:00 2021-12-04T23:10:46-11:00  21.31311 -157.88866      61   0.0 Hikianalia
  2021-12-05T09:18:29UTC 2021-12-04T23:18:29-10:00 2021-12-04T22:18:29-11:00  21.31306 -157.88873     242   0.0 Hōkūleʻa
  2021-12-05T09:10:46UTC 2021-12-04T23:10:46-10:00 2021-12-04T22:10:46-11:00  21.31310 -157.88868     180   0.0 Hikianalia
  2021-12-05T08:18:30UTC 2021-12-04T22:18:30-10:00 2021-12-04T21:18:30-11:00  21.31311 -157.88862     251   0.0 Hōkūleʻa
  2021-12-05T08:10:08UTC 2021-12-04T22:10:08-10:00 2021-12-04T21:10:08-11:00  21.31311 -157.88868      90   0.0 Hikianalia
  2021-12-05T07:18:32UTC 2021-12-04T21:18:32-10:00 2021-12-04T20:18:32-11:00  21.31313 -157.88856      81   0.0 Hōkūleʻa
  2021-12-05T07:10:15UTC 2021-12-04T21:10:15-10:00 2021-12-04T20:10:15-11:00  21.31311 -157.88873     270   0.0 Hikianalia
  2021-12-05T06:18:17UTC 2021-12-04T20:18:17-10:00 2021-12-04T19:18:17-11:00  21.31311 -157.88866       0   0.0 Hikianalia
  2021-12-05T06:17:46UTC 2021-12-04T20:17:46-10:00 2021-12-04T19:17:46-11:00  21.31312 -157.88862       0   0.0 Hōkūleʻa
  2021-12-05T05:18:22UTC 2021-12-04T19:18:22-10:00 2021-12-04T18:18:22-11:00  21.31311 -157.88862     180   0.0 Hōkūleʻa
  2021-12-05T05:10:35UTC 2021-12-04T19:10:35-10:00 2021-12-04T18:10:35-11:00  21.31311 -157.88866      32   0.0 Hikianalia
  2021-12-05T04:34:51UTC 2021-12-04T18:34:51-10:00 2021-12-04T17:34:51-11:00  21.31312 -157.88862     180   0.0 Hōkūleʻa
  2021-12-05T04:10:13UTC 2021-12-04T18:10:13-10:00 2021-12-04T17:10:13-11:00  21.31308 -157.88868     189   0.0 Hikianalia
  2021-12-05T03:18:33UTC 2021-12-04T17:18:33-10:00 2021-12-04T16:18:33-11:00  21.31318 -157.88862     255   0.0 Hōkūleʻa
  2021-12-05T03:18:20UTC 2021-12-04T17:18:20-10:00 2021-12-04T16:18:20-11:00  21.31320 -157.88866     298   0.0 Hikianalia
  2021-12-05T02:18:39UTC 2021-12-04T16:18:39-10:00 2021-12-04T15:18:39-11:00  21.31319 -157.88858     118   0.0 Hōkūleʻa
  2021-12-05T02:09:46UTC 2021-12-04T16:09:46-10:00 2021-12-04T15:09:46-11:00  21.31319 -157.88864     318   0.0 Hikianalia
  2021-12-05T01:17:36UTC 2021-12-04T15:17:36-10:00 2021-12-04T14:17:36-11:00  21.31321 -157.88862     339   0.0 Hōkūleʻa
  2021-12-05T01:10:13UTC 2021-12-04T15:10:13-10:00 2021-12-04T14:10:13-11:00  21.31317 -157.88862      52   0.0 Hikianalia
  2021-12-05T00:18:24UTC 2021-12-04T14:18:24-10:00 2021-12-04T13:18:24-11:00  21.31315 -157.88860     270   0.0 Hōkūleʻa
  2021-12-05T00:09:47UTC 2021-12-04T14:09:47-10:00 2021-12-04T13:09:47-11:00  21.31313 -157.88866     288   0.0 Hikianalia
  2021-12-04T23:17:21UTC 2021-12-04T13:17:21-10:00 2021-12-04T12:17:21-11:00  21.31315 -157.88858     104   0.0 Hōkūleʻa
  2021-12-04T23:10:09UTC 2021-12-04T13:10:09-10:00 2021-12-04T12:10:09-11:00  21.31310 -157.88856     122   0.0 Hikianalia
  2021-12-04T22:18:59UTC 2021-12-04T12:18:59-10:00 2021-12-04T11:18:59-11:00  21.31317 -157.88862       0   0.0 Hōkūleʻa
  2021-12-04T22:09:23UTC 2021-12-04T12:09:23-10:00 2021-12-04T11:09:23-11:00  21.31318 -157.88868     335   0.0 Hikianalia
  2021-12-04T21:17:35UTC 2021-12-04T11:17:35-10:00 2021-12-04T10:17:35-11:00  21.31312 -157.88862       0   0.0 Hōkūleʻa
  2021-12-04T21:09:37UTC 2021-12-04T11:09:37-10:00 2021-12-04T10:09:37-11:00  21.31313 -157.88866      20   0.0 Hikianalia
  2021-12-04T20:18:23UTC 2021-12-04T10:18:23-10:00 2021-12-04T09:18:23-11:00  21.31311 -157.88862     105   0.0 Hōkūleʻa
  2021-12-04T20:10:17UTC 2021-12-04T10:10:17-10:00 2021-12-04T09:10:17-11:00  21.31308 -157.88868     137   0.0 Hikianalia
  2021-12-04T19:18:32UTC 2021-12-04T09:18:32-10:00 2021-12-04T08:18:32-11:00  21.31312 -157.88866     256   0.0 Hōkūleʻa
  2021-12-04T19:10:12UTC 2021-12-04T09:10:12-10:00 2021-12-04T08:10:12-11:00  21.31312 -157.88873     285   0.0 Hikianalia
  2021-12-04T18:17:40UTC 2021-12-04T08:17:40-10:00 2021-12-04T07:17:40-11:00  21.31313 -157.88862     294   0.0 Hōkūleʻa
  2021-12-04T18:09:46UTC 2021-12-04T08:09:46-10:00 2021-12-04T07:09:46-11:00  21.31311 -157.88868     159   0.0 Hikianalia
  2021-12-04T17:18:30UTC 2021-12-04T07:18:30-10:00 2021-12-04T06:18:30-11:00  21.31308 -157.88849     118   0.0 Hōkūleʻa
  2021-12-04T17:10:10UTC 2021-12-04T07:10:10-10:00 2021-12-04T06:10:10-11:00  21.31322 -157.88873       0   0.0 Hikianalia
  2021-12-04T16:18:25UTC 2021-12-04T06:18:25-10:00 2021-12-04T05:18:25-11:00  21.31311 -157.88856      80   0.0 Hōkūleʻa
  2021-12-04T16:10:07UTC 2021-12-04T06:10:07-10:00 2021-12-04T05:10:07-11:00  21.31312 -157.88873     306   0.0 Hikianalia
  2021-12-04T15:18:29UTC 2021-12-04T05:18:29-10:00 2021-12-04T04:18:29-11:00  21.31310 -157.88862     180   0.0 Hōkūleʻa
  2021-12-04T15:10:17UTC 2021-12-04T05:10:17-10:00 2021-12-04T04:10:17-11:00  21.31308 -157.88866     180   0.0 Hikianalia
  2021-12-04T14:18:38UTC 2021-12-04T04:18:38-10:00 2021-12-04T03:18:38-11:00  21.31311 -157.88862     119   0.0 Hōkūleʻa
  2021-12-04T14:10:44UTC 2021-12-04T04:10:44-10:00 2021-12-04T03:10:44-11:00  21.31311 -157.88866     119   0.0 Hikianalia
  2021-12-04T13:17:35UTC 2021-12-04T03:17:35-10:00 2021-12-04T02:17:35-11:00  21.31312 -157.88864     243   0.0 Hōkūleʻa
  2021-12-04T13:10:13UTC 2021-12-04T03:10:13-10:00 2021-12-04T02:10:13-11:00  21.31312 -157.88868     212   0.0 Hikianalia
  2021-12-04T12:18:24UTC 2021-12-04T02:18:24-10:00 2021-12-04T01:18:24-11:00  21.31313 -157.88862       0   0.0 Hōkūleʻa
  2021-12-04T12:09:08UTC 2021-12-04T02:09:08-10:00 2021-12-04T01:09:08-11:00  21.31315 -157.88866      25   0.0 Hikianalia
  2021-12-04T11:18:29UTC 2021-12-04T01:18:29-10:00 2021-12-04T00:18:29-11:00  21.31312 -157.88862       0   0.0 Hōkūleʻa
  2021-12-04T11:10:42UTC 2021-12-04T01:10:42-10:00 2021-12-04T00:10:42-11:00  21.31311 -157.88868      90   0.0 Hikianalia
  2021-12-04T10:18:44UTC 2021-12-04T00:18:44-10:00 2021-12-03T23:18:44-11:00  21.31312 -157.88862      61   0.0 Hōkūleʻa
  2021-12-04T10:10:06UTC 2021-12-04T00:10:06-10:00 2021-12-03T23:10:06-11:00  21.31311 -157.88875     328   0.0 Hikianalia
  2021-12-04T09:18:27UTC 2021-12-03T23:18:27-10:00 2021-12-03T22:18:27-11:00  21.31309 -157.88868     241   0.0 Hōkūleʻa
  2021-12-04T09:10:18UTC 2021-12-03T23:10:18-10:00 2021-12-03T22:10:18-11:00  21.31305 -157.88871     208   0.0 Hikianalia
  2021-12-04T08:17:27UTC 2021-12-03T22:17:27-10:00 2021-12-03T21:17:27-11:00  21.31312 -157.88862       0   0.0 Hōkūleʻa
  2021-12-04T08:10:46UTC 2021-12-03T22:10:46-10:00 2021-12-03T21:10:46-11:00  21.31312 -157.88866      42   0.0 Hikianalia
  2021-12-04T07:18:24UTC 2021-12-03T21:18:24-10:00 2021-12-03T20:18:24-11:00  21.31309 -157.88862     180   0.0 Hōkūleʻa
  2021-12-04T07:09:14UTC 2021-12-03T21:09:14-10:00 2021-12-03T20:09:14-11:00  21.31310 -157.88868     222   0.0 Hikianalia
  2021-12-04T06:36:11UTC 2021-12-03T20:36:11-10:00 2021-12-03T19:36:11-11:00  21.31312 -157.88862       0   0.0 Hōkūleʻa
  2021-12-04T06:10:10UTC 2021-12-03T20:10:10-10:00 2021-12-03T19:10:10-11:00  21.31312 -157.88866       0   0.0 Hikianalia
  2021-12-04T05:18:30UTC 2021-12-03T19:18:30-10:00 2021-12-03T18:18:30-11:00  21.31312 -157.88862       0   0.0 Hōkūleʻa
  2021-12-04T05:10:15UTC 2021-12-03T19:10:15-10:00 2021-12-03T18:10:15-11:00  21.31310 -157.88866     180   0.0 Hikianalia
  2021-12-04T04:18:23UTC 2021-12-03T18:18:23-10:00 2021-12-03T17:18:23-11:00  21.31312 -157.88862     213   0.0 Hōkūleʻa
  2021-12-04T04:10:46UTC 2021-12-03T18:10:46-10:00 2021-12-03T17:10:46-11:00  21.31311 -157.88866     141   0.0 Hikianalia
  2021-12-04T03:18:31UTC 2021-12-03T17:18:31-10:00 2021-12-03T16:18:31-11:00  21.31315 -157.88860       0   0.0 Hōkūleʻa
  2021-12-04T03:10:17UTC 2021-12-03T17:10:17-10:00 2021-12-03T16:10:17-11:00  21.31319 -157.88873     276   0.0 Hikianalia
  2021-12-04T02:17:40UTC 2021-12-03T16:17:40-10:00 2021-12-03T15:17:40-11:00  21.31313 -157.88860       0   0.0 Hōkūleʻa
  2021-12-04T02:09:18UTC 2021-12-03T16:09:18-10:00 2021-12-03T15:09:18-11:00  21.31318 -157.88862      32   0.0 Hikianalia
  2021-12-04T01:18:27UTC 2021-12-03T15:18:27-10:00 2021-12-03T14:18:27-11:00  21.31311 -157.88860     180   0.0 Hōkūleʻa
  2021-12-04T01:09:40UTC 2021-12-03T15:09:40-10:00 2021-12-03T14:09:40-11:00  21.31311 -157.88866     227   0.0 Hikianalia
  2021-12-04T00:17:30UTC 2021-12-03T14:17:30-10:00 2021-12-03T13:17:30-11:00  21.31315 -157.88860      33   0.0 Hōkūleʻa
  2021-12-04T00:10:09UTC 2021-12-03T14:10:09-10:00 2021-12-03T13:10:09-11:00  21.31319 -157.88858      75   0.0 Hikianalia
  2021-12-03T23:18:30UTC 2021-12-03T13:18:30-10:00 2021-12-03T12:18:30-11:00  21.31312 -157.88862     180   0.0 Hōkūleʻa
  2021-12-03T23:10:18UTC 2021-12-03T13:10:18-10:00 2021-12-03T12:10:18-11:00  21.31315 -157.88871       0   0.0 Hikianalia
  2021-12-03T22:19:00UTC 2021-12-03T12:19:00-10:00 2021-12-03T11:19:00-11:00  21.31314 -157.88862       0   0.0 Hōkūleʻa
  2021-12-03T22:09:47UTC 2021-12-03T12:09:47-10:00 2021-12-03T11:09:47-11:00  21.31315 -157.88871     248   0.0 Hikianalia
  2021-12-03T21:27:32UTC 2021-12-03T11:27:32-10:00 2021-12-03T10:27:32-11:00  21.31313 -157.88862     270   0.0 Hōkūleʻa
  2021-12-03T21:10:13UTC 2021-12-03T11:10:13-10:00 2021-12-03T10:10:13-11:00  21.31319 -157.88862      13   0.0 Hikianalia
  2021-12-03T20:17:47UTC 2021-12-03T10:17:47-10:00 2021-12-03T09:17:47-11:00  21.31313 -157.88860      44   0.0 Hōkūleʻa
  2021-12-03T20:10:21UTC 2021-12-03T10:10:21-10:00 2021-12-03T09:10:21-11:00  21.31310 -157.88864     154   0.0 Hikianalia
  2021-12-03T19:18:25UTC 2021-12-03T09:18:25-10:00 2021-12-03T08:18:25-11:00  21.31311 -157.88862     180   0.0 Hōkūleʻa
  2021-12-03T19:09:09UTC 2021-12-03T09:09:09-10:00 2021-12-03T08:09:09-11:00  21.31314 -157.88866       0   0.0 Hikianalia
  2021-12-03T18:18:45UTC 2021-12-03T08:18:45-10:00 2021-12-03T07:18:45-11:00  21.31312 -157.88862      61   0.0 Hōkūleʻa
  2021-12-03T18:10:38UTC 2021-12-03T08:10:38-10:00 2021-12-03T07:10:38-11:00  21.31311 -157.88866      90   0.0 Hikianalia
  2021-12-03T17:18:30UTC 2021-12-03T07:18:30-10:00 2021-12-03T06:18:30-11:00  21.31311 -157.88864     270   0.0 Hōkūleʻa
  2021-12-03T17:10:16UTC 2021-12-03T07:10:16-10:00 2021-12-03T06:10:16-11:00  21.31311 -157.88868     270   0.0 Hikianalia
  2021-12-03T16:17:35UTC 2021-12-03T06:17:35-10:00 2021-12-03T05:17:35-11:00  21.31311 -157.88862       0   0.0 Hōkūleʻa
  2021-12-03T16:10:47UTC 2021-12-03T06:10:47-10:00 2021-12-03T05:10:47-11:00  21.31311 -157.88866     255   0.0 Hikianalia
  2021-12-03T15:18:40UTC 2021-12-03T05:18:40-10:00 2021-12-03T04:18:40-11:00  21.31310 -157.88862     180   0.0 Hōkūleʻa
  2021-12-03T15:10:37UTC 2021-12-03T05:10:37-10:00 2021-12-03T04:10:37-11:00  21.31312 -157.88862      61   0.0 Hikianalia
  2021-12-03T14:18:28UTC 2021-12-03T04:18:28-10:00 2021-12-03T03:18:28-11:00  21.31314 -157.88862     327   0.0 Hōkūleʻa
  2021-12-03T14:10:18UTC 2021-12-03T04:10:18-10:00 2021-12-03T03:10:18-11:00  21.31310 -157.88866       0   0.0 Hikianalia
  2021-12-03T13:18:25UTC 2021-12-03T03:18:25-10:00 2021-12-03T02:18:25-11:00  21.31311 -157.88860     118   0.0 Hōkūleʻa
  2021-12-03T13:10:06UTC 2021-12-03T03:10:06-10:00 2021-12-03T02:10:06-11:00  21.31310 -157.88866       0   0.0 Hikianalia
  2021-12-03T12:18:47UTC 2021-12-03T02:18:47-10:00 2021-12-03T01:18:47-11:00  21.31312 -157.88862       0   0.0 Hōkūleʻa
  2021-12-03T12:10:46UTC 2021-12-03T02:10:46-10:00 2021-12-03T01:10:46-11:00  21.31310 -157.88866     180   0.0 Hikianalia
  2021-12-03T11:27:16UTC 2021-12-03T01:27:16-10:00 2021-12-03T00:27:16-11:00  21.31309 -157.88862     180   0.0 Hōkūleʻa
  2021-12-03T11:10:48UTC 2021-12-03T01:10:48-10:00 2021-12-03T00:10:48-11:00  21.31312 -157.88866     160   0.0 Hikianalia
  2021-12-03T10:18:29UTC 2021-12-03T00:18:29-10:00 2021-12-02T23:18:29-11:00  21.31313 -157.88862     180   0.0 Hōkūleʻa
  2021-12-03T10:10:16UTC 2021-12-03T00:10:16-10:00 2021-12-02T23:10:16-11:00  21.31318 -157.88868       0   0.0 Hikianalia
  2021-12-03T09:18:48UTC 2021-12-02T23:18:48-10:00 2021-12-02T22:18:48-11:00  21.31314 -157.88862       0   0.0 Hōkūleʻa
  2021-12-03T09:10:17UTC 2021-12-02T23:10:17-10:00 2021-12-02T22:10:17-11:00  21.31318 -157.88868     343   0.0 Hikianalia
  2021-12-03T08:18:25UTC 2021-12-02T22:18:25-10:00 2021-12-02T21:18:25-11:00  21.31312 -157.88862       0   0.0 Hōkūleʻa
  2021-12-03T08:10:36UTC 2021-12-02T22:10:36-10:00 2021-12-02T21:10:36-11:00  21.31311 -157.88866     163   0.0 Hikianalia
  2021-12-03T07:18:32UTC 2021-12-02T21:18:32-10:00 2021-12-02T20:18:32-11:00  21.31311 -157.88862     255   0.0 Hōkūleʻa
  2021-12-03T07:10:20UTC 2021-12-02T21:10:20-10:00 2021-12-02T20:10:20-11:00  21.31318 -157.88868     154   0.0 Hikianalia
  2021-12-03T06:18:49UTC 2021-12-02T20:18:49-10:00 2021-12-02T19:18:49-11:00  21.31312 -157.88858       0   0.0 Hōkūleʻa
  2021-12-03T06:10:12UTC 2021-12-02T20:10:12-10:00 2021-12-02T19:10:12-11:00  21.31322 -157.88871     317   0.0 Hikianalia
  2021-12-03T05:18:47UTC 2021-12-02T19:18:47-10:00 2021-12-02T18:18:47-11:00  21.31310 -157.88858     137   0.0 Hōkūleʻa
  2021-12-03T05:10:17UTC 2021-12-02T19:10:17-10:00 2021-12-02T18:10:17-11:00  21.31318 -157.88866       0   0.0 Hikianalia
  2021-12-03T04:26:54UTC 2021-12-02T18:26:54-10:00 2021-12-02T17:26:54-11:00  21.31314 -157.88862     180   0.0 Hōkūleʻa
  2021-12-03T04:19:43UTC 2021-12-02T18:19:43-10:00 2021-12-02T17:19:43-11:00  21.31312 -157.88866     334   2.5 Hikianalia
  2021-12-03T03:18:24UTC 2021-12-02T17:18:24-10:00 2021-12-02T16:18:24-11:00  21.31318 -157.88862     298   0.0 Hōkūleʻa
  2021-12-03T03:09:11UTC 2021-12-02T17:09:11-10:00 2021-12-02T16:09:11-11:00  21.26882 -157.86611     128   2.1 Hikianalia
  2021-12-03T02:17:44UTC 2021-12-02T16:17:44-10:00 2021-12-02T15:17:44-11:00  21.31317 -157.88860     328   0.0 Hōkūleʻa
  2021-12-03T02:10:15UTC 2021-12-02T16:10:15-10:00 2021-12-02T15:10:15-11:00  21.29006 -157.89534     195   1.4 Hikianalia
  2021-12-03T01:18:32UTC 2021-12-02T15:18:32-10:00 2021-12-02T14:18:32-11:00  21.31310 -157.88856     180   0.0 Hōkūleʻa
  2021-12-03T01:10:17UTC 2021-12-02T15:10:17-10:00 2021-12-02T14:10:17-11:00  21.31303 -157.88888     217   0.0 Hikianalia
  2021-12-03T00:18:32UTC 2021-12-02T14:18:32-10:00 2021-12-02T13:18:32-11:00  21.31317 -157.88856      55   0.0 Hōkūleʻa
  2021-12-03T00:09:48UTC 2021-12-02T14:09:48-10:00 2021-12-02T13:09:48-11:00  21.31308 -157.88883     324   0.0 Hikianalia
  2021-12-02T23:17:29UTC 2021-12-02T13:17:29-10:00 2021-12-02T12:17:29-11:00  21.31312 -157.88862     180   0.0 Hōkūleʻa
  2021-12-02T23:10:09UTC 2021-12-02T13:10:09-10:00 2021-12-02T12:10:09-11:00  21.31303 -157.88879     105   0.0 Hikianalia
  2021-12-02T22:17:41UTC 2021-12-02T12:17:41-10:00 2021-12-02T11:17:41-11:00  21.31314 -157.88862     285   0.0 Hōkūleʻa
  2021-12-02T22:09:48UTC 2021-12-02T12:09:48-10:00 2021-12-02T11:09:48-11:00  21.31305 -157.88888     180   0.0 Hikianalia
  2021-12-02T21:18:31UTC 2021-12-02T11:18:31-10:00 2021-12-02T10:18:31-11:00  21.31313 -157.88858      76   0.0 Hōkūleʻa
  2021-12-02T21:10:17UTC 2021-12-02T11:10:17-10:00 2021-12-02T10:10:17-11:00  21.31306 -157.88888     335   0.0 Hikianalia
  2021-12-02T20:17:31UTC 2021-12-02T10:17:31-10:00 2021-12-02T09:17:31-11:00  21.31312 -157.88862       0   0.0 Hōkūleʻa
  2021-12-02T20:09:35UTC 2021-12-02T10:09:35-10:00 2021-12-02T09:09:35-11:00  21.31302 -157.88886     105   0.0 Hikianalia
  2021-12-02T19:18:26UTC 2021-12-02T09:18:26-10:00 2021-12-02T08:18:26-11:00  21.31312 -157.88862       0   0.0 Hōkūleʻa
  2021-12-02T19:10:12UTC 2021-12-02T09:10:12-10:00 2021-12-02T08:10:12-11:00  21.31306 -157.88903     258   0.0 Hikianalia
  2021-12-02T18:18:49UTC 2021-12-02T08:18:49-10:00 2021-12-02T07:18:49-11:00  21.31312 -157.88862     213   0.0 Hōkūleʻa
  2021-12-02T18:10:19UTC 2021-12-02T08:10:19-10:00 2021-12-02T07:10:19-11:00  21.31308 -157.88892     301   0.0 Hikianalia
  2021-12-02T17:18:31UTC 2021-12-02T07:18:31-10:00 2021-12-02T06:18:31-11:00  21.31315 -157.88860      33   0.0 Hōkūleʻa
  2021-12-02T17:10:15UTC 2021-12-02T07:10:15-10:00 2021-12-02T06:10:15-11:00  21.31299 -157.88877      90   0.0 Hikianalia
  2021-12-02T16:18:31UTC 2021-12-02T06:18:31-10:00 2021-12-02T05:18:31-11:00  21.31312 -157.88862       0   0.0 Hōkūleʻa
  2021-12-02T16:10:48UTC 2021-12-02T06:10:48-10:00 2021-12-02T05:10:48-11:00  21.31299 -157.88886     128   0.0 Hikianalia
  2021-12-02T15:28:52UTC 2021-12-02T05:28:52-10:00 2021-12-02T04:28:52-11:00  21.31311 -157.88862       0   0.0 Hōkūleʻa
  2021-12-02T15:10:09UTC 2021-12-02T05:10:09-10:00 2021-12-02T04:10:09-11:00  21.31306 -157.88894     298   0.0 Hikianalia
  2021-12-02T14:18:48UTC 2021-12-02T04:18:48-10:00 2021-12-02T03:18:48-11:00  21.31311 -157.88862     327   0.0 Hōkūleʻa
  2021-12-02T14:10:28UTC 2021-12-02T04:10:28-10:00 2021-12-02T03:10:28-11:00  21.31302 -157.88886     298   0.0 Hikianalia
  2021-12-02T13:18:33UTC 2021-12-02T03:18:33-10:00 2021-12-02T02:18:33-11:00  21.31308 -157.88860     154   0.0 Hōkūleʻa
  2021-12-02T13:10:27UTC 2021-12-02T03:10:27-10:00 2021-12-02T02:10:27-11:00  21.31300 -157.88883     180   0.0 Hikianalia
  2021-12-02T12:18:29UTC 2021-12-02T02:18:29-10:00 2021-12-02T01:18:29-11:00  21.31312 -157.88862       0   0.0 Hōkūleʻa
  2021-12-02T12:10:48UTC 2021-12-02T02:10:48-10:00 2021-12-02T01:10:48-11:00  21.31302 -157.88883     335   0.1 Hikianalia
  2021-12-02T11:18:30UTC 2021-12-02T01:18:30-10:00 2021-12-02T00:18:30-11:00  21.31312 -157.88862     180   0.0 Hōkūleʻa
  2021-12-02T11:10:17UTC 2021-12-02T01:10:17-10:00 2021-12-02T00:10:17-11:00  21.31104 -157.88787     156   0.1 Hikianalia
  2021-12-02T10:18:44UTC 2021-12-02T00:18:44-10:00 2021-12-01T23:18:44-11:00  21.31313 -157.88862       0   0.0 Hōkūleʻa
  2021-12-02T10:10:07UTC 2021-12-02T00:10:07-10:00 2021-12-01T23:10:07-11:00  21.31303 -157.88883       0   0.0 Hikianalia
  2021-12-02T09:18:37UTC 2021-12-01T23:18:37-10:00 2021-12-01T22:18:37-11:00  21.31312 -157.88862       0   0.0 Hōkūleʻa
  2021-12-02T09:09:09UTC 2021-12-01T23:09:09-10:00 2021-12-01T22:09:09-11:00  21.31303 -157.88883      62   0.0 Hikianalia
  2021-12-02T08:18:21UTC 2021-12-01T22:18:21-10:00 2021-12-01T21:18:21-11:00  21.31311 -157.88862     180   0.0 Hōkūleʻa
  2021-12-02T08:10:41UTC 2021-12-01T22:10:41-10:00 2021-12-01T21:10:41-11:00  21.31302 -157.88886     242   0.0 Hikianalia
  2021-12-02T07:18:31UTC 2021-12-01T21:18:31-10:00 2021-12-01T20:18:31-11:00  21.31312 -157.88862       0   0.0 Hōkūleʻa
  2021-12-02T07:10:21UTC 2021-12-01T21:10:21-10:00 2021-12-01T20:10:21-11:00  21.31303 -157.88883       0   0.0 Hikianalia
  2021-12-02T06:17:52UTC 2021-12-01T20:17:52-10:00 2021-12-01T19:17:52-11:00  21.31312 -157.88862       0   0.0 Hōkūleʻa
  2021-12-02T06:10:13UTC 2021-12-01T20:10:13-10:00 2021-12-01T19:10:13-11:00  21.31303 -157.88883     270   0.0 Hikianalia
  2021-12-02T05:18:22UTC 2021-12-01T19:18:22-10:00 2021-12-01T18:18:22-11:00  21.31312 -157.88862     180   0.0 Hōkūleʻa
  2021-12-02T05:10:09UTC 2021-12-01T19:10:09-10:00 2021-12-01T18:10:09-11:00  21.31303 -157.88873      85   0.0 Hikianalia
  2021-12-02T04:18:24UTC 2021-12-01T18:18:24-10:00 2021-12-01T17:18:24-11:00  21.31313 -157.88862     180   0.0 Hōkūleʻa
  2021-12-02T04:10:46UTC 2021-12-01T18:10:46-10:00 2021-12-01T17:10:46-11:00  21.31302 -157.88886     180   0.0 Hikianalia
  2021-12-02T03:18:31UTC 2021-12-01T17:18:31-10:00 2021-12-01T16:18:31-11:00  21.31315 -157.88862       0   0.0 Hōkūleʻa
  2021-12-02T03:10:23UTC 2021-12-01T17:10:23-10:00 2021-12-01T16:10:23-11:00  21.31308 -157.88886     339   0.0 Hikianalia
  2021-12-02T02:17:46UTC 2021-12-01T16:17:46-10:00 2021-12-01T15:17:46-11:00  21.31314 -157.88862     119   0.0 Hōkūleʻa
  2021-12-02T02:09:18UTC 2021-12-01T16:09:18-10:00 2021-12-01T15:09:18-11:00  21.31303 -157.88883     251   0.0 Hikianalia
  2021-12-02T01:18:32UTC 2021-12-01T15:18:32-10:00 2021-12-01T14:18:32-11:00  21.31315 -157.88864     280   0.0 Hōkūleʻa
  2021-12-02T01:10:11UTC 2021-12-01T15:10:11-10:00 2021-12-01T14:10:11-11:00  21.31305 -157.88877      57   0.0 Hikianalia
  2021-12-02T00:17:47UTC 2021-12-01T14:17:47-10:00 2021-12-01T13:17:47-11:00  21.31314 -157.88858      90   0.0 Hōkūleʻa
  2021-12-02T00:10:47UTC 2021-12-01T14:10:47-10:00 2021-12-01T13:10:47-11:00  21.31299 -157.88886     285   0.0 Hikianalia
  2021-12-01T23:18:21UTC 2021-12-01T13:18:21-10:00 2021-12-01T12:18:21-11:00  21.31314 -157.88860     118   0.0 Hōkūleʻa
  2021-12-01T23:09:22UTC 2021-12-01T13:09:22-10:00 2021-12-01T12:09:22-11:00  21.31298 -157.88881     143   0.0 Hikianalia
  2021-12-01T22:17:48UTC 2021-12-01T12:17:48-10:00 2021-12-01T11:17:48-11:00  21.31315 -157.88862     270   0.0 Hōkūleʻa
  2021-12-01T22:09:25UTC 2021-12-01T12:09:25-10:00 2021-12-01T11:09:25-11:00  21.31309 -157.88890     288   0.0 Hikianalia
  2021-12-01T21:17:29UTC 2021-12-01T11:17:29-10:00 2021-12-01T10:17:29-11:00  21.31315 -157.88856      62   0.0 Hōkūleʻa
  2021-12-01T21:10:05UTC 2021-12-01T11:10:05-10:00 2021-12-01T10:10:05-11:00  21.31306 -157.88879      62   0.0 Hikianalia
  2021-12-01T20:18:29UTC 2021-12-01T10:18:29-10:00 2021-12-01T09:18:29-11:00  21.31312 -157.88862       0   0.0 Hōkūleʻa
  2021-12-01T20:09:42UTC 2021-12-01T10:09:42-10:00 2021-12-01T09:09:42-11:00  21.31303 -157.88886     270   0.0 Hikianalia
  2021-12-01T19:18:33UTC 2021-12-01T09:18:33-10:00 2021-12-01T08:18:33-11:00  21.31312 -157.88862     180   0.0 Hōkūleʻa
  2021-12-01T19:10:16UTC 2021-12-01T09:10:16-10:00 2021-12-01T08:10:16-11:00  21.31303 -157.88883      70   0.0 Hikianalia
  2021-12-01T18:18:46UTC 2021-12-01T08:18:46-10:00 2021-12-01T07:18:46-11:00  21.31313 -157.88862      63   0.0 Hōkūleʻa
  2021-12-01T18:09:28UTC 2021-12-01T08:09:28-10:00 2021-12-01T07:09:28-11:00  21.31300 -157.88890     255   0.0 Hikianalia
  2021-12-01T17:18:29UTC 2021-12-01T07:18:29-10:00 2021-12-01T06:18:29-11:00  21.31312 -157.88864       0   0.0 Hōkūleʻa
  2021-12-01T17:11:10UTC 2021-12-01T07:11:10-10:00 2021-12-01T06:11:10-11:00  21.31304 -157.88877      70   0.0 Hikianalia
  2021-12-01T16:28:03UTC 2021-12-01T06:28:03-10:00 2021-12-01T05:28:03-11:00  21.31302 -157.88883      52   0.0 Hikianalia
  2021-12-01T16:18:32UTC 2021-12-01T06:18:32-10:00 2021-12-01T05:18:32-11:00  21.31312 -157.88864     299   0.0 Hōkūleʻa
  2021-12-01T15:19:49UTC 2021-12-01T05:19:49-10:00 2021-12-01T04:19:49-11:00  21.31311 -157.88862     270   0.0 Hōkūleʻa
  2021-12-01T15:10:18UTC 2021-12-01T05:10:18-10:00 2021-12-01T04:10:18-11:00  21.31298 -157.88888     260   0.0 Hikianalia
  2021-12-01T14:17:42UTC 2021-12-01T04:17:42-10:00 2021-12-01T03:17:42-11:00  21.31311 -157.88860     118   0.0 Hōkūleʻa
  2021-12-01T14:10:18UTC 2021-12-01T04:10:18-10:00 2021-12-01T03:10:18-11:00  21.31299 -157.88881      80   0.0 Hikianalia
  2021-12-01T13:18:24UTC 2021-12-01T03:18:24-10:00 2021-12-01T02:18:24-11:00  21.31312 -157.88862       0   0.0 Hōkūleʻa
  2021-12-01T13:10:13UTC 2021-12-01T03:10:13-10:00 2021-12-01T02:10:13-11:00  21.31298 -157.88888     223   0.0 Hikianalia
  2021-12-01T12:18:47UTC 2021-12-01T02:18:47-10:00 2021-12-01T01:18:47-11:00  21.31312 -157.88862     180   0.0 Hōkūleʻa
  2021-12-01T12:10:46UTC 2021-12-01T02:10:46-10:00 2021-12-01T01:10:46-11:00  21.31300 -157.88886     255   0.0 Hikianalia
  2021-12-01T11:18:30UTC 2021-12-01T01:18:30-10:00 2021-12-01T00:18:30-11:00  21.31313 -157.88862     223   0.0 Hōkūleʻa
  2021-12-01T11:10:18UTC 2021-12-01T01:10:18-10:00 2021-12-01T00:10:18-11:00  21.31302 -157.88881     138   0.0 Hikianalia
  2021-12-01T10:18:24UTC 2021-12-01T00:18:24-10:00 2021-11-30T23:18:24-11:00  21.31315 -157.88860      43   0.0 Hōkūleʻa
  2021-12-01T10:10:06UTC 2021-12-01T00:10:06-10:00 2021-11-30T23:10:06-11:00  21.31304 -157.88883       0   0.0 Hikianalia
  2021-12-01T09:18:48UTC 2021-11-30T23:18:48-10:00 2021-11-30T22:18:48-11:00  21.31313 -157.88862       0   0.0 Hōkūleʻa
  2021-12-01T09:10:46UTC 2021-11-30T23:10:46-10:00 2021-11-30T22:10:46-11:00  21.31302 -157.88883       0   0.0 Hikianalia
  2021-12-01T08:18:33UTC 2021-11-30T22:18:33-10:00 2021-11-30T21:18:33-11:00  21.31313 -157.88862     119   0.0 Hōkūleʻa
  2021-12-01T08:09:17UTC 2021-11-30T22:09:17-10:00 2021-11-30T21:09:17-11:00  21.31302 -157.88883     105   0.0 Hikianalia
  2021-12-01T07:18:35UTC 2021-11-30T21:18:35-10:00 2021-11-30T20:18:35-11:00  21.31314 -157.88864     299   0.0 Hōkūleʻa
  2021-12-01T07:10:12UTC 2021-11-30T21:10:12-10:00 2021-11-30T20:10:12-11:00  21.31303 -157.88888     285   0.0 Hikianalia
  2021-12-01T06:18:48UTC 2021-11-30T20:18:48-10:00 2021-11-30T19:18:48-11:00  21.31313 -157.88862      90   0.0 Hōkūleʻa
  2021-12-01T06:10:38UTC 2021-11-30T20:10:38-10:00 2021-11-30T19:10:38-11:00  21.31302 -157.88883      96   0.0 Hikianalia
  2021-12-01T05:18:30UTC 2021-11-30T19:18:30-10:00 2021-11-30T18:18:30-11:00  21.31313 -157.88866     255   0.0 Hōkūleʻa
  2021-12-01T05:10:09UTC 2021-11-30T19:10:09-10:00 2021-11-30T18:10:09-11:00  21.31303 -157.88894     276   0.0 Hikianalia
  2021-12-01T04:19:38UTC 2021-11-30T18:19:38-10:00 2021-11-30T17:19:38-11:00  21.31302 -157.88883     180   0.0 Hikianalia
  2021-12-01T04:17:31UTC 2021-11-30T18:17:31-10:00 2021-11-30T17:17:31-11:00  21.31314 -157.88862     180   0.0 Hōkūleʻa
  2021-12-01T03:18:23UTC 2021-11-30T17:18:23-10:00 2021-11-30T16:18:23-11:00  21.31315 -157.88862     180   0.0 Hōkūleʻa
  2021-12-01T03:09:11UTC 2021-11-30T17:09:11-10:00 2021-11-30T16:09:11-11:00  21.31307 -157.88883       0   0.0 Hikianalia
  2021-12-01T02:18:49UTC 2021-11-30T16:18:49-10:00 2021-11-30T15:18:49-11:00  21.31317 -157.88862     180   0.0 Hōkūleʻa
  2021-12-01T02:10:35UTC 2021-11-30T16:10:35-10:00 2021-11-30T15:10:35-11:00  21.31306 -157.88883     118   0.0 Hikianalia
  2021-12-01T01:17:26UTC 2021-11-30T15:17:26-10:00 2021-11-30T14:17:26-11:00  21.31319 -157.88862       0   0.0 Hōkūleʻa
  2021-12-01T01:09:05UTC 2021-11-30T15:09:05-10:00 2021-11-30T14:09:05-11:00  21.31311 -157.88894     307   0.0 Hikianalia
  2021-12-01T00:18:22UTC 2021-11-30T14:18:22-10:00 2021-11-30T13:18:22-11:00  21.31319 -157.88862     308   0.0 Hōkūleʻa
  2021-12-01T00:10:16UTC 2021-11-30T14:10:16-10:00 2021-11-30T13:10:16-11:00  21.31304 -157.88883     180   0.0 Hikianalia
  2021-11-30T23:17:21UTC 2021-11-30T13:17:21-10:00 2021-11-30T12:17:21-11:00  21.31315 -157.88858     105   0.0 Hōkūleʻa
  2021-11-30T23:10:17UTC 2021-11-30T13:10:17-10:00 2021-11-30T12:10:17-11:00  21.31307 -157.88883      90   0.0 Hikianalia
  2021-11-30T22:17:40UTC 2021-11-30T12:17:40-10:00 2021-11-30T11:17:40-11:00  21.31318 -157.88866     280   0.0 Hōkūleʻa
  2021-11-30T22:09:48UTC 2021-11-30T12:09:48-10:00 2021-11-30T11:09:48-11:00  21.31307 -157.88888     317   0.0 Hikianalia
  2021-11-30T21:18:35UTC 2021-11-30T11:18:35-10:00 2021-11-30T10:18:35-11:00  21.31317 -157.88860      26   0.0 Hōkūleʻa
  2021-11-30T21:10:18UTC 2021-11-30T11:10:18-10:00 2021-11-30T10:10:18-11:00  21.31303 -157.88883     105   0.0 Hikianalia
  2021-11-30T20:17:32UTC 2021-11-30T10:17:32-10:00 2021-11-30T09:17:32-11:00  21.31312 -157.88862       0   0.0 Hōkūleʻa
  2021-11-30T20:09:45UTC 2021-11-30T10:09:45-10:00 2021-11-30T09:09:45-11:00  21.31304 -157.88888     270   0.0 Hikianalia
  2021-11-30T19:18:31UTC 2021-11-30T09:18:31-10:00 2021-11-30T08:18:31-11:00  21.31312 -157.88862       0   0.0 Hōkūleʻa
  2021-11-30T19:10:07UTC 2021-11-30T09:10:07-10:00 2021-11-30T08:10:07-11:00  21.31304 -157.88883       0   0.0 Hikianalia
  2021-11-30T18:18:47UTC 2021-11-30T08:18:47-10:00 2021-11-30T07:18:47-11:00  21.31312 -157.88862       0   0.0 Hōkūleʻa
  2021-11-30T18:10:08UTC 2021-11-30T08:10:08-10:00 2021-11-30T07:10:08-11:00  21.31302 -157.88883       0   0.0 Hikianalia
  2021-11-30T17:18:36UTC 2021-11-30T07:18:36-10:00 2021-11-30T06:18:36-11:00  21.31312 -157.88862      61   0.0 Hōkūleʻa
  2021-11-30T17:10:16UTC 2021-11-30T07:10:16-10:00 2021-11-30T06:10:16-11:00  21.31299 -157.88883     180   0.0 Hikianalia
  2021-11-30T16:19:37UTC 2021-11-30T06:19:37-10:00 2021-11-30T05:19:37-11:00  21.31311 -157.88864     270   0.0 Hōkūleʻa
  2021-11-30T16:10:49UTC 2021-11-30T06:10:49-10:00 2021-11-30T05:10:49-11:00  21.31302 -157.88883       0   0.0 Hikianalia
  2021-11-30T15:18:30UTC 2021-11-30T05:18:30-10:00 2021-11-30T04:18:30-11:00  21.31311 -157.88862     180   0.0 Hōkūleʻa
  2021-11-30T15:09:17UTC 2021-11-30T05:09:17-10:00 2021-11-30T04:09:17-11:00  21.31298 -157.88883     122   0.0 Hikianalia
  2021-11-30T14:17:47UTC 2021-11-30T04:17:47-10:00 2021-11-30T03:17:47-11:00  21.31312 -157.88862       0   0.0 Hōkūleʻa
  2021-11-30T14:10:07UTC 2021-11-30T04:10:07-10:00 2021-11-30T03:10:07-11:00  21.31305 -157.88894     285   0.0 Hikianalia
  2021-11-30T13:18:27UTC 2021-11-30T03:18:27-10:00 2021-11-30T02:18:27-11:00  21.31312 -157.88862     270   0.0 Hōkūleʻa
  2021-11-30T13:10:06UTC 2021-11-30T03:10:06-10:00 2021-11-30T02:10:06-11:00  21.31300 -157.88877      98   0.0 Hikianalia
  2021-11-30T12:18:24UTC 2021-11-30T02:18:24-10:00 2021-11-30T01:18:24-11:00  21.31312 -157.88860      90   0.0 Hōkūleʻa
  2021-11-30T12:10:46UTC 2021-11-30T02:10:46-10:00 2021-11-30T01:10:46-11:00  21.31302 -157.88886      90   0.0 Hikianalia
  2021-11-30T11:18:30UTC 2021-11-30T01:18:30-10:00 2021-11-30T00:18:30-11:00  21.31312 -157.88862       0   0.0 Hōkūleʻa
  2021-11-30T11:10:09UTC 2021-11-30T01:10:09-10:00 2021-11-30T00:10:09-11:00  21.31302 -157.88888       0   0.0 Hikianalia
  2021-11-30T10:17:44UTC 2021-11-30T00:17:44-10:00 2021-11-29T23:17:44-11:00  21.31312 -157.88862       0   0.0 Hōkūleʻa
  2021-11-30T10:10:14UTC 2021-11-30T00:10:14-10:00 2021-11-29T23:10:14-11:00  21.31299 -157.88888     243   0.0 Hikianalia
  2021-11-30T09:18:32UTC 2021-11-29T23:18:32-10:00 2021-11-29T22:18:32-11:00  21.31312 -157.88862     256   0.0 Hōkūleʻa
  2021-11-30T09:09:46UTC 2021-11-29T23:09:46-10:00 2021-11-29T22:09:46-11:00  21.31300 -157.88886       0   0.0 Hikianalia
  2021-11-30T08:18:33UTC 2021-11-29T22:18:33-10:00 2021-11-29T21:18:33-11:00  21.31313 -157.88858      76   0.0 Hōkūleʻa
  2021-11-30T08:10:35UTC 2021-11-29T22:10:35-10:00 2021-11-29T21:10:35-11:00  21.31300 -157.88886     212   0.0 Hikianalia
  2021-11-30T07:18:24UTC 2021-11-29T21:18:24-10:00 2021-11-29T20:18:24-11:00  21.31312 -157.88862       0   0.0 Hōkūleʻa
  2021-11-30T07:10:12UTC 2021-11-29T21:10:12-10:00 2021-11-29T20:10:12-11:00  21.31304 -157.88883       0   0.0 Hikianalia
  2021-11-30T06:18:40UTC 2021-11-29T20:18:40-10:00 2021-11-29T19:18:40-11:00  21.31312 -157.88862     117   0.0 Hōkūleʻa
  2021-11-30T06:10:17UTC 2021-11-29T20:10:17-10:00 2021-11-29T19:10:17-11:00  21.31304 -157.88883       0   0.0 Hikianalia
  2021-11-30T05:18:30UTC 2021-11-29T19:18:30-10:00 2021-11-29T18:18:30-11:00  21.31313 -157.88864     298   0.0 Hōkūleʻa
  2021-11-30T05:10:15UTC 2021-11-29T19:10:15-10:00 2021-11-29T18:10:15-11:00  21.31304 -157.88883       0   0.0 Hikianalia
  2021-11-30T04:17:33UTC 2021-11-29T18:17:33-10:00 2021-11-29T17:17:33-11:00  21.31311 -157.88860     118   0.0 Hōkūleʻa
  2021-11-30T04:10:38UTC 2021-11-29T18:10:38-10:00 2021-11-29T17:10:38-11:00  21.31302 -157.88883     180   0.0 Hikianalia
  2021-11-30T03:18:24UTC 2021-11-29T17:18:24-10:00 2021-11-29T16:18:24-11:00  21.31312 -157.88862     180   0.0 Hōkūleʻa
  2021-11-30T03:09:18UTC 2021-11-29T17:09:18-10:00 2021-11-29T16:09:18-11:00  21.31304 -157.88883       0   0.0 Hikianalia
  2021-11-30T02:18:48UTC 2021-11-29T16:18:48-10:00 2021-11-29T15:18:48-11:00  21.31313 -157.88862       0   0.0 Hōkūleʻa
  2021-11-30T02:10:09UTC 2021-11-29T16:10:09-10:00 2021-11-29T15:10:09-11:00  21.31304 -157.88883     108   0.0 Hikianalia
  2021-11-30T01:17:35UTC 2021-11-29T15:17:35-10:00 2021-11-29T14:17:35-11:00  21.31313 -157.88862     270   0.0 Hōkūleʻa
  2021-11-30T01:10:15UTC 2021-11-29T15:10:15-10:00 2021-11-29T14:10:15-11:00  21.31307 -157.88894     293   0.0 Hikianalia
  2021-11-30T00:18:30UTC 2021-11-29T14:18:30-10:00 2021-11-29T13:18:30-11:00  21.31313 -157.88858      63   0.0 Hōkūleʻa
  2021-11-30T00:09:59UTC 2021-11-29T14:09:59-10:00 2021-11-29T13:09:59-11:00  21.31303 -157.88883     134   0.0 Hikianalia
  2021-11-29T23:17:56UTC 2021-11-29T13:17:56-10:00 2021-11-29T12:17:56-11:00  21.31312 -157.88860     136   0.0 Hōkūleʻa
  2021-11-29T23:10:42UTC 2021-11-29T13:10:42-10:00 2021-11-29T12:10:42-11:00  21.31312 -157.88894     298   0.0 Hikianalia
  2021-11-29T22:18:49UTC 2021-11-29T12:18:49-10:00 2021-11-29T11:18:49-11:00  21.31314 -157.88862     251   0.0 Hōkūleʻa
  2021-11-29T22:10:15UTC 2021-11-29T12:10:15-10:00 2021-11-29T11:10:15-11:00  21.31307 -157.88883      13   0.0 Hikianalia
  2021-11-29T21:18:24UTC 2021-11-29T11:18:24-10:00 2021-11-29T10:18:24-11:00  21.31317 -157.88856      25   0.0 Hōkūleʻa
  2021-11-29T21:09:18UTC 2021-11-29T11:09:18-10:00 2021-11-29T10:09:18-11:00  21.31298 -157.88886     180   0.0 Hikianalia
  2021-11-29T20:17:29UTC 2021-11-29T10:17:29-10:00 2021-11-29T09:17:29-11:00  21.31312 -157.88858     117   0.0 Hōkūleʻa
  2021-11-29T20:10:40UTC 2021-11-29T10:10:40-10:00 2021-11-29T09:10:40-11:00  21.31303 -157.88886       0   0.0 Hikianalia
  2021-11-29T19:18:23UTC 2021-11-29T09:18:23-10:00 2021-11-29T08:18:23-11:00  21.31313 -157.88860      64   0.0 Hōkūleʻa
  2021-11-29T19:10:16UTC 2021-11-29T09:10:16-10:00 2021-11-29T08:10:16-11:00  21.31300 -157.88886     270   0.0 Hikianalia
  2021-11-29T18:18:40UTC 2021-11-29T08:18:40-10:00 2021-11-29T07:18:40-11:00  21.31312 -157.88862     118   0.0 Hōkūleʻa
  2021-11-29T18:10:12UTC 2021-11-29T08:10:12-10:00 2021-11-29T07:10:12-11:00  21.31300 -157.88883     143   0.0 Hikianalia
  2021-11-29T17:18:29UTC 2021-11-29T07:18:29-10:00 2021-11-29T06:18:29-11:00  21.31314 -157.88866     308   0.0 Hōkūleʻa
  2021-11-29T17:10:14UTC 2021-11-29T07:10:14-10:00 2021-11-29T06:10:14-11:00  21.31306 -157.88888     335   0.0 Hikianalia
  2021-11-29T16:17:32UTC 2021-11-29T06:17:32-10:00 2021-11-29T05:17:32-11:00  21.31311 -157.88862       0   0.0 Hōkūleʻa
  2021-11-29T16:09:49UTC 2021-11-29T06:09:49-10:00 2021-11-29T05:09:49-11:00  21.31302 -157.88886     316   0.0 Hikianalia
  2021-11-29T15:19:24UTC 2021-11-29T05:19:24-10:00 2021-11-29T04:19:24-11:00  21.31311 -157.88862       0   0.0 Hōkūleʻa
  2021-11-29T15:10:17UTC 2021-11-29T05:10:17-10:00 2021-11-29T04:10:17-11:00  21.31299 -157.88883     299   0.0 Hikianalia
  2021-11-29T14:18:44UTC 2021-11-29T04:18:44-10:00 2021-11-29T03:18:44-11:00  21.31311 -157.88862     298   0.0 Hōkūleʻa
  2021-11-29T14:10:25UTC 2021-11-29T04:10:25-10:00 2021-11-29T03:10:25-11:00  21.31298 -157.88881     160   0.0 Hikianalia
  2021-11-29T13:18:45UTC 2021-11-29T03:18:45-10:00 2021-11-29T02:18:45-11:00  21.31310 -157.88860     118   0.0 Hōkūleʻa
  2021-11-29T13:10:16UTC 2021-11-29T03:10:16-10:00 2021-11-29T02:10:16-11:00  21.31304 -157.88883      32   0.0 Hikianalia
  2021-11-29T12:18:37UTC 2021-11-29T02:18:37-10:00 2021-11-29T01:18:37-11:00  21.31311 -157.88862     242   0.0 Hōkūleʻa
  2021-11-29T12:10:47UTC 2021-11-29T02:10:47-10:00 2021-11-29T01:10:47-11:00  21.31300 -157.88886     212   0.0 Hikianalia
  2021-11-29T11:18:41UTC 2021-11-29T01:18:41-10:00 2021-11-29T00:18:41-11:00  21.31312 -157.88860      62   0.0 Hōkūleʻa
  2021-11-29T11:10:08UTC 2021-11-29T01:10:08-10:00 2021-11-29T00:10:08-11:00  21.31304 -157.88883       0   0.0 Hikianalia
  2021-11-29T10:18:44UTC 2021-11-29T00:18:44-10:00 2021-11-28T23:18:44-11:00  21.31311 -157.88862     234   0.0 Hōkūleʻa
  2021-11-29T10:10:06UTC 2021-11-29T00:10:06-10:00 2021-11-28T23:10:06-11:00  21.31304 -157.88883     278   0.0 Hikianalia
  2021-11-29T09:18:27UTC 2021-11-28T23:18:27-10:00 2021-11-28T22:18:27-11:00  21.31315 -157.88856      42   0.0 Hōkūleʻa
  2021-11-29T09:10:18UTC 2021-11-28T23:10:18-10:00 2021-11-28T22:10:18-11:00  21.31303 -157.88875      75   0.0 Hikianalia
  2021-11-29T08:18:30UTC 2021-11-28T22:18:30-10:00 2021-11-28T21:18:30-11:00  21.31311 -157.88860     136   0.0 Hōkūleʻa
  2021-11-29T08:10:49UTC 2021-11-28T22:10:49-10:00 2021-11-28T21:10:49-11:00  21.31300 -157.88883     180   0.0 Hikianalia
  2021-11-29T07:28:15UTC 2021-11-28T21:28:15-10:00 2021-11-28T20:28:15-11:00  21.31313 -157.88862     270   0.0 Hōkūleʻa
  2021-11-29T07:10:12UTC 2021-11-28T21:10:12-10:00 2021-11-28T20:10:12-11:00  21.31304 -157.88883     231   0.0 Hikianalia
  2021-11-29T06:18:39UTC 2021-11-28T20:18:39-10:00 2021-11-28T19:18:39-11:00  21.31313 -157.88849      80   0.0 Hōkūleʻa
  2021-11-29T06:09:17UTC 2021-11-28T20:09:17-10:00 2021-11-28T19:09:17-11:00  21.31307 -157.88879      90   0.0 Hikianalia
  2021-11-29T05:18:27UTC 2021-11-28T19:18:27-10:00 2021-11-28T18:18:27-11:00  21.31311 -157.88862       0   0.0 Hōkūleʻa
  2021-11-29T05:10:09UTC 2021-11-28T19:10:09-10:00 2021-11-28T18:10:09-11:00  21.31307 -157.88883      26   0.0 Hikianalia
  2021-11-29T04:19:44UTC 2021-11-28T18:19:44-10:00 2021-11-28T17:19:44-11:00  21.31303 -157.88886     206   0.0 Hikianalia
  2021-11-29T04:17:42UTC 2021-11-28T18:17:42-10:00 2021-11-28T17:17:42-11:00  21.31311 -157.88862     180   0.0 Hōkūleʻa
  2021-11-29T03:18:22UTC 2021-11-28T17:18:22-10:00 2021-11-28T16:18:22-11:00  21.31317 -157.88862     119   0.0 Hōkūleʻa
  2021-11-29T03:10:18UTC 2021-11-28T17:10:18-10:00 2021-11-28T16:10:18-11:00  21.31307 -157.88883       0   0.0 Hikianalia
  2021-11-29T02:18:32UTC 2021-11-28T16:18:32-10:00 2021-11-28T15:18:32-11:00  21.31319 -157.88866     298   0.0 Hōkūleʻa
  2021-11-29T02:10:14UTC 2021-11-28T16:10:14-10:00 2021-11-28T15:10:14-11:00  21.31303 -157.88883     180   0.0 Hikianalia
  2021-11-29T01:18:29UTC 2021-11-28T15:18:29-10:00 2021-11-28T14:18:29-11:00  21.31315 -157.88860      62   0.0 Hōkūleʻa
  2021-11-29T01:09:48UTC 2021-11-28T15:09:48-10:00 2021-11-28T14:09:48-11:00  21.31306 -157.88883     301   0.0 Hikianalia
  2021-11-29T00:17:47UTC 2021-11-28T14:17:47-10:00 2021-11-28T13:17:47-11:00  21.31314 -157.88862       0   0.0 Hōkūleʻa
  2021-11-29T00:10:17UTC 2021-11-28T14:10:17-10:00 2021-11-28T13:10:17-11:00  21.31296 -157.88866     108   0.0 Hikianalia
  2021-11-28T23:18:38UTC 2021-11-28T13:18:38-10:00 2021-11-28T12:18:38-11:00  21.31313 -157.88862     148   0.0 Hōkūleʻa
  2021-11-28T23:10:40UTC 2021-11-28T13:10:40-10:00 2021-11-28T12:10:40-11:00  21.31302 -157.88883     118   0.0 Hikianalia
  2021-11-28T22:27:32UTC 2021-11-28T12:27:32-10:00 2021-11-28T11:27:32-11:00  21.31317 -157.88864     328   0.0 Hōkūleʻa
  2021-11-28T22:09:46UTC 2021-11-28T12:09:46-10:00 2021-11-28T11:09:46-11:00  21.31303 -157.88886     206   0.0 Hikianalia
  2021-11-28T21:17:30UTC 2021-11-28T11:17:30-10:00 2021-11-28T10:17:30-11:00  21.31313 -157.88862       0   0.0 Hōkūleʻa
  2021-11-28T21:09:16UTC 2021-11-28T11:09:16-10:00 2021-11-28T10:09:16-11:00  21.31307 -157.88883       0   0.0 Hikianalia
  2021-11-28T20:17:38UTC 2021-11-28T10:17:38-10:00 2021-11-28T09:17:38-11:00  21.31312 -157.88862      61   0.0 Hōkūleʻa
  2021-11-28T20:10:09UTC 2021-11-28T10:10:09-10:00 2021-11-28T09:10:09-11:00  21.31300 -157.88883     119   0.0 Hikianalia
  2021-11-28T19:18:24UTC 2021-11-28T09:18:24-10:00 2021-11-28T08:18:24-11:00  21.31310 -157.88866     255   0.0 Hōkūleʻa
  2021-11-28T19:10:07UTC 2021-11-28T09:10:07-10:00 2021-11-28T08:10:07-11:00  21.31303 -157.88888     299   0.0 Hikianalia
  2021-11-28T18:28:57UTC 2021-11-28T08:28:57-10:00 2021-11-28T07:28:57-11:00  21.31311 -157.88862     180   0.0 Hōkūleʻa
  2021-11-28T18:09:48UTC 2021-11-28T08:09:48-10:00 2021-11-28T07:09:48-11:00  21.31302 -157.88886     255   0.0 Hikianalia
  2021-11-28T17:18:27UTC 2021-11-28T07:18:27-10:00 2021-11-28T06:18:27-11:00  21.31312 -157.88862       0   0.0 Hōkūleʻa
  2021-11-28T17:10:15UTC 2021-11-28T07:10:15-10:00 2021-11-28T06:10:15-11:00  21.31303 -157.88881      32   0.0 Hikianalia
  2021-11-28T16:18:44UTC 2021-11-28T06:18:44-10:00 2021-11-28T05:18:44-11:00  21.31312 -157.88862     109   0.0 Hōkūleʻa
  2021-11-28T16:10:06UTC 2021-11-28T06:10:06-10:00 2021-11-28T05:10:06-11:00  21.31299 -157.88883       0   0.0 Hikianalia
  2021-11-28T15:18:30UTC 2021-11-28T05:18:30-10:00 2021-11-28T04:18:30-11:00  21.31314 -157.88868     289   0.0 Hōkūleʻa
  2021-11-28T15:10:18UTC 2021-11-28T05:10:18-10:00 2021-11-28T04:10:18-11:00  21.31298 -157.88883     154   0.0 Hikianalia
  2021-11-28T14:18:22UTC 2021-11-28T04:18:22-10:00 2021-11-28T03:18:22-11:00  21.31312 -157.88862       0   0.0 Hōkūleʻa
  2021-11-28T14:10:45UTC 2021-11-28T04:10:45-10:00 2021-11-28T03:10:45-11:00  21.31303 -157.88886     242   0.0 Hikianalia
  2021-11-28T13:18:33UTC 2021-11-28T03:18:33-10:00 2021-11-28T02:18:33-11:00  21.31311 -157.88862       0   0.0 Hōkūleʻa
  2021-11-28T13:10:18UTC 2021-11-28T03:10:18-10:00 2021-11-28T02:10:18-11:00  21.31304 -157.88883     299   0.0 Hikianalia
  2021-11-28T12:18:48UTC 2021-11-28T02:18:48-10:00 2021-11-28T01:18:48-11:00  21.31311 -157.88862       0   0.0 Hōkūleʻa
  2021-11-28T12:10:08UTC 2021-11-28T02:10:08-10:00 2021-11-28T01:10:08-11:00  21.31303 -157.88881      61   0.0 Hikianalia
  2021-11-28T11:18:37UTC 2021-11-28T01:18:37-10:00 2021-11-28T00:18:37-11:00  21.31311 -157.88862     298   0.0 Hōkūleʻa
  2021-11-28T11:09:17UTC 2021-11-28T01:09:17-10:00 2021-11-28T00:09:17-11:00  21.31302 -157.88883      90   0.0 Hikianalia
  2021-11-28T10:18:25UTC 2021-11-28T00:18:25-10:00 2021-11-27T23:18:25-11:00  21.31310 -157.88860     137   0.0 Hōkūleʻa
  2021-11-28T10:10:40UTC 2021-11-28T00:10:40-10:00 2021-11-27T23:10:40-11:00  21.31302 -157.88886     126   0.0 Hikianalia
  2021-11-28T09:18:39UTC 2021-11-27T23:18:39-10:00 2021-11-27T22:18:39-11:00  21.31312 -157.88862     298   0.0 Hōkūleʻa
  2021-11-28T09:10:09UTC 2021-11-27T23:10:09-10:00 2021-11-27T22:10:09-11:00  21.31306 -157.88892     308   0.0 Hikianalia
  2021-11-28T08:18:47UTC 2021-11-27T22:18:47-10:00 2021-11-27T21:18:47-11:00  21.31311 -157.88860     118   0.0 Hōkūleʻa
  2021-11-28T08:10:17UTC 2021-11-27T22:10:17-10:00 2021-11-27T21:10:17-11:00  21.31292 -157.88873     130   0.0 Hikianalia
  2021-11-28T07:17:36UTC 2021-11-27T21:17:36-10:00 2021-11-27T20:17:36-11:00  21.31312 -157.88862     270   0.0 Hōkūleʻa
  2021-11-28T07:10:46UTC 2021-11-27T21:10:46-10:00 2021-11-27T20:10:46-11:00  21.31300 -157.88883     180   0.0 Hikianalia
  2021-11-28T06:18:30UTC 2021-11-27T20:18:30-10:00 2021-11-27T19:18:30-11:00  21.31312 -157.88860      90   0.0 Hōkūleʻa
  2021-11-28T06:10:38UTC 2021-11-27T20:10:38-10:00 2021-11-27T19:10:38-11:00  21.31302 -157.88883     105   0.0 Hikianalia
  2021-11-28T05:18:21UTC 2021-11-27T19:18:21-10:00 2021-11-27T18:18:21-11:00  21.31312 -157.88862       0   0.0 Hōkūleʻa
  2021-11-28T05:10:46UTC 2021-11-27T19:10:46-10:00 2021-11-27T18:10:46-11:00  21.31304 -157.88892     148   0.0 Hikianalia
  2021-11-28T04:18:44UTC 2021-11-27T18:18:44-10:00 2021-11-27T17:18:44-11:00  21.31311 -157.88862     157   0.0 Hōkūleʻa
  2021-11-28T04:10:19UTC 2021-11-27T18:10:19-10:00 2021-11-27T17:10:19-11:00  21.31313 -157.88898     280   0.0 Hikianalia
  2021-11-28T03:18:35UTC 2021-11-27T17:18:35-10:00 2021-11-27T16:18:35-11:00  21.31321 -157.88866      63   0.0 Hōkūleʻa
  2021-11-28T03:10:17UTC 2021-11-27T17:10:17-10:00 2021-11-27T16:10:17-11:00  21.31311 -157.88886     342   0.0 Hikianalia
  2021-11-28T02:18:33UTC 2021-11-27T16:18:33-10:00 2021-11-27T15:18:33-11:00  21.31320 -157.88868     312   0.0 Hōkūleʻa
  2021-11-28T02:09:42UTC 2021-11-27T16:09:42-10:00 2021-11-27T15:09:42-11:00  21.31305 -157.88883     154   0.0 Hikianalia
  2021-11-28T01:17:32UTC 2021-11-27T15:17:32-10:00 2021-11-27T14:17:32-11:00  21.31314 -157.88862     242   0.0 Hōkūleʻa
  2021-11-28T01:10:14UTC 2021-11-27T15:10:14-10:00 2021-11-27T14:10:14-11:00  21.31309 -157.88886     339   0.0 Hikianalia
  2021-11-28T00:18:45UTC 2021-11-27T14:18:45-10:00 2021-11-27T13:18:45-11:00  21.31315 -157.88860     141   0.0 Hōkūleʻa
  2021-11-28T00:10:45UTC 2021-11-27T14:10:45-10:00 2021-11-27T13:10:45-11:00  21.31304 -157.88883       0   0.0 Hikianalia
  2021-11-27T23:18:39UTC 2021-11-27T13:18:39-10:00 2021-11-27T12:18:39-11:00  21.31323 -157.88866       0   0.0 Hōkūleʻa
  2021-11-27T23:09:17UTC 2021-11-27T13:09:17-10:00 2021-11-27T12:09:17-11:00  21.31294 -157.88883     170   0.0 Hikianalia
  2021-11-27T22:17:25UTC 2021-11-27T12:17:25-10:00 2021-11-27T11:17:25-11:00  21.31312 -157.88866     242   0.0 Hōkūleʻa
  2021-11-27T22:10:06UTC 2021-11-27T12:10:06-10:00 2021-11-27T11:10:06-11:00  21.31306 -157.88886       0   0.0 Hikianalia
  2021-11-27T21:18:30UTC 2021-11-27T11:18:30-10:00 2021-11-27T10:18:30-11:00  21.31314 -157.88862       0   0.0 Hōkūleʻa
  2021-11-27T21:09:47UTC 2021-11-27T11:09:47-10:00 2021-11-27T10:09:47-11:00  21.31305 -157.88886     339   0.0 Hikianalia
  2021-11-27T20:17:38UTC 2021-11-27T10:17:38-10:00 2021-11-27T09:17:38-11:00  21.31312 -157.88862     117   0.0 Hōkūleʻa
  2021-11-27T20:10:17UTC 2021-11-27T10:10:17-10:00 2021-11-27T09:10:17-11:00  21.31299 -157.88883     118   0.0 Hikianalia
  2021-11-27T19:17:24UTC 2021-11-27T09:17:24-10:00 2021-11-27T08:17:24-11:00  21.31313 -157.88864     284   0.0 Hōkūleʻa
  2021-11-27T19:09:16UTC 2021-11-27T09:09:16-10:00 2021-11-27T08:09:16-11:00  21.31302 -157.88888     270   0.0 Hikianalia
  2021-11-27T18:18:24UTC 2021-11-27T08:18:24-10:00 2021-11-27T07:18:24-11:00  21.31312 -157.88860      90   0.0 Hōkūleʻa
  2021-11-27T18:10:38UTC 2021-11-27T08:10:38-10:00 2021-11-27T07:10:38-11:00  21.31302 -157.88886     242   0.0 Hikianalia
  2021-11-27T17:18:31UTC 2021-11-27T07:18:31-10:00 2021-11-27T06:18:31-11:00  21.31312 -157.88862     244   0.0 Hōkūleʻa
  2021-11-27T17:10:16UTC 2021-11-27T07:10:16-10:00 2021-11-27T06:10:16-11:00  21.31303 -157.88883      62   0.0 Hikianalia
  2021-11-27T16:18:44UTC 2021-11-27T06:18:44-10:00 2021-11-27T05:18:44-11:00  21.31313 -157.88860      64   0.0 Hōkūleʻa
  2021-11-27T16:10:47UTC 2021-11-27T06:10:47-10:00 2021-11-27T05:10:47-11:00  21.31302 -157.88886     138   0.0 Hikianalia
  2021-11-27T15:18:39UTC 2021-11-27T05:18:39-10:00 2021-11-27T04:18:39-11:00  21.31312 -157.88862     285   0.0 Hōkūleʻa
  2021-11-27T15:10:09UTC 2021-11-27T05:10:09-10:00 2021-11-27T04:10:09-11:00  21.31304 -157.88888     306   0.0 Hikianalia
  2021-11-27T14:18:32UTC 2021-11-27T04:18:32-10:00 2021-11-27T03:18:32-11:00  21.31311 -157.88858     119   0.0 Hōkūleʻa
  2021-11-27T14:10:17UTC 2021-11-27T04:10:17-10:00 2021-11-27T03:10:17-11:00  21.31299 -157.88881     109   0.0 Hikianalia
  2021-11-27T13:18:24UTC 2021-11-27T03:18:24-10:00 2021-11-27T02:18:24-11:00  21.31312 -157.88860      62   0.0 Hōkūleʻa
  2021-11-27T13:10:11UTC 2021-11-27T03:10:11-10:00 2021-11-27T02:10:11-11:00  21.31302 -157.88888     270   0.0 Hikianalia
  2021-11-27T12:17:49UTC 2021-11-27T02:17:49-10:00 2021-11-27T01:17:49-11:00  21.31311 -157.88862     180   0.0 Hōkūleʻa
  2021-11-27T12:10:45UTC 2021-11-27T02:10:45-10:00 2021-11-27T01:10:45-11:00  21.31302 -157.88883     205   0.0 Hikianalia
  2021-11-27T11:18:30UTC 2021-11-27T01:18:30-10:00 2021-11-27T00:18:30-11:00  21.31312 -157.88862     298   0.0 Hōkūleʻa
  2021-11-27T11:18:30UTC 2021-11-27T01:18:30-10:00 2021-11-27T00:18:30-11:00  21.31306 -157.88881      32   0.0 Hikianalia
  2021-11-27T10:18:24UTC 2021-11-27T00:18:24-10:00 2021-11-26T23:18:24-11:00  21.31311 -157.88860      90   0.0 Hōkūleʻa
  2021-11-27T10:10:15UTC 2021-11-27T00:10:15-10:00 2021-11-26T23:10:15-11:00  21.31296 -157.88888     180   0.0 Hikianalia
  2021-11-27T09:18:32UTC 2021-11-26T23:18:32-10:00 2021-11-26T22:18:32-11:00  21.31311 -157.88862     180   0.0 Hōkūleʻa
  2021-11-27T09:10:17UTC 2021-11-26T23:10:17-10:00 2021-11-26T22:10:17-11:00  21.31302 -157.88888     285   0.0 Hikianalia
  2021-11-27T08:18:39UTC 2021-11-26T22:18:39-10:00 2021-11-26T21:18:39-11:00  21.31312 -157.88862     180   0.0 Hōkūleʻa
  2021-11-27T08:10:41UTC 2021-11-26T22:10:41-10:00 2021-11-26T21:10:41-11:00  21.31300 -157.88883     119   0.0 Hikianalia
  2021-11-27T07:17:35UTC 2021-11-26T21:17:35-10:00 2021-11-26T20:17:35-11:00  21.31313 -157.88862     296   0.0 Hōkūleʻa
  2021-11-27T07:10:15UTC 2021-11-26T21:10:15-10:00 2021-11-26T20:10:15-11:00  21.31303 -157.88888     270   0.0 Hikianalia
  2021-11-27T06:18:24UTC 2021-11-26T20:18:24-10:00 2021-11-26T19:18:24-11:00  21.31312 -157.88860      62   0.0 Hōkūleʻa
  2021-11-27T06:10:16UTC 2021-11-26T20:10:16-10:00 2021-11-26T19:10:16-11:00  21.31303 -157.88886     327   0.0 Hikianalia
  2021-11-27T05:18:32UTC 2021-11-26T19:18:32-10:00 2021-11-26T18:18:32-11:00  21.31311 -157.88862      15   1.7 Hōkūleʻa
  2021-11-27T05:10:49UTC 2021-11-26T19:10:49-10:00 2021-11-26T18:10:49-11:00  21.31299 -157.88883      32   0.0 Hikianalia
  2021-11-27T04:18:52UTC 2021-11-26T18:18:52-10:00 2021-11-26T17:18:52-11:00  21.28543 -157.89658     335   3.8 Hōkūleʻa
  2021-11-27T04:10:48UTC 2021-11-26T18:10:48-10:00 2021-11-26T17:10:48-11:00  21.31293 -157.88888     264   0.0 Hikianalia
  2021-11-27T03:17:32UTC 2021-11-26T17:17:32-10:00 2021-11-26T16:17:32-11:00  21.22694 -157.86757     166   2.8 Hōkūleʻa
  2021-11-27T03:10:19UTC 2021-11-26T17:10:19-10:00 2021-11-26T16:10:19-11:00  21.31294 -157.88877     133   0.0 Hikianalia
  2021-11-27T02:18:30UTC 2021-11-26T16:18:30-10:00 2021-11-26T15:18:30-11:00  21.27108 -157.87903     168   2.6 Hōkūleʻa
  2021-11-27T02:09:35UTC 2021-11-26T16:09:35-10:00 2021-11-26T15:09:35-11:00  21.31302 -157.88886     327   0.0 Hikianalia
  2021-11-27T01:18:30UTC 2021-11-26T15:18:30-10:00 2021-11-26T14:18:30-11:00  21.31346 -157.88858       0   0.0 Hōkūleʻa
  2021-11-27T01:10:16UTC 2021-11-26T15:10:16-10:00 2021-11-26T14:10:16-11:00  21.31298 -157.88883     223   0.0 Hikianalia
  2021-11-27T00:17:47UTC 2021-11-26T14:17:47-10:00 2021-11-26T13:17:47-11:00  21.31346 -157.88858       0   0.0 Hōkūleʻa
  2021-11-27T00:09:17UTC 2021-11-26T14:09:17-10:00 2021-11-26T13:09:17-11:00  21.31307 -157.88875     118   0.0 Hikianalia
  2021-11-26T23:17:39UTC 2021-11-26T13:17:39-10:00 2021-11-26T12:17:39-11:00  21.31346 -157.88858       0   0.0 Hōkūleʻa
  2021-11-26T23:10:06UTC 2021-11-26T13:10:06-10:00 2021-11-26T12:10:06-11:00  21.31313 -157.88888     335   0.0 Hikianalia
  2021-11-26T22:17:24UTC 2021-11-26T12:17:24-10:00 2021-11-26T11:17:24-11:00  21.31346 -157.88858       0   0.0 Hōkūleʻa
  2021-11-26T22:09:49UTC 2021-11-26T12:09:49-10:00 2021-11-26T11:09:49-11:00  21.31305 -157.88883     250   0.0 Hikianalia
  2021-11-26T21:18:29UTC 2021-11-26T11:18:29-10:00 2021-11-26T10:18:29-11:00  21.31346 -157.88858       0   0.0 Hōkūleʻa
  2021-11-26T21:10:10UTC 2021-11-26T11:10:10-10:00 2021-11-26T10:10:10-11:00  21.31307 -157.88877      70   0.0 Hikianalia
  2021-11-26T20:17:38UTC 2021-11-26T10:17:38-10:00 2021-11-26T09:17:38-11:00  21.31346 -157.88858       0   0.0 Hōkūleʻa
  2021-11-26T20:09:17UTC 2021-11-26T10:09:17-10:00 2021-11-26T09:09:17-11:00  21.31305 -157.88883      90   0.0 Hikianalia
  2021-11-26T19:18:33UTC 2021-11-26T09:18:33-10:00 2021-11-26T08:18:33-11:00  21.31346 -157.88858       0   0.0 Hōkūleʻa
  2021-11-26T19:10:15UTC 2021-11-26T09:10:15-10:00 2021-11-26T08:10:15-11:00  21.31305 -157.88888     308   0.0 Hikianalia
  2021-11-26T18:18:24UTC 2021-11-26T08:18:24-10:00 2021-11-26T07:18:24-11:00  21.31346 -157.88858       0   0.0 Hōkūleʻa
  2021-11-26T18:10:42UTC 2021-11-26T08:10:42-10:00 2021-11-26T07:10:42-11:00  21.31302 -157.88883     180   0.0 Hikianalia
  2021-11-26T17:18:31UTC 2021-11-26T07:18:31-10:00 2021-11-26T06:18:31-11:00  21.31346 -157.88858       0   0.0 Hōkūleʻa
  2021-11-26T17:16:04UTC 2021-11-26T07:16:04-10:00 2021-11-26T06:16:04-11:00  21.31304 -157.88883       0   0.0 Hikianalia
  2021-11-26T16:18:55UTC 2021-11-26T06:18:55-10:00 2021-11-26T05:18:55-11:00  21.31346 -157.88858       0   0.0 Hōkūleʻa
  2021-11-26T16:16:07UTC 2021-11-26T06:16:07-10:00 2021-11-26T05:16:07-11:00  21.31299 -157.88883     180   0.0 Hikianalia
  2021-11-26T15:18:39UTC 2021-11-26T05:18:39-10:00 2021-11-26T04:18:39-11:00  21.31346 -157.88858       0   0.0 Hōkūleʻa
  2021-11-26T15:10:09UTC 2021-11-26T05:10:09-10:00 2021-11-26T04:10:09-11:00  21.31303 -157.88883       0   0.0 Hikianalia
  2021-11-26T14:18:29UTC 2021-11-26T04:18:29-10:00 2021-11-26T03:18:29-11:00  21.31346 -157.88858       0   0.0 Hōkūleʻa
  2021-11-26T14:10:35UTC 2021-11-26T04:10:35-10:00 2021-11-26T03:10:35-11:00  21.31302 -157.88883     129   0.0 Hikianalia
  2021-11-26T13:19:31UTC 2021-11-26T03:19:31-10:00 2021-11-26T02:19:31-11:00  21.31346 -157.88858       0   0.0 Hōkūleʻa
  2021-11-26T13:10:16UTC 2021-11-26T03:10:16-10:00 2021-11-26T02:10:16-11:00  21.31308 -157.88892     309   0.0 Hikianalia
  2021-11-26T12:18:48UTC 2021-11-26T02:18:48-10:00 2021-11-26T01:18:48-11:00  21.31346 -157.88858       0   0.0 Hōkūleʻa
  2021-11-26T12:10:27UTC 2021-11-26T02:10:27-10:00 2021-11-26T01:10:27-11:00  21.31302 -157.88883     180   0.0 Hikianalia
  2021-11-26T11:18:37UTC 2021-11-26T01:18:37-10:00 2021-11-26T00:18:37-11:00  21.31346 -157.88858       0   0.0 Hōkūleʻa
  2021-11-26T11:10:28UTC 2021-11-26T01:10:28-10:00 2021-11-26T00:10:28-11:00  21.31303 -157.88883       0   0.0 Hikianalia
  2021-11-26T10:18:33UTC 2021-11-26T00:18:33-10:00 2021-11-25T23:18:33-11:00  21.31346 -157.88858       0   0.0 Hōkūleʻa
  2021-11-26T10:17:14UTC 2021-11-26T00:17:14-10:00 2021-11-25T23:17:14-11:00  21.31302 -157.88883     180   0.0 Hikianalia
  2021-11-26T09:18:33UTC 2021-11-25T23:18:33-10:00 2021-11-25T22:18:33-11:00  21.31346 -157.88858       0   0.0 Hōkūleʻa
  2021-11-26T09:10:09UTC 2021-11-25T23:10:09-10:00 2021-11-25T22:10:09-11:00  21.31304 -157.88883       0   0.0 Hikianalia
  2021-11-26T08:17:45UTC 2021-11-25T22:17:45-10:00 2021-11-25T21:17:45-11:00  21.31346 -157.88858       0   0.0 Hōkūleʻa
  2021-11-26T08:10:09UTC 2021-11-25T22:10:09-10:00 2021-11-25T21:10:09-11:00  21.31304 -157.88883       0   0.0 Hikianalia
  2021-11-26T07:18:28UTC 2021-11-25T21:18:28-10:00 2021-11-25T20:18:28-11:00  21.31346 -157.88858       0   0.0 Hōkūleʻa
  2021-11-26T07:10:11UTC 2021-11-25T21:10:11-10:00 2021-11-25T20:10:11-11:00  21.31304 -157.88883       0   0.0 Hikianalia
  2021-11-26T06:18:29UTC 2021-11-25T20:18:29-10:00 2021-11-25T19:18:29-11:00  21.31346 -157.88858       0   0.0 Hōkūleʻa
  2021-11-26T06:10:42UTC 2021-11-25T20:10:42-10:00 2021-11-25T19:10:42-11:00  21.31303 -157.88883     180   0.0 Hikianalia
  2021-11-26T05:18:33UTC 2021-11-25T19:18:33-10:00 2021-11-25T18:18:33-11:00  21.31346 -157.88858       0   0.0 Hōkūleʻa
  2021-11-26T05:09:14UTC 2021-11-25T19:09:14-10:00 2021-11-25T18:09:14-11:00  21.31304 -157.88883       0   0.0 Hikianalia
  2021-11-26T04:29:41UTC 2021-11-25T18:29:41-10:00 2021-11-25T17:29:41-11:00  21.31346 -157.88858     341   0.0 Hōkūleʻa
  2021-11-26T04:10:06UTC 2021-11-25T18:10:06-10:00 2021-11-25T17:10:06-11:00  21.31304 -157.88883     290   0.0 Hikianalia
  2021-11-26T03:17:37UTC 2021-11-25T17:17:37-10:00 2021-11-25T16:17:37-11:00  21.31328 -157.88851     161   0.0 Hōkūleʻa
  2021-11-26T03:10:14UTC 2021-11-25T17:10:14-10:00 2021-11-25T16:10:14-11:00  21.31302 -157.88877     118   0.0 Hikianalia
  2021-11-26T02:18:27UTC 2021-11-25T16:18:27-10:00 2021-11-25T15:18:27-11:00  21.31346 -157.88858       0   0.0 Hōkūleʻa
  2021-11-26T02:10:48UTC 2021-11-25T16:10:48-10:00 2021-11-25T15:10:48-11:00  21.31305 -157.88883     180   0.0 Hikianalia
  2021-11-26T01:18:35UTC 2021-11-25T15:18:35-10:00 2021-11-25T14:18:35-11:00  21.31346 -157.88858       0   0.0 Hōkūleʻa
  2021-11-26T01:09:14UTC 2021-11-25T15:09:14-10:00 2021-11-25T14:09:14-11:00  21.31308 -157.88883       0   0.0 Hikianalia
  2021-11-26T00:17:47UTC 2021-11-25T14:17:47-10:00 2021-11-25T13:17:47-11:00  21.31346 -157.88858     337   0.0 Hōkūleʻa
  2021-11-26T00:10:11UTC 2021-11-25T14:10:11-10:00 2021-11-25T13:10:11-11:00  21.31303 -157.88883     137   0.0 Hikianalia
  2021-11-25T23:18:35UTC 2021-11-25T13:18:35-10:00 2021-11-25T12:18:35-11:00  21.31332 -157.88851     157   0.0 Hōkūleʻa
  2021-11-25T23:09:08UTC 2021-11-25T13:09:08-10:00 2021-11-25T12:09:08-11:00  21.31307 -157.88888     328   0.0 Hikianalia
  2021-11-25T22:17:31UTC 2021-11-25T12:17:31-10:00 2021-11-25T11:17:31-11:00  21.31346 -157.88858       0   0.0 Hōkūleʻa
  2021-11-25T22:10:40UTC 2021-11-25T12:10:40-10:00 2021-11-25T11:10:40-11:00  21.31304 -157.88886     223   0.0 Hikianalia
  2021-11-25T21:35:59UTC 2021-11-25T11:35:59-10:00 2021-11-25T10:35:59-11:00  21.31346 -157.88858       0   0.0 Hōkūleʻa
  2021-11-25T21:09:18UTC 2021-11-25T11:09:18-10:00 2021-11-25T10:09:18-11:00  21.31310 -157.88879      43   0.0 Hikianalia
  2021-11-25T20:18:47UTC 2021-11-25T10:18:47-10:00 2021-11-25T09:18:47-11:00  21.31346 -157.88858       0   0.0 Hōkūleʻa
  2021-11-25T20:10:09UTC 2021-11-25T10:10:09-10:00 2021-11-25T09:10:09-11:00  21.31302 -157.88888     270   0.0 Hikianalia
  2021-11-25T19:18:41UTC 2021-11-25T09:18:41-10:00 2021-11-25T08:18:41-11:00  21.31346 -157.88858       0   0.0 Hōkūleʻa
  2021-11-25T19:10:14UTC 2021-11-25T09:10:14-10:00 2021-11-25T08:10:14-11:00  21.31302 -157.88886     242   0.0 Hikianalia
  2021-11-25T18:18:29UTC 2021-11-25T08:18:29-10:00 2021-11-25T07:18:29-11:00  21.31346 -157.88858       0   0.0 Hōkūleʻa
  2021-11-25T18:09:46UTC 2021-11-25T08:09:46-10:00 2021-11-25T07:09:46-11:00  21.31303 -157.88883       0   0.0 Hikianalia
  2021-11-25T17:18:22UTC 2021-11-25T07:18:22-10:00 2021-11-25T06:18:22-11:00  21.31346 -157.88858       0   0.0 Hōkūleʻa
  2021-11-25T17:10:18UTC 2021-11-25T07:10:18-10:00 2021-11-25T06:10:18-11:00  21.31302 -157.88883     180   0.0 Hikianalia
  2021-11-25T16:18:44UTC 2021-11-25T06:18:44-10:00 2021-11-25T05:18:44-11:00  21.31346 -157.88858       0   0.0 Hōkūleʻa
  2021-11-25T16:10:06UTC 2021-11-25T06:10:06-10:00 2021-11-25T05:10:06-11:00  21.31304 -157.88883       0   0.0 Hikianalia
  2021-11-25T15:18:39UTC 2021-11-25T05:18:39-10:00 2021-11-25T04:18:39-11:00  21.31346 -157.88858       0   0.0 Hōkūleʻa
  2021-11-25T15:10:48UTC 2021-11-25T05:10:48-10:00 2021-11-25T04:10:48-11:00  21.31302 -157.88883      90   0.0 Hikianalia
  2021-11-25T14:18:30UTC 2021-11-25T04:18:30-10:00 2021-11-25T03:18:30-11:00  21.31346 -157.88858       0   0.0 Hōkūleʻa
  2021-11-25T14:10:40UTC 2021-11-25T04:10:40-10:00 2021-11-25T03:10:40-11:00  21.31302 -157.88888     241   0.0 Hikianalia
  2021-11-25T13:18:30UTC 2021-11-25T03:18:30-10:00 2021-11-25T02:18:30-11:00  21.31346 -157.88858       0   0.0 Hōkūleʻa
  2021-11-25T13:10:20UTC 2021-11-25T03:10:20-10:00 2021-11-25T02:10:20-11:00  21.31304 -157.88883     136   0.0 Hikianalia
  2021-11-25T12:18:48UTC 2021-11-25T02:18:48-10:00 2021-11-25T01:18:48-11:00  21.31346 -157.88858       0   0.0 Hōkūleʻa
  2021-11-25T12:10:10UTC 2021-11-25T02:10:10-10:00 2021-11-25T01:10:10-11:00  21.31306 -157.88886      20   0.0 Hikianalia
  2021-11-25T11:17:35UTC 2021-11-25T01:17:35-10:00 2021-11-25T00:17:35-11:00  21.31346 -157.88858       0   0.0 Hōkūleʻa
  2021-11-25T11:09:14UTC 2021-11-25T01:09:14-10:00 2021-11-25T00:09:14-11:00  21.31300 -157.88888     241   0.0 Hikianalia
  2021-11-25T10:18:27UTC 2021-11-25T00:18:27-10:00 2021-11-24T23:18:27-11:00  21.31346 -157.88858       0   0.0 Hōkūleʻa
  2021-11-25T10:10:38UTC 2021-11-25T00:10:38-10:00 2021-11-24T23:10:38-11:00  21.31303 -157.88883       0   0.0 Hikianalia
  2021-11-25T09:18:26UTC 2021-11-24T23:18:26-10:00 2021-11-24T22:18:26-11:00  21.31346 -157.88858       0   0.0 Hōkūleʻa
  2021-11-25T09:10:18UTC 2021-11-24T23:10:18-10:00 2021-11-24T22:10:18-11:00  21.31299 -157.88883     270   0.0 Hikianalia
  2021-11-25T08:18:48UTC 2021-11-24T22:18:48-10:00 2021-11-24T21:18:48-11:00  21.31346 -157.88858       0   0.0 Hōkūleʻa
  2021-11-25T08:10:18UTC 2021-11-24T22:10:18-10:00 2021-11-24T21:10:18-11:00  21.31299 -157.88879     133   0.0 Hikianalia
  2021-11-25T07:18:43UTC 2021-11-24T21:18:43-10:00 2021-11-24T20:18:43-11:00  21.31346 -157.88858       0   0.0 Hōkūleʻa
  2021-11-25T07:10:16UTC 2021-11-24T21:10:16-10:00 2021-11-24T20:10:16-11:00  21.31307 -157.88888     323   0.0 Hikianalia
  2021-11-25T06:18:31UTC 2021-11-24T20:18:31-10:00 2021-11-24T19:18:31-11:00  21.31346 -157.88858       0   0.0 Hōkūleʻa
  2021-11-25T06:10:38UTC 2021-11-24T20:10:38-10:00 2021-11-24T19:10:38-11:00  21.31302 -157.88883     118   0.0 Hikianalia
  2021-11-25T05:18:31UTC 2021-11-24T19:18:31-10:00 2021-11-24T18:18:31-11:00  21.31346 -157.88858       0   0.0 Hōkūleʻa
  2021-11-25T05:10:26UTC 2021-11-24T19:10:26-10:00 2021-11-24T18:10:26-11:00  21.31303 -157.88886      61   0.0 Hikianalia
  2021-11-25T04:18:44UTC 2021-11-24T18:18:44-10:00 2021-11-24T17:18:44-11:00  21.31346 -157.88858       0   0.0 Hōkūleʻa
  2021-11-25T04:10:20UTC 2021-11-24T18:10:20-10:00 2021-11-24T17:10:20-11:00  21.31300 -157.88890     242   0.0 Hikianalia
  2021-11-25T03:17:35UTC 2021-11-24T17:17:35-10:00 2021-11-24T16:17:35-11:00  21.31346 -157.88858       0   0.0 Hōkūleʻa
  2021-11-25T03:09:19UTC 2021-11-24T17:09:19-10:00 2021-11-24T16:09:19-11:00  21.31304 -157.88883       0   0.0 Hikianalia
  2021-11-25T02:18:24UTC 2021-11-24T16:18:24-10:00 2021-11-24T15:18:24-11:00  21.31346 -157.88858       0   0.0 Hōkūleʻa
  2021-11-25T02:10:34UTC 2021-11-24T16:10:34-10:00 2021-11-24T15:10:34-11:00  21.31303 -157.88883     255   0.0 Hikianalia
  2021-11-25T01:18:42UTC 2021-11-24T15:18:42-10:00 2021-11-24T14:18:42-11:00  21.31346 -157.88858       0   0.0 Hōkūleʻa
  2021-11-25T01:09:11UTC 2021-11-24T15:09:11-10:00 2021-11-24T14:09:11-11:00  21.31305 -157.88875     119   0.0 Hikianalia
  2021-11-25T00:17:40UTC 2021-11-24T14:17:40-10:00 2021-11-24T13:17:40-11:00  21.31346 -157.88858     338   0.0 Hōkūleʻa
  2021-11-25T00:10:09UTC 2021-11-24T14:10:09-10:00 2021-11-24T13:10:09-11:00  21.31307 -157.88879     100   0.0 Hikianalia
  2021-11-24T23:36:49UTC 2021-11-24T13:36:49-10:00 2021-11-24T12:36:49-11:00  21.31330 -157.88851     158   0.0 Hōkūleʻa
  2021-11-24T23:09:53UTC 2021-11-24T13:09:53-10:00 2021-11-24T12:09:53-11:00  21.31308 -157.88886     270   0.0 Hikianalia
  2021-11-24T22:17:24UTC 2021-11-24T12:17:24-10:00 2021-11-24T11:17:24-11:00  21.31346 -157.88858       0   0.0 Hōkūleʻa
  2021-11-24T22:10:16UTC 2021-11-24T12:10:16-10:00 2021-11-24T11:10:16-11:00  21.31308 -157.88881      80   0.0 Hikianalia
  2021-11-24T21:18:22UTC 2021-11-24T11:18:22-10:00 2021-11-24T10:18:22-11:00  21.31346 -157.88858       0   0.0 Hōkūleʻa
  2021-11-24T21:09:17UTC 2021-11-24T11:09:17-10:00 2021-11-24T10:09:17-11:00  21.31307 -157.88888     306   0.0 Hikianalia
  2021-11-24T20:18:49UTC 2021-11-24T10:18:49-10:00 2021-11-24T09:18:49-11:00  21.31346 -157.88858       0   0.0 Hōkūleʻa
  2021-11-24T20:10:49UTC 2021-11-24T10:10:49-10:00 2021-11-24T09:10:49-11:00  21.31303 -157.88881      25   0.0 Hikianalia
  2021-11-24T19:28:06UTC 2021-11-24T09:28:06-10:00 2021-11-24T08:28:06-11:00  21.31346 -157.88858       0   0.0 Hōkūleʻa
  2021-11-24T19:09:14UTC 2021-11-24T09:09:14-10:00 2021-11-24T08:09:14-11:00  21.31298 -157.88883     241   0.0 Hikianalia
  2021-11-24T18:18:33UTC 2021-11-24T08:18:33-10:00 2021-11-24T07:18:33-11:00  21.31346 -157.88858       0   0.0 Hōkūleʻa
  2021-11-24T18:10:09UTC 2021-11-24T08:10:09-10:00 2021-11-24T07:10:09-11:00  21.31299 -157.88881     137   0.0 Hikianalia
  2021-11-24T17:26:59UTC 2021-11-24T07:26:59-10:00 2021-11-24T06:26:59-11:00  21.31346 -157.88858       0   0.0 Hōkūleʻa
  2021-11-24T17:10:45UTC 2021-11-24T07:10:45-10:00 2021-11-24T06:10:45-11:00  21.31302 -157.88883     270   0.0 Hikianalia
  2021-11-24T16:18:41UTC 2021-11-24T06:18:41-10:00 2021-11-24T05:18:41-11:00  21.31346 -157.88858       0   0.0 Hōkūleʻa
  2021-11-24T16:10:06UTC 2021-11-24T06:10:06-10:00 2021-11-24T05:10:06-11:00  21.31302 -157.88879      74   0.0 Hikianalia
  2021-11-24T15:18:38UTC 2021-11-24T05:18:38-10:00 2021-11-24T04:18:38-11:00  21.31346 -157.88858       0   0.0 Hōkūleʻa
  2021-11-24T15:10:45UTC 2021-11-24T05:10:45-10:00 2021-11-24T04:10:45-11:00  21.31300 -157.88883     180   0.0 Hikianalia
  2021-11-24T14:17:27UTC 2021-11-24T04:17:27-10:00 2021-11-24T03:17:27-11:00  21.31346 -157.88858       0   0.0 Hōkūleʻa
  2021-11-24T14:10:35UTC 2021-11-24T04:10:35-10:00 2021-11-24T03:10:35-11:00  21.31302 -157.88883      75   0.0 Hikianalia
  2021-11-24T13:18:24UTC 2021-11-24T03:18:24-10:00 2021-11-24T02:18:24-11:00  21.31346 -157.88858       0   0.0 Hōkūleʻa
  2021-11-24T13:09:16UTC 2021-11-24T03:09:16-10:00 2021-11-24T02:09:16-11:00  21.31300 -157.88888     279   0.0 Hikianalia
  2021-11-24T12:18:41UTC 2021-11-24T02:18:41-10:00 2021-11-24T01:18:41-11:00  21.31346 -157.88858       0   0.0 Hōkūleʻa
  2021-11-24T12:10:10UTC 2021-11-24T02:10:10-10:00 2021-11-24T01:10:10-11:00  21.31299 -157.88881     137   0.0 Hikianalia
  2021-11-24T11:19:38UTC 2021-11-24T01:19:38-10:00 2021-11-24T00:19:38-11:00  21.31346 -157.88858       0   0.0 Hōkūleʻa
  2021-11-24T11:10:09UTC 2021-11-24T01:10:09-10:00 2021-11-24T00:10:09-11:00  21.31302 -157.88883       0   0.0 Hikianalia
  2021-11-24T10:18:33UTC 2021-11-24T00:18:33-10:00 2021-11-23T23:18:33-11:00  21.31346 -157.88858       0   0.0 Hōkūleʻa
  2021-11-24T10:10:47UTC 2021-11-24T00:10:47-10:00 2021-11-23T23:10:47-11:00  21.31302 -157.88883     105   0.0 Hikianalia
  2021-11-24T09:17:31UTC 2021-11-23T23:17:31-10:00 2021-11-23T22:17:31-11:00  21.31346 -157.88858       0   0.0 Hōkūleʻa
  2021-11-24T09:10:18UTC 2021-11-23T23:10:18-10:00 2021-11-23T22:10:18-11:00  21.31303 -157.88888     285   0.0 Hikianalia
  2021-11-24T08:18:38UTC 2021-11-23T22:18:38-10:00 2021-11-23T21:18:38-11:00  21.31346 -157.88858       0   0.0 Hōkūleʻa
  2021-11-24T08:10:36UTC 2021-11-23T22:10:36-10:00 2021-11-23T21:10:36-11:00  21.31302 -157.88883     254   0.0 Hikianalia
  2021-11-24T07:18:35UTC 2021-11-23T21:18:35-10:00 2021-11-23T20:18:35-11:00  21.31346 -157.88858       0   0.0 Hōkūleʻa
  2021-11-24T07:09:15UTC 2021-11-23T21:09:15-10:00 2021-11-23T20:09:15-11:00  21.31303 -157.88879      42   0.0 Hikianalia
  2021-11-24T06:19:38UTC 2021-11-23T20:19:38-10:00 2021-11-23T19:19:38-11:00  21.31346 -157.88858       0   0.0 Hōkūleʻa
  2021-11-24T06:10:09UTC 2021-11-23T20:10:09-10:00 2021-11-23T19:10:09-11:00  21.31300 -157.88881      90   0.0 Hikianalia
  2021-11-24T05:18:31UTC 2021-11-23T19:18:31-10:00 2021-11-23T18:18:31-11:00  21.31346 -157.88858       0   0.0 Hōkūleʻa
  2021-11-24T05:10:39UTC 2021-11-23T19:10:39-10:00 2021-11-23T18:10:39-11:00  21.31300 -157.88883     180   0.0 Hikianalia
  2021-11-24T04:19:10UTC 2021-11-23T18:19:10-10:00 2021-11-23T17:19:10-11:00  21.31346 -157.88858     340   0.0 Hōkūleʻa
  2021-11-24T04:09:19UTC 2021-11-23T18:09:19-10:00 2021-11-23T17:09:19-11:00  21.31304 -157.88883       0   0.0 Hikianalia
  2021-11-24T03:18:38UTC 2021-11-23T17:18:38-10:00 2021-11-23T16:18:38-11:00  21.31329 -157.88851     160   0.0 Hōkūleʻa
  2021-11-24T03:10:09UTC 2021-11-23T17:10:09-10:00 2021-11-23T16:10:09-11:00  21.31304 -157.88883     180   0.0 Hikianalia
  2021-11-24T02:17:28UTC 2021-11-23T16:17:28-10:00 2021-11-23T15:17:28-11:00  21.31346 -157.88858       0   0.0 Hōkūleʻa
  2021-11-24T02:10:41UTC 2021-11-23T16:10:41-10:00 2021-11-23T15:10:41-11:00  21.31306 -157.88883       0   0.0 Hikianalia
  2021-11-24T01:18:30UTC 2021-11-23T15:18:30-10:00 2021-11-23T14:18:30-11:00  21.31346 -157.88858       0   0.0 Hōkūleʻa
  2021-11-24T01:09:12UTC 2021-11-23T15:09:12-10:00 2021-11-23T14:09:12-11:00  21.31304 -157.88883       0   0.0 Hikianalia
  2021-11-24T00:17:41UTC 2021-11-23T14:17:41-10:00 2021-11-23T13:17:41-11:00  21.31346 -157.88858       0   0.0 Hōkūleʻa
  2021-11-24T00:10:16UTC 2021-11-23T14:10:16-10:00 2021-11-23T13:10:16-11:00  21.31304 -157.88883     155   0.0 Hikianalia
  2021-11-23T23:17:39UTC 2021-11-23T13:17:39-10:00 2021-11-23T12:17:39-11:00  21.31312 -157.88888     328   0.0 Hikianalia
  2021-11-23T23:17:30UTC 2021-11-23T13:17:30-10:00 2021-11-23T12:17:30-11:00  21.31346 -157.88858       0   0.0 Hōkūleʻa
  2021-11-23T22:17:32UTC 2021-11-23T12:17:32-10:00 2021-11-23T11:17:32-11:00  21.31346 -157.88858       0   0.0 Hōkūleʻa
  2021-11-23T22:10:03UTC 2021-11-23T12:10:03-10:00 2021-11-23T11:10:03-11:00  21.31306 -157.88883     180   0.0 Hikianalia
  2021-11-23T21:19:35UTC 2021-11-23T11:19:35-10:00 2021-11-23T10:19:35-11:00  21.31315 -157.88883      61   0.0 Hikianalia
  2021-11-23T21:18:24UTC 2021-11-23T11:18:24-10:00 2021-11-23T10:18:24-11:00  21.31346 -157.88858       0   0.0 Hōkūleʻa
  2021-11-23T20:18:46UTC 2021-11-23T10:18:46-10:00 2021-11-23T09:18:46-11:00  21.31346 -157.88858       0   0.0 Hōkūleʻa
  2021-11-23T20:09:15UTC 2021-11-23T10:09:15-10:00 2021-11-23T09:09:15-11:00  21.31313 -157.88888     328   0.0 Hikianalia
  2021-11-23T19:17:33UTC 2021-11-23T09:17:33-10:00 2021-11-23T08:17:33-11:00  21.31346 -157.88858       0   0.0 Hōkūleʻa
  2021-11-23T19:10:14UTC 2021-11-23T09:10:14-10:00 2021-11-23T08:10:14-11:00  21.31307 -157.88883       0   0.0 Hikianalia
  2021-11-23T18:18:24UTC 2021-11-23T08:18:24-10:00 2021-11-23T07:18:24-11:00  21.31346 -157.88858       0   0.0 Hōkūleʻa
  2021-11-23T18:10:43UTC 2021-11-23T08:10:43-10:00 2021-11-23T07:10:43-11:00  21.31303 -157.88883     180   0.0 Hikianalia
  2021-11-23T17:18:22UTC 2021-11-23T07:18:22-10:00 2021-11-23T06:18:22-11:00  21.31346 -157.88858       0   0.0 Hōkūleʻa
  2021-11-23T17:10:44UTC 2021-11-23T07:10:44-10:00 2021-11-23T06:10:44-11:00  21.31304 -157.88883       0   0.0 Hikianalia
  2021-11-23T16:18:50UTC 2021-11-23T06:18:50-10:00 2021-11-23T05:18:50-11:00  21.31346 -157.88858       0   0.0 Hōkūleʻa
  2021-11-23T16:10:08UTC 2021-11-23T06:10:08-10:00 2021-11-23T05:10:08-11:00  21.31304 -157.88883       0   0.0 Hikianalia
  2021-11-23T15:18:35UTC 2021-11-23T05:18:35-10:00 2021-11-23T04:18:35-11:00  21.31346 -157.88858       0   0.0 Hōkūleʻa
  2021-11-23T15:09:20UTC 2021-11-23T05:09:20-10:00 2021-11-23T04:09:20-11:00  21.31303 -157.88883     180   0.0 Hikianalia
  2021-11-23T14:18:29UTC 2021-11-23T04:18:29-10:00 2021-11-23T03:18:29-11:00  21.31346 -157.88858       0   0.0 Hōkūleʻa
  2021-11-23T14:10:43UTC 2021-11-23T04:10:43-10:00 2021-11-23T03:10:43-11:00  21.31304 -157.88883     118   0.3 Hikianalia
  2021-11-23T13:18:33UTC 2021-11-23T03:18:33-10:00 2021-11-23T02:18:33-11:00  21.31346 -157.88858       0   0.0 Hōkūleʻa
  2021-11-23T13:11:20UTC 2021-11-23T03:11:20-10:00 2021-11-23T02:11:20-11:00  21.31515 -157.89300     299   0.2 Hikianalia
  2021-11-23T12:30:13UTC 2021-11-23T02:30:13-10:00 2021-11-23T01:30:13-11:00  21.31346 -157.88858       0   0.0 Hōkūleʻa
  2021-11-23T12:10:47UTC 2021-11-23T02:10:47-10:00 2021-11-23T01:10:47-11:00  21.31313 -157.88907       0   0.0 Hikianalia
  2021-11-23T11:18:38UTC 2021-11-23T01:18:38-10:00 2021-11-23T00:18:38-11:00  21.31346 -157.88858       0   0.0 Hōkūleʻa
  2021-11-23T11:10:17UTC 2021-11-23T01:10:17-10:00 2021-11-23T00:10:17-11:00  21.31313 -157.88907       0   0.0 Hikianalia
  2021-11-23T10:18:34UTC 2021-11-23T00:18:34-10:00 2021-11-22T23:18:34-11:00  21.31346 -157.88858       0   0.0 Hōkūleʻa
  2021-11-23T10:09:16UTC 2021-11-23T00:09:16-10:00 2021-11-22T23:09:16-11:00  21.31313 -157.88907       0   0.0 Hikianalia
  2021-11-23T09:18:30UTC 2021-11-22T23:18:30-10:00 2021-11-22T22:18:30-11:00  21.31346 -157.88858       0   0.0 Hōkūleʻa
  2021-11-23T09:10:09UTC 2021-11-22T23:10:09-10:00 2021-11-22T22:10:09-11:00  21.31313 -157.88907       0   0.0 Hikianalia
  2021-11-23T08:18:44UTC 2021-11-22T22:18:44-10:00 2021-11-22T21:18:44-11:00  21.31346 -157.88858       0   0.0 Hōkūleʻa
  2021-11-23T08:10:43UTC 2021-11-22T22:10:43-10:00 2021-11-22T21:10:43-11:00  21.31313 -157.88907     236   0.0 Hikianalia
  2021-11-23T07:18:27UTC 2021-11-22T21:18:27-10:00 2021-11-22T20:18:27-11:00  21.31346 -157.88858       0   0.0 Hōkūleʻa
  2021-11-23T07:10:14UTC 2021-11-22T21:10:14-10:00 2021-11-22T20:10:14-11:00  21.31319 -157.88898      56   0.0 Hikianalia
  2021-11-23T06:18:31UTC 2021-11-22T20:18:31-10:00 2021-11-22T19:18:31-11:00  21.31346 -157.88858       0   0.0 Hōkūleʻa
  2021-11-23T06:10:38UTC 2021-11-22T20:10:38-10:00 2021-11-22T19:10:38-11:00  21.31313 -157.88907       0   0.0 Hikianalia
  2021-11-23T05:18:31UTC 2021-11-22T19:18:31-10:00 2021-11-22T18:18:31-11:00  21.31346 -157.88858       0   0.0 Hōkūleʻa
  2021-11-23T05:09:15UTC 2021-11-22T19:09:15-10:00 2021-11-22T18:09:15-11:00  21.31313 -157.88907       0   0.0 Hikianalia
  2021-11-23T04:18:44UTC 2021-11-22T18:18:44-10:00 2021-11-22T17:18:44-11:00  21.31346 -157.88858     340   0.0 Hōkūleʻa
  2021-11-23T04:10:06UTC 2021-11-22T18:10:06-10:00 2021-11-22T17:10:06-11:00  21.31313 -157.88907       0   0.0 Hikianalia
  2021-11-23T03:17:32UTC 2021-11-22T17:17:32-10:00 2021-11-22T16:17:32-11:00  21.31329 -157.88851     160   0.0 Hōkūleʻa
  2021-11-23T03:10:17UTC 2021-11-22T17:10:17-10:00 2021-11-22T16:10:17-11:00  21.31313 -157.88907       0   0.0 Hikianalia
  2021-11-23T02:18:21UTC 2021-11-22T16:18:21-10:00 2021-11-22T15:18:21-11:00  21.31346 -157.88858       0   0.0 Hōkūleʻa
  2021-11-23T02:11:14UTC 2021-11-22T16:11:14-10:00 2021-11-22T15:11:14-11:00  21.31313 -157.88907       0   0.0 Hikianalia
  2021-11-23T01:18:32UTC 2021-11-22T15:18:32-10:00 2021-11-22T14:18:32-11:00  21.31346 -157.88858       0   0.0 Hōkūleʻa
  2021-11-23T01:10:16UTC 2021-11-22T15:10:16-10:00 2021-11-22T14:10:16-11:00  21.31313 -157.88907     217   0.0 Hikianalia
  2021-11-23T00:19:33UTC 2021-11-22T14:19:33-10:00 2021-11-22T13:19:33-11:00  21.31319 -157.88903     322   0.0 Hikianalia
  2021-11-23T00:17:48UTC 2021-11-22T14:17:48-10:00 2021-11-22T13:17:48-11:00  21.31346 -157.88858       0   0.0 Hōkūleʻa
  2021-11-22T23:18:28UTC 2021-11-22T13:18:28-10:00 2021-11-22T12:18:28-11:00  21.31337 -157.88858     180   0.0 Hōkūleʻa
  2021-11-22T23:09:15UTC 2021-11-22T13:09:15-10:00 2021-11-22T12:09:15-11:00  21.31306 -157.88892     118   0.0 Hikianalia
  2021-11-22T22:17:33UTC 2021-11-22T12:17:33-10:00 2021-11-22T11:17:33-11:00  21.31346 -157.88858       0   0.0 Hōkūleʻa
  2021-11-22T22:10:47UTC 2021-11-22T12:10:47-10:00 2021-11-22T11:10:47-11:00  21.31313 -157.88907       0   0.0 Hikianalia
  2021-11-22T21:18:31UTC 2021-11-22T11:18:31-10:00 2021-11-22T10:18:31-11:00  21.31346 -157.88858       0   0.0 Hōkūleʻa
  2021-11-22T21:09:09UTC 2021-11-22T11:09:09-10:00 2021-11-22T10:09:09-11:00  21.31313 -157.88907       0   0.0 Hikianalia
  2021-11-22T20:17:39UTC 2021-11-22T10:17:39-10:00 2021-11-22T09:17:39-11:00  21.31346 -157.88858       0   0.0 Hōkūleʻa
  2021-11-22T20:10:09UTC 2021-11-22T10:10:09-10:00 2021-11-22T09:10:09-11:00  21.31313 -157.88907       0   0.0 Hikianalia
  2021-11-22T19:18:24UTC 2021-11-22T09:18:24-10:00 2021-11-22T08:18:24-11:00  21.31346 -157.88858       0   0.0 Hōkūleʻa
  2021-11-22T19:09:48UTC 2021-11-22T09:09:48-10:00 2021-11-22T08:09:48-11:00  21.31313 -157.88907       0   0.0 Hikianalia
  2021-11-22T18:18:36UTC 2021-11-22T08:18:36-10:00 2021-11-22T07:18:36-11:00  21.31346 -157.88858       0   0.0 Hōkūleʻa
  2021-11-22T18:10:17UTC 2021-11-22T08:10:17-10:00 2021-11-22T07:10:17-11:00  21.31313 -157.88907       0   0.0 Hikianalia
  2021-11-22T17:27:17UTC 2021-11-22T07:27:17-10:00 2021-11-22T06:27:17-11:00  21.31346 -157.88858       0   0.0 Hōkūleʻa
  2021-11-22T17:10:41UTC 2021-11-22T07:10:41-10:00 2021-11-22T06:10:41-11:00  21.31313 -157.88907       0   0.0 Hikianalia
  2021-11-22T16:18:38UTC 2021-11-22T06:18:38-10:00 2021-11-22T05:18:38-11:00  21.31346 -157.88858       0   0.0 Hōkūleʻa
  2021-11-22T16:11:07UTC 2021-11-22T06:11:07-10:00 2021-11-22T05:11:07-11:00  21.31313 -157.88907     289   0.0 Hikianalia
  2021-11-22T15:18:24UTC 2021-11-22T05:18:24-10:00 2021-11-22T04:18:24-11:00  21.31346 -157.88858       0   0.0 Hōkūleʻa
  2021-11-22T15:10:24UTC 2021-11-22T05:10:24-10:00 2021-11-22T04:10:24-11:00  21.31307 -157.88888     109   0.0 Hikianalia
  2021-11-22T14:18:30UTC 2021-11-22T04:18:30-10:00 2021-11-22T03:18:30-11:00  21.31346 -157.88858       0   0.0 Hōkūleʻa
  2021-11-22T14:10:48UTC 2021-11-22T04:10:48-10:00 2021-11-22T03:10:48-11:00  21.31313 -157.88907       0   0.0 Hikianalia
  2021-11-22T13:18:32UTC 2021-11-22T03:18:32-10:00 2021-11-22T02:18:32-11:00  21.31346 -157.88858       0   0.0 Hōkūleʻa
  2021-11-22T13:09:14UTC 2021-11-22T03:09:14-10:00 2021-11-22T02:09:14-11:00  21.31313 -157.88907       0   0.0 Hikianalia
  2021-11-22T12:18:48UTC 2021-11-22T02:18:48-10:00 2021-11-22T01:18:48-11:00  21.31346 -157.88858       0   0.0 Hōkūleʻa
  2021-11-22T12:10:18UTC 2021-11-22T02:10:18-10:00 2021-11-22T01:10:18-11:00  21.31313 -157.88907       0   0.0 Hikianalia
  2021-11-22T11:18:37UTC 2021-11-22T01:18:37-10:00 2021-11-22T00:18:37-11:00  21.31346 -157.88858       0   0.0 Hōkūleʻa
  2021-11-22T11:09:17UTC 2021-11-22T01:09:17-10:00 2021-11-22T00:09:17-11:00  21.31313 -157.88907       0   0.0 Hikianalia
  2021-11-22T10:18:33UTC 2021-11-22T00:18:33-10:00 2021-11-21T23:18:33-11:00  21.31346 -157.88858       0   0.0 Hōkūleʻa
  2021-11-22T10:10:38UTC 2021-11-22T00:10:38-10:00 2021-11-21T23:10:38-11:00  21.31313 -157.88907       0   0.0 Hikianalia
  2021-11-22T09:18:24UTC 2021-11-21T23:18:24-10:00 2021-11-21T22:18:24-11:00  21.31346 -157.88858       0   0.0 Hōkūleʻa
  2021-11-22T09:10:11UTC 2021-11-21T23:10:11-10:00 2021-11-21T22:10:11-11:00  21.31313 -157.88907       0   0.0 Hikianalia
  2021-11-22T08:29:49UTC 2021-11-21T22:29:49-10:00 2021-11-21T21:29:49-11:00  21.31346 -157.88858       0   0.0 Hōkūleʻa
  2021-11-22T08:10:15UTC 2021-11-21T22:10:15-10:00 2021-11-21T21:10:15-11:00  21.31313 -157.88907       0   0.0 Hikianalia
  2021-11-22T07:17:36UTC 2021-11-21T21:17:36-10:00 2021-11-21T20:17:36-11:00  21.31346 -157.88858       0   0.0 Hōkūleʻa
  2021-11-22T07:10:16UTC 2021-11-21T21:10:16-10:00 2021-11-21T20:10:16-11:00  21.31313 -157.88907       0   0.0 Hikianalia
  2021-11-22T06:18:25UTC 2021-11-21T20:18:25-10:00 2021-11-21T19:18:25-11:00  21.31346 -157.88858       0   0.0 Hōkūleʻa
  2021-11-22T06:10:38UTC 2021-11-21T20:10:38-10:00 2021-11-21T19:10:38-11:00  21.31313 -157.88907       0   0.0 Hikianalia
  2021-11-22T05:18:25UTC 2021-11-21T19:18:25-10:00 2021-11-21T18:18:25-11:00  21.31346 -157.88858       0   0.0 Hōkūleʻa
  2021-11-22T05:10:17UTC 2021-11-21T19:10:17-10:00 2021-11-21T18:10:17-11:00  21.31313 -157.88907       0   0.0 Hikianalia
  2021-11-22T04:17:41UTC 2021-11-21T18:17:41-10:00 2021-11-21T17:17:41-11:00  21.31346 -157.88858     332   0.0 Hōkūleʻa
  2021-11-22T04:09:14UTC 2021-11-21T18:09:14-10:00 2021-11-21T17:09:14-11:00  21.31313 -157.88907       0   0.0 Hikianalia
  2021-11-22T03:18:29UTC 2021-11-21T17:18:29-10:00 2021-11-21T16:18:29-11:00  21.31330 -157.88849     152   0.0 Hōkūleʻa
  2021-11-22T03:18:16UTC 2021-11-21T17:18:16-10:00 2021-11-21T16:18:16-11:00  21.31313 -157.88907       0   0.0 Hikianalia
  2021-11-22T02:18:30UTC 2021-11-21T16:18:30-10:00 2021-11-21T15:18:30-11:00  21.31346 -157.88858       0   0.0 Hōkūleʻa
  2021-11-22T02:10:40UTC 2021-11-21T16:10:40-10:00 2021-11-21T15:10:40-11:00  21.31313 -157.88907       0   0.0 Hikianalia
  2021-11-22T01:17:33UTC 2021-11-21T15:17:33-10:00 2021-11-21T14:17:33-11:00  21.31346 -157.88858       0   0.0 Hōkūleʻa
  2021-11-22T01:09:16UTC 2021-11-21T15:09:16-10:00 2021-11-21T14:09:16-11:00  21.31313 -157.88907       0   0.0 Hikianalia
  2021-11-22T00:18:41UTC 2021-11-21T14:18:41-10:00 2021-11-21T13:18:41-11:00  21.31346 -157.88858     343   0.0 Hōkūleʻa
  2021-11-22T00:09:09UTC 2021-11-21T14:09:09-10:00 2021-11-21T13:09:09-11:00  21.31313 -157.88907       0   0.0 Hikianalia
  2021-11-21T23:17:45UTC 2021-11-21T13:17:45-10:00 2021-11-21T12:17:45-11:00  21.31333 -157.88853     163   0.0 Hōkūleʻa
  2021-11-21T23:10:09UTC 2021-11-21T13:10:09-10:00 2021-11-21T12:10:09-11:00  21.31313 -157.88907       0   0.0 Hikianalia
  2021-11-21T22:18:30UTC 2021-11-21T12:18:30-10:00 2021-11-21T11:18:30-11:00  21.31346 -157.88858       0   0.0 Hōkūleʻa
  2021-11-21T22:09:46UTC 2021-11-21T12:09:46-10:00 2021-11-21T11:09:46-11:00  21.31313 -157.88907       0   0.0 Hikianalia
  2021-11-21T21:26:36UTC 2021-11-21T11:26:36-10:00 2021-11-21T10:26:36-11:00  21.31346 -157.88858       0   0.0 Hōkūleʻa
  2021-11-21T21:09:08UTC 2021-11-21T11:09:08-10:00 2021-11-21T10:09:08-11:00  21.31313 -157.88907       0   0.0 Hikianalia
  2021-11-21T20:18:50UTC 2021-11-21T10:18:50-10:00 2021-11-21T09:18:50-11:00  21.31346 -157.88858       0   0.0 Hōkūleʻa
  2021-11-21T20:10:17UTC 2021-11-21T10:10:17-10:00 2021-11-21T09:10:17-11:00  21.31313 -157.88907       0   0.0 Hikianalia
  2021-11-21T19:17:26UTC 2021-11-21T09:17:26-10:00 2021-11-21T08:17:26-11:00  21.31346 -157.88858       0   0.0 Hōkūleʻa
  2021-11-21T19:10:15UTC 2021-11-21T09:10:15-10:00 2021-11-21T08:10:15-11:00  21.31313 -157.88907       0   0.0 Hikianalia
  2021-11-21T18:23:44UTC 2021-11-21T08:23:44-10:00 2021-11-21T07:23:44-11:00  21.31313 -157.88907     320   0.0 Hikianalia
  2021-11-21T18:18:24UTC 2021-11-21T08:18:24-10:00 2021-11-21T07:18:24-11:00  21.31346 -157.88858       0   0.0 Hōkūleʻa
  2021-11-21T17:18:30UTC 2021-11-21T07:18:30-10:00 2021-11-21T06:18:30-11:00  21.31346 -157.88858       0   0.0 Hōkūleʻa
  2021-11-21T17:10:35UTC 2021-11-21T07:10:35-10:00 2021-11-21T06:10:35-11:00  21.31304 -157.88898     140   0.0 Hikianalia
  2021-11-21T16:18:45UTC 2021-11-21T06:18:45-10:00 2021-11-21T05:18:45-11:00  21.31346 -157.88858      15   0.0 Hōkūleʻa
  2021-11-21T16:10:07UTC 2021-11-21T06:10:07-10:00 2021-11-21T05:10:07-11:00  21.31313 -157.88907       0   0.0 Hikianalia
  2021-11-21T15:18:30UTC 2021-11-21T05:18:30-10:00 2021-11-21T04:18:30-11:00  21.31330 -157.88862     195   0.0 Hōkūleʻa
  2021-11-21T15:10:17UTC 2021-11-21T05:10:17-10:00 2021-11-21T04:10:17-11:00  21.31313 -157.88907       0   0.0 Hikianalia
  2021-11-21T14:18:37UTC 2021-11-21T04:18:37-10:00 2021-11-21T03:18:37-11:00  21.31346 -157.88858       0   0.0 Hōkūleʻa
  2021-11-21T14:09:42UTC 2021-11-21T04:09:42-10:00 2021-11-21T03:09:42-11:00  21.31313 -157.88907     291   0.0 Hikianalia
  2021-11-21T13:18:32UTC 2021-11-21T03:18:32-10:00 2021-11-21T02:18:32-11:00  21.31346 -157.88858       0   0.0 Hōkūleʻa
  2021-11-21T13:10:07UTC 2021-11-21T03:10:07-10:00 2021-11-21T02:10:07-11:00  21.31308 -157.88892     111   0.0 Hikianalia
  2021-11-21T12:18:41UTC 2021-11-21T02:18:41-10:00 2021-11-21T01:18:41-11:00  21.31346 -157.88858       0   0.0 Hōkūleʻa
  2021-11-21T12:10:19UTC 2021-11-21T02:10:19-10:00 2021-11-21T01:10:19-11:00  21.31313 -157.88907       0   0.0 Hikianalia
  2021-11-21T11:18:21UTC 2021-11-21T01:18:21-10:00 2021-11-21T00:18:21-11:00  21.31346 -157.88858       0   0.0 Hōkūleʻa
  2021-11-21T11:10:09UTC 2021-11-21T01:10:09-10:00 2021-11-21T00:10:09-11:00  21.31313 -157.88907       0   0.0 Hikianalia
  2021-11-21T10:18:34UTC 2021-11-21T00:18:34-10:00 2021-11-20T23:18:34-11:00  21.31346 -157.88858       0   0.0 Hōkūleʻa
  2021-11-21T10:10:47UTC 2021-11-21T00:10:47-10:00 2021-11-20T23:10:47-11:00  21.31313 -157.88907       0   0.0 Hikianalia
  2021-11-21T09:18:30UTC 2021-11-20T23:18:30-10:00 2021-11-20T22:18:30-11:00  21.31346 -157.88858       0   0.0 Hōkūleʻa
  2021-11-21T09:09:18UTC 2021-11-20T23:09:18-10:00 2021-11-20T22:09:18-11:00  21.31313 -157.88907       0   0.0 Hikianalia
  2021-11-21T08:17:49UTC 2021-11-20T22:17:49-10:00 2021-11-20T21:17:49-11:00  21.31346 -157.88858       0   0.0 Hōkūleʻa
  2021-11-21T08:10:18UTC 2021-11-20T22:10:18-10:00 2021-11-20T21:10:18-11:00  21.31313 -157.88907     133   0.0 Hikianalia
  2021-11-21T07:18:27UTC 2021-11-20T21:18:27-10:00 2021-11-20T20:18:27-11:00  21.31346 -157.88858       0   0.0 Hōkūleʻa
  2021-11-21T07:10:14UTC 2021-11-20T21:10:14-10:00 2021-11-20T20:10:14-11:00  21.31321 -157.88916     313   0.0 Hikianalia
  2021-11-21T06:18:30UTC 2021-11-20T20:18:30-10:00 2021-11-20T19:18:30-11:00  21.31346 -157.88858       0   0.0 Hōkūleʻa
  2021-11-21T06:10:46UTC 2021-11-20T20:10:46-10:00 2021-11-20T19:10:46-11:00  21.31313 -157.88907       0   0.0 Hikianalia
  2021-11-21T05:18:27UTC 2021-11-20T19:18:27-10:00 2021-11-20T18:18:27-11:00  21.31346 -157.88858       0   0.0 Hōkūleʻa
  2021-11-21T05:10:08UTC 2021-11-20T19:10:08-10:00 2021-11-20T18:10:08-11:00  21.31313 -157.88907       0   0.0 Hikianalia
  2021-11-21T04:18:59UTC 2021-11-20T18:18:59-10:00 2021-11-20T17:18:59-11:00  21.31346 -157.88858       9   0.0 Hōkūleʻa
  2021-11-21T04:10:15UTC 2021-11-20T18:10:15-10:00 2021-11-20T17:10:15-11:00  21.31313 -157.88907       0   0.0 Hikianalia
  2021-11-21T03:18:39UTC 2021-11-20T17:18:39-10:00 2021-11-20T16:18:39-11:00  21.31333 -157.88860     189   0.0 Hōkūleʻa
  2021-11-21T03:10:18UTC 2021-11-20T17:10:18-10:00 2021-11-20T16:10:18-11:00  21.31313 -157.88907       0   0.0 Hikianalia
  2021-11-21T02:18:22UTC 2021-11-20T16:18:22-10:00 2021-11-20T15:18:22-11:00  21.31346 -157.88858       0   0.0 Hōkūleʻa
  2021-11-21T02:10:47UTC 2021-11-20T16:10:47-10:00 2021-11-20T15:10:47-11:00  21.31313 -157.88907       0   0.0 Hikianalia
  2021-11-21T01:17:32UTC 2021-11-20T15:17:32-10:00 2021-11-20T14:17:32-11:00  21.31346 -157.88858       0   0.0 Hōkūleʻa
  2021-11-21T01:09:44UTC 2021-11-20T15:09:44-10:00 2021-11-20T14:09:44-11:00  21.31313 -157.88907       0   0.0 Hikianalia
  2021-11-21T00:17:39UTC 2021-11-20T14:17:39-10:00 2021-11-20T13:17:39-11:00  21.31346 -157.88858     351   0.0 Hōkūleʻa
  2021-11-21T00:10:18UTC 2021-11-20T14:10:18-10:00 2021-11-20T13:10:18-11:00  21.31313 -157.88907       0   0.0 Hikianalia
  2021-11-20T23:18:28UTC 2021-11-20T13:18:28-10:00 2021-11-20T12:18:28-11:00  21.31334 -157.88856     171   0.0 Hōkūleʻa
  2021-11-20T23:09:43UTC 2021-11-20T13:09:43-10:00 2021-11-20T12:09:43-11:00  21.31313 -157.88907     285   0.0 Hikianalia
  2021-11-20T22:17:33UTC 2021-11-20T12:17:33-10:00 2021-11-20T11:17:33-11:00  21.31346 -157.88858       0   0.0 Hōkūleʻa
  2021-11-20T22:16:25UTC 2021-11-20T12:16:25-10:00 2021-11-20T11:16:25-11:00  21.31311 -157.88898     105   0.0 Hikianalia
  2021-11-20T21:17:23UTC 2021-11-20T11:17:23-10:00 2021-11-20T10:17:23-11:00  21.31346 -157.88858       0   0.0 Hōkūleʻa
  2021-11-20T21:10:18UTC 2021-11-20T11:10:18-10:00 2021-11-20T10:10:18-11:00  21.31313 -157.88907       0   0.0 Hikianalia
  2021-11-20T20:18:47UTC 2021-11-20T10:18:47-10:00 2021-11-20T09:18:47-11:00  21.31346 -157.88858       0   0.0 Hōkūleʻa
  2021-11-20T20:09:38UTC 2021-11-20T10:09:38-10:00 2021-11-20T09:09:38-11:00  21.31313 -157.88907     301   0.0 Hikianalia
  2021-11-20T19:17:38UTC 2021-11-20T09:17:38-10:00 2021-11-20T08:17:38-11:00  21.31346 -157.88858       0   0.0 Hōkūleʻa
  2021-11-20T19:10:11UTC 2021-11-20T09:10:11-10:00 2021-11-20T08:10:11-11:00  21.31305 -157.88892     121   0.0 Hikianalia
  2021-11-20T18:18:24UTC 2021-11-20T08:18:24-10:00 2021-11-20T07:18:24-11:00  21.31346 -157.88858       0   0.0 Hōkūleʻa
  2021-11-20T18:10:13UTC 2021-11-20T08:10:13-10:00 2021-11-20T07:10:13-11:00  21.31313 -157.88907     314   0.0 Hikianalia
  2021-11-20T17:19:31UTC 2021-11-20T07:19:31-10:00 2021-11-20T06:19:31-11:00  21.31346 -157.88858       0   0.0 Hōkūleʻa
  2021-11-20T17:10:07UTC 2021-11-20T07:10:07-10:00 2021-11-20T06:10:07-11:00  21.31299 -157.88892     134   0.0 Hikianalia
  2021-11-20T16:18:49UTC 2021-11-20T06:18:49-10:00 2021-11-20T05:18:49-11:00  21.31346 -157.88858       0   0.0 Hōkūleʻa
  2021-11-20T16:10:46UTC 2021-11-20T06:10:46-10:00 2021-11-20T05:10:46-11:00  21.31313 -157.88907       0   0.0 Hikianalia
  2021-11-20T15:17:49UTC 2021-11-20T05:17:49-10:00 2021-11-20T04:17:49-11:00  21.31346 -157.88858       0   0.0 Hōkūleʻa
  2021-11-20T15:10:46UTC 2021-11-20T05:10:46-10:00 2021-11-20T04:10:46-11:00  21.31313 -157.88907       0   0.0 Hikianalia
  2021-11-20T14:18:30UTC 2021-11-20T04:18:30-10:00 2021-11-20T03:18:30-11:00  21.31346 -157.88858       0   0.0 Hōkūleʻa
  2021-11-20T14:09:08UTC 2021-11-20T04:09:08-10:00 2021-11-20T03:09:08-11:00  21.31313 -157.88907     295   0.0 Hikianalia
  2021-11-20T13:19:25UTC 2021-11-20T03:19:25-10:00 2021-11-20T02:19:25-11:00  21.31346 -157.88858       0   0.0 Hōkūleʻa
  2021-11-20T13:10:06UTC 2021-11-20T03:10:06-10:00 2021-11-20T02:10:06-11:00  21.31305 -157.88888      83   0.0 Hikianalia
  2021-11-20T12:18:48UTC 2021-11-20T02:18:48-10:00 2021-11-20T01:18:48-11:00  21.31346 -157.88858       0   0.0 Hōkūleʻa
  2021-11-20T12:10:46UTC 2021-11-20T02:10:46-10:00 2021-11-20T01:10:46-11:00  21.31304 -157.88896     133   0.0 Hikianalia
  2021-11-20T11:18:30UTC 2021-11-20T01:18:30-10:00 2021-11-20T00:18:30-11:00  21.31346 -157.88858       0   0.0 Hōkūleʻa
  2021-11-20T11:10:09UTC 2021-11-20T01:10:09-10:00 2021-11-20T00:10:09-11:00  21.31313 -157.88907       0   0.0 Hikianalia
  2021-11-20T10:18:34UTC 2021-11-20T00:18:34-10:00 2021-11-19T23:18:34-11:00  21.31346 -157.88858       0   0.0 Hōkūleʻa
  2021-11-20T10:10:07UTC 2021-11-20T00:10:07-10:00 2021-11-19T23:10:07-11:00  21.31313 -157.88907       0   0.0 Hikianalia
  2021-11-20T09:18:30UTC 2021-11-19T23:18:30-10:00 2021-11-19T22:18:30-11:00  21.31346 -157.88858       0   0.0 Hōkūleʻa
  2021-11-20T09:10:09UTC 2021-11-19T23:10:09-10:00 2021-11-19T22:10:09-11:00  21.31313 -157.88907       0   0.0 Hikianalia
  2021-11-20T08:17:46UTC 2021-11-19T22:17:46-10:00 2021-11-19T21:17:46-11:00  21.31346 -157.88858       0   0.0 Hōkūleʻa
  2021-11-20T08:09:47UTC 2021-11-19T22:09:47-10:00 2021-11-19T21:09:47-11:00  21.31313 -157.88907       0   0.0 Hikianalia
  2021-11-20T07:18:33UTC 2021-11-19T21:18:33-10:00 2021-11-19T20:18:33-11:00  21.31346 -157.88858     155   0.0 Hōkūleʻa
  2021-11-20T07:10:14UTC 2021-11-19T21:10:14-10:00 2021-11-19T20:10:14-11:00  21.31313 -157.88907       0   0.0 Hikianalia
  2021-11-20T06:19:42UTC 2021-11-19T20:19:42-10:00 2021-11-19T19:19:42-11:00  21.31354 -157.88862       0   0.0 Hōkūleʻa
  2021-11-20T06:10:44UTC 2021-11-19T20:10:44-10:00 2021-11-19T19:10:44-11:00  21.31313 -157.88907       0   0.0 Hikianalia
  2021-11-20T05:18:32UTC 2021-11-19T19:18:32-10:00 2021-11-19T18:18:32-11:00  21.31354 -157.88862       0   0.0 Hōkūleʻa
  2021-11-20T05:10:16UTC 2021-11-19T19:10:16-10:00 2021-11-19T18:10:16-11:00  21.31313 -157.88907       0   0.0 Hikianalia
  2021-11-20T04:18:47UTC 2021-11-19T18:18:47-10:00 2021-11-19T17:18:47-11:00  21.31354 -157.88862       0   0.0 Hōkūleʻa
  2021-11-20T04:10:09UTC 2021-11-19T18:10:09-10:00 2021-11-19T17:10:09-11:00  21.31313 -157.88907       0   0.0 Hikianalia
  2021-11-20T03:17:38UTC 2021-11-19T17:17:38-10:00 2021-11-19T16:17:38-11:00  21.31354 -157.88862       0   0.0 Hōkūleʻa
  2021-11-20T03:09:15UTC 2021-11-19T17:09:15-10:00 2021-11-19T16:09:15-11:00  21.31313 -157.88907       0   0.0 Hikianalia
  2021-11-20T02:21:32UTC 2021-11-19T16:21:32-10:00 2021-11-19T15:21:32-11:00  21.31313 -157.88907       0   0.0 Hikianalia
  2021-11-20T02:18:30UTC 2021-11-19T16:18:30-10:00 2021-11-19T15:18:30-11:00  21.31354 -157.88862       0   0.0 Hōkūleʻa
  2021-11-20T01:18:31UTC 2021-11-19T15:18:31-10:00 2021-11-19T14:18:31-11:00  21.31354 -157.88862       0   0.0 Hōkūleʻa
  2021-11-20T01:10:47UTC 2021-11-19T15:10:47-10:00 2021-11-19T14:10:47-11:00  21.31313 -157.88907       0   0.0 Hikianalia
  2021-11-20T00:17:47UTC 2021-11-19T14:17:47-10:00 2021-11-19T13:17:47-11:00  21.31354 -157.88862       0   0.0 Hōkūleʻa
  2021-11-20T00:09:17UTC 2021-11-19T14:09:17-10:00 2021-11-19T13:09:17-11:00  21.31313 -157.88907       0   0.0 Hikianalia
  2021-11-19T23:18:30UTC 2021-11-19T13:18:30-10:00 2021-11-19T12:18:30-11:00  21.31354 -157.88862       0   0.0 Hōkūleʻa
  2021-11-19T23:10:15UTC 2021-11-19T13:10:15-10:00 2021-11-19T12:10:15-11:00  21.31313 -157.88907       0   0.0 Hikianalia
  2021-11-19T22:17:33UTC 2021-11-19T12:17:33-10:00 2021-11-19T11:17:33-11:00  21.31354 -157.88862       0   0.0 Hōkūleʻa
  2021-11-19T22:09:44UTC 2021-11-19T12:09:44-10:00 2021-11-19T11:09:44-11:00  21.31313 -157.88907       0   0.0 Hikianalia
  2021-11-19T21:18:33UTC 2021-11-19T11:18:33-10:00 2021-11-19T10:18:33-11:00  21.31354 -157.88862       0   0.0 Hōkūleʻa
  2021-11-19T21:10:17UTC 2021-11-19T11:10:17-10:00 2021-11-19T10:10:17-11:00  21.31313 -157.88907       0   0.0 Hikianalia
  2021-11-19T20:17:46UTC 2021-11-19T10:17:46-10:00 2021-11-19T09:17:46-11:00  21.31354 -157.88862       0   0.0 Hōkūleʻa
  2021-11-19T20:09:08UTC 2021-11-19T10:09:08-10:00 2021-11-19T09:09:08-11:00  21.31313 -157.88907       0   0.0 Hikianalia
  2021-11-19T19:18:26UTC 2021-11-19T09:18:26-10:00 2021-11-19T08:18:26-11:00  21.31354 -157.88862       0   0.0 Hōkūleʻa
  2021-11-19T19:10:15UTC 2021-11-19T09:10:15-10:00 2021-11-19T08:10:15-11:00  21.31313 -157.88907       0   0.0 Hikianalia
  2021-11-19T18:18:31UTC 2021-11-19T08:18:31-10:00 2021-11-19T07:18:31-11:00  21.31354 -157.88862       0   0.0 Hōkūleʻa
  2021-11-19T18:10:46UTC 2021-11-19T08:10:46-10:00 2021-11-19T07:10:46-11:00  21.31313 -157.88907       0   0.0 Hikianalia
  2021-11-19T17:18:47UTC 2021-11-19T07:18:47-10:00 2021-11-19T06:18:47-11:00  21.31354 -157.88862       0   0.0 Hōkūleʻa
  2021-11-19T17:10:17UTC 2021-11-19T07:10:17-10:00 2021-11-19T06:10:17-11:00  21.31313 -157.88907       0   0.0 Hikianalia
  2021-11-19T16:18:24UTC 2021-11-19T06:18:24-10:00 2021-11-19T05:18:24-11:00  21.31354 -157.88862       0   0.0 Hōkūleʻa
  2021-11-19T16:10:08UTC 2021-11-19T06:10:08-10:00 2021-11-19T05:10:08-11:00  21.31313 -157.88907       0   0.0 Hikianalia
  2021-11-19T15:18:29UTC 2021-11-19T05:18:29-10:00 2021-11-19T04:18:29-11:00  21.31354 -157.88862       0   0.0 Hōkūleʻa
  2021-11-19T15:10:13UTC 2021-11-19T05:10:13-10:00 2021-11-19T04:10:13-11:00  21.31313 -157.88907       0   0.0 Hikianalia
  2021-11-19T14:18:57UTC 2021-11-19T04:18:57-10:00 2021-11-19T03:18:57-11:00  21.31354 -157.88862       0   0.0 Hōkūleʻa
  2021-11-19T14:10:49UTC 2021-11-19T04:10:49-10:00 2021-11-19T03:10:49-11:00  21.31313 -157.88907       0   0.0 Hikianalia
  2021-11-19T13:17:34UTC 2021-11-19T03:17:34-10:00 2021-11-19T02:17:34-11:00  21.31354 -157.88862       0   0.0 Hōkūleʻa
  2021-11-19T13:10:23UTC 2021-11-19T03:10:23-10:00 2021-11-19T02:10:23-11:00  21.31313 -157.88907       0   0.0 Hikianalia
  2021-11-19T12:18:29UTC 2021-11-19T02:18:29-10:00 2021-11-19T01:18:29-11:00  21.31354 -157.88862       0   0.0 Hōkūleʻa
  2021-11-19T12:10:26UTC 2021-11-19T02:10:26-10:00 2021-11-19T01:10:26-11:00  21.31313 -157.88907       0   0.0 Hikianalia
  2021-11-19T11:18:29UTC 2021-11-19T01:18:29-10:00 2021-11-19T00:18:29-11:00  21.31354 -157.88862       0   0.0 Hōkūleʻa
  2021-11-19T11:10:18UTC 2021-11-19T01:10:18-10:00 2021-11-19T00:10:18-11:00  21.31313 -157.88907       0   0.0 Hikianalia
  2021-11-19T10:18:43UTC 2021-11-19T00:18:43-10:00 2021-11-18T23:18:43-11:00  21.31354 -157.88862       0   0.0 Hōkūleʻa
  2021-11-19T10:11:13UTC 2021-11-19T00:11:13-10:00 2021-11-18T23:11:13-11:00  21.31313 -157.88907       0   0.0 Hikianalia
  2021-11-19T09:18:30UTC 2021-11-18T23:18:30-10:00 2021-11-18T22:18:30-11:00  21.31354 -157.88862       0   0.0 Hōkūleʻa
  2021-11-19T09:10:09UTC 2021-11-18T23:10:09-10:00 2021-11-18T22:10:09-11:00  21.31313 -157.88907       0   0.0 Hikianalia
  2021-11-19T08:18:33UTC 2021-11-18T22:18:33-10:00 2021-11-18T21:18:33-11:00  21.31354 -157.88862       0   0.0 Hōkūleʻa
  2021-11-19T08:17:04UTC 2021-11-18T22:17:04-10:00 2021-11-18T21:17:04-11:00  21.31313 -157.88907       0   0.0 Hikianalia
  2021-11-19T07:18:37UTC 2021-11-18T21:18:37-10:00 2021-11-18T20:18:37-11:00  21.31354 -157.88862       0   0.0 Hōkūleʻa
  2021-11-19T07:10:15UTC 2021-11-18T21:10:15-10:00 2021-11-18T20:10:15-11:00  21.31313 -157.88907       0   0.0 Hikianalia
  2021-11-19T06:18:47UTC 2021-11-18T20:18:47-10:00 2021-11-18T19:18:47-11:00  21.31354 -157.88862       0   0.0 Hōkūleʻa
  2021-11-19T06:10:52UTC 2021-11-18T20:10:52-10:00 2021-11-18T19:10:52-11:00  21.31313 -157.88907      56   0.0 Hikianalia
  2021-11-19T05:18:38UTC 2021-11-18T19:18:38-10:00 2021-11-18T18:18:38-11:00  21.31354 -157.88862       0   0.0 Hōkūleʻa
  2021-11-19T05:10:09UTC 2021-11-18T19:10:09-10:00 2021-11-18T18:10:09-11:00  21.31308 -157.88916     169   0.0 Hikianalia
  2021-11-19T04:18:33UTC 2021-11-18T18:18:33-10:00 2021-11-18T17:18:33-11:00  21.31354 -157.88862       0   0.0 Hōkūleʻa
  2021-11-19T04:10:21UTC 2021-11-18T18:10:21-10:00 2021-11-18T17:10:21-11:00  21.31329 -157.88920      68   0.2 Hikianalia
  2021-11-19T03:18:32UTC 2021-11-18T17:18:32-10:00 2021-11-18T16:18:32-11:00  21.31354 -157.88862       0   0.0 Hōkūleʻa
  2021-11-19T03:10:22UTC 2021-11-18T17:10:22-10:00 2021-11-18T16:10:22-11:00  21.31179 -157.89326     256   0.3 Hikianalia
  2021-11-19T02:18:56UTC 2021-11-18T16:18:56-10:00 2021-11-18T15:18:56-11:00  21.31354 -157.88862       0   0.0 Hōkūleʻa
  2021-11-19T02:09:45UTC 2021-11-18T16:09:45-10:00 2021-11-18T15:09:45-11:00  21.31294 -157.88836       0   0.0 Hikianalia
  2021-11-19T01:18:37UTC 2021-11-18T15:18:37-10:00 2021-11-18T14:18:37-11:00  21.31354 -157.88862       0   0.0 Hōkūleʻa
  2021-11-19T01:10:16UTC 2021-11-18T15:10:16-10:00 2021-11-18T14:10:16-11:00  21.31294 -157.88836       0   0.0 Hikianalia
  2021-11-19T00:17:32UTC 2021-11-18T14:17:32-10:00 2021-11-18T13:17:32-11:00  21.31354 -157.88862       0   0.0 Hōkūleʻa
  2021-11-19T00:10:17UTC 2021-11-18T14:10:17-10:00 2021-11-18T13:10:17-11:00  21.31294 -157.88836       0   0.0 Hikianalia
  2021-11-18T23:27:43UTC 2021-11-18T13:27:43-10:00 2021-11-18T12:27:43-11:00  21.31354 -157.88862       0   0.0 Hōkūleʻa
  2021-11-18T23:09:13UTC 2021-11-18T13:09:13-10:00 2021-11-18T12:09:13-11:00  21.31294 -157.88836       0   0.0 Hikianalia
  2021-11-18T21:18:24UTC 2021-11-18T11:18:24-10:00 2021-11-18T10:18:24-11:00  21.31354 -157.88862       0   0.0 Hōkūleʻa
  2021-11-18T21:10:17UTC 2021-11-18T11:10:17-10:00 2021-11-18T10:10:17-11:00  21.31294 -157.88836       0   0.0 Hikianalia
  2021-11-18T20:26:35UTC 2021-11-18T10:26:35-10:00 2021-11-18T09:26:35-11:00  21.31354 -157.88862       0   0.0 Hōkūleʻa
  2021-11-18T20:10:15UTC 2021-11-18T10:10:15-10:00 2021-11-18T09:10:15-11:00  21.31294 -157.88836       0   0.0 Hikianalia
  2021-11-18T19:18:32UTC 2021-11-18T09:18:32-10:00 2021-11-18T08:18:32-11:00  21.31354 -157.88862       0   0.0 Hōkūleʻa
  2021-11-18T19:09:08UTC 2021-11-18T09:09:08-10:00 2021-11-18T08:09:08-11:00  21.31294 -157.88836       0   0.0 Hikianalia
  2021-11-18T18:17:49UTC 2021-11-18T08:17:49-10:00 2021-11-18T07:17:49-11:00  21.31354 -157.88862       0   0.0 Hōkūleʻa
  2021-11-18T18:10:38UTC 2021-11-18T08:10:38-10:00 2021-11-18T07:10:38-11:00  21.31294 -157.88836       0   0.0 Hikianalia
  2021-11-18T17:18:30UTC 2021-11-18T07:18:30-10:00 2021-11-18T06:18:30-11:00  21.31354 -157.88862       0   0.0 Hōkūleʻa
  2021-11-18T17:10:09UTC 2021-11-18T07:10:09-10:00 2021-11-18T06:10:09-11:00  21.31294 -157.88836       0   0.0 Hikianalia
  2021-11-18T16:17:24UTC 2021-11-18T06:17:24-10:00 2021-11-18T05:17:24-11:00  21.31354 -157.88862       0   0.0 Hōkūleʻa
  2021-11-18T16:10:55UTC 2021-11-18T06:10:55-10:00 2021-11-18T05:10:55-11:00  21.31294 -157.88836       0   0.0 Hikianalia
  2021-11-18T15:18:23UTC 2021-11-18T05:18:23-10:00 2021-11-18T04:18:23-11:00  21.31354 -157.88862       0   0.0 Hōkūleʻa
  2021-11-18T15:10:10UTC 2021-11-18T05:10:10-10:00 2021-11-18T04:10:10-11:00  21.31294 -157.88836       0   0.0 Hikianalia
  2021-11-18T14:18:40UTC 2021-11-18T04:18:40-10:00 2021-11-18T03:18:40-11:00  21.31354 -157.88862       0   0.0 Hōkūleʻa
  2021-11-18T14:10:46UTC 2021-11-18T04:10:46-10:00 2021-11-18T03:10:46-11:00  21.31294 -157.88836       0   0.0 Hikianalia
  2021-11-18T13:28:50UTC 2021-11-18T03:28:50-10:00 2021-11-18T02:28:50-11:00  21.31354 -157.88862       0   0.0 Hōkūleʻa
  2021-11-18T13:10:07UTC 2021-11-18T03:10:07-10:00 2021-11-18T02:10:07-11:00  21.31294 -157.88836       0   0.0 Hikianalia
  2021-11-18T12:18:24UTC 2021-11-18T02:18:24-10:00 2021-11-18T01:18:24-11:00  21.31354 -157.88862       0   0.0 Hōkūleʻa
  2021-11-18T12:16:31UTC 2021-11-18T02:16:31-10:00 2021-11-18T01:16:31-11:00  21.31294 -157.88836       0   0.0 Hikianalia
  2021-11-18T11:18:21UTC 2021-11-18T01:18:21-10:00 2021-11-18T00:18:21-11:00  21.31354 -157.88862       0   0.0 Hōkūleʻa
  2021-11-18T11:10:08UTC 2021-11-18T01:10:08-10:00 2021-11-18T00:10:08-11:00  21.31294 -157.88836       0   0.0 Hikianalia
  2021-11-18T10:18:47UTC 2021-11-18T00:18:47-10:00 2021-11-17T23:18:47-11:00  21.31354 -157.88862       0   0.0 Hōkūleʻa
  2021-11-18T10:10:41UTC 2021-11-18T00:10:41-10:00 2021-11-17T23:10:41-11:00  21.31294 -157.88836       0   0.0 Hikianalia
  2021-11-18T09:26:28UTC 2021-11-17T23:26:28-10:00 2021-11-17T22:26:28-11:00  21.31354 -157.88862       0   0.0 Hōkūleʻa
  2021-11-18T09:10:18UTC 2021-11-17T23:10:18-10:00 2021-11-17T22:10:18-11:00  21.31294 -157.88836       0   0.0 Hikianalia
  2021-11-18T08:18:43UTC 2021-11-17T22:18:43-10:00 2021-11-17T21:18:43-11:00  21.31354 -157.88862       0   0.0 Hōkūleʻa
  2021-11-18T08:10:16UTC 2021-11-17T22:10:16-10:00 2021-11-17T21:10:16-11:00  21.31294 -157.88836       0   0.0 Hikianalia
  2021-11-18T07:18:20UTC 2021-11-17T21:18:20-10:00 2021-11-17T20:18:20-11:00  21.31354 -157.88862       0   0.0 Hōkūleʻa
  2021-11-18T07:10:39UTC 2021-11-17T21:10:39-10:00 2021-11-17T20:10:39-11:00  21.31294 -157.88836       0   0.0 Hikianalia
  2021-11-18T06:18:49UTC 2021-11-17T20:18:49-10:00 2021-11-17T19:18:49-11:00  21.31354 -157.88862       0   0.0 Hōkūleʻa
  2021-11-18T06:10:17UTC 2021-11-17T20:10:17-10:00 2021-11-17T19:10:17-11:00  21.31294 -157.88836       0   0.0 Hikianalia
  2021-11-18T05:18:29UTC 2021-11-17T19:18:29-10:00 2021-11-17T18:18:29-11:00  21.31354 -157.88862       0   0.0 Hōkūleʻa
  2021-11-18T05:10:38UTC 2021-11-17T19:10:38-10:00 2021-11-17T18:10:38-11:00  21.31294 -157.88836       0   0.0 Hikianalia
  2021-11-18T04:18:30UTC 2021-11-17T18:18:30-10:00 2021-11-17T17:18:30-11:00  21.31354 -157.88862       0   0.0 Hōkūleʻa
  2021-11-18T04:10:15UTC 2021-11-17T18:10:15-10:00 2021-11-17T17:10:15-11:00  21.31294 -157.88836       0   0.0 Hikianalia
  2021-11-18T03:18:22UTC 2021-11-17T17:18:22-10:00 2021-11-17T16:18:22-11:00  21.31354 -157.88862       0   0.0 Hōkūleʻa
  2021-11-18T03:10:19UTC 2021-11-17T17:10:19-10:00 2021-11-17T16:10:19-11:00  21.31294 -157.88836       0   0.0 Hikianalia
  2021-11-18T02:17:47UTC 2021-11-17T16:17:47-10:00 2021-11-17T15:17:47-11:00  21.31354 -157.88862       0   0.0 Hōkūleʻa
  2021-11-18T02:09:47UTC 2021-11-17T16:09:47-10:00 2021-11-17T15:09:47-11:00  21.31294 -157.88836       0   0.0 Hikianalia
  2021-11-18T01:17:26UTC 2021-11-17T15:17:26-10:00 2021-11-17T14:17:26-11:00  21.31354 -157.88862       0   0.0 Hōkūleʻa
  2021-11-18T01:10:06UTC 2021-11-17T15:10:06-10:00 2021-11-17T14:10:06-11:00  21.31294 -157.88836       0   0.0 Hikianalia
  2021-11-18T00:18:33UTC 2021-11-17T14:18:33-10:00 2021-11-17T13:18:33-11:00  21.31354 -157.88862       0   0.0 Hōkūleʻa
  2021-11-18T00:09:48UTC 2021-11-17T14:09:48-10:00 2021-11-17T13:09:48-11:00  21.31294 -157.88836       0   0.0 Hikianalia
  2021-11-17T23:17:26UTC 2021-11-17T13:17:26-10:00 2021-11-17T12:17:26-11:00  21.31354 -157.88862       0   0.0 Hōkūleʻa
  2021-11-17T23:10:43UTC 2021-11-17T13:10:43-10:00 2021-11-17T12:10:43-11:00  21.31294 -157.88836       0   0.0 Hikianalia
  2021-11-17T22:17:49UTC 2021-11-17T12:17:49-10:00 2021-11-17T11:17:49-11:00  21.31354 -157.88862       0   0.0 Hōkūleʻa
  2021-11-17T22:09:15UTC 2021-11-17T12:09:15-10:00 2021-11-17T11:09:15-11:00  21.31294 -157.88836       0   0.0 Hikianalia
  2021-11-17T21:17:24UTC 2021-11-17T11:17:24-10:00 2021-11-17T10:17:24-11:00  21.31354 -157.88862       0   0.0 Hōkūleʻa
  2021-11-17T21:09:09UTC 2021-11-17T11:09:09-10:00 2021-11-17T10:09:09-11:00  21.31294 -157.88836       0   0.0 Hikianalia
  2021-11-17T20:18:25UTC 2021-11-17T10:18:25-10:00 2021-11-17T09:18:25-11:00  21.31354 -157.88862       0   0.0 Hōkūleʻa
  2021-11-17T20:09:40UTC 2021-11-17T10:09:40-10:00 2021-11-17T09:09:40-11:00  21.31294 -157.88836       0   0.0 Hikianalia
  2021-11-17T19:18:33UTC 2021-11-17T09:18:33-10:00 2021-11-17T08:18:33-11:00  21.31354 -157.88862       0   0.0 Hōkūleʻa
  2021-11-17T19:10:39UTC 2021-11-17T09:10:39-10:00 2021-11-17T08:10:39-11:00  21.31294 -157.88836       0   0.0 Hikianalia
  2021-11-17T18:18:58UTC 2021-11-17T08:18:58-10:00 2021-11-17T07:18:58-11:00  21.31354 -157.88862       0   0.0 Hōkūleʻa
  2021-11-17T18:09:14UTC 2021-11-17T08:09:14-10:00 2021-11-17T07:09:14-11:00  21.31294 -157.88836       0   0.0 Hikianalia
  2021-11-17T17:18:38UTC 2021-11-17T07:18:38-10:00 2021-11-17T06:18:38-11:00  21.31354 -157.88862       0   0.0 Hōkūleʻa
  2021-11-17T17:10:09UTC 2021-11-17T07:10:09-10:00 2021-11-17T06:10:09-11:00  21.31294 -157.88836       0   0.0 Hikianalia
  2021-11-17T16:18:33UTC 2021-11-17T06:18:33-10:00 2021-11-17T05:18:33-11:00  21.31354 -157.88862       0   0.0 Hōkūleʻa
  2021-11-17T16:10:44UTC 2021-11-17T06:10:44-10:00 2021-11-17T05:10:44-11:00  21.31294 -157.88836       0   0.0 Hikianalia
  2021-11-17T15:18:31UTC 2021-11-17T05:18:31-10:00 2021-11-17T04:18:31-11:00  21.31354 -157.88862       0   0.0 Hōkūleʻa
  2021-11-17T15:10:16UTC 2021-11-17T05:10:16-10:00 2021-11-17T04:10:16-11:00  21.31294 -157.88836       0   0.0 Hikianalia
  2021-11-17T14:18:45UTC 2021-11-17T04:18:45-10:00 2021-11-17T03:18:45-11:00  21.31354 -157.88862       0   0.0 Hōkūleʻa
  2021-11-17T14:10:09UTC 2021-11-17T04:10:09-10:00 2021-11-17T03:10:09-11:00  21.31294 -157.88836       0   0.0 Hikianalia
  2021-11-17T13:17:30UTC 2021-11-17T03:17:30-10:00 2021-11-17T02:17:30-11:00  21.31354 -157.88862       0   0.0 Hōkūleʻa
  2021-11-17T13:10:06UTC 2021-11-17T03:10:06-10:00 2021-11-17T02:10:06-11:00  21.31294 -157.88836       0   0.0 Hikianalia
  2021-11-17T12:18:24UTC 2021-11-17T02:18:24-10:00 2021-11-17T01:18:24-11:00  21.31354 -157.88862       0   0.0 Hōkūleʻa
  2021-11-17T12:10:46UTC 2021-11-17T02:10:46-10:00 2021-11-17T01:10:46-11:00  21.31294 -157.88836       0   0.0 Hikianalia
  2021-11-17T11:18:30UTC 2021-11-17T01:18:30-10:00 2021-11-17T00:18:30-11:00  21.31354 -157.88862       0   0.0 Hōkūleʻa
  2021-11-17T11:10:14UTC 2021-11-17T01:10:14-10:00 2021-11-17T00:10:14-11:00  21.31294 -157.88836       0   0.0 Hikianalia
  2021-11-17T10:18:48UTC 2021-11-17T00:18:48-10:00 2021-11-16T23:18:48-11:00  21.31354 -157.88862       0   0.0 Hōkūleʻa
  2021-11-17T10:10:16UTC 2021-11-17T00:10:16-10:00 2021-11-16T23:10:16-11:00  21.31294 -157.88836       0   0.0 Hikianalia
  2021-11-17T09:18:33UTC 2021-11-16T23:18:33-10:00 2021-11-16T22:18:33-11:00  21.31354 -157.88862       0   0.0 Hōkūleʻa
  2021-11-17T09:10:09UTC 2021-11-16T23:10:09-10:00 2021-11-16T22:10:09-11:00  21.31294 -157.88836       0   0.0 Hikianalia
  2021-11-17T08:18:29UTC 2021-11-16T22:18:29-10:00 2021-11-16T21:18:29-11:00  21.31354 -157.88862       0   0.0 Hōkūleʻa
  2021-11-17T08:10:48UTC 2021-11-16T22:10:48-10:00 2021-11-16T21:10:48-11:00  21.31294 -157.88836       0   0.0 Hikianalia
  2021-11-17T07:26:22UTC 2021-11-16T21:26:22-10:00 2021-11-16T20:26:22-11:00  21.31354 -157.88862       0   0.0 Hōkūleʻa
  2021-11-17T07:10:14UTC 2021-11-16T21:10:14-10:00 2021-11-16T20:10:14-11:00  21.31294 -157.88836       0   0.0 Hikianalia
  2021-11-17T06:18:46UTC 2021-11-16T20:18:46-10:00 2021-11-16T19:18:46-11:00  21.31354 -157.88862       0   0.0 Hōkūleʻa
  2021-11-17T06:10:46UTC 2021-11-16T20:10:46-10:00 2021-11-16T19:10:46-11:00  21.31294 -157.88836       0   0.0 Hikianalia
  2021-11-17T05:25:32UTC 2021-11-16T19:25:32-10:00 2021-11-16T18:25:32-11:00  21.31354 -157.88862       0   0.0 Hōkūleʻa
  2021-11-17T05:10:16UTC 2021-11-16T19:10:16-10:00 2021-11-16T18:10:16-11:00  21.31294 -157.88836       0   0.0 Hikianalia
  2021-11-17T04:18:34UTC 2021-11-16T18:18:34-10:00 2021-11-16T17:18:34-11:00  21.31354 -157.88862       0   0.0 Hōkūleʻa
  2021-11-17T04:09:17UTC 2021-11-16T18:09:17-10:00 2021-11-16T17:09:17-11:00  21.31294 -157.88836       0   0.0 Hikianalia
  2021-11-17T03:18:24UTC 2021-11-16T17:18:24-10:00 2021-11-16T16:18:24-11:00  21.31354 -157.88862       0   0.0 Hōkūleʻa
  2021-11-17T03:10:37UTC 2021-11-16T17:10:37-10:00 2021-11-16T16:10:37-11:00  21.31294 -157.88836       0   0.0 Hikianalia
  2021-11-17T02:18:47UTC 2021-11-16T16:18:47-10:00 2021-11-16T15:18:47-11:00  21.31354 -157.88862       0   0.0 Hōkūleʻa
  2021-11-17T02:10:18UTC 2021-11-16T16:10:18-10:00 2021-11-16T15:10:18-11:00  21.31294 -157.88836       0   0.0 Hikianalia
  2021-11-17T01:17:32UTC 2021-11-16T15:17:32-10:00 2021-11-16T14:17:32-11:00  21.31354 -157.88862       0   0.0 Hōkūleʻa
  2021-11-17T01:10:12UTC 2021-11-16T15:10:12-10:00 2021-11-16T14:10:12-11:00  21.31294 -157.88836     298   0.0 Hikianalia
  2021-11-17T00:18:31UTC 2021-11-16T14:18:31-10:00 2021-11-16T13:18:31-11:00  21.31354 -157.88862       0   0.0 Hōkūleʻa
  2021-11-17T00:10:44UTC 2021-11-16T14:10:44-10:00 2021-11-16T13:10:44-11:00  21.31292 -157.88832     141   0.0 Hikianalia
  2021-11-16T23:20:06UTC 2021-11-16T13:20:06-10:00 2021-11-16T12:20:06-11:00  21.31307 -157.88845     341   0.0 Hikianalia
  2021-11-16T23:17:21UTC 2021-11-16T13:17:21-10:00 2021-11-16T12:17:21-11:00  21.31354 -157.88862       0   0.0 Hōkūleʻa
  2021-11-16T22:18:14UTC 2021-11-16T12:18:14-10:00 2021-11-16T11:18:14-11:00  21.31354 -157.88862       0   0.0 Hōkūleʻa
  2021-11-16T22:09:14UTC 2021-11-16T12:09:14-10:00 2021-11-16T11:09:14-11:00  21.31295 -157.88841     328   0.0 Hikianalia
  2021-11-16T21:19:50UTC 2021-11-16T11:19:50-10:00 2021-11-16T10:19:50-11:00  21.31292 -157.88838     263   0.0 Hikianalia
  2021-11-16T21:18:30UTC 2021-11-16T11:18:30-10:00 2021-11-16T10:18:30-11:00  21.31354 -157.88862       0   0.0 Hōkūleʻa
  2021-11-16T20:17:31UTC 2021-11-16T10:17:31-10:00 2021-11-16T09:17:31-11:00  21.31354 -157.88862       0   0.0 Hōkūleʻa
  2021-11-16T20:09:25UTC 2021-11-16T10:09:25-10:00 2021-11-16T09:09:25-11:00  21.31294 -157.88821      90   0.0 Hikianalia
  2021-11-16T19:18:53UTC 2021-11-16T09:18:53-10:00 2021-11-16T08:18:53-11:00  21.31294 -157.88841       0   0.0 Hikianalia
  2021-11-16T19:18:25UTC 2021-11-16T09:18:25-10:00 2021-11-16T08:18:25-11:00  21.31354 -157.88862       0   0.0 Hōkūleʻa
  2021-11-16T18:18:47UTC 2021-11-16T08:18:47-10:00 2021-11-16T07:18:47-11:00  21.31354 -157.88862       0   0.0 Hōkūleʻa
  2021-11-16T18:10:17UTC 2021-11-16T08:10:17-10:00 2021-11-16T07:10:17-11:00  21.31294 -157.88841     292   0.0 Hikianalia
  2021-11-16T17:18:36UTC 2021-11-16T07:18:36-10:00 2021-11-16T06:18:36-11:00  21.31354 -157.88862       0   0.0 Hōkūleʻa
  2021-11-16T17:10:15UTC 2021-11-16T07:10:15-10:00 2021-11-16T06:10:15-11:00  21.31291 -157.88832      52   0.0 Hikianalia
  2021-11-16T16:17:49UTC 2021-11-16T06:17:49-10:00 2021-11-16T05:17:49-11:00  21.31288 -157.88836     148   0.0 Hikianalia
  2021-11-16T16:17:26UTC 2021-11-16T06:17:26-10:00 2021-11-16T05:17:26-11:00  21.31354 -157.88862       0   0.0 Hōkūleʻa
  2021-11-16T15:19:24UTC 2021-11-16T05:19:24-10:00 2021-11-16T04:19:24-11:00  21.31354 -157.88862       0   0.0 Hōkūleʻa
  2021-11-16T15:10:11UTC 2021-11-16T05:10:11-10:00 2021-11-16T04:10:11-11:00  21.31294 -157.88841     298   0.0 Hikianalia
  2021-11-16T14:18:49UTC 2021-11-16T04:18:49-10:00 2021-11-16T03:18:49-11:00  21.31354 -157.88862       0   0.0 Hōkūleʻa
  2021-11-16T14:10:45UTC 2021-11-16T04:10:45-10:00 2021-11-16T03:10:45-11:00  21.31291 -157.88834     270   0.0 Hikianalia
  2021-11-16T13:18:38UTC 2021-11-16T03:18:38-10:00 2021-11-16T02:18:38-11:00  21.31354 -157.88862       0   0.0 Hōkūleʻa
  2021-11-16T13:11:39UTC 2021-11-16T03:11:39-10:00 2021-11-16T02:11:39-11:00  21.31291 -157.88825     108   0.0 Hikianalia
  2021-11-16T12:18:22UTC 2021-11-16T02:18:22-10:00 2021-11-16T01:18:22-11:00  21.31354 -157.88862       0   0.0 Hōkūleʻa
  2021-11-16T12:09:29UTC 2021-11-16T02:09:29-10:00 2021-11-16T01:09:29-11:00  21.31294 -157.88836       0   0.0 Hikianalia
  2021-11-16T11:17:30UTC 2021-11-16T01:17:30-10:00 2021-11-16T00:17:30-11:00  21.31354 -157.88862       0   0.0 Hōkūleʻa
  2021-11-16T11:11:35UTC 2021-11-16T01:11:35-10:00 2021-11-16T00:11:35-11:00  21.31290 -157.88836     212   0.0 Hikianalia
  2021-11-16T10:18:37UTC 2021-11-16T00:18:37-10:00 2021-11-15T23:18:37-11:00  21.31354 -157.88862       0   0.0 Hōkūleʻa
  2021-11-16T10:10:16UTC 2021-11-16T00:10:16-10:00 2021-11-15T23:10:16-11:00  21.31299 -157.88830      25   0.0 Hikianalia
  2021-11-16T09:18:24UTC 2021-11-15T23:18:24-10:00 2021-11-15T22:18:24-11:00  21.31354 -157.88862       0   0.0 Hōkūleʻa
  2021-11-16T09:10:43UTC 2021-11-15T23:10:43-10:00 2021-11-15T22:10:43-11:00  21.31291 -157.88834       0   0.0 Hikianalia
  2021-11-16T08:18:23UTC 2021-11-15T22:18:23-10:00 2021-11-15T21:18:23-11:00  21.31354 -157.88862       0   0.0 Hōkūleʻa
  2021-11-16T08:10:44UTC 2021-11-15T22:10:44-10:00 2021-11-15T21:10:44-11:00  21.31290 -157.88834     153   0.0 Hikianalia
  2021-11-16T07:21:18UTC 2021-11-15T21:21:18-10:00 2021-11-15T20:21:18-11:00  21.31302 -157.88841     331   0.0 Hikianalia
  2021-11-16T07:18:32UTC 2021-11-15T21:18:32-10:00 2021-11-15T20:18:32-11:00  21.31354 -157.88862       0   0.0 Hōkūleʻa
  2021-11-16T06:17:49UTC 2021-11-15T20:17:49-10:00 2021-11-15T19:17:49-11:00  21.31354 -157.88862       0   0.0 Hōkūleʻa
  2021-11-16T06:10:44UTC 2021-11-15T20:10:44-10:00 2021-11-15T19:10:44-11:00  21.31291 -157.88834     119   0.0 Hikianalia
  2021-11-16T05:18:30UTC 2021-11-15T19:18:30-10:00 2021-11-15T18:18:30-11:00  21.31354 -157.88862       0   0.0 Hōkūleʻa
  2021-11-16T05:10:42UTC 2021-11-15T19:10:42-10:00 2021-11-15T18:10:42-11:00  21.31292 -157.88836     290   0.0 Hikianalia
  2021-11-16T04:18:33UTC 2021-11-15T18:18:33-10:00 2021-11-15T17:18:33-11:00  21.31354 -157.88862       0   0.0 Hōkūleʻa
  2021-11-16T04:10:15UTC 2021-11-15T18:10:15-10:00 2021-11-15T17:10:15-11:00  21.31290 -157.88830     340   0.0 Hikianalia
  2021-11-16T03:18:32UTC 2021-11-15T17:18:32-10:00 2021-11-15T16:18:32-11:00  21.31354 -157.88862       0   0.0 Hōkūleʻa
  2021-11-16T03:10:18UTC 2021-11-15T17:10:18-10:00 2021-11-15T16:10:18-11:00  21.31284 -157.88828     145   0.0 Hikianalia
  2021-11-16T02:18:45UTC 2021-11-15T16:18:45-10:00 2021-11-15T15:18:45-11:00  21.31354 -157.88862       0   0.0 Hōkūleʻa
  2021-11-16T02:10:49UTC 2021-11-15T16:10:49-10:00 2021-11-15T15:10:49-11:00  21.31293 -157.88834     241   0.0 Hikianalia
  2021-11-16T01:20:46UTC 2021-11-15T15:20:46-10:00 2021-11-15T14:20:46-11:00  21.31295 -157.88830      75   0.0 Hikianalia
  2021-11-16T01:17:24UTC 2021-11-15T15:17:24-10:00 2021-11-15T14:17:24-11:00  21.31354 -157.88862       0   0.0 Hōkūleʻa
  2021-11-16T00:18:23UTC 2021-11-15T14:18:23-10:00 2021-11-15T13:18:23-11:00  21.31354 -157.88862       0   0.0 Hōkūleʻa
  2021-11-16T00:10:08UTC 2021-11-15T14:10:08-10:00 2021-11-15T13:10:08-11:00  21.31294 -157.88834     334   0.0 Hikianalia
  2021-11-15T23:18:30UTC 2021-11-15T13:18:30-10:00 2021-11-15T12:18:30-11:00  21.31354 -157.88862       0   0.0 Hōkūleʻa
  2021-11-15T23:10:16UTC 2021-11-15T13:10:16-10:00 2021-11-15T12:10:16-11:00  21.31290 -157.88832     147   0.0 Hikianalia
  2021-11-15T22:17:48UTC 2021-11-15T12:17:48-10:00 2021-11-15T11:17:48-11:00  21.31354 -157.88862       0   0.0 Hōkūleʻa
  2021-11-15T22:09:47UTC 2021-11-15T12:09:47-10:00 2021-11-15T11:09:47-11:00  21.31293 -157.88834     296   0.0 Hikianalia
  2021-11-15T21:18:24UTC 2021-11-15T11:18:24-10:00 2021-11-15T10:18:24-11:00  21.31354 -157.88862       0   0.0 Hōkūleʻa
  2021-11-15T21:10:09UTC 2021-11-15T11:10:09-10:00 2021-11-15T10:10:09-11:00  21.31292 -157.88832      90   0.0 Hikianalia
  2021-11-15T20:17:31UTC 2021-11-15T10:17:31-10:00 2021-11-15T09:17:31-11:00  21.31354 -157.88862       0   0.0 Hōkūleʻa
  2021-11-15T20:10:17UTC 2021-11-15T10:10:17-10:00 2021-11-15T09:10:17-11:00  21.31292 -157.88834      90   0.0 Hikianalia
  2021-11-15T19:18:24UTC 2021-11-15T09:18:24-10:00 2021-11-15T08:18:24-11:00  21.31354 -157.88862       0   0.0 Hōkūleʻa
  2021-11-15T19:10:45UTC 2021-11-15T09:10:45-10:00 2021-11-15T08:10:45-11:00  21.31292 -157.88838      31   0.0 Hikianalia
  2021-11-15T18:18:48UTC 2021-11-15T08:18:48-10:00 2021-11-15T07:18:48-11:00  21.31354 -157.88862       0   0.0 Hōkūleʻa
  2021-11-15T18:09:18UTC 2021-11-15T08:09:18-10:00 2021-11-15T07:09:18-11:00  21.31289 -157.88841     298   0.0 Hikianalia
  2021-11-15T17:18:29UTC 2021-11-15T07:18:29-10:00 2021-11-15T06:18:29-11:00  21.31354 -157.88862       0   0.0 Hōkūleʻa
  2021-11-15T17:10:08UTC 2021-11-15T07:10:08-10:00 2021-11-15T06:10:08-11:00  21.31286 -157.88836     180   0.0 Hikianalia
  2021-11-15T16:18:35UTC 2021-11-15T06:18:35-10:00 2021-11-15T05:18:35-11:00  21.31354 -157.88862       0   0.0 Hōkūleʻa
  2021-11-15T16:10:47UTC 2021-11-15T06:10:47-10:00 2021-11-15T05:10:47-11:00  21.31291 -157.88836     180   0.0 Hikianalia
  2021-11-15T15:31:37UTC 2021-11-15T05:31:37-10:00 2021-11-15T04:31:37-11:00  21.31294 -157.88836      33   0.0 Hikianalia
  2021-11-15T15:24:35UTC 2021-11-15T05:24:35-10:00 2021-11-15T04:24:35-11:00  21.31354 -157.88862       0   0.0 Hōkūleʻa
  2021-11-15T14:18:47UTC 2021-11-15T04:18:47-10:00 2021-11-15T03:18:47-11:00  21.31354 -157.88862       0   0.0 Hōkūleʻa
  2021-11-15T14:10:17UTC 2021-11-15T04:10:17-10:00 2021-11-15T03:10:17-11:00  21.31291 -157.88838     335   0.0 Hikianalia
  2021-11-15T13:18:39UTC 2021-11-15T03:18:39-10:00 2021-11-15T02:18:39-11:00  21.31354 -157.88862       0   0.0 Hōkūleʻa
  2021-11-15T13:10:46UTC 2021-11-15T03:10:46-10:00 2021-11-15T02:10:46-11:00  21.31282 -157.88834     199   0.0 Hikianalia
  2021-11-15T12:18:32UTC 2021-11-15T02:18:32-10:00 2021-11-15T01:18:32-11:00  21.31354 -157.88862       0   0.0 Hōkūleʻa
  2021-11-15T12:10:45UTC 2021-11-15T02:10:45-10:00 2021-11-15T01:10:45-11:00  21.31294 -157.88830     153   0.0 Hikianalia
  2021-11-15T11:18:22UTC 2021-11-15T01:18:22-10:00 2021-11-15T00:18:22-11:00  21.31354 -157.88862       0   0.0 Hōkūleʻa
  2021-11-15T11:10:09UTC 2021-11-15T01:10:09-10:00 2021-11-15T00:10:09-11:00  21.31306 -157.88836     353   0.0 Hikianalia
  2021-11-15T10:18:40UTC 2021-11-15T00:18:40-10:00 2021-11-14T23:18:40-11:00  21.31354 -157.88862       0   0.0 Hōkūleʻa
  2021-11-15T10:10:15UTC 2021-11-15T00:10:15-10:00 2021-11-14T23:10:15-11:00  21.31291 -157.88834     180   0.0 Hikianalia
  2021-11-15T09:18:29UTC 2021-11-14T23:18:29-10:00 2021-11-14T22:18:29-11:00  21.31354 -157.88862       0   0.0 Hōkūleʻa
  2021-11-15T09:10:46UTC 2021-11-14T23:10:46-10:00 2021-11-14T22:10:46-11:00  21.31292 -157.88834      17   0.0 Hikianalia
  2021-11-15T08:17:30UTC 2021-11-14T22:17:30-10:00 2021-11-14T21:17:30-11:00  21.31354 -157.88862       0   0.0 Hōkūleʻa
  2021-11-15T08:09:07UTC 2021-11-14T22:09:07-10:00 2021-11-14T21:09:07-11:00  21.31285 -157.88836     180   0.0 Hikianalia
  2021-11-15T07:18:24UTC 2021-11-14T21:18:24-10:00 2021-11-14T20:18:24-11:00  21.31354 -157.88862       0   0.0 Hōkūleʻa
  2021-11-15T07:10:06UTC 2021-11-14T21:10:06-10:00 2021-11-14T20:10:06-11:00  21.31299 -157.88836      43   0.0 Hikianalia
  2021-11-15T06:18:50UTC 2021-11-14T20:18:50-10:00 2021-11-14T19:18:50-11:00  21.31354 -157.88862       0   0.0 Hōkūleʻa
  2021-11-15T06:10:47UTC 2021-11-14T20:10:47-10:00 2021-11-14T19:10:47-11:00  21.31293 -157.88843     230   0.0 Hikianalia
  2021-11-15T05:18:30UTC 2021-11-14T19:18:30-10:00 2021-11-14T18:18:30-11:00  21.31354 -157.88862       0   0.0 Hōkūleʻa
  2021-11-15T05:10:26UTC 2021-11-14T19:10:26-10:00 2021-11-14T18:10:26-11:00  21.31305 -157.88828      27   0.0 Hikianalia
  2021-11-15T04:18:32UTC 2021-11-14T18:18:32-10:00 2021-11-14T17:18:32-11:00  21.31354 -157.88862       0   0.0 Hōkūleʻa
  2021-11-15T04:10:15UTC 2021-11-14T18:10:15-10:00 2021-11-14T17:10:15-11:00  21.31293 -157.88834     126   0.0 Hikianalia
  2021-11-15T03:17:33UTC 2021-11-14T17:17:33-10:00 2021-11-14T16:17:33-11:00  21.31354 -157.88862       0   0.0 Hōkūleʻa
  2021-11-15T03:11:09UTC 2021-11-14T17:11:09-10:00 2021-11-14T16:11:09-11:00  21.31297 -157.88841       0   0.0 Hikianalia
  2021-11-15T02:18:38UTC 2021-11-14T16:18:38-10:00 2021-11-14T15:18:38-11:00  21.31354 -157.88862       0   0.0 Hōkūleʻa
  2021-11-15T02:09:57UTC 2021-11-14T16:09:57-10:00 2021-11-14T15:09:57-11:00  21.31296 -157.88841     317   0.0 Hikianalia
  2021-11-15T01:18:24UTC 2021-11-14T15:18:24-10:00 2021-11-14T14:18:24-11:00  21.31354 -157.88862       0   0.0 Hōkūleʻa
  2021-11-15T01:17:03UTC 2021-11-14T15:17:03-10:00 2021-11-14T14:17:03-11:00  21.31292 -157.88836     299   0.0 Hikianalia
  2021-11-15T00:18:38UTC 2021-11-14T14:18:38-10:00 2021-11-14T13:18:38-11:00  21.31354 -157.88862       0   0.0 Hōkūleʻa
  2021-11-15T00:10:17UTC 2021-11-14T14:10:17-10:00 2021-11-14T13:10:17-11:00  21.31291 -157.88834     119   0.0 Hikianalia
  2021-11-14T23:17:28UTC 2021-11-14T13:17:28-10:00 2021-11-14T12:17:28-11:00  21.31354 -157.88862       0   0.0 Hōkūleʻa
  2021-11-14T23:09:08UTC 2021-11-14T13:09:08-10:00 2021-11-14T12:09:08-11:00  21.31292 -157.88836     223   0.0 Hikianalia
  2021-11-14T22:18:42UTC 2021-11-14T12:18:42-10:00 2021-11-14T11:18:42-11:00  21.31354 -157.88862       0   0.0 Hōkūleʻa
  2021-11-14T22:10:46UTC 2021-11-14T12:10:46-10:00 2021-11-14T11:10:46-11:00  21.31294 -157.88834       0   0.0 Hikianalia
  2021-11-14T21:18:33UTC 2021-11-14T11:18:33-10:00 2021-11-14T10:18:33-11:00  21.31354 -157.88862       0   0.0 Hōkūleʻa
  2021-11-14T21:10:31UTC 2021-11-14T11:10:31-10:00 2021-11-14T10:10:31-11:00  21.31291 -157.88834     119   0.0 Hikianalia
  2021-11-14T20:17:29UTC 2021-11-14T10:17:29-10:00 2021-11-14T09:17:29-11:00  21.31354 -157.88862       0   0.0 Hōkūleʻa
  2021-11-14T20:09:15UTC 2021-11-14T10:09:15-10:00 2021-11-14T09:09:15-11:00  21.31292 -157.88836     104   0.0 Hikianalia
  2021-11-14T19:18:33UTC 2021-11-14T09:18:33-10:00 2021-11-14T08:18:33-11:00  21.31354 -157.88862       0   0.0 Hōkūleʻa
  2021-11-14T19:10:39UTC 2021-11-14T09:10:39-10:00 2021-11-14T08:10:39-11:00  21.31293 -157.88841      62   0.0 Hikianalia
  2021-11-14T18:18:49UTC 2021-11-14T08:18:49-10:00 2021-11-14T07:18:49-11:00  21.31354 -157.88862       0   0.0 Hōkūleʻa
  2021-11-14T18:10:13UTC 2021-11-14T08:10:13-10:00 2021-11-14T07:10:13-11:00  21.31289 -157.88849     277   0.0 Hikianalia
  2021-11-14T17:18:22UTC 2021-11-14T07:18:22-10:00 2021-11-14T06:18:22-11:00  21.31354 -157.88862       0   0.0 Hōkūleʻa
  2021-11-14T17:09:17UTC 2021-11-14T07:09:17-10:00 2021-11-14T06:09:17-11:00  21.31288 -157.88841     242   0.0 Hikianalia
  2021-11-14T16:18:33UTC 2021-11-14T06:18:33-10:00 2021-11-14T05:18:33-11:00  21.31354 -157.88862       0   0.0 Hōkūleʻa
  2021-11-14T16:10:37UTC 2021-11-14T06:10:37-10:00 2021-11-14T05:10:37-11:00  21.31291 -157.88834     148   0.0 Hikianalia
  2021-11-14T15:18:42UTC 2021-11-14T05:18:42-10:00 2021-11-14T04:18:42-11:00  21.31354 -157.88862       0   0.0 Hōkūleʻa
  2021-11-14T15:11:43UTC 2021-11-14T05:11:43-10:00 2021-11-14T04:11:43-11:00  21.31294 -157.88836     309   0.0 Hikianalia
  2021-11-14T14:18:45UTC 2021-11-14T04:18:45-10:00 2021-11-14T03:18:45-11:00  21.31354 -157.88862       0   0.0 Hōkūleʻa
  2021-11-14T14:10:52UTC 2021-11-14T04:10:52-10:00 2021-11-14T03:10:52-11:00  21.31288 -157.88828     129   0.0 Hikianalia
  2021-11-14T13:18:28UTC 2021-11-14T03:18:28-10:00 2021-11-14T02:18:28-11:00  21.31354 -157.88862       0   0.0 Hōkūleʻa
  2021-11-14T13:09:10UTC 2021-11-14T03:09:10-10:00 2021-11-14T02:09:10-11:00  21.31294 -157.88836      44   0.0 Hikianalia
  2021-11-14T12:18:29UTC 2021-11-14T02:18:29-10:00 2021-11-14T01:18:29-11:00  21.31354 -157.88862       0   0.0 Hōkūleʻa
  2021-11-14T12:10:38UTC 2021-11-14T02:10:38-10:00 2021-11-14T01:10:38-11:00  21.31292 -157.88838     224   0.0 Hikianalia
  2021-11-14T11:18:28UTC 2021-11-14T01:18:28-10:00 2021-11-14T00:18:28-11:00  21.31354 -157.88862       0   0.0 Hōkūleʻa
  2021-11-14T11:10:15UTC 2021-11-14T01:10:15-10:00 2021-11-14T00:10:15-11:00  21.31294 -157.88836      26   0.0 Hikianalia
  2021-11-14T10:18:46UTC 2021-11-14T00:18:46-10:00 2021-11-13T23:18:46-11:00  21.31354 -157.88862       0   0.0 Hōkūleʻa
  2021-11-14T10:10:47UTC 2021-11-14T00:10:47-10:00 2021-11-13T23:10:47-11:00  21.31290 -157.88838     191   0.0 Hikianalia
  2021-11-14T09:18:30UTC 2021-11-13T23:18:30-10:00 2021-11-13T22:18:30-11:00  21.31354 -157.88862       0   0.0 Hōkūleʻa
  2021-11-14T09:10:38UTC 2021-11-13T23:10:38-10:00 2021-11-13T22:10:38-11:00  21.31300 -157.88836     298   0.0 Hikianalia
  2021-11-14T08:18:27UTC 2021-11-13T22:18:27-10:00 2021-11-13T21:18:27-11:00  21.31354 -157.88862       0   0.0 Hōkūleʻa
  2021-11-14T08:10:19UTC 2021-11-13T22:10:19-10:00 2021-11-13T21:10:19-11:00  21.31297 -157.88830      63   0.0 Hikianalia
  2021-11-14T07:18:24UTC 2021-11-13T21:18:24-10:00 2021-11-13T20:18:24-11:00  21.31354 -157.88862       0   0.0 Hōkūleʻa
  2021-11-14T07:10:11UTC 2021-11-13T21:10:11-10:00 2021-11-13T20:10:11-11:00  21.31296 -157.88832      55   0.0 Hikianalia
  2021-11-14T06:18:48UTC 2021-11-13T20:18:48-10:00 2021-11-13T19:18:48-11:00  21.31354 -157.88862       0   0.0 Hōkūleʻa
  2021-11-14T06:10:45UTC 2021-11-13T20:10:45-10:00 2021-11-13T19:10:45-11:00  21.31292 -157.88838     216   0.0 Hikianalia
  2021-11-14T05:20:47UTC 2021-11-13T19:20:47-10:00 2021-11-13T18:20:47-11:00  21.31300 -157.88832      32   0.0 Hikianalia
  2021-11-14T05:18:38UTC 2021-11-13T19:18:38-10:00 2021-11-13T18:18:38-11:00  21.31354 -157.88862       0   0.0 Hōkūleʻa
  2021-11-14T04:17:32UTC 2021-11-13T18:17:32-10:00 2021-11-13T17:17:32-11:00  21.31354 -157.88862       0   0.0 Hōkūleʻa
  2021-11-14T04:10:16UTC 2021-11-13T18:10:16-10:00 2021-11-13T17:10:16-11:00  21.31294 -157.88836       0   0.0 Hikianalia
  2021-11-14T03:18:24UTC 2021-11-13T17:18:24-10:00 2021-11-13T16:18:24-11:00  21.31354 -157.88862       0   0.0 Hōkūleʻa
  2021-11-14T03:10:09UTC 2021-11-13T17:10:09-10:00 2021-11-13T16:10:09-11:00  21.31294 -157.88836     335   0.0 Hikianalia
  2021-11-14T02:17:46UTC 2021-11-13T16:17:46-10:00 2021-11-13T15:17:46-11:00  21.31354 -157.88862       0   0.0 Hōkūleʻa
  2021-11-14T02:09:51UTC 2021-11-13T16:09:51-10:00 2021-11-13T15:09:51-11:00  21.31290 -157.88834       0   0.0 Hikianalia
  2021-11-14T01:18:25UTC 2021-11-13T15:18:25-10:00 2021-11-13T14:18:25-11:00  21.31354 -157.88862       0   0.0 Hōkūleʻa
  2021-11-14T01:10:06UTC 2021-11-13T15:10:06-10:00 2021-11-13T14:10:06-11:00  21.31288 -157.88834     180   0.0 Hikianalia
  2021-11-14T00:17:56UTC 2021-11-13T14:17:56-10:00 2021-11-13T13:17:56-11:00  21.31354 -157.88862       0   0.0 Hōkūleʻa
  2021-11-14T00:09:46UTC 2021-11-13T14:09:46-10:00 2021-11-13T13:09:46-11:00  21.31291 -157.88834     160   0.0 Hikianalia
  2021-11-13T23:18:28UTC 2021-11-13T13:18:28-10:00 2021-11-13T12:18:28-11:00  21.31354 -157.88862       0   0.0 Hōkūleʻa
  2021-11-13T23:10:16UTC 2021-11-13T13:10:16-10:00 2021-11-13T12:10:16-11:00  21.31296 -157.88836     329   0.0 Hikianalia
  2021-11-13T22:18:49UTC 2021-11-13T12:18:49-10:00 2021-11-13T11:18:49-11:00  21.31354 -157.88862       0   0.0 Hōkūleʻa
  2021-11-13T22:17:52UTC 2021-11-13T12:17:52-10:00 2021-11-13T11:17:52-11:00  21.31293 -157.88834     119   0.0 Hikianalia
  2021-11-13T21:17:31UTC 2021-11-13T11:17:31-10:00 2021-11-13T10:17:31-11:00  21.31354 -157.88862       0   0.0 Hōkūleʻa
  2021-11-13T21:10:11UTC 2021-11-13T11:10:11-10:00 2021-11-13T10:10:11-11:00  21.31294 -157.88836     317   0.0 Hikianalia
  2021-11-13T20:24:39UTC 2021-11-13T10:24:39-10:00 2021-11-13T09:24:39-11:00  21.31354 -157.88862       0   0.0 Hōkūleʻa
  2021-11-13T20:10:14UTC 2021-11-13T10:10:14-10:00 2021-11-13T09:10:14-11:00  21.31292 -157.88834     180   0.0 Hikianalia
  2021-11-13T19:18:52UTC 2021-11-13T09:18:52-10:00 2021-11-13T08:18:52-11:00  21.31293 -157.88834      62   0.0 Hikianalia
  2021-11-13T19:18:24UTC 2021-11-13T09:18:24-10:00 2021-11-13T08:18:24-11:00  21.31354 -157.88862       0   0.0 Hōkūleʻa
  2021-11-13T18:18:48UTC 2021-11-13T08:18:48-10:00 2021-11-13T07:18:48-11:00  21.31354 -157.88862       0   0.0 Hōkūleʻa
  2021-11-13T18:10:24UTC 2021-11-13T08:10:24-10:00 2021-11-13T07:10:24-11:00  21.31288 -157.88845     256   0.0 Hikianalia
  2021-11-13T17:18:30UTC 2021-11-13T07:18:30-10:00 2021-11-13T06:18:30-11:00  21.31354 -157.88862       0   0.0 Hōkūleʻa
  2021-11-13T17:10:13UTC 2021-11-13T07:10:13-10:00 2021-11-13T06:10:13-11:00  21.31289 -157.88841     255   0.0 Hikianalia
  2021-11-13T16:18:32UTC 2021-11-13T06:18:32-10:00 2021-11-13T05:18:32-11:00  21.31354 -157.88862       0   0.0 Hōkūleʻa
  2021-11-13T16:10:47UTC 2021-11-13T06:10:47-10:00 2021-11-13T05:10:47-11:00  21.31290 -157.88836     241   0.0 Hikianalia
  2021-11-13T15:18:32UTC 2021-11-13T05:18:32-10:00 2021-11-13T04:18:32-11:00  21.31354 -157.88862       0   0.0 Hōkūleʻa
  2021-11-13T15:10:38UTC 2021-11-13T05:10:38-10:00 2021-11-13T04:10:38-11:00  21.31291 -157.88834      35   0.0 Hikianalia
  2021-11-13T14:18:49UTC 2021-11-13T04:18:49-10:00 2021-11-13T03:18:49-11:00  21.31354 -157.88862       0   0.0 Hōkūleʻa
  2021-11-13T13:18:33UTC 2021-11-13T03:18:33-10:00 2021-11-13T02:18:33-11:00  21.31354 -157.88862       0   0.0 Hōkūleʻa
  2021-11-13T13:11:15UTC 2021-11-13T03:11:15-10:00 2021-11-13T02:11:15-11:00  21.31282 -157.88841     219   0.0 Hikianalia
  2021-11-13T12:18:32UTC 2021-11-13T02:18:32-10:00 2021-11-13T01:18:32-11:00  21.31354 -157.88862       0   0.0 Hōkūleʻa
  2021-11-13T12:10:45UTC 2021-11-13T02:10:45-10:00 2021-11-13T01:10:45-11:00  21.31290 -157.88834     163   0.0 Hikianalia
  2021-11-13T11:18:30UTC 2021-11-13T01:18:30-10:00 2021-11-13T00:18:30-11:00  21.31354 -157.88862       0   0.0 Hōkūleʻa
  2021-11-13T11:10:18UTC 2021-11-13T01:10:18-10:00 2021-11-13T00:10:18-11:00  21.31296 -157.88836      75   0.0 Hikianalia
  2021-11-13T10:18:46UTC 2021-11-13T00:18:46-10:00 2021-11-12T23:18:46-11:00  21.31354 -157.88862       0   0.0 Hōkūleʻa
  2021-11-13T10:10:38UTC 2021-11-13T00:10:38-10:00 2021-11-12T23:10:38-11:00  21.31295 -157.88841     255   0.0 Hikianalia
  2021-11-13T09:18:25UTC 2021-11-12T23:18:25-10:00 2021-11-12T22:18:25-11:00  21.31354 -157.88862       0   0.0 Hōkūleʻa
  2021-11-13T09:10:12UTC 2021-11-12T23:10:12-10:00 2021-11-12T22:10:12-11:00  21.31296 -157.88836       0   0.0 Hikianalia
  2021-11-13T08:18:30UTC 2021-11-12T22:18:30-10:00 2021-11-12T21:18:30-11:00  21.31354 -157.88862       0   0.0 Hōkūleʻa
  2021-11-13T08:10:14UTC 2021-11-12T22:10:14-10:00 2021-11-12T21:10:14-11:00  21.31296 -157.88836     195   0.0 Hikianalia
  2021-11-13T07:18:32UTC 2021-11-12T21:18:32-10:00 2021-11-12T20:18:32-11:00  21.31354 -157.88862       0   0.0 Hōkūleʻa
  2021-11-13T07:10:45UTC 2021-11-12T21:10:45-10:00 2021-11-12T20:10:45-11:00  21.31304 -157.88834      15   0.0 Hikianalia
  2021-11-13T06:19:01UTC 2021-11-12T20:19:01-10:00 2021-11-12T19:19:01-11:00  21.31354 -157.88862       0   0.0 Hōkūleʻa
  2021-11-13T06:09:17UTC 2021-11-12T20:09:17-10:00 2021-11-12T19:09:17-11:00  21.31296 -157.88836       0   0.0 Hikianalia
  2021-11-13T05:18:30UTC 2021-11-12T19:18:30-10:00 2021-11-12T18:18:30-11:00  21.31318 -157.88862     178   0.1 Hōkūleʻa
  2021-11-13T05:10:09UTC 2021-11-12T19:10:09-10:00 2021-11-12T18:10:09-11:00  21.31296 -157.88836       0   0.0 Hikianalia
  2021-11-13T04:18:32UTC 2021-11-12T18:18:32-10:00 2021-11-12T17:18:32-11:00  21.31428 -157.88866     331   3.9 Hōkūleʻa
  2021-11-13T04:10:43UTC 2021-11-12T18:10:43-10:00 2021-11-12T17:10:43-11:00  21.31293 -157.88836     180   0.0 Hikianalia
  2021-11-13T03:18:50UTC 2021-11-12T17:18:50-10:00 2021-11-12T16:18:50-11:00  21.25784 -157.85519     138   2.5 Hōkūleʻa
  2021-11-13T03:10:16UTC 2021-11-12T17:10:16-10:00 2021-11-12T16:10:16-11:00  21.31296 -157.88836       0   0.0 Hikianalia
  2021-11-13T02:18:38UTC 2021-11-12T16:18:38-10:00 2021-11-12T15:18:38-11:00  21.28850 -157.88508     172   1.5 Hōkūleʻa
  2021-11-13T02:10:16UTC 2021-11-12T16:10:16-10:00 2021-11-12T15:10:16-11:00  21.31296 -157.88836       0   0.0 Hikianalia
  2021-11-13T01:18:24UTC 2021-11-12T15:18:24-10:00 2021-11-12T14:18:24-11:00  21.31310 -157.88868      33   0.0 Hōkūleʻa
  2021-11-13T01:10:41UTC 2021-11-12T15:10:41-10:00 2021-11-12T14:10:41-11:00  21.31289 -157.88836     298   0.0 Hikianalia
  2021-11-13T00:27:00UTC 2021-11-12T14:27:00-10:00 2021-11-12T13:27:00-11:00  21.31307 -157.88871     270   0.0 Hōkūleʻa
  2021-11-13T00:09:44UTC 2021-11-12T14:09:44-10:00 2021-11-12T13:09:44-11:00  21.31286 -157.88832     127   0.0 Hikianalia
  2021-11-12T23:18:27UTC 2021-11-12T13:18:27-10:00 2021-11-12T12:18:27-11:00  21.31307 -157.88868     180   0.0 Hōkūleʻa
  2021-11-12T23:09:08UTC 2021-11-12T13:09:08-10:00 2021-11-12T12:09:08-11:00  21.31302 -157.88853     298   0.0 Hikianalia
  2021-11-12T22:17:32UTC 2021-11-12T12:17:32-10:00 2021-11-12T11:17:32-11:00  21.31308 -157.88868      90   0.0 Hōkūleʻa
  2021-11-12T22:09:37UTC 2021-11-12T12:09:37-10:00 2021-11-12T11:09:37-11:00  21.31293 -157.88836     180   0.0 Hikianalia
  2021-11-12T21:18:24UTC 2021-11-12T11:18:24-10:00 2021-11-12T10:18:24-11:00  21.31308 -157.88871      61   0.0 Hōkūleʻa
  2021-11-12T21:10:29UTC 2021-11-12T11:10:29-10:00 2021-11-12T10:10:29-11:00  21.31296 -157.88836      28   0.0 Hikianalia
  2021-11-12T20:17:45UTC 2021-11-12T10:17:45-10:00 2021-11-12T09:17:45-11:00  21.31307 -157.88873     270   0.0 Hōkūleʻa
  2021-11-12T20:10:17UTC 2021-11-12T10:10:17-10:00 2021-11-12T09:10:17-11:00  21.31289 -157.88841     234   0.0 Hikianalia
  2021-11-12T19:18:36UTC 2021-11-12T09:18:36-10:00 2021-11-12T08:18:36-11:00  21.31307 -157.88866      80   0.0 Hōkūleʻa
  2021-11-12T19:10:13UTC 2021-11-12T09:10:13-10:00 2021-11-12T08:10:13-11:00  21.31293 -157.88834       0   0.0 Hikianalia
  2021-11-12T18:17:29UTC 2021-11-12T08:17:29-10:00 2021-11-12T07:17:29-11:00  21.31306 -157.88873     241   0.0 Hōkūleʻa
  2021-11-12T18:10:47UTC 2021-11-12T08:10:47-10:00 2021-11-12T07:10:47-11:00  21.31290 -157.88834     232   0.0 Hikianalia
  2021-11-12T17:18:21UTC 2021-11-12T07:18:21-10:00 2021-11-12T06:18:21-11:00  21.31307 -157.88871      90   0.0 Hōkūleʻa
  2021-11-12T17:10:42UTC 2021-11-12T07:10:42-10:00 2021-11-12T06:10:42-11:00  21.31293 -157.88830      83   0.0 Hikianalia
  2021-11-12T16:18:48UTC 2021-11-12T06:18:48-10:00 2021-11-12T05:18:48-11:00  21.31307 -157.88873       0   0.0 Hōkūleʻa
  2021-11-12T16:10:11UTC 2021-11-12T06:10:11-10:00 2021-11-12T05:10:11-11:00  21.31292 -157.88838     232   0.0 Hikianalia
  2021-11-12T15:20:57UTC 2021-11-12T05:20:57-10:00 2021-11-12T04:20:57-11:00  21.31295 -157.88834      32   0.0 Hikianalia
  2021-11-12T15:18:24UTC 2021-11-12T05:18:24-10:00 2021-11-12T04:18:24-11:00  21.31306 -157.88873     222   0.0 Hōkūleʻa
  2021-11-12T14:19:27UTC 2021-11-12T04:19:27-10:00 2021-11-12T03:19:27-11:00  21.31308 -157.88871       0   0.0 Hōkūleʻa
  2021-11-12T14:10:44UTC 2021-11-12T04:10:44-10:00 2021-11-12T03:10:44-11:00  21.31292 -157.88836     180   0.0 Hikianalia
  2021-11-12T13:18:32UTC 2021-11-12T03:18:32-10:00 2021-11-12T02:18:32-11:00  21.31306 -157.88871      90   0.0 Hōkūleʻa
  2021-11-12T13:10:39UTC 2021-11-12T03:10:39-10:00 2021-11-12T02:10:39-11:00  21.31296 -157.88836      11   0.0 Hikianalia
  2021-11-12T12:22:00UTC 2021-11-12T02:22:00-10:00 2021-11-12T01:22:00-11:00  21.31285 -157.88838     200   0.0 Hikianalia
  2021-11-12T12:17:47UTC 2021-11-12T02:17:47-10:00 2021-11-12T01:17:47-11:00  21.31306 -157.88873     180   0.0 Hōkūleʻa
  2021-11-12T11:18:30UTC 2021-11-12T01:18:30-10:00 2021-11-12T00:18:30-11:00  21.31307 -157.88873     299   0.0 Hōkūleʻa
  2021-11-12T11:10:56UTC 2021-11-12T01:10:56-10:00 2021-11-12T00:10:56-11:00  21.31296 -157.88834       0   0.0 Hikianalia
  2021-11-12T10:27:06UTC 2021-11-12T00:27:06-10:00 2021-11-11T23:27:06-11:00  21.31306 -157.88871     206   0.0 Hōkūleʻa
  2021-11-12T10:09:05UTC 2021-11-12T00:09:05-10:00 2021-11-11T23:09:05-11:00  21.31294 -157.88834     138   0.0 Hikianalia
  2021-11-12T09:18:31UTC 2021-11-11T23:18:31-10:00 2021-11-11T22:18:31-11:00  21.31310 -157.88868      26   0.0 Hōkūleʻa
  2021-11-12T09:10:08UTC 2021-11-11T23:10:08-10:00 2021-11-11T22:10:08-11:00  21.31296 -157.88836     345   0.0 Hikianalia
  2021-11-12T08:20:02UTC 2021-11-11T22:20:02-10:00 2021-11-11T21:20:02-11:00  21.31289 -157.88834     165   0.0 Hikianalia
  2021-11-12T08:18:49UTC 2021-11-11T22:18:49-10:00 2021-11-11T21:18:49-11:00  21.31306 -157.88871     110   0.0 Hōkūleʻa
  2021-11-12T07:18:32UTC 2021-11-11T21:18:32-10:00 2021-11-11T20:18:32-11:00  21.31308 -157.88877     285   0.0 Hōkūleʻa
  2021-11-12T07:10:15UTC 2021-11-11T21:10:15-10:00 2021-11-11T20:10:15-11:00  21.31296 -157.88836     343   0.0 Hikianalia
  2021-11-12T06:18:33UTC 2021-11-11T20:18:33-10:00 2021-11-11T19:18:33-11:00  21.31307 -157.88873     270   0.0 Hōkūleʻa
  2021-11-12T06:09:17UTC 2021-11-11T20:09:17-10:00 2021-11-11T19:09:17-11:00  21.31290 -157.88834     242   0.0 Hikianalia
  2021-11-12T05:18:21UTC 2021-11-11T19:18:21-10:00 2021-11-11T18:18:21-11:00  21.31307 -157.88871     180   0.0 Hōkūleʻa
  2021-11-12T05:15:37UTC 2021-11-11T19:15:37-10:00 2021-11-11T18:15:37-11:00  21.31291 -157.88832     147   0.0 Hikianalia
  2021-11-12T04:18:44UTC 2021-11-11T18:18:44-10:00 2021-11-11T17:18:44-11:00  21.31309 -157.88871       0   0.0 Hōkūleʻa
  2021-11-12T04:10:38UTC 2021-11-11T18:10:38-10:00 2021-11-11T17:10:38-11:00  21.31294 -157.88834      90   0.0 Hikianalia
  2021-11-12T03:27:37UTC 2021-11-11T17:27:37-10:00 2021-11-11T16:27:37-11:00  21.31308 -157.88871     180   0.0 Hōkūleʻa
  2021-11-12T03:17:24UTC 2021-11-11T17:17:24-10:00 2021-11-11T16:17:24-11:00  21.31294 -157.88841     270   0.0 Hikianalia
  2021-11-12T02:18:31UTC 2021-11-11T16:18:31-10:00 2021-11-11T15:18:31-11:00  21.31309 -157.88871     296   0.0 Hōkūleʻa
  2021-11-12T02:10:45UTC 2021-11-11T16:10:45-10:00 2021-11-11T15:10:45-11:00  21.31294 -157.88836     273   0.0 Hikianalia
  2021-11-12T01:18:24UTC 2021-11-11T15:18:24-10:00 2021-11-11T14:18:24-11:00  21.31308 -157.88868     136   0.0 Hōkūleʻa
  2021-11-12T01:10:05UTC 2021-11-11T15:10:05-10:00 2021-11-11T14:10:05-11:00  21.31293 -157.88817      90   0.0 Hikianalia
  2021-11-12T00:17:51UTC 2021-11-11T14:17:51-10:00 2021-11-11T13:17:51-11:00  21.31310 -157.88871     278   0.0 Hōkūleʻa
  2021-11-12T00:09:46UTC 2021-11-11T14:09:46-10:00 2021-11-11T13:09:46-11:00  21.31293 -157.88832      21   0.0 Hikianalia
  2021-11-11T23:18:37UTC 2021-11-11T13:18:37-10:00 2021-11-11T12:18:37-11:00  21.31309 -157.88862      81   0.0 Hōkūleʻa
  2021-11-11T23:09:35UTC 2021-11-11T13:09:35-10:00 2021-11-11T12:09:35-11:00  21.31288 -157.88834     173   0.0 Hikianalia
  2021-11-11T22:17:32UTC 2021-11-11T12:17:32-10:00 2021-11-11T11:17:32-11:00  21.31308 -157.88868      26   0.0 Hōkūleʻa
  2021-11-11T22:10:45UTC 2021-11-11T12:10:45-10:00 2021-11-11T11:10:45-11:00  21.31303 -157.88836       0   0.0 Hikianalia
  2021-11-11T21:17:24UTC 2021-11-11T11:17:24-10:00 2021-11-11T10:17:24-11:00  21.31304 -157.88871     155   0.0 Hōkūleʻa
  2021-11-11T21:10:30UTC 2021-11-11T11:10:30-10:00 2021-11-11T10:10:30-11:00  21.31295 -157.88836      59   0.0 Hikianalia
  2021-11-11T20:18:48UTC 2021-11-11T10:18:48-10:00 2021-11-11T09:18:48-11:00  21.31308 -157.88873      78   0.0 Hōkūleʻa
  2021-11-11T20:09:15UTC 2021-11-11T10:09:15-10:00 2021-11-11T09:09:15-11:00  21.31285 -157.88853     251   0.0 Hikianalia
  2021-11-11T19:17:33UTC 2021-11-11T09:17:33-10:00 2021-11-11T08:17:33-11:00  21.31306 -157.88883     270   0.0 Hōkūleʻa
  2021-11-11T19:10:06UTC 2021-11-11T09:10:06-10:00 2021-11-11T08:10:06-11:00  21.31291 -157.88836      90   0.0 Hikianalia
  2021-11-11T18:18:24UTC 2021-11-11T08:18:24-10:00 2021-11-11T07:18:24-11:00  21.31306 -157.88875     270   0.0 Hōkūleʻa
  2021-11-11T18:10:46UTC 2021-11-11T08:10:46-10:00 2021-11-11T07:10:46-11:00  21.31291 -157.88838      86   0.0 Hikianalia
  2021-11-11T17:22:05UTC 2021-11-11T07:22:05-10:00 2021-11-11T06:22:05-11:00  21.31290 -157.88856     266   0.0 Hikianalia
  2021-11-11T17:18:31UTC 2021-11-11T07:18:31-10:00 2021-11-11T06:18:31-11:00  21.31306 -157.88871      61   0.0 Hōkūleʻa
  2021-11-11T16:18:44UTC 2021-11-11T06:18:44-10:00 2021-11-11T05:18:44-11:00  21.31305 -157.88873     241   0.0 Hōkūleʻa
  2021-11-11T16:10:46UTC 2021-11-11T06:10:46-10:00 2021-11-11T05:10:46-11:00  21.31291 -157.88841      90   0.0 Hikianalia
  2021-11-11T15:18:33UTC 2021-11-11T05:18:33-10:00 2021-11-11T04:18:33-11:00  21.31306 -157.88871      61   0.0 Hōkūleʻa
  2021-11-11T15:10:10UTC 2021-11-11T05:10:10-10:00 2021-11-11T04:10:10-11:00  21.31291 -157.88843     270   0.0 Hikianalia
  2021-11-11T14:18:23UTC 2021-11-11T04:18:23-10:00 2021-11-11T03:18:23-11:00  21.31305 -157.88873     180   0.0 Hōkūleʻa
  2021-11-11T14:10:15UTC 2021-11-11T04:10:15-10:00 2021-11-11T03:10:15-11:00  21.31291 -157.88836      62   0.0 Hikianalia
  2021-11-11T13:17:25UTC 2021-11-11T03:17:25-10:00 2021-11-11T02:17:25-11:00  21.31306 -157.88873     270   0.0 Hōkūleʻa
  2021-11-11T13:10:37UTC 2021-11-11T03:10:37-10:00 2021-11-11T02:10:37-11:00  21.31290 -157.88838     165   0.0 Hikianalia
  2021-11-11T12:18:41UTC 2021-11-11T02:18:41-10:00 2021-11-11T01:18:41-11:00  21.31306 -157.88871     119   0.0 Hōkūleʻa
  2021-11-11T12:10:18UTC 2021-11-11T02:10:18-10:00 2021-11-11T01:10:18-11:00  21.31297 -157.88841       0   0.0 Hikianalia
  2021-11-11T11:18:35UTC 2021-11-11T01:18:35-10:00 2021-11-11T00:18:35-11:00  21.31307 -157.88873     241   0.0 Hōkūleʻa
  2021-11-11T11:10:15UTC 2021-11-11T01:10:15-10:00 2021-11-11T00:10:15-11:00  21.31288 -157.88841     242   0.0 Hikianalia
  2021-11-11T10:18:33UTC 2021-11-11T00:18:33-10:00 2021-11-10T23:18:33-11:00  21.31308 -157.88871       0   0.0 Hōkūleʻa
  2021-11-11T10:10:40UTC 2021-11-11T00:10:40-10:00 2021-11-10T23:10:40-11:00  21.31291 -157.88834     180   0.0 Hikianalia
  2021-11-11T09:18:31UTC 2021-11-10T23:18:31-10:00 2021-11-10T22:18:31-11:00  21.31303 -157.88871     148   0.0 Hōkūleʻa
  2021-11-11T09:10:17UTC 2021-11-10T23:10:17-10:00 2021-11-10T22:10:17-11:00  21.31294 -157.88834     298   0.0 Hikianalia
  2021-11-11T08:18:44UTC 2021-11-10T22:18:44-10:00 2021-11-10T21:18:44-11:00  21.31306 -157.88873     180   0.0 Hōkūleʻa
  2021-11-11T08:10:08UTC 2021-11-10T22:10:08-10:00 2021-11-10T21:10:08-11:00  21.31292 -157.88830      90   0.0 Hikianalia
  2021-11-11T07:18:28UTC 2021-11-10T21:18:28-10:00 2021-11-10T20:18:28-11:00  21.31307 -157.88873      90   0.0 Hōkūleʻa
  2021-11-11T07:09:45UTC 2021-11-10T21:09:45-10:00 2021-11-10T20:09:45-11:00  21.31292 -157.88834      43   0.0 Hikianalia
  2021-11-11T06:18:32UTC 2021-11-10T20:18:32-10:00 2021-11-10T19:18:32-11:00  21.31307 -157.88877     299   0.0 Hōkūleʻa
  2021-11-11T06:10:37UTC 2021-11-10T20:10:37-10:00 2021-11-10T19:10:37-11:00  21.31288 -157.88838     202   0.0 Hikianalia
  2021-11-11T05:18:32UTC 2021-11-10T19:18:32-10:00 2021-11-10T18:18:32-11:00  21.31305 -157.88873     180   0.0 Hōkūleʻa
  2021-11-11T05:11:33UTC 2021-11-10T19:11:33-10:00 2021-11-10T18:11:33-11:00  21.31303 -157.88832      32   0.0 Hikianalia
  2021-11-11T04:18:46UTC 2021-11-10T18:18:46-10:00 2021-11-10T17:18:46-11:00  21.31308 -157.88873       0   0.0 Hōkūleʻa
  2021-11-11T04:10:29UTC 2021-11-10T18:10:29-10:00 2021-11-10T17:10:29-11:00  21.31296 -157.88836     335   0.0 Hikianalia
  2021-11-11T03:18:24UTC 2021-11-10T17:18:24-10:00 2021-11-10T16:18:24-11:00  21.31308 -157.88873     299   0.0 Hōkūleʻa
  2021-11-11T03:09:05UTC 2021-11-10T17:09:05-10:00 2021-11-10T16:09:05-11:00  21.31283 -157.88830     150   0.0 Hikianalia
  2021-11-11T02:18:26UTC 2021-11-10T16:18:26-10:00 2021-11-10T15:18:26-11:00  21.31307 -157.88871     206   0.0 Hōkūleʻa
  2021-11-11T02:10:41UTC 2021-11-10T16:10:41-10:00 2021-11-10T15:10:41-11:00  21.31297 -157.88838     296   0.0 Hikianalia
  2021-11-11T01:17:32UTC 2021-11-10T15:17:32-10:00 2021-11-10T14:17:32-11:00  21.31311 -157.88868       0   0.0 Hōkūleʻa
  2021-11-11T01:09:19UTC 2021-11-10T15:09:19-10:00 2021-11-10T14:09:19-11:00  21.31296 -157.88836       0   0.0 Hikianalia
  2021-11-11T00:26:52UTC 2021-11-10T14:26:52-10:00 2021-11-10T13:26:52-11:00  21.31310 -157.88868      44   0.0 Hōkūleʻa
  2021-11-11T00:10:37UTC 2021-11-10T14:10:37-10:00 2021-11-10T13:10:37-11:00  21.31296 -157.88836      90   0.0 Hikianalia
  2021-11-10T23:23:51UTC 2021-11-10T13:23:51-10:00 2021-11-10T12:23:51-11:00  21.31296 -157.88841     299   0.0 Hikianalia
  2021-11-10T23:17:35UTC 2021-11-10T13:17:35-10:00 2021-11-10T12:17:35-11:00  21.31308 -157.88871     180   0.0 Hōkūleʻa
  2021-11-10T22:19:06UTC 2021-11-10T12:19:06-10:00 2021-11-10T11:19:06-11:00  21.31293 -157.88834     180   0.0 Hikianalia
  2021-11-10T22:18:34UTC 2021-11-10T12:18:34-10:00 2021-11-10T11:18:34-11:00  21.31309 -157.88871      90   0.0 Hōkūleʻa
  2021-11-10T21:18:32UTC 2021-11-10T11:18:32-10:00 2021-11-10T10:18:32-11:00  21.31309 -157.88873       0   0.0 Hōkūleʻa
  2021-11-10T21:09:36UTC 2021-11-10T11:09:36-10:00 2021-11-10T10:09:36-11:00  21.31295 -157.88834     180   0.0 Hikianalia
  2021-11-10T20:17:49UTC 2021-11-10T10:17:49-10:00 2021-11-10T09:17:49-11:00  21.31308 -157.88873      62   0.0 Hōkūleʻa
  2021-11-10T20:10:14UTC 2021-11-10T10:10:14-10:00 2021-11-10T09:10:14-11:00  21.31299 -157.88834      60   0.0 Hikianalia
  2021-11-10T19:17:24UTC 2021-11-10T09:17:24-10:00 2021-11-10T08:17:24-11:00  21.31307 -157.88875     242   0.0 Hōkūleʻa
  2021-11-10T19:10:20UTC 2021-11-10T09:10:20-10:00 2021-11-10T08:10:20-11:00  21.31288 -157.88856     255   0.0 Hikianalia
  2021-11-10T18:18:24UTC 2021-11-10T08:18:24-10:00 2021-11-10T07:18:24-11:00  21.31308 -157.88873       0   0.0 Hōkūleʻa
  2021-11-10T18:10:37UTC 2021-11-10T08:10:37-10:00 2021-11-10T07:10:37-11:00  21.31292 -157.88838     309   0.0 Hikianalia
  2021-11-10T17:18:33UTC 2021-11-10T07:18:33-10:00 2021-11-10T06:18:33-11:00  21.31305 -157.88873     180   0.0 Hōkūleʻa
  2021-11-10T17:10:14UTC 2021-11-10T07:10:14-10:00 2021-11-10T06:10:14-11:00  21.31289 -157.88834     119   0.0 Hikianalia
  2021-11-10T16:18:49UTC 2021-11-10T06:18:49-10:00 2021-11-10T05:18:49-11:00  21.31306 -157.88873     299   0.0 Hōkūleʻa
  2021-11-10T16:10:49UTC 2021-11-10T06:10:49-10:00 2021-11-10T05:10:49-11:00  21.31290 -157.88836     180   0.0 Hikianalia
  2021-11-10T15:19:24UTC 2021-11-10T05:19:24-10:00 2021-11-10T04:19:24-11:00  21.31305 -157.88871     242   0.0 Hōkūleʻa
  2021-11-10T15:09:37UTC 2021-11-10T05:09:37-10:00 2021-11-10T04:09:37-11:00  21.31293 -157.88836       0   0.0 Hikianalia
  2021-11-10T14:18:41UTC 2021-11-10T04:18:41-10:00 2021-11-10T03:18:41-11:00  21.31306 -157.88868      75   0.0 Hōkūleʻa
  2021-11-10T14:10:08UTC 2021-11-10T04:10:08-10:00 2021-11-10T03:10:08-11:00  21.31291 -157.88836     189   0.0 Hikianalia
  2021-11-10T13:18:32UTC 2021-11-10T03:18:32-10:00 2021-11-10T02:18:32-11:00  21.31305 -157.88873     180   0.0 Hōkūleʻa
  2021-11-10T13:10:07UTC 2021-11-10T03:10:07-10:00 2021-11-10T02:10:07-11:00  21.31304 -157.88834       9   0.0 Hikianalia
  2021-11-10T12:18:49UTC 2021-11-10T02:18:49-10:00 2021-11-10T01:18:49-11:00  21.31306 -157.88873     180   0.0 Hōkūleʻa
  2021-11-10T12:10:38UTC 2021-11-10T02:10:38-10:00 2021-11-10T01:10:38-11:00  21.31292 -157.88836      75   0.0 Hikianalia
  2021-11-10T11:20:44UTC 2021-11-10T01:20:44-10:00 2021-11-10T00:20:44-11:00  21.31291 -157.88841     217   0.0 Hikianalia
  2021-11-10T11:18:31UTC 2021-11-10T01:18:31-10:00 2021-11-10T00:18:31-11:00  21.31307 -157.88873       0   0.0 Hōkūleʻa
  2021-11-10T10:21:17UTC 2021-11-10T00:21:17-10:00 2021-11-09T23:21:17-11:00  21.31296 -157.88836     299   0.0 Hikianalia
  2021-11-10T10:18:28UTC 2021-11-10T00:18:28-10:00 2021-11-09T23:18:28-11:00  21.31306 -157.88873     180   0.0 Hōkūleʻa
  2021-11-10T09:17:41UTC 2021-11-09T23:17:41-10:00 2021-11-09T22:17:41-11:00  21.31307 -157.88873       0   0.0 Hōkūleʻa
  2021-11-10T09:10:37UTC 2021-11-09T23:10:37-10:00 2021-11-09T22:10:37-11:00  21.31295 -157.88834     242   0.0 Hikianalia
  2021-11-10T08:18:22UTC 2021-11-09T22:18:22-10:00 2021-11-09T21:18:22-11:00  21.31304 -157.88873     205   0.0 Hōkūleʻa
  2021-11-10T08:10:33UTC 2021-11-09T22:10:33-10:00 2021-11-09T21:10:33-11:00  21.31299 -157.88825      62   0.0 Hikianalia
  2021-11-10T07:18:24UTC 2021-11-09T21:18:24-10:00 2021-11-09T20:18:24-11:00  21.31308 -157.88871       0   0.0 Hōkūleʻa
  2021-11-10T07:18:11UTC 2021-11-09T21:18:11-10:00 2021-11-09T20:18:11-11:00  21.31295 -157.88834       0   0.0 Hikianalia
  2021-11-10T06:30:33UTC 2021-11-09T20:30:33-10:00 2021-11-09T19:30:33-11:00  21.31307 -157.88871      75   0.0 Hōkūleʻa
  2021-11-10T06:09:43UTC 2021-11-09T20:09:43-10:00 2021-11-09T19:09:43-11:00  21.31292 -157.88834     155   0.0 Hikianalia
  2021-11-10T05:17:35UTC 2021-11-09T19:17:35-10:00 2021-11-09T18:17:35-11:00  21.31306 -157.88875     213   0.0 Hōkūleʻa
  2021-11-10T05:10:09UTC 2021-11-09T19:10:09-10:00 2021-11-09T18:10:09-11:00  21.31296 -157.88836       0   0.0 Hikianalia
  2021-11-10T04:18:27UTC 2021-11-09T18:18:27-10:00 2021-11-09T17:18:27-11:00  21.31309 -157.88873     317   0.0 Hōkūleʻa
  2021-11-10T04:10:46UTC 2021-11-09T18:10:46-10:00 2021-11-09T17:10:46-11:00  21.31293 -157.88836     119   0.0 Hikianalia
  2021-11-10T03:18:48UTC 2021-11-09T17:18:48-10:00 2021-11-09T16:18:48-11:00  21.31307 -157.88871       1   2.2 Hōkūleʻa
  2021-11-10T03:10:36UTC 2021-11-09T17:10:36-10:00 2021-11-09T16:10:36-11:00  21.31295 -157.88841     247   0.0 Hikianalia
  2021-11-10T02:17:30UTC 2021-11-09T16:17:30-10:00 2021-11-09T15:17:30-11:00  21.27521 -157.88950      20   0.8 Hōkūleʻa
  2021-11-10T02:10:16UTC 2021-11-09T16:10:16-10:00 2021-11-09T15:10:16-11:00  21.31304 -157.88819      65   0.0 Hikianalia
  2021-11-10T01:28:20UTC 2021-11-09T15:28:20-10:00 2021-11-09T14:28:20-11:00  21.31296 -157.88836     335   0.0 Hikianalia
  2021-11-10T01:18:27UTC 2021-11-09T15:18:27-10:00 2021-11-09T14:18:27-11:00  21.26305 -157.89418     186   3.0 Hōkūleʻa
  2021-11-10T00:18:48UTC 2021-11-09T14:18:48-10:00 2021-11-09T13:18:48-11:00  21.31308 -157.88866     270   0.0 Hōkūleʻa
  2021-11-10T00:18:12UTC 2021-11-09T14:18:12-10:00 2021-11-09T13:18:12-11:00  21.31292 -157.88834     155   0.0 Hikianalia
  2021-11-09T23:17:37UTC 2021-11-09T13:17:37-10:00 2021-11-09T12:17:37-11:00  21.31308 -157.88862      90   0.0 Hōkūleʻa
  2021-11-09T23:09:19UTC 2021-11-09T13:09:19-10:00 2021-11-09T12:09:19-11:00  21.31296 -157.88836      51   0.0 Hikianalia
  2021-11-09T22:17:36UTC 2021-11-09T12:17:36-10:00 2021-11-09T11:17:36-11:00  21.31308 -157.88868      90   0.0 Hōkūleʻa
  2021-11-09T21:20:24UTC 2021-11-09T11:20:24-10:00 2021-11-09T10:20:24-11:00  21.31293 -157.88841     270   0.0 Hikianalia
  2021-11-09T21:18:24UTC 2021-11-09T11:18:24-10:00 2021-11-09T10:18:24-11:00  21.31308 -157.88871      90   0.0 Hōkūleʻa
  2021-11-09T20:17:43UTC 2021-11-09T10:17:43-10:00 2021-11-09T09:17:43-11:00  21.31308 -157.88873      80   0.0 Hōkūleʻa
  2021-11-09T20:10:48UTC 2021-11-09T10:10:48-10:00 2021-11-09T09:10:48-11:00  21.31293 -157.88838     212   0.0 Hikianalia
  2021-11-09T19:33:08UTC 2021-11-09T09:33:08-10:00 2021-11-09T08:33:08-11:00  21.31307 -157.88879     298   0.0 Hōkūleʻa
  2021-11-09T19:10:18UTC 2021-11-09T09:10:18-10:00 2021-11-09T08:10:18-11:00  21.31296 -157.88836     353   0.0 Hikianalia
  2021-11-09T18:17:30UTC 2021-11-09T08:17:30-10:00 2021-11-09T07:17:30-11:00  21.31304 -157.88873     180   0.0 Hōkūleʻa
  2021-11-09T18:10:12UTC 2021-11-09T08:10:12-10:00 2021-11-09T07:10:12-11:00  21.31280 -157.88834     173   0.0 Hikianalia
  2021-11-09T17:18:21UTC 2021-11-09T07:18:21-10:00 2021-11-09T06:18:21-11:00  21.31308 -157.88873       0   0.0 Hōkūleʻa
  2021-11-09T17:10:40UTC 2021-11-09T07:10:40-10:00 2021-11-09T06:10:40-11:00  21.31296 -157.88836     349   0.0 Hikianalia
  2021-11-09T16:18:36UTC 2021-11-09T06:18:36-10:00 2021-11-09T05:18:36-11:00  21.31307 -157.88873     270   0.0 Hōkūleʻa
  2021-11-09T15:18:33UTC 2021-11-09T05:18:33-10:00 2021-11-09T04:18:33-11:00  21.31307 -157.88871     180   0.0 Hōkūleʻa
  2021-11-09T15:11:47UTC 2021-11-09T05:11:47-10:00 2021-11-09T04:11:47-11:00  21.31286 -157.88834     180   0.0 Hikianalia
  2021-11-09T14:18:30UTC 2021-11-09T04:18:30-10:00 2021-11-09T03:18:30-11:00  21.31308 -157.88871      42   0.0 Hōkūleʻa
  2021-11-09T14:10:46UTC 2021-11-09T04:10:46-10:00 2021-11-09T03:10:46-11:00  21.31289 -157.88834     321   0.0 Hikianalia
  2021-11-09T13:18:31UTC 2021-11-09T03:18:31-10:00 2021-11-09T02:18:31-11:00  21.31306 -157.88873     180   0.0 Hōkūleʻa
  2021-11-09T13:10:15UTC 2021-11-09T03:10:15-10:00 2021-11-09T02:10:15-11:00  21.31281 -157.88828     133   0.0 Hikianalia
  2021-11-09T12:18:50UTC 2021-11-09T02:18:50-10:00 2021-11-09T01:18:50-11:00  21.31307 -157.88873      75   0.0 Hōkūleʻa
  2021-11-09T12:10:22UTC 2021-11-09T02:10:22-10:00 2021-11-09T01:10:22-11:00  21.31289 -157.88836     180   0.0 Hikianalia
  2021-11-09T11:18:30UTC 2021-11-09T01:18:30-10:00 2021-11-09T00:18:30-11:00  21.31306 -157.88877     260   0.0 Hōkūleʻa
  2021-11-09T11:10:47UTC 2021-11-09T01:10:47-10:00 2021-11-09T00:10:47-11:00  21.31293 -157.88836     151   0.0 Hikianalia
  2021-11-09T10:18:25UTC 2021-11-09T00:18:25-10:00 2021-11-08T23:18:25-11:00  21.31307 -157.88871      25   0.0 Hōkūleʻa
  2021-11-09T10:10:06UTC 2021-11-09T00:10:06-10:00 2021-11-08T23:10:06-11:00  21.31304 -157.88843     335   0.0 Hikianalia
  2021-11-09T09:18:33UTC 2021-11-08T23:18:33-10:00 2021-11-08T22:18:33-11:00  21.31303 -157.88873     180   0.0 Hōkūleʻa
  2021-11-09T09:10:45UTC 2021-11-08T23:10:45-10:00 2021-11-08T22:10:45-11:00  21.31291 -157.88836     127   0.0 Hikianalia
  2021-11-09T08:18:53UTC 2021-11-08T22:18:53-10:00 2021-11-08T21:18:53-11:00  21.31307 -157.88873       0   0.0 Hōkūleʻa
  2021-11-09T08:10:40UTC 2021-11-08T22:10:40-10:00 2021-11-08T21:10:40-11:00  21.31302 -157.88851     295   0.0 Hikianalia
  2021-11-09T07:18:28UTC 2021-11-08T21:18:28-10:00 2021-11-08T20:18:28-11:00  21.31306 -157.88873     118   0.0 Hōkūleʻa
  2021-11-09T07:10:14UTC 2021-11-08T21:10:14-10:00 2021-11-08T20:10:14-11:00  21.31292 -157.88830      68   0.0 Hikianalia
  2021-11-09T06:18:32UTC 2021-11-08T20:18:32-10:00 2021-11-08T19:18:32-11:00  21.31307 -157.88875     270   0.0 Hōkūleʻa
  2021-11-09T06:10:38UTC 2021-11-08T20:10:38-10:00 2021-11-08T19:10:38-11:00  21.31289 -157.88838     195   0.0 Hikianalia
  2021-11-09T05:18:27UTC 2021-11-08T19:18:27-10:00 2021-11-08T18:18:27-11:00  21.31307 -157.88873     180   0.0 Hōkūleʻa
  2021-11-09T05:10:18UTC 2021-11-08T19:10:18-10:00 2021-11-08T18:10:18-11:00  21.31296 -157.88836     318   0.0 Hikianalia
  2021-11-09T04:18:43UTC 2021-11-08T18:18:43-10:00 2021-11-08T17:18:43-11:00  21.31308 -157.88873     311   0.0 Hōkūleʻa
  2021-11-09T04:10:12UTC 2021-11-08T18:10:12-10:00 2021-11-08T17:10:12-11:00  21.31294 -157.88834     105   0.0 Hikianalia
  2021-11-09T03:23:06UTC 2021-11-08T17:23:06-10:00 2021-11-08T16:23:06-11:00  21.31295 -157.88838     242   0.0 Hikianalia
  2021-11-09T03:18:38UTC 2021-11-08T17:18:38-10:00 2021-11-08T16:18:38-11:00  21.31299 -157.88862     140   0.0 Hōkūleʻa
  2021-11-09T02:20:22UTC 2021-11-08T16:20:22-10:00 2021-11-08T15:20:22-11:00  21.31296 -157.88836     200   0.0 Hikianalia
  2021-11-09T02:17:35UTC 2021-11-08T16:17:35-10:00 2021-11-08T15:17:35-11:00  21.31309 -157.88871       0   0.0 Hōkūleʻa
  2021-11-09T01:18:24UTC 2021-11-08T15:18:24-10:00 2021-11-08T14:18:24-11:00  21.31309 -157.88871     138   0.0 Hōkūleʻa
  2021-11-09T01:09:54UTC 2021-11-08T15:09:54-10:00 2021-11-08T14:09:54-11:00  21.31302 -157.88834      20   0.0 Hikianalia
  2021-11-09T00:17:58UTC 2021-11-08T14:17:58-10:00 2021-11-08T13:17:58-11:00  21.31311 -157.88873     242   0.0 Hōkūleʻa
  2021-11-09T00:09:26UTC 2021-11-08T14:09:26-10:00 2021-11-08T13:09:26-11:00  21.31296 -157.88836      37   0.0 Hikianalia
  2021-11-08T23:27:51UTC 2021-11-08T13:27:51-10:00 2021-11-08T12:27:51-11:00  21.31291 -157.88841     260   0.0 Hikianalia
  2021-11-08T23:18:38UTC 2021-11-08T13:18:38-10:00 2021-11-08T12:18:38-11:00  21.31314 -157.88866      43   0.0 Hōkūleʻa
  2021-11-08T22:18:35UTC 2021-11-08T12:18:35-10:00 2021-11-08T11:18:35-11:00  21.31308 -157.88873     299   0.0 Hōkūleʻa
  2021-11-08T22:09:37UTC 2021-11-08T12:09:37-10:00 2021-11-08T11:09:37-11:00  21.31292 -157.88834      61   0.0 Hikianalia
  2021-11-08T21:17:30UTC 2021-11-08T11:17:30-10:00 2021-11-08T10:17:30-11:00  21.31307 -157.88871     137   0.0 Hōkūleʻa
  2021-11-08T21:10:44UTC 2021-11-08T11:10:44-10:00 2021-11-08T10:10:44-11:00  21.31291 -157.88836     159   0.0 Hikianalia
  2021-11-08T20:18:39UTC 2021-11-08T10:18:39-10:00 2021-11-08T09:18:39-11:00  21.31309 -157.88873      76   0.0 Hōkūleʻa
  2021-11-08T20:10:43UTC 2021-11-08T10:10:43-10:00 2021-11-08T09:10:43-11:00  21.31296 -157.88838     339   0.0 Hikianalia
  2021-11-08T19:17:28UTC 2021-11-08T09:17:28-10:00 2021-11-08T08:17:28-11:00  21.31308 -157.88877     282   0.0 Hōkūleʻa
  2021-11-08T19:10:37UTC 2021-11-08T09:10:37-10:00 2021-11-08T08:10:37-11:00  21.31291 -157.88836     118   0.0 Hikianalia
  2021-11-08T18:18:38UTC 2021-11-08T08:18:38-10:00 2021-11-08T07:18:38-11:00  21.31306 -157.88866     110   0.0 Hōkūleʻa
  2021-11-08T18:10:46UTC 2021-11-08T08:10:46-10:00 2021-11-08T07:10:46-11:00  21.31293 -157.88841     205   0.0 Hikianalia
  2021-11-08T17:18:29UTC 2021-11-08T07:18:29-10:00 2021-11-08T06:18:29-11:00  21.31308 -157.88873       0   0.0 Hōkūleʻa
  2021-11-08T17:09:49UTC 2021-11-08T07:09:49-10:00 2021-11-08T06:09:49-11:00  21.31310 -157.88832       6   0.0 Hikianalia
  2021-11-08T16:18:41UTC 2021-11-08T06:18:41-10:00 2021-11-08T05:18:41-11:00  21.31307 -157.88873       0   0.0 Hōkūleʻa
  2021-11-08T16:10:07UTC 2021-11-08T06:10:07-10:00 2021-11-08T05:10:07-11:00  21.31291 -157.88834      25   0.0 Hikianalia
  2021-11-08T15:18:33UTC 2021-11-08T05:18:33-10:00 2021-11-08T04:18:33-11:00  21.31307 -157.88873     270   0.0 Hōkūleʻa
  2021-11-08T15:10:13UTC 2021-11-08T05:10:13-10:00 2021-11-08T04:10:13-11:00  21.31286 -157.88836     180   0.0 Hikianalia
  2021-11-08T14:18:32UTC 2021-11-08T04:18:32-10:00 2021-11-08T03:18:32-11:00  21.31307 -157.88871       0   0.0 Hōkūleʻa
  2021-11-08T14:10:36UTC 2021-11-08T04:10:36-10:00 2021-11-08T03:10:36-11:00  21.31292 -157.88836     307   0.0 Hikianalia
  2021-11-08T13:17:24UTC 2021-11-08T03:17:24-10:00 2021-11-08T02:17:24-11:00  21.31306 -157.88871     180   0.0 Hōkūleʻa
  2021-11-08T13:10:08UTC 2021-11-08T03:10:08-10:00 2021-11-08T02:10:08-11:00  21.31284 -157.88825     131   0.0 Hikianalia
  2021-11-08T12:18:41UTC 2021-11-08T02:18:41-10:00 2021-11-08T01:18:41-11:00  21.31308 -157.88871       0   0.0 Hōkūleʻa
  2021-11-08T12:10:38UTC 2021-11-08T02:10:38-10:00 2021-11-08T01:10:38-11:00  21.31290 -157.88832     118   0.0 Hikianalia
  2021-11-08T11:18:28UTC 2021-11-08T01:18:28-10:00 2021-11-08T00:18:28-11:00  21.31307 -157.88871      90   0.0 Hōkūleʻa
  2021-11-08T11:10:53UTC 2021-11-08T01:10:53-10:00 2021-11-08T00:10:53-11:00  21.31294 -157.88841     209   0.0 Hikianalia
  2021-11-08T10:18:33UTC 2021-11-08T00:18:33-10:00 2021-11-07T23:18:33-11:00  21.31307 -157.88873       0   0.0 Hōkūleʻa
  2021-11-08T10:10:25UTC 2021-11-08T00:10:25-10:00 2021-11-07T23:10:25-11:00  21.31305 -157.88834      13   0.0 Hikianalia
  2021-11-08T09:18:46UTC 2021-11-07T23:18:46-10:00 2021-11-07T22:18:46-11:00  21.31306 -157.88873     137   0.0 Hōkūleʻa
  2021-11-08T09:10:11UTC 2021-11-07T23:10:11-10:00 2021-11-07T22:10:11-11:00  21.31288 -157.88838     180   0.0 Hikianalia
  2021-11-08T08:18:27UTC 2021-11-07T22:18:27-10:00 2021-11-07T21:18:27-11:00  21.31308 -157.88875     317   0.0 Hōkūleʻa
  2021-11-08T08:10:41UTC 2021-11-07T22:10:41-10:00 2021-11-07T21:10:41-11:00  21.31290 -157.88838     126   0.0 Hikianalia
  2021-11-08T07:18:23UTC 2021-11-07T21:18:23-10:00 2021-11-07T20:18:23-11:00  21.31306 -157.88873       0   0.0 Hōkūleʻa
  2021-11-08T07:10:05UTC 2021-11-07T21:10:05-10:00 2021-11-07T20:10:05-11:00  21.31294 -157.88845     285   0.0 Hikianalia
  2021-11-08T06:18:38UTC 2021-11-07T20:18:38-10:00 2021-11-07T19:18:38-11:00  21.31306 -157.88873     137   0.0 Hōkūleʻa
  2021-11-08T06:10:46UTC 2021-11-07T20:10:46-10:00 2021-11-07T19:10:46-11:00  21.31292 -157.88836     180   0.0 Hikianalia
  2021-11-08T05:18:30UTC 2021-11-07T19:18:30-10:00 2021-11-07T18:18:30-11:00  21.31308 -157.88875     244   0.0 Hōkūleʻa
  2021-11-08T05:10:18UTC 2021-11-07T19:10:18-10:00 2021-11-07T18:10:18-11:00  21.31296 -157.88836     340   0.0 Hikianalia
  2021-11-08T04:27:11UTC 2021-11-07T18:27:11-10:00 2021-11-07T17:27:11-11:00  21.31309 -157.88873     180   0.0 Hōkūleʻa
  2021-11-08T04:20:25UTC 2021-11-07T18:20:25-10:00 2021-11-07T17:20:25-11:00  21.31291 -157.88834     160   0.0 Hikianalia
  2021-11-08T03:18:24UTC 2021-11-07T17:18:24-10:00 2021-11-07T16:18:24-11:00  21.31310 -157.88873     241   0.0 Hōkūleʻa
  2021-11-08T03:09:10UTC 2021-11-07T17:09:10-10:00 2021-11-07T16:09:10-11:00  21.31296 -157.88836       0   0.0 Hikianalia
  2021-11-08T02:17:47UTC 2021-11-07T16:17:47-10:00 2021-11-07T15:17:47-11:00  21.31311 -157.88871     317   0.0 Hōkūleʻa
  2021-11-08T02:10:40UTC 2021-11-07T16:10:40-10:00 2021-11-07T15:10:40-11:00  21.31294 -157.88836     180   0.0 Hikianalia
  2021-11-08T01:18:33UTC 2021-11-07T15:18:33-10:00 2021-11-07T14:18:33-11:00  21.31309 -157.88868       0   0.0 Hōkūleʻa
  2021-11-08T01:10:15UTC 2021-11-07T15:10:15-10:00 2021-11-07T14:10:15-11:00  21.31296 -157.88836     180   0.0 Hikianalia
  2021-11-08T00:17:32UTC 2021-11-07T14:17:32-10:00 2021-11-07T13:17:32-11:00  21.31306 -157.88868     137   0.0 Hōkūleʻa
  2021-11-08T00:09:09UTC 2021-11-07T14:09:09-10:00 2021-11-07T13:09:09-11:00  21.31298 -157.88836      44   0.0 Hikianalia
  2021-11-07T23:18:29UTC 2021-11-07T13:18:29-10:00 2021-11-07T12:18:29-11:00  21.31312 -157.88875     309   0.0 Hōkūleʻa
  2021-11-07T23:09:40UTC 2021-11-07T13:09:40-10:00 2021-11-07T12:09:40-11:00  21.31296 -157.88838       0   0.0 Hikianalia
  2021-11-07T22:25:13UTC 2021-11-07T12:25:13-10:00 2021-11-07T11:25:13-11:00  21.31296 -157.88838       8   0.0 Hikianalia
  2021-11-07T22:17:48UTC 2021-11-07T12:17:48-10:00 2021-11-07T11:17:48-11:00  21.31309 -157.88871     284   0.0 Hōkūleʻa
  2021-11-07T21:18:30UTC 2021-11-07T11:18:30-10:00 2021-11-07T10:18:30-11:00  21.31308 -157.88866      90   0.0 Hōkūleʻa
  2021-11-07T21:10:12UTC 2021-11-07T11:10:12-10:00 2021-11-07T10:10:12-11:00  21.31282 -157.88841     189   0.0 Hikianalia
  2021-11-07T20:17:32UTC 2021-11-07T10:17:32-10:00 2021-11-07T09:17:32-11:00  21.31308 -157.88871     328   0.0 Hōkūleʻa
  2021-11-07T20:10:40UTC 2021-11-07T10:10:40-10:00 2021-11-07T09:10:40-11:00  21.31294 -157.88838      32   0.0 Hikianalia
  2021-11-07T19:18:24UTC 2021-11-07T09:18:24-10:00 2021-11-07T08:18:24-11:00  21.31305 -157.88868     105   0.0 Hōkūleʻa
  2021-11-07T19:10:16UTC 2021-11-07T09:10:16-10:00 2021-11-07T08:10:16-11:00  21.31291 -157.88841     251   0.0 Hikianalia
  2021-11-07T18:28:10UTC 2021-11-07T08:28:10-10:00 2021-11-07T07:28:10-11:00  21.31306 -157.88873     298   0.0 Hōkūleʻa
  2021-11-07T18:10:44UTC 2021-11-07T08:10:44-10:00 2021-11-07T07:10:44-11:00  21.31293 -157.88834     149   0.0 Hikianalia
  2021-11-07T17:18:44UTC 2021-11-07T07:18:44-10:00 2021-11-07T06:18:44-11:00  21.31298 -157.88858     121   0.0 Hōkūleʻa
  2021-11-07T17:10:15UTC 2021-11-07T07:10:15-10:00 2021-11-07T06:10:15-11:00  21.31296 -157.88836      62   0.0 Hikianalia
  2021-11-07T16:17:46UTC 2021-11-07T06:17:46-10:00 2021-11-07T05:17:46-11:00  21.31307 -157.88873     299   0.0 Hōkūleʻa
  2021-11-07T15:18:24UTC 2021-11-07T05:18:24-10:00 2021-11-07T04:18:24-11:00  21.31306 -157.88871     298   0.0 Hōkūleʻa
  2021-11-07T15:11:33UTC 2021-11-07T05:11:33-10:00 2021-11-07T04:11:33-11:00  21.31292 -157.88845     229   0.0 Hikianalia
  2021-11-07T14:18:39UTC 2021-11-07T04:18:39-10:00 2021-11-07T03:18:39-11:00  21.31305 -157.88868      64   0.0 Hōkūleʻa
  2021-11-07T14:10:16UTC 2021-11-07T04:10:16-10:00 2021-11-07T03:10:16-11:00  21.31297 -157.88838      17   0.0 Hikianalia
  2021-11-07T13:18:36UTC 2021-11-07T03:18:36-10:00 2021-11-07T02:18:36-11:00  21.31304 -157.88871     180   0.0 Hōkūleʻa
  2021-11-07T13:09:47UTC 2021-11-07T03:09:47-10:00 2021-11-07T02:09:47-11:00  21.31291 -157.88841     317   0.0 Hikianalia
  2021-11-07T12:18:32UTC 2021-11-07T02:18:32-10:00 2021-11-07T01:18:32-11:00  21.31306 -157.88871      90   0.0 Hōkūleʻa
  2021-11-07T12:10:36UTC 2021-11-07T02:10:36-10:00 2021-11-07T01:10:36-11:00  21.31286 -157.88836     165   0.0 Hikianalia
  2021-11-07T11:18:48UTC 2021-11-07T01:18:48-10:00 2021-11-07T00:18:48-11:00  21.31306 -157.88873     180   0.0 Hōkūleʻa
  2021-11-07T11:10:08UTC 2021-11-07T01:10:08-10:00 2021-11-07T00:10:08-11:00  21.31294 -157.88838       0   0.0 Hikianalia
  2021-11-07T10:18:37UTC 2021-11-07T00:18:37-10:00 2021-11-06T23:18:37-11:00  21.31307 -157.88873      43   0.0 Hōkūleʻa
  2021-11-07T10:10:46UTC 2021-11-07T00:10:46-10:00 2021-11-06T23:10:46-11:00  21.31291 -157.88838       0   0.0 Hikianalia
  2021-11-07T09:17:30UTC 2021-11-06T23:17:30-10:00 2021-11-06T22:17:30-11:00  21.31305 -157.88875     255   0.0 Hōkūleʻa
  2021-11-07T09:10:07UTC 2021-11-06T23:10:07-10:00 2021-11-06T22:10:07-11:00  21.31288 -157.88838     223   0.0 Hikianalia
  2021-11-07T08:18:22UTC 2021-11-06T22:18:22-10:00 2021-11-06T21:18:22-11:00  21.31306 -157.88871      90   0.0 Hōkūleʻa
  2021-11-07T08:10:42UTC 2021-11-06T22:10:42-10:00 2021-11-06T21:10:42-11:00  21.31292 -157.88834       0   0.0 Hikianalia
  2021-11-07T07:18:27UTC 2021-11-06T21:18:27-10:00 2021-11-06T20:18:27-11:00  21.31306 -157.88873       0   0.0 Hōkūleʻa
  2021-11-07T07:11:41UTC 2021-11-06T21:11:41-10:00 2021-11-06T20:11:41-11:00  21.31292 -157.88834     159   0.0 Hikianalia
  2021-11-07T06:22:08UTC 2021-11-06T20:22:08-10:00 2021-11-06T19:22:08-11:00  21.31303 -157.88838     126   0.0 Hikianalia
  2021-11-07T06:18:40UTC 2021-11-06T20:18:40-10:00 2021-11-06T19:18:40-11:00  21.31306 -157.88873     152   0.0 Hōkūleʻa
  2021-11-07T05:18:29UTC 2021-11-06T19:18:29-10:00 2021-11-06T18:18:29-11:00  21.31313 -157.88877     308   0.0 Hōkūleʻa
  2021-11-07T05:09:22UTC 2021-11-06T19:09:22-10:00 2021-11-06T18:09:22-11:00  21.31307 -157.88845     345   0.0 Hikianalia
  2021-11-07T04:17:33UTC 2021-11-06T18:17:33-10:00 2021-11-06T17:17:33-11:00  21.31307 -157.88868     136   0.0 Hōkūleʻa
  2021-11-07T04:10:37UTC 2021-11-06T18:10:37-10:00 2021-11-06T17:10:37-11:00  21.31292 -157.88841     223   0.0 Hikianalia
  2021-11-07T03:18:23UTC 2021-11-06T17:18:23-10:00 2021-11-06T16:18:23-11:00  21.31309 -157.88871     223   0.0 Hōkūleʻa
  2021-11-07T03:10:13UTC 2021-11-06T17:10:13-10:00 2021-11-06T16:10:13-11:00  21.31296 -157.88836     270   0.0 Hikianalia
  2021-11-07T02:18:44UTC 2021-11-06T16:18:44-10:00 2021-11-06T15:18:44-11:00  21.31311 -157.88868     317   0.0 Hōkūleʻa
  2021-11-07T02:10:15UTC 2021-11-06T16:10:15-10:00 2021-11-06T15:10:15-11:00  21.31296 -157.88834       0   0.0 Hikianalia
  2021-11-07T01:17:33UTC 2021-11-06T15:17:33-10:00 2021-11-06T14:17:33-11:00  21.31307 -157.88864     105   0.0 Hōkūleʻa
  2021-11-07T01:10:48UTC 2021-11-06T15:10:48-10:00 2021-11-06T14:10:48-11:00  21.31293 -157.88834     160   0.0 Hikianalia
  2021-11-07T00:18:29UTC 2021-11-06T14:18:29-10:00 2021-11-06T13:18:29-11:00  21.31308 -157.88868     137   0.0 Hōkūleʻa
  2021-11-06T23:18:52UTC 2021-11-06T13:18:52-10:00 2021-11-06T12:18:52-11:00  21.31312 -157.88873     328   0.0 Hōkūleʻa
  2021-11-06T22:35:26UTC 2021-11-06T12:35:26-10:00 2021-11-06T11:35:26-11:00  21.31298 -157.88836     162   0.0 Hikianalia
  2021-11-06T22:17:33UTC 2021-11-06T12:17:33-10:00 2021-11-06T11:17:33-11:00  21.31306 -157.88868     349   4.1 Hōkūleʻa
  2021-11-06T21:17:39UTC 2021-11-06T11:17:39-10:00 2021-11-06T10:17:39-11:00  21.24565 -157.87463     154   2.2 Hōkūleʻa
  2021-11-06T20:18:40UTC 2021-11-06T10:18:40-10:00 2021-11-06T09:18:40-11:00  21.27881 -157.89212     185   2.1 Hōkūleʻa
  2021-11-06T19:18:42UTC 2021-11-06T09:18:42-10:00 2021-11-06T08:18:42-11:00  21.31306 -157.88883     264   0.0 Hōkūleʻa
  2021-11-06T18:18:45UTC 2021-11-06T08:18:45-10:00 2021-11-06T07:18:45-11:00  21.31307 -157.88873       0   0.0 Hōkūleʻa
  2021-11-06T17:18:30UTC 2021-11-06T07:18:30-10:00 2021-11-06T06:18:30-11:00  21.31307 -157.88873       0   0.0 Hōkūleʻa
  2021-11-06T16:18:41UTC 2021-11-06T06:18:41-10:00 2021-11-06T05:18:41-11:00  21.31306 -157.88873     180   0.0 Hōkūleʻa
  2021-11-06T15:18:38UTC 2021-11-06T05:18:38-10:00 2021-11-06T04:18:38-11:00  21.31308 -157.88873       0   0.0 Hōkūleʻa
  2021-11-06T14:18:26UTC 2021-11-06T04:18:26-10:00 2021-11-06T03:18:26-11:00  21.31307 -157.88873     118   0.0 Hōkūleʻa
  2021-11-06T13:18:24UTC 2021-11-06T03:18:24-10:00 2021-11-06T02:18:24-11:00  21.31308 -157.88875     317   0.0 Hōkūleʻa
  2021-11-06T12:17:47UTC 2021-11-06T02:17:47-10:00 2021-11-06T01:17:47-11:00  21.31306 -157.88873     137   0.0 Hōkūleʻa
  2021-11-06T11:18:30UTC 2021-11-06T01:18:30-10:00 2021-11-06T00:18:30-11:00  21.31308 -157.88875     317   0.0 Hōkūleʻa
  2021-11-06T10:18:25UTC 2021-11-06T00:18:25-10:00 2021-11-05T23:18:25-11:00  21.31306 -157.88873     180   0.0 Hōkūleʻa
  2021-11-06T09:18:31UTC 2021-11-05T23:18:31-10:00 2021-11-05T22:18:31-11:00  21.31307 -157.88873       0   0.0 Hōkūleʻa
  2021-11-06T08:18:47UTC 2021-11-05T22:18:47-10:00 2021-11-05T21:18:47-11:00  21.31307 -157.88873       0   0.0 Hōkūleʻa
  2021-11-06T07:18:24UTC 2021-11-05T21:18:24-10:00 2021-11-05T20:18:24-11:00  21.31307 -157.88873       0   0.0 Hōkūleʻa
  2021-11-06T06:18:32UTC 2021-11-05T20:18:32-10:00 2021-11-05T19:18:32-11:00  21.31305 -157.88873     180   0.0 Hōkūleʻa
  2021-11-06T05:18:30UTC 2021-11-05T19:18:30-10:00 2021-11-05T18:18:30-11:00  21.31309 -157.88873       0   0.0 Hōkūleʻa
  2021-11-06T04:18:44UTC 2021-11-05T18:18:44-10:00 2021-11-05T17:18:44-11:00  21.31309 -157.88873     321   0.0 Hōkūleʻa
  2021-11-06T03:18:56UTC 2021-11-05T17:18:56-10:00 2021-11-05T16:18:56-11:00  21.31302 -157.88866     169   0.0 Hōkūleʻa
  2021-11-06T02:26:27UTC 2021-11-05T16:26:27-10:00 2021-11-05T15:26:27-11:00  21.31311 -157.88868      43   0.0 Hōkūleʻa
  2021-11-06T01:18:33UTC 2021-11-05T15:18:33-10:00 2021-11-05T14:18:33-11:00  21.31309 -157.88871     119   0.0 Hōkūleʻa
  2021-11-06T00:17:46UTC 2021-11-05T14:17:46-10:00 2021-11-05T13:17:46-11:00  21.31310 -157.88873     217   0.0 Hōkūleʻa
  2021-11-05T23:17:30UTC 2021-11-05T13:17:30-10:00 2021-11-05T12:17:30-11:00  21.31315 -157.88868      32   0.0 Hōkūleʻa
  2021-11-05T22:18:26UTC 2021-11-05T12:18:26-10:00 2021-11-05T11:18:26-11:00  21.31309 -157.88873      44   0.0 Hōkūleʻa
  2021-11-05T21:26:34UTC 2021-11-05T11:26:34-10:00 2021-11-05T10:26:34-11:00  21.31307 -157.88875     270   0.0 Hōkūleʻa
  2021-11-05T20:17:47UTC 2021-11-05T10:17:47-10:00 2021-11-05T09:17:47-11:00  21.31307 -157.88873     180   0.0 Hōkūleʻa
  2021-11-05T19:18:35UTC 2021-11-05T09:18:35-10:00 2021-11-05T08:18:35-11:00  21.31308 -157.88873       0   0.0 Hōkūleʻa
  2021-11-05T18:18:28UTC 2021-11-05T08:18:28-10:00 2021-11-05T07:18:28-11:00  21.31307 -157.88873     180   0.0 Hōkūleʻa
  2021-11-05T17:18:22UTC 2021-11-05T07:18:22-10:00 2021-11-05T06:18:22-11:00  21.31308 -157.88873       0   0.0 Hōkūleʻa
  2021-11-05T16:18:49UTC 2021-11-05T06:18:49-10:00 2021-11-05T05:18:49-11:00  21.31307 -157.88873     105   0.0 Hōkūleʻa
  2021-11-05T15:18:34UTC 2021-11-05T05:18:34-10:00 2021-11-05T04:18:34-11:00  21.31308 -157.88877     270   0.0 Hōkūleʻa
  2021-11-05T14:18:38UTC 2021-11-05T04:18:38-10:00 2021-11-05T03:18:38-11:00  21.31308 -157.88875     270   0.0 Hōkūleʻa
  2021-11-05T13:18:25UTC 2021-11-05T03:18:25-10:00 2021-11-05T02:18:25-11:00  21.31308 -157.88873      43   0.0 Hōkūleʻa
  2021-11-05T12:17:48UTC 2021-11-05T02:17:48-10:00 2021-11-05T01:17:48-11:00  21.31306 -157.88875      43   0.0 Hōkūleʻa
  2021-11-05T11:18:27UTC 2021-11-05T01:18:27-10:00 2021-11-05T00:18:27-11:00  21.31304 -157.88877     256   0.0 Hōkūleʻa
  2021-11-05T10:18:27UTC 2021-11-05T00:18:27-10:00 2021-11-04T23:18:27-11:00  21.31305 -157.88873     180   0.0 Hōkūleʻa
  2021-11-05T09:18:33UTC 2021-11-04T23:18:33-10:00 2021-11-04T22:18:33-11:00  21.31307 -157.88873     180   0.0 Hōkūleʻa
  2021-11-05T08:18:46UTC 2021-11-04T22:18:46-10:00 2021-11-04T21:18:46-11:00  21.31308 -157.88873     299   0.0 Hōkūleʻa
  2021-11-05T07:18:25UTC 2021-11-04T21:18:25-10:00 2021-11-04T20:18:25-11:00  21.31307 -157.88871      61   0.0 Hōkūleʻa
  2021-11-05T06:18:32UTC 2021-11-04T20:18:32-10:00 2021-11-04T19:18:32-11:00  21.31306 -157.88873     180   0.0 Hōkūleʻa
  2021-11-05T05:18:30UTC 2021-11-04T19:18:30-10:00 2021-11-04T18:18:30-11:00  21.31307 -157.88873       0   0.0 Hōkūleʻa
  2021-11-05T04:18:48UTC 2021-11-04T18:18:48-10:00 2021-11-04T17:18:48-11:00  21.31307 -157.88873     180   0.0 Hōkūleʻa
  2021-11-05T03:17:29UTC 2021-11-04T17:17:29-10:00 2021-11-04T16:17:29-11:00  21.31308 -157.88873       0   0.0 Hōkūleʻa
  2021-11-05T02:18:21UTC 2021-11-04T16:18:21-10:00 2021-11-04T15:18:21-11:00  21.31308 -157.88873       0   0.0 Hōkūleʻa
  2021-11-05T01:26:54UTC 2021-11-04T15:26:54-10:00 2021-11-04T14:26:54-11:00  21.31307 -157.88873     180   0.0 Hōkūleʻa
  2021-11-05T00:18:40UTC 2021-11-04T14:18:40-10:00 2021-11-04T13:18:40-11:00  21.31309 -157.88873     282   0.0 Hōkūleʻa
  2021-11-04T23:17:29UTC 2021-11-04T13:17:29-10:00 2021-11-04T12:17:29-11:00  21.31307 -157.88862      90   0.0 Hōkūleʻa
  2021-11-04T22:18:32UTC 2021-11-04T12:18:32-10:00 2021-11-04T11:18:32-11:00  21.31307 -157.88868     147   0.0 Hōkūleʻa
  2021-11-04T21:17:24UTC 2021-11-04T11:17:24-10:00 2021-11-04T10:17:24-11:00  21.31310 -157.88871      43   0.0 Hōkūleʻa
  2021-11-04T20:17:56UTC 2021-11-04T10:17:56-10:00 2021-11-04T09:17:56-11:00  21.31308 -157.88873     270   0.0 Hōkūleʻa
  2021-11-04T19:18:28UTC 2021-11-04T09:18:28-10:00 2021-11-04T08:18:28-11:00  21.31308 -157.88868      62   0.0 Hōkūleʻa
  2021-11-04T18:18:24UTC 2021-11-04T08:18:24-10:00 2021-11-04T07:18:24-11:00  21.31307 -157.88871      90   0.0 Hōkūleʻa
  2021-11-04T17:18:31UTC 2021-11-04T07:18:31-10:00 2021-11-04T06:18:31-11:00  21.31307 -157.88873       0   0.0 Hōkūleʻa
  2021-11-04T16:18:47UTC 2021-11-04T06:18:47-10:00 2021-11-04T05:18:47-11:00  21.31307 -157.88873     118   0.0 Hōkūleʻa
  2021-11-04T15:18:32UTC 2021-11-04T05:18:32-10:00 2021-11-04T04:18:32-11:00  21.31308 -157.88875     298   0.0 Hōkūleʻa
  2021-11-04T14:18:29UTC 2021-11-04T04:18:29-10:00 2021-11-04T03:18:29-11:00  21.31307 -157.88873       0   0.0 Hōkūleʻa
  2021-11-04T13:25:01UTC 2021-11-04T03:25:01-10:00 2021-11-04T02:25:01-11:00  21.31307 -157.88873       0   0.0 Hōkūleʻa
  2021-11-04T12:18:48UTC 2021-11-04T02:18:48-10:00 2021-11-04T01:18:48-11:00  21.31307 -157.88873     237   0.0 Hōkūleʻa
  2021-11-04T11:18:35UTC 2021-11-04T01:18:35-10:00 2021-11-04T00:18:35-11:00  21.31313 -157.88862      57   0.0 Hōkūleʻa
  2021-11-04T10:17:33UTC 2021-11-04T00:17:33-10:00 2021-11-03T23:17:33-11:00  21.31308 -157.88871      90   0.0 Hōkūleʻa
  2021-11-04T09:18:22UTC 2021-11-03T23:18:22-10:00 2021-11-03T22:18:22-11:00  21.31308 -157.88875     270   0.0 Hōkūleʻa
  2021-11-04T08:18:39UTC 2021-11-03T22:18:39-10:00 2021-11-03T21:18:39-11:00  21.31308 -157.88873       0   0.0 Hōkūleʻa
  2021-11-04T07:18:38UTC 2021-11-03T21:18:38-10:00 2021-11-03T20:18:38-11:00  21.31307 -157.88873     180   0.0 Hōkūleʻa
  2021-11-04T06:18:33UTC 2021-11-03T20:18:33-10:00 2021-11-03T19:18:33-11:00  21.31309 -157.88873     180   0.0 Hōkūleʻa
  2021-11-04T05:18:31UTC 2021-11-03T19:18:31-10:00 2021-11-03T18:18:31-11:00  21.31310 -157.88873       0   0.0 Hōkūleʻa
  2021-11-04T04:18:41UTC 2021-11-03T18:18:41-10:00 2021-11-03T17:18:41-11:00  21.31308 -157.88873     304   0.0 Hōkūleʻa
  2021-11-04T03:18:37UTC 2021-11-03T17:18:37-10:00 2021-11-03T16:18:37-11:00  21.31303 -157.88864     118   0.0 Hōkūleʻa
  2021-11-04T02:17:23UTC 2021-11-03T16:17:23-10:00 2021-11-03T15:17:23-11:00  21.31307 -157.88873     234   0.0 Hōkūleʻa
  2021-11-04T01:18:30UTC 2021-11-03T15:18:30-10:00 2021-11-03T14:18:30-11:00  21.31311 -157.88866      80   0.0 Hōkūleʻa
  2021-11-04T00:17:41UTC 2021-11-03T14:17:41-10:00 2021-11-03T13:17:41-11:00  21.31310 -157.88873     180   0.0 Hōkūleʻa
  2021-11-03T23:18:33UTC 2021-11-03T13:18:33-10:00 2021-11-03T12:18:33-11:00  21.31314 -157.88873     335   0.0 Hōkūleʻa
  2021-11-03T22:17:31UTC 2021-11-03T12:17:31-10:00 2021-11-03T11:17:31-11:00  21.31310 -157.88871      61   0.0 Hōkūleʻa
  2021-11-03T21:18:22UTC 2021-11-03T11:18:22-10:00 2021-11-03T10:18:22-11:00  21.31309 -157.88873     118   0.0 Hōkūleʻa
  2021-11-03T20:17:38UTC 2021-11-03T10:17:38-10:00 2021-11-03T09:17:38-11:00  21.31310 -157.88875       0   0.0 Hōkūleʻa
  2021-11-03T19:18:33UTC 2021-11-03T09:18:33-10:00 2021-11-03T08:18:33-11:00  21.31309 -157.88875     339   0.0 Hōkūleʻa
  2021-11-03T18:18:32UTC 2021-11-03T08:18:32-10:00 2021-11-03T07:18:32-11:00  21.31304 -157.88873     180   0.0 Hōkūleʻa
  2021-11-03T17:18:45UTC 2021-11-03T07:18:45-10:00 2021-11-03T06:18:45-11:00  21.31307 -157.88873     180   0.0 Hōkūleʻa
  2021-11-03T16:18:24UTC 2021-11-03T06:18:24-10:00 2021-11-03T05:18:24-11:00  21.31308 -157.88873       0   0.0 Hōkūleʻa
  2021-11-03T15:18:23UTC 2021-11-03T05:18:23-10:00 2021-11-03T04:18:23-11:00  21.31307 -157.88873       0   0.0 Hōkūleʻa
  2021-11-03T14:18:47UTC 2021-11-03T04:18:47-10:00 2021-11-03T03:18:47-11:00  21.31306 -157.88873     147   0.0 Hōkūleʻa
  2021-11-03T13:18:26UTC 2021-11-03T03:18:26-10:00 2021-11-03T02:18:26-11:00  21.31309 -157.88875     316   0.0 Hōkūleʻa
  2021-11-03T12:18:33UTC 2021-11-03T02:18:33-10:00 2021-11-03T01:18:33-11:00  21.31307 -157.88873       0   0.0 Hōkūleʻa
  2021-11-03T11:18:32UTC 2021-11-03T01:18:32-10:00 2021-11-03T00:18:32-11:00  21.31307 -157.88873       0   0.0 Hōkūleʻa
  2021-11-03T10:18:37UTC 2021-11-03T00:18:37-10:00 2021-11-02T23:18:37-11:00  21.31306 -157.88873     180   0.0 Hōkūleʻa
  2021-11-03T09:18:38UTC 2021-11-02T23:18:38-10:00 2021-11-02T22:18:38-11:00  21.31307 -157.88873     270   0.0 Hōkūleʻa
  2021-11-03T08:18:22UTC 2021-11-02T22:18:22-10:00 2021-11-02T21:18:22-11:00  21.31307 -157.88871      90   0.0 Hōkūleʻa
  2021-11-03T07:18:32UTC 2021-11-02T21:18:32-10:00 2021-11-02T20:18:32-11:00  21.31307 -157.88875     270   0.0 Hōkūleʻa
  2021-11-03T06:17:48UTC 2021-11-02T20:17:48-10:00 2021-11-02T19:17:48-11:00  21.31307 -157.88873     154   0.0 Hōkūleʻa
  2021-11-03T05:18:22UTC 2021-11-02T19:18:22-10:00 2021-11-02T18:18:22-11:00  21.31311 -157.88875     317   0.0 Hōkūleʻa
  2021-11-03T04:18:24UTC 2021-11-02T18:18:24-10:00 2021-11-02T17:18:24-11:00  21.31309 -157.88873       0   0.0 Hōkūleʻa
  2021-11-03T03:28:51UTC 2021-11-02T17:28:51-10:00 2021-11-02T16:28:51-11:00  21.31308 -157.88873     243   0.0 Hōkūleʻa
  2021-11-03T02:17:45UTC 2021-11-02T16:17:45-10:00 2021-11-02T15:17:45-11:00  21.31309 -157.88871     339   0.0 Hōkūleʻa
  2021-11-03T01:18:25UTC 2021-11-02T15:18:25-10:00 2021-11-02T14:18:25-11:00  21.31304 -157.88868     136   0.0 Hōkūleʻa
  2021-11-03T00:18:33UTC 2021-11-02T14:18:33-10:00 2021-11-02T13:18:33-11:00  21.31306 -157.88871     180   0.0 Hōkūleʻa
  2021-11-02T23:18:32UTC 2021-11-02T13:18:32-10:00 2021-11-02T12:18:32-11:00  21.31309 -157.88871      63   0.0 Hōkūleʻa
  2021-11-02T22:17:41UTC 2021-11-02T12:17:41-10:00 2021-11-02T11:17:41-11:00  21.31308 -157.88873     318   0.0 Hōkūleʻa
  2021-11-02T21:25:37UTC 2021-11-02T11:25:37-10:00 2021-11-02T10:25:37-11:00  21.31306 -157.88871     119   0.0 Hōkūleʻa
  2021-11-02T20:17:30UTC 2021-11-02T10:17:30-10:00 2021-11-02T09:17:30-11:00  21.31307 -157.88873       0   0.0 Hōkūleʻa
  2021-11-02T19:18:24UTC 2021-11-02T09:18:24-10:00 2021-11-02T08:18:24-11:00  21.31307 -157.88873     180   0.0 Hōkūleʻa
  2021-11-02T18:17:40UTC 2021-11-02T08:17:40-10:00 2021-11-02T07:17:40-11:00  21.31308 -157.88873     180   0.0 Hōkūleʻa
  2021-11-02T17:18:22UTC 2021-11-02T07:18:22-10:00 2021-11-02T06:18:22-11:00  21.31309 -157.88873       0   0.0 Hōkūleʻa
  2021-11-02T16:18:24UTC 2021-11-02T06:18:24-10:00 2021-11-02T05:18:24-11:00  21.31308 -157.88873       0   0.0 Hōkūleʻa
  2021-11-02T15:18:41UTC 2021-11-02T05:18:41-10:00 2021-11-02T04:18:41-11:00  21.31307 -157.88873       0   0.0 Hōkūleʻa
  2021-11-02T14:19:37UTC 2021-11-02T04:19:37-10:00 2021-11-02T03:19:37-11:00  21.31306 -157.88873     180   0.0 Hōkūleʻa
  2021-11-02T13:17:43UTC 2021-11-02T03:17:43-10:00 2021-11-02T02:17:43-11:00  21.31307 -157.88873       0   0.0 Hōkūleʻa
  2021-11-02T12:18:41UTC 2021-11-02T02:18:41-10:00 2021-11-02T01:18:41-11:00  21.31306 -157.88873       0   0.0 Hōkūleʻa
  2021-11-02T11:18:30UTC 2021-11-02T01:18:30-10:00 2021-11-02T00:18:30-11:00  21.31304 -157.88873     136   0.0 Hōkūleʻa
  2021-11-02T10:18:25UTC 2021-11-02T00:18:25-10:00 2021-11-01T23:18:25-11:00  21.31306 -157.88875     242   0.0 Hōkūleʻa
  2021-11-02T09:18:49UTC 2021-11-01T23:18:49-10:00 2021-11-01T22:18:49-11:00  21.31307 -157.88873     242   0.0 Hōkūleʻa
  2021-11-02T08:18:22UTC 2021-11-01T22:18:22-10:00 2021-11-01T21:18:22-11:00  21.31309 -157.88868      76   0.0 Hōkūleʻa
  2021-11-02T07:17:33UTC 2021-11-01T21:17:33-10:00 2021-11-01T20:17:33-11:00  21.31308 -157.88873       0   0.0 Hōkūleʻa
  2021-11-02T06:18:40UTC 2021-11-01T20:18:40-10:00 2021-11-01T19:18:40-11:00  21.31308 -157.88873     180   0.0 Hōkūleʻa
  2021-11-02T05:18:30UTC 2021-11-01T19:18:30-10:00 2021-11-01T18:18:30-11:00  21.31312 -157.88873     335   0.0 Hōkūleʻa
  2021-11-02T04:18:34UTC 2021-11-01T18:18:34-10:00 2021-11-01T17:18:34-11:00  21.31308 -157.88871     148   0.0 Hōkūleʻa
  2021-11-02T03:18:47UTC 2021-11-01T17:18:47-10:00 2021-11-01T16:18:47-11:00  21.31311 -157.88873     270   0.0 Hōkūleʻa
  2021-11-02T02:18:29UTC 2021-11-01T16:18:29-10:00 2021-11-01T15:18:29-11:00  21.31311 -157.88868      90   0.0 Hōkūleʻa
  2021-11-02T01:17:31UTC 2021-11-01T15:17:31-10:00 2021-11-01T14:17:31-11:00  21.31311 -157.88873       0   0.0 Hōkūleʻa
  2021-11-02T00:18:40UTC 2021-11-01T14:18:40-10:00 2021-11-01T13:18:40-11:00  21.31311 -157.88873     159   0.0 Hōkūleʻa
  2021-11-01T23:17:30UTC 2021-11-01T13:17:30-10:00 2021-11-01T12:17:30-11:00  21.31317 -157.88875     328   0.0 Hōkūleʻa
  2021-11-01T22:18:33UTC 2021-11-01T12:18:33-10:00 2021-11-01T11:18:33-11:00  21.31310 -157.88871     119   0.0 Hōkūleʻa
  2021-11-01T21:17:32UTC 2021-11-01T11:17:32-10:00 2021-11-01T10:17:32-11:00  21.31311 -157.88873       0   0.0 Hōkūleʻa
  2021-11-01T20:18:46UTC 2021-11-01T10:18:46-10:00 2021-11-01T09:18:46-11:00  21.31309 -157.88873      44   0.0 Hōkūleʻa
  2021-11-01T19:17:33UTC 2021-11-01T09:17:33-10:00 2021-11-01T08:17:33-11:00  21.31307 -157.88875     255   0.0 Hōkūleʻa
  2021-11-01T18:18:24UTC 2021-11-01T08:18:24-10:00 2021-11-01T07:18:24-11:00  21.31308 -157.88871      42   0.0 Hōkūleʻa
  2021-11-01T17:18:31UTC 2021-11-01T07:18:31-10:00 2021-11-01T06:18:31-11:00  21.31306 -157.88873     180   0.0 Hōkūleʻa
  2021-11-01T16:18:45UTC 2021-11-01T06:18:45-10:00 2021-11-01T05:18:45-11:00  21.31307 -157.88873     298   0.0 Hōkūleʻa
  2021-11-01T15:18:33UTC 2021-11-01T05:18:33-10:00 2021-11-01T04:18:33-11:00  21.31304 -157.88866     104   0.0 Hōkūleʻa
  2021-11-01T14:18:28UTC 2021-11-01T04:18:28-10:00 2021-11-01T03:18:28-11:00  21.31305 -157.88871     138   0.0 Hōkūleʻa
  2021-11-01T13:18:24UTC 2021-11-01T03:18:24-10:00 2021-11-01T02:18:24-11:00  21.31307 -157.88873       0   0.0 Hōkūleʻa
  2021-11-01T12:18:39UTC 2021-11-01T02:18:39-10:00 2021-11-01T01:18:39-11:00  21.31306 -157.88873       0   0.0 Hōkūleʻa
  2021-11-01T11:26:56UTC 2021-11-01T01:26:56-10:00 2021-11-01T00:26:56-11:00  21.31306 -157.88873       0   0.0 Hōkūleʻa
  2021-11-01T10:18:33UTC 2021-11-01T00:18:33-10:00 2021-10-31T23:18:33-11:00  21.31306 -157.88873     137   0.0 Hōkūleʻa
  2021-11-01T09:18:32UTC 2021-10-31T23:18:32-10:00 2021-10-31T22:18:32-11:00  21.31308 -157.88875     244   0.0 Hōkūleʻa
  2021-11-01T08:18:39UTC 2021-10-31T22:18:39-10:00 2021-10-31T21:18:39-11:00  21.31309 -157.88873     335   0.0 Hōkūleʻa
  2021-11-01T07:18:28UTC 2021-10-31T21:18:28-10:00 2021-10-31T20:18:28-11:00  21.31305 -157.88871     138   0.0 Hōkūleʻa
  2021-11-01T06:18:33UTC 2021-10-31T20:18:33-10:00 2021-10-31T19:18:33-11:00  21.31307 -157.88873     180   0.0 Hōkūleʻa
  2021-11-01T05:18:32UTC 2021-10-31T19:18:32-10:00 2021-10-31T18:18:32-11:00  21.31310 -157.88873     317   0.0 Hōkūleʻa
  2021-11-01T04:18:44UTC 2021-10-31T18:18:44-10:00 2021-10-31T17:18:44-11:00  21.31308 -157.88871       0   0.0 Hōkūleʻa
  2021-11-01T03:18:33UTC 2021-10-31T17:18:33-10:00 2021-10-31T16:18:33-11:00  21.31308 -157.88871     232   0.0 Hōkūleʻa
  2021-11-01T02:17:29UTC 2021-10-31T16:17:29-10:00 2021-10-31T15:17:29-11:00  21.31311 -157.88866      37   0.0 Hōkūleʻa
  2021-11-01T01:18:24UTC 2021-10-31T15:18:24-10:00 2021-10-31T14:18:24-11:00  21.31306 -157.88871     163   0.0 Hōkūleʻa
  2021-11-01T00:17:41UTC 2021-10-31T14:17:41-10:00 2021-10-31T13:17:41-11:00  21.31312 -157.88873     318   0.0 Hōkūleʻa
  2021-10-31T23:17:28UTC 2021-10-31T13:17:28-10:00 2021-10-31T12:17:28-11:00  21.31310 -157.88871       0   0.0 Hōkūleʻa
  2021-10-31T22:18:25UTC 2021-10-31T12:18:25-10:00 2021-10-31T11:18:25-11:00  21.31310 -157.88871      61   0.0 Hōkūleʻa
  2021-10-31T21:17:30UTC 2021-10-31T11:17:30-10:00 2021-10-31T10:17:30-11:00  21.31309 -157.88873       0   0.0 Hōkūleʻa
  2021-10-31T20:17:38UTC 2021-10-31T10:17:38-10:00 2021-10-31T09:17:38-11:00  21.31307 -157.88873      61   0.0 Hōkūleʻa
  2021-10-31T19:18:20UTC 2021-10-31T09:18:20-10:00 2021-10-31T08:18:20-11:00  21.31305 -157.88877     241   0.0 Hōkūleʻa
  2021-10-31T18:18:32UTC 2021-10-31T08:18:32-10:00 2021-10-31T07:18:32-11:00  21.31307 -157.88873     118   0.0 Hōkūleʻa
  2021-10-31T17:24:30UTC 2021-10-31T07:24:30-10:00 2021-10-31T06:24:30-11:00  21.31308 -157.88875     270   0.0 Hōkūleʻa
  2021-10-31T16:18:41UTC 2021-10-31T06:18:41-10:00 2021-10-31T05:18:41-11:00  21.31308 -157.88873      90   0.0 Hōkūleʻa
  2021-10-31T15:18:37UTC 2021-10-31T05:18:37-10:00 2021-10-31T04:18:37-11:00  21.31308 -157.88875     298   0.0 Hōkūleʻa
  2021-10-31T14:18:30UTC 2021-10-31T04:18:30-10:00 2021-10-31T03:18:30-11:00  21.31307 -157.88873       0   0.0 Hōkūleʻa
  2021-10-31T13:19:27UTC 2021-10-31T03:19:27-10:00 2021-10-31T02:19:27-11:00  21.31305 -157.88873     180   0.0 Hōkūleʻa
  2021-10-31T12:18:48UTC 2021-10-31T02:18:48-10:00 2021-10-31T01:18:48-11:00  21.31306 -157.88873     105   0.0 Hōkūleʻa
  2021-10-31T11:18:41UTC 2021-10-31T01:18:41-10:00 2021-10-31T00:18:41-11:00  21.31307 -157.88877     299   0.0 Hōkūleʻa
  2021-10-31T10:18:25UTC 2021-10-31T00:18:25-10:00 2021-10-30T23:18:25-11:00  21.31305 -157.88873     180   0.0 Hōkūleʻa
  2021-10-31T09:17:32UTC 2021-10-30T23:17:32-10:00 2021-10-30T22:17:32-11:00  21.31307 -157.88873       0   0.0 Hōkūleʻa
  2021-10-31T08:18:41UTC 2021-10-30T22:18:41-10:00 2021-10-30T21:18:41-11:00  21.31307 -157.88873      90   0.0 Hōkūleʻa
  2021-10-31T07:18:29UTC 2021-10-30T21:18:29-10:00 2021-10-30T20:18:29-11:00  21.31307 -157.88875     224   0.0 Hōkūleʻa
  2021-10-31T06:18:33UTC 2021-10-30T20:18:33-10:00 2021-10-30T19:18:33-11:00  21.31309 -157.88873     180   0.0 Hōkūleʻa
  2021-10-31T05:18:33UTC 2021-10-30T19:18:33-10:00 2021-10-30T18:18:33-11:00  21.31310 -157.88873       0   0.0 Hōkūleʻa
  2021-10-31T04:18:37UTC 2021-10-30T18:18:37-10:00 2021-10-30T17:18:37-11:00  21.31308 -157.88873      72   0.0 Hōkūleʻa
  2021-10-31T03:18:38UTC 2021-10-30T17:18:38-10:00 2021-10-30T16:18:38-11:00  21.31305 -157.88883     231   0.0 Hōkūleʻa
  2021-10-31T02:18:30UTC 2021-10-30T16:18:30-10:00 2021-10-30T15:18:30-11:00  21.31314 -157.88871     348   0.0 Hōkūleʻa
  2021-10-31T01:18:32UTC 2021-10-30T15:18:32-10:00 2021-10-30T14:18:32-11:00  21.31305 -157.88868     129   0.0 Hōkūleʻa
  2021-10-31T00:17:48UTC 2021-10-30T14:17:48-10:00 2021-10-30T13:17:48-11:00  21.31308 -157.88873     242   0.0 Hōkūleʻa
  2021-10-30T23:17:35UTC 2021-10-30T13:17:35-10:00 2021-10-30T12:17:35-11:00  21.31310 -157.88868      80   0.0 Hōkūleʻa
  2021-10-30T22:18:25UTC 2021-10-30T12:18:25-10:00 2021-10-30T11:18:25-11:00  21.31309 -157.88875     270   0.0 Hōkūleʻa
  2021-10-30T21:17:32UTC 2021-10-30T11:17:32-10:00 2021-10-30T10:17:32-11:00  21.31309 -157.88873       0   0.0 Hōkūleʻa
  2021-10-30T20:18:48UTC 2021-10-30T10:18:48-10:00 2021-10-30T09:18:48-11:00  21.31308 -157.88873     270   0.0 Hōkūleʻa
  2021-10-30T19:17:31UTC 2021-10-30T09:17:31-10:00 2021-10-30T08:17:31-11:00  21.31308 -157.88862      90   0.0 Hōkūleʻa
  2021-10-30T18:18:24UTC 2021-10-30T08:18:24-10:00 2021-10-30T07:18:24-11:00  21.31308 -157.88873       0   0.0 Hōkūleʻa
  2021-10-30T17:18:30UTC 2021-10-30T07:18:30-10:00 2021-10-30T06:18:30-11:00  21.31307 -157.88873       0   0.0 Hōkūleʻa
  2021-10-30T16:18:44UTC 2021-10-30T06:18:44-10:00 2021-10-30T05:18:44-11:00  21.31307 -157.88873     118   0.0 Hōkūleʻa
  2021-10-30T15:18:40UTC 2021-10-30T05:18:40-10:00 2021-10-30T04:18:40-11:00  21.31310 -157.88879     289   0.0 Hōkūleʻa
  2021-10-30T14:28:09UTC 2021-10-30T04:28:09-10:00 2021-10-30T03:28:09-11:00  21.31308 -157.88873       0   0.0 Hōkūleʻa
  2021-10-30T13:18:33UTC 2021-10-30T03:18:33-10:00 2021-10-30T02:18:33-11:00  21.31307 -157.88873       0   0.0 Hōkūleʻa
  2021-10-30T12:18:47UTC 2021-10-30T02:18:47-10:00 2021-10-30T01:18:47-11:00  21.31306 -157.88873       0   0.0 Hōkūleʻa
  2021-10-30T11:19:22UTC 2021-10-30T01:19:22-10:00 2021-10-30T00:19:22-11:00  21.31305 -157.88873     180   0.0 Hōkūleʻa
  2021-10-30T10:18:32UTC 2021-10-30T00:18:32-10:00 2021-10-29T23:18:32-11:00  21.31307 -157.88873       0   0.0 Hōkūleʻa
  2021-10-30T09:17:32UTC 2021-10-29T23:17:32-10:00 2021-10-29T22:17:32-11:00  21.31307 -157.88873       0   0.0 Hōkūleʻa
  2021-10-30T08:19:40UTC 2021-10-29T22:19:40-10:00 2021-10-29T21:19:40-11:00  21.31307 -157.88873      90   0.0 Hōkūleʻa
  2021-10-30T07:17:33UTC 2021-10-29T21:17:33-10:00 2021-10-29T20:17:33-11:00  21.31307 -157.88877     255   0.0 Hōkūleʻa
  2021-10-30T06:18:24UTC 2021-10-29T20:18:24-10:00 2021-10-29T19:18:24-11:00  21.31308 -157.88873      90   0.0 Hōkūleʻa
  2021-10-29T18:18:24UTC 2021-10-29T08:18:24-10:00 2021-10-29T07:18:24-11:00  21.31308 -157.88875       0   0.0 Hōkūleʻa
  2021-10-29T17:18:23UTC 2021-10-29T07:18:23-10:00 2021-10-29T06:18:23-11:00  21.31306 -157.88875     223   0.0 Hōkūleʻa
  2021-10-29T16:28:55UTC 2021-10-29T06:28:55-10:00 2021-10-29T05:28:55-11:00  21.31308 -157.88873     314   0.0 Hōkūleʻa
  2021-10-29T15:18:27UTC 2021-10-29T05:18:27-10:00 2021-10-29T04:18:27-11:00  21.31298 -157.88862     131   0.0 Hōkūleʻa
  2021-10-29T14:18:22UTC 2021-10-29T04:18:22-10:00 2021-10-29T03:18:22-11:00  21.31307 -157.88873       0   0.0 Hōkūleʻa
  2021-10-29T13:18:24UTC 2021-10-29T03:18:24-10:00 2021-10-29T02:18:24-11:00  21.31307 -157.88873       0   0.0 Hōkūleʻa
  2021-10-29T12:18:40UTC 2021-10-29T02:18:40-10:00 2021-10-29T01:18:40-11:00  21.31307 -157.88873     205   0.0 Hōkūleʻa
  2021-10-28T23:18:28UTC 2021-10-28T13:18:28-10:00 2021-10-28T12:18:28-11:00  21.31315 -157.88868      32   0.0 Hōkūleʻa
  2021-10-28T22:17:33UTC 2021-10-28T12:17:33-10:00 2021-10-28T11:17:33-11:00  21.31309 -157.88873       0   0.0 Hōkūleʻa
  2021-10-28T21:18:32UTC 2021-10-28T11:18:32-10:00 2021-10-28T10:18:32-11:00  21.31309 -157.88873       0   0.0 Hōkūleʻa
  2021-10-28T20:17:38UTC 2021-10-28T10:17:38-10:00 2021-10-28T09:17:38-11:00  21.31308 -157.88873     270   0.0 Hōkūleʻa
  2021-10-28T19:18:27UTC 2021-10-28T09:18:27-10:00 2021-10-28T08:18:27-11:00  21.31308 -157.88871      42   0.0 Hōkūleʻa
  2021-10-28T18:18:32UTC 2021-10-28T08:18:32-10:00 2021-10-28T07:18:32-11:00  21.31306 -157.88873     180   0.0 Hōkūleʻa
  2021-10-28T17:18:35UTC 2021-10-28T07:18:35-10:00 2021-10-28T06:18:35-11:00  21.31307 -157.88873       0   0.0 Hōkūleʻa
  2021-10-28T16:18:37UTC 2021-10-28T06:18:37-10:00 2021-10-28T05:18:37-11:00  21.31307 -157.88873     303   0.0 Hōkūleʻa
  2021-10-28T15:18:30UTC 2021-10-28T05:18:30-10:00 2021-10-28T04:18:30-11:00  21.31300 -157.88862     127   0.0 Hōkūleʻa
  2021-10-28T14:18:30UTC 2021-10-28T04:18:30-10:00 2021-10-28T03:18:30-11:00  21.31308 -157.88873       0   0.0 Hōkūleʻa
  2021-10-28T13:18:26UTC 2021-10-28T03:18:26-10:00 2021-10-28T02:18:26-11:00  21.31307 -157.88873       0   0.0 Hōkūleʻa
  2021-10-28T12:18:48UTC 2021-10-28T02:18:48-10:00 2021-10-28T01:18:48-11:00  21.31306 -157.88873     200   0.0 Hōkūleʻa
  2021-10-28T11:17:34UTC 2021-10-28T01:17:34-10:00 2021-10-28T00:17:34-11:00  21.31311 -157.88871      20   0.0 Hōkūleʻa
  2021-10-28T10:19:25UTC 2021-10-28T00:19:25-10:00 2021-10-27T23:19:25-11:00  21.31306 -157.88873     180   0.0 Hōkūleʻa
  2021-10-27T22:27:41UTC 2021-10-27T12:27:41-10:00 2021-10-27T11:27:41-11:00  21.31307 -157.88873      90   0.0 Hōkūleʻa
  2021-10-27T20:17:27UTC 2021-10-27T10:17:27-10:00 2021-10-27T09:17:27-11:00  21.31307 -157.88877     270   0.0 Hōkūleʻa
  2021-10-27T19:18:29UTC 2021-10-27T09:18:29-10:00 2021-10-27T08:18:29-11:00  21.31307 -157.88873       0   0.0 Hōkūleʻa
  2021-10-27T18:18:49UTC 2021-10-27T08:18:49-10:00 2021-10-27T07:18:49-11:00  21.31306 -157.88873     119   0.0 Hōkūleʻa
  2021-10-27T17:18:37UTC 2021-10-27T07:18:37-10:00 2021-10-27T06:18:37-11:00  21.31308 -157.88877     290   0.0 Hōkūleʻa
  2021-10-27T16:18:27UTC 2021-10-27T06:18:27-10:00 2021-10-27T05:18:27-11:00  21.31306 -157.88871     138   0.0 Hōkūleʻa
  2021-10-27T15:18:31UTC 2021-10-27T05:18:31-10:00 2021-10-27T04:18:31-11:00  21.31308 -157.88873       0   0.0 Hōkūleʻa
  2021-10-27T14:19:56UTC 2021-10-27T04:19:56-10:00 2021-10-27T03:19:56-11:00  21.31305 -157.88873     180   0.0 Hōkūleʻa
  2021-10-27T13:18:32UTC 2021-10-27T03:18:32-10:00 2021-10-27T02:18:32-11:00  21.31306 -157.88873       0   0.0 Hōkūleʻa
  2021-10-27T12:17:32UTC 2021-10-27T02:17:32-10:00 2021-10-27T01:17:32-11:00  21.31305 -157.88873     180   0.0 Hōkūleʻa
  2021-10-27T11:18:22UTC 2021-10-27T01:18:22-10:00 2021-10-27T00:18:22-11:00  21.31306 -157.88873     180   0.0 Hōkūleʻa
  2021-10-27T10:18:40UTC 2021-10-27T00:18:40-10:00 2021-10-26T23:18:40-11:00  21.31307 -157.88873     270   0.0 Hōkūleʻa
  2021-10-27T09:18:30UTC 2021-10-26T23:18:30-10:00 2021-10-26T22:18:30-11:00  21.31307 -157.88868      90   0.0 Hōkūleʻa
  2021-10-27T08:18:31UTC 2021-10-26T22:18:31-10:00 2021-10-26T21:18:31-11:00  21.31307 -157.88871     119   0.0 Hōkūleʻa
  2021-10-27T07:18:24UTC 2021-10-26T21:18:24-10:00 2021-10-26T20:18:24-11:00  21.31308 -157.88873     180   0.0 Hōkūleʻa
  2021-10-27T06:18:46UTC 2021-10-26T20:18:46-10:00 2021-10-26T19:18:46-11:00  21.31310 -157.88873     180   0.0 Hōkūleʻa
  2021-10-27T05:18:29UTC 2021-10-26T19:18:29-10:00 2021-10-26T18:18:29-11:00  21.31313 -157.88873       0   0.0 Hōkūleʻa
  2021-10-27T04:36:53UTC 2021-10-26T18:36:53-10:00 2021-10-26T17:36:53-11:00  21.31310 -157.88873     299   0.0 Hōkūleʻa
  2021-10-27T03:18:30UTC 2021-10-26T17:18:30-10:00 2021-10-26T16:18:30-11:00  21.31309 -157.88871     242   0.0 Hōkūleʻa
  2021-10-27T02:18:49UTC 2021-10-26T16:18:49-10:00 2021-10-26T15:18:49-11:00  21.31310 -157.88868     147   0.0 Hōkūleʻa
  2021-10-27T01:17:31UTC 2021-10-26T15:17:31-10:00 2021-10-26T14:17:31-11:00  21.31313 -157.88871      43   0.0 Hōkūleʻa
  2021-10-27T00:18:22UTC 2021-10-26T14:18:22-10:00 2021-10-26T13:18:22-11:00  21.31311 -157.88873     270   0.0 Hōkūleʻa
  2021-10-26T23:17:26UTC 2021-10-26T13:17:26-10:00 2021-10-26T12:17:26-11:00  21.31311 -157.88871       0   0.0 Hōkūleʻa
  2021-10-26T22:18:46UTC 2021-10-26T12:18:46-10:00 2021-10-26T11:18:46-11:00  21.31310 -157.88871      37   0.0 Hōkūleʻa
  2021-10-26T21:17:32UTC 2021-10-26T11:17:32-10:00 2021-10-26T10:17:32-11:00  21.31305 -157.88875     180   0.0 Hōkūleʻa
  2021-10-26T20:18:25UTC 2021-10-26T10:18:25-10:00 2021-10-26T09:18:25-11:00  21.31310 -157.88875     316   0.0 Hōkūleʻa
  2021-10-26T19:17:29UTC 2021-10-26T09:17:29-10:00 2021-10-26T08:17:29-11:00  21.31308 -157.88873       0   0.0 Hōkūleʻa
  2021-10-26T18:18:49UTC 2021-10-26T08:18:49-10:00 2021-10-26T07:18:49-11:00  21.31305 -157.88873     270   0.0 Hōkūleʻa
  2021-10-26T17:18:29UTC 2021-10-26T07:18:29-10:00 2021-10-26T06:18:29-11:00  21.31305 -157.88871     138   0.0 Hōkūleʻa
  2021-10-26T16:18:25UTC 2021-10-26T06:18:25-10:00 2021-10-26T05:18:25-11:00  21.31307 -157.88873       0   0.0 Hōkūleʻa
  2021-10-26T15:18:29UTC 2021-10-26T05:18:29-10:00 2021-10-26T04:18:29-11:00  21.31304 -157.88873     180   0.0 Hōkūleʻa
  2021-10-26T14:18:55UTC 2021-10-26T04:18:55-10:00 2021-10-26T03:18:55-11:00  21.31306 -157.88873      90   0.0 Hōkūleʻa
  2021-10-26T13:18:34UTC 2021-10-26T03:18:34-10:00 2021-10-26T02:18:34-11:00  21.31306 -157.88875     270   0.0 Hōkūleʻa
  2021-10-26T12:18:33UTC 2021-10-26T02:18:33-10:00 2021-10-26T01:18:33-11:00  21.31306 -157.88873       0   0.0 Hōkūleʻa
  2021-10-26T11:18:22UTC 2021-10-26T01:18:22-10:00 2021-10-26T00:18:22-11:00  21.31306 -157.88873     180   0.0 Hōkūleʻa
  2021-10-26T10:18:49UTC 2021-10-26T00:18:49-10:00 2021-10-25T23:18:49-11:00  21.31307 -157.88873      80   0.0 Hōkūleʻa
  2021-10-26T09:18:35UTC 2021-10-25T23:18:35-10:00 2021-10-25T22:18:35-11:00  21.31306 -157.88879     262   0.0 Hōkūleʻa
  2021-10-26T08:17:28UTC 2021-10-25T22:17:28-10:00 2021-10-25T21:17:28-11:00  21.31307 -157.88871      61   0.0 Hōkūleʻa
  2021-10-26T07:18:24UTC 2021-10-25T21:18:24-10:00 2021-10-25T20:18:24-11:00  21.31306 -157.88873       0   0.0 Hōkūleʻa
  2021-10-26T06:18:48UTC 2021-10-25T20:18:48-10:00 2021-10-25T19:18:48-11:00  21.31305 -157.88873     180   0.0 Hōkūleʻa
  2021-10-26T05:18:23UTC 2021-10-25T19:18:23-10:00 2021-10-25T18:18:23-11:00  21.31310 -157.88873       0   0.0 Hōkūleʻa
  2021-10-26T04:27:58UTC 2021-10-25T18:27:58-10:00 2021-10-25T17:27:58-11:00  21.31306 -157.88873     180   0.0 Hōkūleʻa
  2021-10-26T03:18:33UTC 2021-10-25T17:18:33-10:00 2021-10-25T16:18:33-11:00  21.31307 -157.88873     241   0.0 Hōkūleʻa
  2021-10-26T02:18:47UTC 2021-10-25T16:18:47-10:00 2021-10-25T15:18:47-11:00  21.31308 -157.88871     131   0.0 Hōkūleʻa
  2021-10-26T01:17:26UTC 2021-10-25T15:17:26-10:00 2021-10-25T14:17:26-11:00  21.31313 -157.88877       0   0.0 Hōkūleʻa
  2021-10-26T00:18:33UTC 2021-10-25T14:18:33-10:00 2021-10-25T13:18:33-11:00  21.31305 -157.88877     241   0.0 Hōkūleʻa
  2021-10-25T23:18:30UTC 2021-10-25T13:18:30-10:00 2021-10-25T12:18:30-11:00  21.31308 -157.88871      90   0.0 Hōkūleʻa
  2021-10-25T22:17:45UTC 2021-10-25T12:17:45-10:00 2021-10-25T11:17:45-11:00  21.31308 -157.88873     180   0.0 Hōkūleʻa
  2021-10-25T21:18:37UTC 2021-10-25T11:18:37-10:00 2021-10-25T10:18:37-11:00  21.31309 -157.88873      26   0.0 Hōkūleʻa
  2021-10-25T20:17:22UTC 2021-10-25T10:17:22-10:00 2021-10-25T09:17:22-11:00  21.31305 -157.88875     223   0.0 Hōkūleʻa
  2021-10-25T19:18:25UTC 2021-10-25T09:18:25-10:00 2021-10-25T08:18:25-11:00  21.31307 -157.88873       0   0.0 Hōkūleʻa
  2021-10-25T18:18:49UTC 2021-10-25T08:18:49-10:00 2021-10-25T07:18:49-11:00  21.31306 -157.88873     118   0.0 Hōkūleʻa
  2021-10-25T17:18:36UTC 2021-10-25T07:18:36-10:00 2021-10-25T06:18:36-11:00  21.31307 -157.88875     270   0.0 Hōkūleʻa
  2021-10-25T16:17:24UTC 2021-10-25T06:17:24-10:00 2021-10-25T05:17:24-11:00  21.31307 -157.88873       0   0.0 Hōkūleʻa
  2021-10-25T15:18:22UTC 2021-10-25T05:18:22-10:00 2021-10-25T04:18:22-11:00  21.31306 -157.88873       0   0.0 Hōkūleʻa
  2021-10-25T14:18:47UTC 2021-10-25T04:18:47-10:00 2021-10-25T03:18:47-11:00  21.31306 -157.88873      62   0.0 Hōkūleʻa
  2021-10-25T13:18:26UTC 2021-10-25T03:18:26-10:00 2021-10-25T02:18:26-11:00  21.31305 -157.88875     242   0.0 Hōkūleʻa
  2021-10-25T12:18:22UTC 2021-10-25T02:18:22-10:00 2021-10-25T01:18:22-11:00  21.31306 -157.88873       0   0.0 Hōkūleʻa
  2021-10-25T11:18:30UTC 2021-10-25T01:18:30-10:00 2021-10-25T00:18:30-11:00  21.31305 -157.88873     180   0.0 Hōkūleʻa
  2021-10-25T10:18:42UTC 2021-10-25T00:18:42-10:00 2021-10-24T23:18:42-11:00  21.31306 -157.88873     180   0.0 Hōkūleʻa
  2021-10-25T09:18:30UTC 2021-10-24T23:18:30-10:00 2021-10-24T22:18:30-11:00  21.31307 -157.88873       0   0.0 Hōkūleʻa
  2021-10-25T08:18:28UTC 2021-10-24T22:18:28-10:00 2021-10-24T21:18:28-11:00  21.31307 -157.88873       0   0.0 Hōkūleʻa
  2021-10-25T07:17:33UTC 2021-10-24T21:17:33-10:00 2021-10-24T20:17:33-11:00  21.31306 -157.88873     180   0.0 Hōkūleʻa
  2021-10-25T06:18:40UTC 2021-10-24T20:18:40-10:00 2021-10-24T19:18:40-11:00  21.31307 -157.88873     328   0.0 Hōkūleʻa
  2021-10-25T05:18:28UTC 2021-10-24T19:18:28-10:00 2021-10-24T18:18:28-11:00  21.31304 -157.88871     180   0.0 Hōkūleʻa
  2021-10-25T04:18:24UTC 2021-10-24T18:18:24-10:00 2021-10-24T17:18:24-11:00  21.31305 -157.88871     138   0.0 Hōkūleʻa
  2021-10-25T03:18:31UTC 2021-10-24T17:18:31-10:00 2021-10-24T16:18:31-11:00  21.31307 -157.88873     241   0.0 Hōkūleʻa
  2021-10-25T02:17:52UTC 2021-10-24T16:17:52-10:00 2021-10-24T15:17:52-11:00  21.31308 -157.88871     180   0.0 Hōkūleʻa
  2021-10-25T01:18:27UTC 2021-10-24T15:18:27-10:00 2021-10-24T14:18:27-11:00  21.31311 -157.88871     317   0.0 Hōkūleʻa
  2021-10-25T00:18:33UTC 2021-10-24T14:18:33-10:00 2021-10-24T13:18:33-11:00  21.31307 -157.88866     105   0.0 Hōkūleʻa
  2021-10-24T23:17:30UTC 2021-10-24T13:17:30-10:00 2021-10-24T12:17:30-11:00  21.31308 -157.88871     180   0.0 Hōkūleʻa
  2021-10-24T22:17:38UTC 2021-10-24T12:17:38-10:00 2021-10-24T11:17:38-11:00  21.31309 -157.88871      71   0.0 Hōkūleʻa
  2021-10-24T21:18:25UTC 2021-10-24T11:18:25-10:00 2021-10-24T10:18:25-11:00  21.31307 -157.88877       0   0.0 Hōkūleʻa
  2021-10-24T20:17:29UTC 2021-10-24T10:17:29-10:00 2021-10-24T09:17:29-11:00  21.31307 -157.88877     280   0.0 Hōkūleʻa
  2021-10-24T19:18:25UTC 2021-10-24T09:18:25-10:00 2021-10-24T08:18:25-11:00  21.31306 -157.88871     119   0.0 Hōkūleʻa
  2021-10-24T18:18:46UTC 2021-10-24T08:18:46-10:00 2021-10-24T07:18:46-11:00  21.31307 -157.88873      90   0.0 Hōkūleʻa
  2021-10-24T17:18:35UTC 2021-10-24T07:18:35-10:00 2021-10-24T06:18:35-11:00  21.31307 -157.88877     318   0.0 Hōkūleʻa
  2021-10-24T16:18:23UTC 2021-10-24T06:18:23-10:00 2021-10-24T05:18:23-11:00  21.31305 -157.88875     270   0.0 Hōkūleʻa
  2021-10-24T15:18:32UTC 2021-10-24T05:18:32-10:00 2021-10-24T04:18:32-11:00  21.31305 -157.88873       0   0.0 Hōkūleʻa
  2021-10-24T14:18:40UTC 2021-10-24T04:18:40-10:00 2021-10-24T03:18:40-11:00  21.31303 -157.88873     180   0.0 Hōkūleʻa
  2021-10-24T13:27:23UTC 2021-10-24T03:27:23-10:00 2021-10-24T02:27:23-11:00  21.31305 -157.88873     270   0.0 Hōkūleʻa
  2021-10-24T12:18:38UTC 2021-10-24T02:18:38-10:00 2021-10-24T01:18:38-11:00  21.31305 -157.88871      90   0.0 Hōkūleʻa
  2021-10-24T11:18:21UTC 2021-10-24T01:18:21-10:00 2021-10-24T00:18:21-11:00  21.31305 -157.88873       0   0.0 Hōkūleʻa
  2021-10-24T10:18:41UTC 2021-10-24T00:18:41-10:00 2021-10-23T23:18:41-11:00  21.31305 -157.88873     180   0.0 Hōkūleʻa
  2021-10-24T09:18:33UTC 2021-10-23T23:18:33-10:00 2021-10-23T22:18:33-11:00  21.31306 -157.88873       0   0.0 Hōkūleʻa
  2021-10-24T08:18:35UTC 2021-10-23T22:18:35-10:00 2021-10-23T21:18:35-11:00  21.31306 -157.88873       0   0.0 Hōkūleʻa
  2021-10-24T07:18:52UTC 2021-10-23T21:18:52-10:00 2021-10-23T20:18:52-11:00  21.31304 -157.88873     180   0.0 Hōkūleʻa
  2021-10-24T06:17:29UTC 2021-10-23T20:17:29-10:00 2021-10-23T19:17:29-11:00  21.31307 -157.88873       0   0.0 Hōkūleʻa
  2021-10-24T05:18:27UTC 2021-10-23T19:18:27-10:00 2021-10-23T18:18:27-11:00  21.31305 -157.88873      48   0.4 Hōkūleʻa
  2021-10-24T04:18:53UTC 2021-10-23T18:18:53-10:00 2021-10-23T17:18:53-11:00  21.30856 -157.89401     358   2.3 Hōkūleʻa
  2021-10-24T03:18:50UTC 2021-10-23T17:18:50-10:00 2021-10-23T16:18:50-11:00  21.26963 -157.89220     184   2.6 Hōkūleʻa
  2021-10-24T02:18:27UTC 2021-10-23T16:18:27-10:00 2021-10-23T15:18:27-11:00  21.31313 -157.88871       0   0.0 Hōkūleʻa
  2021-10-24T01:18:33UTC 2021-10-23T15:18:33-10:00 2021-10-23T14:18:33-11:00  21.31307 -157.88871     119   0.0 Hōkūleʻa
  2021-10-24T00:17:49UTC 2021-10-23T14:17:49-10:00 2021-10-23T13:17:49-11:00  21.31308 -157.88873     299   0.0 Hōkūleʻa
  2021-10-23T23:18:29UTC 2021-10-23T13:18:29-10:00 2021-10-23T12:18:29-11:00  21.31307 -157.88871      90   0.0 Hōkūleʻa
  2021-10-23T22:18:32UTC 2021-10-23T12:18:32-10:00 2021-10-23T11:18:32-11:00  21.31307 -157.88873     180   0.0 Hōkūleʻa
  2021-10-23T21:17:32UTC 2021-10-23T11:17:32-10:00 2021-10-23T10:17:32-11:00  21.31310 -157.88873       0   0.0 Hōkūleʻa
  2021-10-23T20:17:46UTC 2021-10-23T10:17:46-10:00 2021-10-23T09:17:46-11:00  21.31308 -157.88873     318   0.0 Hōkūleʻa
  2021-10-23T19:18:33UTC 2021-10-23T09:18:33-10:00 2021-10-23T08:18:33-11:00  21.31306 -157.88871     138   0.0 Hōkūleʻa
  2021-10-23T18:18:33UTC 2021-10-23T08:18:33-10:00 2021-10-23T07:18:33-11:00  21.31308 -157.88873       0   0.0 Hōkūleʻa
  2021-10-23T17:18:30UTC 2021-10-23T07:18:30-10:00 2021-10-23T06:18:30-11:00  21.31307 -157.88873       0   0.0 Hōkūleʻa
  2021-10-23T16:18:42UTC 2021-10-23T06:18:42-10:00 2021-10-23T05:18:42-11:00  21.31305 -157.88873       0   0.0 Hōkūleʻa
  2021-10-23T15:18:38UTC 2021-10-23T05:18:38-10:00 2021-10-23T04:18:38-11:00  21.31305 -157.88873     180   0.0 Hōkūleʻa
  2021-10-23T14:17:28UTC 2021-10-23T04:17:28-10:00 2021-10-23T03:17:28-11:00  21.31306 -157.88873       0   0.0 Hōkūleʻa
  2021-10-23T13:18:24UTC 2021-10-23T03:18:24-10:00 2021-10-23T02:18:24-11:00  21.31305 -157.88873     180   0.0 Hōkūleʻa
  2021-10-23T12:18:40UTC 2021-10-23T02:18:40-10:00 2021-10-23T01:18:40-11:00  21.31306 -157.88873      33   0.0 Hōkūleʻa
  2021-10-23T11:18:22UTC 2021-10-23T01:18:22-10:00 2021-10-23T00:18:22-11:00  21.31303 -157.88875     180   0.0 Hōkūleʻa
  2021-10-23T10:18:32UTC 2021-10-23T00:18:32-10:00 2021-10-22T23:18:32-11:00  21.31312 -157.88875     334   0.0 Hōkūleʻa
  2021-10-23T09:18:32UTC 2021-10-22T23:18:32-10:00 2021-10-22T22:18:32-11:00  21.31308 -157.88873       0   0.0 Hōkūleʻa
  2021-10-23T08:18:49UTC 2021-10-22T22:18:49-10:00 2021-10-22T21:18:49-11:00  21.31307 -157.88873       0   0.0 Hōkūleʻa
  2021-10-23T07:18:27UTC 2021-10-22T21:18:27-10:00 2021-10-22T20:18:27-11:00  21.31305 -157.88873     180   0.0 Hōkūleʻa
  2021-10-23T06:18:33UTC 2021-10-22T20:18:33-10:00 2021-10-22T19:18:33-11:00  21.31306 -157.88873     180   0.0 Hōkūleʻa
  2021-10-23T05:18:30UTC 2021-10-22T19:18:30-10:00 2021-10-22T18:18:30-11:00  21.31307 -157.88873       0   0.0 Hōkūleʻa
  2021-10-23T04:18:39UTC 2021-10-22T18:18:39-10:00 2021-10-22T17:18:39-11:00  21.31306 -157.88873     241   0.0 Hōkūleʻa
  2021-10-23T03:26:21UTC 2021-10-22T17:26:21-10:00 2021-10-22T16:26:21-11:00  21.31307 -157.88871     180   0.0 Hōkūleʻa
  2021-10-23T02:17:28UTC 2021-10-22T16:17:28-10:00 2021-10-22T15:17:28-11:00  21.31311 -157.88871      42   0.0 Hōkūleʻa
  2021-10-23T01:18:25UTC 2021-10-22T15:18:25-10:00 2021-10-22T14:18:25-11:00  21.31309 -157.88873       0   0.0 Hōkūleʻa
  2021-10-23T00:19:16UTC 2021-10-22T14:19:16-10:00 2021-10-22T13:19:16-11:00  21.31308 -157.88873     285   0.0 Hōkūleʻa
  2021-10-22T23:17:29UTC 2021-10-22T13:17:29-10:00 2021-10-22T12:17:29-11:00  21.31307 -157.88868     118   0.0 Hōkūleʻa
  2021-10-22T22:18:30UTC 2021-10-22T12:18:30-10:00 2021-10-22T11:18:30-11:00  21.31308 -157.88871     180   0.0 Hōkūleʻa
  2021-10-22T21:18:49UTC 2021-10-22T11:18:49-10:00 2021-10-22T10:18:49-11:00  21.31309 -157.88871     279   0.0 Hōkūleʻa
  2021-10-22T20:24:04UTC 2021-10-22T10:24:04-10:00 2021-10-22T09:24:04-11:00  21.31308 -157.88864      82   0.0 Hōkūleʻa
  2021-10-22T19:18:24UTC 2021-10-22T09:18:24-10:00 2021-10-22T08:18:24-11:00  21.31307 -157.88873     180   0.0 Hōkūleʻa
  2021-10-22T18:18:47UTC 2021-10-22T08:18:47-10:00 2021-10-22T07:18:47-11:00  21.31308 -157.88873      90   0.0 Hōkūleʻa
  2021-10-22T17:18:36UTC 2021-10-22T07:18:36-10:00 2021-10-22T06:18:36-11:00  21.31308 -157.88875       0   0.0 Hōkūleʻa
  2021-10-22T16:18:24UTC 2021-10-22T06:18:24-10:00 2021-10-22T05:18:24-11:00  21.31307 -157.88875     298   0.0 Hōkūleʻa
  2021-10-22T15:18:32UTC 2021-10-22T05:18:32-10:00 2021-10-22T04:18:32-11:00  21.31306 -157.88873     180   0.0 Hōkūleʻa
  2021-10-22T14:18:44UTC 2021-10-22T04:18:44-10:00 2021-10-22T03:18:44-11:00  21.31307 -157.88873       0   0.0 Hōkūleʻa
  2021-10-22T13:18:35UTC 2021-10-22T03:18:35-10:00 2021-10-22T02:18:35-11:00  21.31305 -157.88873     180   0.0 Hōkūleʻa
  2021-10-22T12:18:32UTC 2021-10-22T02:18:32-10:00 2021-10-22T01:18:32-11:00  21.31306 -157.88873     180   0.0 Hōkūleʻa
  2021-10-22T11:18:30UTC 2021-10-22T01:18:30-10:00 2021-10-22T00:18:30-11:00  21.31307 -157.88873       0   0.0 Hōkūleʻa
  2021-10-22T10:18:46UTC 2021-10-22T00:18:46-10:00 2021-10-21T23:18:46-11:00  21.31306 -157.88873     255   0.0 Hōkūleʻa
  2021-10-22T09:18:30UTC 2021-10-21T23:18:30-10:00 2021-10-21T22:18:30-11:00  21.31307 -157.88868      90   0.0 Hōkūleʻa
  2021-10-22T08:18:28UTC 2021-10-21T22:18:28-10:00 2021-10-21T21:18:28-11:00  21.31307 -157.88873       0   0.0 Hōkūleʻa
  2021-10-22T07:18:32UTC 2021-10-21T21:18:32-10:00 2021-10-21T20:18:32-11:00  21.31306 -157.88873       0   0.0 Hōkūleʻa
  2021-10-22T06:18:49UTC 2021-10-21T20:18:49-10:00 2021-10-21T19:18:49-11:00  21.31306 -157.88873     148   0.0 Hōkūleʻa
  2021-10-22T05:18:29UTC 2021-10-21T19:18:29-10:00 2021-10-21T18:18:29-11:00  21.31312 -157.88877     323   0.0 Hōkūleʻa
  2021-10-22T04:18:33UTC 2021-10-21T18:18:33-10:00 2021-10-21T17:18:33-11:00  21.31307 -157.88873     180   0.0 Hōkūleʻa
  2021-10-22T03:18:32UTC 2021-10-21T17:18:32-10:00 2021-10-21T16:18:32-11:00  21.31312 -157.88873     299   0.0 Hōkūleʻa
  2021-10-22T02:19:05UTC 2021-10-21T16:19:05-10:00 2021-10-21T15:19:05-11:00  21.31310 -157.88868     105   0.0 Hōkūleʻa
  2021-10-22T01:18:35UTC 2021-10-21T15:18:35-10:00 2021-10-21T14:18:35-11:00  21.31311 -157.88873       0   0.0 Hōkūleʻa
  2021-10-22T00:17:23UTC 2021-10-21T14:17:23-10:00 2021-10-21T13:17:23-11:00  21.31310 -157.88873       0   0.0 Hōkūleʻa
  2021-10-21T23:18:31UTC 2021-10-21T13:18:31-10:00 2021-10-21T12:18:31-11:00  21.31310 -157.88873       0   0.0 Hōkūleʻa
  2021-10-21T22:17:44UTC 2021-10-21T12:17:44-10:00 2021-10-21T11:17:44-11:00  21.31310 -157.88873      78   0.0 Hōkūleʻa
  2021-10-21T21:17:24UTC 2021-10-21T11:17:24-10:00 2021-10-21T10:17:24-11:00  21.31308 -157.88883     270   0.0 Hōkūleʻa
  2021-10-21T20:18:44UTC 2021-10-21T10:18:44-10:00 2021-10-21T09:18:44-11:00  21.31308 -157.88875       0   0.0 Hōkūleʻa
  2021-10-21T19:17:24UTC 2021-10-21T09:17:24-10:00 2021-10-21T08:17:24-11:00  21.31305 -157.88875     270   0.0 Hōkūleʻa
  2021-10-21T18:18:40UTC 2021-10-21T08:18:40-10:00 2021-10-21T07:18:40-11:00  21.31305 -157.88873     270   0.0 Hōkūleʻa
  2021-10-21T17:27:34UTC 2021-10-21T07:27:34-10:00 2021-10-21T06:27:34-11:00  21.31305 -157.88868     110   0.0 Hōkūleʻa
  2021-10-21T16:18:33UTC 2021-10-21T06:18:33-10:00 2021-10-21T05:18:33-11:00  21.31307 -157.88875     298   0.0 Hōkūleʻa
  2021-10-21T15:25:04UTC 2021-10-21T05:25:04-10:00 2021-10-21T04:25:04-11:00  21.31306 -157.88873     180   0.0 Hōkūleʻa
  2021-10-21T14:18:38UTC 2021-10-21T04:18:38-10:00 2021-10-21T03:18:38-11:00  21.31308 -157.88873       0   0.0 Hōkūleʻa
  2021-10-21T13:18:36UTC 2021-10-21T03:18:36-10:00 2021-10-21T02:18:36-11:00  21.31308 -157.88873       0   0.0 Hōkūleʻa
  2021-10-21T12:18:35UTC 2021-10-21T02:18:35-10:00 2021-10-21T01:18:35-11:00  21.31303 -157.88873     180   0.0 Hōkūleʻa
  2021-10-21T11:17:21UTC 2021-10-21T01:17:21-10:00 2021-10-21T00:17:21-11:00  21.31308 -157.88873       0   0.0 Hōkūleʻa
  2021-10-21T10:18:37UTC 2021-10-21T00:18:37-10:00 2021-10-20T23:18:37-11:00  21.31305 -157.88873     255   0.0 Hōkūleʻa
  2021-10-21T09:18:30UTC 2021-10-20T23:18:30-10:00 2021-10-20T22:18:30-11:00  21.31306 -157.88868      90   0.0 Hōkūleʻa
  2021-10-21T08:18:37UTC 2021-10-20T22:18:37-10:00 2021-10-20T21:18:37-11:00  21.31306 -157.88875       0   0.0 Hōkūleʻa
  2021-10-21T07:18:32UTC 2021-10-20T21:18:32-10:00 2021-10-20T20:18:32-11:00  21.31303 -157.88875     206   0.0 Hōkūleʻa
  2021-10-21T06:18:49UTC 2021-10-20T20:18:49-10:00 2021-10-20T19:18:49-11:00  21.31307 -157.88873     328   0.0 Hōkūleʻa
  2021-10-21T05:18:21UTC 2021-10-20T19:18:21-10:00 2021-10-20T18:18:21-11:00  21.31304 -157.88871     117   0.0 Hōkūleʻa
  2021-10-21T04:18:24UTC 2021-10-20T18:18:24-10:00 2021-10-20T17:18:24-11:00  21.31305 -157.88873     205   0.0 Hōkūleʻa
  2021-10-21T03:18:32UTC 2021-10-20T17:18:32-10:00 2021-10-20T16:18:32-11:00  21.31309 -157.88871     119   0.0 Hōkūleʻa
  2021-10-21T02:17:47UTC 2021-10-20T16:17:47-10:00 2021-10-20T15:17:47-11:00  21.31310 -157.88873     118   0.0 Hōkūleʻa
  2021-10-21T01:17:41UTC 2021-10-20T15:17:41-10:00 2021-10-20T14:17:41-11:00  21.31311 -157.88875     327   0.0 Hōkūleʻa
  2021-10-21T00:24:53UTC 2021-10-20T14:24:53-10:00 2021-10-20T13:24:53-11:00  21.31308 -157.88873     223   0.0 Hōkūleʻa
  2021-10-20T23:17:21UTC 2021-10-20T13:17:21-10:00 2021-10-20T12:17:21-11:00  21.31310 -157.88871      43   0.0 Hōkūleʻa
  2021-10-20T22:17:40UTC 2021-10-20T12:17:40-10:00 2021-10-20T11:17:40-11:00  21.31308 -157.88873      85   0.0 Hōkūleʻa
  2021-10-20T21:18:38UTC 2021-10-20T11:18:38-10:00 2021-10-20T10:18:38-11:00  21.31307 -157.88886     265   0.0 Hōkūleʻa
  2021-10-20T20:17:29UTC 2021-10-20T10:17:29-10:00 2021-10-20T09:17:29-11:00  21.31308 -157.88873       0   0.0 Hōkūleʻa
  2021-10-20T19:18:21UTC 2021-10-20T09:18:21-10:00 2021-10-20T08:18:21-11:00  21.31305 -157.88873       0   0.0 Hōkūleʻa
  2021-10-20T18:18:47UTC 2021-10-20T08:18:47-10:00 2021-10-20T07:18:47-11:00  21.31305 -157.88873     282   0.0 Hōkūleʻa
  2021-10-20T17:18:30UTC 2021-10-20T07:18:30-10:00 2021-10-20T06:18:30-11:00  21.31303 -157.88862     112   0.0 Hōkūleʻa
  2021-10-20T16:18:34UTC 2021-10-20T06:18:34-10:00 2021-10-20T05:18:34-11:00  21.31306 -157.88871      90   0.0 Hōkūleʻa
  2021-10-20T15:18:31UTC 2021-10-20T05:18:31-10:00 2021-10-20T04:18:31-11:00  21.31306 -157.88873       0   0.0 Hōkūleʻa
  2021-10-20T14:18:47UTC 2021-10-20T04:18:47-10:00 2021-10-20T03:18:47-11:00  21.31306 -157.88873       0   0.0 Hōkūleʻa
  2021-10-20T13:18:28UTC 2021-10-20T03:18:28-10:00 2021-10-20T02:18:28-11:00  21.31306 -157.88873      62   0.0 Hōkūleʻa
  2021-10-20T12:18:32UTC 2021-10-20T02:18:32-10:00 2021-10-20T01:18:32-11:00  21.31305 -157.88875     223   0.0 Hōkūleʻa
  2021-10-20T11:18:27UTC 2021-10-20T01:18:27-10:00 2021-10-20T00:18:27-11:00  21.31307 -157.88873       0   0.0 Hōkūleʻa
  2021-10-20T10:18:37UTC 2021-10-20T00:18:37-10:00 2021-10-19T23:18:37-11:00  21.31307 -157.88873       0   0.0 Hōkūleʻa
  2021-10-20T09:17:32UTC 2021-10-19T23:17:32-10:00 2021-10-19T22:17:32-11:00  21.31307 -157.88873     318   0.0 Hōkūleʻa
  2021-10-20T08:18:23UTC 2021-10-19T22:18:23-10:00 2021-10-19T21:18:23-11:00  21.31305 -157.88871     105   0.0 Hōkūleʻa
  2021-10-20T07:18:26UTC 2021-10-19T21:18:26-10:00 2021-10-19T20:18:26-11:00  21.31306 -157.88875     298   0.0 Hōkūleʻa
  2021-10-20T06:18:42UTC 2021-10-19T20:18:42-10:00 2021-10-19T19:18:42-11:00  21.31305 -157.88873     148   0.0 Hōkūleʻa
  2021-10-20T05:18:32UTC 2021-10-19T19:18:32-10:00 2021-10-19T18:18:32-11:00  21.31308 -157.88875     270   0.0 Hōkūleʻa
  2021-10-20T04:18:33UTC 2021-10-19T18:18:33-10:00 2021-10-19T17:18:33-11:00  21.31308 -157.88873     242   0.0 Hōkūleʻa
  2021-10-20T03:18:31UTC 2021-10-19T17:18:31-10:00 2021-10-19T16:18:31-11:00  21.31310 -157.88868      62   0.0 Hōkūleʻa
  2021-10-20T02:17:49UTC 2021-10-19T16:17:49-10:00 2021-10-19T15:17:49-11:00  21.31309 -157.88871     260   0.0 Hōkūleʻa
  2021-10-20T01:18:35UTC 2021-10-19T15:18:35-10:00 2021-10-19T14:18:35-11:00  21.31310 -157.88864      90   0.0 Hōkūleʻa
  2021-10-20T00:18:32UTC 2021-10-19T14:18:32-10:00 2021-10-19T13:18:32-11:00  21.31310 -157.88871      25   0.0 Hōkūleʻa
  2021-10-19T23:24:06UTC 2021-10-19T13:24:06-10:00 2021-10-19T12:24:06-11:00  21.31306 -157.88873     180   0.0 Hōkūleʻa
  2021-10-19T22:17:42UTC 2021-10-19T12:17:42-10:00 2021-10-19T11:17:42-11:00  21.31307 -157.88873     136   0.0 Hōkūleʻa
  2021-10-19T21:18:30UTC 2021-10-19T11:18:30-10:00 2021-10-19T10:18:30-11:00  21.31309 -157.88875     296   0.0 Hōkūleʻa
  2021-10-19T20:17:30UTC 2021-10-19T10:17:30-10:00 2021-10-19T09:17:30-11:00  21.31308 -157.88873       0   0.0 Hōkūleʻa
  2021-10-19T19:17:41UTC 2021-10-19T09:17:41-10:00 2021-10-19T08:17:41-11:00  21.31307 -157.88873       0   0.0 Hōkūleʻa
  2021-10-19T18:18:30UTC 2021-10-19T08:18:30-10:00 2021-10-19T07:18:30-11:00  21.31306 -157.88873       0   0.0 Hōkūleʻa
  2021-10-19T17:18:30UTC 2021-10-19T07:18:30-10:00 2021-10-19T06:18:30-11:00  21.31306 -157.88873       0   0.0 Hōkūleʻa
  2021-10-19T16:18:47UTC 2021-10-19T06:18:47-10:00 2021-10-19T05:18:47-11:00  21.31306 -157.88873       0   0.0 Hōkūleʻa
  2021-10-19T15:29:21UTC 2021-10-19T05:29:21-10:00 2021-10-19T04:29:21-11:00  21.31305 -157.88873     148   0.0 Hōkūleʻa
  2021-10-19T14:18:37UTC 2021-10-19T04:18:37-10:00 2021-10-19T03:18:37-11:00  21.31308 -157.88875       0   0.0 Hōkūleʻa
  2021-10-19T13:18:32UTC 2021-10-19T03:18:32-10:00 2021-10-19T02:18:32-11:00  21.31305 -157.88875     242   0.0 Hōkūleʻa
  2021-10-19T12:24:01UTC 2021-10-19T02:24:01-10:00 2021-10-19T01:24:01-11:00  21.31306 -157.88873       0   0.0 Hōkūleʻa
  2021-10-19T11:19:28UTC 2021-10-19T01:19:28-10:00 2021-10-19T00:19:28-11:00  21.31306 -157.88873      62   0.0 Hōkūleʻa
  2021-10-19T10:17:37UTC 2021-10-19T00:17:37-10:00 2021-10-18T23:17:37-11:00  21.31305 -157.88875     223   0.0 Hōkūleʻa
  2021-10-19T09:18:23UTC 2021-10-18T23:18:23-10:00 2021-10-18T22:18:23-11:00  21.31307 -157.88873       0   0.0 Hōkūleʻa
  2021-10-19T08:18:44UTC 2021-10-18T22:18:44-10:00 2021-10-18T21:18:44-11:00  21.31305 -157.88873       0   0.0 Hōkūleʻa
  2021-10-19T07:18:38UTC 2021-10-18T21:18:38-10:00 2021-10-18T20:18:38-11:00  21.31300 -157.88873     162   0.0 Hōkūleʻa
  2021-10-19T06:18:32UTC 2021-10-18T20:18:32-10:00 2021-10-18T19:18:32-11:00  21.31307 -157.88875     242   0.0 Hōkūleʻa
  2021-10-19T05:18:32UTC 2021-10-18T19:18:32-10:00 2021-10-18T18:18:32-11:00  21.31308 -157.88873       0   0.0 Hōkūleʻa
  2021-10-19T04:18:49UTC 2021-10-18T18:18:49-10:00 2021-10-18T17:18:49-11:00  21.31308 -157.88873     270   0.0 Hōkūleʻa
  2021-10-19T03:27:06UTC 2021-10-18T17:27:06-10:00 2021-10-18T16:27:06-11:00  21.31308 -157.88871       0   0.0 Hōkūleʻa
  2021-10-19T02:18:30UTC 2021-10-18T16:18:30-10:00 2021-10-18T15:18:30-11:00  21.31305 -157.88871     148   0.0 Hōkūleʻa
  2021-10-19T01:17:32UTC 2021-10-18T15:17:32-10:00 2021-10-18T14:17:32-11:00  21.31311 -157.88875     327   0.0 Hōkūleʻa
  2021-10-19T00:17:40UTC 2021-10-18T14:17:40-10:00 2021-10-18T13:17:40-11:00  21.31308 -157.88873      43   0.0 Hōkūleʻa
  2021-10-18T23:18:31UTC 2021-10-18T13:18:31-10:00 2021-10-18T12:18:31-11:00  21.31306 -157.88875     223   0.0 Hōkūleʻa
  2021-10-18T22:17:31UTC 2021-10-18T12:17:31-10:00 2021-10-18T11:17:31-11:00  21.31308 -157.88873       0   0.0 Hōkūleʻa
  2021-10-18T21:18:24UTC 2021-10-18T11:18:24-10:00 2021-10-18T10:18:24-11:00  21.31307 -157.88873       0   0.0 Hōkūleʻa
  2021-10-18T20:17:38UTC 2021-10-18T10:17:38-10:00 2021-10-18T09:17:38-11:00  21.31307 -157.88873       0   0.0 Hōkūleʻa
  2021-10-18T19:18:46UTC 2021-10-18T09:18:46-10:00 2021-10-18T08:18:46-11:00  21.31304 -157.88873     180   0.0 Hōkūleʻa
  2021-10-18T18:17:28UTC 2021-10-18T08:17:28-10:00 2021-10-18T07:17:28-11:00  21.31305 -157.88873       0   0.0 Hōkūleʻa
  2021-10-18T17:18:22UTC 2021-10-18T07:18:22-10:00 2021-10-18T06:18:22-11:00  21.31305 -157.88873     222   0.0 Hōkūleʻa
  2021-10-18T16:17:42UTC 2021-10-18T06:17:42-10:00 2021-10-18T05:17:42-11:00  21.31307 -157.88871       0   0.0 Hōkūleʻa
  2021-10-18T15:18:29UTC 2021-10-18T05:18:29-10:00 2021-10-18T04:18:29-11:00  21.31305 -157.88871     119   0.0 Hōkūleʻa
  2021-10-18T14:29:17UTC 2021-10-18T04:29:17-10:00 2021-10-18T03:29:17-11:00  21.31306 -157.88873       0   0.0 Hōkūleʻa
  2021-10-18T13:18:28UTC 2021-10-18T03:18:28-10:00 2021-10-18T02:18:28-11:00  21.31305 -157.88873       0   0.0 Hōkūleʻa
  2021-10-18T12:27:51UTC 2021-10-18T02:27:51-10:00 2021-10-18T01:27:51-11:00  21.31304 -157.88873     180   0.0 Hōkūleʻa
  2021-10-18T11:17:21UTC 2021-10-18T01:17:21-10:00 2021-10-18T00:17:21-11:00  21.31306 -157.88873     180   0.0 Hōkūleʻa
  2021-10-18T10:18:24UTC 2021-10-18T00:18:24-10:00 2021-10-17T23:18:24-11:00  21.31307 -157.88873       0   0.0 Hōkūleʻa
  2021-10-18T09:18:24UTC 2021-10-17T23:18:24-10:00 2021-10-17T22:18:24-11:00  21.31307 -157.88873       0   0.0 Hōkūleʻa
  2021-10-18T08:18:46UTC 2021-10-17T22:18:46-10:00 2021-10-17T21:18:46-11:00  21.31305 -157.88873       0   0.0 Hōkūleʻa
  2021-10-18T07:28:15UTC 2021-10-17T21:28:15-10:00 2021-10-17T20:28:15-11:00  21.31303 -157.88873     180   0.0 Hōkūleʻa
  2021-10-18T06:18:30UTC 2021-10-17T20:18:30-10:00 2021-10-17T19:18:30-11:00  21.31305 -157.88873     154   0.0 Hōkūleʻa
  2021-10-18T05:18:21UTC 2021-10-17T19:18:21-10:00 2021-10-17T18:18:21-11:00  21.31309 -157.88875     296   0.0 Hōkūleʻa
  2021-10-18T04:18:44UTC 2021-10-17T18:18:44-10:00 2021-10-17T17:18:44-11:00  21.31308 -157.88873     270   0.0 Hōkūleʻa
  2021-10-18T03:18:46UTC 2021-10-17T17:18:46-10:00 2021-10-17T16:18:46-11:00  21.31308 -157.88866      42   0.0 Hōkūleʻa
  2021-10-18T02:18:22UTC 2021-10-17T16:18:22-10:00 2021-10-17T15:18:22-11:00  21.31306 -157.88868     105   0.0 Hōkūleʻa
  2021-10-18T01:17:50UTC 2021-10-17T15:17:50-10:00 2021-10-17T14:17:50-11:00  21.31307 -157.88873     180   0.0 Hōkūleʻa
  2021-10-18T00:18:50UTC 2021-10-17T14:18:50-10:00 2021-10-17T13:18:50-11:00  21.31309 -157.88873     317   0.0 Hōkūleʻa
  2021-10-17T23:17:24UTC 2021-10-17T13:17:24-10:00 2021-10-17T12:17:24-11:00  21.31307 -157.88871      90   0.0 Hōkūleʻa
  2021-10-17T22:18:31UTC 2021-10-17T12:18:31-10:00 2021-10-17T11:18:31-11:00  21.31307 -157.88873     180   0.0 Hōkūleʻa
  2021-10-17T21:18:56UTC 2021-10-17T11:18:56-10:00 2021-10-17T10:18:56-11:00  21.31308 -157.88873      61   0.0 Hōkūleʻa
  2021-10-17T20:17:37UTC 2021-10-17T10:17:37-10:00 2021-10-17T09:17:37-11:00  21.31306 -157.88877     270   0.0 Hōkūleʻa
  2021-10-17T19:18:33UTC 2021-10-17T09:18:33-10:00 2021-10-17T08:18:33-11:00  21.31306 -157.88871     105   0.0 Hōkūleʻa
  2021-10-17T18:17:38UTC 2021-10-17T08:17:38-10:00 2021-10-17T07:17:38-11:00  21.31307 -157.88875     270   0.0 Hōkūleʻa
  2021-10-17T17:18:23UTC 2021-10-17T07:18:23-10:00 2021-10-17T06:18:23-11:00  21.31307 -157.88873      62   0.0 Hōkūleʻa
  2021-10-17T16:18:40UTC 2021-10-17T06:18:40-10:00 2021-10-17T05:18:40-11:00  21.31306 -157.88875     327   0.0 Hōkūleʻa
  2021-10-17T15:18:36UTC 2021-10-17T05:18:36-10:00 2021-10-17T04:18:36-11:00  21.31303 -157.88873     180   0.0 Hōkūleʻa
  2021-10-17T14:18:30UTC 2021-10-17T04:18:30-10:00 2021-10-17T03:18:30-11:00  21.31307 -157.88873       0   0.0 Hōkūleʻa
  2021-10-17T13:17:26UTC 2021-10-17T03:17:26-10:00 2021-10-17T02:17:26-11:00  21.31303 -157.88873       0   0.0 Hōkūleʻa
  2021-10-17T12:18:41UTC 2021-10-17T02:18:41-10:00 2021-10-17T01:18:41-11:00  21.31303 -157.88873     180   0.0 Hōkūleʻa
  2021-10-17T11:18:29UTC 2021-10-17T01:18:29-10:00 2021-10-17T00:18:29-11:00  21.31304 -157.88873     323   0.0 Hōkūleʻa
  2021-10-17T10:18:27UTC 2021-10-17T00:18:27-10:00 2021-10-16T23:18:27-11:00  21.31293 -157.88864     146   0.0 Hōkūleʻa
  2021-10-17T09:18:31UTC 2021-10-16T23:18:31-10:00 2021-10-16T22:18:31-11:00  21.31305 -157.88873     180   0.0 Hōkūleʻa
  2021-10-17T08:18:46UTC 2021-10-16T22:18:46-10:00 2021-10-16T21:18:46-11:00  21.31307 -157.88873      90   0.0 Hōkūleʻa
  2021-10-17T07:18:35UTC 2021-10-16T21:18:35-10:00 2021-10-16T20:18:35-11:00  21.31307 -157.88877     270   0.0 Hōkūleʻa
  2021-10-17T06:18:31UTC 2021-10-16T20:18:31-10:00 2021-10-16T19:18:31-11:00  21.31307 -157.88873       0   0.0 Hōkūleʻa
  2021-10-17T05:18:32UTC 2021-10-16T19:18:32-10:00 2021-10-16T18:18:32-11:00  21.31305 -157.88873     180   0.0 Hōkūleʻa
  2021-10-17T04:17:45UTC 2021-10-16T18:17:45-10:00 2021-10-16T17:17:45-11:00  21.31306 -157.88873     180   0.0 Hōkūleʻa
  2021-10-17T03:27:04UTC 2021-10-16T17:27:04-10:00 2021-10-16T16:27:04-11:00  21.31310 -157.88873       0   0.0 Hōkūleʻa
  2021-10-17T02:18:30UTC 2021-10-16T16:18:30-10:00 2021-10-16T15:18:30-11:00  21.31308 -157.88873     180   0.0 Hōkūleʻa
  2021-10-17T01:17:24UTC 2021-10-16T15:17:24-10:00 2021-10-16T14:17:24-11:00  21.31311 -157.88873     318   0.0 Hōkūleʻa
  2021-10-17T00:18:49UTC 2021-10-16T14:18:49-10:00 2021-10-16T13:18:49-11:00  21.31309 -157.88871     180   0.0 Hōkūleʻa
  2021-10-16T23:17:22UTC 2021-10-16T13:17:22-10:00 2021-10-16T12:17:22-11:00  21.31310 -157.88871       0   0.0 Hōkūleʻa
  2021-10-16T22:18:32UTC 2021-10-16T12:18:32-10:00 2021-10-16T11:18:32-11:00  21.31310 -157.88871      43   0.0 Hōkūleʻa
  2021-10-16T21:17:30UTC 2021-10-16T11:17:30-10:00 2021-10-16T10:17:30-11:00  21.31308 -157.88873     252   0.0 Hōkūleʻa
  2021-10-16T20:25:52UTC 2021-10-16T10:25:52-10:00 2021-10-16T09:25:52-11:00  21.31311 -157.88862     270   0.0 Hōkūleʻa
  2021-10-16T19:18:25UTC 2021-10-16T09:18:25-10:00 2021-10-16T08:18:25-11:00  21.31311 -157.88860      58   0.0 Hōkūleʻa
  2021-10-16T18:18:32UTC 2021-10-16T08:18:32-10:00 2021-10-16T07:18:32-11:00  21.31304 -157.88873     147   0.0 Hōkūleʻa
  2021-10-16T17:18:31UTC 2021-10-16T07:18:31-10:00 2021-10-16T06:18:31-11:00  21.31307 -157.88875     298   0.0 Hōkūleʻa
  2021-10-16T16:18:50UTC 2021-10-16T06:18:50-10:00 2021-10-16T05:18:50-11:00  21.31306 -157.88873       0   0.0 Hōkūleʻa
  2021-10-16T15:18:32UTC 2021-10-16T05:18:32-10:00 2021-10-16T04:18:32-11:00  21.31306 -157.88873     180   0.0 Hōkūleʻa
  2021-10-16T14:18:30UTC 2021-10-16T04:18:30-10:00 2021-10-16T03:18:30-11:00  21.31308 -157.88873       0   0.0 Hōkūleʻa
  2021-10-16T13:18:23UTC 2021-10-16T03:18:23-10:00 2021-10-16T02:18:23-11:00  21.31306 -157.88873       0   0.0 Hōkūleʻa
  2021-10-16T12:18:40UTC 2021-10-16T02:18:40-10:00 2021-10-16T01:18:40-11:00  21.31305 -157.88873      90   0.0 Hōkūleʻa
  2021-10-16T11:18:48UTC 2021-10-16T01:18:48-10:00 2021-10-16T00:18:48-11:00  21.31305 -157.88877     241   0.0 Hōkūleʻa
  2021-10-16T10:18:28UTC 2021-10-16T00:18:28-10:00 2021-10-15T23:18:28-11:00  21.31306 -157.88875     180   0.0 Hōkūleʻa
  2021-10-16T09:18:24UTC 2021-10-15T23:18:24-10:00 2021-10-15T22:18:24-11:00  21.31307 -157.88875     317   0.0 Hōkūleʻa
  2021-10-16T08:18:39UTC 2021-10-15T22:18:39-10:00 2021-10-15T21:18:39-11:00  21.31305 -157.88873     105   0.0 Hōkūleʻa
  2021-10-16T07:18:40UTC 2021-10-15T21:18:40-10:00 2021-10-15T20:18:40-11:00  21.31306 -157.88877     241   0.0 Hōkūleʻa
  2021-10-16T06:17:32UTC 2021-10-15T20:17:32-10:00 2021-10-15T19:17:32-11:00  21.31308 -157.88873       0   0.0 Hōkūleʻa
  2021-10-16T05:18:22UTC 2021-10-15T19:18:22-10:00 2021-10-15T18:18:22-11:00  21.31306 -157.88873     180   0.0 Hōkūleʻa
  2021-10-16T04:18:41UTC 2021-10-15T18:18:41-10:00 2021-10-15T17:18:41-11:00  21.31308 -157.88873     350   0.0 Hōkūleʻa
  2021-10-16T03:28:35UTC 2021-10-15T17:28:35-10:00 2021-10-15T16:28:35-11:00  21.31297 -157.88871       0   0.0 Hōkūleʻa
  2021-10-16T02:18:37UTC 2021-10-15T16:18:37-10:00 2021-10-15T15:18:37-11:00  21.31297 -157.88871     302   0.0 Hōkūleʻa
  2021-10-16T01:18:54UTC 2021-10-15T15:18:54-10:00 2021-10-15T14:18:54-11:00  21.31291 -157.88860     306   0.0 Hōkūleʻa
  2021-10-16T00:17:40UTC 2021-10-15T14:17:40-10:00 2021-10-15T13:17:40-11:00  21.31286 -157.88853       0   0.0 Hōkūleʻa
  2021-10-15T23:17:31UTC 2021-10-15T13:17:31-10:00 2021-10-15T12:17:31-11:00  21.31285 -157.88853      64   0.0 Hōkūleʻa
  2021-10-15T22:25:39UTC 2021-10-15T12:25:39-10:00 2021-10-15T11:25:39-11:00  21.31284 -157.88856     117   0.0 Hōkūleʻa
  2021-10-15T21:18:31UTC 2021-10-15T11:18:31-10:00 2021-10-15T10:18:31-11:00  21.31285 -157.88858       0   0.0 Hōkūleʻa
  2021-10-15T20:17:43UTC 2021-10-15T10:17:43-10:00 2021-10-15T09:17:43-11:00  21.31284 -157.88858       0   0.0 Hōkūleʻa
  2021-10-15T19:18:44UTC 2021-10-15T09:18:44-10:00 2021-10-15T08:18:44-11:00  21.31283 -157.88858     139   0.0 Hōkūleʻa
  2021-10-15T18:18:35UTC 2021-10-15T08:18:35-10:00 2021-10-15T07:18:35-11:00  21.31297 -157.88871       0   0.0 Hōkūleʻa
  2021-10-15T17:18:28UTC 2021-10-15T07:18:28-10:00 2021-10-15T06:18:28-11:00  21.31297 -157.88871       0   0.0 Hōkūleʻa
  2021-10-15T16:18:45UTC 2021-10-15T06:18:45-10:00 2021-10-15T05:18:45-11:00  21.31297 -157.88871     317   0.0 Hōkūleʻa
  2021-10-15T15:18:38UTC 2021-10-15T05:18:38-10:00 2021-10-15T04:18:38-11:00  21.31284 -157.88858     137   0.0 Hōkūleʻa
  2021-10-15T14:18:30UTC 2021-10-15T04:18:30-10:00 2021-10-15T03:18:30-11:00  21.31297 -157.88871       0   0.0 Hōkūleʻa
  2021-10-15T13:18:31UTC 2021-10-15T03:18:31-10:00 2021-10-15T02:18:31-11:00  21.31297 -157.88871     319   0.0 Hōkūleʻa
  2021-10-15T12:18:49UTC 2021-10-15T02:18:49-10:00 2021-10-15T01:18:49-11:00  21.31283 -157.88858       0   0.0 Hōkūleʻa
  2021-10-15T11:29:34UTC 2021-10-15T01:29:34-10:00 2021-10-15T00:29:34-11:00  21.31283 -157.88858     139   0.0 Hōkūleʻa
  2021-10-15T10:18:25UTC 2021-10-15T00:18:25-10:00 2021-10-14T23:18:25-11:00  21.31297 -157.88871       0   0.0 Hōkūleʻa
  2021-10-15T09:18:30UTC 2021-10-14T23:18:30-10:00 2021-10-14T22:18:30-11:00  21.31297 -157.88871     319   0.0 Hōkūleʻa
  2021-10-15T08:18:44UTC 2021-10-14T22:18:44-10:00 2021-10-14T21:18:44-11:00  21.31283 -157.88858       0   0.0 Hōkūleʻa
  2021-10-15T07:19:33UTC 2021-10-14T21:19:33-10:00 2021-10-14T20:19:33-11:00  21.31283 -157.88858     139   0.0 Hōkūleʻa
  2021-10-15T06:17:40UTC 2021-10-14T20:17:40-10:00 2021-10-14T19:17:40-11:00  21.31297 -157.88871       0   0.0 Hōkūleʻa
  2021-10-15T05:18:21UTC 2021-10-14T19:18:21-10:00 2021-10-14T18:18:21-11:00  21.31297 -157.88871       0   0.0 Hōkūleʻa
  2021-10-15T04:18:48UTC 2021-10-14T18:18:48-10:00 2021-10-14T17:18:48-11:00  21.31297 -157.88871     298   0.0 Hōkūleʻa
  2021-10-15T03:18:33UTC 2021-10-14T17:18:33-10:00 2021-10-14T16:18:33-11:00  21.31289 -157.88853      90   0.0 Hōkūleʻa
  2021-10-15T02:18:28UTC 2021-10-14T16:18:28-10:00 2021-10-14T15:18:28-11:00  21.31289 -157.88856       0   0.0 Hōkūleʻa
  2021-10-15T01:18:33UTC 2021-10-14T15:18:33-10:00 2021-10-14T14:18:33-11:00  21.31284 -157.88856     180   0.0 Hōkūleʻa
  2021-10-15T00:24:41UTC 2021-10-14T14:24:41-10:00 2021-10-14T13:24:41-11:00  21.31285 -157.88856     130   0.0 Hōkūleʻa
  2021-10-14T23:17:21UTC 2021-10-14T13:17:21-10:00 2021-10-14T12:17:21-11:00  21.31297 -157.88871     314   0.0 Hōkūleʻa
  2021-10-14T21:18:31UTC 2021-10-14T11:18:31-10:00 2021-10-14T10:18:31-11:00  21.31285 -157.88858     317   0.0 Hōkūleʻa
  2021-10-14T20:17:39UTC 2021-10-14T10:17:39-10:00 2021-10-14T09:17:39-11:00  21.31283 -157.88856     135   0.0 Hōkūleʻa
  2021-10-14T19:18:24UTC 2021-10-14T09:18:24-10:00 2021-10-14T08:18:24-11:00  21.31297 -157.88871       0   0.0 Hōkūleʻa
  2021-10-14T18:18:33UTC 2021-10-14T08:18:33-10:00 2021-10-14T07:18:33-11:00  21.31297 -157.88871       0   0.0 Hōkūleʻa
  2021-10-14T17:18:30UTC 2021-10-14T07:18:30-10:00 2021-10-14T06:18:30-11:00  21.31297 -157.88871       0   0.0 Hōkūleʻa
  2021-10-14T16:18:41UTC 2021-10-14T06:18:41-10:00 2021-10-14T05:18:41-11:00  21.31297 -157.88871       0   0.0 Hōkūleʻa
  2021-10-14T15:18:38UTC 2021-10-14T05:18:38-10:00 2021-10-14T04:18:38-11:00  21.31297 -157.88871     321   0.0 Hōkūleʻa
  2021-10-14T14:18:32UTC 2021-10-14T04:18:32-10:00 2021-10-14T03:18:32-11:00  21.31282 -157.88858       0   0.0 Hōkūleʻa
  2021-10-14T13:18:34UTC 2021-10-14T03:18:34-10:00 2021-10-14T02:18:34-11:00  21.31282 -157.88858     241   0.0 Hōkūleʻa
  2021-10-14T12:18:41UTC 2021-10-14T02:18:41-10:00 2021-10-14T01:18:41-11:00  21.31283 -157.88856       0   0.0 Hōkūleʻa
  2021-10-14T11:18:38UTC 2021-10-14T01:18:38-10:00 2021-10-14T00:18:38-11:00  21.31282 -157.88856     137   0.0 Hōkūleʻa
  2021-10-14T10:18:35UTC 2021-10-14T00:18:35-10:00 2021-10-13T23:18:35-11:00  21.31297 -157.88871     321   0.0 Hōkūleʻa
  2021-10-14T09:38:34UTC 2021-10-13T23:38:34-10:00 2021-10-13T22:38:34-11:00  21.31282 -157.88858     141   0.0 Hōkūleʻa
  2021-10-14T08:17:47UTC 2021-10-13T22:17:47-10:00 2021-10-13T21:17:47-11:00  21.31297 -157.88871       0   0.0 Hōkūleʻa
  2021-10-14T07:18:29UTC 2021-10-13T21:18:29-10:00 2021-10-13T20:18:29-11:00  21.31297 -157.88871     317   0.0 Hōkūleʻa
  2021-10-14T06:18:25UTC 2021-10-13T20:18:25-10:00 2021-10-13T19:18:25-11:00  21.31286 -157.88860     137   0.0 Hōkūleʻa
  2021-10-14T05:18:30UTC 2021-10-13T19:18:30-10:00 2021-10-13T18:18:30-11:00  21.31297 -157.88871     308   0.0 Hōkūleʻa
  2021-10-14T04:18:47UTC 2021-10-13T18:18:47-10:00 2021-10-13T17:18:47-11:00  21.31288 -157.88858     299   0.0 Hōkūleʻa
  2021-10-14T03:18:35UTC 2021-10-13T17:18:35-10:00 2021-10-13T16:18:35-11:00  21.31285 -157.88853     132   0.0 Hōkūleʻa
  2021-10-14T02:18:30UTC 2021-10-13T16:18:30-10:00 2021-10-13T15:18:30-11:00  21.31291 -157.88860     324   0.0 Hōkūleʻa
  2021-10-14T01:18:29UTC 2021-10-13T15:18:29-10:00 2021-10-13T14:18:29-11:00  21.31285 -157.88856     242   0.0 Hōkūleʻa
  2021-10-14T00:24:53UTC 2021-10-13T14:24:53-10:00 2021-10-13T13:24:53-11:00  21.31286 -157.88853      90   0.0 Hōkūleʻa
  2021-10-13T23:17:51UTC 2021-10-13T13:17:51-10:00 2021-10-13T12:17:51-11:00  21.31286 -157.88856     127   0.0 Hōkūleʻa
  2021-10-13T22:17:25UTC 2021-10-13T12:17:25-10:00 2021-10-13T11:17:25-11:00  21.31297 -157.88871     319   0.0 Hōkūleʻa
  2021-10-13T21:18:23UTC 2021-10-13T11:18:23-10:00 2021-10-13T10:18:23-11:00  21.31285 -157.88860       0   0.0 Hōkūleʻa
  2021-10-13T20:17:44UTC 2021-10-13T10:17:44-10:00 2021-10-13T09:17:44-11:00  21.31284 -157.88860     270   0.0 Hōkūleʻa
  2021-10-13T19:37:11UTC 2021-10-13T09:37:11-10:00 2021-10-13T08:37:11-11:00  21.31284 -157.88856     132   0.0 Hōkūleʻa
  2021-10-13T18:18:32UTC 2021-10-13T08:18:32-10:00 2021-10-13T07:18:32-11:00  21.31297 -157.88871       0   0.0 Hōkūleʻa
  2021-10-13T17:18:32UTC 2021-10-13T07:18:32-10:00 2021-10-13T06:18:32-11:00  21.31297 -157.88871       0   0.0 Hōkūleʻa
  2021-10-13T16:18:47UTC 2021-10-13T06:18:47-10:00 2021-10-13T05:18:47-11:00  21.31297 -157.88871       0   0.0 Hōkūleʻa
  2021-10-13T15:18:39UTC 2021-10-13T05:18:39-10:00 2021-10-13T04:18:39-11:00  21.31297 -157.88871     313   0.0 Hōkūleʻa
  2021-10-13T14:18:29UTC 2021-10-13T04:18:29-10:00 2021-10-13T03:18:29-11:00  21.31288 -157.88860     318   0.0 Hōkūleʻa
  2021-10-13T13:18:41UTC 2021-10-13T03:18:41-10:00 2021-10-13T02:18:41-11:00  21.31283 -157.88856     135   0.0 Hōkūleʻa
  2021-10-13T12:28:35UTC 2021-10-13T02:28:35-10:00 2021-10-13T01:28:35-11:00  21.31297 -157.88871       0   0.0 Hōkūleʻa
  2021-10-13T11:18:36UTC 2021-10-13T01:18:36-10:00 2021-10-13T00:18:36-11:00  21.31297 -157.88871       0   0.0 Hōkūleʻa
  2021-10-13T10:18:36UTC 2021-10-13T00:18:36-10:00 2021-10-12T23:18:36-11:00  21.31297 -157.88871     312   0.0 Hōkūleʻa
  2021-10-13T09:28:48UTC 2021-10-12T23:28:48-10:00 2021-10-12T22:28:48-11:00  21.31284 -157.88856       0   0.0 Hōkūleʻa
  2021-10-13T08:18:39UTC 2021-10-12T22:18:39-10:00 2021-10-12T21:18:39-11:00  21.31283 -157.88856     135   0.0 Hōkūleʻa
  2021-10-13T07:18:36UTC 2021-10-12T21:18:36-10:00 2021-10-12T20:18:36-11:00  21.31297 -157.88871     312   0.0 Hōkūleʻa
  2021-10-13T06:18:33UTC 2021-10-12T20:18:33-10:00 2021-10-12T19:18:33-11:00  21.31284 -157.88856      90   0.0 Hōkūleʻa
  2021-10-13T05:24:05UTC 2021-10-12T19:24:05-10:00 2021-10-12T18:24:05-11:00  21.31284 -157.88858     137   0.0 Hōkūleʻa
  2021-10-13T04:18:37UTC 2021-10-12T18:18:37-10:00 2021-10-12T17:18:37-11:00  21.31297 -157.88871       0   0.0 Hōkūleʻa
  2021-10-13T03:18:40UTC 2021-10-12T17:18:40-10:00 2021-10-12T16:18:40-11:00  21.31297 -157.88871     180   0.0 Hōkūleʻa
  2021-10-13T02:18:30UTC 2021-10-12T16:18:30-10:00 2021-10-12T15:18:30-11:00  21.31300 -157.88871     317   0.0 Hōkūleʻa
  2021-10-13T01:17:57UTC 2021-10-12T15:17:57-10:00 2021-10-12T14:17:57-11:00  21.31285 -157.88856     130   0.0 Hōkūleʻa
  2021-10-13T00:17:41UTC 2021-10-12T14:17:41-10:00 2021-10-12T13:17:41-11:00  21.31297 -157.88871       0   0.0 Hōkūleʻa
  2021-10-12T23:18:31UTC 2021-10-12T13:18:31-10:00 2021-10-12T12:18:31-11:00  21.31297 -157.88871     312   0.0 Hōkūleʻa
  2021-10-12T22:18:32UTC 2021-10-12T12:18:32-10:00 2021-10-12T11:18:32-11:00  21.31284 -157.88856      70   0.0 Hōkūleʻa
  2021-10-12T21:26:17UTC 2021-10-12T11:26:17-10:00 2021-10-12T10:26:17-11:00  21.31282 -157.88862     260   0.0 Hōkūleʻa
  2021-10-12T20:18:38UTC 2021-10-12T10:18:38-10:00 2021-10-12T09:18:38-11:00  21.31283 -157.88856     135   0.0 Hōkūleʻa
  2021-10-12T19:18:00UTC 2021-10-12T09:18:00-10:00 2021-10-12T08:18:00-11:00  21.31297 -157.88871       0   0.0 Hōkūleʻa
  2021-10-12T18:18:25UTC 2021-10-12T08:18:25-10:00 2021-10-12T07:18:25-11:00  21.31297 -157.88871       0   0.0 Hōkūleʻa
  2021-10-12T17:19:28UTC 2021-10-12T07:19:28-10:00 2021-10-12T06:19:28-11:00  21.31297 -157.88871     315   0.0 Hōkūleʻa
  2021-10-12T16:19:02UTC 2021-10-12T06:19:02-10:00 2021-10-12T05:19:02-11:00  21.31283 -157.88856     135   0.0 Hōkūleʻa
  2021-10-12T15:18:38UTC 2021-10-12T05:18:38-10:00 2021-10-12T04:18:38-11:00  21.31297 -157.88871       0   0.0 Hōkūleʻa
  2021-10-12T14:18:22UTC 2021-10-12T04:18:22-10:00 2021-10-12T03:18:22-11:00  21.31297 -157.88871       0   0.0 Hōkūleʻa
  2021-10-12T13:18:29UTC 2021-10-12T03:18:29-10:00 2021-10-12T02:18:29-11:00  21.31297 -157.88871       0   0.0 Hōkūleʻa
  2021-10-12T12:18:48UTC 2021-10-12T02:18:48-10:00 2021-10-12T01:18:48-11:00  21.31297 -157.88871       0   0.0 Hōkūleʻa
  2021-10-12T11:18:36UTC 2021-10-12T01:18:36-10:00 2021-10-12T00:18:36-11:00  21.31297 -157.88871     315   0.0 Hōkūleʻa
  2021-10-12T10:24:01UTC 2021-10-12T00:24:01-10:00 2021-10-11T23:24:01-11:00  21.31283 -157.88856       0   0.0 Hōkūleʻa
  2021-10-12T09:18:21UTC 2021-10-11T23:18:21-10:00 2021-10-11T22:18:21-11:00  21.31282 -157.88856     137   0.0 Hōkūleʻa
  2021-10-12T08:18:39UTC 2021-10-11T22:18:39-10:00 2021-10-11T21:18:39-11:00  21.31297 -157.88871     304   0.0 Hōkūleʻa
  2021-10-12T07:18:32UTC 2021-10-11T21:18:32-10:00 2021-10-11T20:18:32-11:00  21.31288 -157.88856       0   0.0 Hōkūleʻa
  2021-10-12T06:18:30UTC 2021-10-11T20:18:30-10:00 2021-10-11T19:18:30-11:00  21.31284 -157.88856      90   0.0 Hōkūleʻa
  2021-10-12T05:28:22UTC 2021-10-11T19:28:22-10:00 2021-10-11T18:28:22-11:00  21.31284 -157.88858     180   0.0 Hōkūleʻa
  2021-10-12T04:18:37UTC 2021-10-11T18:18:37-10:00 2021-10-11T17:18:37-11:00  21.31290 -157.88858     335   0.0 Hōkūleʻa
  2021-10-12T03:18:44UTC 2021-10-11T17:18:44-10:00 2021-10-11T16:18:44-11:00  21.31285 -157.88856     130   0.0 Hōkūleʻa
  2021-10-12T02:18:30UTC 2021-10-11T16:18:30-10:00 2021-10-11T15:18:30-11:00  21.31297 -157.88871       0   0.0 Hōkūleʻa
  2021-10-12T01:18:33UTC 2021-10-11T15:18:33-10:00 2021-10-11T14:18:33-11:00  21.31297 -157.88871       0   0.0 Hōkūleʻa
  2021-10-12T00:18:58UTC 2021-10-11T14:18:58-10:00 2021-10-11T13:18:58-11:00  21.31297 -157.88871       0   0.0 Hōkūleʻa
  2021-10-11T23:17:38UTC 2021-10-11T13:17:38-10:00 2021-10-11T12:17:38-11:00  21.31297 -157.88871       0   0.0 Hōkūleʻa
  2021-10-11T22:18:24UTC 2021-10-11T12:18:24-10:00 2021-10-11T11:18:24-11:00  21.31297 -157.88871     315   0.0 Hōkūleʻa
  2021-10-11T21:17:51UTC 2021-10-11T11:17:51-10:00 2021-10-11T10:17:51-11:00  21.31283 -157.88856     135   0.0 Hōkūleʻa
  2021-10-11T20:32:03UTC 2021-10-11T10:32:03-10:00 2021-10-11T09:32:03-11:00  21.31297 -157.88871       0   0.0 Hōkūleʻa
  2021-10-11T19:18:42UTC 2021-10-11T09:18:42-10:00 2021-10-11T08:18:42-11:00  21.31297 -157.88871     321   0.0 Hōkūleʻa
  2021-10-11T18:18:30UTC 2021-10-11T08:18:30-10:00 2021-10-11T07:18:30-11:00  21.31282 -157.88858     141   0.0 Hōkūleʻa
  2021-10-11T17:17:36UTC 2021-10-11T07:17:36-10:00 2021-10-11T06:17:36-11:00  21.31297 -157.88871       0   0.0 Hōkūleʻa
  2021-10-11T16:18:41UTC 2021-10-11T06:18:41-10:00 2021-10-11T05:18:41-11:00  21.31297 -157.88871     317   0.0 Hōkūleʻa
  2021-10-11T15:18:30UTC 2021-10-11T05:18:30-10:00 2021-10-11T04:18:30-11:00  21.31284 -157.88858       0   0.0 Hōkūleʻa
  2021-10-11T14:18:36UTC 2021-10-11T04:18:36-10:00 2021-10-11T03:18:36-11:00  21.31283 -157.88858     270   0.0 Hōkūleʻa
  2021-10-11T13:18:34UTC 2021-10-11T03:18:34-10:00 2021-10-11T02:18:34-11:00  21.31283 -157.88856     135   0.0 Hōkūleʻa
  2021-10-11T12:18:48UTC 2021-10-11T02:18:48-10:00 2021-10-11T01:18:48-11:00  21.31297 -157.88871       0   0.0 Hōkūleʻa
  2021-10-11T11:18:30UTC 2021-10-11T01:18:30-10:00 2021-10-11T00:18:30-11:00  21.31297 -157.88871     312   0.0 Hōkūleʻa
  2021-10-11T09:18:27UTC 2021-10-10T23:18:27-10:00 2021-10-10T22:18:27-11:00  21.31284 -157.88856       0   0.0 Hōkūleʻa
  2021-10-11T08:18:47UTC 2021-10-10T22:18:47-10:00 2021-10-10T21:18:47-11:00  21.31282 -157.88856     137   0.0 Hōkūleʻa
  2021-10-11T07:18:37UTC 2021-10-10T21:18:37-10:00 2021-10-10T20:18:37-11:00  21.31297 -157.88871     310   0.0 Hōkūleʻa
  2021-10-11T06:18:24UTC 2021-10-10T20:18:24-10:00 2021-10-10T19:18:24-11:00  21.31289 -157.88860     130   0.0 Hōkūleʻa
  2021-10-11T05:18:32UTC 2021-10-10T19:18:32-10:00 2021-10-10T18:18:32-11:00  21.31297 -157.88871     304   0.0 Hōkūleʻa
  2021-10-11T04:18:49UTC 2021-10-10T18:18:49-10:00 2021-10-10T17:18:49-11:00  21.31288 -157.88856     232   0.0 Hōkūleʻa
  2021-10-11T03:18:34UTC 2021-10-10T17:18:34-10:00 2021-10-10T16:18:34-11:00  21.31291 -157.88851      80   0.0 Hōkūleʻa
  2021-10-11T02:18:31UTC 2021-10-10T16:18:31-10:00 2021-10-10T15:18:31-11:00  21.31290 -157.88858     335   0.0 Hōkūleʻa
  2021-10-11T01:17:34UTC 2021-10-10T15:17:34-10:00 2021-10-10T14:17:34-11:00  21.31285 -157.88856     180   0.0 Hōkūleʻa
  2021-10-11T00:18:41UTC 2021-10-10T14:18:41-10:00 2021-10-10T13:18:41-11:00  21.31286 -157.88856     127   0.0 Hōkūleʻa
  2021-10-10T23:17:38UTC 2021-10-10T13:17:38-10:00 2021-10-10T12:17:38-11:00  21.31297 -157.88871     317   0.0 Hōkūleʻa
  2021-10-10T22:17:24UTC 2021-10-10T12:17:24-10:00 2021-10-10T11:17:24-11:00  21.31282 -157.88856     119   0.0 Hōkūleʻa
  2021-10-10T21:17:24UTC 2021-10-10T11:17:24-10:00 2021-10-10T10:17:24-11:00  21.31283 -157.88858     241   0.0 Hōkūleʻa
  2021-10-10T20:18:46UTC 2021-10-10T10:18:46-10:00 2021-10-10T09:18:46-11:00  21.31284 -157.88856     132   0.0 Hōkūleʻa
  2021-10-10T19:18:42UTC 2021-10-10T09:18:42-10:00 2021-10-10T08:18:42-11:00  21.31297 -157.88871       0   0.0 Hōkūleʻa
  2021-10-10T18:18:25UTC 2021-10-10T08:18:25-10:00 2021-10-10T07:18:25-11:00  21.31297 -157.88871       0   0.0 Hōkūleʻa
  2021-10-10T17:18:31UTC 2021-10-10T07:18:31-10:00 2021-10-10T06:18:31-11:00  21.31297 -157.88871       0   0.0 Hōkūleʻa
  2021-10-10T16:18:49UTC 2021-10-10T06:18:49-10:00 2021-10-10T05:18:49-11:00  21.31297 -157.88871       0   0.0 Hōkūleʻa
  2021-10-10T15:17:30UTC 2021-10-10T05:17:30-10:00 2021-10-10T04:17:30-11:00  21.31297 -157.88871     319   0.0 Hōkūleʻa
  2021-10-10T14:28:52UTC 2021-10-10T04:28:52-10:00 2021-10-10T03:28:52-11:00  21.31283 -157.88858     139   0.0 Hōkūleʻa
  2021-10-10T13:18:41UTC 2021-10-10T03:18:41-10:00 2021-10-10T02:18:41-11:00  21.31297 -157.88871       0   0.0 Hōkūleʻa
  2021-10-10T12:18:32UTC 2021-10-10T02:18:32-10:00 2021-10-10T01:18:32-11:00  21.31297 -157.88871     138   0.0 Hōkūleʻa
  2021-10-10T11:18:26UTC 2021-10-10T01:18:26-10:00 2021-10-10T00:18:26-11:00  21.31299 -157.88873       0   0.0 Hōkūleʻa
  2021-10-10T10:18:49UTC 2021-10-10T00:18:49-10:00 2021-10-09T23:18:49-11:00  21.31299 -157.88873       0   0.0 Hōkūleʻa
  2021-10-10T09:27:39UTC 2021-10-09T23:27:39-10:00 2021-10-09T22:27:39-11:00  21.31299 -157.88873       0   0.0 Hōkūleʻa
  2021-10-10T08:18:30UTC 2021-10-09T22:18:30-10:00 2021-10-09T21:18:30-11:00  21.31299 -157.88873       0   0.0 Hōkūleʻa
  2021-10-10T07:18:32UTC 2021-10-09T21:18:32-10:00 2021-10-09T20:18:32-11:00  21.31299 -157.88873       0   0.0 Hōkūleʻa
  2021-10-10T06:17:39UTC 2021-10-09T20:17:39-10:00 2021-10-09T19:17:39-11:00  21.31299 -157.88873       0   0.0 Hōkūleʻa
  2021-10-10T05:18:29UTC 2021-10-09T19:18:29-10:00 2021-10-09T18:18:29-11:00  21.31299 -157.88873       0   0.0 Hōkūleʻa
  2021-10-10T04:18:32UTC 2021-10-09T18:18:32-10:00 2021-10-09T17:18:32-11:00  21.31299 -157.88873       0   0.0 Hōkūleʻa
  2021-10-10T03:18:33UTC 2021-10-09T17:18:33-10:00 2021-10-09T16:18:33-11:00  21.31299 -157.88873       0   0.0 Hōkūleʻa
  2021-10-10T02:18:47UTC 2021-10-09T16:18:47-10:00 2021-10-09T15:18:47-11:00  21.31299 -157.88873       0   0.0 Hōkūleʻa
  2021-10-10T01:17:37UTC 2021-10-09T15:17:37-10:00 2021-10-09T14:17:37-11:00  21.31299 -157.88873       0   0.0 Hōkūleʻa
  2021-10-10T00:26:03UTC 2021-10-09T14:26:03-10:00 2021-10-09T13:26:03-11:00  21.31299 -157.88873       0   0.0 Hōkūleʻa
  2021-10-09T23:17:27UTC 2021-10-09T13:17:27-10:00 2021-10-09T12:17:27-11:00  21.31299 -157.88873     309   0.0 Hōkūleʻa
  2021-10-09T22:17:48UTC 2021-10-09T12:17:48-10:00 2021-10-09T11:17:48-11:00  21.31286 -157.88856     129   0.0 Hōkūleʻa
  2021-10-09T21:26:25UTC 2021-10-09T11:26:25-10:00 2021-10-09T10:26:25-11:00  21.31299 -157.88873       0   0.0 Hōkūleʻa
  2021-10-09T20:18:21UTC 2021-10-09T10:18:21-10:00 2021-10-09T09:18:21-11:00  21.31299 -157.88873       0   0.0 Hōkūleʻa
  2021-10-09T19:18:32UTC 2021-10-09T09:18:32-10:00 2021-10-09T08:18:32-11:00  21.31299 -157.88873       0   0.0 Hōkūleʻa
  2021-10-09T18:18:49UTC 2021-10-09T08:18:49-10:00 2021-10-09T07:18:49-11:00  21.31299 -157.88873     328   0.0 Hōkūleʻa
  2021-10-09T17:18:29UTC 2021-10-09T07:18:29-10:00 2021-10-09T06:18:29-11:00  21.31283 -157.88862     148   0.0 Hōkūleʻa
  2021-10-09T16:18:32UTC 2021-10-09T06:18:32-10:00 2021-10-09T05:18:32-11:00  21.31299 -157.88873       0   0.0 Hōkūleʻa
  2021-10-09T15:18:31UTC 2021-10-09T05:18:31-10:00 2021-10-09T04:18:31-11:00  21.31299 -157.88873       0   0.0 Hōkūleʻa
  2021-10-09T14:18:43UTC 2021-10-09T04:18:43-10:00 2021-10-09T03:18:43-11:00  21.31299 -157.88873       0   0.0 Hōkūleʻa
  2021-10-09T13:18:27UTC 2021-10-09T03:18:27-10:00 2021-10-09T02:18:27-11:00  21.31299 -157.88873       0   0.0 Hōkūleʻa
  2021-10-09T12:39:44UTC 2021-10-09T02:39:44-10:00 2021-10-09T01:39:44-11:00  21.31299 -157.88873       0   0.0 Hōkūleʻa
  2021-10-09T11:28:53UTC 2021-10-09T01:28:53-10:00 2021-10-09T00:28:53-11:00  21.31299 -157.88873       0   0.0 Hōkūleʻa
  2021-10-09T10:18:28UTC 2021-10-09T00:18:28-10:00 2021-10-08T23:18:28-11:00  21.31299 -157.88873       0   0.0 Hōkūleʻa
  2021-10-09T09:18:29UTC 2021-10-08T23:18:29-10:00 2021-10-08T22:18:29-11:00  21.31299 -157.88873       0   0.0 Hōkūleʻa
  2021-10-09T08:18:47UTC 2021-10-08T22:18:47-10:00 2021-10-08T21:18:47-11:00  21.31299 -157.88873       0   0.0 Hōkūleʻa
  2021-10-09T07:18:29UTC 2021-10-08T21:18:29-10:00 2021-10-08T20:18:29-11:00  21.31299 -157.88873       0   0.0 Hōkūleʻa
  2021-10-09T06:18:30UTC 2021-10-08T20:18:30-10:00 2021-10-08T19:18:30-11:00  21.31299 -157.88873       0   0.0 Hōkūleʻa
  2021-10-09T05:29:53UTC 2021-10-08T19:29:53-10:00 2021-10-08T18:29:53-11:00  21.31299 -157.88873     298   0.0 Hōkūleʻa
  2021-10-09T04:18:39UTC 2021-10-08T18:18:39-10:00 2021-10-08T17:18:39-11:00  21.31291 -157.88856     118   0.0 Hōkūleʻa
  2021-10-09T03:18:35UTC 2021-10-08T17:18:35-10:00 2021-10-08T16:18:35-11:00  21.31299 -157.88873       0   0.0 Hōkūleʻa
  2021-10-09T02:27:42UTC 2021-10-08T16:27:42-10:00 2021-10-08T15:27:42-11:00  21.31299 -157.88873       0   0.0 Hōkūleʻa
  2021-10-09T01:17:32UTC 2021-10-08T15:17:32-10:00 2021-10-08T14:17:32-11:00  21.31299 -157.88873       0   0.0 Hōkūleʻa
  2021-10-09T00:26:05UTC 2021-10-08T14:26:05-10:00 2021-10-08T13:26:05-11:00  21.31299 -157.88873       0   0.0 Hōkūleʻa
  2021-10-08T23:17:23UTC 2021-10-08T13:17:23-10:00 2021-10-08T12:17:23-11:00  21.31299 -157.88873       0   0.0 Hōkūleʻa
  2021-10-08T22:18:24UTC 2021-10-08T12:18:24-10:00 2021-10-08T11:18:24-11:00  21.31299 -157.88873       0   0.0 Hōkūleʻa
  2021-10-08T21:17:22UTC 2021-10-08T11:17:22-10:00 2021-10-08T10:17:22-11:00  21.31299 -157.88873       0   0.0 Hōkūleʻa
  2021-10-08T20:18:44UTC 2021-10-08T10:18:44-10:00 2021-10-08T09:18:44-11:00  21.31299 -157.88873     312   0.0 Hōkūleʻa
  2021-10-08T19:18:36UTC 2021-10-08T09:18:36-10:00 2021-10-08T08:18:36-11:00  21.31289 -157.88860     132   0.0 Hōkūleʻa
  2021-10-08T18:24:53UTC 2021-10-08T08:24:53-10:00 2021-10-08T07:24:53-11:00  21.31299 -157.88873       0   0.0 Hōkūleʻa
  2021-10-08T17:18:31UTC 2021-10-08T07:18:31-10:00 2021-10-08T06:18:31-11:00  21.31299 -157.88873       0   0.0 Hōkūleʻa
  2021-10-08T16:17:41UTC 2021-10-08T06:17:41-10:00 2021-10-08T05:17:41-11:00  21.31299 -157.88873     322   0.0 Hōkūleʻa
  2021-10-08T15:18:30UTC 2021-10-08T05:18:30-10:00 2021-10-08T04:18:30-11:00  21.31286 -157.88862     142   0.0 Hōkūleʻa
  2021-10-08T14:18:37UTC 2021-10-08T04:18:37-10:00 2021-10-08T03:18:37-11:00  21.31299 -157.88873       0   0.0 Hōkūleʻa
  2021-10-08T13:18:24UTC 2021-10-08T03:18:24-10:00 2021-10-08T02:18:24-11:00  21.31299 -157.88873       0   0.0 Hōkūleʻa
  2021-10-08T12:18:46UTC 2021-10-08T02:18:46-10:00 2021-10-08T01:18:46-11:00  21.31299 -157.88873       0   0.0 Hōkūleʻa
  2021-10-08T11:18:47UTC 2021-10-08T01:18:47-10:00 2021-10-08T00:18:47-11:00  21.31299 -157.88873       0   0.0 Hōkūleʻa
  2021-10-08T10:18:27UTC 2021-10-08T00:18:27-10:00 2021-10-07T23:18:27-11:00  21.31299 -157.88873       0   0.0 Hōkūleʻa
  2021-10-08T09:18:32UTC 2021-10-07T23:18:32-10:00 2021-10-07T22:18:32-11:00  21.31299 -157.88873       0   0.0 Hōkūleʻa
  2021-10-08T08:30:05UTC 2021-10-07T22:30:05-10:00 2021-10-07T21:30:05-11:00  21.31299 -157.88873     314   0.0 Hōkūleʻa
  2021-10-08T07:18:37UTC 2021-10-07T21:18:37-10:00 2021-10-07T20:18:37-11:00  21.31288 -157.88860     134   0.0 Hōkūleʻa
  2021-10-08T06:18:24UTC 2021-10-07T20:18:24-10:00 2021-10-07T19:18:24-11:00  21.31299 -157.88873       0   0.0 Hōkūleʻa
  2021-10-08T05:18:30UTC 2021-10-07T19:18:30-10:00 2021-10-07T18:18:30-11:00  21.31299 -157.88873       0   0.0 Hōkūleʻa
  2021-10-08T04:17:40UTC 2021-10-07T18:17:40-10:00 2021-10-07T17:17:40-11:00  21.31299 -157.88873       0   0.0 Hōkūleʻa
  2021-10-08T03:18:30UTC 2021-10-07T17:18:30-10:00 2021-10-07T16:18:30-11:00  21.31299 -157.88873       0   0.0 Hōkūleʻa
  2021-10-08T02:27:40UTC 2021-10-07T16:27:40-10:00 2021-10-07T15:27:40-11:00  21.31299 -157.88873       0   0.0 Hōkūleʻa
  2021-10-08T01:17:33UTC 2021-10-07T15:17:33-10:00 2021-10-07T14:17:33-11:00  21.31299 -157.88873       0   0.0 Hōkūleʻa
  2021-10-08T00:18:41UTC 2021-10-07T14:18:41-10:00 2021-10-07T13:18:41-11:00  21.31299 -157.88873       0   0.0 Hōkūleʻa
  2021-10-07T23:17:33UTC 2021-10-07T13:17:33-10:00 2021-10-07T12:17:33-11:00  21.31299 -157.88873       0   0.0 Hōkūleʻa
  2021-10-07T22:26:23UTC 2021-10-07T12:26:23-10:00 2021-10-07T11:26:23-11:00  21.31299 -157.88873     317   0.0 Hōkūleʻa
  2021-10-07T21:18:29UTC 2021-10-07T11:18:29-10:00 2021-10-07T10:18:29-11:00  21.31284 -157.88858     137   0.0 Hōkūleʻa
  2021-10-07T20:17:48UTC 2021-10-07T10:17:48-10:00 2021-10-07T09:17:48-11:00  21.31299 -157.88873       0   0.0 Hōkūleʻa
  2021-10-07T19:18:32UTC 2021-10-07T09:18:32-10:00 2021-10-07T08:18:32-11:00  21.31299 -157.88873       0   0.0 Hōkūleʻa
  2021-10-07T18:18:31UTC 2021-10-07T08:18:31-10:00 2021-10-07T07:18:31-11:00  21.31299 -157.88873       0   0.0 Hōkūleʻa
  2021-10-07T17:18:38UTC 2021-10-07T07:18:38-10:00 2021-10-07T06:18:38-11:00  21.31299 -157.88873       0   0.0 Hōkūleʻa
  2021-10-07T16:19:59UTC 2021-10-07T06:19:59-10:00 2021-10-07T05:19:59-11:00  21.31299 -157.88873       0   0.0 Hōkūleʻa
  2021-10-07T15:18:32UTC 2021-10-07T05:18:32-10:00 2021-10-07T04:18:32-11:00  21.31299 -157.88873       0   0.0 Hōkūleʻa
  2021-10-07T14:18:47UTC 2021-10-07T04:18:47-10:00 2021-10-07T03:18:47-11:00  21.31299 -157.88873       0   0.0 Hōkūleʻa
  2021-10-07T13:18:35UTC 2021-10-07T03:18:35-10:00 2021-10-07T02:18:35-11:00  21.31299 -157.88873       0   0.0 Hōkūleʻa
  2021-10-07T12:35:32UTC 2021-10-07T02:35:32-10:00 2021-10-07T01:35:32-11:00  21.31299 -157.88873       0   0.0 Hōkūleʻa
  2021-10-07T11:18:46UTC 2021-10-07T01:18:46-10:00 2021-10-07T00:18:46-11:00  21.31299 -157.88873       0   0.0 Hōkūleʻa
  2021-10-07T10:18:36UTC 2021-10-07T00:18:36-10:00 2021-10-06T23:18:36-11:00  21.31299 -157.88873       0   0.0 Hōkūleʻa
  2021-10-07T09:18:30UTC 2021-10-06T23:18:30-10:00 2021-10-06T22:18:30-11:00  21.31299 -157.88873       0   0.0 Hōkūleʻa
  2021-10-07T08:17:46UTC 2021-10-06T22:17:46-10:00 2021-10-06T21:17:46-11:00  21.31299 -157.88873     317   0.0 Hōkūleʻa
  2021-10-07T07:18:24UTC 2021-10-06T21:18:24-10:00 2021-10-06T20:18:24-11:00  21.31286 -157.88860     137   0.0 Hōkūleʻa
  2021-10-07T06:18:23UTC 2021-10-06T20:18:23-10:00 2021-10-06T19:18:23-11:00  21.31299 -157.88873       0   0.0 Hōkūleʻa
  2021-10-07T05:17:37UTC 2021-10-06T19:17:37-10:00 2021-10-06T18:17:37-11:00  21.31299 -157.88873       0   0.0 Hōkūleʻa
  2021-10-07T04:27:48UTC 2021-10-06T18:27:48-10:00 2021-10-06T17:27:48-11:00  21.31299 -157.88873     306   0.0 Hōkūleʻa
  2021-10-07T03:18:24UTC 2021-10-06T17:18:24-10:00 2021-10-06T16:18:24-11:00  21.31288 -157.88856     126   0.0 Hōkūleʻa
  2021-10-07T02:17:46UTC 2021-10-06T16:17:46-10:00 2021-10-06T15:17:46-11:00  21.31299 -157.88873       0   0.0 Hōkūleʻa
  2021-10-07T01:17:37UTC 2021-10-06T15:17:37-10:00 2021-10-06T14:17:37-11:00  21.31299 -157.88873       0   0.0 Hōkūleʻa
  2021-10-07T00:26:16UTC 2021-10-06T14:26:16-10:00 2021-10-06T13:26:16-11:00  21.31299 -157.88873       0   0.0 Hōkūleʻa
  2021-10-06T23:18:21UTC 2021-10-06T13:18:21-10:00 2021-10-06T12:18:21-11:00  21.31299 -157.88873       0   0.0 Hōkūleʻa
  2021-10-06T22:17:45UTC 2021-10-06T12:17:45-10:00 2021-10-06T11:17:45-11:00  21.31299 -157.88873       0   0.0 Hōkūleʻa
  2021-10-06T21:18:33UTC 2021-10-06T11:18:33-10:00 2021-10-06T10:18:33-11:00  21.31299 -157.88873       0   0.0 Hōkūleʻa
  2021-10-06T20:18:29UTC 2021-10-06T10:18:29-10:00 2021-10-06T09:18:29-11:00  21.31299 -157.88873       0   0.0 Hōkūleʻa
  2021-10-06T19:18:50UTC 2021-10-06T09:18:50-10:00 2021-10-06T08:18:50-11:00  21.31299 -157.88873      98   0.0 Hōkūleʻa
  2021-10-06T18:18:38UTC 2021-10-06T08:18:38-10:00 2021-10-06T07:18:38-11:00  21.31302 -157.88888     278   0.0 Hōkūleʻa
  2021-10-06T17:18:30UTC 2021-10-06T07:18:30-10:00 2021-10-06T06:18:30-11:00  21.31299 -157.88873       0   0.0 Hōkūleʻa
  2021-10-06T16:18:43UTC 2021-10-06T06:18:43-10:00 2021-10-06T05:18:43-11:00  21.31299 -157.88873     136   0.0 Hōkūleʻa
  2021-09-30T17:18:31UTC 2021-09-30T07:18:31-10:00 2021-09-30T06:18:31-11:00  21.31302 -157.88875       0   0.0 Hōkūleʻa
  2021-09-30T16:18:37UTC 2021-09-30T06:18:37-10:00 2021-09-30T05:18:37-11:00  21.31302 -157.88875       0   0.0 Hōkūleʻa
  2021-09-30T15:18:35UTC 2021-09-30T05:18:35-10:00 2021-09-30T04:18:35-11:00  21.31302 -157.88875       0   0.0 Hōkūleʻa
  2021-09-30T14:18:37UTC 2021-09-30T04:18:37-10:00 2021-09-30T03:18:37-11:00  21.31302 -157.88875       0   0.0 Hōkūleʻa
  2021-09-30T13:18:24UTC 2021-09-30T03:18:24-10:00 2021-09-30T02:18:24-11:00  21.31302 -157.88875       0   0.0 Hōkūleʻa
  2021-09-30T12:18:50UTC 2021-09-30T02:18:50-10:00 2021-09-30T01:18:50-11:00  21.31302 -157.88875       0   0.0 Hōkūleʻa
  2021-09-30T11:18:36UTC 2021-09-30T01:18:36-10:00 2021-09-30T00:18:36-11:00  21.31302 -157.88875       0   0.0 Hōkūleʻa
  2021-09-30T10:17:33UTC 2021-09-30T00:17:33-10:00 2021-09-29T23:17:33-11:00  21.31302 -157.88875       0   0.0 Hōkūleʻa
  2021-09-30T09:18:41UTC 2021-09-29T23:18:41-10:00 2021-09-29T22:18:41-11:00  21.31302 -157.88875       0   0.0 Hōkūleʻa
  2021-09-30T08:18:22UTC 2021-09-29T22:18:22-10:00 2021-09-29T21:18:22-11:00  21.31302 -157.88875       0   0.0 Hōkūleʻa
  2021-09-30T07:18:32UTC 2021-09-29T21:18:32-10:00 2021-09-29T20:18:32-11:00  21.31302 -157.88875       0   0.0 Hōkūleʻa
  2021-09-30T06:18:50UTC 2021-09-29T20:18:50-10:00 2021-09-29T19:18:50-11:00  21.31302 -157.88875       0   0.0 Hōkūleʻa
  2021-09-30T05:18:37UTC 2021-09-29T19:18:37-10:00 2021-09-29T18:18:37-11:00  21.31302 -157.88875       0   0.0 Hōkūleʻa
  2021-09-30T04:18:33UTC 2021-09-29T18:18:33-10:00 2021-09-29T17:18:33-11:00  21.31302 -157.88875       0   0.0 Hōkūleʻa
  2021-09-30T03:18:32UTC 2021-09-29T17:18:32-10:00 2021-09-29T16:18:32-11:00  21.31302 -157.88875       0   0.0 Hōkūleʻa
  2021-09-30T02:18:45UTC 2021-09-29T16:18:45-10:00 2021-09-29T15:18:45-11:00  21.31302 -157.88875       0   0.0 Hōkūleʻa
  2021-09-30T01:17:26UTC 2021-09-29T15:17:26-10:00 2021-09-29T14:17:26-11:00  21.31302 -157.88875       0   0.0 Hōkūleʻa
  2021-09-30T00:18:30UTC 2021-09-29T14:18:30-10:00 2021-09-29T13:18:30-11:00  21.31302 -157.88875       0   0.0 Hōkūleʻa
  2021-09-29T23:17:29UTC 2021-09-29T13:17:29-10:00 2021-09-29T12:17:29-11:00  21.31302 -157.88875       0   0.0 Hōkūleʻa
  2021-09-29T22:17:42UTC 2021-09-29T12:17:42-10:00 2021-09-29T11:17:42-11:00  21.31302 -157.88875       0   0.0 Hōkūleʻa
  2021-09-29T21:18:30UTC 2021-09-29T11:18:30-10:00 2021-09-29T10:18:30-11:00  21.31302 -157.88875       0   0.0 Hōkūleʻa
  2021-09-29T20:33:04UTC 2021-09-29T10:33:04-10:00 2021-09-29T09:33:04-11:00  21.31302 -157.88875       0   0.0 Hōkūleʻa
  2021-09-29T19:18:33UTC 2021-09-29T09:18:33-10:00 2021-09-29T08:18:33-11:00  21.31302 -157.88875       0   0.0 Hōkūleʻa
  2021-09-29T18:18:46UTC 2021-09-29T08:18:46-10:00 2021-09-29T07:18:46-11:00  21.31302 -157.88875       0   0.0 Hōkūleʻa
  2021-09-29T17:18:24UTC 2021-09-29T07:18:24-10:00 2021-09-29T06:18:24-11:00  21.31302 -157.88875       0   0.0 Hōkūleʻa
  2021-09-29T16:18:28UTC 2021-09-29T06:18:28-10:00 2021-09-29T05:18:28-11:00  21.31302 -157.88875       0   0.0 Hōkūleʻa
  2021-09-29T15:18:49UTC 2021-09-29T05:18:49-10:00 2021-09-29T04:18:49-11:00  21.31302 -157.88875       0   0.0 Hōkūleʻa
  2021-09-29T14:18:30UTC 2021-09-29T04:18:30-10:00 2021-09-29T03:18:30-11:00  21.31302 -157.88875       0   0.0 Hōkūleʻa
  2021-09-29T05:18:28UTC 2021-09-28T19:18:28-10:00 2021-09-28T18:18:28-11:00  21.31302 -157.88875       0   0.0 Hōkūleʻa
  2021-09-29T04:18:47UTC 2021-09-28T18:18:47-10:00 2021-09-28T17:18:47-11:00  21.31302 -157.88875       0   0.0 Hōkūleʻa
  2021-09-29T03:17:47UTC 2021-09-28T17:17:47-10:00 2021-09-28T16:17:47-11:00  21.31302 -157.88875       0   0.0 Hōkūleʻa
  2021-09-29T02:18:30UTC 2021-09-28T16:18:30-10:00 2021-09-28T15:18:30-11:00  21.31302 -157.88875       0   0.0 Hōkūleʻa
  2021-09-29T01:25:38UTC 2021-09-28T15:25:38-10:00 2021-09-28T14:25:38-11:00  21.31302 -157.88875       0   0.0 Hōkūleʻa
  2021-09-29T00:25:44UTC 2021-09-28T14:25:44-10:00 2021-09-28T13:25:44-11:00  21.31302 -157.88875       0   0.0 Hōkūleʻa
  2021-09-28T23:17:35UTC 2021-09-28T13:17:35-10:00 2021-09-28T12:17:35-11:00  21.31302 -157.88875       0   0.0 Hōkūleʻa
  2021-09-28T22:17:32UTC 2021-09-28T12:17:32-10:00 2021-09-28T11:17:32-11:00  21.31302 -157.88875       0   0.0 Hōkūleʻa
  2021-09-28T21:18:24UTC 2021-09-28T11:18:24-10:00 2021-09-28T10:18:24-11:00  21.31302 -157.88875       0   0.0 Hōkūleʻa
  2021-09-28T20:25:22UTC 2021-09-28T10:25:22-10:00 2021-09-28T09:25:22-11:00  21.31302 -157.88875       0   0.0 Hōkūleʻa
  2021-09-28T19:18:36UTC 2021-09-28T09:18:36-10:00 2021-09-28T08:18:36-11:00  21.31302 -157.88875       0   0.0 Hōkūleʻa
  2021-09-28T18:27:51UTC 2021-09-28T08:27:51-10:00 2021-09-28T07:27:51-11:00  21.31302 -157.88875       0   0.0 Hōkūleʻa
  2021-09-28T17:18:23UTC 2021-09-28T07:18:23-10:00 2021-09-28T06:18:23-11:00  21.31302 -157.88875       0   0.0 Hōkūleʻa
  2021-09-28T16:18:44UTC 2021-09-28T06:18:44-10:00 2021-09-28T05:18:44-11:00  21.31302 -157.88875       0   0.0 Hōkūleʻa
  2021-09-28T15:18:44UTC 2021-09-28T05:18:44-10:00 2021-09-28T04:18:44-11:00  21.31302 -157.88875       0   0.0 Hōkūleʻa
  2021-09-28T14:19:37UTC 2021-09-28T04:19:37-10:00 2021-09-28T03:19:37-11:00  21.31302 -157.88875       0   0.0 Hōkūleʻa
  2021-09-28T13:28:37UTC 2021-09-28T03:28:37-10:00 2021-09-28T02:28:37-11:00  21.31302 -157.88875       0   0.0 Hōkūleʻa
  2021-09-28T12:18:47UTC 2021-09-28T02:18:47-10:00 2021-09-28T01:18:47-11:00  21.31302 -157.88875       0   0.0 Hōkūleʻa
  2021-09-28T11:18:36UTC 2021-09-28T01:18:36-10:00 2021-09-28T00:18:36-11:00  21.31302 -157.88875       0   0.0 Hōkūleʻa
  2021-09-28T10:18:32UTC 2021-09-28T00:18:32-10:00 2021-09-27T23:18:32-11:00  21.31302 -157.88875       0   0.0 Hōkūleʻa
  2021-09-28T09:18:32UTC 2021-09-27T23:18:32-10:00 2021-09-27T22:18:32-11:00  21.31302 -157.88875       0   0.0 Hōkūleʻa
  2021-09-28T08:18:53UTC 2021-09-27T22:18:53-10:00 2021-09-27T21:18:53-11:00  21.31302 -157.88875       0   0.0 Hōkūleʻa
  2021-09-28T07:18:24UTC 2021-09-27T21:18:24-10:00 2021-09-27T20:18:24-11:00  21.31302 -157.88875       0   0.0 Hōkūleʻa
  2021-09-28T06:18:31UTC 2021-09-27T20:18:31-10:00 2021-09-27T19:18:31-11:00  21.31302 -157.88875       0   0.0 Hōkūleʻa
  2021-09-28T05:17:20UTC 2021-09-27T19:17:20-10:00 2021-09-27T18:17:20-11:00  21.31302 -157.88875       0   0.0 Hōkūleʻa
  2021-09-28T04:18:37UTC 2021-09-27T18:18:37-10:00 2021-09-27T17:18:37-11:00  21.31302 -157.88875       0   0.0 Hōkūleʻa
  2021-09-28T03:18:49UTC 2021-09-27T17:18:49-10:00 2021-09-27T16:18:49-11:00  21.31302 -157.88875       0   0.0 Hōkūleʻa
  2021-09-28T02:18:30UTC 2021-09-27T16:18:30-10:00 2021-09-27T15:18:30-11:00  21.31302 -157.88875       0   0.0 Hōkūleʻa
  2021-09-28T01:18:33UTC 2021-09-27T15:18:33-10:00 2021-09-27T14:18:33-11:00  21.31302 -157.88875       0   0.0 Hōkūleʻa
  2021-09-28T00:17:48UTC 2021-09-27T14:17:48-10:00 2021-09-27T13:17:48-11:00  21.31302 -157.88875       0   0.0 Hōkūleʻa
  2021-09-27T23:17:29UTC 2021-09-27T13:17:29-10:00 2021-09-27T12:17:29-11:00  21.31302 -157.88875       0   0.0 Hōkūleʻa
  2021-09-27T22:18:24UTC 2021-09-27T12:18:24-10:00 2021-09-27T11:18:24-11:00  21.31302 -157.88875       0   0.0 Hōkūleʻa
  2021-09-27T21:17:31UTC 2021-09-27T11:17:31-10:00 2021-09-27T10:17:31-11:00  21.31302 -157.88875       0   0.0 Hōkūleʻa
  2021-09-27T20:28:41UTC 2021-09-27T10:28:41-10:00 2021-09-27T09:28:41-11:00  21.31302 -157.88875       0   0.0 Hōkūleʻa
  2021-09-27T19:18:27UTC 2021-09-27T09:18:27-10:00 2021-09-27T08:18:27-11:00  21.31302 -157.88875       0   0.0 Hōkūleʻa
  2021-09-27T18:18:34UTC 2021-09-27T08:18:34-10:00 2021-09-27T07:18:34-11:00  21.31302 -157.88875       0   0.0 Hōkūleʻa
  2021-09-27T17:18:36UTC 2021-09-27T07:18:36-10:00 2021-09-27T06:18:36-11:00  21.31302 -157.88875     317   0.0 Hōkūleʻa
  2021-09-27T15:18:43UTC 2021-09-27T05:18:43-10:00 2021-09-27T04:18:43-11:00  21.31286 -157.88860     137   0.0 Hōkūleʻa
  2021-09-27T14:27:58UTC 2021-09-27T04:27:58-10:00 2021-09-27T03:27:58-11:00  21.31302 -157.88875       0   0.0 Hōkūleʻa
  2021-09-27T13:18:26UTC 2021-09-27T03:18:26-10:00 2021-09-27T02:18:26-11:00  21.31302 -157.88875       0   0.0 Hōkūleʻa
  2021-09-27T12:18:40UTC 2021-09-27T02:18:40-10:00 2021-09-27T01:18:40-11:00  21.31302 -157.88875       0   0.0 Hōkūleʻa
  2021-09-27T11:18:38UTC 2021-09-27T01:18:38-10:00 2021-09-27T00:18:38-11:00  21.31302 -157.88875       0   0.0 Hōkūleʻa
  2021-09-27T10:18:30UTC 2021-09-27T00:18:30-10:00 2021-09-26T23:18:30-11:00  21.31302 -157.88875       0   0.0 Hōkūleʻa
  2021-09-27T09:18:33UTC 2021-09-26T23:18:33-10:00 2021-09-26T22:18:33-11:00  21.31302 -157.88875       0   0.0 Hōkūleʻa
  2021-09-27T08:17:47UTC 2021-09-26T22:17:47-10:00 2021-09-26T21:17:47-11:00  21.31302 -157.88875       0   0.0 Hōkūleʻa
  2021-09-27T07:18:29UTC 2021-09-26T21:18:29-10:00 2021-09-26T20:18:29-11:00  21.31302 -157.88875     312   0.0 Hōkūleʻa
  2021-09-27T06:18:25UTC 2021-09-26T20:18:25-10:00 2021-09-26T19:18:25-11:00  21.31289 -157.88860     132   0.0 Hōkūleʻa
  2021-09-27T05:18:30UTC 2021-09-26T19:18:30-10:00 2021-09-26T18:18:30-11:00  21.31302 -157.88875       0   0.0 Hōkūleʻa
  2021-09-27T04:17:41UTC 2021-09-26T18:17:41-10:00 2021-09-26T17:17:41-11:00  21.31302 -157.88875       0   0.0 Hōkūleʻa
  2021-09-27T03:18:30UTC 2021-09-26T17:18:30-10:00 2021-09-26T16:18:30-11:00  21.31302 -157.88875     294   0.0 Hōkūleʻa
  2021-09-27T02:18:38UTC 2021-09-26T16:18:38-10:00 2021-09-26T15:18:38-11:00  21.31295 -157.88860     114   0.0 Hōkūleʻa
  2021-09-27T01:32:07UTC 2021-09-26T15:32:07-10:00 2021-09-26T14:32:07-11:00  21.31302 -157.88875     313   0.0 Hōkūleʻa
  2021-09-26T23:17:49UTC 2021-09-26T13:17:49-10:00 2021-09-26T12:17:49-11:00  21.31284 -157.88856      82   0.0 Hōkūleʻa
  2021-09-26T22:17:37UTC 2021-09-26T12:17:37-10:00 2021-09-26T11:17:37-11:00  21.31282 -157.88873     174   0.0 Hōkūleʻa
  2021-09-26T21:18:24UTC 2021-09-26T11:18:24-10:00 2021-09-26T10:18:24-11:00  21.31302 -157.88875       0   0.0 Hōkūleʻa
  2021-09-26T20:17:38UTC 2021-09-26T10:17:38-10:00 2021-09-26T09:17:38-11:00  21.31302 -157.88875       0   0.0 Hōkūleʻa
  2021-09-26T19:18:43UTC 2021-09-26T09:18:43-10:00 2021-09-26T08:18:43-11:00  21.31302 -157.88875       0   0.0 Hōkūleʻa
  2021-09-26T18:18:31UTC 2021-09-26T08:18:31-10:00 2021-09-26T07:18:31-11:00  21.31302 -157.88875       0   0.0 Hōkūleʻa
  2021-09-26T17:18:24UTC 2021-09-26T07:18:24-10:00 2021-09-26T06:18:24-11:00  21.31302 -157.88875       0   0.0 Hōkūleʻa
  2021-09-26T16:18:46UTC 2021-09-26T06:18:46-10:00 2021-09-26T05:18:46-11:00  21.31302 -157.88875       0   0.0 Hōkūleʻa
  2021-09-26T15:18:30UTC 2021-09-26T05:18:30-10:00 2021-09-26T04:18:30-11:00  21.31302 -157.88875       0   0.0 Hōkūleʻa
  2021-09-26T14:18:37UTC 2021-09-26T04:18:37-10:00 2021-09-26T03:18:37-11:00  21.31302 -157.88875       0   0.0 Hōkūleʻa
  2021-09-26T13:17:33UTC 2021-09-26T03:17:33-10:00 2021-09-26T02:17:33-11:00  21.31302 -157.88875       0   0.0 Hōkūleʻa
  2021-09-26T12:30:45UTC 2021-09-26T02:30:45-10:00 2021-09-26T01:30:45-11:00  21.31302 -157.88875       0   0.0 Hōkūleʻa
  2021-09-26T11:18:35UTC 2021-09-26T01:18:35-10:00 2021-09-26T00:18:35-11:00  21.31302 -157.88875       0   0.0 Hōkūleʻa
  2021-09-26T10:17:35UTC 2021-09-26T00:17:35-10:00 2021-09-25T23:17:35-11:00  21.31302 -157.88875     148   0.0 Hōkūleʻa
  2021-09-26T09:18:23UTC 2021-09-25T23:18:23-10:00 2021-09-25T22:18:23-11:00  21.31305 -157.88877       0   0.0 Hōkūleʻa
  2021-09-26T08:18:49UTC 2021-09-25T22:18:49-10:00 2021-09-25T21:18:49-11:00  21.31305 -157.88877       0   0.0 Hōkūleʻa
  2021-09-26T07:18:33UTC 2021-09-25T21:18:33-10:00 2021-09-25T20:18:33-11:00  21.31305 -157.88877       0   0.0 Hōkūleʻa
  2021-09-26T06:18:24UTC 2021-09-25T20:18:24-10:00 2021-09-25T19:18:24-11:00  21.31305 -157.88877       0   0.0 Hōkūleʻa
  2021-09-26T05:18:32UTC 2021-09-25T19:18:32-10:00 2021-09-25T18:18:32-11:00  21.31305 -157.88877       0   0.0 Hōkūleʻa
  2021-09-26T04:18:45UTC 2021-09-25T18:18:45-10:00 2021-09-25T17:18:45-11:00  21.31305 -157.88877       0   0.0 Hōkūleʻa
  2021-09-26T03:18:38UTC 2021-09-25T17:18:38-10:00 2021-09-25T16:18:38-11:00  21.31305 -157.88877       0   0.0 Hōkūleʻa
  2021-09-26T02:18:21UTC 2021-09-25T16:18:21-10:00 2021-09-25T15:18:21-11:00  21.31305 -157.88877       0   0.0 Hōkūleʻa
  2021-09-26T01:17:52UTC 2021-09-25T15:17:52-10:00 2021-09-25T14:17:52-11:00  21.31305 -157.88877       0   0.0 Hōkūleʻa
  2021-09-26T00:18:48UTC 2021-09-25T14:18:48-10:00 2021-09-25T13:18:48-11:00  21.31305 -157.88877       0   0.0 Hōkūleʻa
  2021-09-25T23:17:35UTC 2021-09-25T13:17:35-10:00 2021-09-25T12:17:35-11:00  21.31305 -157.88877       0   0.0 Hōkūleʻa
  2021-09-25T22:17:37UTC 2021-09-25T12:17:37-10:00 2021-09-25T11:17:37-11:00  21.31305 -157.88877       0   0.0 Hōkūleʻa
  2021-09-25T21:38:30UTC 2021-09-25T11:38:30-10:00 2021-09-25T10:38:30-11:00  21.31305 -157.88877       0   0.0 Hōkūleʻa
  2021-09-25T20:17:45UTC 2021-09-25T10:17:45-10:00 2021-09-25T09:17:45-11:00  21.31305 -157.88877     324   0.0 Hōkūleʻa
  2021-09-25T19:18:33UTC 2021-09-25T09:18:33-10:00 2021-09-25T08:18:33-11:00  21.31291 -157.88866     144   0.0 Hōkūleʻa
  2021-09-25T18:17:32UTC 2021-09-25T08:17:32-10:00 2021-09-25T07:17:32-11:00  21.31305 -157.88877       0   0.0 Hōkūleʻa
  2021-09-25T17:18:23UTC 2021-09-25T07:18:23-10:00 2021-09-25T06:18:23-11:00  21.31305 -157.88877       0   0.0 Hōkūleʻa
  2021-09-25T16:18:37UTC 2021-09-25T06:18:37-10:00 2021-09-25T05:18:37-11:00  21.31305 -157.88877       0   0.0 Hōkūleʻa
  2021-09-25T15:18:35UTC 2021-09-25T05:18:35-10:00 2021-09-25T04:18:35-11:00  21.31305 -157.88877       0   0.0 Hōkūleʻa
  2021-09-25T14:18:30UTC 2021-09-25T04:18:30-10:00 2021-09-25T03:18:30-11:00  21.31305 -157.88877       0   0.0 Hōkūleʻa
  2021-09-25T13:38:09UTC 2021-09-25T03:38:09-10:00 2021-09-25T02:38:09-11:00  21.31305 -157.88877       0   0.0 Hōkūleʻa
  2021-09-25T12:18:48UTC 2021-09-25T02:18:48-10:00 2021-09-25T01:18:48-11:00  21.31305 -157.88877       0   0.0 Hōkūleʻa
  2021-09-25T11:17:37UTC 2021-09-25T01:17:37-10:00 2021-09-25T00:17:37-11:00  21.31305 -157.88877       0   0.0 Hōkūleʻa
  2021-09-25T10:18:23UTC 2021-09-25T00:18:23-10:00 2021-09-24T23:18:23-11:00  21.31305 -157.88877       0   0.0 Hōkūleʻa
  2021-09-25T09:25:10UTC 2021-09-24T23:25:10-10:00 2021-09-24T22:25:10-11:00  21.31305 -157.88877       0   0.0 Hōkūleʻa
  2021-09-25T08:18:49UTC 2021-09-24T22:18:49-10:00 2021-09-24T21:18:49-11:00  21.31305 -157.88877       0   0.0 Hōkūleʻa
  2021-09-25T07:18:24UTC 2021-09-24T21:18:24-10:00 2021-09-24T20:18:24-11:00  21.31305 -157.88877       0   0.0 Hōkūleʻa
  2021-09-25T06:18:24UTC 2021-09-24T20:18:24-10:00 2021-09-24T19:18:24-11:00  21.31305 -157.88877       0   0.0 Hōkūleʻa
  2021-09-25T05:18:32UTC 2021-09-24T19:18:32-10:00 2021-09-24T18:18:32-11:00  21.31305 -157.88877       0   0.0 Hōkūleʻa
  2021-09-25T04:17:47UTC 2021-09-24T18:17:47-10:00 2021-09-24T17:17:47-11:00  21.31305 -157.88877       0   0.0 Hōkūleʻa
  2021-09-25T03:29:27UTC 2021-09-24T17:29:27-10:00 2021-09-24T16:29:27-11:00  21.31305 -157.88877       0   0.0 Hōkūleʻa
  2021-09-25T02:17:30UTC 2021-09-24T16:17:30-10:00 2021-09-24T15:17:30-11:00  21.31305 -157.88877       0   0.0 Hōkūleʻa
  2021-09-25T01:18:24UTC 2021-09-24T15:18:24-10:00 2021-09-24T14:18:24-11:00  21.31305 -157.88877       0   0.0 Hōkūleʻa
  2021-09-25T00:34:58UTC 2021-09-24T14:34:58-10:00 2021-09-24T13:34:58-11:00  21.31305 -157.88877       0   0.0 Hōkūleʻa
  2021-09-24T23:34:29UTC 2021-09-24T13:34:29-10:00 2021-09-24T12:34:29-11:00  21.31305 -157.88877       0   0.0 Hōkūleʻa
  2021-09-24T22:18:23UTC 2021-09-24T12:18:23-10:00 2021-09-24T11:18:23-11:00  21.31305 -157.88877       0   0.0 Hōkūleʻa
  2021-09-24T21:17:31UTC 2021-09-24T11:17:31-10:00 2021-09-24T10:17:31-11:00  21.31305 -157.88877       0   0.0 Hōkūleʻa
  2021-09-24T20:18:47UTC 2021-09-24T10:18:47-10:00 2021-09-24T09:18:47-11:00  21.31305 -157.88877       0   0.0 Hōkūleʻa
  2021-09-24T19:17:24UTC 2021-09-24T09:17:24-10:00 2021-09-24T08:17:24-11:00  21.31305 -157.88877       0   0.0 Hōkūleʻa
  2021-09-24T18:18:30UTC 2021-09-24T08:18:30-10:00 2021-09-24T07:18:30-11:00  21.31305 -157.88877       0   0.0 Hōkūleʻa
  2021-09-24T17:18:29UTC 2021-09-24T07:18:29-10:00 2021-09-24T06:18:29-11:00  21.31305 -157.88877       0   0.0 Hōkūleʻa
  2021-09-24T16:19:45UTC 2021-09-24T06:19:45-10:00 2021-09-24T05:19:45-11:00  21.31305 -157.88877       0   0.0 Hōkūleʻa
  2021-09-24T15:18:38UTC 2021-09-24T05:18:38-10:00 2021-09-24T04:18:38-11:00  21.31305 -157.88877       0   0.0 Hōkūleʻa
  2021-09-24T14:18:37UTC 2021-09-24T04:18:37-10:00 2021-09-24T03:18:37-11:00  21.31305 -157.88877       0   0.0 Hōkūleʻa
  2021-09-24T13:17:34UTC 2021-09-24T03:17:34-10:00 2021-09-24T02:17:34-11:00  21.31305 -157.88877       0   0.0 Hōkūleʻa
  2021-09-24T12:18:40UTC 2021-09-24T02:18:40-10:00 2021-09-24T01:18:40-11:00  21.31305 -157.88877       0   0.0 Hōkūleʻa
  2021-09-24T11:18:30UTC 2021-09-24T01:18:30-10:00 2021-09-24T00:18:30-11:00  21.31305 -157.88877       0   0.0 Hōkūleʻa
  2021-09-24T10:19:29UTC 2021-09-24T00:19:29-10:00 2021-09-23T23:19:29-11:00  21.31305 -157.88877       0   0.0 Hōkūleʻa
  2021-09-24T09:17:37UTC 2021-09-23T23:17:37-10:00 2021-09-23T22:17:37-11:00  21.31305 -157.88877       0   0.0 Hōkūleʻa
  2021-09-24T08:18:38UTC 2021-09-23T22:18:38-10:00 2021-09-23T21:18:38-11:00  21.31305 -157.88877       0   0.0 Hōkūleʻa
  2021-09-24T07:18:27UTC 2021-09-23T21:18:27-10:00 2021-09-23T20:18:27-11:00  21.31305 -157.88877       0   0.0 Hōkūleʻa
  2021-09-24T06:18:30UTC 2021-09-23T20:18:30-10:00 2021-09-23T19:18:30-11:00  21.31305 -157.88877       0   0.0 Hōkūleʻa
  2021-09-24T05:30:35UTC 2021-09-23T19:30:35-10:00 2021-09-23T18:30:35-11:00  21.31305 -157.88877       0   0.0 Hōkūleʻa
  2021-09-24T04:17:41UTC 2021-09-23T18:17:41-10:00 2021-09-23T17:17:41-11:00  21.31305 -157.88877       0   0.0 Hōkūleʻa
  2021-09-24T03:18:31UTC 2021-09-23T17:18:31-10:00 2021-09-23T16:18:31-11:00  21.31305 -157.88877       0   0.0 Hōkūleʻa
  2021-09-24T02:18:27UTC 2021-09-23T16:18:27-10:00 2021-09-23T15:18:27-11:00  21.31305 -157.88877       0   0.0 Hōkūleʻa
  2021-09-24T01:17:32UTC 2021-09-23T15:17:32-10:00 2021-09-23T14:17:32-11:00  21.31305 -157.88877       0   0.0 Hōkūleʻa
  2021-09-24T00:18:40UTC 2021-09-23T14:18:40-10:00 2021-09-23T13:18:40-11:00  21.31305 -157.88877       0   0.0 Hōkūleʻa
  2021-09-23T23:17:32UTC 2021-09-23T13:17:32-10:00 2021-09-23T12:17:32-11:00  21.31305 -157.88877       0   0.0 Hōkūleʻa
  2021-09-23T22:17:29UTC 2021-09-23T12:17:29-10:00 2021-09-23T11:17:29-11:00  21.31305 -157.88877       0   0.0 Hōkūleʻa
  2021-09-23T21:17:24UTC 2021-09-23T11:17:24-10:00 2021-09-23T10:17:24-11:00  21.31305 -157.88877       0   0.0 Hōkūleʻa
  2021-09-23T20:17:45UTC 2021-09-23T10:17:45-10:00 2021-09-23T09:17:45-11:00  21.31305 -157.88877       0   0.0 Hōkūleʻa
  2021-09-23T19:32:15UTC 2021-09-23T09:32:15-10:00 2021-09-23T08:32:15-11:00  21.31305 -157.88877       0   0.0 Hōkūleʻa
  2021-09-23T18:18:30UTC 2021-09-23T08:18:30-10:00 2021-09-23T07:18:30-11:00  21.31305 -157.88877       0   0.0 Hōkūleʻa
  2021-09-23T17:19:29UTC 2021-09-23T07:19:29-10:00 2021-09-23T06:19:29-11:00  21.31305 -157.88877       0   0.0 Hōkūleʻa
  2021-09-23T16:18:53UTC 2021-09-23T06:18:53-10:00 2021-09-23T05:18:53-11:00  21.31305 -157.88877       0   0.0 Hōkūleʻa
  2021-09-23T15:18:48UTC 2021-09-23T05:18:48-10:00 2021-09-23T04:18:48-11:00  21.31305 -157.88877       0   0.0 Hōkūleʻa
  2021-09-23T14:24:26UTC 2021-09-23T04:24:26-10:00 2021-09-23T03:24:26-11:00  21.31305 -157.88877       0   0.0 Hōkūleʻa
  2021-09-23T13:18:30UTC 2021-09-23T03:18:30-10:00 2021-09-23T02:18:30-11:00  21.31305 -157.88877       0   0.0 Hōkūleʻa
  2021-09-23T12:18:49UTC 2021-09-23T02:18:49-10:00 2021-09-23T01:18:49-11:00  21.31305 -157.88877       0   0.0 Hōkūleʻa
  2021-09-23T11:18:37UTC 2021-09-23T01:18:37-10:00 2021-09-23T00:18:37-11:00  21.31305 -157.88877       0   0.0 Hōkūleʻa
  2021-09-23T10:18:27UTC 2021-09-23T00:18:27-10:00 2021-09-22T23:18:27-11:00  21.31305 -157.88877       0   0.0 Hōkūleʻa
  2021-09-23T09:18:23UTC 2021-09-22T23:18:23-10:00 2021-09-22T22:18:23-11:00  21.31305 -157.88877     317   0.0 Hōkūleʻa
  2021-09-23T07:18:46UTC 2021-09-22T21:18:46-10:00 2021-09-22T20:18:46-11:00  21.31281 -157.88853     137   0.0 Hōkūleʻa
  2021-09-23T06:18:30UTC 2021-09-22T20:18:30-10:00 2021-09-22T19:18:30-11:00  21.31305 -157.88877       0   0.0 Hōkūleʻa
  2021-09-23T05:18:20UTC 2021-09-22T19:18:20-10:00 2021-09-22T18:18:20-11:00  21.31305 -157.88877       0   0.0 Hōkūleʻa
  2021-09-23T04:18:49UTC 2021-09-22T18:18:49-10:00 2021-09-22T17:18:49-11:00  21.31305 -157.88877       0   0.0 Hōkūleʻa
  2021-09-23T03:17:36UTC 2021-09-22T17:17:36-10:00 2021-09-22T16:17:36-11:00  21.31305 -157.88877       0   0.0 Hōkūleʻa
  2021-09-23T02:18:22UTC 2021-09-22T16:18:22-10:00 2021-09-22T15:18:22-11:00  21.31305 -157.88877       0   0.0 Hōkūleʻa
  2021-09-23T01:18:34UTC 2021-09-22T15:18:34-10:00 2021-09-22T14:18:34-11:00  21.31305 -157.88877       0   0.0 Hōkūleʻa
  2021-09-23T00:17:47UTC 2021-09-22T14:17:47-10:00 2021-09-22T13:17:47-11:00  21.31305 -157.88877       0   0.0 Hōkūleʻa
  2021-09-22T23:17:24UTC 2021-09-22T13:17:24-10:00 2021-09-22T12:17:24-11:00  21.31305 -157.88877       0   0.0 Hōkūleʻa
  2021-09-22T22:17:25UTC 2021-09-22T12:17:25-10:00 2021-09-22T11:17:25-11:00  21.31305 -157.88877       0   0.0 Hōkūleʻa
  2021-09-22T21:28:40UTC 2021-09-22T11:28:40-10:00 2021-09-22T10:28:40-11:00  21.31305 -157.88877       0   0.0 Hōkūleʻa
  2021-09-22T20:17:30UTC 2021-09-22T10:17:30-10:00 2021-09-22T09:17:30-11:00  21.31305 -157.88877       0   0.0 Hōkūleʻa
  2021-09-22T19:18:20UTC 2021-09-22T09:18:20-10:00 2021-09-22T08:18:20-11:00  21.31305 -157.88877       0   0.0 Hōkūleʻa
  2021-09-22T18:18:56UTC 2021-09-22T08:18:56-10:00 2021-09-22T07:18:56-11:00  21.31305 -157.88877       0   0.0 Hōkūleʻa
  2021-09-22T17:18:57UTC 2021-09-22T07:18:57-10:00 2021-09-22T06:18:57-11:00  21.31305 -157.88877       0   0.0 Hōkūleʻa
  2021-09-22T16:24:55UTC 2021-09-22T06:24:55-10:00 2021-09-22T05:24:55-11:00  21.31305 -157.88877       0   0.0 Hōkūleʻa
  2021-09-22T15:18:25UTC 2021-09-22T05:18:25-10:00 2021-09-22T04:18:25-11:00  21.31305 -157.88877       0   0.0 Hōkūleʻa
  2021-09-22T14:18:39UTC 2021-09-22T04:18:39-10:00 2021-09-22T03:18:39-11:00  21.31305 -157.88877       0   0.0 Hōkūleʻa
  2021-09-22T13:27:06UTC 2021-09-22T03:27:06-10:00 2021-09-22T02:27:06-11:00  21.31305 -157.88877       0   0.0 Hōkūleʻa
  2021-09-22T12:17:32UTC 2021-09-22T02:17:32-10:00 2021-09-22T01:17:32-11:00  21.31305 -157.88877       0   0.0 Hōkūleʻa
  2021-09-22T11:18:21UTC 2021-09-22T01:18:21-10:00 2021-09-22T00:18:21-11:00  21.31305 -157.88877       0   0.0 Hōkūleʻa
  2021-09-22T10:18:37UTC 2021-09-22T00:18:37-10:00 2021-09-21T23:18:37-11:00  21.31305 -157.88877       0   0.0 Hōkūleʻa
  2021-09-22T09:18:34UTC 2021-09-21T23:18:34-10:00 2021-09-21T22:18:34-11:00  21.31305 -157.88877     315   0.0 Hōkūleʻa
  2021-09-22T07:19:29UTC 2021-09-21T21:19:29-10:00 2021-09-21T20:19:29-11:00  21.31284 -157.88856     135   0.0 Hōkūleʻa
  2021-09-22T06:28:03UTC 2021-09-21T20:28:03-10:00 2021-09-21T19:28:03-11:00  21.31305 -157.88877       0   0.0 Hōkūleʻa
  2021-09-22T05:28:15UTC 2021-09-21T19:28:15-10:00 2021-09-21T18:28:15-11:00  21.31305 -157.88877       0   0.0 Hōkūleʻa
  2021-09-22T04:18:24UTC 2021-09-21T18:18:24-10:00 2021-09-21T17:18:24-11:00  21.31305 -157.88877       0   0.0 Hōkūleʻa
  2021-09-22T03:18:32UTC 2021-09-21T17:18:32-10:00 2021-09-21T16:18:32-11:00  21.31305 -157.88877     242   0.0 Hōkūleʻa
  2021-09-22T02:19:05UTC 2021-09-21T16:19:05-10:00 2021-09-21T15:19:05-11:00  21.31309 -157.88868       0   0.0 Hōkūleʻa
  2021-09-22T01:27:05UTC 2021-09-21T15:27:05-10:00 2021-09-21T14:27:05-11:00  21.31307 -157.88868     136   0.0 Hōkūleʻa
  2021-09-22T00:17:32UTC 2021-09-21T14:17:32-10:00 2021-09-21T13:17:32-11:00  21.31309 -157.88871     180   0.0 Hōkūleʻa
  2021-09-21T23:17:23UTC 2021-09-21T13:17:23-10:00 2021-09-21T12:17:23-11:00  21.31310 -157.88871      61   0.0 Hōkūleʻa
  2021-09-21T22:18:40UTC 2021-09-21T12:18:40-10:00 2021-09-21T11:18:40-11:00  21.31309 -157.88873       0   0.0 Hōkūleʻa
  2021-09-21T21:17:38UTC 2021-09-21T11:17:38-10:00 2021-09-21T10:17:38-11:00  21.31308 -157.88873       0   0.0 Hōkūleʻa
  2021-09-21T20:18:32UTC 2021-09-21T10:18:32-10:00 2021-09-21T09:18:32-11:00  21.31308 -157.88873     270   0.0 Hōkūleʻa
  2021-09-21T19:18:33UTC 2021-09-21T09:18:33-10:00 2021-09-21T08:18:33-11:00  21.31308 -157.88871       0   0.0 Hōkūleʻa
  2021-09-21T18:17:46UTC 2021-09-21T08:17:46-10:00 2021-09-21T07:17:46-11:00  21.31308 -157.88871      90   0.0 Hōkūleʻa
  2021-09-21T17:18:22UTC 2021-09-21T07:18:22-10:00 2021-09-21T06:18:22-11:00  21.31308 -157.88873       0   0.0 Hōkūleʻa
  2021-09-21T16:18:25UTC 2021-09-21T06:18:25-10:00 2021-09-21T05:18:25-11:00  21.31307 -157.88873       0   0.0 Hōkūleʻa
  2021-09-21T15:19:32UTC 2021-09-21T05:19:32-10:00 2021-09-21T04:19:32-11:00  21.31307 -157.88873       0   0.0 Hōkūleʻa
  2021-09-21T14:18:48UTC 2021-09-21T04:18:48-10:00 2021-09-21T03:18:48-11:00  21.31307 -157.88873     270   0.0 Hōkūleʻa
  2021-09-21T13:17:34UTC 2021-09-21T03:17:34-10:00 2021-09-21T02:17:34-11:00  21.31307 -157.88871      90   0.0 Hōkūleʻa
  2021-09-21T12:18:24UTC 2021-09-21T02:18:24-10:00 2021-09-21T01:18:24-11:00  21.31307 -157.88873     180   0.0 Hōkūleʻa
  2021-09-21T11:18:30UTC 2021-09-21T01:18:30-10:00 2021-09-21T00:18:30-11:00  21.31308 -157.88873     299   0.0 Hōkūleʻa
  2021-09-21T10:19:45UTC 2021-09-21T00:19:45-10:00 2021-09-20T23:19:45-11:00  21.31307 -157.88871      90   0.0 Hōkūleʻa
  2021-09-21T09:17:41UTC 2021-09-20T23:17:41-10:00 2021-09-20T22:17:41-11:00  21.31307 -157.88873     180   0.0 Hōkūleʻa
  2021-09-21T08:18:22UTC 2021-09-20T22:18:22-10:00 2021-09-20T21:18:22-11:00  21.31309 -157.88873     270   0.0 Hōkūleʻa
  2021-09-21T07:18:32UTC 2021-09-20T21:18:32-10:00 2021-09-20T20:18:32-11:00  21.31309 -157.88871       0   0.0 Hōkūleʻa
  2021-09-21T06:18:40UTC 2021-09-20T20:18:40-10:00 2021-09-20T19:18:40-11:00  21.31308 -157.88871       0   0.0 Hōkūleʻa
  2021-09-21T05:18:38UTC 2021-09-20T19:18:38-10:00 2021-09-20T18:18:38-11:00  21.31306 -157.88871     327   0.0 Hōkūleʻa
  2021-09-21T04:18:33UTC 2021-09-20T18:18:33-10:00 2021-09-20T17:18:33-11:00  21.31303 -157.88868     205   0.0 Hōkūleʻa
  2021-09-21T03:29:46UTC 2021-09-20T17:29:46-10:00 2021-09-20T16:29:46-11:00  21.31311 -157.88864      62   0.0 Hōkūleʻa
  2021-09-21T02:18:46UTC 2021-09-20T16:18:46-10:00 2021-09-20T15:18:46-11:00  21.31307 -157.88873     180   0.0 Hōkūleʻa
  2021-09-21T01:17:33UTC 2021-09-20T15:17:33-10:00 2021-09-20T14:17:33-11:00  21.31311 -157.88873       0   0.0 Hōkūleʻa
  2021-09-21T00:17:24UTC 2021-09-20T14:17:24-10:00 2021-09-20T13:17:24-11:00  21.31309 -157.88873       0   0.0 Hōkūleʻa
  2021-09-20T23:18:31UTC 2021-09-20T13:18:31-10:00 2021-09-20T12:18:31-11:00  21.31308 -157.88873     116   0.0 Hōkūleʻa
  2021-09-20T22:17:49UTC 2021-09-20T12:17:49-10:00 2021-09-20T11:17:49-11:00  21.31309 -157.88875      63   0.0 Hōkūleʻa
  2021-09-20T21:17:24UTC 2021-09-20T11:17:24-10:00 2021-09-20T10:17:24-11:00  21.31308 -157.88877     256   0.0 Hōkūleʻa
  2021-09-20T20:18:21UTC 2021-09-20T10:18:21-10:00 2021-09-20T09:18:21-11:00  21.31309 -157.88873       0   0.0 Hōkūleʻa
  2021-09-20T19:17:31UTC 2021-09-20T09:17:31-10:00 2021-09-20T08:17:31-11:00  21.31308 -157.88873       0   0.0 Hōkūleʻa
  2021-09-20T18:18:40UTC 2021-09-20T08:18:40-10:00 2021-09-20T07:18:40-11:00  21.31307 -157.88873       0   0.0 Hōkūleʻa
  2021-09-20T17:18:37UTC 2021-09-20T07:18:37-10:00 2021-09-20T06:18:37-11:00  21.31307 -157.88873       0   0.0 Hōkūleʻa
  2021-09-20T16:18:32UTC 2021-09-20T06:18:32-10:00 2021-09-20T05:18:32-11:00  21.31305 -157.88873     180   0.0 Hōkūleʻa
  2021-09-20T15:18:31UTC 2021-09-20T05:18:31-10:00 2021-09-20T04:18:31-11:00  21.31308 -157.88873       0   0.0 Hōkūleʻa
  2021-09-20T14:18:39UTC 2021-09-20T04:18:39-10:00 2021-09-20T03:18:39-11:00  21.31306 -157.88873      75   0.0 Hōkūleʻa
  2021-09-20T13:18:24UTC 2021-09-20T03:18:24-10:00 2021-09-20T02:18:24-11:00  21.31305 -157.88877     180   0.0 Hōkūleʻa
  2021-09-20T12:18:33UTC 2021-09-20T02:18:33-10:00 2021-09-20T01:18:33-11:00  21.31306 -157.88877     255   0.0 Hōkūleʻa
  2021-09-20T11:18:32UTC 2021-09-20T01:18:32-10:00 2021-09-20T00:18:32-11:00  21.31307 -157.88873       0   0.0 Hōkūleʻa
  2021-09-20T10:18:44UTC 2021-09-20T00:18:44-10:00 2021-09-19T23:18:44-11:00  21.31307 -157.88873      61   0.0 Hōkūleʻa
  2021-09-20T09:18:46UTC 2021-09-19T23:18:46-10:00 2021-09-19T22:18:46-11:00  21.31305 -157.88877     222   0.0 Hōkūleʻa
  2021-09-20T08:18:26UTC 2021-09-19T22:18:26-10:00 2021-09-19T21:18:26-11:00  21.31307 -157.88875     180   0.0 Hōkūleʻa
  2021-09-20T07:18:35UTC 2021-09-19T21:18:35-10:00 2021-09-19T20:18:35-11:00  21.31308 -157.88875     298   0.0 Hōkūleʻa
  2021-09-20T06:25:57UTC 2021-09-19T20:25:57-10:00 2021-09-19T19:25:57-11:00  21.31307 -157.88873       0   0.0 Hōkūleʻa
  2021-09-20T05:17:27UTC 2021-09-19T19:17:27-10:00 2021-09-19T18:17:27-11:00  21.31305 -157.88873     180   0.0 Hōkūleʻa
  2021-09-20T04:18:25UTC 2021-09-19T18:18:25-10:00 2021-09-19T17:18:25-11:00  21.31306 -157.88873     180   0.0 Hōkūleʻa
  2021-09-20T03:18:31UTC 2021-09-19T17:18:31-10:00 2021-09-19T16:18:31-11:00  21.31307 -157.88873     180   0.0 Hōkūleʻa
  2021-09-20T02:17:38UTC 2021-09-19T16:17:38-10:00 2021-09-19T15:17:38-11:00  21.31309 -157.88873       0   0.0 Hōkūleʻa
  2021-09-20T01:26:05UTC 2021-09-19T15:26:05-10:00 2021-09-19T14:26:05-11:00  21.31306 -157.88873     105   0.0 Hōkūleʻa
  2021-09-20T00:17:32UTC 2021-09-19T14:17:32-10:00 2021-09-19T13:17:32-11:00  21.31307 -157.88877     255   0.0 Hōkūleʻa
  2021-09-19T23:18:28UTC 2021-09-19T13:18:28-10:00 2021-09-19T12:18:28-11:00  21.31308 -157.88873      62   0.0 Hōkūleʻa
  2021-09-19T22:17:49UTC 2021-09-19T12:17:49-10:00 2021-09-19T11:17:49-11:00  21.31307 -157.88875     260   0.0 Hōkūleʻa
  2021-09-19T21:17:29UTC 2021-09-19T11:17:29-10:00 2021-09-19T10:17:29-11:00  21.31308 -157.88868      90   0.0 Hōkūleʻa
  2021-09-19T20:18:31UTC 2021-09-19T10:18:31-10:00 2021-09-19T09:18:31-11:00  21.31308 -157.88873       0   0.0 Hōkūleʻa
  2021-09-19T19:18:33UTC 2021-09-19T09:18:33-10:00 2021-09-19T08:18:33-11:00  21.31307 -157.88873      90   0.0 Hōkūleʻa
  2021-09-19T18:18:48UTC 2021-09-19T08:18:48-10:00 2021-09-19T07:18:48-11:00  21.31307 -157.88875     119   0.0 Hōkūleʻa
  2021-09-19T17:18:37UTC 2021-09-19T07:18:37-10:00 2021-09-19T06:18:37-11:00  21.31308 -157.88877       0   0.0 Hōkūleʻa
  2021-09-19T16:18:31UTC 2021-09-19T06:18:31-10:00 2021-09-19T05:18:31-11:00  21.31307 -157.88877     285   0.0 Hōkūleʻa
  2021-09-19T15:19:32UTC 2021-09-19T05:19:32-10:00 2021-09-19T04:19:32-11:00  21.31306 -157.88873       0   0.0 Hōkūleʻa
  2021-09-19T14:18:45UTC 2021-09-19T04:18:45-10:00 2021-09-19T03:18:45-11:00  21.31304 -157.88873     147   0.0 Hōkūleʻa
  2021-09-19T13:18:33UTC 2021-09-19T03:18:33-10:00 2021-09-19T02:18:33-11:00  21.31307 -157.88875     255   0.0 Hōkūleʻa
  2021-09-19T12:18:40UTC 2021-09-19T02:18:40-10:00 2021-09-19T01:18:40-11:00  21.31308 -157.88871      42   0.0 Hōkūleʻa
  2021-09-19T11:27:16UTC 2021-09-19T01:27:16-10:00 2021-09-19T00:27:16-11:00  21.31306 -157.88873     180   0.0 Hōkūleʻa
  2021-09-19T10:18:37UTC 2021-09-19T00:18:37-10:00 2021-09-18T23:18:37-11:00  21.31307 -157.88873      90   0.0 Hōkūleʻa
  2021-09-19T09:18:42UTC 2021-09-18T23:18:42-10:00 2021-09-18T22:18:42-11:00  21.31307 -157.88877     241   0.0 Hōkūleʻa
  2021-09-19T08:18:32UTC 2021-09-18T22:18:32-10:00 2021-09-18T21:18:32-11:00  21.31308 -157.88875     270   0.0 Hōkūleʻa
  2021-09-19T07:29:15UTC 2021-09-18T21:29:15-10:00 2021-09-18T20:29:15-11:00  21.31308 -157.88873       0   0.0 Hōkūleʻa
  2021-09-19T06:18:40UTC 2021-09-18T20:18:40-10:00 2021-09-18T19:18:40-11:00  21.31307 -157.88873       0   0.0 Hōkūleʻa
  2021-09-19T05:18:39UTC 2021-09-18T19:18:39-10:00 2021-09-18T18:18:39-11:00  21.31305 -157.88873     180   0.0 Hōkūleʻa
  2021-09-19T04:17:27UTC 2021-09-18T18:17:27-10:00 2021-09-18T17:17:27-11:00  21.31306 -157.88873       0   0.0 Hōkūleʻa
  2021-09-19T03:18:24UTC 2021-09-18T17:18:24-10:00 2021-09-18T16:18:24-11:00  21.31306 -157.88873     180   0.0 Hōkūleʻa
  2021-09-19T02:17:44UTC 2021-09-18T16:17:44-10:00 2021-09-18T15:17:44-11:00  21.31309 -157.88873      33   0.0 Hōkūleʻa
  2021-09-19T01:18:33UTC 2021-09-18T15:18:33-10:00 2021-09-18T14:18:33-11:00  21.31306 -157.88875     223   0.0 Hōkūleʻa
  2021-09-19T00:17:32UTC 2021-09-18T14:17:32-10:00 2021-09-18T13:17:32-11:00  21.31308 -157.88873     116   0.0 Hōkūleʻa
  2021-09-18T23:17:23UTC 2021-09-18T13:17:23-10:00 2021-09-18T12:17:23-11:00  21.31309 -157.88875     270   0.0 Hōkūleʻa
  2021-09-18T22:17:40UTC 2021-09-18T12:17:40-10:00 2021-09-18T11:17:40-11:00  21.31309 -157.88873     308   0.0 Hōkūleʻa
  2021-09-18T21:17:40UTC 2021-09-18T11:17:40-10:00 2021-09-18T10:17:40-11:00  21.31306 -157.88868     105   0.0 Hōkūleʻa
  2021-09-18T20:18:30UTC 2021-09-18T10:18:30-10:00 2021-09-18T09:18:30-11:00  21.31307 -157.88873       0   0.0 Hōkūleʻa
  2021-09-18T19:18:31UTC 2021-09-18T09:18:31-10:00 2021-09-18T08:18:31-11:00  21.31307 -157.88873       0   0.0 Hōkūleʻa
  2021-09-18T18:17:40UTC 2021-09-18T08:17:40-10:00 2021-09-18T07:17:40-11:00  21.31307 -157.88873     180   0.0 Hōkūleʻa
  2021-09-18T17:18:30UTC 2021-09-18T07:18:30-10:00 2021-09-18T06:18:30-11:00  21.31308 -157.88873       0   0.0 Hōkūleʻa
  2021-09-18T16:18:33UTC 2021-09-18T06:18:33-10:00 2021-09-18T05:18:33-11:00  21.31308 -157.88873       0   0.0 Hōkūleʻa
  2021-09-18T15:18:33UTC 2021-09-18T05:18:33-10:00 2021-09-18T04:18:33-11:00  21.31307 -157.88873       0   0.0 Hōkūleʻa
  2021-09-18T14:18:46UTC 2021-09-18T04:18:46-10:00 2021-09-18T03:18:46-11:00  21.31306 -157.88873       0   0.0 Hōkūleʻa
  2021-09-18T13:18:35UTC 2021-09-18T03:18:35-10:00 2021-09-18T02:18:35-11:00  21.31306 -157.88873     212   0.0 Hōkūleʻa
  2021-09-18T12:18:24UTC 2021-09-18T02:18:24-10:00 2021-09-18T01:18:24-11:00  21.31309 -157.88871      62   0.0 Hōkūleʻa
  2021-09-18T11:18:30UTC 2021-09-18T01:18:30-10:00 2021-09-18T00:18:30-11:00  21.31307 -157.88875       0   0.0 Hōkūleʻa
  2021-09-18T10:18:46UTC 2021-09-18T00:18:46-10:00 2021-09-17T23:18:46-11:00  21.31307 -157.88875       0   0.0 Hōkūleʻa
  2021-09-18T09:26:31UTC 2021-09-17T23:26:31-10:00 2021-09-17T22:26:31-11:00  21.31307 -157.88875     242   0.0 Hōkūleʻa
  2021-09-18T08:24:48UTC 2021-09-17T22:24:48-10:00 2021-09-17T21:24:48-11:00  21.31308 -157.88873     136   0.0 Hōkūleʻa
  2021-09-18T07:18:32UTC 2021-09-17T21:18:32-10:00 2021-09-17T20:18:32-11:00  21.31310 -157.88875     327   0.0 Hōkūleʻa
  2021-09-18T06:28:25UTC 2021-09-17T20:28:25-10:00 2021-09-17T19:28:25-11:00  21.31307 -157.88873     241   0.0 Hōkūleʻa
  2021-09-18T05:18:31UTC 2021-09-17T19:18:31-10:00 2021-09-17T18:18:31-11:00  21.31308 -157.88871     117   0.0 Hōkūleʻa
  2021-09-18T04:18:28UTC 2021-09-17T18:18:28-10:00 2021-09-17T17:18:28-11:00  21.31309 -157.88873     180   0.0 Hōkūleʻa
  2021-09-18T03:17:32UTC 2021-09-17T17:17:32-10:00 2021-09-17T16:17:32-11:00  21.31310 -157.88873       0   0.0 Hōkūleʻa
  2021-09-18T02:17:40UTC 2021-09-17T16:17:40-10:00 2021-09-17T15:17:40-11:00  21.31310 -157.88873       0   0.0 Hōkūleʻa
  2021-09-18T01:18:25UTC 2021-09-17T15:18:25-10:00 2021-09-17T14:18:25-11:00  21.31308 -157.88873       0   0.0 Hōkūleʻa
  2021-09-18T00:17:24UTC 2021-09-17T14:17:24-10:00 2021-09-17T13:17:24-11:00  21.31308 -157.88873       0   0.0 Hōkūleʻa
  2021-09-17T23:18:28UTC 2021-09-17T13:18:28-10:00 2021-09-17T12:18:28-11:00  21.31307 -157.88873       0   0.0 Hōkūleʻa
  2021-09-17T22:26:13UTC 2021-09-17T12:26:13-10:00 2021-09-17T11:26:13-11:00  21.31307 -157.88873      82   0.0 Hōkūleʻa
  2021-09-17T21:17:35UTC 2021-09-17T11:17:35-10:00 2021-09-17T10:17:35-11:00  21.31306 -157.88881     255   0.0 Hōkūleʻa
  2021-09-17T20:18:21UTC 2021-09-17T10:18:21-10:00 2021-09-17T09:18:21-11:00  21.31308 -157.88873     180   0.0 Hōkūleʻa
  2021-09-17T19:18:45UTC 2021-09-17T09:18:45-10:00 2021-09-17T08:18:45-11:00  21.31309 -157.88873       0   0.0 Hōkūleʻa
  2021-09-17T18:18:48UTC 2021-09-17T08:18:48-10:00 2021-09-17T07:18:48-11:00  21.31309 -157.88873       0   0.0 Hōkūleʻa
  2021-09-17T17:18:30UTC 2021-09-17T07:18:30-10:00 2021-09-17T06:18:30-11:00  21.31308 -157.88873      62   0.0 Hōkūleʻa
  2021-09-17T16:30:02UTC 2021-09-17T06:30:02-10:00 2021-09-17T05:30:02-11:00  21.31307 -157.88875     270   0.0 Hōkūleʻa
  2021-09-17T15:18:30UTC 2021-09-17T05:18:30-10:00 2021-09-17T04:18:30-11:00  21.31307 -157.88873      62   0.0 Hōkūleʻa
  2021-09-17T14:18:38UTC 2021-09-17T04:18:38-10:00 2021-09-17T03:18:38-11:00  21.31306 -157.88875     298   0.0 Hōkūleʻa
  2021-09-17T13:18:24UTC 2021-09-17T03:18:24-10:00 2021-09-17T02:18:24-11:00  21.31305 -157.88873     180   0.0 Hōkūleʻa
  2021-09-17T12:18:33UTC 2021-09-17T02:18:33-10:00 2021-09-17T01:18:33-11:00  21.31306 -157.88873     180   0.0 Hōkūleʻa
  2021-09-17T11:18:32UTC 2021-09-17T01:18:32-10:00 2021-09-17T00:18:32-11:00  21.31307 -157.88873       0   0.0 Hōkūleʻa
  2021-09-17T10:18:36UTC 2021-09-17T00:18:36-10:00 2021-09-16T23:18:36-11:00  21.31307 -157.88873     105   0.0 Hōkūleʻa
  2021-09-17T09:17:31UTC 2021-09-16T23:17:31-10:00 2021-09-16T22:17:31-11:00  21.31308 -157.88877     180   0.0 Hōkūleʻa
  2021-09-17T08:18:22UTC 2021-09-16T22:18:22-10:00 2021-09-16T21:18:22-11:00  21.31311 -157.88877     299   0.0 Hōkūleʻa
  2021-09-17T07:18:24UTC 2021-09-16T21:18:24-10:00 2021-09-16T20:18:24-11:00  21.31309 -157.88873       0   0.0 Hōkūleʻa
  2021-09-17T06:18:39UTC 2021-09-16T20:18:39-10:00 2021-09-16T19:18:39-11:00  21.31307 -157.88873     180   0.0 Hōkūleʻa
  2021-09-17T05:18:30UTC 2021-09-16T19:18:30-10:00 2021-09-16T18:18:30-11:00  21.31308 -157.88873     335   0.0 Hōkūleʻa
  2021-09-17T04:18:35UTC 2021-09-16T18:18:35-10:00 2021-09-16T17:18:35-11:00  21.31304 -157.88871     180   0.0 Hōkūleʻa
  2021-09-17T03:18:31UTC 2021-09-16T17:18:31-10:00 2021-09-16T16:18:31-11:00  21.31308 -157.88871     155   0.0 Hōkūleʻa
  2021-09-17T02:17:46UTC 2021-09-16T16:17:46-10:00 2021-09-16T15:17:46-11:00  21.31312 -157.88873       0   0.0 Hōkūleʻa
  2021-09-17T01:18:35UTC 2021-09-16T15:18:35-10:00 2021-09-16T14:18:35-11:00  21.31311 -157.88873       0   0.0 Hōkūleʻa
  2021-09-17T00:18:32UTC 2021-09-16T14:18:32-10:00 2021-09-16T13:18:32-11:00  21.31308 -157.88873      90   0.0 Hōkūleʻa
  2021-09-16T23:17:27UTC 2021-09-16T13:17:27-10:00 2021-09-16T12:17:27-11:00  21.31308 -157.88875       0   0.0 Hōkūleʻa
  2021-09-16T22:18:37UTC 2021-09-16T12:18:37-10:00 2021-09-16T11:18:37-11:00  21.31307 -157.88875     160   0.0 Hōkūleʻa
  2021-09-16T21:17:41UTC 2021-09-16T11:17:41-10:00 2021-09-16T10:17:41-11:00  21.31312 -157.88877     323   0.0 Hōkūleʻa
  2021-09-16T20:26:34UTC 2021-09-16T10:26:34-10:00 2021-09-16T09:26:34-11:00  21.31307 -157.88873       0   0.0 Hōkūleʻa
  2021-09-16T19:18:30UTC 2021-09-16T09:18:30-10:00 2021-09-16T08:18:30-11:00  21.31306 -157.88873     180   0.0 Hōkūleʻa
  2021-09-16T18:18:50UTC 2021-09-16T08:18:50-10:00 2021-09-16T07:18:50-11:00  21.31307 -157.88873     143   0.0 Hōkūleʻa
  2021-09-16T17:17:39UTC 2021-09-16T07:17:39-10:00 2021-09-16T06:17:39-11:00  21.31312 -157.88877       0   0.0 Hōkūleʻa
  2021-09-16T16:18:22UTC 2021-09-16T06:18:22-10:00 2021-09-16T05:18:22-11:00  21.31307 -157.88877     299   0.0 Hōkūleʻa
  2021-09-16T15:18:24UTC 2021-09-16T05:18:24-10:00 2021-09-16T04:18:24-11:00  21.31306 -157.88875     242   0.0 Hōkūleʻa
  2021-09-16T14:18:39UTC 2021-09-16T04:18:39-10:00 2021-09-16T03:18:39-11:00  21.31307 -157.88873       0   0.0 Hōkūleʻa
  2021-09-16T13:17:34UTC 2021-09-16T03:17:34-10:00 2021-09-16T02:17:34-11:00  21.31307 -157.88873       0   0.0 Hōkūleʻa
  2021-09-16T12:18:24UTC 2021-09-16T02:18:24-10:00 2021-09-16T01:18:24-11:00  21.31307 -157.88873     180   0.0 Hōkūleʻa
  2021-09-16T11:18:28UTC 2021-09-16T01:18:28-10:00 2021-09-16T00:18:28-11:00  21.31308 -157.88873       0   0.0 Hōkūleʻa
  2021-09-16T10:18:42UTC 2021-09-16T00:18:42-10:00 2021-09-15T23:18:42-11:00  21.31307 -157.88873      90   0.0 Hōkūleʻa
  2021-09-16T09:18:32UTC 2021-09-15T23:18:32-10:00 2021-09-15T22:18:32-11:00  21.31307 -157.88877     180   0.0 Hōkūleʻa
  2021-09-16T08:19:30UTC 2021-09-15T22:19:30-10:00 2021-09-15T21:19:30-11:00  21.31309 -157.88877       0   0.0 Hōkūleʻa
  2021-09-16T07:17:33UTC 2021-09-15T21:17:33-10:00 2021-09-15T20:17:33-11:00  21.31309 -157.88877     298   0.0 Hōkūleʻa
  2021-09-16T06:19:41UTC 2021-09-15T20:19:41-10:00 2021-09-15T19:19:41-11:00  21.31307 -157.88873      90   0.0 Hōkūleʻa
  2021-09-16T05:18:45UTC 2021-09-15T19:18:45-10:00 2021-09-15T18:18:45-11:00  21.31307 -157.88877     280   0.0 Hōkūleʻa
  2021-09-16T04:17:32UTC 2021-09-15T18:17:32-10:00 2021-09-15T17:17:32-11:00  21.31306 -157.88871     138   0.0 Hōkūleʻa
  2021-09-16T03:18:24UTC 2021-09-15T17:18:24-10:00 2021-09-15T16:18:24-11:00  21.31308 -157.88873     180   0.0 Hōkūleʻa
  2021-09-16T02:26:25UTC 2021-09-15T16:26:25-10:00 2021-09-15T15:26:25-11:00  21.31309 -157.88873     270   0.0 Hōkūleʻa
  2021-09-16T01:17:33UTC 2021-09-15T15:17:33-10:00 2021-09-15T14:17:33-11:00  21.31309 -157.88871      90   0.0 Hōkūleʻa
  2021-09-16T00:18:30UTC 2021-09-15T14:18:30-10:00 2021-09-15T13:18:30-11:00  21.31309 -157.88873       0   0.0 Hōkūleʻa
  2021-09-15T23:17:31UTC 2021-09-15T13:17:31-10:00 2021-09-15T12:17:31-11:00  21.31308 -157.88873       0   0.0 Hōkūleʻa
  2021-09-15T22:17:40UTC 2021-09-15T12:17:40-10:00 2021-09-15T11:17:40-11:00  21.31307 -157.88873     180   0.0 Hōkūleʻa
  2021-09-15T21:17:31UTC 2021-09-15T11:17:31-10:00 2021-09-15T10:17:31-11:00  21.31309 -157.88873       0   0.0 Hōkūleʻa
  2021-09-15T20:25:42UTC 2021-09-15T10:25:42-10:00 2021-09-15T09:25:42-11:00  21.31307 -157.88873       0   0.0 Hōkūleʻa
  2021-09-15T19:18:31UTC 2021-09-15T09:18:31-10:00 2021-09-15T08:18:31-11:00  21.31307 -157.88873       0   0.0 Hōkūleʻa
  2021-09-15T18:17:48UTC 2021-09-15T08:17:48-10:00 2021-09-15T07:17:48-11:00  21.31307 -157.88873     128   0.0 Hōkūleʻa
  2021-09-15T17:18:30UTC 2021-09-15T07:18:30-10:00 2021-09-15T06:18:30-11:00  21.31310 -157.88877     333   0.0 Hōkūleʻa
  2021-09-15T16:18:36UTC 2021-09-15T06:18:36-10:00 2021-09-15T05:18:36-11:00  21.31298 -157.88871     155   0.0 Hōkūleʻa
  2021-09-15T15:18:30UTC 2021-09-15T05:18:30-10:00 2021-09-15T04:18:30-11:00  21.31307 -157.88875       0   0.0 Hōkūleʻa
  2021-09-15T14:18:39UTC 2021-09-15T04:18:39-10:00 2021-09-15T03:18:39-11:00  21.31307 -157.88875     242   0.0 Hōkūleʻa
  2021-09-15T13:18:25UTC 2021-09-15T03:18:25-10:00 2021-09-15T02:18:25-11:00  21.31308 -157.88873       0   0.0 Hōkūleʻa
  2021-09-15T12:18:32UTC 2021-09-15T02:18:32-10:00 2021-09-15T01:18:32-11:00  21.31308 -157.88873       0   0.0 Hōkūleʻa
  2021-09-15T11:18:29UTC 2021-09-15T01:18:29-10:00 2021-09-15T00:18:29-11:00  21.31308 -157.88873       0   0.0 Hōkūleʻa
  2021-09-15T10:18:50UTC 2021-09-15T00:18:50-10:00 2021-09-14T23:18:50-11:00  21.31308 -157.88873      90   0.0 Hōkūleʻa
  2021-09-15T09:17:30UTC 2021-09-14T23:17:30-10:00 2021-09-14T22:17:30-11:00  21.31308 -157.88877     243   0.0 Hōkūleʻa
  2021-09-15T08:18:23UTC 2021-09-14T22:18:23-10:00 2021-09-14T21:18:23-11:00  21.31309 -157.88875       0   0.0 Hōkūleʻa
  2021-09-15T07:18:32UTC 2021-09-14T21:18:32-10:00 2021-09-14T20:18:32-11:00  21.31308 -157.88875     244   0.0 Hōkūleʻa
  2021-09-15T06:18:42UTC 2021-09-14T20:18:42-10:00 2021-09-14T19:18:42-11:00  21.31309 -157.88873     241   0.0 Hōkūleʻa
  2021-09-15T05:24:22UTC 2021-09-14T19:24:22-10:00 2021-09-14T18:24:22-11:00  21.31310 -157.88871       0   0.0 Hōkūleʻa
  2021-09-15T04:18:32UTC 2021-09-14T18:18:32-10:00 2021-09-14T17:18:32-11:00  21.31310 -157.88871      43   0.0 Hōkūleʻa
  2021-09-15T03:17:41UTC 2021-09-14T17:17:41-10:00 2021-09-14T16:17:41-11:00  21.31308 -157.88873     243   0.0 Hōkūleʻa
  2021-09-15T02:18:27UTC 2021-09-14T16:18:27-10:00 2021-09-14T15:18:27-11:00  21.31309 -157.88871      63   0.0 Hōkūleʻa
  2021-09-15T01:26:55UTC 2021-09-14T15:26:55-10:00 2021-09-14T14:26:55-11:00  21.31308 -157.88873       0   0.0 Hōkūleʻa
  2021-09-15T00:17:40UTC 2021-09-14T14:17:40-10:00 2021-09-14T13:17:40-11:00  21.31308 -157.88873     180   0.0 Hōkūleʻa
  2021-09-14T23:17:29UTC 2021-09-14T13:17:29-10:00 2021-09-14T12:17:29-11:00  21.31310 -157.88873      44   0.0 Hōkūleʻa
  2021-09-14T22:18:33UTC 2021-09-14T12:18:33-10:00 2021-09-14T11:18:33-11:00  21.31308 -157.88875     270   0.0 Hōkūleʻa
  2021-09-14T21:17:32UTC 2021-09-14T11:17:32-10:00 2021-09-14T10:17:32-11:00  21.31308 -157.88871      61   0.0 Hōkūleʻa
  2021-09-14T20:17:45UTC 2021-09-14T10:17:45-10:00 2021-09-14T09:17:45-11:00  21.31307 -157.88873     105   0.0 Hōkūleʻa
  2021-09-14T19:18:27UTC 2021-09-14T09:18:27-10:00 2021-09-14T08:18:27-11:00  21.31308 -157.88877     309   0.0 Hōkūleʻa
  2021-09-14T18:18:33UTC 2021-09-14T08:18:33-10:00 2021-09-14T07:18:33-11:00  21.31305 -157.88873     148   0.0 Hōkūleʻa
  2021-09-14T17:18:29UTC 2021-09-14T07:18:29-10:00 2021-09-14T06:18:29-11:00  21.31308 -157.88875       0   0.0 Hōkūleʻa
  2021-09-14T16:18:45UTC 2021-09-14T06:18:45-10:00 2021-09-14T05:18:45-11:00  21.31307 -157.88875      70   0.0 Hōkūleʻa
  2021-09-14T15:17:37UTC 2021-09-14T05:17:37-10:00 2021-09-14T04:17:37-11:00  21.31305 -157.88881     255   0.0 Hōkūleʻa
  2021-09-14T14:18:29UTC 2021-09-14T04:18:29-10:00 2021-09-14T03:18:29-11:00  21.31307 -157.88873     118   0.0 Hōkūleʻa
  2021-09-14T13:18:25UTC 2021-09-14T03:18:25-10:00 2021-09-14T02:18:25-11:00  21.31308 -157.88875     298   0.0 Hōkūleʻa
  2021-09-14T12:18:48UTC 2021-09-14T02:18:48-10:00 2021-09-14T01:18:48-11:00  21.31307 -157.88873     100   0.0 Hōkūleʻa
  2021-09-14T11:18:27UTC 2021-09-14T01:18:27-10:00 2021-09-14T00:18:27-11:00  21.31308 -157.88879     270   0.0 Hōkūleʻa
  2021-09-14T10:18:27UTC 2021-09-14T00:18:27-10:00 2021-09-13T23:18:27-11:00  21.31308 -157.88873     104   0.0 Hōkūleʻa
  2021-09-14T09:18:31UTC 2021-09-13T23:18:31-10:00 2021-09-13T22:18:31-11:00  21.31309 -157.88877     298   0.0 Hōkūleʻa
  2021-09-14T08:18:53UTC 2021-09-13T22:18:53-10:00 2021-09-13T21:18:53-11:00  21.31307 -157.88873       0   0.0 Hōkūleʻa
  2021-09-14T07:18:35UTC 2021-09-13T21:18:35-10:00 2021-09-13T20:18:35-11:00  21.31306 -157.88873     180   0.0 Hōkūleʻa
  2021-09-14T06:25:04UTC 2021-09-13T20:25:04-10:00 2021-09-13T19:25:04-11:00  21.31307 -157.88873     180   0.0 Hōkūleʻa
  2021-09-14T05:18:30UTC 2021-09-13T19:18:30-10:00 2021-09-13T18:18:30-11:00  21.31310 -157.88873       0   0.0 Hōkūleʻa
  2021-09-14T04:18:47UTC 2021-09-13T18:18:47-10:00 2021-09-13T17:18:47-11:00  21.31307 -157.88873      61   0.0 Hōkūleʻa
  2021-09-14T03:18:39UTC 2021-09-13T17:18:39-10:00 2021-09-13T16:18:39-11:00  21.31305 -157.88877     212   0.0 Hōkūleʻa
  2021-09-14T02:17:30UTC 2021-09-13T16:17:30-10:00 2021-09-13T15:17:30-11:00  21.31311 -157.88873       0   0.0 Hōkūleʻa
  2021-09-14T01:18:27UTC 2021-09-13T15:18:27-10:00 2021-09-13T14:18:27-11:00  21.31308 -157.88873       0   0.0 Hōkūleʻa
  2021-09-14T00:18:47UTC 2021-09-13T14:18:47-10:00 2021-09-13T13:18:47-11:00  21.31308 -157.88873      84   0.0 Hōkūleʻa
  2021-09-13T23:17:38UTC 2021-09-13T13:17:38-10:00 2021-09-13T12:17:38-11:00  21.31307 -157.88883     258   0.0 Hōkūleʻa
  2021-09-13T22:17:24UTC 2021-09-13T12:17:24-10:00 2021-09-13T11:17:24-11:00  21.31309 -157.88873       0   0.0 Hōkūleʻa
  2021-09-13T21:18:32UTC 2021-09-13T11:18:32-10:00 2021-09-13T10:18:32-11:00  21.31307 -157.88873     180   0.0 Hōkūleʻa
  2021-09-13T20:17:46UTC 2021-09-13T10:17:46-10:00 2021-09-13T09:17:46-11:00  21.31309 -157.88873      62   0.0 Hōkūleʻa
  2021-09-13T19:18:32UTC 2021-09-13T09:18:32-10:00 2021-09-13T08:18:32-11:00  21.31307 -157.88877     308   0.0 Hōkūleʻa
  2021-09-13T18:18:32UTC 2021-09-13T08:18:32-10:00 2021-09-13T07:18:32-11:00  21.31304 -157.88873     180   0.0 Hōkūleʻa
  2021-09-13T17:26:34UTC 2021-09-13T07:26:34-10:00 2021-09-13T06:26:34-11:00  21.31306 -157.88873     118   0.0 Hōkūleʻa
  2021-09-13T16:29:41UTC 2021-09-13T06:29:41-10:00 2021-09-13T05:29:41-11:00  21.31307 -157.88875     262   0.0 Hōkūleʻa
  2021-09-13T15:18:31UTC 2021-09-13T05:18:31-10:00 2021-09-13T04:18:31-11:00  21.31308 -157.88866      61   0.0 Hōkūleʻa
  2021-09-13T14:18:37UTC 2021-09-13T04:18:37-10:00 2021-09-13T03:18:37-11:00  21.31305 -157.88873     165   0.0 Hōkūleʻa
  2021-09-13T13:17:33UTC 2021-09-13T03:17:33-10:00 2021-09-13T02:17:33-11:00  21.31312 -157.88875     342   0.0 Hōkūleʻa
  2021-09-13T12:18:40UTC 2021-09-13T02:18:40-10:00 2021-09-13T01:18:40-11:00  21.31306 -157.88873     212   0.0 Hōkūleʻa
  2021-09-13T11:18:33UTC 2021-09-13T01:18:33-10:00 2021-09-13T00:18:33-11:00  21.31309 -157.88871      76   0.0 Hōkūleʻa
  2021-09-13T10:17:24UTC 2021-09-13T00:17:24-10:00 2021-09-12T23:17:24-11:00  21.31308 -157.88875     298   0.0 Hōkūleʻa
  2021-09-13T09:18:24UTC 2021-09-12T23:18:24-10:00 2021-09-12T22:18:24-11:00  21.31307 -157.88873     118   0.0 Hōkūleʻa
  2021-09-13T08:25:39UTC 2021-09-12T22:25:39-10:00 2021-09-12T21:25:39-11:00  21.31308 -157.88875     317   0.0 Hōkūleʻa
  2021-09-13T07:18:37UTC 2021-09-12T21:18:37-10:00 2021-09-12T20:18:37-11:00  21.31306 -157.88873     137   0.0 Hōkūleʻa
  2021-09-13T06:18:24UTC 2021-09-12T20:18:24-10:00 2021-09-12T19:18:24-11:00  21.31308 -157.88875     244   0.0 Hōkūleʻa
  2021-09-13T05:18:30UTC 2021-09-12T19:18:30-10:00 2021-09-12T18:18:30-11:00  21.31309 -157.88873       0   0.0 Hōkūleʻa
  2021-09-13T04:17:42UTC 2021-09-12T18:17:42-10:00 2021-09-12T17:17:42-11:00  21.31309 -157.88873     250   0.0 Hōkūleʻa
  2021-09-13T03:19:30UTC 2021-09-12T17:19:30-10:00 2021-09-12T16:19:30-11:00  21.31311 -157.88866      75   0.0 Hōkūleʻa
  2021-09-13T02:28:24UTC 2021-09-12T16:28:24-10:00 2021-09-12T15:28:24-11:00  21.31310 -157.88871      61   0.0 Hōkūleʻa
  2021-09-13T01:17:23UTC 2021-09-12T15:17:23-10:00 2021-09-12T14:17:23-11:00  21.31309 -157.88873       0   0.0 Hōkūleʻa
  2021-09-13T00:17:40UTC 2021-09-12T14:17:40-10:00 2021-09-12T13:17:40-11:00  21.31309 -157.88873     148   0.0 Hōkūleʻa
  2021-09-12T23:18:31UTC 2021-09-12T13:18:31-10:00 2021-09-12T12:18:31-11:00  21.31312 -157.88875       0   0.0 Hōkūleʻa
  2021-09-12T22:17:33UTC 2021-09-12T12:17:33-10:00 2021-09-12T11:17:33-11:00  21.31308 -157.88875     270   0.0 Hōkūleʻa
  2021-09-12T21:17:31UTC 2021-09-12T11:17:31-10:00 2021-09-12T10:17:31-11:00  21.31308 -157.88873       0   0.0 Hōkūleʻa
  2021-09-12T20:18:40UTC 2021-09-12T10:18:40-10:00 2021-09-12T09:18:40-11:00  21.31308 -157.88873     136   0.0 Hōkūleʻa
  2021-09-12T19:33:50UTC 2021-09-12T09:33:50-10:00 2021-09-12T08:33:50-11:00  21.31310 -157.88875     310   0.0 Hōkūleʻa
  2021-09-12T18:17:39UTC 2021-09-12T08:17:39-10:00 2021-09-12T07:17:39-11:00  21.31302 -157.88864     129   0.0 Hōkūleʻa
  2021-09-12T17:18:28UTC 2021-09-12T07:18:28-10:00 2021-09-12T06:18:28-11:00  21.31308 -157.88873       0   0.0 Hōkūleʻa
  2021-09-12T16:18:41UTC 2021-09-12T06:18:41-10:00 2021-09-12T05:18:41-11:00  21.31307 -157.88873      33   0.0 Hōkūleʻa
  2021-09-12T15:18:38UTC 2021-09-12T05:18:38-10:00 2021-09-12T04:18:38-11:00  21.31304 -157.88875     148   0.0 Hōkūleʻa
  2021-09-12T14:18:22UTC 2021-09-12T04:18:22-10:00 2021-09-12T03:18:22-11:00  21.31307 -157.88877     270   0.0 Hōkūleʻa
  2021-09-12T13:18:33UTC 2021-09-12T03:18:33-10:00 2021-09-12T02:18:33-11:00  21.31307 -157.88873       0   0.0 Hōkūleʻa
  2021-09-12T12:18:49UTC 2021-09-12T02:18:49-10:00 2021-09-12T01:18:49-11:00  21.31306 -157.88873     180   0.0 Hōkūleʻa
  2021-09-12T11:18:22UTC 2021-09-12T01:18:22-10:00 2021-09-12T00:18:22-11:00  21.31309 -157.88873       0   0.0 Hōkūleʻa
  2021-09-12T10:18:32UTC 2021-09-12T00:18:32-10:00 2021-09-11T23:18:32-11:00  21.31308 -157.88873     180   0.0 Hōkūleʻa
  2021-09-12T09:17:32UTC 2021-09-11T23:17:32-10:00 2021-09-11T22:17:32-11:00  21.31309 -157.88873     180   0.0 Hōkūleʻa
  2021-09-12T08:18:39UTC 2021-09-11T22:18:39-10:00 2021-09-11T21:18:39-11:00  21.31311 -157.88873     310   0.0 Hōkūleʻa
  2021-09-12T07:18:27UTC 2021-09-11T21:18:27-10:00 2021-09-11T20:18:27-11:00  21.31299 -157.88858     118   0.0 Hōkūleʻa
  2021-09-12T06:26:07UTC 2021-09-11T20:26:07-10:00 2021-09-11T19:26:07-11:00  21.31307 -157.88873     242   0.0 Hōkūleʻa
  2021-09-12T05:18:22UTC 2021-09-11T19:18:22-10:00 2021-09-11T18:18:22-11:00  21.31309 -157.88868     118   0.0 Hōkūleʻa
  2021-09-12T04:18:44UTC 2021-09-11T18:18:44-10:00 2021-09-11T17:18:44-11:00  21.31310 -157.88871     119   0.0 Hōkūleʻa
  2021-09-12T02:18:25UTC 2021-09-11T16:18:25-10:00 2021-09-11T15:18:25-11:00  21.31311 -157.88873       0   0.0 Hōkūleʻa
  2021-09-12T01:17:31UTC 2021-09-11T15:17:31-10:00 2021-09-11T14:17:31-11:00  21.31309 -157.88873      90   0.0 Hōkūleʻa
  2021-09-12T00:17:39UTC 2021-09-11T14:17:39-10:00 2021-09-11T13:17:39-11:00  21.31309 -157.88875      80   0.0 Hōkūleʻa
  2021-09-11T23:18:30UTC 2021-09-11T13:18:30-10:00 2021-09-11T12:18:30-11:00  21.31307 -157.88888     262   0.0 Hōkūleʻa
  2021-09-11T22:17:33UTC 2021-09-11T12:17:33-10:00 2021-09-11T11:17:33-11:00  21.31309 -157.88873       0   0.0 Hōkūleʻa
  2021-09-11T21:18:41UTC 2021-09-11T11:18:41-10:00 2021-09-11T10:18:41-11:00  21.31308 -157.88873       0   0.0 Hōkūleʻa
  2021-09-11T20:17:38UTC 2021-09-11T10:17:38-10:00 2021-09-11T09:17:38-11:00  21.31307 -157.88873      90   0.0 Hōkūleʻa
  2021-09-11T19:18:34UTC 2021-09-11T09:18:34-10:00 2021-09-11T08:18:34-11:00  21.31307 -157.88877     241   0.0 Hōkūleʻa
  2021-09-11T18:17:29UTC 2021-09-11T08:17:29-10:00 2021-09-11T07:17:29-11:00  21.31308 -157.88875     298   0.0 Hōkūleʻa
  2021-09-11T17:19:24UTC 2021-09-11T07:19:24-10:00 2021-09-11T06:19:24-11:00  21.31307 -157.88873      90   0.0 Hōkūleʻa
  2021-09-11T16:18:49UTC 2021-09-11T06:18:49-10:00 2021-09-11T05:18:49-11:00  21.31307 -157.88875      32   0.0 Hōkūleʻa
  2021-09-11T15:18:40UTC 2021-09-11T05:18:40-10:00 2021-09-11T04:18:40-11:00  21.31304 -157.88877     212   0.0 Hōkūleʻa
  2021-09-11T14:18:36UTC 2021-09-11T04:18:36-10:00 2021-09-11T03:18:36-11:00  21.31310 -157.88873       0   0.0 Hōkūleʻa
  2021-09-11T13:18:24UTC 2021-09-11T03:18:24-10:00 2021-09-11T02:18:24-11:00  21.31306 -157.88873       0   0.0 Hōkūleʻa
  2021-09-11T12:18:48UTC 2021-09-11T02:18:48-10:00 2021-09-11T01:18:48-11:00  21.31306 -157.88873     180   0.0 Hōkūleʻa
  2021-09-11T11:18:38UTC 2021-09-11T01:18:38-10:00 2021-09-11T00:18:38-11:00  21.31308 -157.88873     116   0.0 Hōkūleʻa
  2021-09-11T10:18:32UTC 2021-09-11T00:18:32-10:00 2021-09-10T23:18:32-11:00  21.31309 -157.88875       0   0.0 Hōkūleʻa
  2021-09-11T09:27:19UTC 2021-09-10T23:27:19-10:00 2021-09-10T22:27:19-11:00  21.31308 -157.88875     270   0.0 Hōkūleʻa
  2021-09-11T08:18:38UTC 2021-09-10T22:18:38-10:00 2021-09-10T21:18:38-11:00  21.31308 -157.88873     312   0.0 Hōkūleʻa
  2021-09-11T07:18:34UTC 2021-09-10T21:18:34-10:00 2021-09-10T20:18:34-11:00  21.31303 -157.88866     143   0.0 Hōkūleʻa
  2021-09-11T06:18:33UTC 2021-09-10T20:18:33-10:00 2021-09-10T19:18:33-11:00  21.31308 -157.88871     117   0.0 Hōkūleʻa
  2021-09-11T05:18:29UTC 2021-09-10T19:18:29-10:00 2021-09-10T18:18:29-11:00  21.31309 -157.88873     180   0.0 Hōkūleʻa
  2021-09-11T04:18:43UTC 2021-09-10T18:18:43-10:00 2021-09-10T17:18:43-11:00  21.31310 -157.88873     270   0.0 Hōkūleʻa
  2021-09-11T03:18:37UTC 2021-09-10T17:18:37-10:00 2021-09-10T16:18:37-11:00  21.31310 -157.88864      82   0.0 Hōkūleʻa
  2021-09-11T02:17:30UTC 2021-09-10T16:17:30-10:00 2021-09-10T15:17:30-11:00  21.31309 -157.88873       0   0.0 Hōkūleʻa
  2021-09-11T01:18:24UTC 2021-09-10T15:18:24-10:00 2021-09-10T14:18:24-11:00  21.31308 -157.88873       0   0.0 Hōkūleʻa
  2021-09-11T00:17:47UTC 2021-09-10T14:17:47-10:00 2021-09-10T13:17:47-11:00  21.31308 -157.88873      61   0.0 Hōkūleʻa
  2021-09-10T23:18:30UTC 2021-09-10T13:18:30-10:00 2021-09-10T12:18:30-11:00  21.31306 -157.88877     241   0.0 Hōkūleʻa
  2021-09-10T22:17:24UTC 2021-09-10T12:17:24-10:00 2021-09-10T11:17:24-11:00  21.31308 -157.88873     180   0.0 Hōkūleʻa
  2021-09-10T21:18:29UTC 2021-09-10T11:18:29-10:00 2021-09-10T10:18:29-11:00  21.31310 -157.88873       0   0.0 Hōkūleʻa
  2021-09-10T20:18:46UTC 2021-09-10T10:18:46-10:00 2021-09-10T09:18:46-11:00  21.31308 -157.88873     104   0.0 Hōkūleʻa
  2021-09-10T19:18:32UTC 2021-09-10T09:18:32-10:00 2021-09-10T08:18:32-11:00  21.31309 -157.88877     308   0.0 Hōkūleʻa
  2021-09-10T18:18:32UTC 2021-09-10T08:18:32-10:00 2021-09-10T07:18:32-11:00  21.31306 -157.88873     180   0.0 Hōkūleʻa
  2021-09-10T17:18:47UTC 2021-09-10T07:18:47-10:00 2021-09-10T06:18:47-11:00  21.31307 -157.88873      90   0.0 Hōkūleʻa
  2021-09-10T16:18:46UTC 2021-09-10T06:18:46-10:00 2021-09-10T05:18:46-11:00  21.31307 -157.88875     270   0.0 Hōkūleʻa
  2021-09-10T15:18:30UTC 2021-09-10T05:18:30-10:00 2021-09-10T04:18:30-11:00  21.31307 -157.88871      61   0.0 Hōkūleʻa
  2021-09-10T14:18:30UTC 2021-09-10T04:18:30-10:00 2021-09-10T03:18:30-11:00  21.31305 -157.88875     138   0.0 Hōkūleʻa
  2021-09-10T13:18:24UTC 2021-09-10T03:18:24-10:00 2021-09-10T02:18:24-11:00  21.31307 -157.88877     270   0.0 Hōkūleʻa
  2021-09-10T12:18:47UTC 2021-09-10T02:18:47-10:00 2021-09-10T01:18:47-11:00  21.31307 -157.88873     270   0.0 Hōkūleʻa
  2021-09-10T11:17:28UTC 2021-09-10T01:17:28-10:00 2021-09-10T00:17:28-11:00  21.31307 -157.88868     118   0.0 Hōkūleʻa
  2021-09-10T10:18:23UTC 2021-09-10T00:18:23-10:00 2021-09-09T23:18:23-11:00  21.31311 -157.88877     328   0.0 Hōkūleʻa
  2021-09-10T09:18:24UTC 2021-09-09T23:18:24-10:00 2021-09-09T22:18:24-11:00  21.31308 -157.88875     180   0.0 Hōkūleʻa
  2021-09-10T08:18:48UTC 2021-09-09T22:18:48-10:00 2021-09-09T21:18:48-11:00  21.31309 -157.88875     312   0.0 Hōkūleʻa
  2021-09-10T07:18:36UTC 2021-09-09T21:18:36-10:00 2021-09-09T20:18:36-11:00  21.31298 -157.88862     137   0.0 Hōkūleʻa
  2021-09-10T06:18:32UTC 2021-09-09T20:18:32-10:00 2021-09-09T19:18:32-11:00  21.31307 -157.88871       0   0.0 Hōkūleʻa
  2021-09-10T05:18:31UTC 2021-09-09T19:18:31-10:00 2021-09-09T18:18:31-11:00  21.31307 -157.88871     137   0.0 Hōkūleʻa
  2021-09-10T04:18:44UTC 2021-09-09T18:18:44-10:00 2021-09-09T17:18:44-11:00  21.31309 -157.88873     284   0.0 Hōkūleʻa
  2021-09-10T03:18:33UTC 2021-09-09T17:18:33-10:00 2021-09-09T16:18:33-11:00  21.31308 -157.88868     180   0.0 Hōkūleʻa
  2021-09-10T02:18:31UTC 2021-09-09T16:18:31-10:00 2021-09-09T15:18:31-11:00  21.31310 -157.88868      62   0.0 Hōkūleʻa
  2021-09-10T01:17:30UTC 2021-09-09T15:17:30-10:00 2021-09-09T14:17:30-11:00  21.31307 -157.88875     224   0.0 Hōkūleʻa
  2021-09-10T00:17:49UTC 2021-09-09T14:17:49-10:00 2021-09-09T13:17:49-11:00  21.31309 -157.88873      44   0.0 Hōkūleʻa
  2021-09-09T23:18:37UTC 2021-09-09T13:18:37-10:00 2021-09-09T12:18:37-11:00  21.31307 -157.88875     298   0.0 Hōkūleʻa
  2021-09-09T22:17:26UTC 2021-09-09T12:17:26-10:00 2021-09-09T11:17:26-11:00  21.31306 -157.88873     180   0.0 Hōkūleʻa
  2021-09-09T21:17:24UTC 2021-09-09T11:17:24-10:00 2021-09-09T10:17:24-11:00  21.31308 -157.88873      62   0.0 Hōkūleʻa
  2021-09-09T20:24:41UTC 2021-09-09T10:24:41-10:00 2021-09-09T09:24:41-11:00  21.31307 -157.88875     298   0.0 Hōkūleʻa
  2021-09-09T19:17:33UTC 2021-09-09T09:17:33-10:00 2021-09-09T08:17:33-11:00  21.31306 -157.88873     118   0.0 Hōkūleʻa
  2021-09-09T18:25:27UTC 2021-09-09T08:25:27-10:00 2021-09-09T07:25:27-11:00  21.31307 -157.88875     180   0.0 Hōkūleʻa
  2021-09-09T17:18:29UTC 2021-09-09T07:18:29-10:00 2021-09-09T06:18:29-11:00  21.31308 -157.88875       0   0.0 Hōkūleʻa
  2021-09-09T16:18:46UTC 2021-09-09T06:18:46-10:00 2021-09-09T05:18:46-11:00  21.31307 -157.88875     250   0.0 Hōkūleʻa
  2021-09-09T15:18:38UTC 2021-09-09T05:18:38-10:00 2021-09-09T04:18:38-11:00  21.31311 -157.88862      56   0.0 Hōkūleʻa
  2021-09-09T14:18:29UTC 2021-09-09T04:18:29-10:00 2021-09-09T03:18:29-11:00  21.31306 -157.88871     138   0.0 Hōkūleʻa
  2021-09-09T13:18:24UTC 2021-09-09T03:18:24-10:00 2021-09-09T02:18:24-11:00  21.31308 -157.88873      62   0.0 Hōkūleʻa
  2021-09-09T12:17:47UTC 2021-09-09T02:17:47-10:00 2021-09-09T01:17:47-11:00  21.31307 -157.88875     270   0.0 Hōkūleʻa
  2021-09-09T11:25:06UTC 2021-09-09T01:25:06-10:00 2021-09-09T00:25:06-11:00  21.31307 -157.88873       0   0.0 Hōkūleʻa
  2021-09-09T10:18:31UTC 2021-09-09T00:18:31-10:00 2021-09-08T23:18:31-11:00  21.31306 -157.88873     180   0.0 Hōkūleʻa
  2021-09-09T09:18:31UTC 2021-09-08T23:18:31-10:00 2021-09-08T22:18:31-11:00  21.31307 -157.88873     118   0.0 Hōkūleʻa
  2021-09-09T08:17:43UTC 2021-09-08T22:17:43-10:00 2021-09-08T21:17:43-11:00  21.31308 -157.88875     298   0.0 Hōkūleʻa
  2021-09-09T07:18:29UTC 2021-09-08T21:18:29-10:00 2021-09-08T20:18:29-11:00  21.31307 -157.88873     180   0.0 Hōkūleʻa
  2021-09-09T06:18:38UTC 2021-09-08T20:18:38-10:00 2021-09-08T19:18:38-11:00  21.31308 -157.88873       0   0.0 Hōkūleʻa
  2021-09-09T05:18:29UTC 2021-09-08T19:18:29-10:00 2021-09-08T18:18:29-11:00  21.31306 -157.88873     317   0.0 Hōkūleʻa
  2021-09-09T04:18:37UTC 2021-09-08T18:18:37-10:00 2021-09-08T17:18:37-11:00  21.31304 -157.88871     223   0.0 Hōkūleʻa
  2021-09-09T03:27:53UTC 2021-09-08T17:27:53-10:00 2021-09-08T16:27:53-11:00  21.31308 -157.88866      99   0.0 Hōkūleʻa
  2021-09-09T02:18:29UTC 2021-09-08T16:18:29-10:00 2021-09-08T15:18:29-11:00  21.31309 -157.88873       0   0.0 Hōkūleʻa
  2021-09-09T01:18:24UTC 2021-09-08T15:18:24-10:00 2021-09-08T14:18:24-11:00  21.31307 -157.88873     136   0.0 Hōkūleʻa
  2021-09-09T00:17:47UTC 2021-09-08T14:17:47-10:00 2021-09-08T13:17:47-11:00  21.31309 -157.88875      20   0.0 Hōkūleʻa
  2021-09-08T23:17:30UTC 2021-09-08T13:17:30-10:00 2021-09-08T12:17:30-11:00  21.31304 -157.88877     223   0.0 Hōkūleʻa
  2021-09-08T22:18:33UTC 2021-09-08T12:18:33-10:00 2021-09-08T11:18:33-11:00  21.31308 -157.88873     180   0.0 Hōkūleʻa
  2021-09-08T21:17:32UTC 2021-09-08T11:17:32-10:00 2021-09-08T10:17:32-11:00  21.31309 -157.88873       0   0.0 Hōkūleʻa
  2021-09-08T20:18:47UTC 2021-09-08T10:18:47-10:00 2021-09-08T09:18:47-11:00  21.31307 -157.88873       0   0.0 Hōkūleʻa
  2021-09-08T19:17:33UTC 2021-09-08T09:17:33-10:00 2021-09-08T08:17:33-11:00  21.31306 -157.88873     180   0.0 Hōkūleʻa
  2021-09-08T18:18:30UTC 2021-09-08T08:18:30-10:00 2021-09-08T07:18:30-11:00  21.31307 -157.88873       0   0.0 Hōkūleʻa
  2021-09-08T17:18:28UTC 2021-09-08T07:18:28-10:00 2021-09-08T06:18:28-11:00  21.31307 -157.88873       0   0.0 Hōkūleʻa
  2021-09-08T16:19:48UTC 2021-09-08T06:19:48-10:00 2021-09-08T05:19:48-11:00  21.31307 -157.88873      52   0.0 Hōkūleʻa
  2021-09-08T15:18:38UTC 2021-09-08T05:18:38-10:00 2021-09-08T04:18:38-11:00  21.31304 -157.88877     232   0.0 Hōkūleʻa
  2021-09-08T14:17:35UTC 2021-09-08T04:17:35-10:00 2021-09-08T03:17:35-11:00  21.31307 -157.88873      62   0.0 Hōkūleʻa
  2021-09-08T13:19:24UTC 2021-09-08T03:19:24-10:00 2021-09-08T02:19:24-11:00  21.31306 -157.88875     242   0.0 Hōkūleʻa
  2021-09-08T12:18:46UTC 2021-09-08T02:18:46-10:00 2021-09-08T01:18:46-11:00  21.31307 -157.88873       0   0.0 Hōkūleʻa
  2021-09-08T11:18:37UTC 2021-09-08T01:18:37-10:00 2021-09-08T00:18:37-11:00  21.31305 -157.88873     137   0.0 Hōkūleʻa
  2021-09-08T10:18:33UTC 2021-09-08T00:18:33-10:00 2021-09-07T23:18:33-11:00  21.31307 -157.88875     224   0.0 Hōkūleʻa
  2021-09-08T09:18:31UTC 2021-09-07T23:18:31-10:00 2021-09-07T22:18:31-11:00  21.31309 -157.88873       0   0.0 Hōkūleʻa
  2021-09-08T08:18:47UTC 2021-09-07T22:18:47-10:00 2021-09-07T21:18:47-11:00  21.31308 -157.88873     307   0.0 Hōkūleʻa
  2021-09-08T07:19:36UTC 2021-09-07T21:19:36-10:00 2021-09-07T20:19:36-11:00  21.31300 -157.88862     137   0.0 Hōkūleʻa
  2021-09-08T06:27:51UTC 2021-09-07T20:27:51-10:00 2021-09-07T19:27:51-11:00  21.31307 -157.88868     137   0.0 Hōkūleʻa
  2021-09-08T05:18:21UTC 2021-09-07T19:18:21-10:00 2021-09-07T18:18:21-11:00  21.31311 -157.88873       0   0.0 Hōkūleʻa
  2021-09-08T04:17:48UTC 2021-09-07T18:17:48-10:00 2021-09-07T17:17:48-11:00  21.31306 -157.88873     180   0.0 Hōkūleʻa
  2021-09-08T03:18:23UTC 2021-09-07T17:18:23-10:00 2021-09-07T16:18:23-11:00  21.31310 -157.88873       0   0.0 Hōkūleʻa
  2021-09-08T02:17:31UTC 2021-09-07T16:17:31-10:00 2021-09-07T15:17:31-11:00  21.31309 -157.88873       0   0.0 Hōkūleʻa
  2021-09-08T01:18:25UTC 2021-09-07T15:18:25-10:00 2021-09-07T14:18:25-11:00  21.31308 -157.88873       0   0.0 Hōkūleʻa
  2021-09-08T00:17:46UTC 2021-09-07T14:17:46-10:00 2021-09-07T13:17:46-11:00  21.31308 -157.88873       0   0.0 Hōkūleʻa
  2021-09-07T23:17:36UTC 2021-09-07T13:17:36-10:00 2021-09-07T12:17:36-11:00  21.31306 -157.88873       0   0.0 Hōkūleʻa
  2021-09-07T22:17:32UTC 2021-09-07T12:17:32-10:00 2021-09-07T11:17:32-11:00  21.31306 -157.88873     180   0.0 Hōkūleʻa
  2021-09-07T21:18:24UTC 2021-09-07T11:18:24-10:00 2021-09-07T10:18:24-11:00  21.31307 -157.88873       0   0.0 Hōkūleʻa
  2021-09-07T20:17:39UTC 2021-09-07T10:17:39-10:00 2021-09-07T09:17:39-11:00  21.31307 -157.88873       0   0.0 Hōkūleʻa
  2021-09-07T19:27:06UTC 2021-09-07T09:27:06-10:00 2021-09-07T08:27:06-11:00  21.31307 -157.88873     118   0.0 Hōkūleʻa
  2021-09-07T18:18:24UTC 2021-09-07T08:18:24-10:00 2021-09-07T07:18:24-11:00  21.31308 -157.88875     270   0.0 Hōkūleʻa
  2021-09-07T17:25:16UTC 2021-09-07T07:25:16-10:00 2021-09-07T06:25:16-11:00  21.31308 -157.88873      90   0.0 Hōkūleʻa
  2021-09-07T16:18:11UTC 2021-09-07T06:18:11-10:00 2021-09-07T05:18:11-11:00  21.31308 -157.88875      25   0.0 Hōkūleʻa
  2021-09-07T15:18:30UTC 2021-09-07T05:18:30-10:00 2021-09-07T04:18:30-11:00  21.31304 -157.88877     256   0.0 Hōkūleʻa
  2021-09-07T14:18:27UTC 2021-09-07T04:18:27-10:00 2021-09-07T03:18:27-11:00  21.31305 -157.88873     118   0.0 Hōkūleʻa
  2021-09-07T13:18:24UTC 2021-09-07T03:18:24-10:00 2021-09-07T02:18:24-11:00  21.31306 -157.88875     180   0.0 Hōkūleʻa
  2021-09-07T12:18:47UTC 2021-09-07T02:18:47-10:00 2021-09-07T01:18:47-11:00  21.31307 -157.88875       0   0.0 Hōkūleʻa
  2021-09-07T11:18:41UTC 2021-09-07T01:18:41-10:00 2021-09-07T00:18:41-11:00  21.31307 -157.88875      90   0.0 Hōkūleʻa
  2021-09-07T10:18:27UTC 2021-09-07T00:18:27-10:00 2021-09-06T23:18:27-11:00  21.31307 -157.88877     223   0.0 Hōkūleʻa
  2021-09-07T09:18:24UTC 2021-09-06T23:18:24-10:00 2021-09-06T22:18:24-11:00  21.31309 -157.88875     270   0.0 Hōkūleʻa
  2021-09-07T08:19:47UTC 2021-09-06T22:19:47-10:00 2021-09-06T21:19:47-11:00  21.31309 -157.88873     314   0.0 Hōkūleʻa
  2021-09-07T07:18:37UTC 2021-09-06T21:18:37-10:00 2021-09-06T20:18:37-11:00  21.31299 -157.88862     148   0.0 Hōkūleʻa
  2021-09-07T06:18:32UTC 2021-09-06T20:18:32-10:00 2021-09-06T19:18:32-11:00  21.31309 -157.88868      52   0.0 Hōkūleʻa
  2021-09-07T05:18:31UTC 2021-09-06T19:18:31-10:00 2021-09-06T18:18:31-11:00  21.31306 -157.88873     180   0.0 Hōkūleʻa
  2021-09-07T04:17:48UTC 2021-09-06T18:17:48-10:00 2021-09-06T17:17:48-11:00  21.31308 -157.88873     243   0.0 Hōkūleʻa
  2021-09-07T03:18:24UTC 2021-09-06T17:18:24-10:00 2021-09-06T16:18:24-11:00  21.31309 -157.88871      90   0.0 Hōkūleʻa
  2021-09-07T02:17:29UTC 2021-09-06T16:17:29-10:00 2021-09-06T15:17:29-11:00  21.31309 -157.88873      44   0.0 Hōkūleʻa
  2021-09-07T01:18:24UTC 2021-09-06T15:18:24-10:00 2021-09-06T14:18:24-11:00  21.31307 -157.88875     270   0.0 Hōkūleʻa
  2021-09-07T00:17:48UTC 2021-09-06T14:17:48-10:00 2021-09-06T13:17:48-11:00  21.31307 -157.88873     100   0.0 Hōkūleʻa
  2021-09-06T23:18:30UTC 2021-09-06T13:18:30-10:00 2021-09-06T12:18:30-11:00  21.31308 -157.88879     261   0.0 Hōkūleʻa
  2021-09-06T22:17:33UTC 2021-09-06T12:17:33-10:00 2021-09-06T11:17:33-11:00  21.31309 -157.88873       0   0.0 Hōkūleʻa
  2021-09-06T21:18:33UTC 2021-09-06T11:18:33-10:00 2021-09-06T10:18:33-11:00  21.31307 -157.88873     180   0.0 Hōkūleʻa
  2021-09-06T20:17:48UTC 2021-09-06T10:17:48-10:00 2021-09-06T09:17:48-11:00  21.31308 -157.88873     104   0.0 Hōkūleʻa
  2021-09-06T19:18:38UTC 2021-09-06T09:18:38-10:00 2021-09-06T08:18:38-11:00  21.31309 -157.88877       0   0.0 Hōkūleʻa
  2021-09-06T18:28:04UTC 2021-09-06T08:28:04-10:00 2021-09-06T07:28:04-11:00  21.31306 -157.88877     255   0.0 Hōkūleʻa
  2021-09-06T17:18:22UTC 2021-09-06T07:18:22-10:00 2021-09-06T06:18:22-11:00  21.31307 -157.88873     118   0.0 Hōkūleʻa
  2021-09-06T16:27:48UTC 2021-09-06T06:27:48-10:00 2021-09-06T05:27:48-11:00  21.31308 -157.88875      52   0.0 Hōkūleʻa
  2021-09-06T15:18:30UTC 2021-09-06T05:18:30-10:00 2021-09-06T04:18:30-11:00  21.31297 -157.88890     235   0.0 Hōkūleʻa
  2021-09-06T14:18:29UTC 2021-09-06T04:18:29-10:00 2021-09-06T03:18:29-11:00  21.31306 -157.88877     270   0.0 Hōkūleʻa
  2021-09-06T13:18:29UTC 2021-09-06T03:18:29-10:00 2021-09-06T02:18:29-11:00  21.31306 -157.88873     118   0.0 Hōkūleʻa
  2021-09-06T12:18:48UTC 2021-09-06T02:18:48-10:00 2021-09-06T01:18:48-11:00  21.31307 -157.88875     270   0.0 Hōkūleʻa
  2021-09-06T11:18:21UTC 2021-09-06T01:18:21-10:00 2021-09-06T00:18:21-11:00  21.31307 -157.88873       0   0.0 Hōkūleʻa
  2021-09-06T10:18:32UTC 2021-09-06T00:18:32-10:00 2021-09-05T23:18:32-11:00  21.31307 -157.88873     118   0.0 Hōkūleʻa
  2021-09-06T09:18:33UTC 2021-09-05T23:18:33-10:00 2021-09-05T22:18:33-11:00  21.31308 -157.88875       0   0.0 Hōkūleʻa
  2021-09-06T08:18:49UTC 2021-09-05T22:18:49-10:00 2021-09-05T21:18:49-11:00  21.31308 -157.88875     317   0.0 Hōkūleʻa
  2021-09-06T07:18:34UTC 2021-09-05T21:18:34-10:00 2021-09-05T20:18:34-11:00  21.31306 -157.88873     180   0.0 Hōkūleʻa
  2021-09-06T06:18:39UTC 2021-09-05T20:18:39-10:00 2021-09-05T19:18:39-11:00  21.31307 -157.88873       0   0.0 Hōkūleʻa
  2021-09-06T05:18:30UTC 2021-09-05T19:18:30-10:00 2021-09-05T18:18:30-11:00  21.31306 -157.88873     180   0.0 Hōkūleʻa
  2021-09-06T04:17:38UTC 2021-09-05T18:17:38-10:00 2021-09-05T17:17:38-11:00  21.31307 -157.88873     242   0.0 Hōkūleʻa
  2021-09-06T03:26:18UTC 2021-09-05T17:26:18-10:00 2021-09-05T16:26:18-11:00  21.31309 -157.88868      52   0.0 Hōkūleʻa
  2021-09-06T02:18:28UTC 2021-09-05T16:18:28-10:00 2021-09-05T15:18:28-11:00  21.31306 -157.88873     180   0.0 Hōkūleʻa
  2021-09-06T01:17:33UTC 2021-09-05T15:17:33-10:00 2021-09-05T14:17:33-11:00  21.31308 -157.88873     180   0.0 Hōkūleʻa
  2021-09-06T00:17:51UTC 2021-09-05T14:17:51-10:00 2021-09-05T13:17:51-11:00  21.31311 -157.88873       0   0.0 Hōkūleʻa
  2021-09-05T23:17:30UTC 2021-09-05T13:17:30-10:00 2021-09-05T12:17:30-11:00  21.31306 -157.88873     255   0.0 Hōkūleʻa
  2021-09-05T22:18:33UTC 2021-09-05T12:18:33-10:00 2021-09-05T11:18:33-11:00  21.31307 -157.88868     128   0.0 Hōkūleʻa
  2021-09-05T21:17:21UTC 2021-09-05T11:17:21-10:00 2021-09-05T10:17:21-11:00  21.31310 -157.88873       0   0.0 Hōkūleʻa
  2021-09-05T20:17:47UTC 2021-09-05T10:17:47-10:00 2021-09-05T09:17:47-11:00  21.31309 -157.88873       0   0.0 Hōkūleʻa
  2021-09-05T19:18:34UTC 2021-09-05T09:18:34-10:00 2021-09-05T08:18:34-11:00  21.31308 -157.88873     116   0.0 Hōkūleʻa
  2021-09-05T18:17:31UTC 2021-09-05T08:17:31-10:00 2021-09-05T07:17:31-11:00  21.31309 -157.88875       0   0.0 Hōkūleʻa
  2021-09-05T17:18:22UTC 2021-09-05T07:18:22-10:00 2021-09-05T06:18:22-11:00  21.31306 -157.88875     180   0.0 Hōkūleʻa
  2021-09-05T16:18:43UTC 2021-09-05T06:18:43-10:00 2021-09-05T05:18:43-11:00  21.31307 -157.88875      51   0.0 Hōkūleʻa
  2021-09-05T15:19:38UTC 2021-09-05T05:19:38-10:00 2021-09-05T04:19:38-11:00  21.31300 -157.88883     236   0.0 Hōkūleʻa
  2021-09-05T14:18:31UTC 2021-09-05T04:18:31-10:00 2021-09-05T03:18:31-11:00  21.31306 -157.88875       0   0.0 Hōkūleʻa
  2021-09-05T13:18:33UTC 2021-09-05T03:18:33-10:00 2021-09-05T02:18:33-11:00  21.31306 -157.88875     242   0.0 Hōkūleʻa
  2021-09-05T12:18:47UTC 2021-09-05T02:18:47-10:00 2021-09-05T01:18:47-11:00  21.31307 -157.88873     118   0.0 Hōkūleʻa
  2021-09-05T11:18:36UTC 2021-09-05T01:18:36-10:00 2021-09-05T00:18:36-11:00  21.31308 -157.88875      90   0.0 Hōkūleʻa
  2021-09-05T10:17:33UTC 2021-09-05T00:17:33-10:00 2021-09-04T23:17:33-11:00  21.31308 -157.88877     180   0.0 Hōkūleʻa
  2021-09-05T09:18:24UTC 2021-09-04T23:18:24-10:00 2021-09-04T22:18:24-11:00  21.31310 -157.88877     308   0.0 Hōkūleʻa
  2021-09-05T08:18:42UTC 2021-09-04T22:18:42-10:00 2021-09-04T21:18:42-11:00  21.31307 -157.88873     298   0.0 Hōkūleʻa
  2021-09-05T07:17:26UTC 2021-09-04T21:17:26-10:00 2021-09-04T20:17:26-11:00  21.31304 -157.88866     118   0.0 Hōkūleʻa
  2021-09-05T06:18:25UTC 2021-09-04T20:18:25-10:00 2021-09-04T19:18:25-11:00  21.31307 -157.88873     180   0.0 Hōkūleʻa
  2021-09-05T05:18:29UTC 2021-09-04T19:18:29-10:00 2021-09-04T18:18:29-11:00  21.31308 -157.88873     180   0.0 Hōkūleʻa
  2021-09-05T04:18:45UTC 2021-09-04T18:18:45-10:00 2021-09-04T17:18:45-11:00  21.31310 -157.88873     299   0.0 Hōkūleʻa
  2021-09-05T03:18:38UTC 2021-09-04T17:18:38-10:00 2021-09-04T16:18:38-11:00  21.31309 -157.88871       0   0.0 Hōkūleʻa
  2021-09-05T02:26:17UTC 2021-09-04T16:26:17-10:00 2021-09-04T15:26:17-11:00  21.31309 -157.88871      63   0.0 Hōkūleʻa
  2021-09-05T01:18:25UTC 2021-09-04T15:18:25-10:00 2021-09-04T14:18:25-11:00  21.31308 -157.88873     180   0.0 Hōkūleʻa
  2021-09-05T00:17:49UTC 2021-09-04T14:17:49-10:00 2021-09-04T13:17:49-11:00  21.31310 -157.88873      62   0.0 Hōkūleʻa
  2021-09-04T23:17:45UTC 2021-09-04T13:17:45-10:00 2021-09-04T12:17:45-11:00  21.31309 -157.88875       0   0.0 Hōkūleʻa
  2021-09-04T22:18:40UTC 2021-09-04T12:18:40-10:00 2021-09-04T11:18:40-11:00  21.31305 -157.88875     212   0.0 Hōkūleʻa
  2021-09-04T21:17:49UTC 2021-09-04T11:17:49-10:00 2021-09-04T10:17:49-11:00  21.31308 -157.88873       0   0.0 Hōkūleʻa
  2021-09-04T20:25:14UTC 2021-09-04T10:25:14-10:00 2021-09-04T09:25:14-11:00  21.31308 -157.88873       0   0.0 Hōkūleʻa
  2021-09-04T19:17:24UTC 2021-09-04T09:17:24-10:00 2021-09-04T08:17:24-11:00  21.31307 -157.88873       0   0.0 Hōkūleʻa
  2021-09-04T18:18:41UTC 2021-09-04T08:18:41-10:00 2021-09-04T07:18:41-11:00  21.31306 -157.88873     137   0.0 Hōkūleʻa
  2021-09-04T18:10:46UTC 2021-09-04T08:10:46-10:00 2021-09-04T07:10:46-11:00  21.31305 -157.88838     352   0.0 Hikianalia
  2021-09-04T17:31:39UTC 2021-09-04T07:31:39-10:00 2021-09-04T06:31:39-11:00  21.31290 -157.88836       0   0.0 Hikianalia
  2021-09-04T17:18:57UTC 2021-09-04T07:18:57-10:00 2021-09-04T06:18:57-11:00  21.31310 -157.88877     328   0.0 Hōkūleʻa
  2021-09-04T16:18:33UTC 2021-09-04T06:18:33-10:00 2021-09-04T05:18:33-11:00  21.31304 -157.88873     136   0.0 Hōkūleʻa
  2021-09-04T16:11:48UTC 2021-09-04T06:11:48-10:00 2021-09-04T05:11:48-11:00  21.31290 -157.88836      80   0.0 Hikianalia
  2021-09-04T15:18:24UTC 2021-09-04T05:18:24-10:00 2021-09-04T04:18:24-11:00  21.31306 -157.88875       0   0.0 Hōkūleʻa
  2021-09-04T15:11:09UTC 2021-09-04T05:11:09-10:00 2021-09-04T04:11:09-11:00  21.31289 -157.88843     342   0.0 Hikianalia
  2021-09-04T14:17:38UTC 2021-09-04T04:17:38-10:00 2021-09-04T03:17:38-11:00  21.31306 -157.88875     285   0.0 Hōkūleʻa
  2021-09-04T14:10:35UTC 2021-09-04T04:10:35-10:00 2021-09-04T03:10:35-11:00  21.31282 -157.88841     255   0.0 Hikianalia
  2021-09-04T13:18:27UTC 2021-09-04T03:18:27-10:00 2021-09-04T02:18:27-11:00  21.31305 -157.88871      90   0.0 Hōkūleʻa
  2021-09-04T13:10:41UTC 2021-09-04T03:10:41-10:00 2021-09-04T02:10:41-11:00  21.31283 -157.88836     180   0.0 Hikianalia
  2021-09-04T12:18:33UTC 2021-09-04T02:18:33-10:00 2021-09-04T01:18:33-11:00  21.31305 -157.88873     180   0.0 Hōkūleʻa
  2021-09-04T12:11:18UTC 2021-09-04T02:11:18-10:00 2021-09-04T01:11:18-11:00  21.31293 -157.88836     276   0.0 Hikianalia
  2021-09-04T11:22:10UTC 2021-09-04T01:22:10-10:00 2021-09-04T00:22:10-11:00  21.31292 -157.88825      73   0.0 Hikianalia
  2021-09-04T11:18:22UTC 2021-09-04T01:18:22-10:00 2021-09-04T00:18:22-11:00  21.31307 -157.88873      90   0.0 Hōkūleʻa
  2021-09-04T10:18:41UTC 2021-09-04T00:18:41-10:00 2021-09-03T23:18:41-11:00  21.31307 -157.88875     119   0.0 Hōkūleʻa
  2021-09-04T09:18:31UTC 2021-09-03T23:18:31-10:00 2021-09-03T22:18:31-11:00  21.31308 -157.88877     180   0.0 Hōkūleʻa
  2021-09-04T09:11:06UTC 2021-09-03T23:11:06-10:00 2021-09-03T22:11:06-11:00  21.31288 -157.88841     234   0.0 Hikianalia
  2021-09-04T08:18:29UTC 2021-09-03T22:18:29-10:00 2021-09-03T21:18:29-11:00  21.31311 -157.88877     308   0.0 Hōkūleʻa
  2021-09-04T08:11:24UTC 2021-09-03T22:11:24-10:00 2021-09-03T21:11:24-11:00  21.31292 -157.88834     143   0.0 Hikianalia
  2021-09-04T07:18:32UTC 2021-09-03T21:18:32-10:00 2021-09-03T20:18:32-11:00  21.31308 -157.88873       0   0.0 Hōkūleʻa
  2021-09-04T07:10:49UTC 2021-09-03T21:10:49-10:00 2021-09-03T20:10:49-11:00  21.31297 -157.88838       0   0.0 Hikianalia
  2021-09-04T06:18:47UTC 2021-09-03T20:18:47-10:00 2021-09-03T19:18:47-11:00  21.31308 -157.88873     102   0.0 Hōkūleʻa
  2021-09-04T06:09:45UTC 2021-09-03T20:09:45-10:00 2021-09-03T19:09:45-11:00  21.31297 -157.88838     137   0.0 Hikianalia
  2021-09-04T05:18:37UTC 2021-09-03T19:18:37-10:00 2021-09-03T18:18:37-11:00  21.31310 -157.88883     278   0.0 Hōkūleʻa
  2021-09-04T05:10:38UTC 2021-09-03T19:10:38-10:00 2021-09-03T18:10:38-11:00  21.31308 -157.88849     321   0.0 Hikianalia
  2021-09-04T04:18:33UTC 2021-09-03T18:18:33-10:00 2021-09-03T17:18:33-11:00  21.31309 -157.88875     260   0.0 Hōkūleʻa
  2021-09-04T04:11:14UTC 2021-09-03T18:11:14-10:00 2021-09-03T17:11:14-11:00  21.31291 -157.88834     252   0.0 Hikianalia
  2021-09-04T03:20:36UTC 2021-09-03T17:20:36-10:00 2021-09-03T16:20:36-11:00  21.31294 -157.88823      69   0.0 Hikianalia
  2021-09-04T03:17:29UTC 2021-09-03T17:17:29-10:00 2021-09-03T16:17:29-11:00  21.31310 -157.88868      75   0.0 Hōkūleʻa
  2021-09-04T02:18:39UTC 2021-09-03T16:18:39-10:00 2021-09-03T15:18:39-11:00  21.31309 -157.88873       0   0.0 Hōkūleʻa
  2021-09-04T02:10:42UTC 2021-09-03T16:10:42-10:00 2021-09-03T15:10:42-11:00  21.31289 -157.88838     201   0.0 Hikianalia
  2021-09-04T01:18:33UTC 2021-09-03T15:18:33-10:00 2021-09-03T14:18:33-11:00  21.31308 -157.88873     180   0.0 Hōkūleʻa
  2021-09-04T00:18:33UTC 2021-09-03T14:18:33-10:00 2021-09-03T13:18:33-11:00  21.31309 -157.88873       0   0.0 Hōkūleʻa
  2021-09-04T00:10:47UTC 2021-09-03T14:10:47-10:00 2021-09-03T13:10:47-11:00  21.31294 -157.88836      90   0.0 Hikianalia
  2021-09-03T23:17:27UTC 2021-09-03T13:17:27-10:00 2021-09-03T12:17:27-11:00  21.31309 -157.88873       0   0.0 Hōkūleʻa
  2021-09-03T23:09:43UTC 2021-09-03T13:09:43-10:00 2021-09-03T12:09:43-11:00  21.31294 -157.88856     276   0.0 Hikianalia
  2021-09-03T22:17:47UTC 2021-09-03T12:17:47-10:00 2021-09-03T11:17:47-11:00  21.31309 -157.88873     317   0.0 Hōkūleʻa
  2021-09-03T22:10:14UTC 2021-09-03T12:10:14-10:00 2021-09-03T11:10:14-11:00  21.31292 -157.88834     256   0.0 Hikianalia
  2021-09-03T21:22:07UTC 2021-09-03T11:22:07-10:00 2021-09-03T10:22:07-11:00  21.31293 -157.88830      84   0.0 Hikianalia
  2021-09-03T21:18:29UTC 2021-09-03T11:18:29-10:00 2021-09-03T10:18:29-11:00  21.31307 -157.88871       0   0.0 Hōkūleʻa
  2021-09-03T20:17:27UTC 2021-09-03T10:17:27-10:00 2021-09-03T09:17:27-11:00  21.31307 -157.88871      42   0.0 Hōkūleʻa
  2021-09-03T20:09:47UTC 2021-09-03T10:09:47-10:00 2021-09-03T09:09:47-11:00  21.31292 -157.88841     247   0.0 Hikianalia
  2021-09-03T19:18:27UTC 2021-09-03T09:18:27-10:00 2021-09-03T08:18:27-11:00  21.31305 -157.88873     180   0.0 Hōkūleʻa
  2021-09-03T19:10:38UTC 2021-09-03T09:10:38-10:00 2021-09-03T08:10:38-11:00  21.31296 -157.88830      61   0.0 Hikianalia
  2021-09-03T18:23:31UTC 2021-09-03T08:23:31-10:00 2021-09-03T07:23:31-11:00  21.31293 -157.88836     154   0.0 Hikianalia
  2021-09-03T18:18:49UTC 2021-09-03T08:18:49-10:00 2021-09-03T07:18:49-11:00  21.31307 -157.88873       0   0.0 Hōkūleʻa
  2021-09-03T17:19:36UTC 2021-09-03T07:19:36-10:00 2021-09-03T06:19:36-11:00  21.31304 -157.88873     136   0.0 Hōkūleʻa
  2021-09-03T17:11:15UTC 2021-09-03T07:11:15-10:00 2021-09-03T06:11:15-11:00  21.31297 -157.88838     298   0.0 Hikianalia
  2021-09-03T16:17:41UTC 2021-09-03T06:17:41-10:00 2021-09-03T05:17:41-11:00  21.31306 -157.88875     316   0.0 Hōkūleʻa
  2021-09-03T16:10:39UTC 2021-09-03T06:10:39-10:00 2021-09-03T05:10:39-11:00  21.31295 -157.88834      20   0.0 Hikianalia
  2021-09-03T15:18:23UTC 2021-09-03T05:18:23-10:00 2021-09-03T04:18:23-11:00  21.31304 -157.88873     180   0.0 Hōkūleʻa
  2021-09-03T15:11:12UTC 2021-09-03T05:11:12-10:00 2021-09-03T04:11:12-11:00  21.31290 -157.88836     165   0.0 Hikianalia
  2021-09-03T14:18:45UTC 2021-09-03T04:18:45-10:00 2021-09-03T03:18:45-11:00  21.31305 -157.88873     180   0.0 Hōkūleʻa
  2021-09-03T14:10:50UTC 2021-09-03T04:10:50-10:00 2021-09-03T03:10:50-11:00  21.31297 -157.88838      17   0.0 Hikianalia
  2021-09-03T13:18:28UTC 2021-09-03T03:18:28-10:00 2021-09-03T02:18:28-11:00  21.31307 -157.88873      43   0.0 Hōkūleʻa
  2021-09-03T13:09:45UTC 2021-09-03T03:09:45-10:00 2021-09-03T02:09:45-11:00  21.31291 -157.88841     270   0.0 Hikianalia
  2021-09-03T12:18:30UTC 2021-09-03T02:18:30-10:00 2021-09-03T01:18:30-11:00  21.31305 -157.88875     212   0.0 Hōkūleʻa
  2021-09-03T12:12:09UTC 2021-09-03T02:12:09-10:00 2021-09-03T01:12:09-11:00  21.31291 -157.88836       0   0.0 Hikianalia
  2021-09-03T11:18:21UTC 2021-09-03T01:18:21-10:00 2021-09-03T00:18:21-11:00  21.31308 -157.88873       0   0.0 Hōkūleʻa
  2021-09-03T11:11:16UTC 2021-09-03T01:11:16-10:00 2021-09-03T00:11:16-11:00  21.31291 -157.88836      94   0.0 Hikianalia
  2021-09-03T10:18:41UTC 2021-09-03T00:18:41-10:00 2021-09-02T23:18:41-11:00  21.31306 -157.88873     180   0.0 Hōkūleʻa
  2021-09-03T10:11:15UTC 2021-09-03T00:11:15-10:00 2021-09-02T23:11:15-11:00  21.31292 -157.88851     235   0.0 Hikianalia
  2021-09-03T09:18:34UTC 2021-09-02T23:18:34-10:00 2021-09-02T22:18:34-11:00  21.31307 -157.88873     180   0.0 Hōkūleʻa
  2021-09-03T08:18:31UTC 2021-09-02T22:18:31-10:00 2021-09-02T21:18:31-11:00  21.31308 -157.88873      62   0.0 Hōkūleʻa
  2021-09-03T08:10:44UTC 2021-09-02T22:10:44-10:00 2021-09-02T21:10:44-11:00  21.31296 -157.88845     261   0.0 Hikianalia
  2021-09-03T07:18:29UTC 2021-09-02T21:18:29-10:00 2021-09-02T20:18:29-11:00  21.31307 -157.88875     270   0.0 Hōkūleʻa
  2021-09-03T07:10:44UTC 2021-09-02T21:10:44-10:00 2021-09-02T20:10:44-11:00  21.31297 -157.88838     342   0.0 Hikianalia
  2021-09-03T06:17:46UTC 2021-09-02T20:17:46-10:00 2021-09-02T19:17:46-11:00  21.31307 -157.88873     180   0.0 Hōkūleʻa
  2021-09-03T06:11:08UTC 2021-09-02T20:11:08-10:00 2021-09-02T19:11:08-11:00  21.31291 -157.88836     162   0.0 Hikianalia
  2021-09-03T05:18:24UTC 2021-09-02T19:18:24-10:00 2021-09-02T18:18:24-11:00  21.31309 -157.88873      64   0.0 Hōkūleʻa
  2021-09-03T05:10:57UTC 2021-09-02T19:10:57-10:00 2021-09-02T18:10:57-11:00  21.31297 -157.88838     118   0.0 Hikianalia
  2021-09-03T04:18:32UTC 2021-09-02T18:18:32-10:00 2021-09-02T17:18:32-11:00  21.31308 -157.88875     270   0.0 Hōkūleʻa
  2021-09-03T04:10:40UTC 2021-09-02T18:10:40-10:00 2021-09-02T17:10:40-11:00  21.31300 -157.88845     314   0.0 Hikianalia
  2021-09-03T03:18:32UTC 2021-09-02T17:18:32-10:00 2021-09-02T16:18:32-11:00  21.31308 -157.88871      90   0.0 Hōkūleʻa
  2021-09-03T03:09:42UTC 2021-09-02T17:09:42-10:00 2021-09-02T16:09:42-11:00  21.31291 -157.88834     180   0.0 Hikianalia
  2021-09-03T02:25:41UTC 2021-09-02T16:25:41-10:00 2021-09-02T15:25:41-11:00  21.31295 -157.88834       0   0.0 Hikianalia
  2021-09-03T02:18:47UTC 2021-09-02T16:18:47-10:00 2021-09-02T15:18:47-11:00  21.31308 -157.88873     270   0.0 Hōkūleʻa
  2021-09-03T01:17:33UTC 2021-09-02T15:17:33-10:00 2021-09-02T14:17:33-11:00  21.31308 -157.88871      80   0.0 Hōkūleʻa
  2021-09-03T01:10:45UTC 2021-09-02T15:10:45-10:00 2021-09-02T14:10:45-11:00  21.31291 -157.88834      86   0.0 Hikianalia
  2021-09-03T00:18:33UTC 2021-09-02T14:18:33-10:00 2021-09-02T13:18:33-11:00  21.31307 -157.88877     242   0.0 Hōkūleʻa
  2021-09-03T00:09:46UTC 2021-09-02T14:09:46-10:00 2021-09-02T13:09:46-11:00  21.31290 -157.88849     264   0.0 Hikianalia
  2021-09-02T23:17:47UTC 2021-09-02T13:17:47-10:00 2021-09-02T12:17:47-11:00  21.31291 -157.88838     227   0.0 Hikianalia
  2021-09-02T23:17:21UTC 2021-09-02T13:17:21-10:00 2021-09-02T12:17:21-11:00  21.31309 -157.88873       0   0.0 Hōkūleʻa
  2021-09-02T22:17:42UTC 2021-09-02T12:17:42-10:00 2021-09-02T11:17:42-11:00  21.31306 -157.88873       0   0.0 Hōkūleʻa
  2021-09-02T22:10:40UTC 2021-09-02T12:10:40-10:00 2021-09-02T11:10:40-11:00  21.31298 -157.88830      48   0.0 Hikianalia
  2021-09-02T21:18:38UTC 2021-09-02T11:18:38-10:00 2021-09-02T10:18:38-11:00  21.31305 -157.88873       0   0.0 Hōkūleʻa
  2021-09-02T21:10:17UTC 2021-09-02T11:10:17-10:00 2021-09-02T10:10:17-11:00  21.31293 -157.88836     154   0.0 Hikianalia
  2021-09-02T20:19:48UTC 2021-09-02T10:19:48-10:00 2021-09-02T09:19:48-11:00  21.31297 -157.88838       0   0.0 Hikianalia
  2021-09-02T20:17:40UTC 2021-09-02T10:17:40-10:00 2021-09-02T09:17:40-11:00  21.31305 -157.88873     180   0.0 Hōkūleʻa
  2021-09-02T19:19:12UTC 2021-09-02T09:19:12-10:00 2021-09-02T08:19:12-11:00  21.31293 -157.88838     308   0.0 Hikianalia
  2021-09-02T19:18:33UTC 2021-09-02T09:18:33-10:00 2021-09-02T08:18:33-11:00  21.31306 -157.88873     180   0.0 Hōkūleʻa
  2021-09-02T18:18:48UTC 2021-09-02T08:18:48-10:00 2021-09-02T07:18:48-11:00  21.31308 -157.88873      75   0.0 Hōkūleʻa
  2021-09-02T18:11:11UTC 2021-09-02T08:11:11-10:00 2021-09-02T07:11:11-11:00  21.31290 -157.88834     119   0.0 Hikianalia
  2021-09-02T17:18:38UTC 2021-09-02T07:18:38-10:00 2021-09-02T06:18:38-11:00  21.31307 -157.88877       0   0.0 Hōkūleʻa
  2021-09-02T17:11:08UTC 2021-09-02T07:11:08-10:00 2021-09-02T06:11:08-11:00  21.31291 -157.88836     270   0.0 Hikianalia
  2021-09-02T16:28:29UTC 2021-09-02T06:28:29-10:00 2021-09-02T05:28:29-11:00  21.31307 -157.88877     328   0.0 Hōkūleʻa
  2021-09-02T16:10:45UTC 2021-09-02T06:10:45-10:00 2021-09-02T05:10:45-11:00  21.31291 -157.88834      90   0.0 Hikianalia
  2021-09-02T15:22:07UTC 2021-09-02T05:22:07-10:00 2021-09-02T04:22:07-11:00  21.31291 -157.88836     137   0.0 Hikianalia
  2021-09-02T15:18:31UTC 2021-09-02T05:18:31-10:00 2021-09-02T04:18:31-11:00  21.31304 -157.88875     213   0.0 Hōkūleʻa
  2021-09-02T14:18:46UTC 2021-09-02T04:18:46-10:00 2021-09-02T03:18:46-11:00  21.31307 -157.88873       0   0.0 Hōkūleʻa
  2021-09-02T14:11:25UTC 2021-09-02T04:11:25-10:00 2021-09-02T03:11:25-11:00  21.31306 -157.88851     317   0.0 Hikianalia
  2021-09-02T13:18:33UTC 2021-09-02T03:18:33-10:00 2021-09-02T02:18:33-11:00  21.31304 -157.88873     147   0.0 Hōkūleʻa
  2021-09-02T13:11:15UTC 2021-09-02T03:11:15-10:00 2021-09-02T02:11:15-11:00  21.31289 -157.88834     186   0.0 Hikianalia
  2021-09-02T12:18:24UTC 2021-09-02T02:18:24-10:00 2021-09-02T01:18:24-11:00  21.31307 -157.88875     242   0.0 Hōkūleʻa
  2021-09-02T12:10:45UTC 2021-09-02T02:10:45-10:00 2021-09-02T01:10:45-11:00  21.31308 -157.88832      34   0.0 Hikianalia
  2021-09-02T11:18:32UTC 2021-09-02T01:18:32-10:00 2021-09-02T00:18:32-11:00  21.31308 -157.88873      62   0.0 Hōkūleʻa
  2021-09-02T11:10:44UTC 2021-09-02T01:10:44-10:00 2021-09-02T00:10:44-11:00  21.31293 -157.88843     289   0.0 Hikianalia
  2021-09-02T10:17:37UTC 2021-09-02T00:17:37-10:00 2021-09-01T23:17:37-11:00  21.31307 -157.88875     148   0.0 Hōkūleʻa
  2021-09-02T10:11:15UTC 2021-09-02T00:11:15-10:00 2021-09-01T23:11:15-11:00  21.31291 -157.88836     299   0.0 Hikianalia
  2021-09-02T09:18:24UTC 2021-09-01T23:18:24-10:00 2021-09-01T22:18:24-11:00  21.31310 -157.88877     308   0.0 Hōkūleʻa
  2021-09-02T09:11:09UTC 2021-09-01T23:11:09-10:00 2021-09-01T22:11:09-11:00  21.31290 -157.88834     126   0.0 Hikianalia
  2021-09-02T08:18:21UTC 2021-09-01T22:18:21-10:00 2021-09-01T21:18:21-11:00  21.31307 -157.88873       0   0.0 Hōkūleʻa
  2021-09-02T08:10:42UTC 2021-09-01T22:10:42-10:00 2021-09-01T21:10:42-11:00  21.31294 -157.88841     276   0.0 Hikianalia
  2021-09-02T07:29:03UTC 2021-09-01T21:29:03-10:00 2021-09-01T20:29:03-11:00  21.31293 -157.88830     149   0.0 Hikianalia
  2021-09-02T07:18:42UTC 2021-09-01T21:18:42-10:00 2021-09-01T20:18:42-11:00  21.31307 -157.88873     223   0.0 Hōkūleʻa
  2021-09-02T06:18:41UTC 2021-09-01T20:18:41-10:00 2021-09-01T19:18:41-11:00  21.31309 -157.88871       0   0.0 Hōkūleʻa
  2021-09-02T06:10:08UTC 2021-09-01T20:10:08-10:00 2021-09-01T19:10:08-11:00  21.31296 -157.88832      99   0.0 Hikianalia
  2021-09-02T05:17:36UTC 2021-09-01T19:17:36-10:00 2021-09-01T18:17:36-11:00  21.31305 -157.88871       0   0.0 Hōkūleʻa
  2021-09-02T05:11:45UTC 2021-09-01T19:11:45-10:00 2021-09-01T18:11:45-11:00  21.31297 -157.88838       0   0.0 Hikianalia
  2021-09-02T04:21:59UTC 2021-09-01T18:21:59-10:00 2021-09-01T17:21:59-11:00  21.31293 -157.88838     255   0.0 Hikianalia
  2021-09-02T04:18:24UTC 2021-09-01T18:18:24-10:00 2021-09-01T17:18:24-11:00  21.31305 -157.88871     180   0.0 Hōkūleʻa
  2021-09-02T03:18:30UTC 2021-09-01T17:18:30-10:00 2021-09-01T16:18:30-11:00  21.31311 -157.88871      32   0.0 Hōkūleʻa
  2021-09-02T03:10:17UTC 2021-09-01T17:10:17-10:00 2021-09-01T16:10:17-11:00  21.31294 -157.88834     180   0.0 Hikianalia
  2021-09-02T02:18:48UTC 2021-09-01T16:18:48-10:00 2021-09-01T15:18:48-11:00  21.31308 -157.88873       0   0.0 Hōkūleʻa
  2021-09-02T02:11:08UTC 2021-09-01T16:11:08-10:00 2021-09-01T15:11:08-11:00  21.31295 -157.88834     118   0.0 Hikianalia
  2021-09-02T01:17:23UTC 2021-09-01T15:17:23-10:00 2021-09-01T14:17:23-11:00  21.31308 -157.88873       0   0.0 Hōkūleʻa
  2021-09-02T01:09:45UTC 2021-09-01T15:09:45-10:00 2021-09-01T14:09:45-11:00  21.31297 -157.88838     323   0.0 Hikianalia
  2021-09-02T00:18:24UTC 2021-09-01T14:18:24-10:00 2021-09-01T13:18:24-11:00  21.31308 -157.88873      75   0.0 Hōkūleʻa
  2021-09-02T00:11:05UTC 2021-09-01T14:11:05-10:00 2021-09-01T13:11:05-11:00  21.31292 -157.88834      86   0.0 Hikianalia
  2021-09-01T23:17:39UTC 2021-09-01T13:17:39-10:00 2021-09-01T12:17:39-11:00  21.31307 -157.88877     255   0.0 Hōkūleʻa
  2021-09-01T23:10:15UTC 2021-09-01T13:10:15-10:00 2021-09-01T12:10:15-11:00  21.31291 -157.88849     237   0.0 Hikianalia
  2021-09-01T22:17:41UTC 2021-09-01T12:17:41-10:00 2021-09-01T11:17:41-11:00  21.31308 -157.88873      90   0.0 Hōkūleʻa
  2021-09-01T22:10:56UTC 2021-09-01T12:10:56-10:00 2021-09-01T11:10:56-11:00  21.31297 -157.88838      43   0.0 Hikianalia
  2021-09-01T21:18:41UTC 2021-09-01T11:18:41-10:00 2021-09-01T10:18:41-11:00  21.31308 -157.88877     309   0.0 Hōkūleʻa
  2021-09-01T20:17:39UTC 2021-09-01T10:17:39-10:00 2021-09-01T09:17:39-11:00  21.31305 -157.88873     180   0.0 Hōkūleʻa
  2021-09-01T20:10:17UTC 2021-09-01T10:10:17-10:00 2021-09-01T09:10:17-11:00  21.31295 -157.88841     313   0.0 Hikianalia
  2021-09-01T19:18:34UTC 2021-09-01T09:18:34-10:00 2021-09-01T08:18:34-11:00  21.31307 -157.88873       0   0.0 Hōkūleʻa
  2021-09-01T19:10:46UTC 2021-09-01T09:10:46-10:00 2021-09-01T08:10:46-11:00  21.31288 -157.88832     128   0.0 Hikianalia
  2021-09-01T18:17:40UTC 2021-09-01T08:17:40-10:00 2021-09-01T07:17:40-11:00  21.31307 -157.88873       0   0.0 Hōkūleʻa
  2021-09-01T18:11:10UTC 2021-09-01T08:11:10-10:00 2021-09-01T07:11:10-11:00  21.31291 -157.88836     212   0.0 Hikianalia
  2021-09-01T17:18:36UTC 2021-09-01T07:18:36-10:00 2021-09-01T06:18:36-11:00  21.31305 -157.88873     180   0.0 Hōkūleʻa
  2021-09-01T17:10:42UTC 2021-09-01T07:10:42-10:00 2021-09-01T06:10:42-11:00  21.31294 -157.88834      32   0.0 Hikianalia
  2021-09-01T16:23:11UTC 2021-09-01T06:23:11-10:00 2021-09-01T05:23:11-11:00  21.31288 -157.88838       0   0.0 Hikianalia
  2021-09-01T16:18:32UTC 2021-09-01T06:18:32-10:00 2021-09-01T05:18:32-11:00  21.31308 -157.88873       0   0.0 Hōkūleʻa
  2021-09-01T15:18:30UTC 2021-09-01T05:18:30-10:00 2021-09-01T04:18:30-11:00  21.31307 -157.88873       0   0.0 Hōkūleʻa
  2021-09-01T15:10:55UTC 2021-09-01T05:10:55-10:00 2021-09-01T04:10:55-11:00  21.31284 -157.88838     180   0.0 Hikianalia
  2021-09-01T14:18:39UTC 2021-09-01T04:18:39-10:00 2021-09-01T03:18:39-11:00  21.31306 -157.88873     255   0.0 Hōkūleʻa
  2021-09-01T14:10:35UTC 2021-09-01T04:10:35-10:00 2021-09-01T03:10:35-11:00  21.31297 -157.88838     328   0.0 Hikianalia
  2021-09-01T13:18:34UTC 2021-09-01T03:18:34-10:00 2021-09-01T02:18:34-11:00  21.31307 -157.88868      62   0.0 Hōkūleʻa
  2021-09-01T13:10:13UTC 2021-09-01T03:10:13-10:00 2021-09-01T02:10:13-11:00  21.31291 -157.88834     142   0.0 Hikianalia
  2021-09-01T12:22:58UTC 2021-09-01T02:22:58-10:00 2021-09-01T01:22:58-11:00  21.31304 -157.88845     328   0.0 Hikianalia
  2021-09-01T12:18:33UTC 2021-09-01T02:18:33-10:00 2021-09-01T01:18:33-11:00  21.31306 -157.88871      90   0.0 Hōkūleʻa
  2021-09-01T11:19:31UTC 2021-09-01T01:19:31-10:00 2021-09-01T00:19:31-11:00  21.31294 -157.88838     298   0.0 Hikianalia
  2021-09-01T11:18:30UTC 2021-09-01T01:18:30-10:00 2021-09-01T00:18:30-11:00  21.31306 -157.88873     180   0.0 Hōkūleʻa
  2021-09-01T10:19:37UTC 2021-09-01T00:19:37-10:00 2021-08-31T23:19:37-11:00  21.31307 -157.88873       0   0.0 Hōkūleʻa
  2021-09-01T10:11:12UTC 2021-09-01T00:11:12-10:00 2021-08-31T23:11:12-11:00  21.31293 -157.88836     160   0.1 Hikianalia
  2021-09-01T09:18:41UTC 2021-08-31T23:18:41-10:00 2021-08-31T22:18:41-11:00  21.31306 -157.88873       0   0.0 Hōkūleʻa
  2021-09-01T09:10:40UTC 2021-08-31T23:10:40-10:00 2021-08-31T22:10:40-11:00  21.31518 -157.88924     345   0.2 Hikianalia
  2021-09-01T08:18:28UTC 2021-08-31T22:18:28-10:00 2021-08-31T21:18:28-11:00  21.31305 -157.88873     180   0.0 Hōkūleʻa
  2021-09-01T08:11:15UTC 2021-08-31T22:11:15-10:00 2021-08-31T21:11:15-11:00  21.31264 -157.88849       0   0.0 Hikianalia
  2021-09-01T07:17:32UTC 2021-08-31T21:17:32-10:00 2021-08-31T20:17:32-11:00  21.31306 -157.88873     222   0.0 Hōkūleʻa
  2021-09-01T07:10:55UTC 2021-08-31T21:10:55-10:00 2021-08-31T20:10:55-11:00  21.31264 -157.88849       0   0.0 Hikianalia
  2021-09-01T06:22:33UTC 2021-08-31T20:22:33-10:00 2021-08-31T19:22:33-11:00  21.31264 -157.88849      59   0.0 Hikianalia
  2021-09-01T06:18:40UTC 2021-08-31T20:18:40-10:00 2021-08-31T19:18:40-11:00  21.31308 -157.88871      47   0.0 Hōkūleʻa
  2021-09-01T04:18:32UTC 2021-08-31T18:18:32-10:00 2021-08-31T17:18:32-11:00  21.31300 -157.88879     149   0.0 Hōkūleʻa
  2021-09-01T04:11:20UTC 2021-08-31T18:11:20-10:00 2021-08-31T17:11:20-11:00  21.31198 -157.88967      47   0.5 Hikianalia
  2021-09-01T03:18:22UTC 2021-08-31T17:18:22-10:00 2021-08-31T16:18:22-11:00  21.31304 -157.88881       0   0.0 Hōkūleʻa
  2021-09-01T03:10:51UTC 2021-08-31T17:10:51-10:00 2021-08-31T16:10:51-11:00  21.30658 -157.89594     226   0.6 Hikianalia
  2021-09-01T02:17:37UTC 2021-08-31T16:17:37-10:00 2021-08-31T15:17:37-11:00  21.31303 -157.88881     137   0.0 Hōkūleʻa
  2021-09-01T02:10:43UTC 2021-08-31T16:10:43-10:00 2021-08-31T15:10:43-11:00  21.31313 -157.88862     118   0.0 Hikianalia
  2021-09-01T01:18:33UTC 2021-08-31T15:18:33-10:00 2021-08-31T14:18:33-11:00  21.31305 -157.88883     317   0.0 Hōkūleʻa
  2021-09-01T01:10:48UTC 2021-08-31T15:10:48-10:00 2021-08-31T14:10:48-11:00  21.31319 -157.88873     308   0.0 Hikianalia
  2021-09-01T00:18:31UTC 2021-08-31T14:18:31-10:00 2021-08-31T13:18:31-11:00  21.31303 -157.88881      90   0.0 Hōkūleʻa
  2021-09-01T00:11:17UTC 2021-08-31T14:11:17-10:00 2021-08-31T13:11:17-11:00  21.31312 -157.88864       7   0.0 Hikianalia
  2021-08-31T23:17:22UTC 2021-08-31T13:17:22-10:00 2021-08-31T12:17:22-11:00  21.31303 -157.88883       0   0.0 Hōkūleʻa
  2021-08-31T23:09:35UTC 2021-08-31T13:09:35-10:00 2021-08-31T12:09:35-11:00  21.31295 -157.88866     192   0.0 Hikianalia
  2021-08-31T22:17:46UTC 2021-08-31T12:17:46-10:00 2021-08-31T11:17:46-11:00  21.31302 -157.88883     280   0.0 Hōkūleʻa
  2021-08-31T22:10:39UTC 2021-08-31T12:10:39-10:00 2021-08-31T11:10:39-11:00  21.31313 -157.88862     303   0.0 Hikianalia
  2021-08-31T21:18:30UTC 2021-08-31T11:18:30-10:00 2021-08-31T10:18:30-11:00  21.31300 -157.88877     100   0.0 Hōkūleʻa
  2021-08-31T21:10:46UTC 2021-08-31T11:10:46-10:00 2021-08-31T10:10:46-11:00  21.31307 -157.88851     113   0.0 Hikianalia
  2021-08-31T20:17:21UTC 2021-08-31T10:17:21-10:00 2021-08-31T09:17:21-11:00  21.31302 -157.88883     180   0.0 Hōkūleʻa
  2021-08-31T20:10:18UTC 2021-08-31T10:10:18-10:00 2021-08-31T09:10:18-11:00  21.31311 -157.88862     100   0.0 Hikianalia
  2021-08-31T19:18:27UTC 2021-08-31T09:18:27-10:00 2021-08-31T08:18:27-11:00  21.31303 -157.88883     299   0.0 Hōkūleʻa
  2021-08-31T19:10:48UTC 2021-08-31T09:10:48-10:00 2021-08-31T08:10:48-11:00  21.31312 -157.88868     294   0.0 Hikianalia
  2021-08-31T18:20:39UTC 2021-08-31T08:20:39-10:00 2021-08-31T07:20:39-11:00  21.31307 -157.88856      90   0.0 Hikianalia
  2021-08-31T18:18:48UTC 2021-08-31T08:18:48-10:00 2021-08-31T07:18:48-11:00  21.31302 -157.88881      90   0.0 Hōkūleʻa
  2021-08-31T17:18:32UTC 2021-08-31T07:18:32-10:00 2021-08-31T06:18:32-11:00  21.31302 -157.88883     222   0.0 Hōkūleʻa
  2021-08-31T17:09:46UTC 2021-08-31T07:09:46-10:00 2021-08-31T06:09:46-11:00  21.31307 -157.88862     180   0.0 Hikianalia
  2021-08-31T16:18:34UTC 2021-08-31T06:18:34-10:00 2021-08-31T05:18:34-11:00  21.31304 -157.88881      61   0.0 Hōkūleʻa
  2021-08-31T16:11:07UTC 2021-08-31T06:11:07-10:00 2021-08-31T05:11:07-11:00  21.31310 -157.88862     180   0.0 Hikianalia
  2021-08-31T15:19:31UTC 2021-08-31T05:19:31-10:00 2021-08-31T04:19:31-11:00  21.31303 -157.88883     299   0.0 Hōkūleʻa
  2021-08-31T15:10:38UTC 2021-08-31T05:10:38-10:00 2021-08-31T04:10:38-11:00  21.31327 -157.88862      34   0.0 Hikianalia
  2021-08-31T14:18:47UTC 2021-08-31T04:18:47-10:00 2021-08-31T03:18:47-11:00  21.31302 -157.88881      43   0.0 Hōkūleʻa
  2021-08-31T14:10:43UTC 2021-08-31T04:10:43-10:00 2021-08-31T03:10:43-11:00  21.31312 -157.88873     304   0.0 Hikianalia
  2021-08-31T13:18:48UTC 2021-08-31T03:18:48-10:00 2021-08-31T02:18:48-11:00  21.31307 -157.88864     180   0.0 Hikianalia
  2021-08-31T13:17:37UTC 2021-08-31T03:17:37-10:00 2021-08-31T02:17:37-11:00  21.31299 -157.88883       0   0.0 Hōkūleʻa
  2021-08-31T12:18:23UTC 2021-08-31T02:18:23-10:00 2021-08-31T01:18:23-11:00  21.31299 -157.88883     180   0.0 Hōkūleʻa
  2021-08-31T12:11:04UTC 2021-08-31T02:11:04-10:00 2021-08-31T01:11:04-11:00  21.31310 -157.88864     266   0.0 Hikianalia
  2021-08-31T11:18:23UTC 2021-08-31T01:18:23-10:00 2021-08-31T00:18:23-11:00  21.31303 -157.88883       0   0.0 Hōkūleʻa
  2021-08-31T11:10:40UTC 2021-08-31T01:10:40-10:00 2021-08-31T00:10:40-11:00  21.31311 -157.88849     101   0.0 Hikianalia
  2021-08-31T10:18:41UTC 2021-08-31T00:18:41-10:00 2021-08-30T23:18:41-11:00  21.31302 -157.88883     180   0.0 Hōkūleʻa
  2021-08-31T10:16:34UTC 2021-08-31T00:16:34-10:00 2021-08-30T23:16:34-11:00  21.31314 -157.88866     316   0.0 Hikianalia
  2021-08-31T09:18:38UTC 2021-08-30T23:18:38-10:00 2021-08-30T22:18:38-11:00  21.31303 -157.88883     299   0.0 Hōkūleʻa
  2021-08-31T09:10:47UTC 2021-08-30T23:10:47-10:00 2021-08-30T22:10:47-11:00  21.31308 -157.88860     147   0.0 Hikianalia
  2021-08-31T08:18:37UTC 2021-08-30T22:18:37-10:00 2021-08-30T21:18:37-11:00  21.31302 -157.88881       0   0.0 Hōkūleʻa
  2021-08-31T08:11:11UTC 2021-08-30T22:11:11-10:00 2021-08-30T21:11:11-11:00  21.31311 -157.88862       0   0.0 Hikianalia
  2021-08-31T07:18:33UTC 2021-08-30T21:18:33-10:00 2021-08-30T20:18:33-11:00  21.31302 -157.88881       0   0.0 Hōkūleʻa
  2021-08-31T07:10:48UTC 2021-08-30T21:10:48-10:00 2021-08-30T20:10:48-11:00  21.31310 -157.88862     180   0.0 Hikianalia
  2021-08-31T06:18:49UTC 2021-08-30T20:18:49-10:00 2021-08-30T19:18:49-11:00  21.31302 -157.88881     299   0.0 Hōkūleʻa
  2021-08-31T06:10:45UTC 2021-08-30T20:10:45-10:00 2021-08-30T19:10:45-11:00  21.31312 -157.88862       0   0.0 Hikianalia
  2021-08-31T05:18:36UTC 2021-08-30T19:18:36-10:00 2021-08-30T18:18:36-11:00  21.31300 -157.88879       0   0.0 Hōkūleʻa
  2021-08-31T05:11:16UTC 2021-08-30T19:11:16-10:00 2021-08-30T18:11:16-11:00  21.31310 -157.88862       0   0.0 Hikianalia
  2021-08-31T04:18:26UTC 2021-08-30T18:18:26-10:00 2021-08-30T17:18:26-11:00  21.31300 -157.88879      90   0.0 Hōkūleʻa
  2021-08-31T04:17:34UTC 2021-08-30T18:17:34-10:00 2021-08-30T17:17:34-11:00  21.31310 -157.88862     180   0.0 Hikianalia
  2021-08-31T03:17:32UTC 2021-08-30T17:17:32-10:00 2021-08-30T16:17:32-11:00  21.31300 -157.88881     119   0.0 Hōkūleʻa
  2021-08-31T03:10:43UTC 2021-08-30T17:10:43-10:00 2021-08-30T16:10:43-11:00  21.31313 -157.88862     316   0.0 Hikianalia
  2021-08-31T02:22:03UTC 2021-08-30T16:22:03-10:00 2021-08-30T15:22:03-11:00  21.31311 -157.88860     136   0.0 Hikianalia
  2021-08-31T02:18:43UTC 2021-08-30T16:18:43-10:00 2021-08-30T15:18:43-11:00  21.31302 -157.88883      90   0.0 Hōkūleʻa
  2021-08-31T01:17:34UTC 2021-08-30T15:17:34-10:00 2021-08-30T14:17:34-11:00  21.31302 -157.88898     278   0.0 Hōkūleʻa
  2021-08-31T01:09:48UTC 2021-08-30T15:09:48-10:00 2021-08-30T14:09:48-11:00  21.31313 -157.88862       0   0.0 Hikianalia
  2021-08-31T00:17:33UTC 2021-08-30T14:17:33-10:00 2021-08-30T13:17:33-11:00  21.31299 -157.88883     180   0.0 Hōkūleʻa
  2021-08-31T00:10:38UTC 2021-08-30T14:10:38-10:00 2021-08-30T13:10:38-11:00  21.31313 -157.88862       0   0.0 Hikianalia
  2021-08-30T23:18:23UTC 2021-08-30T13:18:23-10:00 2021-08-30T12:18:23-11:00  21.31300 -157.88883     180   0.0 Hōkūleʻa
  2021-08-30T23:10:49UTC 2021-08-30T13:10:49-10:00 2021-08-30T12:10:49-11:00  21.31313 -157.88862       0   0.0 Hikianalia
  2021-08-30T22:25:04UTC 2021-08-30T12:25:04-10:00 2021-08-30T11:25:04-11:00  21.31303 -157.88883     118   0.0 Hōkūleʻa
  2021-08-30T22:10:14UTC 2021-08-30T12:10:14-10:00 2021-08-30T11:10:14-11:00  21.31310 -157.88862     180   0.0 Hikianalia
  2021-08-30T21:17:38UTC 2021-08-30T11:17:38-10:00 2021-08-30T10:17:38-11:00  21.31304 -157.88886     298   0.0 Hōkūleʻa
  2021-08-30T21:11:16UTC 2021-08-30T11:11:16-10:00 2021-08-30T10:11:16-11:00  21.31313 -157.88862       0   0.0 Hikianalia
  2021-08-30T20:18:32UTC 2021-08-30T10:18:32-10:00 2021-08-30T09:18:32-11:00  21.31303 -157.88883       0   0.0 Hōkūleʻa
  2021-08-30T20:10:48UTC 2021-08-30T10:10:48-10:00 2021-08-30T09:10:48-11:00  21.31313 -157.88862      32   0.0 Hikianalia
  2021-08-30T19:18:45UTC 2021-08-30T09:18:45-10:00 2021-08-30T08:18:45-11:00  21.31303 -157.88883       0   0.0 Hōkūleʻa
  2021-08-30T19:09:46UTC 2021-08-30T09:09:46-10:00 2021-08-30T08:09:46-11:00  21.31304 -157.88868     223   0.0 Hikianalia
  2021-08-30T18:17:48UTC 2021-08-30T08:17:48-10:00 2021-08-30T07:17:48-11:00  21.31303 -157.88883       0   0.0 Hōkūleʻa
  2021-08-30T18:11:15UTC 2021-08-30T08:11:15-10:00 2021-08-30T07:11:15-11:00  21.31310 -157.88862     105   0.0 Hikianalia
  2021-08-30T17:18:30UTC 2021-08-30T07:18:30-10:00 2021-08-30T06:18:30-11:00  21.31302 -157.88883       0   0.0 Hōkūleʻa
  2021-08-30T17:10:57UTC 2021-08-30T07:10:57-10:00 2021-08-30T06:10:57-11:00  21.31311 -157.88866       0   0.0 Hikianalia
  2021-08-30T16:18:24UTC 2021-08-30T06:18:24-10:00 2021-08-30T05:18:24-11:00  21.31302 -157.88883       0   0.0 Hōkūleʻa
  2021-08-30T16:11:17UTC 2021-08-30T06:11:17-10:00 2021-08-30T05:11:17-11:00  21.31311 -157.88866     335   0.0 Hikianalia
  2021-08-30T15:18:22UTC 2021-08-30T05:18:22-10:00 2021-08-30T04:18:22-11:00  21.31300 -157.88883       0   0.0 Hōkūleʻa
  2021-08-30T15:10:47UTC 2021-08-30T05:10:47-10:00 2021-08-30T04:10:47-11:00  21.31298 -157.88860     163   0.0 Hikianalia
  2021-08-30T14:18:47UTC 2021-08-30T04:18:47-10:00 2021-08-30T03:18:47-11:00  21.31300 -157.88883      90   0.0 Hōkūleʻa
  2021-08-30T14:11:14UTC 2021-08-30T04:11:14-10:00 2021-08-30T03:11:14-11:00  21.31311 -157.88864       0   0.0 Hikianalia
  2021-08-30T13:17:32UTC 2021-08-30T03:17:32-10:00 2021-08-30T02:17:32-11:00  21.31300 -157.88886     223   0.0 Hōkūleʻa
  2021-08-30T13:10:40UTC 2021-08-30T03:10:40-10:00 2021-08-30T02:10:40-11:00  21.31311 -157.88864     234   0.0 Hikianalia
  2021-08-30T12:18:24UTC 2021-08-30T02:18:24-10:00 2021-08-30T01:18:24-11:00  21.31303 -157.88883     299   0.0 Hōkūleʻa
  2021-08-30T12:09:37UTC 2021-08-30T02:09:37-10:00 2021-08-30T01:09:37-11:00  21.31315 -157.88858     180   0.0 Hikianalia
  2021-08-30T11:18:32UTC 2021-08-30T01:18:32-10:00 2021-08-30T00:18:32-11:00  21.31302 -157.88881     119   0.0 Hōkūleʻa
  2021-08-30T11:10:36UTC 2021-08-30T01:10:36-10:00 2021-08-30T00:10:36-11:00  21.31317 -157.88858      37   0.0 Hikianalia
  2021-08-30T10:18:50UTC 2021-08-30T00:18:50-10:00 2021-08-29T23:18:50-11:00  21.31303 -157.88883     180   0.0 Hōkūleʻa
  2021-08-30T10:11:11UTC 2021-08-30T00:11:11-10:00 2021-08-29T23:11:11-11:00  21.31311 -157.88862     180   0.0 Hikianalia
  2021-08-30T09:18:29UTC 2021-08-29T23:18:29-10:00 2021-08-29T22:18:29-11:00  21.31304 -157.88883     317   0.0 Hōkūleʻa
  2021-08-30T09:10:39UTC 2021-08-29T23:10:39-10:00 2021-08-29T22:10:39-11:00  21.31313 -157.88862       0   0.0 Hikianalia
  2021-08-30T08:18:23UTC 2021-08-29T22:18:23-10:00 2021-08-29T21:18:23-11:00  21.31297 -157.88877     154   0.0 Hōkūleʻa
  2021-08-30T08:10:42UTC 2021-08-29T22:10:42-10:00 2021-08-29T21:10:42-11:00  21.31313 -157.88862     296   0.0 Hikianalia
  2021-08-30T07:17:24UTC 2021-08-29T21:17:24-10:00 2021-08-29T20:17:24-11:00  21.31302 -157.88879     119   0.0 Hōkūleʻa
  2021-08-30T07:11:21UTC 2021-08-29T21:11:21-10:00 2021-08-29T20:11:21-11:00  21.31312 -157.88860     172   0.2 Hikianalia
  2021-08-30T06:18:40UTC 2021-08-29T20:18:40-10:00 2021-08-29T19:18:40-11:00  21.31303 -157.88881     137   0.0 Hōkūleʻa
  2021-08-30T06:09:45UTC 2021-08-29T20:09:45-10:00 2021-08-29T19:09:45-11:00  21.31627 -157.88907      55   0.1 Hikianalia
  2021-08-30T05:18:21UTC 2021-08-29T19:18:21-10:00 2021-08-29T18:18:21-11:00  21.31309 -157.88888     313   0.0 Hōkūleʻa
  2021-08-30T05:10:43UTC 2021-08-29T19:10:43-10:00 2021-08-29T18:10:43-11:00  21.31558 -157.89010     331   0.2 Hikianalia
  2021-08-30T04:18:30UTC 2021-08-29T18:18:30-10:00 2021-08-29T17:18:30-11:00  21.31302 -157.88879     119   0.0 Hōkūleʻa
  2021-08-30T04:11:12UTC 2021-08-29T18:11:12-10:00 2021-08-29T17:11:12-11:00  21.31311 -157.88862       0   0.0 Hikianalia
  2021-08-30T03:18:31UTC 2021-08-29T17:18:31-10:00 2021-08-29T16:18:31-11:00  21.31303 -157.88881       0   0.0 Hōkūleʻa
  2021-08-30T03:09:45UTC 2021-08-29T17:09:45-10:00 2021-08-29T16:09:45-11:00  21.31311 -157.88862       0   0.0 Hikianalia
  2021-08-30T02:17:47UTC 2021-08-29T16:17:47-10:00 2021-08-29T15:17:47-11:00  21.31302 -157.88881     119   0.0 Hōkūleʻa
  2021-08-30T02:10:36UTC 2021-08-29T16:10:36-10:00 2021-08-29T15:10:36-11:00  21.31311 -157.88862       0   0.0 Hikianalia
  2021-08-30T01:17:37UTC 2021-08-29T15:17:37-10:00 2021-08-29T14:17:37-11:00  21.31303 -157.88883     105   0.0 Hōkūleʻa
  2021-08-30T01:10:46UTC 2021-08-29T15:10:46-10:00 2021-08-29T14:10:46-11:00  21.31311 -157.88862     270   0.0 Hikianalia
  2021-08-30T00:18:25UTC 2021-08-29T14:18:25-10:00 2021-08-29T13:18:25-11:00  21.31304 -157.88888     285   0.0 Hōkūleʻa
  2021-08-30T00:10:12UTC 2021-08-29T14:10:12-10:00 2021-08-29T13:10:12-11:00  21.31311 -157.88860      90   0.0 Hikianalia
  2021-08-29T23:23:04UTC 2021-08-29T13:23:04-10:00 2021-08-29T12:23:04-11:00  21.31303 -157.88883     270   0.0 Hōkūleʻa
  2021-08-29T23:09:45UTC 2021-08-29T13:09:45-10:00 2021-08-29T12:09:45-11:00  21.31311 -157.88862       0   0.0 Hikianalia
  2021-08-29T22:18:49UTC 2021-08-29T12:18:49-10:00 2021-08-29T11:18:49-11:00  21.31303 -157.88881       0   0.0 Hōkūleʻa
  2021-08-29T22:10:45UTC 2021-08-29T12:10:45-10:00 2021-08-29T11:10:45-11:00  21.31311 -157.88862     118   0.0 Hikianalia
  2021-08-29T21:17:32UTC 2021-08-29T11:17:32-10:00 2021-08-29T10:17:32-11:00  21.31300 -157.88881     138   0.0 Hōkūleʻa
  2021-08-29T21:09:44UTC 2021-08-29T11:09:44-10:00 2021-08-29T10:09:44-11:00  21.31317 -157.88873     298   0.0 Hikianalia
  2021-08-29T20:17:30UTC 2021-08-29T10:17:30-10:00 2021-08-29T09:17:30-11:00  21.31303 -157.88883       0   0.0 Hōkūleʻa
  2021-08-29T20:10:10UTC 2021-08-29T10:10:10-10:00 2021-08-29T09:10:10-11:00  21.31311 -157.88862      84   0.0 Hikianalia
  2021-08-29T19:18:26UTC 2021-08-29T09:18:26-10:00 2021-08-29T08:18:26-11:00  21.31302 -157.88883     270   0.0 Hōkūleʻa
  2021-08-29T19:10:40UTC 2021-08-29T09:10:40-10:00 2021-08-29T08:10:40-11:00  21.31310 -157.88873     242   0.0 Hikianalia
  2021-08-29T18:17:50UTC 2021-08-29T08:17:50-10:00 2021-08-29T07:17:50-11:00  21.31302 -157.88881      90   0.0 Hōkūleʻa
  2021-08-29T18:10:56UTC 2021-08-29T08:10:56-10:00 2021-08-29T07:10:56-11:00  21.31314 -157.88864     270   0.0 Hikianalia
  2021-08-29T17:18:29UTC 2021-08-29T07:18:29-10:00 2021-08-29T06:18:29-11:00  21.31302 -157.88886       0   0.0 Hōkūleʻa
  2021-08-29T17:10:42UTC 2021-08-29T07:10:42-10:00 2021-08-29T06:10:42-11:00  21.31314 -157.88862      20   0.0 Hikianalia
  2021-08-29T16:18:32UTC 2021-08-29T06:18:32-10:00 2021-08-29T05:18:32-11:00  21.31300 -157.88886     242   0.0 Hōkūleʻa
  2021-08-29T16:10:15UTC 2021-08-29T06:10:15-10:00 2021-08-29T05:10:15-11:00  21.31309 -157.88864       0   0.0 Hikianalia
  2021-08-29T15:24:54UTC 2021-08-29T05:24:54-10:00 2021-08-29T04:24:54-11:00  21.31302 -157.88883     299   0.0 Hōkūleʻa
  2021-08-29T15:10:37UTC 2021-08-29T05:10:37-10:00 2021-08-29T04:10:37-11:00  21.31304 -157.88864     205   0.0 Hikianalia
  2021-08-29T14:18:39UTC 2021-08-29T04:18:39-10:00 2021-08-29T03:18:39-11:00  21.31300 -157.88881      90   0.0 Hōkūleʻa
  2021-08-29T14:11:44UTC 2021-08-29T04:11:44-10:00 2021-08-29T03:11:44-11:00  21.31308 -157.88862       0   0.0 Hikianalia
  2021-08-29T13:18:34UTC 2021-08-29T03:18:34-10:00 2021-08-29T02:18:34-11:00  21.31300 -157.88883     180   0.0 Hōkūleʻa
  2021-08-29T13:10:47UTC 2021-08-29T03:10:47-10:00 2021-08-29T02:10:47-11:00  21.31308 -157.88862     180   0.0 Hikianalia
  2021-08-29T12:18:24UTC 2021-08-29T02:18:24-10:00 2021-08-29T01:18:24-11:00  21.31304 -157.88883       0   0.0 Hōkūleʻa
  2021-08-29T12:11:19UTC 2021-08-29T02:11:19-10:00 2021-08-29T01:11:19-11:00  21.31312 -157.88862     100   0.0 Hikianalia
  2021-08-29T11:18:29UTC 2021-08-29T01:18:29-10:00 2021-08-29T00:18:29-11:00  21.31303 -157.88883     180   0.0 Hōkūleʻa
  2021-08-29T11:09:45UTC 2021-08-29T01:09:45-10:00 2021-08-29T00:09:45-11:00  21.31314 -157.88875     285   0.0 Hikianalia
  2021-08-29T10:18:43UTC 2021-08-29T00:18:43-10:00 2021-08-28T23:18:43-11:00  21.31304 -157.88883     310   0.0 Hōkūleʻa
  2021-08-29T10:10:38UTC 2021-08-29T00:10:38-10:00 2021-08-28T23:10:38-11:00  21.31311 -157.88862     180   0.0 Hikianalia
  2021-08-29T09:18:31UTC 2021-08-28T23:18:31-10:00 2021-08-28T22:18:31-11:00  21.31300 -157.88879      90   0.0 Hōkūleʻa
  2021-08-29T09:10:43UTC 2021-08-28T23:10:43-10:00 2021-08-28T22:10:43-11:00  21.31313 -157.88862       0   0.0 Hikianalia
  2021-08-29T08:18:33UTC 2021-08-28T22:18:33-10:00 2021-08-28T21:18:33-11:00  21.31300 -157.88881     180   0.0 Hōkūleʻa
  2021-08-29T08:11:06UTC 2021-08-28T22:11:06-10:00 2021-08-28T21:11:06-11:00  21.31311 -157.88862     180   0.0 Hikianalia
  2021-08-29T07:18:34UTC 2021-08-28T21:18:34-10:00 2021-08-28T20:18:34-11:00  21.31303 -157.88881     270   0.0 Hōkūleʻa
  2021-08-29T07:10:46UTC 2021-08-28T21:10:46-10:00 2021-08-28T20:10:46-11:00  21.31313 -157.88862     351   0.0 Hikianalia
  2021-08-29T06:17:49UTC 2021-08-28T20:17:49-10:00 2021-08-28T19:17:49-11:00  21.31303 -157.88879      20   2.5 Hōkūleʻa
  2021-08-29T06:10:47UTC 2021-08-28T20:10:47-10:00 2021-08-28T19:10:47-11:00  21.31300 -157.88860     191   0.0 Hikianalia
  2021-08-29T05:18:29UTC 2021-08-28T19:18:29-10:00 2021-08-28T18:18:29-11:00  21.27344 -157.90381     329   6.7 Hōkūleʻa
  2021-08-29T05:11:16UTC 2021-08-28T19:11:16-10:00 2021-08-28T18:11:16-11:00  21.31310 -157.88858     191   0.0 Hikianalia
  2021-08-29T04:18:40UTC 2021-08-28T18:18:40-10:00 2021-08-28T17:18:40-11:00  21.17874 -157.84214     171   5.2 Hōkūleʻa
  2021-08-29T04:10:40UTC 2021-08-28T18:10:40-10:00 2021-08-28T17:10:40-11:00  21.31320 -157.88856      36   0.0 Hikianalia
  2021-08-29T03:18:39UTC 2021-08-28T17:18:39-10:00 2021-08-28T16:18:39-11:00  21.26465 -157.85744     149   3.3 Hōkūleʻa
  2021-08-29T03:09:49UTC 2021-08-28T17:09:49-10:00 2021-08-28T16:09:49-11:00  21.31306 -157.88866     235   0.0 Hikianalia
  2021-08-29T02:17:38UTC 2021-08-28T16:17:38-10:00 2021-08-28T15:17:38-11:00  21.31300 -157.88877     137   0.0 Hōkūleʻa
  2021-08-29T02:10:09UTC 2021-08-28T16:10:09-10:00 2021-08-28T15:10:09-11:00  21.31310 -157.88860     298   0.0 Hikianalia
  2021-08-29T01:18:32UTC 2021-08-28T15:18:32-10:00 2021-08-28T14:18:32-11:00  21.31305 -157.88881     119   0.0 Hōkūleʻa
  2021-08-29T01:10:38UTC 2021-08-28T15:10:38-10:00 2021-08-28T14:10:38-11:00  21.31305 -157.88849     167   0.0 Hikianalia
  2021-08-29T00:17:32UTC 2021-08-28T14:17:32-10:00 2021-08-28T13:17:32-11:00  21.31306 -157.88883     286   0.0 Hōkūleʻa
  2021-08-29T00:10:46UTC 2021-08-28T14:10:46-10:00 2021-08-28T13:10:46-11:00  21.31313 -157.88851     102   0.0 Hikianalia
  2021-08-28T23:18:31UTC 2021-08-28T13:18:31-10:00 2021-08-28T12:18:31-11:00  21.31305 -157.88879      32   0.0 Hōkūleʻa
  2021-08-28T23:10:16UTC 2021-08-28T13:10:16-10:00 2021-08-28T12:10:16-11:00  21.31315 -157.88862     180   0.0 Hikianalia
  2021-08-28T22:17:48UTC 2021-08-28T12:17:48-10:00 2021-08-28T11:17:48-11:00  21.31302 -157.88881     148   0.0 Hōkūleʻa
  2021-08-28T22:10:49UTC 2021-08-28T12:10:49-10:00 2021-08-28T11:10:49-11:00  21.31320 -157.88862       0   0.0 Hikianalia
  2021-08-28T21:17:29UTC 2021-08-28T11:17:29-10:00 2021-08-28T10:17:29-11:00  21.31308 -157.88886      61   0.0 Hōkūleʻa
  2021-08-28T21:09:45UTC 2021-08-28T11:09:45-10:00 2021-08-28T10:09:45-11:00  21.31313 -157.88862     180   0.0 Hikianalia
  2021-08-28T20:17:22UTC 2021-08-28T10:17:22-10:00 2021-08-28T09:17:22-11:00  21.31307 -157.88888     285   0.0 Hōkūleʻa
  2021-08-28T20:10:17UTC 2021-08-28T10:10:17-10:00 2021-08-28T09:10:17-11:00  21.31314 -157.88862       0   0.0 Hikianalia
  2021-08-28T19:18:24UTC 2021-08-28T09:18:24-10:00 2021-08-28T08:18:24-11:00  21.31306 -157.88883       0   0.0 Hōkūleʻa
  2021-08-28T19:10:39UTC 2021-08-28T09:10:39-10:00 2021-08-28T08:10:39-11:00  21.31311 -157.88862     285   0.0 Hikianalia
  2021-08-28T18:18:57UTC 2021-08-28T08:18:57-10:00 2021-08-28T07:18:57-11:00  21.31303 -157.88883      90   0.0 Hōkūleʻa
  2021-08-28T18:10:46UTC 2021-08-28T08:10:46-10:00 2021-08-28T07:10:46-11:00  21.31310 -157.88858     100   0.0 Hikianalia
  2021-08-28T17:17:35UTC 2021-08-28T07:17:35-10:00 2021-08-28T06:17:35-11:00  21.31303 -157.88886     251   0.0 Hōkūleʻa
  2021-08-28T17:10:45UTC 2021-08-28T07:10:45-10:00 2021-08-28T06:10:45-11:00  21.31311 -157.88864       0   0.0 Hikianalia
  2021-08-28T16:18:23UTC 2021-08-28T06:18:23-10:00 2021-08-28T05:18:23-11:00  21.31305 -157.88879      51   0.0 Hōkūleʻa
  2021-08-28T16:11:15UTC 2021-08-28T06:11:15-10:00 2021-08-28T05:11:15-11:00  21.31311 -157.88864     270   0.0 Hikianalia
  2021-08-28T15:18:24UTC 2021-08-28T05:18:24-10:00 2021-08-28T04:18:24-11:00  21.31302 -157.88883     270   0.0 Hōkūleʻa
  2021-08-28T15:10:38UTC 2021-08-28T05:10:38-10:00 2021-08-28T04:10:38-11:00  21.31311 -157.88856       0   0.0 Hikianalia
  2021-08-28T14:18:45UTC 2021-08-28T04:18:45-10:00 2021-08-28T03:18:45-11:00  21.31302 -157.88881     241   0.0 Hōkūleʻa
  2021-08-28T14:10:52UTC 2021-08-28T04:10:52-10:00 2021-08-28T03:10:52-11:00  21.31310 -157.88856      86   0.0 Hikianalia
  2021-08-28T13:17:26UTC 2021-08-28T03:17:26-10:00 2021-08-28T02:17:26-11:00  21.31303 -157.88879      90   0.0 Hōkūleʻa
  2021-08-28T13:09:37UTC 2021-08-28T03:09:37-10:00 2021-08-28T02:09:37-11:00  21.31309 -157.88873     252   0.0 Hikianalia
  2021-08-28T12:18:24UTC 2021-08-28T02:18:24-10:00 2021-08-28T01:18:24-11:00  21.31303 -157.88881       0   0.0 Hōkūleʻa
  2021-08-28T12:11:06UTC 2021-08-28T02:11:06-10:00 2021-08-28T01:11:06-11:00  21.31312 -157.88862      97   0.0 Hikianalia
  2021-08-28T11:18:32UTC 2021-08-28T01:18:32-10:00 2021-08-28T00:18:32-11:00  21.31303 -157.88881      61   0.0 Hōkūleʻa
  2021-08-28T11:10:40UTC 2021-08-28T01:10:40-10:00 2021-08-28T00:10:40-11:00  21.31313 -157.88871     260   0.0 Hikianalia
  2021-08-28T10:18:44UTC 2021-08-28T00:18:44-10:00 2021-08-27T23:18:44-11:00  21.31302 -157.88883     147   0.0 Hōkūleʻa
  2021-08-28T10:10:41UTC 2021-08-28T00:10:41-10:00 2021-08-27T23:10:41-11:00  21.31314 -157.88864     343   0.0 Hikianalia
  2021-08-28T09:18:33UTC 2021-08-27T23:18:33-10:00 2021-08-27T22:18:33-11:00  21.31305 -157.88886     298   0.0 Hōkūleʻa
  2021-08-28T09:11:46UTC 2021-08-27T23:11:46-10:00 2021-08-27T22:11:46-11:00  21.31308 -157.88862     180   0.0 Hikianalia
  2021-08-28T08:18:30UTC 2021-08-27T22:18:30-10:00 2021-08-27T21:18:30-11:00  21.31303 -157.88881       0   0.0 Hōkūleʻa
  2021-08-28T08:10:24UTC 2021-08-27T22:10:24-10:00 2021-08-27T21:10:24-11:00  21.31313 -157.88862     234   0.0 Hikianalia
  2021-08-28T07:18:23UTC 2021-08-27T21:18:23-10:00 2021-08-27T20:18:23-11:00  21.31303 -157.88881       0   0.0 Hōkūleʻa
  2021-08-28T07:11:39UTC 2021-08-27T21:11:39-10:00 2021-08-27T20:11:39-11:00  21.31318 -157.88856     351   0.0 Hikianalia
  2021-08-28T06:18:39UTC 2021-08-27T20:18:39-10:00 2021-08-27T19:18:39-11:00  21.31302 -157.88881     155   0.0 Hōkūleʻa
  2021-08-28T06:10:46UTC 2021-08-27T20:10:46-10:00 2021-08-27T19:10:46-11:00  21.31305 -157.88853     139   0.0 Hikianalia
  2021-08-28T05:21:28UTC 2021-08-27T19:21:28-10:00 2021-08-27T18:21:28-11:00  21.31319 -157.88866     328   0.0 Hikianalia
  2021-08-28T05:17:38UTC 2021-08-27T19:17:38-10:00 2021-08-27T18:17:38-11:00  21.31306 -157.88883       0   0.0 Hōkūleʻa
  2021-08-28T04:18:24UTC 2021-08-27T18:18:24-10:00 2021-08-27T17:18:24-11:00  21.31303 -157.88883     242   0.0 Hōkūleʻa
  2021-08-28T04:11:08UTC 2021-08-27T18:11:08-10:00 2021-08-27T17:11:08-11:00  21.31312 -157.88862       0   0.0 Hikianalia
  2021-08-28T03:18:28UTC 2021-08-27T17:18:28-10:00 2021-08-27T16:18:28-11:00  21.31305 -157.88879      62   0.0 Hōkūleʻa
  2021-08-28T03:10:46UTC 2021-08-27T17:10:46-10:00 2021-08-27T16:10:46-11:00  21.31311 -157.88862     341   0.0 Hikianalia
  2021-08-28T02:17:46UTC 2021-08-27T16:17:46-10:00 2021-08-27T15:17:46-11:00  21.31303 -157.88883     105   0.0 Hōkūleʻa
  2021-08-28T02:10:45UTC 2021-08-27T16:10:45-10:00 2021-08-27T15:10:45-11:00  21.31294 -157.88856     180   0.0 Hikianalia
  2021-08-28T01:18:32UTC 2021-08-27T15:18:32-10:00 2021-08-27T14:18:32-11:00  21.31304 -157.88888       0   0.0 Hōkūleʻa
  2021-08-28T01:09:49UTC 2021-08-27T15:09:49-10:00 2021-08-27T14:09:49-11:00  21.31312 -157.88856     102   0.0 Hikianalia
  2021-08-28T00:17:34UTC 2021-08-27T14:17:34-10:00 2021-08-27T13:17:34-11:00  21.31302 -157.88888     285   0.0 Hōkūleʻa
  2021-08-28T00:10:10UTC 2021-08-27T14:10:10-10:00 2021-08-27T13:10:10-11:00  21.31314 -157.88866       0   0.0 Hikianalia
  2021-08-27T23:17:23UTC 2021-08-27T13:17:23-10:00 2021-08-27T12:17:23-11:00  21.31300 -157.88883     180   0.0 Hōkūleʻa
  2021-08-27T23:10:44UTC 2021-08-27T13:10:44-10:00 2021-08-27T12:10:44-11:00  21.31313 -157.88866     270   0.0 Hikianalia
  2021-08-27T22:17:38UTC 2021-08-27T12:17:38-10:00 2021-08-27T11:17:38-11:00  21.31302 -157.88883      90   0.0 Hōkūleʻa
  2021-08-27T22:10:14UTC 2021-08-27T12:10:14-10:00 2021-08-27T11:10:14-11:00  21.31313 -157.88862       0   0.0 Hikianalia
  2021-08-27T21:18:51UTC 2021-08-27T11:18:51-10:00 2021-08-27T10:18:51-11:00  21.31311 -157.88862     242   0.0 Hikianalia
  2021-08-27T21:18:38UTC 2021-08-27T11:18:38-10:00 2021-08-27T10:18:38-11:00  21.31302 -157.88886     242   0.0 Hōkūleʻa
  2021-08-27T20:17:30UTC 2021-08-27T10:17:30-10:00 2021-08-27T09:17:30-11:00  21.31303 -157.88883     270   0.0 Hōkūleʻa
  2021-08-27T20:10:18UTC 2021-08-27T10:10:18-10:00 2021-08-27T09:10:18-11:00  21.31312 -157.88860     116   0.0 Hikianalia
  2021-08-27T19:18:30UTC 2021-08-27T09:18:30-10:00 2021-08-27T08:18:30-11:00  21.31303 -157.88881     119   0.0 Hōkūleʻa
  2021-08-27T19:17:18UTC 2021-08-27T09:17:18-10:00 2021-08-27T08:17:18-11:00  21.31313 -157.88862       0   0.0 Hikianalia
  2021-08-27T18:17:39UTC 2021-08-27T08:17:39-10:00 2021-08-27T07:17:39-11:00  21.31304 -157.88883     180   0.0 Hōkūleʻa
  2021-08-27T18:11:18UTC 2021-08-27T08:11:18-10:00 2021-08-27T07:11:18-11:00  21.31313 -157.88862       0   0.0 Hikianalia
  2021-08-27T17:18:27UTC 2021-08-27T07:18:27-10:00 2021-08-27T06:18:27-11:00  21.31305 -157.88883       0   0.0 Hōkūleʻa
  2021-08-27T17:11:02UTC 2021-08-27T07:11:02-10:00 2021-08-27T06:11:02-11:00  21.31311 -157.88862     137   0.0 Hikianalia
  2021-08-27T16:18:25UTC 2021-08-27T06:18:25-10:00 2021-08-27T05:18:25-11:00  21.31304 -157.88883       0   0.0 Hōkūleʻa
  2021-08-27T16:11:16UTC 2021-08-27T06:11:16-10:00 2021-08-27T05:11:16-11:00  21.31313 -157.88864     347   0.0 Hikianalia
  2021-08-27T15:18:32UTC 2021-08-27T05:18:32-10:00 2021-08-27T04:18:32-11:00  21.31304 -157.88883     180   0.0 Hōkūleʻa
  2021-08-27T15:10:46UTC 2021-08-27T05:10:46-10:00 2021-08-27T04:10:46-11:00  21.31305 -157.88862     163   0.0 Hikianalia
  2021-08-27T14:18:47UTC 2021-08-27T04:18:47-10:00 2021-08-27T03:18:47-11:00  21.31305 -157.88883     318   0.0 Hōkūleʻa
  2021-08-27T14:10:14UTC 2021-08-27T04:10:14-10:00 2021-08-27T03:10:14-11:00  21.31311 -157.88864     241   0.0 Hikianalia
  2021-08-27T13:18:42UTC 2021-08-27T03:18:42-10:00 2021-08-27T02:18:42-11:00  21.31300 -157.88879     138   0.0 Hōkūleʻa
  2021-08-27T13:10:50UTC 2021-08-27T03:10:50-10:00 2021-08-27T02:10:50-11:00  21.31312 -157.88862      61   0.0 Hikianalia
  2021-08-27T12:18:32UTC 2021-08-27T02:18:32-10:00 2021-08-27T01:18:32-11:00  21.31305 -157.88883       0   0.0 Hōkūleʻa
  2021-08-27T12:10:55UTC 2021-08-27T02:10:55-10:00 2021-08-27T01:10:55-11:00  21.31311 -157.88864     241   0.0 Hikianalia
  2021-08-27T11:18:28UTC 2021-08-27T01:18:28-10:00 2021-08-27T00:18:28-11:00  21.31305 -157.88883       0   0.0 Hōkūleʻa
  2021-08-27T11:11:18UTC 2021-08-27T01:11:18-10:00 2021-08-27T00:11:18-11:00  21.31312 -157.88862     134   0.1 Hikianalia
  2021-08-27T10:18:49UTC 2021-08-27T00:18:49-10:00 2021-08-26T23:18:49-11:00  21.31305 -157.88883       0   0.0 Hōkūleʻa
  2021-08-27T10:10:49UTC 2021-08-27T00:10:49-10:00 2021-08-26T23:10:49-11:00  21.31461 -157.89029     250   0.0 Hikianalia
  2021-08-27T09:32:19UTC 2021-08-26T23:32:19-10:00 2021-08-26T22:32:19-11:00  21.31479 -157.88978     327   0.1 Hikianalia
  2021-08-27T09:18:30UTC 2021-08-26T23:18:30-10:00 2021-08-26T22:18:30-11:00  21.31304 -157.88883       0   0.0 Hōkūleʻa
  2021-08-27T08:18:23UTC 2021-08-26T22:18:23-10:00 2021-08-26T21:18:23-11:00  21.31304 -157.88883     270   0.0 Hōkūleʻa
  2021-08-27T08:11:09UTC 2021-08-26T22:11:09-10:00 2021-08-26T21:11:09-11:00  21.31313 -157.88864       0   0.0 Hikianalia
  2021-08-27T07:18:32UTC 2021-08-26T21:18:32-10:00 2021-08-26T20:18:32-11:00  21.31304 -157.88881     180   0.0 Hōkūleʻa
  2021-08-27T07:10:47UTC 2021-08-26T21:10:47-10:00 2021-08-26T20:10:47-11:00  21.31312 -157.88864       0   0.0 Hikianalia
  2021-08-27T06:18:45UTC 2021-08-26T20:18:45-10:00 2021-08-26T19:18:45-11:00  21.31305 -157.88881     138   0.0 Hōkūleʻa
  2021-08-27T06:10:47UTC 2021-08-26T20:10:47-10:00 2021-08-26T19:10:47-11:00  21.31312 -157.88864       0   0.0 Hikianalia
  2021-08-27T05:18:35UTC 2021-08-26T19:18:35-10:00 2021-08-26T18:18:35-11:00  21.31307 -157.88883     318   0.0 Hōkūleʻa
  2021-08-27T05:10:35UTC 2021-08-26T19:10:35-10:00 2021-08-26T18:10:35-11:00  21.31312 -157.88864     243   0.0 Hikianalia
  2021-08-27T04:18:33UTC 2021-08-26T18:18:33-10:00 2021-08-26T17:18:33-11:00  21.31305 -157.88881     241   0.0 Hōkūleʻa
  2021-08-27T04:11:17UTC 2021-08-26T18:11:17-10:00 2021-08-26T17:11:17-11:00  21.31313 -157.88862     296   0.0 Hikianalia
  2021-08-27T03:18:29UTC 2021-08-26T17:18:29-10:00 2021-08-26T16:18:29-11:00  21.31306 -157.88879      43   0.0 Hōkūleʻa
  2021-08-27T03:09:54UTC 2021-08-26T17:09:54-10:00 2021-08-26T16:09:54-11:00  21.31312 -157.88860      90   0.0 Hikianalia
  2021-08-27T02:17:48UTC 2021-08-26T16:17:48-10:00 2021-08-26T15:17:48-11:00  21.31304 -157.88881      90   0.0 Hōkūleʻa
  2021-08-27T02:10:42UTC 2021-08-26T16:10:42-10:00 2021-08-26T15:10:42-11:00  21.31312 -157.88864       0   0.0 Hikianalia
  2021-08-27T01:18:38UTC 2021-08-26T15:18:38-10:00 2021-08-26T14:18:38-11:00  21.31304 -157.88888     116   0.0 Hōkūleʻa
  2021-08-27T01:10:47UTC 2021-08-26T15:10:47-10:00 2021-08-26T14:10:47-11:00  21.31312 -157.88864     212   0.0 Hikianalia
  2021-08-27T00:17:32UTC 2021-08-26T14:17:32-10:00 2021-08-26T13:17:32-11:00  21.31305 -157.88890     270   0.0 Hōkūleʻa
  2021-08-27T00:10:09UTC 2021-08-26T14:10:09-10:00 2021-08-26T13:10:09-11:00  21.31315 -157.88862      32   0.0 Hikianalia
  2021-08-26T23:18:28UTC 2021-08-26T13:18:28-10:00 2021-08-26T12:18:28-11:00  21.31305 -157.88883     270   0.0 Hōkūleʻa
  2021-08-26T23:09:49UTC 2021-08-26T13:09:49-10:00 2021-08-26T12:09:49-11:00  21.31312 -157.88864       0   0.0 Hikianalia
  2021-08-26T22:17:49UTC 2021-08-26T12:17:49-10:00 2021-08-26T11:17:49-11:00  21.31305 -157.88881     123   0.0 Hōkūleʻa
  2021-08-26T22:10:46UTC 2021-08-26T12:10:46-10:00 2021-08-26T11:10:46-11:00  21.31312 -157.88864     159   0.0 Hikianalia
  2021-08-26T21:18:39UTC 2021-08-26T11:18:39-10:00 2021-08-26T10:18:39-11:00  21.31318 -157.88866     317   0.0 Hikianalia
  2021-08-26T21:17:39UTC 2021-08-26T11:17:39-10:00 2021-08-26T10:17:39-11:00  21.31311 -157.88892     304   0.0 Hōkūleʻa
  2021-08-26T20:27:52UTC 2021-08-26T10:27:52-10:00 2021-08-26T09:27:52-11:00  21.31306 -157.88883       0   0.0 Hōkūleʻa
  2021-08-26T20:10:11UTC 2021-08-26T10:10:11-10:00 2021-08-26T09:10:11-11:00  21.31313 -157.88862      90   0.0 Hikianalia
  2021-08-26T19:18:24UTC 2021-08-26T09:18:24-10:00 2021-08-26T08:18:24-11:00  21.31306 -157.88883       0   0.0 Hōkūleʻa
  2021-08-26T19:10:49UTC 2021-08-26T09:10:49-10:00 2021-08-26T08:10:49-11:00  21.31313 -157.88864     222   0.0 Hikianalia
  2021-08-26T18:17:40UTC 2021-08-26T08:17:40-10:00 2021-08-26T07:17:40-11:00  21.31305 -157.88883       0   0.0 Hōkūleʻa
  2021-08-26T18:10:47UTC 2021-08-26T08:10:47-10:00 2021-08-26T07:10:47-11:00  21.31315 -157.88862       0   0.0 Hikianalia
  2021-08-26T17:18:30UTC 2021-08-26T07:18:30-10:00 2021-08-26T06:18:30-11:00  21.31305 -157.88883       0   0.0 Hōkūleʻa
  2021-08-26T17:10:40UTC 2021-08-26T07:10:40-10:00 2021-08-26T06:10:40-11:00  21.31315 -157.88862      32   0.0 Hikianalia
  2021-08-26T16:25:39UTC 2021-08-26T06:25:39-10:00 2021-08-26T05:25:39-11:00  21.31304 -157.88883       0   0.0 Hōkūleʻa
  2021-08-26T16:10:17UTC 2021-08-26T06:10:17-10:00 2021-08-26T05:10:17-11:00  21.31312 -157.88864     280   0.0 Hikianalia
  2021-08-26T15:18:30UTC 2021-08-26T05:18:30-10:00 2021-08-26T04:18:30-11:00  21.31303 -157.88883     180   0.0 Hōkūleʻa
  2021-08-26T15:10:39UTC 2021-08-26T05:10:39-10:00 2021-08-26T04:10:39-11:00  21.31310 -157.88851     118   0.0 Hikianalia
  2021-08-26T14:18:46UTC 2021-08-26T04:18:46-10:00 2021-08-26T03:18:46-11:00  21.31304 -157.88883     299   0.0 Hōkūleʻa
  2021-08-26T14:10:39UTC 2021-08-26T04:10:39-10:00 2021-08-26T03:10:39-11:00  21.31313 -157.88858      52   0.0 Hikianalia
  2021-08-26T13:18:32UTC 2021-08-26T03:18:32-10:00 2021-08-26T02:18:32-11:00  21.31303 -157.88881     137   0.0 Hōkūleʻa
  2021-08-26T13:10:39UTC 2021-08-26T03:10:39-10:00 2021-08-26T02:10:39-11:00  21.31310 -157.88862     138   0.0 Hikianalia
  2021-08-26T12:18:24UTC 2021-08-26T02:18:24-10:00 2021-08-26T01:18:24-11:00  21.31305 -157.88883     270   0.0 Hōkūleʻa
  2021-08-26T12:11:17UTC 2021-08-26T02:11:17-10:00 2021-08-26T01:11:17-11:00  21.31312 -157.88864     116   0.0 Hikianalia
  2021-08-26T11:18:27UTC 2021-08-26T01:18:27-10:00 2021-08-26T00:18:27-11:00  21.31305 -157.88881      90   0.0 Hōkūleʻa
  2021-08-26T11:11:25UTC 2021-08-26T01:11:25-10:00 2021-08-26T00:11:25-11:00  21.31313 -157.88866     302   0.0 Hikianalia
  2021-08-26T10:18:44UTC 2021-08-26T00:18:44-10:00 2021-08-25T23:18:44-11:00  21.31305 -157.88883     180   0.0 Hōkūleʻa
  2021-08-26T10:10:39UTC 2021-08-26T00:10:39-10:00 2021-08-25T23:10:39-11:00  21.31306 -157.88853     127   0.0 Hikianalia
  2021-08-26T09:18:38UTC 2021-08-25T23:18:38-10:00 2021-08-25T22:18:38-11:00  21.31306 -157.88883       0   0.0 Hōkūleʻa
  2021-08-26T09:11:17UTC 2021-08-25T23:11:17-10:00 2021-08-25T22:11:17-11:00  21.31313 -157.88864     297   0.0 Hikianalia
  2021-08-26T08:18:24UTC 2021-08-25T22:18:24-10:00 2021-08-25T21:18:24-11:00  21.31306 -157.88883     299   0.0 Hōkūleʻa
  2021-08-26T08:11:18UTC 2021-08-25T22:11:18-10:00 2021-08-25T21:11:18-11:00  21.31312 -157.88862      90   0.0 Hikianalia
  2021-08-26T07:18:32UTC 2021-08-25T21:18:32-10:00 2021-08-25T20:18:32-11:00  21.31305 -157.88881       0   0.0 Hōkūleʻa
  2021-08-26T07:10:40UTC 2021-08-25T21:10:40-10:00 2021-08-25T20:10:40-11:00  21.31312 -157.88864       0   0.0 Hikianalia
  2021-08-26T06:18:49UTC 2021-08-25T20:18:49-10:00 2021-08-25T19:18:49-11:00  21.31304 -157.88881     180   0.0 Hōkūleʻa
  2021-08-26T06:10:43UTC 2021-08-25T20:10:43-10:00 2021-08-25T19:10:43-11:00  21.31312 -157.88864     243   0.0 Hikianalia
  2021-08-26T05:18:29UTC 2021-08-25T19:18:29-10:00 2021-08-25T18:18:29-11:00  21.31305 -157.88881     119   0.0 Hōkūleʻa
  2021-08-26T05:11:09UTC 2021-08-25T19:11:09-10:00 2021-08-25T18:11:09-11:00  21.31313 -157.88862      78   0.0 Hikianalia
  2021-08-26T04:17:33UTC 2021-08-25T18:17:33-10:00 2021-08-25T17:17:33-11:00  21.31306 -157.88883       0   0.0 Hōkūleʻa
  2021-08-26T04:16:45UTC 2021-08-25T18:16:45-10:00 2021-08-25T17:16:45-11:00  21.31311 -157.88873     244   0.0 Hikianalia
  2021-08-26T03:36:29UTC 2021-08-25T17:36:29-10:00 2021-08-25T16:36:29-11:00  21.31305 -157.88883     270   0.0 Hōkūleʻa
  2021-08-26T03:10:40UTC 2021-08-25T17:10:40-10:00 2021-08-25T16:10:40-11:00  21.31321 -157.88851      47   0.0 Hikianalia
  2021-08-26T02:17:39UTC 2021-08-25T16:17:39-10:00 2021-08-25T15:17:39-11:00  21.31305 -157.88879     119   0.0 Hōkūleʻa
  2021-08-26T02:10:16UTC 2021-08-25T16:10:16-10:00 2021-08-25T15:10:16-11:00  21.31313 -157.88860      85   0.0 Hikianalia
  2021-08-26T01:17:27UTC 2021-08-25T15:17:27-10:00 2021-08-25T14:17:27-11:00  21.31307 -157.88883       0   0.0 Hōkūleʻa
  2021-08-26T01:10:39UTC 2021-08-25T15:10:39-10:00 2021-08-25T14:10:39-11:00  21.31312 -157.88873     260   0.0 Hikianalia
  2021-08-26T00:18:30UTC 2021-08-25T14:18:30-10:00 2021-08-25T13:18:30-11:00  21.31306 -157.88883     286   0.0 Hōkūleʻa
  2021-08-26T00:10:48UTC 2021-08-25T14:10:48-10:00 2021-08-25T13:10:48-11:00  21.31314 -157.88860      80   0.0 Hikianalia
  2021-08-25T23:17:30UTC 2021-08-25T13:17:30-10:00 2021-08-25T12:17:30-11:00  21.31305 -157.88879     119   0.0 Hōkūleʻa
  2021-08-25T23:10:18UTC 2021-08-25T13:10:18-10:00 2021-08-25T12:10:18-11:00  21.31312 -157.88873     163   0.0 Hikianalia
  2021-08-25T22:18:10UTC 2021-08-25T12:18:10-10:00 2021-08-25T11:18:10-11:00  21.31306 -157.88881     118   0.0 Hōkūleʻa
  2021-08-25T22:09:38UTC 2021-08-25T12:09:38-10:00 2021-08-25T11:09:38-11:00  21.31325 -157.88877     310   0.0 Hikianalia
  2021-08-25T21:17:39UTC 2021-08-25T11:17:39-10:00 2021-08-25T10:17:39-11:00  21.31309 -157.88888       0   0.0 Hōkūleʻa
  2021-08-25T21:10:46UTC 2021-08-25T11:10:46-10:00 2021-08-25T10:10:46-11:00  21.31313 -157.88862       0   0.0 Hikianalia
  2021-08-25T20:18:23UTC 2021-08-25T10:18:23-10:00 2021-08-25T09:18:23-11:00  21.31306 -157.88888     280   0.0 Hōkūleʻa
  2021-08-25T20:10:43UTC 2021-08-25T10:10:43-10:00 2021-08-25T09:10:43-11:00  21.31312 -157.88862     307   0.0 Hikianalia
  2021-08-25T19:17:26UTC 2021-08-25T09:17:26-10:00 2021-08-25T08:17:26-11:00  21.31305 -157.88881       0   0.0 Hōkūleʻa
  2021-08-25T19:09:40UTC 2021-08-25T09:09:40-10:00 2021-08-25T08:09:40-11:00  21.31305 -157.88851     137   0.0 Hikianalia
  2021-08-25T18:18:49UTC 2021-08-25T08:18:49-10:00 2021-08-25T07:18:49-11:00  21.31305 -157.88881      90   0.0 Hōkūleʻa
  2021-08-25T18:10:44UTC 2021-08-25T08:10:44-10:00 2021-08-25T07:10:44-11:00  21.31313 -157.88860      64   0.0 Hikianalia
  2021-08-25T17:18:37UTC 2021-08-25T07:18:37-10:00 2021-08-25T06:18:37-11:00  21.31305 -157.88883     180   0.0 Hōkūleʻa
  2021-08-25T17:11:08UTC 2021-08-25T07:11:08-10:00 2021-08-25T06:11:08-11:00  21.31312 -157.88862       0   0.0 Hikianalia
  2021-08-25T16:18:32UTC 2021-08-25T06:18:32-10:00 2021-08-25T05:18:32-11:00  21.31306 -157.88883       0   0.0 Hōkūleʻa
  2021-08-25T16:11:15UTC 2021-08-25T06:11:15-10:00 2021-08-25T05:11:15-11:00  21.31312 -157.88862     180   0.0 Hikianalia
  2021-08-25T15:18:33UTC 2021-08-25T05:18:33-10:00 2021-08-25T04:18:33-11:00  21.31304 -157.88883       0   0.0 Hōkūleʻa
  2021-08-25T15:10:38UTC 2021-08-25T05:10:38-10:00 2021-08-25T04:10:38-11:00  21.31313 -157.88862      76   0.0 Hikianalia
  2021-08-25T14:18:39UTC 2021-08-25T04:18:39-10:00 2021-08-25T03:18:39-11:00  21.31304 -157.88883     270   0.0 Hōkūleʻa
  2021-08-25T14:10:46UTC 2021-08-25T04:10:46-10:00 2021-08-25T03:10:46-11:00  21.31312 -157.88866     256   0.0 Hikianalia
  2021-08-25T13:18:33UTC 2021-08-25T03:18:33-10:00 2021-08-25T02:18:33-11:00  21.31304 -157.88881       0   0.0 Hōkūleʻa
  2021-08-25T13:09:46UTC 2021-08-25T03:09:46-10:00 2021-08-25T02:09:46-11:00  21.31313 -157.88862       0   0.0 Hikianalia
  2021-08-25T12:27:11UTC 2021-08-25T02:27:11-10:00 2021-08-25T01:27:11-11:00  21.31304 -157.88881     180   0.0 Hōkūleʻa
  2021-08-25T12:11:09UTC 2021-08-25T02:11:09-10:00 2021-08-25T01:11:09-11:00  21.31311 -157.88862     217   0.0 Hikianalia
  2021-08-25T11:18:49UTC 2021-08-25T01:18:49-10:00 2021-08-25T00:18:49-11:00  21.31317 -157.88858      62   0.0 Hikianalia
  2021-08-25T11:18:31UTC 2021-08-25T01:18:31-10:00 2021-08-25T00:18:31-11:00  21.31306 -157.88881      90   0.0 Hōkūleʻa
  2021-08-25T10:18:43UTC 2021-08-25T00:18:43-10:00 2021-08-24T23:18:43-11:00  21.31306 -157.88883     137   0.0 Hōkūleʻa
  2021-08-25T10:10:49UTC 2021-08-25T00:10:49-10:00 2021-08-24T23:10:49-11:00  21.31313 -157.88864       0   0.0 Hikianalia
  2021-08-25T09:18:29UTC 2021-08-24T23:18:29-10:00 2021-08-24T22:18:29-11:00  21.31308 -157.88886     328   0.0 Hōkūleʻa
  2021-08-25T09:10:54UTC 2021-08-24T23:10:54-10:00 2021-08-24T22:10:54-11:00  21.31312 -157.88864     180   0.0 Hikianalia
  2021-08-25T08:18:32UTC 2021-08-24T22:18:32-10:00 2021-08-24T21:18:32-11:00  21.31305 -157.88883     297   0.0 Hōkūleʻa
  2021-08-25T08:11:18UTC 2021-08-24T22:11:18-10:00 2021-08-24T21:11:18-11:00  21.31313 -157.88864       0   0.0 Hikianalia
  2021-08-25T07:18:24UTC 2021-08-24T21:18:24-10:00 2021-08-24T20:18:24-11:00  21.31304 -157.88881     180   0.0 Hōkūleʻa
  2021-08-25T07:10:48UTC 2021-08-24T21:10:48-10:00 2021-08-24T20:10:48-11:00  21.31312 -157.88864       0   0.0 Hikianalia
  2021-08-25T06:18:47UTC 2021-08-24T20:18:47-10:00 2021-08-24T19:18:47-11:00  21.31305 -157.88881     340   0.0 Hōkūleʻa
  2021-08-25T06:10:46UTC 2021-08-24T20:10:46-10:00 2021-08-24T19:10:46-11:00  21.31312 -157.88864       0   0.0 Hikianalia
  2021-08-25T05:17:31UTC 2021-08-24T19:17:31-10:00 2021-08-24T18:17:31-11:00  21.31299 -157.88879     138   0.0 Hōkūleʻa
  2021-08-25T05:10:45UTC 2021-08-24T19:10:45-10:00 2021-08-24T18:10:45-11:00  21.31312 -157.88864     243   0.0 Hikianalia
  2021-08-25T04:18:24UTC 2021-08-24T18:18:24-10:00 2021-08-24T17:18:24-11:00  21.31304 -157.88883     243   0.0 Hōkūleʻa
  2021-08-25T04:10:15UTC 2021-08-24T18:10:15-10:00 2021-08-24T17:10:15-11:00  21.31313 -157.88862      63   0.0 Hikianalia
  2021-08-25T03:18:32UTC 2021-08-24T17:18:32-10:00 2021-08-24T16:18:32-11:00  21.31305 -157.88881       0   0.0 Hōkūleʻa
  2021-08-25T03:10:37UTC 2021-08-24T17:10:37-10:00 2021-08-24T16:10:37-11:00  21.31312 -157.88864       0   0.0 Hikianalia
  2021-08-25T02:17:46UTC 2021-08-24T16:17:46-10:00 2021-08-24T15:17:46-11:00  21.31305 -157.88881     100   0.0 Hōkūleʻa
  2021-08-25T02:10:45UTC 2021-08-24T16:10:45-10:00 2021-08-24T15:10:45-11:00  21.31312 -157.88864       0   0.0 Hikianalia
  2021-08-25T01:18:34UTC 2021-08-24T15:18:34-10:00 2021-08-24T14:18:34-11:00  21.31306 -157.88888       0   0.0 Hōkūleʻa
  2021-08-25T01:09:38UTC 2021-08-24T15:09:38-10:00 2021-08-24T14:09:38-11:00  21.31312 -157.88864     243   0.0 Hikianalia
  2021-08-25T00:17:34UTC 2021-08-24T14:17:34-10:00 2021-08-24T13:17:34-11:00  21.31303 -157.88888     242   0.0 Hōkūleʻa
  2021-08-25T00:10:20UTC 2021-08-24T14:10:20-10:00 2021-08-24T13:10:20-11:00  21.31313 -157.88862      63   0.0 Hikianalia
  2021-08-24T23:18:32UTC 2021-08-24T13:18:32-10:00 2021-08-24T12:18:32-11:00  21.31305 -157.88883       0   0.0 Hōkūleʻa
  2021-08-24T23:09:45UTC 2021-08-24T13:09:45-10:00 2021-08-24T12:09:45-11:00  21.31312 -157.88864     134   0.0 Hikianalia
  2021-08-24T22:17:42UTC 2021-08-24T12:17:42-10:00 2021-08-24T11:17:42-11:00  21.31305 -157.88883     318   0.0 Hōkūleʻa
  2021-08-24T22:10:38UTC 2021-08-24T12:10:38-10:00 2021-08-24T11:10:38-11:00  21.31326 -157.88879     313   0.0 Hikianalia
  2021-08-24T21:17:30UTC 2021-08-24T11:17:30-10:00 2021-08-24T10:17:30-11:00  21.31300 -157.88879     130   0.0 Hōkūleʻa
  2021-08-24T21:10:45UTC 2021-08-24T11:10:45-10:00 2021-08-24T10:10:45-11:00  21.31319 -157.88871     308   0.0 Hikianalia
  2021-08-24T20:18:32UTC 2021-08-24T10:18:32-10:00 2021-08-24T09:18:32-11:00  21.31304 -157.88883     180   0.0 Hōkūleʻa
  2021-08-24T20:10:18UTC 2021-08-24T10:10:18-10:00 2021-08-24T09:10:18-11:00  21.31312 -157.88862     180   0.0 Hikianalia
  2021-08-24T19:17:32UTC 2021-08-24T09:17:32-10:00 2021-08-24T08:17:32-11:00  21.31306 -157.88883       0   0.0 Hōkūleʻa
  2021-08-24T19:10:48UTC 2021-08-24T09:10:48-10:00 2021-08-24T08:10:48-11:00  21.31313 -157.88862     180   0.0 Hikianalia
  2021-08-24T18:18:40UTC 2021-08-24T08:18:40-10:00 2021-08-24T07:18:40-11:00  21.31305 -157.88883       0   0.0 Hōkūleʻa
  2021-08-24T18:09:47UTC 2021-08-24T08:09:47-10:00 2021-08-24T07:09:47-11:00  21.31317 -157.88862      76   0.0 Hikianalia
  2021-08-24T17:17:21UTC 2021-08-24T07:17:21-10:00 2021-08-24T06:17:21-11:00  21.31305 -157.88883       0   0.0 Hōkūleʻa
  2021-08-24T17:10:35UTC 2021-08-24T07:10:35-10:00 2021-08-24T06:10:35-11:00  21.31315 -157.88866     334   0.0 Hikianalia
  2021-08-24T16:18:24UTC 2021-08-24T06:18:24-10:00 2021-08-24T05:18:24-11:00  21.31305 -157.88883     317   0.0 Hōkūleʻa
  2021-08-24T16:11:09UTC 2021-08-24T06:11:09-10:00 2021-08-24T05:11:09-11:00  21.31311 -157.88864     180   0.0 Hikianalia
  2021-08-24T15:18:24UTC 2021-08-24T05:18:24-10:00 2021-08-24T04:18:24-11:00  21.31303 -157.88881      90   0.0 Hōkūleʻa
  2021-08-24T15:10:46UTC 2021-08-24T05:10:46-10:00 2021-08-24T04:10:46-11:00  21.31313 -157.88864     317   0.0 Hikianalia
  2021-08-24T14:18:45UTC 2021-08-24T04:18:45-10:00 2021-08-24T03:18:45-11:00  21.31303 -157.88883      90   0.0 Hōkūleʻa
  2021-08-24T14:10:36UTC 2021-08-24T04:10:36-10:00 2021-08-24T03:10:36-11:00  21.31309 -157.88860     129   0.0 Hikianalia
  2021-08-24T13:27:29UTC 2021-08-24T03:27:29-10:00 2021-08-24T02:27:29-11:00  21.31303 -157.88894     265   0.0 Hōkūleʻa
  2021-08-24T13:10:48UTC 2021-08-24T03:10:48-10:00 2021-08-24T02:10:48-11:00  21.31312 -157.88864       0   0.0 Hikianalia
  2021-08-24T12:17:29UTC 2021-08-24T02:17:29-10:00 2021-08-24T01:17:29-11:00  21.31304 -157.88881      90   0.0 Hōkūleʻa
  2021-08-24T12:11:18UTC 2021-08-24T02:11:18-10:00 2021-08-24T01:11:18-11:00  21.31311 -157.88864      90   0.0 Hikianalia
  2021-08-24T11:18:22UTC 2021-08-24T01:18:22-10:00 2021-08-24T00:18:22-11:00  21.31304 -157.88883     180   0.0 Hōkūleʻa
  2021-08-24T11:10:35UTC 2021-08-24T01:10:35-10:00 2021-08-24T00:10:35-11:00  21.31311 -157.88868     270   0.0 Hikianalia
  2021-08-24T10:18:49UTC 2021-08-24T00:18:49-10:00 2021-08-23T23:18:49-11:00  21.31305 -157.88883       0   0.0 Hōkūleʻa
  2021-08-24T10:10:47UTC 2021-08-24T00:10:47-10:00 2021-08-23T23:10:47-11:00  21.31311 -157.88862     180   0.0 Hikianalia
  2021-08-24T09:18:30UTC 2021-08-23T23:18:30-10:00 2021-08-23T22:18:30-11:00  21.31305 -157.88883       0   0.0 Hōkūleʻa
  2021-08-24T09:11:13UTC 2021-08-23T23:11:13-10:00 2021-08-23T22:11:13-11:00  21.31312 -157.88862     180   0.0 Hikianalia
  2021-08-24T08:18:23UTC 2021-08-23T22:18:23-10:00 2021-08-23T21:18:23-11:00  21.31304 -157.88883     270   0.0 Hōkūleʻa
  2021-08-24T08:11:17UTC 2021-08-23T22:11:17-10:00 2021-08-23T21:11:17-11:00  21.31313 -157.88862     180   0.0 Hikianalia
  2021-08-24T07:18:32UTC 2021-08-23T21:18:32-10:00 2021-08-23T20:18:32-11:00  21.31304 -157.88881      42   0.0 Hōkūleʻa
  2021-08-24T07:11:46UTC 2021-08-23T21:11:46-10:00 2021-08-23T20:11:46-11:00  21.31314 -157.88862       0   0.0 Hikianalia
  2021-08-24T06:18:47UTC 2021-08-23T20:18:47-10:00 2021-08-23T19:18:47-11:00  21.31302 -157.88883     260   0.0 Hōkūleʻa
  2021-08-24T06:10:25UTC 2021-08-23T20:10:25-10:00 2021-08-23T19:10:25-11:00  21.31309 -157.88862     138   0.0 Hikianalia
  2021-08-24T05:18:29UTC 2021-08-23T19:18:29-10:00 2021-08-23T18:18:29-11:00  21.31303 -157.88877     180   0.0 Hōkūleʻa
  2021-08-24T05:10:36UTC 2021-08-23T19:10:36-10:00 2021-08-23T18:10:36-11:00  21.31311 -157.88864     255   0.0 Hikianalia
  2021-08-24T04:17:32UTC 2021-08-23T18:17:32-10:00 2021-08-23T17:17:32-11:00  21.31307 -157.88877      43   0.0 Hōkūleʻa
  2021-08-24T04:10:47UTC 2021-08-23T18:10:47-10:00 2021-08-23T17:10:47-11:00  21.31312 -157.88860     136   0.0 Hikianalia
  2021-08-24T03:18:24UTC 2021-08-23T17:18:24-10:00 2021-08-23T16:18:24-11:00  21.31305 -157.88879      90   0.0 Hōkūleʻa
  2021-08-24T03:11:14UTC 2021-08-23T17:11:14-10:00 2021-08-23T16:11:14-11:00  21.31314 -157.88862     264   0.0 Hikianalia
  2021-08-24T02:18:47UTC 2021-08-23T16:18:47-10:00 2021-08-23T15:18:47-11:00  21.31315 -157.88851      75   0.0 Hikianalia
  2021-08-24T02:18:47UTC 2021-08-23T16:18:47-10:00 2021-08-23T15:18:47-11:00  21.31305 -157.88883      90   0.0 Hōkūleʻa
  2021-08-24T01:18:38UTC 2021-08-23T15:18:38-10:00 2021-08-23T14:18:38-11:00  21.31305 -157.88888     270   0.0 Hōkūleʻa
  2021-08-24T01:10:45UTC 2021-08-23T15:10:45-10:00 2021-08-23T14:10:45-11:00  21.31314 -157.88856      80   0.0 Hikianalia
  2021-08-24T00:17:29UTC 2021-08-23T14:17:29-10:00 2021-08-23T13:17:29-11:00  21.31305 -157.88883     284   0.0 Hōkūleʻa
  2021-08-24T00:10:17UTC 2021-08-23T14:10:17-10:00 2021-08-23T13:10:17-11:00  21.31313 -157.88862       0   0.0 Hikianalia
  2021-08-23T23:18:30UTC 2021-08-23T13:18:30-10:00 2021-08-23T12:18:30-11:00  21.31304 -157.88879     118   0.0 Hōkūleʻa
  2021-08-23T23:10:09UTC 2021-08-23T13:10:09-10:00 2021-08-23T12:10:09-11:00  21.31312 -157.88862     118   0.0 Hikianalia
  2021-08-23T22:29:57UTC 2021-08-23T12:29:57-10:00 2021-08-23T11:29:57-11:00  21.31321 -157.88879     295   0.0 Hikianalia
  2021-08-23T22:18:46UTC 2021-08-23T12:18:46-10:00 2021-08-23T11:18:46-11:00  21.31306 -157.88883     324   0.0 Hōkūleʻa
  2021-08-23T21:17:39UTC 2021-08-23T11:17:39-10:00 2021-08-23T10:17:39-11:00  21.31300 -157.88879     138   0.0 Hōkūleʻa
  2021-08-23T21:10:46UTC 2021-08-23T11:10:46-10:00 2021-08-23T10:10:46-11:00  21.31313 -157.88862       0   0.0 Hikianalia
  2021-08-23T20:18:29UTC 2021-08-23T10:18:29-10:00 2021-08-23T09:18:29-11:00  21.31305 -157.88883     118   0.0 Hōkūleʻa
  2021-08-23T20:10:20UTC 2021-08-23T10:10:20-10:00 2021-08-23T09:10:20-11:00  21.31312 -157.88862     148   0.0 Hikianalia
  2021-08-23T19:19:07UTC 2021-08-23T09:19:07-10:00 2021-08-23T08:19:07-11:00  21.31315 -157.88864      90   0.0 Hikianalia
  2021-08-23T19:18:32UTC 2021-08-23T09:18:32-10:00 2021-08-23T08:18:32-11:00  21.31306 -157.88886     316   0.0 Hōkūleʻa
  2021-08-23T18:17:40UTC 2021-08-23T08:17:40-10:00 2021-08-23T07:17:40-11:00  21.31304 -157.88883      90   0.0 Hōkūleʻa
  2021-08-23T18:10:47UTC 2021-08-23T08:10:47-10:00 2021-08-23T07:10:47-11:00  21.31315 -157.88866       0   0.0 Hikianalia
  2021-08-23T17:18:30UTC 2021-08-23T07:18:30-10:00 2021-08-23T06:18:30-11:00  21.31304 -157.88888     256   0.0 Hōkūleʻa
  2021-08-23T17:10:40UTC 2021-08-23T07:10:40-10:00 2021-08-23T06:10:40-11:00  21.31308 -157.88866     223   0.0 Hikianalia
  2021-08-23T16:25:20UTC 2021-08-23T06:25:20-10:00 2021-08-23T05:25:20-11:00  21.31305 -157.88883       0   0.0 Hōkūleʻa
  2021-08-23T16:11:15UTC 2021-08-23T06:11:15-10:00 2021-08-23T05:11:15-11:00  21.31312 -157.88862     351   0.0 Hikianalia
  2021-08-23T15:18:31UTC 2021-08-23T05:18:31-10:00 2021-08-23T04:18:31-11:00  21.31304 -157.88883     299   0.0 Hōkūleʻa
  2021-08-23T15:10:46UTC 2021-08-23T05:10:46-10:00 2021-08-23T04:10:46-11:00  21.31299 -157.88860     180   0.0 Hikianalia
  2021-08-23T14:18:40UTC 2021-08-23T04:18:40-10:00 2021-08-23T03:18:40-11:00  21.31303 -157.88881     255   0.0 Hōkūleʻa
  2021-08-23T14:11:05UTC 2021-08-23T04:11:05-10:00 2021-08-23T03:11:05-11:00  21.31315 -157.88860      99   0.0 Hikianalia
  2021-08-23T13:17:34UTC 2021-08-23T03:17:34-10:00 2021-08-23T02:17:34-11:00  21.31304 -157.88877      80   0.0 Hōkūleʻa
  2021-08-23T13:10:39UTC 2021-08-23T03:10:39-10:00 2021-08-23T02:10:39-11:00  21.31317 -157.88866     308   0.0 Hikianalia
  2021-08-23T12:18:26UTC 2021-08-23T02:18:26-10:00 2021-08-23T01:18:26-11:00  21.31303 -157.88883       0   0.0 Hōkūleʻa
  2021-08-23T12:11:19UTC 2021-08-23T02:11:19-10:00 2021-08-23T01:11:19-11:00  21.31313 -157.88862       0   0.0 Hikianalia
  2021-08-23T11:18:32UTC 2021-08-23T01:18:32-10:00 2021-08-23T00:18:32-11:00  21.31303 -157.88883     180   0.0 Hōkūleʻa
  2021-08-23T11:11:17UTC 2021-08-23T01:11:17-10:00 2021-08-23T00:11:17-11:00  21.31312 -157.88862      90   0.0 Hikianalia
  2021-08-23T10:18:44UTC 2021-08-23T00:18:44-10:00 2021-08-22T23:18:44-11:00  21.31305 -157.88883     180   0.0 Hōkūleʻa
  2021-08-23T10:17:20UTC 2021-08-23T00:17:20-10:00 2021-08-22T23:17:20-11:00  21.31312 -157.88864       0   0.0 Hikianalia
  2021-08-23T09:18:38UTC 2021-08-22T23:18:38-10:00 2021-08-22T22:18:38-11:00  21.31307 -157.88883       0   0.0 Hōkūleʻa
  2021-08-23T09:10:39UTC 2021-08-22T23:10:39-10:00 2021-08-22T22:10:39-11:00  21.31312 -157.88864     243   0.0 Hikianalia
  2021-08-23T08:26:42UTC 2021-08-22T22:26:42-10:00 2021-08-22T21:26:42-11:00  21.31313 -157.88862       0   0.0 Hikianalia
  2021-08-23T08:18:29UTC 2021-08-22T22:18:29-10:00 2021-08-22T21:18:29-11:00  21.31307 -157.88883     270   0.0 Hōkūleʻa
  2021-08-23T07:18:32UTC 2021-08-22T21:18:32-10:00 2021-08-22T20:18:32-11:00  21.31307 -157.88881       0   0.0 Hōkūleʻa
  2021-08-23T07:10:40UTC 2021-08-22T21:10:40-10:00 2021-08-22T20:10:40-11:00  21.31309 -157.88862     149   0.0 Hikianalia
  2021-08-23T06:18:49UTC 2021-08-22T20:18:49-10:00 2021-08-22T19:18:49-11:00  21.31306 -157.88881     138   0.0 Hōkūleʻa
  2021-08-23T06:10:46UTC 2021-08-22T20:10:46-10:00 2021-08-22T19:10:46-11:00  21.31312 -157.88864     136   0.0 Hikianalia
  2021-08-23T05:26:51UTC 2021-08-22T19:26:51-10:00 2021-08-22T18:26:51-11:00  21.31308 -157.88883     270   0.0 Hōkūleʻa
  2021-08-23T05:10:44UTC 2021-08-22T19:10:44-10:00 2021-08-22T18:10:44-11:00  21.31319 -157.88871     292   0.0 Hikianalia
  2021-08-23T04:18:33UTC 2021-08-22T18:18:33-10:00 2021-08-22T17:18:33-11:00  21.31308 -157.88881       0   0.0 Hōkūleʻa
  2021-08-23T04:11:32UTC 2021-08-22T18:11:32-10:00 2021-08-22T17:11:32-11:00  21.31315 -157.88862      32   0.0 Hikianalia
  2021-08-23T03:18:31UTC 2021-08-22T17:18:31-10:00 2021-08-22T16:18:31-11:00  21.31307 -157.88881      90   0.0 Hōkūleʻa
  2021-08-23T03:10:46UTC 2021-08-22T17:10:46-10:00 2021-08-22T16:10:46-11:00  21.31312 -157.88864      15   0.0 Hikianalia
  2021-08-23T02:17:39UTC 2021-08-22T16:17:39-10:00 2021-08-22T15:17:39-11:00  21.31307 -157.88883      43   0.0 Hōkūleʻa
  2021-08-23T02:10:48UTC 2021-08-22T16:10:48-10:00 2021-08-22T15:10:48-11:00  21.31305 -157.88866     193   0.0 Hikianalia
  2021-08-23T01:19:00UTC 2021-08-22T15:19:00-10:00 2021-08-22T14:19:00-11:00  21.31313 -157.88864     311   0.0 Hikianalia
  2021-08-23T01:18:24UTC 2021-08-22T15:18:24-10:00 2021-08-22T14:18:24-11:00  21.31305 -157.88886     270   0.0 Hōkūleʻa
  2021-08-23T00:17:32UTC 2021-08-22T14:17:32-10:00 2021-08-22T13:17:32-11:00  21.31305 -157.88883     270   0.0 Hōkūleʻa
  2021-08-23T00:09:47UTC 2021-08-22T14:09:47-10:00 2021-08-22T13:09:47-11:00  21.31308 -157.88858     180   0.0 Hikianalia
  2021-08-22T23:18:47UTC 2021-08-22T13:18:47-10:00 2021-08-22T12:18:47-11:00  21.31305 -157.88881       0   0.0 Hōkūleʻa
  2021-08-22T23:10:15UTC 2021-08-22T13:10:15-10:00 2021-08-22T12:10:15-11:00  21.31313 -157.88858      81   0.0 Hikianalia
  2021-08-22T22:17:35UTC 2021-08-22T12:17:35-10:00 2021-08-22T11:17:35-11:00  21.31305 -157.88881       0   0.0 Hōkūleʻa
  2021-08-22T22:10:48UTC 2021-08-22T12:10:48-10:00 2021-08-22T11:10:48-11:00  21.31312 -157.88864     197   0.0 Hikianalia
  2021-08-22T21:17:36UTC 2021-08-22T11:17:36-10:00 2021-08-22T10:17:36-11:00  21.31305 -157.88881      90   0.0 Hōkūleʻa
  2021-08-22T21:10:45UTC 2021-08-22T11:10:45-10:00 2021-08-22T10:10:45-11:00  21.31319 -157.88862       0   0.0 Hikianalia
  2021-08-22T20:17:40UTC 2021-08-22T10:17:40-10:00 2021-08-22T09:17:40-11:00  21.31305 -157.88883     180   0.0 Hōkūleʻa
  2021-08-22T20:10:14UTC 2021-08-22T10:10:14-10:00 2021-08-22T09:10:14-11:00  21.31312 -157.88862       0   0.0 Hikianalia
  2021-08-22T19:18:24UTC 2021-08-22T09:18:24-10:00 2021-08-22T08:18:24-11:00  21.31307 -157.88883       0   0.0 Hōkūleʻa
  2021-08-22T19:09:40UTC 2021-08-22T09:09:40-10:00 2021-08-22T08:09:40-11:00  21.31310 -157.88862      90   0.0 Hikianalia
  2021-08-22T18:18:33UTC 2021-08-22T08:18:33-10:00 2021-08-22T07:18:33-11:00  21.31303 -157.88883     180   0.0 Hōkūleʻa
  2021-08-22T18:10:38UTC 2021-08-22T08:10:38-10:00 2021-08-22T07:10:38-11:00  21.31310 -157.88866       0   0.0 Hikianalia
  2021-08-22T17:28:26UTC 2021-08-22T07:28:26-10:00 2021-08-22T06:28:26-11:00  21.31305 -157.88883       0   0.0 Hōkūleʻa
  2021-08-22T17:10:43UTC 2021-08-22T07:10:43-10:00 2021-08-22T06:10:43-11:00  21.31309 -157.88866     241   0.0 Hikianalia
  2021-08-22T16:18:46UTC 2021-08-22T06:18:46-10:00 2021-08-22T05:18:46-11:00  21.31303 -157.88883     180   0.0 Hōkūleʻa
  2021-08-22T16:10:16UTC 2021-08-22T06:10:16-10:00 2021-08-22T05:10:16-11:00  21.31311 -157.88862      90   0.0 Hikianalia
  2021-08-22T15:28:54UTC 2021-08-22T05:28:54-10:00 2021-08-22T04:28:54-11:00  21.31311 -157.88864     241   0.0 Hikianalia
  2021-08-22T15:18:32UTC 2021-08-22T05:18:32-10:00 2021-08-22T04:18:32-11:00  21.31304 -157.88883     270   0.0 Hōkūleʻa
  2021-08-22T14:18:22UTC 2021-08-22T04:18:22-10:00 2021-08-22T03:18:22-11:00  21.31304 -157.88879     118   0.0 Hōkūleʻa
  2021-08-22T14:11:08UTC 2021-08-22T04:11:08-10:00 2021-08-22T03:11:08-11:00  21.31312 -157.88862      75   0.0 Hikianalia
  2021-08-22T13:18:33UTC 2021-08-22T03:18:33-10:00 2021-08-22T02:18:33-11:00  21.31306 -157.88883     299   0.0 Hōkūleʻa
  2021-08-22T13:10:48UTC 2021-08-22T03:10:48-10:00 2021-08-22T02:10:48-11:00  21.31311 -157.88866     255   0.0 Hikianalia
  2021-08-22T12:18:48UTC 2021-08-22T02:18:48-10:00 2021-08-22T01:18:48-11:00  21.31305 -157.88881      63   0.0 Hōkūleʻa
  2021-08-22T12:10:46UTC 2021-08-22T02:10:46-10:00 2021-08-22T01:10:46-11:00  21.31312 -157.88862       0   0.0 Hikianalia
  2021-08-22T11:19:29UTC 2021-08-22T01:19:29-10:00 2021-08-22T00:19:29-11:00  21.31304 -157.88883     180   0.0 Hōkūleʻa
  2021-08-22T11:11:17UTC 2021-08-22T01:11:17-10:00 2021-08-22T00:11:17-11:00  21.31312 -157.88862     145   0.0 Hikianalia
  2021-08-22T10:18:33UTC 2021-08-22T00:18:33-10:00 2021-08-21T23:18:33-11:00  21.31305 -157.88883     297   0.0 Hōkūleʻa
  2021-08-22T10:10:45UTC 2021-08-22T00:10:45-10:00 2021-08-21T23:10:45-11:00  21.31321 -157.88868     332   0.0 Hikianalia
  2021-08-22T09:18:32UTC 2021-08-21T23:18:32-10:00 2021-08-21T22:18:32-11:00  21.31304 -157.88881     180   0.0 Hōkūleʻa
  2021-08-22T09:10:46UTC 2021-08-21T23:10:46-10:00 2021-08-21T22:10:46-11:00  21.31313 -157.88864     297   0.0 Hikianalia
  2021-08-22T08:18:49UTC 2021-08-21T22:18:49-10:00 2021-08-21T21:18:49-11:00  21.31305 -157.88881     297   0.0 Hōkūleʻa
  2021-08-22T08:11:09UTC 2021-08-21T22:11:09-10:00 2021-08-21T21:11:09-11:00  21.31312 -157.88862     242   0.0 Hikianalia
  2021-08-22T07:18:34UTC 2021-08-21T21:18:34-10:00 2021-08-21T20:18:34-11:00  21.31304 -157.88879     104   0.0 Hōkūleʻa
  2021-08-22T07:09:40UTC 2021-08-21T21:09:40-10:00 2021-08-21T20:09:40-11:00  21.31314 -157.88858      20   0.0 Hikianalia
  2021-08-22T06:18:30UTC 2021-08-21T20:18:30-10:00 2021-08-21T19:18:30-11:00  21.31305 -157.88883     270   0.0 Hōkūleʻa
  2021-08-22T06:10:41UTC 2021-08-21T20:10:41-10:00 2021-08-21T19:10:41-11:00  21.31309 -157.88860     167   0.0 Hikianalia
  2021-08-22T05:18:30UTC 2021-08-21T19:18:30-10:00 2021-08-21T18:18:30-11:00  21.31305 -157.88881     180   0.0 Hōkūleʻa
  2021-08-22T05:10:48UTC 2021-08-21T19:10:48-10:00 2021-08-21T18:10:48-11:00  21.31318 -157.88862       0   0.0 Hikianalia
  2021-08-22T04:17:49UTC 2021-08-21T18:17:49-10:00 2021-08-21T17:17:49-11:00  21.31306 -157.88881      61   0.0 Hōkūleʻa
  2021-08-22T04:11:16UTC 2021-08-21T18:11:16-10:00 2021-08-21T17:11:16-11:00  21.31314 -157.88862     180   0.0 Hikianalia
  2021-08-22T03:18:24UTC 2021-08-21T17:18:24-10:00 2021-08-21T16:18:24-11:00  21.31305 -157.88883     180   0.0 Hōkūleʻa
  2021-08-22T03:10:46UTC 2021-08-21T17:10:46-10:00 2021-08-21T16:10:46-11:00  21.31315 -157.88862      61   0.0 Hikianalia
  2021-08-22T02:17:21UTC 2021-08-21T16:17:21-10:00 2021-08-21T15:17:21-11:00  21.31306 -157.88883     270   0.0 Hōkūleʻa
  2021-08-22T02:11:07UTC 2021-08-21T16:11:07-10:00 2021-08-21T15:11:07-11:00  21.31314 -157.88864      62   0.0 Hikianalia
  2021-08-22T01:18:24UTC 2021-08-21T15:18:24-10:00 2021-08-21T14:18:24-11:00  21.31306 -157.88881      90   0.0 Hōkūleʻa
  2021-08-22T01:09:46UTC 2021-08-21T15:09:46-10:00 2021-08-21T14:09:46-11:00  21.31313 -157.88866     255   0.0 Hikianalia
  2021-08-22T00:18:49UTC 2021-08-21T14:18:49-10:00 2021-08-21T13:18:49-11:00  21.31306 -157.88883     299   0.0 Hōkūleʻa
  2021-08-22T00:11:18UTC 2021-08-21T14:11:18-10:00 2021-08-21T13:11:18-11:00  21.31314 -157.88862       0   0.0 Hikianalia
  2021-08-21T23:17:38UTC 2021-08-21T13:17:38-10:00 2021-08-21T12:17:38-11:00  21.31305 -157.88881     241   0.0 Hōkūleʻa
  2021-08-21T23:10:14UTC 2021-08-21T13:10:14-10:00 2021-08-21T12:10:14-11:00  21.31313 -157.88862      90   0.0 Hikianalia
  2021-08-21T22:18:32UTC 2021-08-21T12:18:32-10:00 2021-08-21T11:18:32-11:00  21.31306 -157.88879      61   0.0 Hōkūleʻa
  2021-08-21T22:10:49UTC 2021-08-21T12:10:49-10:00 2021-08-21T11:10:49-11:00  21.31313 -157.88866     180   0.0 Hikianalia
  2021-08-21T21:17:31UTC 2021-08-21T11:17:31-10:00 2021-08-21T10:17:31-11:00  21.31305 -157.88881       0   0.0 Hōkūleʻa
  2021-08-21T21:09:45UTC 2021-08-21T11:09:45-10:00 2021-08-21T10:09:45-11:00  21.31314 -157.88866     298   0.0 Hikianalia
  2021-08-21T20:18:39UTC 2021-08-21T10:18:39-10:00 2021-08-21T09:18:39-11:00  21.31305 -157.88881       0   0.0 Hōkūleʻa
  2021-08-21T20:11:08UTC 2021-08-21T10:11:08-10:00 2021-08-21T09:11:08-11:00  21.31312 -157.88862     148   0.0 Hikianalia
  2021-08-21T19:18:32UTC 2021-08-21T09:18:32-10:00 2021-08-21T08:18:32-11:00  21.31305 -157.88881     138   0.0 Hōkūleʻa
  2021-08-21T19:10:47UTC 2021-08-21T09:10:47-10:00 2021-08-21T08:10:47-11:00  21.31319 -157.88866     339   0.0 Hikianalia
  2021-08-21T18:18:31UTC 2021-08-21T08:18:31-10:00 2021-08-21T07:18:31-11:00  21.31308 -157.88862     117   0.0 Hikianalia
  2021-08-21T18:17:44UTC 2021-08-21T08:17:44-10:00 2021-08-21T07:17:44-11:00  21.31307 -157.88883       0   0.0 Hōkūleʻa
  2021-08-21T17:18:22UTC 2021-08-21T07:18:22-10:00 2021-08-21T06:18:22-11:00  21.31305 -157.88883       0   0.0 Hōkūleʻa
  2021-08-21T17:10:35UTC 2021-08-21T07:10:35-10:00 2021-08-21T06:10:35-11:00  21.31309 -157.88864     222   0.0 Hikianalia
  2021-08-21T16:18:49UTC 2021-08-21T06:18:49-10:00 2021-08-21T05:18:49-11:00  21.31303 -157.88883     180   0.0 Hōkūleʻa
  2021-08-21T16:11:08UTC 2021-08-21T06:11:08-10:00 2021-08-21T05:11:08-11:00  21.31311 -157.88862      90   0.0 Hikianalia
  2021-08-21T15:28:20UTC 2021-08-21T05:28:20-10:00 2021-08-21T04:28:20-11:00  21.31311 -157.88864     205   0.0 Hikianalia
  2021-08-21T15:18:32UTC 2021-08-21T05:18:32-10:00 2021-08-21T04:18:32-11:00  21.31304 -157.88883     180   0.0 Hōkūleʻa
  2021-08-21T14:19:37UTC 2021-08-21T04:19:37-10:00 2021-08-21T03:19:37-11:00  21.31305 -157.88883       0   0.0 Hōkūleʻa
  2021-08-21T14:10:47UTC 2021-08-21T04:10:47-10:00 2021-08-21T03:10:47-11:00  21.31320 -157.88860      37   0.0 Hikianalia
  2021-08-21T13:18:33UTC 2021-08-21T03:18:33-10:00 2021-08-21T02:18:33-11:00  21.31305 -157.88883       0   0.0 Hōkūleʻa
  2021-08-21T13:10:37UTC 2021-08-21T03:10:37-10:00 2021-08-21T02:10:37-11:00  21.31314 -157.88864     299   0.0 Hikianalia
  2021-08-21T12:17:47UTC 2021-08-21T02:17:47-10:00 2021-08-21T01:17:47-11:00  21.31305 -157.88883     270   0.0 Hōkūleʻa
  2021-08-21T12:10:20UTC 2021-08-21T02:10:20-10:00 2021-08-21T01:10:20-11:00  21.31313 -157.88862     155   0.0 Hikianalia
  2021-08-21T11:19:22UTC 2021-08-21T01:19:22-10:00 2021-08-21T00:19:22-11:00  21.31305 -157.88881      90   0.0 Hōkūleʻa
  2021-08-21T11:10:36UTC 2021-08-21T01:10:36-10:00 2021-08-21T00:10:36-11:00  21.31318 -157.88864      44   0.0 Hikianalia
  2021-08-21T10:18:30UTC 2021-08-21T00:18:30-10:00 2021-08-20T23:18:30-11:00  21.31305 -157.88883       0   0.0 Hōkūleʻa
  2021-08-21T10:10:43UTC 2021-08-21T00:10:43-10:00 2021-08-20T23:10:43-11:00  21.31315 -157.88866     317   0.0 Hikianalia
  2021-08-21T09:18:34UTC 2021-08-20T23:18:34-10:00 2021-08-20T22:18:34-11:00  21.31305 -157.88883     297   0.0 Hōkūleʻa
  2021-08-21T09:10:46UTC 2021-08-20T23:10:46-10:00 2021-08-20T22:10:46-11:00  21.31311 -157.88862     180   0.0 Hikianalia
  2021-08-21T08:18:46UTC 2021-08-20T22:18:46-10:00 2021-08-20T21:18:46-11:00  21.31304 -157.88881     180   0.0 Hōkūleʻa
  2021-08-21T08:11:08UTC 2021-08-20T22:11:08-10:00 2021-08-20T21:11:08-11:00  21.31313 -157.88862       0   0.0 Hikianalia
  2021-08-21T07:18:32UTC 2021-08-20T21:18:32-10:00 2021-08-20T20:18:32-11:00  21.31305 -157.88881     317   0.0 Hōkūleʻa
  2021-08-21T07:11:16UTC 2021-08-20T21:11:16-10:00 2021-08-20T20:11:16-11:00  21.31313 -157.88862      90   0.0 Hikianalia
  2021-08-21T06:20:57UTC 2021-08-20T20:20:57-10:00 2021-08-20T19:20:57-11:00  21.31313 -157.88866     270   0.0 Hikianalia
  2021-08-21T06:18:31UTC 2021-08-20T20:18:31-10:00 2021-08-20T19:18:31-11:00  21.31300 -157.88877     143   0.0 Hōkūleʻa
  2021-08-21T05:18:29UTC 2021-08-20T19:18:29-10:00 2021-08-20T18:18:29-11:00  21.31306 -157.88881     119   0.0 Hōkūleʻa
  2021-08-21T05:11:09UTC 2021-08-20T19:11:09-10:00 2021-08-20T18:11:09-11:00  21.31313 -157.88862     180   0.0 Hikianalia
  2021-08-21T04:25:05UTC 2021-08-20T18:25:05-10:00 2021-08-20T17:25:05-11:00  21.31307 -157.88883       0   0.0 Hōkūleʻa
  2021-08-21T04:09:40UTC 2021-08-20T18:09:40-10:00 2021-08-20T17:09:40-11:00  21.31318 -157.88862      32   0.0 Hikianalia
  2021-08-21T03:17:24UTC 2021-08-20T17:17:24-10:00 2021-08-20T16:17:24-11:00  21.31305 -157.88883       0   0.0 Hōkūleʻa
  2021-08-21T03:10:38UTC 2021-08-20T17:10:38-10:00 2021-08-20T16:10:38-11:00  21.31311 -157.88866     232   0.0 Hikianalia
  2021-08-21T02:18:30UTC 2021-08-20T16:18:30-10:00 2021-08-20T15:18:30-11:00  21.31305 -157.88883     180   0.0 Hōkūleʻa
  2021-08-21T02:10:39UTC 2021-08-20T16:10:39-10:00 2021-08-20T15:10:39-11:00  21.31314 -157.88862      35   0.0 Hikianalia
  2021-08-21T01:18:40UTC 2021-08-20T15:18:40-10:00 2021-08-20T14:18:40-11:00  21.31307 -157.88883       0   0.0 Hōkūleʻa
  2021-08-21T01:10:48UTC 2021-08-20T15:10:48-10:00 2021-08-20T14:10:48-11:00  21.31306 -157.88868     205   0.0 Hikianalia
  2021-08-21T00:17:48UTC 2021-08-20T14:17:48-10:00 2021-08-20T13:17:48-11:00  21.31305 -157.88883     297   0.0 Hōkūleʻa
  2021-08-21T00:09:46UTC 2021-08-20T14:09:46-10:00 2021-08-20T13:09:46-11:00  21.31314 -157.88864     299   0.0 Hikianalia
  2021-08-20T23:17:38UTC 2021-08-20T13:17:38-10:00 2021-08-20T12:17:38-11:00  21.31304 -157.88881     148   0.0 Hōkūleʻa
  2021-08-20T23:11:16UTC 2021-08-20T13:11:16-10:00 2021-08-20T12:11:16-11:00  21.31313 -157.88862     296   0.0 Hikianalia
  2021-08-20T22:18:33UTC 2021-08-20T12:18:33-10:00 2021-08-20T11:18:33-11:00  21.31307 -157.88883       0   0.0 Hōkūleʻa
  2021-08-20T22:10:16UTC 2021-08-20T12:10:16-10:00 2021-08-20T11:10:16-11:00  21.31312 -157.88860      99   0.0 Hikianalia
  2021-08-20T21:17:33UTC 2021-08-20T11:17:33-10:00 2021-08-20T10:17:33-11:00  21.31305 -157.88883       0   0.0 Hōkūleʻa
  2021-08-20T21:09:46UTC 2021-08-20T11:09:46-10:00 2021-08-20T10:09:46-11:00  21.31313 -157.88866     284   0.0 Hikianalia
  2021-08-20T20:18:49UTC 2021-08-20T10:18:49-10:00 2021-08-20T09:18:49-11:00  21.31305 -157.88883     180   0.0 Hōkūleʻa
  2021-08-20T20:10:15UTC 2021-08-20T10:10:15-10:00 2021-08-20T09:10:15-11:00  21.31312 -157.88862     317   0.0 Hikianalia
  2021-08-20T19:17:45UTC 2021-08-20T09:17:45-10:00 2021-08-20T08:17:45-11:00  21.31306 -157.88883     328   0.0 Hōkūleʻa
  2021-08-20T19:10:39UTC 2021-08-20T09:10:39-10:00 2021-08-20T08:10:39-11:00  21.31308 -157.88858     118   0.0 Hikianalia
  2021-08-20T18:18:31UTC 2021-08-20T08:18:31-10:00 2021-08-20T07:18:31-11:00  21.31303 -157.88881      90   0.0 Hōkūleʻa
  2021-08-20T18:10:38UTC 2021-08-20T08:10:38-10:00 2021-08-20T07:10:38-11:00  21.31312 -157.88866     232   0.0 Hikianalia
  2021-08-20T17:17:21UTC 2021-08-20T07:17:21-10:00 2021-08-20T06:17:21-11:00  21.31303 -157.88883       0   0.0 Hōkūleʻa
  2021-08-20T17:10:44UTC 2021-08-20T07:10:44-10:00 2021-08-20T06:10:44-11:00  21.31315 -157.88862       0   0.0 Hikianalia
  2021-08-20T16:18:41UTC 2021-08-20T06:18:41-10:00 2021-08-20T05:18:41-11:00  21.31303 -157.88883     223   0.0 Hōkūleʻa
  2021-08-20T16:10:05UTC 2021-08-20T06:10:05-10:00 2021-08-20T05:10:05-11:00  21.31313 -157.88862     308   0.0 Hikianalia
  2021-08-20T15:18:29UTC 2021-08-20T05:18:29-10:00 2021-08-20T04:18:29-11:00  21.31305 -157.88881       0   0.0 Hōkūleʻa
  2021-08-20T15:11:38UTC 2021-08-20T05:11:38-10:00 2021-08-20T04:11:38-11:00  21.31310 -157.88858      90   0.0 Hikianalia
  2021-08-20T14:18:23UTC 2021-08-20T04:18:23-10:00 2021-08-20T03:18:23-11:00  21.31304 -157.88881     117   0.0 Hōkūleʻa
  2021-08-20T14:09:48UTC 2021-08-20T04:09:48-10:00 2021-08-20T03:09:48-11:00  21.31310 -157.88866     255   0.0 Hikianalia
  2021-08-20T13:18:24UTC 2021-08-20T03:18:24-10:00 2021-08-20T02:18:24-11:00  21.31305 -157.88883       0   0.0 Hōkūleʻa
  2021-08-20T13:10:39UTC 2021-08-20T03:10:39-10:00 2021-08-20T02:10:39-11:00  21.31312 -157.88858      90   0.0 Hikianalia
  2021-08-20T12:19:59UTC 2021-08-20T02:19:59-10:00 2021-08-20T01:19:59-11:00  21.31305 -157.88883       0   0.0 Hōkūleʻa
  2021-08-20T12:11:11UTC 2021-08-20T02:11:11-10:00 2021-08-20T01:11:11-11:00  21.31312 -157.88862     180   0.0 Hikianalia
  2021-08-20T11:28:14UTC 2021-08-20T01:28:14-10:00 2021-08-20T00:28:14-11:00  21.31305 -157.88883     270   0.0 Hōkūleʻa
  2021-08-20T11:10:44UTC 2021-08-20T01:10:44-10:00 2021-08-20T00:10:44-11:00  21.31317 -157.88862      25   0.0 Hikianalia
  2021-08-20T10:18:27UTC 2021-08-20T00:18:27-10:00 2021-08-19T23:18:27-11:00  21.31305 -157.88881     138   0.0 Hōkūleʻa
  2021-08-20T10:11:16UTC 2021-08-20T00:11:16-10:00 2021-08-19T23:11:16-11:00  21.31312 -157.88864     270   0.0 Hikianalia
  2021-08-20T09:18:32UTC 2021-08-19T23:18:32-10:00 2021-08-19T22:18:32-11:00  21.31307 -157.88883     328   0.0 Hōkūleʻa
  2021-08-20T09:10:39UTC 2021-08-19T23:10:39-10:00 2021-08-19T22:10:39-11:00  21.31312 -157.88862      61   0.0 Hikianalia
  2021-08-20T08:18:47UTC 2021-08-19T22:18:47-10:00 2021-08-19T21:18:47-11:00  21.31304 -157.88881     205   0.0 Hōkūleʻa
  2021-08-20T08:10:44UTC 2021-08-19T22:10:44-10:00 2021-08-19T21:10:44-11:00  21.31310 -157.88866     232   0.0 Hikianalia
  2021-08-20T07:19:35UTC 2021-08-19T21:19:35-10:00 2021-08-19T20:19:35-11:00  21.31308 -157.88879       0   0.0 Hōkūleʻa
  2021-08-20T07:09:46UTC 2021-08-19T21:09:46-10:00 2021-08-19T20:09:46-11:00  21.31313 -157.88862       0   0.0 Hikianalia
  2021-08-20T06:27:25UTC 2021-08-19T20:27:25-10:00 2021-08-19T19:27:25-11:00  21.31302 -157.88879     129   0.0 Hōkūleʻa
  2021-08-20T06:11:11UTC 2021-08-19T20:11:11-10:00 2021-08-19T19:11:11-11:00  21.31312 -157.88862     104   0.0 Hikianalia
  2021-08-20T05:18:21UTC 2021-08-19T19:18:21-10:00 2021-08-19T18:18:21-11:00  21.31305 -157.88883     270   0.0 Hōkūleʻa
  2021-08-20T05:11:44UTC 2021-08-19T19:11:44-10:00 2021-08-19T18:11:44-11:00  21.31313 -157.88866     284   0.0 Hikianalia
  2021-08-20T04:18:44UTC 2021-08-19T18:18:44-10:00 2021-08-19T17:18:44-11:00  21.31305 -157.88881     270   0.0 Hōkūleʻa
  2021-08-20T04:10:25UTC 2021-08-19T18:10:25-10:00 2021-08-19T17:10:25-11:00  21.31312 -157.88862     104   0.0 Hikianalia
  2021-08-20T03:18:42UTC 2021-08-19T17:18:42-10:00 2021-08-19T16:18:42-11:00  21.31305 -157.88879       0   0.0 Hōkūleʻa
  2021-08-20T03:10:39UTC 2021-08-19T17:10:39-10:00 2021-08-19T16:10:39-11:00  21.31313 -157.88866       0   0.0 Hikianalia
  2021-08-20T02:18:30UTC 2021-08-19T16:18:30-10:00 2021-08-19T15:18:30-11:00  21.31304 -157.88879     117   0.0 Hōkūleʻa
  2021-08-20T02:10:58UTC 2021-08-19T16:10:58-10:00 2021-08-19T15:10:58-11:00  21.31313 -157.88866       0   0.0 Hikianalia
  2021-08-20T01:25:09UTC 2021-08-19T15:25:09-10:00 2021-08-19T14:25:09-11:00  21.31305 -157.88881     119   0.0 Hōkūleʻa
  2021-08-20T01:09:40UTC 2021-08-19T15:09:40-10:00 2021-08-19T14:09:40-11:00  21.31313 -157.88866     270   0.0 Hikianalia
  2021-08-20T00:18:49UTC 2021-08-19T14:18:49-10:00 2021-08-19T13:18:49-11:00  21.31306 -157.88883     280   0.0 Hōkūleʻa
  2021-08-20T00:17:58UTC 2021-08-19T14:17:58-10:00 2021-08-19T13:17:58-11:00  21.31313 -157.88862      90   0.0 Hikianalia
  2021-08-19T23:25:55UTC 2021-08-19T13:25:55-10:00 2021-08-19T12:25:55-11:00  21.31305 -157.88877      90   0.0 Hōkūleʻa
  2021-08-19T23:10:48UTC 2021-08-19T13:10:48-10:00 2021-08-19T12:10:48-11:00  21.31313 -157.88866     113   0.0 Hikianalia
  2021-08-19T22:18:32UTC 2021-08-19T12:18:32-10:00 2021-08-19T11:18:32-11:00  21.31305 -157.88881      90   0.0 Hōkūleʻa
  2021-08-19T22:09:37UTC 2021-08-19T12:09:37-10:00 2021-08-19T11:09:37-11:00  21.31318 -157.88877     274   0.0 Hikianalia
  2021-08-19T21:18:33UTC 2021-08-19T11:18:33-10:00 2021-08-19T10:18:33-11:00  21.31305 -157.88883       0   0.0 Hōkūleʻa
  2021-08-19T21:10:38UTC 2021-08-19T11:10:38-10:00 2021-08-19T10:10:38-11:00  21.31317 -157.88862       0   0.0 Hikianalia
  2021-08-19T20:17:46UTC 2021-08-19T10:17:46-10:00 2021-08-19T09:17:46-11:00  21.31305 -157.88883       0   0.0 Hōkūleʻa
  2021-08-19T20:10:17UTC 2021-08-19T10:10:17-10:00 2021-08-19T09:10:17-11:00  21.31313 -157.88862     121   0.0 Hikianalia
  2021-08-19T19:18:35UTC 2021-08-19T09:18:35-10:00 2021-08-19T08:18:35-11:00  21.31305 -157.88883     297   0.0 Hōkūleʻa
  2021-08-19T19:10:42UTC 2021-08-19T09:10:42-10:00 2021-08-19T08:10:42-11:00  21.31323 -157.88879     301   0.0 Hikianalia
  2021-08-19T18:18:33UTC 2021-08-19T08:18:33-10:00 2021-08-19T07:18:33-11:00  21.31304 -157.88881      42   0.0 Hōkūleʻa
  2021-08-19T18:10:45UTC 2021-08-19T08:10:45-10:00 2021-08-19T07:10:45-11:00  21.31314 -157.88864     328   0.0 Hikianalia
  2021-08-19T17:18:32UTC 2021-08-19T07:18:32-10:00 2021-08-19T06:18:32-11:00  21.31302 -157.88883     222   0.0 Hōkūleʻa
  2021-08-19T17:11:08UTC 2021-08-19T07:11:08-10:00 2021-08-19T06:11:08-11:00  21.31311 -157.88862     118   0.0 Hikianalia
  2021-08-19T16:17:45UTC 2021-08-19T06:17:45-10:00 2021-08-19T05:17:45-11:00  21.31304 -157.88881     180   0.0 Hōkūleʻa
  2021-08-19T16:11:04UTC 2021-08-19T06:11:04-10:00 2021-08-19T05:11:04-11:00  21.31313 -157.88866     316   0.0 Hikianalia
  2021-08-19T15:18:24UTC 2021-08-19T05:18:24-10:00 2021-08-19T04:18:24-11:00  21.31307 -157.88881      32   0.0 Hōkūleʻa
  2021-08-19T15:11:04UTC 2021-08-19T05:11:04-10:00 2021-08-19T04:11:04-11:00  21.31311 -157.88864     136   0.0 Hikianalia
  2021-08-19T14:18:30UTC 2021-08-19T04:18:30-10:00 2021-08-19T03:18:30-11:00  21.31304 -157.88883     270   0.0 Hōkūleʻa
  2021-08-19T14:10:49UTC 2021-08-19T04:10:49-10:00 2021-08-19T03:10:49-11:00  21.31313 -157.88866       0   0.0 Hikianalia
  2021-08-19T13:18:32UTC 2021-08-19T03:18:32-10:00 2021-08-19T02:18:32-11:00  21.31304 -157.88881       0   0.0 Hōkūleʻa
  2021-08-19T13:10:47UTC 2021-08-19T03:10:47-10:00 2021-08-19T02:10:47-11:00  21.31313 -157.88866     284   0.0 Hikianalia
  2021-08-19T12:18:45UTC 2021-08-19T02:18:45-10:00 2021-08-19T01:18:45-11:00  21.31304 -157.88881      42   0.0 Hōkūleʻa
  2021-08-19T12:11:18UTC 2021-08-19T02:11:18-10:00 2021-08-19T01:11:18-11:00  21.31312 -157.88862     145   0.0 Hikianalia
  2021-08-19T11:18:26UTC 2021-08-19T01:18:26-10:00 2021-08-19T00:18:26-11:00  21.31302 -157.88883     212   0.0 Hōkūleʻa
  2021-08-19T11:10:42UTC 2021-08-19T01:10:42-10:00 2021-08-19T00:10:42-11:00  21.31329 -157.88875       0   0.0 Hikianalia
  2021-08-19T10:18:20UTC 2021-08-19T00:18:20-10:00 2021-08-18T23:18:20-11:00  21.31305 -157.88881       0   0.0 Hōkūleʻa
  2021-08-19T10:09:47UTC 2021-08-19T00:09:47-10:00 2021-08-18T23:09:47-11:00  21.31326 -157.88875     325   0.0 Hikianalia
  2021-08-19T09:18:24UTC 2021-08-18T23:18:24-10:00 2021-08-18T22:18:24-11:00  21.31305 -157.88881       0   0.0 Hōkūleʻa
  2021-08-19T09:10:38UTC 2021-08-18T23:10:38-10:00 2021-08-18T22:10:38-11:00  21.31309 -157.88862     180   0.0 Hikianalia
  2021-08-19T08:18:56UTC 2021-08-18T22:18:56-10:00 2021-08-18T21:18:56-11:00  21.31304 -157.88881     299   0.0 Hōkūleʻa
  2021-08-19T08:17:47UTC 2021-08-18T22:17:47-10:00 2021-08-18T21:17:47-11:00  21.31313 -157.88862      49   0.0 Hikianalia
  2021-08-19T07:28:41UTC 2021-08-18T21:28:41-10:00 2021-08-18T20:28:41-11:00  21.31303 -157.88879       0   0.0 Hōkūleʻa
  2021-08-19T07:10:46UTC 2021-08-18T21:10:46-10:00 2021-08-18T20:10:46-11:00  21.31308 -157.88868     195   0.0 Hikianalia
  2021-08-19T06:18:31UTC 2021-08-18T20:18:31-10:00 2021-08-18T19:18:31-11:00  21.31302 -157.88879     180   0.0 Hōkūleʻa
  2021-08-19T06:10:39UTC 2021-08-18T20:10:39-10:00 2021-08-18T19:10:39-11:00  21.31323 -157.88864     350   0.0 Hikianalia
  2021-08-19T05:18:33UTC 2021-08-18T19:18:33-10:00 2021-08-18T18:18:33-11:00  21.31303 -157.88879     201   0.0 Hōkūleʻa
  2021-08-19T05:11:15UTC 2021-08-18T19:11:15-10:00 2021-08-18T18:11:15-11:00  21.31312 -157.88862     331   0.0 Hikianalia
  2021-08-19T04:20:35UTC 2021-08-18T18:20:35-10:00 2021-08-18T17:20:35-11:00  21.31302 -157.88856     128   0.0 Hikianalia
  2021-08-19T04:17:49UTC 2021-08-18T18:17:49-10:00 2021-08-18T17:17:49-11:00  21.31308 -157.88877      26   0.0 Hōkūleʻa
  2021-08-19T03:18:24UTC 2021-08-18T17:18:24-10:00 2021-08-18T16:18:24-11:00  21.31304 -157.88879     137   0.0 Hōkūleʻa
  2021-08-19T03:10:38UTC 2021-08-18T17:10:38-10:00 2021-08-18T16:10:38-11:00  21.31312 -157.88871     248   0.0 Hikianalia
  2021-08-19T02:17:29UTC 2021-08-18T16:17:29-10:00 2021-08-18T15:17:29-11:00  21.31306 -157.88881       0   0.0 Hōkūleʻa
  2021-08-19T02:10:07UTC 2021-08-18T16:10:07-10:00 2021-08-18T15:10:07-11:00  21.31315 -157.88862      10   0.0 Hikianalia
  2021-08-19T01:18:32UTC 2021-08-18T15:18:32-10:00 2021-08-18T14:18:32-11:00  21.31305 -157.88881      90   0.0 Hōkūleʻa
  2021-08-19T01:10:48UTC 2021-08-18T15:10:48-10:00 2021-08-18T14:10:48-11:00  21.31305 -157.88864     180   0.0 Hikianalia
  2021-08-19T00:20:43UTC 2021-08-18T14:20:43-10:00 2021-08-18T13:20:43-11:00  21.31313 -157.88864     335   0.0 Hikianalia
  2021-08-19T00:17:48UTC 2021-08-18T14:17:48-10:00 2021-08-18T13:17:48-11:00  21.31305 -157.88883     270   0.0 Hōkūleʻa
  2021-08-18T23:17:51UTC 2021-08-18T13:17:51-10:00 2021-08-18T12:17:51-11:00  21.31305 -157.88881     180   0.0 Hōkūleʻa
  2021-08-18T23:09:47UTC 2021-08-18T13:09:47-10:00 2021-08-18T12:09:47-11:00  21.31309 -157.88862     180   0.0 Hikianalia
  2021-08-18T22:18:32UTC 2021-08-18T12:18:32-10:00 2021-08-18T11:18:32-11:00  21.31306 -157.88881       0   0.0 Hōkūleʻa
  2021-08-18T22:11:18UTC 2021-08-18T12:11:18-10:00 2021-08-18T11:11:18-11:00  21.31314 -157.88862      75   0.0 Hikianalia
  2021-08-18T21:17:33UTC 2021-08-18T11:17:33-10:00 2021-08-18T10:17:33-11:00  21.31305 -157.88881      90   0.0 Hōkūleʻa
  2021-08-18T21:09:51UTC 2021-08-18T11:09:51-10:00 2021-08-18T10:09:51-11:00  21.31313 -157.88866     328   0.0 Hikianalia
  2021-08-18T20:17:38UTC 2021-08-18T10:17:38-10:00 2021-08-18T09:17:38-11:00  21.31305 -157.88883     297   0.0 Hōkūleʻa
  2021-08-18T20:10:42UTC 2021-08-18T10:10:42-10:00 2021-08-18T09:10:42-11:00  21.31307 -157.88862     180   0.0 Hikianalia
  2021-08-18T19:18:29UTC 2021-08-18T09:18:29-10:00 2021-08-18T08:18:29-11:00  21.31304 -157.88881      61   0.0 Hōkūleʻa
  2021-08-18T19:10:15UTC 2021-08-18T09:10:15-10:00 2021-08-18T08:10:15-11:00  21.31313 -157.88862     119   0.0 Hikianalia
  2021-08-18T18:17:30UTC 2021-08-18T08:17:30-10:00 2021-08-18T07:17:30-11:00  21.31303 -157.88883     180   0.0 Hōkūleʻa
  2021-08-18T18:11:27UTC 2021-08-18T08:11:27-10:00 2021-08-18T07:11:27-11:00  21.31314 -157.88864      71   0.0 Hikianalia
  2021-08-18T17:18:24UTC 2021-08-18T07:18:24-10:00 2021-08-18T06:18:24-11:00  21.31305 -157.88883       0   0.0 Hōkūleʻa
  2021-08-18T17:17:45UTC 2021-08-18T07:17:45-10:00 2021-08-18T06:17:45-11:00  21.31309 -157.88881     258   0.0 Hikianalia
  2021-08-18T16:18:47UTC 2021-08-18T06:18:47-10:00 2021-08-18T05:18:47-11:00  21.31304 -157.88883     270   0.0 Hōkūleʻa
  2021-08-18T16:17:35UTC 2021-08-18T06:17:35-10:00 2021-08-18T05:17:35-11:00  21.31312 -157.88864     298   0.0 Hikianalia
  2021-08-18T15:18:33UTC 2021-08-18T05:18:33-10:00 2021-08-18T04:18:33-11:00  21.31304 -157.88881      90   0.0 Hōkūleʻa
  2021-08-18T15:10:50UTC 2021-08-18T05:10:50-10:00 2021-08-18T04:10:50-11:00  21.31308 -157.88856      97   0.0 Hikianalia
  2021-08-18T14:18:22UTC 2021-08-18T04:18:22-10:00 2021-08-18T03:18:22-11:00  21.31304 -157.88883       0   0.0 Hōkūleʻa
  2021-08-18T14:10:45UTC 2021-08-18T04:10:45-10:00 2021-08-18T03:10:45-11:00  21.31309 -157.88864      90   0.0 Hikianalia
  2021-08-18T13:18:32UTC 2021-08-18T03:18:32-10:00 2021-08-18T02:18:32-11:00  21.31303 -157.88883     270   0.0 Hōkūleʻa
  2021-08-18T13:10:46UTC 2021-08-18T03:10:46-10:00 2021-08-18T02:10:46-11:00  21.31309 -157.88866     241   0.0 Hikianalia
  2021-08-18T12:18:48UTC 2021-08-18T02:18:48-10:00 2021-08-18T01:18:48-11:00  21.31303 -157.88881     137   0.0 Hōkūleʻa
  2021-08-18T12:11:18UTC 2021-08-18T02:11:18-10:00 2021-08-18T01:11:18-11:00  21.31311 -157.88862     118   0.0 Hikianalia
  2021-08-18T11:17:21UTC 2021-08-18T01:17:21-10:00 2021-08-18T00:17:21-11:00  21.31305 -157.88883       0   0.0 Hōkūleʻa
  2021-08-18T11:10:36UTC 2021-08-18T01:10:36-10:00 2021-08-18T00:10:36-11:00  21.31313 -157.88866     180   0.0 Hikianalia
  2021-08-18T10:18:24UTC 2021-08-18T00:18:24-10:00 2021-08-17T23:18:24-11:00  21.31304 -157.88883     180   0.0 Hōkūleʻa
  2021-08-18T10:09:38UTC 2021-08-18T00:09:38-10:00 2021-08-17T23:09:38-11:00  21.31315 -157.88866     327   0.0 Hikianalia
  2021-08-18T09:18:31UTC 2021-08-17T23:18:31-10:00 2021-08-17T22:18:31-11:00  21.31305 -157.88883       0   0.0 Hōkūleʻa
  2021-08-18T09:11:09UTC 2021-08-17T23:11:09-10:00 2021-08-17T22:11:09-11:00  21.31312 -157.88864     335   0.0 Hikianalia
  2021-08-18T08:18:48UTC 2021-08-17T22:18:48-10:00 2021-08-17T21:18:48-11:00  21.31305 -157.88883     241   0.0 Hōkūleʻa
  2021-08-18T08:10:38UTC 2021-08-17T22:10:38-10:00 2021-08-17T21:10:38-11:00  21.31308 -157.88862     224   0.0 Hikianalia
  2021-08-18T07:17:28UTC 2021-08-17T21:17:28-10:00 2021-08-17T20:17:28-11:00  21.31306 -157.88881       0   0.0 Hōkūleʻa
  2021-08-18T07:10:47UTC 2021-08-17T21:10:47-10:00 2021-08-17T20:10:47-11:00  21.31310 -157.88860     147   0.0 Hikianalia
  2021-08-18T06:22:06UTC 2021-08-17T20:22:06-10:00 2021-08-17T19:22:06-11:00  21.31313 -157.88862     180   0.0 Hikianalia
  2021-08-18T06:18:24UTC 2021-08-17T20:18:24-10:00 2021-08-17T19:18:24-11:00  21.31302 -157.88881     180   0.0 Hōkūleʻa
  2021-08-18T05:18:28UTC 2021-08-17T19:18:28-10:00 2021-08-17T18:18:28-11:00  21.31305 -157.88881     180   0.0 Hōkūleʻa
  2021-08-18T05:10:36UTC 2021-08-17T19:10:36-10:00 2021-08-17T18:10:36-11:00  21.31317 -157.88862       0   0.0 Hikianalia
  2021-08-18T04:18:44UTC 2021-08-17T18:18:44-10:00 2021-08-17T17:18:44-11:00  21.31306 -157.88881     180   0.0 Hōkūleʻa
  2021-08-18T04:10:38UTC 2021-08-17T18:10:38-10:00 2021-08-17T17:10:38-11:00  21.31317 -157.88862       0   0.0 Hikianalia
  2021-08-18T03:18:32UTC 2021-08-17T17:18:32-10:00 2021-08-17T16:18:32-11:00  21.31307 -157.88881       0   0.0 Hōkūleʻa
  2021-08-18T03:10:17UTC 2021-08-17T17:10:17-10:00 2021-08-17T16:10:17-11:00  21.31313 -157.88862     242   0.0 Hikianalia
  2021-08-18T02:18:24UTC 2021-08-17T16:18:24-10:00 2021-08-17T15:18:24-11:00  21.31306 -157.88881     180   0.0 Hōkūleʻa
  2021-08-18T02:10:08UTC 2021-08-17T16:10:08-10:00 2021-08-17T15:10:08-11:00  21.31314 -157.88860      80   0.0 Hikianalia
  2021-08-18T01:17:34UTC 2021-08-17T15:17:34-10:00 2021-08-17T14:17:34-11:00  21.31307 -157.88881       0   0.0 Hōkūleʻa
  2021-08-18T01:10:39UTC 2021-08-17T15:10:39-10:00 2021-08-17T14:10:39-11:00  21.31313 -157.88866       0   0.0 Hikianalia
  2021-08-18T00:19:50UTC 2021-08-17T14:19:50-10:00 2021-08-17T13:19:50-11:00  21.31313 -157.88866     270   0.0 Hikianalia
  2021-08-18T00:17:39UTC 2021-08-17T14:17:39-10:00 2021-08-17T13:17:39-11:00  21.31306 -157.88881      61   0.0 Hōkūleʻa
  2021-08-17T23:18:30UTC 2021-08-17T13:18:30-10:00 2021-08-17T12:18:30-11:00  21.31305 -157.88883     270   0.0 Hōkūleʻa
  2021-08-17T23:10:09UTC 2021-08-17T13:10:09-10:00 2021-08-17T12:10:09-11:00  21.31313 -157.88862      90   0.0 Hikianalia
  2021-08-17T22:18:33UTC 2021-08-17T12:18:33-10:00 2021-08-17T11:18:33-11:00  21.31305 -157.88879       0   0.0 Hōkūleʻa
  2021-08-17T22:10:48UTC 2021-08-17T12:10:48-10:00 2021-08-17T11:10:48-11:00  21.31313 -157.88866     125   0.0 Hikianalia
  2021-08-17T21:17:32UTC 2021-08-17T11:17:32-10:00 2021-08-17T10:17:32-11:00  21.31304 -157.88879     117   0.0 Hōkūleʻa
  2021-08-17T21:10:46UTC 2021-08-17T11:10:46-10:00 2021-08-17T10:10:46-11:00  21.31323 -157.88881     301   0.0 Hikianalia
  2021-08-17T20:19:13UTC 2021-08-17T10:19:13-10:00 2021-08-17T09:19:13-11:00  21.31305 -157.88881     119   0.0 Hōkūleʻa
  2021-08-17T20:10:16UTC 2021-08-17T10:10:16-10:00 2021-08-17T09:10:16-11:00  21.31312 -157.88862     340   0.0 Hikianalia
  2021-08-17T19:17:33UTC 2021-08-17T09:17:33-10:00 2021-08-17T08:17:33-11:00  21.31306 -157.88883     298   0.0 Hōkūleʻa
  2021-08-17T19:09:49UTC 2021-08-17T09:09:49-10:00 2021-08-17T08:09:49-11:00  21.31302 -157.88858     146   0.0 Hikianalia
  2021-08-17T18:18:32UTC 2021-08-17T08:18:32-10:00 2021-08-17T07:18:32-11:00  21.31304 -157.88879      90   0.0 Hōkūleʻa
  2021-08-17T18:10:37UTC 2021-08-17T08:10:37-10:00 2021-08-17T07:10:37-11:00  21.31313 -157.88866       0   0.0 Hikianalia
  2021-08-17T17:18:29UTC 2021-08-17T07:18:29-10:00 2021-08-17T06:18:29-11:00  21.31304 -157.88883     299   0.0 Hōkūleʻa
  2021-08-17T17:10:36UTC 2021-08-17T07:10:36-10:00 2021-08-17T06:10:36-11:00  21.31310 -157.88866     255   0.0 Hikianalia
  2021-08-17T16:18:41UTC 2021-08-17T06:18:41-10:00 2021-08-17T05:18:41-11:00  21.31303 -157.88881     180   0.0 Hōkūleʻa
  2021-08-17T16:11:13UTC 2021-08-17T06:11:13-10:00 2021-08-17T05:11:13-11:00  21.31311 -157.88862      82   0.0 Hikianalia
  2021-08-17T15:27:12UTC 2021-08-17T05:27:12-10:00 2021-08-17T04:27:12-11:00  21.31305 -157.88881       0   0.0 Hōkūleʻa
  2021-08-17T15:10:38UTC 2021-08-17T05:10:38-10:00 2021-08-17T04:10:38-11:00  21.31310 -157.88871     298   0.0 Hikianalia
  2021-08-17T14:18:32UTC 2021-08-17T04:18:32-10:00 2021-08-17T03:18:32-11:00  21.31304 -157.88881     117   0.0 Hōkūleʻa
  2021-08-17T14:09:45UTC 2021-08-17T04:09:45-10:00 2021-08-17T03:09:45-11:00  21.31305 -157.88860     165   0.0 Hikianalia
  2021-08-17T13:18:27UTC 2021-08-17T03:18:27-10:00 2021-08-17T02:18:27-11:00  21.31305 -157.88883       0   0.0 Hōkūleʻa
  2021-08-17T13:10:39UTC 2021-08-17T03:10:39-10:00 2021-08-17T02:10:39-11:00  21.31312 -157.88862       0   0.0 Hikianalia
  2021-08-17T12:18:48UTC 2021-08-17T02:18:48-10:00 2021-08-17T01:18:48-11:00  21.31305 -157.88883     127   0.0 Hōkūleʻa
  2021-08-17T12:11:11UTC 2021-08-17T02:11:11-10:00 2021-08-17T01:11:11-11:00  21.31311 -157.88862     118   0.0 Hikianalia
  2021-08-17T11:18:35UTC 2021-08-17T01:18:35-10:00 2021-08-17T00:18:35-11:00  21.31312 -157.88894     305   0.0 Hōkūleʻa
  2021-08-17T11:10:48UTC 2021-08-17T01:10:48-10:00 2021-08-17T00:10:48-11:00  21.31319 -157.88877     279   0.0 Hikianalia
  2021-08-17T10:18:30UTC 2021-08-17T00:18:30-10:00 2021-08-16T23:18:30-11:00  21.31303 -157.88879     137   0.0 Hōkūleʻa
  2021-08-17T10:10:47UTC 2021-08-17T00:10:47-10:00 2021-08-16T23:10:47-11:00  21.31317 -157.88862       0   0.0 Hikianalia
  2021-08-17T09:18:32UTC 2021-08-16T23:18:32-10:00 2021-08-16T22:18:32-11:00  21.31305 -157.88881       0   0.0 Hōkūleʻa
  2021-08-17T09:10:45UTC 2021-08-16T23:10:45-10:00 2021-08-16T22:10:45-11:00  21.31313 -157.88862       0   0.0 Hikianalia
  2021-08-17T08:18:47UTC 2021-08-16T22:18:47-10:00 2021-08-16T21:18:47-11:00  21.31304 -157.88881     180   0.0 Hōkūleʻa
  2021-08-17T08:11:18UTC 2021-08-16T22:11:18-10:00 2021-08-16T21:11:18-11:00  21.31311 -157.88862     141   0.0 Hikianalia
  2021-08-17T07:18:24UTC 2021-08-16T21:18:24-10:00 2021-08-16T20:18:24-11:00  21.31305 -157.88881       0   0.0 Hōkūleʻa
  2021-08-17T07:10:46UTC 2021-08-16T21:10:46-10:00 2021-08-16T20:10:46-11:00  21.31319 -157.88868     319   0.0 Hikianalia
  2021-08-17T06:17:32UTC 2021-08-16T20:17:32-10:00 2021-08-16T19:17:32-11:00  21.31303 -157.88881     180   0.0 Hōkūleʻa
  2021-08-17T06:10:46UTC 2021-08-16T20:10:46-10:00 2021-08-16T19:10:46-11:00  21.31305 -157.88856     137   0.0 Hikianalia
  2021-08-17T05:18:38UTC 2021-08-16T19:18:38-10:00 2021-08-16T18:18:38-11:00  21.31305 -157.88881     284   0.0 Hōkūleʻa
  2021-08-17T05:11:15UTC 2021-08-16T19:11:15-10:00 2021-08-16T18:11:15-11:00  21.31311 -157.88862     270   0.0 Hikianalia
  2021-08-17T04:18:32UTC 2021-08-16T18:18:32-10:00 2021-08-16T17:18:32-11:00  21.31304 -157.88877     118   0.0 Hōkūleʻa
  2021-08-17T04:10:39UTC 2021-08-16T18:10:39-10:00 2021-08-16T17:10:39-11:00  21.31311 -157.88858      90   0.0 Hikianalia
  2021-08-17T03:25:36UTC 2021-08-16T17:25:36-10:00 2021-08-16T16:25:36-11:00  21.31306 -157.88881       0   0.0 Hōkūleʻa
  2021-08-17T03:11:10UTC 2021-08-16T17:11:10-10:00 2021-08-16T16:11:10-11:00  21.31311 -157.88862     118   0.0 Hikianalia
  2021-08-17T02:18:48UTC 2021-08-16T16:18:48-10:00 2021-08-16T15:18:48-11:00  21.31306 -157.88881      75   0.0 Hōkūleʻa
  2021-08-17T02:09:45UTC 2021-08-16T16:09:45-10:00 2021-08-16T15:09:45-11:00  21.31313 -157.88866       0   0.0 Hikianalia
  2021-08-17T01:18:28UTC 2021-08-16T15:18:28-10:00 2021-08-16T14:18:28-11:00  21.31304 -157.88890     251   0.0 Hōkūleʻa
  2021-08-17T01:10:39UTC 2021-08-16T15:10:39-10:00 2021-08-16T14:10:39-11:00  21.31313 -157.88866     308   0.0 Hikianalia
  2021-08-17T00:27:11UTC 2021-08-16T14:27:11-10:00 2021-08-16T13:27:11-11:00  21.31306 -157.88883     299   0.0 Hōkūleʻa
  2021-08-17T00:11:28UTC 2021-08-16T14:11:28-10:00 2021-08-16T13:11:28-11:00  21.31310 -157.88862     128   0.0 Hikianalia
  2021-08-16T23:17:29UTC 2021-08-16T13:17:29-10:00 2021-08-16T12:17:29-11:00  21.31305 -157.88881       0   0.0 Hōkūleʻa
  2021-08-16T23:09:48UTC 2021-08-16T13:09:48-10:00 2021-08-16T12:09:48-11:00  21.31313 -157.88866     102   0.0 Hikianalia
  2021-08-16T22:21:55UTC 2021-08-16T12:21:55-10:00 2021-08-16T11:21:55-11:00  21.31315 -157.88877     287   0.0 Hikianalia
  2021-08-16T22:18:42UTC 2021-08-16T12:18:42-10:00 2021-08-16T11:18:42-11:00  21.31305 -157.88881      90   0.0 Hōkūleʻa
  2021-08-16T21:17:42UTC 2021-08-16T11:17:42-10:00 2021-08-16T10:17:42-11:00  21.31305 -157.88883       0   0.0 Hōkūleʻa
  2021-08-16T21:10:10UTC 2021-08-16T11:10:10-10:00 2021-08-16T10:10:10-11:00  21.31311 -157.88862     118   0.0 Hikianalia
  2021-08-16T20:18:31UTC 2021-08-16T10:18:31-10:00 2021-08-16T09:18:31-11:00  21.31304 -157.88883     180   0.0 Hōkūleʻa
  2021-08-16T20:09:50UTC 2021-08-16T10:09:50-10:00 2021-08-16T09:09:50-11:00  21.31313 -157.88866     319   0.0 Hikianalia
  2021-08-16T19:17:33UTC 2021-08-16T09:17:33-10:00 2021-08-16T08:17:33-11:00  21.31306 -157.88883       0   0.0 Hōkūleʻa
  2021-08-16T19:10:37UTC 2021-08-16T09:10:37-10:00 2021-08-16T08:10:37-11:00  21.31299 -157.88853     143   0.0 Hikianalia
  2021-08-16T18:18:40UTC 2021-08-16T08:18:40-10:00 2021-08-16T07:18:40-11:00  21.31304 -157.88883     280   0.0 Hōkūleʻa
  2021-08-16T18:10:10UTC 2021-08-16T08:10:10-10:00 2021-08-16T07:10:10-11:00  21.31310 -157.88862      61   0.0 Hikianalia
  2021-08-16T17:18:41UTC 2021-08-16T07:18:41-10:00 2021-08-16T06:18:41-11:00  21.31303 -157.88877      54   0.0 Hōkūleʻa
  2021-08-16T17:11:16UTC 2021-08-16T07:11:16-10:00 2021-08-16T06:11:16-11:00  21.31309 -157.88864      15   0.0 Hikianalia
  2021-08-16T16:18:37UTC 2021-08-16T06:18:37-10:00 2021-08-16T05:18:37-11:00  21.31298 -157.88883     212   0.0 Hōkūleʻa
  2021-08-16T16:10:46UTC 2021-08-16T06:10:46-10:00 2021-08-16T05:10:46-11:00  21.31302 -157.88866     217   0.0 Hikianalia
  2021-08-16T15:18:24UTC 2021-08-16T05:18:24-10:00 2021-08-16T04:18:24-11:00  21.31302 -157.88881     285   0.0 Hōkūleʻa
  2021-08-16T15:10:45UTC 2021-08-16T05:10:45-10:00 2021-08-16T04:10:45-11:00  21.31307 -157.88862     180   0.0 Hikianalia
  2021-08-16T14:18:45UTC 2021-08-16T04:18:45-10:00 2021-08-16T03:18:45-11:00  21.31300 -157.88877     118   0.0 Hōkūleʻa
  2021-08-16T14:11:09UTC 2021-08-16T04:11:09-10:00 2021-08-16T03:11:09-11:00  21.31310 -157.88862     280   0.0 Hikianalia
  2021-08-16T13:18:27UTC 2021-08-16T03:18:27-10:00 2021-08-16T02:18:27-11:00  21.31302 -157.88879      90   0.0 Hōkūleʻa
  2021-08-16T13:10:47UTC 2021-08-16T03:10:47-10:00 2021-08-16T02:10:47-11:00  21.31309 -157.88856     102   0.0 Hikianalia
  2021-08-16T12:18:23UTC 2021-08-16T02:18:23-10:00 2021-08-16T01:18:23-11:00  21.31302 -157.88881     299   0.0 Hōkūleʻa
  2021-08-16T12:10:49UTC 2021-08-16T02:10:49-10:00 2021-08-16T01:10:49-11:00  21.31311 -157.88866     137   0.0 Hikianalia
  2021-08-16T11:26:34UTC 2021-08-16T01:26:34-10:00 2021-08-16T00:26:34-11:00  21.31300 -157.88879     138   0.0 Hōkūleʻa
  2021-08-16T11:10:43UTC 2021-08-16T01:10:43-10:00 2021-08-16T00:10:43-11:00  21.31313 -157.88868     284   0.0 Hikianalia
  2021-08-16T10:18:00UTC 2021-08-16T00:18:00-10:00 2021-08-15T23:18:00-11:00  21.31303 -157.88881     299   0.0 Hōkūleʻa
  2021-08-16T10:11:06UTC 2021-08-16T00:11:06-10:00 2021-08-15T23:11:06-11:00  21.31312 -157.88864     299   0.0 Hikianalia
  2021-08-16T09:18:29UTC 2021-08-15T23:18:29-10:00 2021-08-15T22:18:29-11:00  21.31302 -157.88879       0   0.0 Hōkūleʻa
  2021-08-16T09:11:01UTC 2021-08-15T23:11:01-10:00 2021-08-15T22:11:01-11:00  21.31311 -157.88862     180   0.0 Hikianalia
  2021-08-16T08:18:32UTC 2021-08-15T22:18:32-10:00 2021-08-15T21:18:32-11:00  21.31302 -157.88879     327   0.0 Hōkūleʻa
  2021-08-16T08:10:17UTC 2021-08-15T22:10:17-10:00 2021-08-15T21:10:17-11:00  21.31312 -157.88862      75   0.0 Hikianalia
  2021-08-16T07:18:32UTC 2021-08-15T21:18:32-10:00 2021-08-15T20:18:32-11:00  21.31298 -157.88877     147   0.0 Hōkūleʻa
  2021-08-16T07:10:39UTC 2021-08-15T21:10:39-10:00 2021-08-15T20:10:39-11:00  21.31311 -157.88866     280   0.0 Hikianalia
  2021-08-16T06:18:49UTC 2021-08-15T20:18:49-10:00 2021-08-15T19:18:49-11:00  21.31302 -157.88879       0   0.0 Hōkūleʻa
  2021-08-16T06:10:46UTC 2021-08-15T20:10:46-10:00 2021-08-15T19:10:46-11:00  21.31310 -157.88860      90   0.0 Hikianalia
  2021-08-16T05:18:28UTC 2021-08-15T19:18:28-10:00 2021-08-15T18:18:28-11:00  21.31299 -157.88879     224   0.0 Hōkūleʻa
  2021-08-16T05:11:17UTC 2021-08-15T19:11:17-10:00 2021-08-15T18:11:17-11:00  21.31310 -157.88862     232   0.0 Hikianalia
  2021-08-16T04:17:25UTC 2021-08-15T18:17:25-10:00 2021-08-15T17:17:25-11:00  21.31302 -157.88877       0   0.0 Hōkūleʻa
  2021-08-16T04:10:48UTC 2021-08-15T18:10:48-10:00 2021-08-15T17:10:48-11:00  21.31313 -157.88858      43   0.0 Hikianalia
  2021-08-16T03:18:24UTC 2021-08-15T17:18:24-10:00 2021-08-15T16:18:24-11:00  21.31300 -157.88877     137   0.0 Hōkūleʻa
  2021-08-16T03:11:11UTC 2021-08-15T17:11:11-10:00 2021-08-15T16:11:11-11:00  21.31311 -157.88860     109   0.0 Hikianalia
  2021-08-16T02:17:45UTC 2021-08-15T16:17:45-10:00 2021-08-15T15:17:45-11:00  21.31303 -157.88879     119   0.0 Hōkūleʻa
  2021-08-16T02:09:51UTC 2021-08-15T16:09:51-10:00 2021-08-15T15:09:51-11:00  21.31313 -157.88866     285   0.0 Hikianalia
  2021-08-16T01:18:33UTC 2021-08-15T15:18:33-10:00 2021-08-15T14:18:33-11:00  21.31304 -157.88881     299   0.0 Hōkūleʻa
  2021-08-16T01:10:47UTC 2021-08-15T15:10:47-10:00 2021-08-15T14:10:47-11:00  21.31309 -157.88849     112   0.0 Hikianalia
  2021-08-16T00:31:43UTC 2021-08-15T14:31:43-10:00 2021-08-15T13:31:43-11:00  21.31312 -157.88858      97   0.0 Hikianalia
  2021-08-16T00:17:31UTC 2021-08-15T14:17:31-10:00 2021-08-15T13:17:31-11:00  21.31303 -157.88879       0   0.0 Hōkūleʻa
  2021-08-15T23:18:37UTC 2021-08-15T13:18:37-10:00 2021-08-15T12:18:37-11:00  21.31302 -157.88879       0   0.0 Hōkūleʻa
  2021-08-15T23:18:20UTC 2021-08-15T13:18:20-10:00 2021-08-15T12:18:20-11:00  21.31313 -157.88866     270   0.0 Hikianalia
  2021-08-15T22:27:03UTC 2021-08-15T12:27:03-10:00 2021-08-15T11:27:03-11:00  21.31302 -157.88879       0   0.0 Hōkūleʻa
  2021-08-15T22:09:59UTC 2021-08-15T12:09:59-10:00 2021-08-15T11:09:59-11:00  21.31313 -157.88864     297   0.0 Hikianalia
  2021-08-15T21:17:32UTC 2021-08-15T11:17:32-10:00 2021-08-15T10:17:32-11:00  21.31302 -157.88879      43   0.0 Hōkūleʻa
  2021-08-15T21:09:39UTC 2021-08-15T11:09:39-10:00 2021-08-15T10:09:39-11:00  21.31312 -157.88862       0   0.0 Hikianalia
  2021-08-15T20:17:38UTC 2021-08-15T10:17:38-10:00 2021-08-15T09:17:38-11:00  21.31299 -157.88881     280   0.0 Hōkūleʻa
  2021-08-15T20:10:09UTC 2021-08-15T10:10:09-10:00 2021-08-15T09:10:09-11:00  21.31312 -157.88862     306   0.0 Hikianalia
  2021-08-15T19:18:40UTC 2021-08-15T09:18:40-10:00 2021-08-15T08:18:40-11:00  21.31298 -157.88875     137   0.0 Hōkūleʻa
  2021-08-15T19:10:47UTC 2021-08-15T09:10:47-10:00 2021-08-15T08:10:47-11:00  21.31308 -157.88856     105   0.0 Hikianalia
  2021-08-15T18:18:31UTC 2021-08-15T08:18:31-10:00 2021-08-15T07:18:31-11:00  21.31303 -157.88879     119   0.0 Hōkūleʻa
  2021-08-15T18:09:47UTC 2021-08-15T08:09:47-10:00 2021-08-15T07:09:47-11:00  21.31310 -157.88864     205   0.0 Hikianalia
  2021-08-15T17:17:30UTC 2021-08-15T07:17:30-10:00 2021-08-15T06:17:30-11:00  21.31304 -157.88881       0   0.0 Hōkūleʻa
  2021-08-15T17:10:38UTC 2021-08-15T07:10:38-10:00 2021-08-15T06:10:38-11:00  21.31314 -157.88862       0   0.0 Hikianalia
  2021-08-15T16:18:37UTC 2021-08-15T06:18:37-10:00 2021-08-15T05:18:37-11:00  21.31302 -157.88881     317   0.0 Hōkūleʻa
  2021-08-15T16:11:08UTC 2021-08-15T06:11:08-10:00 2021-08-15T05:11:08-11:00  21.31310 -157.88862     242   0.0 Hikianalia
  2021-08-15T15:21:24UTC 2021-08-15T05:21:24-10:00 2021-08-15T04:21:24-11:00  21.31313 -157.88856      62   0.0 Hikianalia
  2021-08-15T15:18:30UTC 2021-08-15T05:18:30-10:00 2021-08-15T04:18:30-11:00  21.31299 -157.88879      74   0.0 Hōkūleʻa
  2021-08-15T14:18:29UTC 2021-08-15T04:18:29-10:00 2021-08-15T03:18:29-11:00  21.31298 -157.88883     212   0.0 Hōkūleʻa
  2021-08-15T14:10:43UTC 2021-08-15T04:10:43-10:00 2021-08-15T03:10:43-11:00  21.31310 -157.88862     180   0.0 Hikianalia
  2021-08-15T13:18:31UTC 2021-08-15T03:18:31-10:00 2021-08-15T02:18:31-11:00  21.31302 -157.88881     270   0.0 Hōkūleʻa
  2021-08-15T13:10:47UTC 2021-08-15T03:10:47-10:00 2021-08-15T02:10:47-11:00  21.31312 -157.88862       0   0.0 Hikianalia
  2021-08-15T12:18:39UTC 2021-08-15T02:18:39-10:00 2021-08-15T01:18:39-11:00  21.31302 -157.88879      61   0.0 Hōkūleʻa
  2021-08-15T12:11:09UTC 2021-08-15T02:11:09-10:00 2021-08-15T01:11:09-11:00  21.31309 -157.88862     134   0.0 Hikianalia
  2021-08-15T11:18:37UTC 2021-08-15T01:18:37-10:00 2021-08-15T00:18:37-11:00  21.31300 -157.88881       0   0.0 Hōkūleʻa
  2021-08-15T11:10:50UTC 2021-08-15T01:10:50-10:00 2021-08-15T00:10:50-11:00  21.31319 -157.88873     314   0.0 Hikianalia
  2021-08-15T10:18:32UTC 2021-08-15T00:18:32-10:00 2021-08-14T23:18:32-11:00  21.31299 -157.88881     223   0.0 Hōkūleʻa
  2021-08-15T10:10:40UTC 2021-08-15T00:10:40-10:00 2021-08-14T23:10:40-11:00  21.31309 -157.88862     180   0.0 Hikianalia
  2021-08-15T09:18:31UTC 2021-08-14T23:18:31-10:00 2021-08-14T22:18:31-11:00  21.31302 -157.88879       0   0.0 Hōkūleʻa
  2021-08-15T09:10:48UTC 2021-08-14T23:10:48-10:00 2021-08-14T22:10:48-11:00  21.31310 -157.88862      25   1.1 Hikianalia
  2021-08-15T08:18:38UTC 2021-08-14T22:18:38-10:00 2021-08-14T21:18:38-11:00  21.31300 -157.88879     180   0.0 Hōkūleʻa
  2021-08-15T08:11:14UTC 2021-08-14T22:11:14-10:00 2021-08-14T21:11:14-11:00  21.29616 -157.89701     303   7.5 Hikianalia
  2021-08-15T07:18:42UTC 2021-08-14T21:18:42-10:00 2021-08-14T20:18:42-11:00  21.31303 -157.88879       0   0.0 Hōkūleʻa
  2021-08-15T07:10:47UTC 2021-08-14T21:10:47-10:00 2021-08-14T20:10:47-11:00  21.22743 -157.78313     294   9.6 Hikianalia
  2021-08-15T06:17:32UTC 2021-08-14T20:17:32-10:00 2021-08-14T19:17:32-11:00  21.31300 -157.88879     270   0.0 Hōkūleʻa
  2021-08-15T06:10:52UTC 2021-08-14T20:10:52-10:00 2021-08-14T19:10:52-11:00  21.16338 -157.62585     293   8.9 Hikianalia
  2021-08-15T05:18:21UTC 2021-08-14T19:18:21-10:00 2021-08-14T18:18:21-11:00  21.31300 -157.88877     119   0.0 Hōkūleʻa
  2021-08-15T05:09:51UTC 2021-08-14T19:09:51-10:00 2021-08-14T19:09:51-10:00  21.10558 -157.47732     287   7.0 Hikianalia
  2021-08-15T04:18:42UTC 2021-08-14T18:18:42-10:00 2021-08-14T17:18:42-11:00  21.31303 -157.88881     270   0.0 Hōkūleʻa
  2021-08-15T03:18:33UTC 2021-08-14T17:18:33-10:00 2021-08-14T16:18:33-11:00  21.31303 -157.88877     118   0.0 Hōkūleʻa
  2021-08-15T02:17:28UTC 2021-08-14T16:17:28-10:00 2021-08-14T15:17:28-11:00  21.31305 -157.88881       0   0.0 Hōkūleʻa
  2021-08-15T02:09:43UTC 2021-08-14T16:09:43-10:00 2021-08-14T16:09:43-10:00  21.00466 -157.11762     281   6.5 Hikianalia
  2021-08-15T01:18:25UTC 2021-08-14T15:18:25-10:00 2021-08-14T14:18:25-11:00  21.31302 -157.88881       0   0.0 Hōkūleʻa
  2021-08-15T01:10:47UTC 2021-08-14T15:10:47-10:00 2021-08-14T15:10:47-10:00  20.98381 -157.00596     286   7.2 Hikianalia
  2021-08-15T00:17:45UTC 2021-08-14T14:17:45-10:00 2021-08-14T13:17:45-11:00  21.31302 -157.88881     270   0.0 Hōkūleʻa
  2021-08-15T00:10:20UTC 2021-08-14T14:10:20-10:00 2021-08-14T14:10:20-10:00  20.94978 -156.88193     284   7.6 Hikianalia
  2021-08-14T23:18:28UTC 2021-08-14T13:18:28-10:00 2021-08-14T12:18:28-11:00  21.31302 -157.88877      90   0.0 Hōkūleʻa
  2021-08-14T23:09:51UTC 2021-08-14T13:09:51-10:00 2021-08-14T13:09:51-10:00  20.91775 -156.74924     290   3.7 Hikianalia
  2021-08-14T22:17:22UTC 2021-08-14T12:17:22-10:00 2021-08-14T11:17:22-11:00  21.31302 -157.88881     241   0.0 Hōkūleʻa
  2021-08-14T22:09:48UTC 2021-08-14T12:09:48-10:00 2021-08-14T12:09:48-10:00  20.89673 -156.68708     217   0.0 Hikianalia
  2021-08-14T21:17:24UTC 2021-08-14T11:17:24-10:00 2021-08-14T10:17:24-11:00  21.31303 -157.88879      61   0.0 Hōkūleʻa
  2021-08-14T21:10:47UTC 2021-08-14T11:10:47-10:00 2021-08-14T11:10:47-10:00  20.89683 -156.68699      46   0.0 Hikianalia
  2021-08-14T20:17:47UTC 2021-08-14T10:17:47-10:00 2021-08-14T09:17:47-11:00  21.31302 -157.88881      43   0.0 Hōkūleʻa
  2021-08-14T20:11:22UTC 2021-08-14T10:11:22-10:00 2021-08-14T10:11:22-10:00  20.89672 -156.68712     265   0.0 Hikianalia
  2021-08-14T19:18:36UTC 2021-08-14T09:18:36-10:00 2021-08-14T08:18:36-11:00  21.31299 -157.88883       0   0.0 Hōkūleʻa
  2021-08-14T19:09:48UTC 2021-08-14T09:09:48-10:00 2021-08-14T09:09:48-10:00  20.89673 -156.68699      78   0.0 Hikianalia
  2021-08-14T18:18:33UTC 2021-08-14T08:18:33-10:00 2021-08-14T07:18:33-11:00  21.31299 -157.88883     243   0.0 Hōkūleʻa
  2021-08-14T18:10:39UTC 2021-08-14T08:10:39-10:00 2021-08-14T08:10:39-10:00  20.89663 -156.68746      42   1.1 Hikianalia
  2021-08-14T17:18:30UTC 2021-08-14T07:18:30-10:00 2021-08-14T06:18:30-11:00  21.31300 -157.88881       0   0.0 Hōkūleʻa
  2021-08-14T17:10:50UTC 2021-08-14T07:10:50-10:00 2021-08-14T07:10:50-10:00  20.88324 -156.70040      25   3.6 Hikianalia
  2021-08-14T16:18:38UTC 2021-08-14T06:18:38-10:00 2021-08-14T05:18:38-11:00  21.31300 -157.88881     180   0.0 Hōkūleʻa
  2021-08-14T16:11:14UTC 2021-08-14T06:11:14-10:00 2021-08-14T06:11:14-10:00  20.82942 -156.72718      40   3.8 Hikianalia
  2021-08-14T15:26:48UTC 2021-08-14T05:26:48-10:00 2021-08-14T04:26:48-11:00  21.31302 -157.88881     299   0.0 Hōkūleʻa
  2021-08-14T15:10:43UTC 2021-08-14T05:10:43-10:00 2021-08-14T05:10:43-10:00  20.78004 -156.77164      47   4.1 Hikianalia
  2021-08-14T14:18:27UTC 2021-08-14T04:18:27-10:00 2021-08-14T03:18:27-11:00  21.31300 -157.88879       0   0.0 Hōkūleʻa
  2021-08-14T14:09:49UTC 2021-08-14T04:09:49-10:00 2021-08-14T04:09:49-10:00  20.73303 -156.82524      70   3.8 Hikianalia
  2021-08-14T13:18:32UTC 2021-08-14T03:18:32-10:00 2021-08-14T02:18:32-11:00  21.31300 -157.88879      90   0.0 Hōkūleʻa
  2021-08-14T13:10:40UTC 2021-08-14T03:10:40-10:00 2021-08-14T03:10:40-10:00  20.71158 -156.88719     106   4.0 Hikianalia
  2021-08-14T12:18:48UTC 2021-08-14T02:18:48-10:00 2021-08-14T01:18:48-11:00  21.31300 -157.88881     180   0.0 Hōkūleʻa
  2021-08-14T11:17:22UTC 2021-08-14T01:17:22-10:00 2021-08-14T00:17:22-11:00  21.31303 -157.88881       0   0.0 Hōkūleʻa
  2021-08-14T11:11:51UTC 2021-08-14T01:11:51-10:00 2021-08-14T01:11:51-10:00  20.74764 -157.02285     133   5.2 Hikianalia
  2021-08-14T10:18:20UTC 2021-08-14T00:18:20-10:00 2021-08-13T23:18:20-11:00  21.31300 -157.88881       0   0.0 Hōkūleʻa
  2021-08-14T10:10:51UTC 2021-08-14T00:10:51-10:00 2021-08-14T00:10:51-10:00  20.80705 -157.09138     131   4.9 Hikianalia
  2021-08-14T09:29:40UTC 2021-08-13T23:29:40-10:00 2021-08-13T22:29:40-11:00  21.31300 -157.88881     241   0.0 Hōkūleʻa
  2021-08-14T09:10:48UTC 2021-08-13T23:10:48-10:00 2021-08-13T23:10:48-10:00  20.86097 -157.15792     130   4.0 Hikianalia
  2021-08-14T08:17:44UTC 2021-08-13T22:17:44-10:00 2021-08-13T21:17:44-11:00  21.31302 -157.88879     138   0.0 Hōkūleʻa
  2021-08-14T08:10:18UTC 2021-08-13T22:10:18-10:00 2021-08-13T22:10:18-10:00  20.90472 -157.21318     131   4.4 Hikianalia
  2021-08-14T07:19:24UTC 2021-08-13T21:19:24-10:00 2021-08-13T20:19:24-11:00  21.31304 -157.88881     318   0.0 Hōkūleʻa
  2021-08-14T06:17:44UTC 2021-08-13T20:17:44-10:00 2021-08-13T19:17:44-11:00  21.31302 -157.88879     242   0.0 Hōkūleʻa
  2021-08-14T05:18:21UTC 2021-08-13T19:18:21-10:00 2021-08-13T18:18:21-11:00  21.31303 -157.88877      90   0.0 Hōkūleʻa
  2021-08-14T04:18:41UTC 2021-08-13T18:18:41-10:00 2021-08-13T17:18:41-11:00  21.31303 -157.88879       0   0.0 Hōkūleʻa
  2021-08-14T04:10:12UTC 2021-08-13T18:10:12-10:00 2021-08-13T18:10:12-10:00  21.09868 -157.44822     130   5.3 Hikianalia
  2021-08-14T03:17:30UTC 2021-08-13T17:17:30-10:00 2021-08-13T16:17:30-11:00  21.31303 -157.88879     119   0.0 Hōkūleʻa
  2021-08-14T03:10:43UTC 2021-08-13T17:10:43-10:00 2021-08-13T16:10:43-11:00  21.15446 -157.51974     128   5.4 Hikianalia
  2021-08-14T02:18:33UTC 2021-08-13T16:18:33-10:00 2021-08-13T15:18:33-11:00  21.31304 -157.88881      61   0.0 Hōkūleʻa
  2021-08-14T02:09:46UTC 2021-08-13T16:09:46-10:00 2021-08-13T15:09:46-11:00  21.21052 -157.59628     117   4.4 Hikianalia
  2021-08-14T01:17:32UTC 2021-08-13T15:17:32-10:00 2021-08-13T14:17:32-11:00  21.31303 -157.88883     180   0.0 Hōkūleʻa
  2021-08-14T01:10:14UTC 2021-08-13T15:10:14-10:00 2021-08-13T14:10:14-11:00  21.24344 -157.66664      93   5.8 Hikianalia
  2021-08-14T00:17:40UTC 2021-08-13T14:17:40-10:00 2021-08-13T13:17:40-11:00  21.31305 -157.88883     318   0.0 Hōkūleʻa
  2021-08-14T00:10:39UTC 2021-08-13T14:10:39-10:00 2021-08-13T13:10:39-11:00  21.24817 -157.77011     105   6.1 Hikianalia
  2021-08-13T23:27:14UTC 2021-08-13T13:27:14-10:00 2021-08-13T12:27:14-11:00  21.31300 -157.88879     242   0.0 Hōkūleʻa
  2021-08-13T23:10:15UTC 2021-08-13T13:10:15-10:00 2021-08-13T12:10:15-11:00  21.27550 -157.87626     163   2.4 Hikianalia
  2021-08-13T22:17:32UTC 2021-08-13T12:17:32-10:00 2021-08-13T11:17:32-11:00  21.31302 -157.88877      75   0.0 Hōkūleʻa
  2021-08-13T22:10:51UTC 2021-08-13T12:10:51-10:00 2021-08-13T11:10:51-11:00  21.31310 -157.88862     270   0.0 Hikianalia
  2021-08-13T21:17:41UTC 2021-08-13T11:17:41-10:00 2021-08-13T10:17:41-11:00  21.31300 -157.88881     180   0.0 Hōkūleʻa
  2021-08-13T21:09:45UTC 2021-08-13T11:09:45-10:00 2021-08-13T10:09:45-11:00  21.31310 -157.88853      98   0.0 Hikianalia
  2021-08-13T20:18:46UTC 2021-08-13T10:18:46-10:00 2021-08-13T09:18:46-11:00  21.31303 -157.88881       0   0.0 Hōkūleʻa
  2021-08-13T20:11:16UTC 2021-08-13T10:11:16-10:00 2021-08-13T09:11:16-11:00  21.31311 -157.88862     137   0.0 Hikianalia
  2021-08-13T19:18:44UTC 2021-08-13T09:18:44-10:00 2021-08-13T08:18:44-11:00  21.31300 -157.88881      90   0.0 Hōkūleʻa
  2021-08-13T19:17:08UTC 2021-08-13T09:17:08-10:00 2021-08-13T08:17:08-11:00  21.31313 -157.88864     343   0.0 Hikianalia
  2021-08-13T18:25:16UTC 2021-08-13T08:25:16-10:00 2021-08-13T07:25:16-11:00  21.31300 -157.88883       0   0.0 Hōkūleʻa
  2021-08-13T18:10:38UTC 2021-08-13T08:10:38-10:00 2021-08-13T07:10:38-11:00  21.31307 -157.88862     180   0.0 Hikianalia
  2021-08-13T17:18:30UTC 2021-08-13T07:18:30-10:00 2021-08-13T06:18:30-11:00  21.31300 -157.88883       0   0.0 Hōkūleʻa
  2021-08-13T17:11:16UTC 2021-08-13T07:11:16-10:00 2021-08-13T06:11:16-11:00  21.31310 -157.88862      52   0.0 Hikianalia
  2021-08-13T16:18:47UTC 2021-08-13T06:18:47-10:00 2021-08-13T05:18:47-11:00  21.31299 -157.88883     180   0.0 Hōkūleʻa
  2021-08-13T16:11:14UTC 2021-08-13T06:11:14-10:00 2021-08-13T05:11:14-11:00  21.31307 -157.88866     224   0.0 Hikianalia
  2021-08-13T15:17:36UTC 2021-08-13T05:17:36-10:00 2021-08-13T04:17:36-11:00  21.31302 -157.88883     299   0.0 Hōkūleʻa
  2021-08-13T15:10:37UTC 2021-08-13T05:10:37-10:00 2021-08-13T04:10:37-11:00  21.31309 -157.88864      26   0.0 Hikianalia
  2021-08-13T14:18:23UTC 2021-08-13T04:18:23-10:00 2021-08-13T03:18:23-11:00  21.31300 -157.88881     180   0.0 Hōkūleʻa
  2021-08-13T14:10:41UTC 2021-08-13T04:10:41-10:00 2021-08-13T03:10:41-11:00  21.31305 -157.88866       0   0.0 Hikianalia
  2021-08-13T13:18:24UTC 2021-08-13T03:18:24-10:00 2021-08-13T02:18:24-11:00  21.31302 -157.88881       0   0.0 Hōkūleʻa
  2021-08-13T13:10:48UTC 2021-08-13T03:10:48-10:00 2021-08-13T02:10:48-11:00  21.31304 -157.88866     198   0.0 Hikianalia
  2021-08-13T12:18:47UTC 2021-08-13T02:18:47-10:00 2021-08-13T01:18:47-11:00  21.31300 -157.88881     270   0.0 Hōkūleʻa
  2021-08-13T12:11:18UTC 2021-08-13T02:11:18-10:00 2021-08-13T01:11:18-11:00  21.31310 -157.88864     317   0.0 Hikianalia
  2021-08-13T11:18:32UTC 2021-08-13T01:18:32-10:00 2021-08-13T00:18:32-11:00  21.31300 -157.88879      63   0.0 Hōkūleʻa
  2021-08-13T11:10:38UTC 2021-08-13T01:10:38-10:00 2021-08-13T00:10:38-11:00  21.31302 -157.88856     137   0.0 Hikianalia
  2021-08-13T10:18:35UTC 2021-08-13T00:18:35-10:00 2021-08-12T23:18:35-11:00  21.31299 -157.88881       0   0.0 Hōkūleʻa
  2021-08-13T10:10:49UTC 2021-08-13T00:10:49-10:00 2021-08-12T23:10:49-11:00  21.31310 -157.88864     270   0.0 Hikianalia
  2021-08-13T09:18:32UTC 2021-08-12T23:18:32-10:00 2021-08-12T22:18:32-11:00  21.31299 -157.88881     180   0.0 Hōkūleʻa
  2021-08-13T09:11:12UTC 2021-08-12T23:11:12-10:00 2021-08-12T22:11:12-11:00  21.31310 -157.88862       0   0.0 Hikianalia
  2021-08-13T08:18:45UTC 2021-08-12T22:18:45-10:00 2021-08-12T21:18:45-11:00  21.31302 -157.88881       0   0.0 Hōkūleʻa
  2021-08-13T08:11:09UTC 2021-08-12T22:11:09-10:00 2021-08-12T21:11:09-11:00  21.31310 -157.88862     312   0.2 Hikianalia
  2021-08-13T07:18:28UTC 2021-08-12T21:18:28-10:00 2021-08-12T20:18:28-11:00  21.31300 -157.88881     165   0.0 Hōkūleʻa
  2021-08-13T07:09:55UTC 2021-08-12T21:09:55-10:00 2021-08-12T20:09:55-11:00  21.31066 -157.88568     131   0.2 Hikianalia
  2021-08-13T06:19:30UTC 2021-08-12T20:19:30-10:00 2021-08-12T19:19:30-11:00  21.31308 -157.88883       0   0.0 Hōkūleʻa
  2021-08-13T06:10:47UTC 2021-08-12T20:10:47-10:00 2021-08-12T19:10:47-11:00  21.31299 -157.88856     157   0.0 Hikianalia
  2021-08-13T05:18:32UTC 2021-08-12T19:18:32-10:00 2021-08-12T18:18:32-11:00  21.31302 -157.88883     270   0.0 Hōkūleʻa
  2021-08-13T05:10:43UTC 2021-08-12T19:10:43-10:00 2021-08-12T18:10:43-11:00  21.31313 -157.88862       0   0.0 Hikianalia
  2021-08-13T04:17:46UTC 2021-08-12T18:17:46-10:00 2021-08-12T17:17:46-11:00  21.31302 -157.88881     285   0.0 Hōkūleʻa
  2021-08-13T04:11:17UTC 2021-08-12T18:11:17-10:00 2021-08-12T17:11:17-11:00  21.31313 -157.88862       0   0.0 Hikianalia
  2021-08-13T03:18:31UTC 2021-08-12T17:18:31-10:00 2021-08-12T16:18:31-11:00  21.31300 -157.88877     105   0.0 Hōkūleʻa
  2021-08-13T03:17:32UTC 2021-08-12T17:17:32-10:00 2021-08-12T16:17:32-11:00  21.31313 -157.88862       0   0.0 Hikianalia
  2021-08-13T02:18:29UTC 2021-08-12T16:18:29-10:00 2021-08-12T15:18:29-11:00  21.31302 -157.88881       0   0.0 Hōkūleʻa
  2021-08-13T02:10:36UTC 2021-08-12T16:10:36-10:00 2021-08-12T15:10:36-11:00  21.31313 -157.88862       0   0.0 Hikianalia
  2021-08-13T01:18:33UTC 2021-08-12T15:18:33-10:00 2021-08-12T14:18:33-11:00  21.31299 -157.88881     243   0.0 Hōkūleʻa
  2021-08-13T01:10:47UTC 2021-08-12T15:10:47-10:00 2021-08-12T14:10:47-11:00  21.31313 -157.88862       0   0.0 Hikianalia
  2021-08-13T00:17:47UTC 2021-08-12T14:17:47-10:00 2021-08-12T13:17:47-11:00  21.31300 -157.88879     110   0.0 Hōkūleʻa
  2021-08-13T00:10:18UTC 2021-08-12T14:10:18-10:00 2021-08-12T13:10:18-11:00  21.31310 -157.88862     180   0.0 Hikianalia
  2021-08-12T23:17:35UTC 2021-08-12T13:17:35-10:00 2021-08-12T12:17:35-11:00  21.31303 -157.88886     298   0.0 Hōkūleʻa
  2021-08-12T23:09:44UTC 2021-08-12T13:09:44-10:00 2021-08-12T12:09:44-11:00  21.31313 -157.88862       0   0.0 Hikianalia
  2021-08-12T22:17:46UTC 2021-08-12T12:17:46-10:00 2021-08-12T11:17:46-11:00  21.31302 -157.88883     270   0.0 Hōkūleʻa
  2021-08-12T22:09:49UTC 2021-08-12T12:09:49-10:00 2021-08-12T11:09:49-11:00  21.31313 -157.88862     124   0.0 Hikianalia
  2021-08-12T21:18:24UTC 2021-08-12T11:18:24-10:00 2021-08-12T10:18:24-11:00  21.31302 -157.88881       0   0.0 Hōkūleʻa
  2021-08-12T21:10:19UTC 2021-08-12T11:10:19-10:00 2021-08-12T10:10:19-11:00  21.31319 -157.88871     293   0.0 Hikianalia
  2021-08-12T20:17:38UTC 2021-08-12T10:17:38-10:00 2021-08-12T09:17:38-11:00  21.31302 -157.88881     298   0.0 Hōkūleʻa
  2021-08-12T20:10:08UTC 2021-08-12T10:10:08-10:00 2021-08-12T09:10:08-11:00  21.31314 -157.88860      71   0.0 Hikianalia
  2021-08-12T19:17:35UTC 2021-08-12T09:17:35-10:00 2021-08-12T08:17:35-11:00  21.31299 -157.88877      90   0.0 Hōkūleʻa
  2021-08-12T19:10:38UTC 2021-08-12T09:10:38-10:00 2021-08-12T08:10:38-11:00  21.31312 -157.88866     244   0.0 Hikianalia
  2021-08-12T18:18:34UTC 2021-08-12T08:18:34-10:00 2021-08-12T07:18:34-11:00  21.31299 -157.88881     180   0.0 Hōkūleʻa
  2021-08-12T18:10:45UTC 2021-08-12T08:10:45-10:00 2021-08-12T07:10:45-11:00  21.31313 -157.88864      44   0.0 Hikianalia
  2021-08-12T17:18:31UTC 2021-08-12T07:18:31-10:00 2021-08-12T06:18:31-11:00  21.31302 -157.88881     119   0.0 Hōkūleʻa
  2021-08-12T17:10:16UTC 2021-08-12T07:10:16-10:00 2021-08-12T06:10:16-11:00  21.31311 -157.88866      10   0.0 Hikianalia
  2021-08-12T16:18:43UTC 2021-08-12T06:18:43-10:00 2021-08-12T05:18:43-11:00  21.31303 -157.88883     180   0.0 Hōkūleʻa
  2021-08-12T16:10:41UTC 2021-08-12T06:10:41-10:00 2021-08-12T05:10:41-11:00  21.31300 -157.88868     200   0.0 Hikianalia
  2021-08-12T15:18:38UTC 2021-08-12T05:18:38-10:00 2021-08-12T04:18:38-11:00  21.31304 -157.88883       0   0.0 Hōkūleʻa
  2021-08-12T15:11:14UTC 2021-08-12T05:11:14-10:00 2021-08-12T04:11:14-11:00  21.31311 -157.88864     180   0.0 Hikianalia
  2021-08-12T14:18:21UTC 2021-08-12T04:18:21-10:00 2021-08-12T03:18:21-11:00  21.31304 -157.88883       0   0.0 Hōkūleʻa
  2021-08-12T14:10:36UTC 2021-08-12T04:10:36-10:00 2021-08-12T03:10:36-11:00  21.31313 -157.88864     317   0.0 Hikianalia
  2021-08-12T13:18:29UTC 2021-08-12T03:18:29-10:00 2021-08-12T02:18:29-11:00  21.31304 -157.88883       0   0.0 Hōkūleʻa
  2021-08-12T13:11:15UTC 2021-08-12T03:11:15-10:00 2021-08-12T02:11:15-11:00  21.31311 -157.88862     180   0.0 Hikianalia
  2021-08-12T12:18:49UTC 2021-08-12T02:18:49-10:00 2021-08-12T01:18:49-11:00  21.31303 -157.88883       0   0.0 Hōkūleʻa
  2021-08-12T12:10:45UTC 2021-08-12T02:10:45-10:00 2021-08-12T01:10:45-11:00  21.31320 -157.88862      13   0.0 Hikianalia
  2021-08-12T11:17:21UTC 2021-08-12T01:17:21-10:00 2021-08-12T00:17:21-11:00  21.31303 -157.88883     180   0.0 Hōkūleʻa
  2021-08-12T11:10:43UTC 2021-08-12T01:10:43-10:00 2021-08-12T00:10:43-11:00  21.31311 -157.88864     223   0.0 Hikianalia
  2021-08-12T10:18:24UTC 2021-08-12T00:18:24-10:00 2021-08-11T23:18:24-11:00  21.31305 -157.88883     317   0.0 Hōkūleʻa
  2021-08-12T10:12:12UTC 2021-08-12T00:12:12-10:00 2021-08-11T23:12:12-11:00  21.31313 -157.88862       0   0.0 Hikianalia
  2021-08-12T09:18:23UTC 2021-08-11T23:18:23-10:00 2021-08-11T22:18:23-11:00  21.31303 -157.88881       0   0.0 Hōkūleʻa
  2021-08-12T09:09:55UTC 2021-08-11T23:09:55-10:00 2021-08-11T22:09:55-11:00  21.31313 -157.88862      63   0.0 Hikianalia
  2021-08-12T08:18:47UTC 2021-08-11T22:18:47-10:00 2021-08-11T21:18:47-11:00  21.31303 -157.88881     180   0.0 Hōkūleʻa
  2021-08-12T08:10:42UTC 2021-08-11T22:10:42-10:00 2021-08-11T21:10:42-11:00  21.31312 -157.88864     243   0.0 Hikianalia
  2021-08-12T07:18:42UTC 2021-08-11T21:18:42-10:00 2021-08-11T20:18:42-11:00  21.31304 -157.88881       0   0.0 Hōkūleʻa
  2021-08-12T07:11:13UTC 2021-08-11T21:11:13-10:00 2021-08-11T20:11:13-11:00  21.31313 -157.88862     154   0.2 Hikianalia
  2021-08-12T06:18:33UTC 2021-08-11T20:18:33-10:00 2021-08-11T19:18:33-11:00  21.31302 -157.88881       0   0.0 Hōkūleʻa
  2021-08-12T06:10:51UTC 2021-08-11T20:10:51-10:00 2021-08-11T19:10:51-11:00  21.31540 -157.88982     334   0.1 Hikianalia
  2021-08-12T05:18:30UTC 2021-08-11T19:18:30-10:00 2021-08-11T18:18:30-11:00  21.31302 -157.88881     148   0.0 Hōkūleʻa
  2021-08-12T05:09:41UTC 2021-08-11T19:09:41-10:00 2021-08-11T18:09:41-11:00  21.31311 -157.88862       0   0.0 Hikianalia
  2021-08-12T04:18:41UTC 2021-08-11T18:18:41-10:00 2021-08-11T17:18:41-11:00  21.31305 -157.88883     105   0.0 Hōkūleʻa
  2021-08-12T04:11:06UTC 2021-08-11T18:11:06-10:00 2021-08-11T17:11:06-11:00  21.31311 -157.88862       0   0.0 Hikianalia
  2021-08-12T03:17:38UTC 2021-08-11T17:17:38-10:00 2021-08-11T16:17:38-11:00  21.31306 -157.88888       0   0.0 Hōkūleʻa
  2021-08-12T03:10:44UTC 2021-08-11T17:10:44-10:00 2021-08-11T16:10:44-11:00  21.31311 -157.88862       0   0.0 Hikianalia
  2021-08-12T02:18:22UTC 2021-08-11T16:18:22-10:00 2021-08-11T15:18:22-11:00  21.31303 -157.88888     270   0.0 Hōkūleʻa
  2021-08-12T02:09:35UTC 2021-08-11T16:09:35-10:00 2021-08-11T15:09:35-11:00  21.31311 -157.88862       0   0.0 Hikianalia
  2021-08-12T01:18:33UTC 2021-08-11T15:18:33-10:00 2021-08-11T14:18:33-11:00  21.31303 -157.88883     180   0.0 Hōkūleʻa
  2021-08-12T01:10:37UTC 2021-08-11T15:10:37-10:00 2021-08-11T14:10:37-11:00  21.31311 -157.88862      90   0.0 Hikianalia
  2021-08-12T00:17:48UTC 2021-08-11T14:17:48-10:00 2021-08-11T13:17:48-11:00  21.31304 -157.88883     180   0.0 Hōkūleʻa
  2021-08-12T00:10:17UTC 2021-08-11T14:10:17-10:00 2021-08-11T13:10:17-11:00  21.31311 -157.88864     270   0.0 Hikianalia
  2021-08-11T23:18:38UTC 2021-08-11T13:18:38-10:00 2021-08-11T12:18:38-11:00  21.31305 -157.88883       0   0.0 Hōkūleʻa
  2021-08-11T23:09:48UTC 2021-08-11T13:09:48-10:00 2021-08-11T12:09:48-11:00  21.31311 -157.88862     303   0.0 Hikianalia
  2021-08-11T22:17:34UTC 2021-08-11T12:17:34-10:00 2021-08-11T11:17:34-11:00  21.31304 -157.88883       0   0.0 Hōkūleʻa
  2021-08-11T22:10:44UTC 2021-08-11T12:10:44-10:00 2021-08-11T11:10:44-11:00  21.31305 -157.88851     118   0.0 Hikianalia
  2021-08-11T21:17:34UTC 2021-08-11T11:17:34-10:00 2021-08-11T10:17:34-11:00  21.31303 -157.88883     180   0.0 Hōkūleʻa
  2021-08-11T21:10:47UTC 2021-08-11T11:10:47-10:00 2021-08-11T10:10:47-11:00  21.31311 -157.88864     180   0.0 Hikianalia
  2021-08-11T20:18:48UTC 2021-08-11T10:18:48-10:00 2021-08-11T09:18:48-11:00  21.31304 -157.88883       0   0.0 Hōkūleʻa
  2021-08-11T20:10:15UTC 2021-08-11T10:10:15-10:00 2021-08-11T09:10:15-11:00  21.31314 -157.88864     169   0.0 Hikianalia
  2021-08-11T19:17:42UTC 2021-08-11T09:17:42-10:00 2021-08-11T08:17:42-11:00  21.31302 -157.88883       0   0.0 Hōkūleʻa
  2021-08-11T19:10:52UTC 2021-08-11T09:10:52-10:00 2021-08-11T08:10:52-11:00  21.31325 -157.88866     350   0.0 Hikianalia
  2021-08-11T18:18:32UTC 2021-08-11T08:18:32-10:00 2021-08-11T07:18:32-11:00  21.31302 -157.88883     180   0.0 Hōkūleʻa
  2021-08-11T18:09:37UTC 2021-08-11T08:09:37-10:00 2021-08-11T07:09:37-11:00  21.31313 -157.88864      33   0.0 Hikianalia
  2021-08-11T17:18:33UTC 2021-08-11T07:18:33-10:00 2021-08-11T06:18:33-11:00  21.31303 -157.88883      62   0.0 Hōkūleʻa
  2021-08-11T17:10:36UTC 2021-08-11T07:10:36-10:00 2021-08-11T06:10:36-11:00  21.31310 -157.88866     180   0.0 Hikianalia
  2021-08-11T16:18:44UTC 2021-08-11T06:18:44-10:00 2021-08-11T05:18:44-11:00  21.31302 -157.88886     262   0.0 Hōkūleʻa
  2021-08-11T16:11:12UTC 2021-08-11T06:11:12-10:00 2021-08-11T05:11:12-11:00  21.31311 -157.88866     255   0.0 Hikianalia
  2021-08-11T15:18:35UTC 2021-08-11T05:18:35-10:00 2021-08-11T04:18:35-11:00  21.31303 -157.88877      80   0.0 Hōkūleʻa
  2021-08-11T15:10:46UTC 2021-08-11T05:10:46-10:00 2021-08-11T04:10:46-11:00  21.31312 -157.88862     117   0.0 Hikianalia
  2021-08-11T14:18:30UTC 2021-08-11T04:18:30-10:00 2021-08-11T03:18:30-11:00  21.31302 -157.88883     180   0.0 Hōkūleʻa
  2021-08-11T14:10:35UTC 2021-08-11T04:10:35-10:00 2021-08-11T03:10:35-11:00  21.31313 -157.88864      44   0.0 Hikianalia
  2021-08-11T13:17:32UTC 2021-08-11T03:17:32-10:00 2021-08-11T02:17:32-11:00  21.31303 -157.88883       0   0.0 Hōkūleʻa
  2021-08-11T13:10:55UTC 2021-08-11T03:10:55-10:00 2021-08-11T02:10:55-11:00  21.31311 -157.88866     242   0.0 Hikianalia
  2021-08-11T12:18:41UTC 2021-08-11T02:18:41-10:00 2021-08-11T01:18:41-11:00  21.31303 -157.88883     180   0.0 Hōkūleʻa
  2021-08-11T12:11:11UTC 2021-08-11T02:11:11-10:00 2021-08-11T01:11:11-11:00  21.31313 -157.88862      43   0.0 Hikianalia
  2021-08-11T11:18:22UTC 2021-08-11T01:18:22-10:00 2021-08-11T00:18:22-11:00  21.31304 -157.88883     180   0.0 Hōkūleʻa
  2021-08-11T11:10:44UTC 2021-08-11T01:10:44-10:00 2021-08-11T00:10:44-11:00  21.31311 -157.88864     223   0.0 Hikianalia
  2021-08-11T10:18:33UTC 2021-08-11T00:18:33-10:00 2021-08-10T23:18:33-11:00  21.31306 -157.88883       0   0.0 Hōkūleʻa
  2021-08-11T10:10:48UTC 2021-08-11T00:10:48-10:00 2021-08-10T23:10:48-11:00  21.31313 -157.88862      90   0.0 Hikianalia
  2021-08-11T09:18:49UTC 2021-08-10T23:18:49-10:00 2021-08-10T22:18:49-11:00  21.31304 -157.88883       0   0.0 Hōkūleʻa
  2021-08-11T09:10:55UTC 2021-08-10T23:10:55-10:00 2021-08-10T22:10:55-11:00  21.31313 -157.88868     298   0.0 Hikianalia
  2021-08-11T08:18:30UTC 2021-08-10T22:18:30-10:00 2021-08-10T21:18:30-11:00  21.31304 -157.88883     180   0.0 Hōkūleʻa
  2021-08-11T08:11:20UTC 2021-08-10T22:11:20-10:00 2021-08-10T21:11:20-11:00  21.31311 -157.88864     270   0.0 Hikianalia
  2021-08-11T07:18:32UTC 2021-08-10T21:18:32-10:00 2021-08-10T20:18:32-11:00  21.31305 -157.88883     317   0.0 Hōkūleʻa
  2021-08-11T07:10:50UTC 2021-08-10T21:10:50-10:00 2021-08-10T20:10:50-11:00  21.31311 -157.88862       0   0.0 Hikianalia
  2021-08-11T06:18:49UTC 2021-08-10T20:18:49-10:00 2021-08-10T19:18:49-11:00  21.31303 -157.88881     270   0.0 Hōkūleʻa
  2021-08-11T06:10:46UTC 2021-08-10T20:10:46-10:00 2021-08-10T19:10:46-11:00  21.31311 -157.88862     180   0.0 Hikianalia
  2021-08-11T05:18:35UTC 2021-08-10T19:18:35-10:00 2021-08-10T18:18:35-11:00  21.31313 -157.88862       0   0.0 Hikianalia
  2021-08-11T05:17:30UTC 2021-08-10T19:17:30-10:00 2021-08-10T18:17:30-11:00  21.31303 -157.88877     105   0.0 Hōkūleʻa
  2021-08-11T04:18:25UTC 2021-08-10T18:18:25-10:00 2021-08-10T17:18:25-11:00  21.31304 -157.88881       0   0.0 Hōkūleʻa
  2021-08-11T04:10:49UTC 2021-08-10T18:10:49-10:00 2021-08-10T17:10:49-11:00  21.31311 -157.88862       0   0.0 Hikianalia
  2021-08-11T03:18:30UTC 2021-08-10T17:18:30-10:00 2021-08-10T16:18:30-11:00  21.31304 -157.88881      90   0.0 Hōkūleʻa
  2021-08-11T03:10:46UTC 2021-08-10T17:10:46-10:00 2021-08-10T16:10:46-11:00  21.31307 -157.88862     163   0.0 Hikianalia
  2021-08-11T02:26:30UTC 2021-08-10T16:26:30-10:00 2021-08-10T15:26:30-11:00  21.31304 -157.88883       0   0.0 Hōkūleʻa
  2021-08-11T02:11:15UTC 2021-08-10T16:11:15-10:00 2021-08-10T15:11:15-11:00  21.31313 -157.88864      64   0.0 Hikianalia
  2021-08-11T01:17:32UTC 2021-08-10T15:17:32-10:00 2021-08-10T14:17:32-11:00  21.31304 -157.88883       0   0.0 Hōkūleʻa
  2021-08-11T01:10:17UTC 2021-08-10T15:10:17-10:00 2021-08-10T14:10:17-11:00  21.31312 -157.88866     285   0.0 Hikianalia
  2021-08-11T00:18:25UTC 2021-08-10T14:18:25-10:00 2021-08-10T13:18:25-11:00  21.31303 -157.88883     223   0.0 Hōkūleʻa
  2021-08-11T00:10:00UTC 2021-08-10T14:10:00-10:00 2021-08-10T13:10:00-11:00  21.31311 -157.88862       0   0.0 Hikianalia
  2021-08-10T23:18:33UTC 2021-08-10T13:18:33-10:00 2021-08-10T12:18:33-11:00  21.31305 -157.88881       0   0.0 Hōkūleʻa
  2021-08-10T23:10:45UTC 2021-08-10T13:10:45-10:00 2021-08-10T12:10:45-11:00  21.31311 -157.88862     148   0.0 Hikianalia
  2021-08-10T22:18:47UTC 2021-08-10T12:18:47-10:00 2021-08-10T11:18:47-11:00  21.31304 -157.88881     117   0.0 Hōkūleʻa
  2021-08-10T22:11:13UTC 2021-08-10T12:11:13-10:00 2021-08-10T11:11:13-11:00  21.31314 -157.88864     328   0.0 Hikianalia
  2021-08-10T21:17:41UTC 2021-08-10T11:17:41-10:00 2021-08-10T10:17:41-11:00  21.31305 -157.88883     297   0.0 Hōkūleʻa
  2021-08-10T21:17:37UTC 2021-08-10T11:17:37-10:00 2021-08-10T10:17:37-11:00  21.31311 -157.88862     333   0.0 Hikianalia
  2021-08-10T20:18:22UTC 2021-08-10T10:18:22-10:00 2021-08-10T09:18:22-11:00  21.31304 -157.88881      61   0.0 Hōkūleʻa
  2021-08-10T20:10:40UTC 2021-08-10T10:10:40-10:00 2021-08-10T09:10:40-11:00  21.31299 -157.88856     143   0.0 Hikianalia
  2021-08-10T19:18:33UTC 2021-08-10T09:18:33-10:00 2021-08-10T08:18:33-11:00  21.31303 -157.88883       0   0.0 Hōkūleʻa
  2021-08-10T19:09:47UTC 2021-08-10T09:09:47-10:00 2021-08-10T08:09:47-11:00  21.31310 -157.88864     180   0.0 Hikianalia
  2021-08-10T18:17:41UTC 2021-08-10T08:17:41-10:00 2021-08-10T07:17:41-11:00  21.31303 -157.88883     309   0.0 Hōkūleʻa
  2021-08-10T18:10:10UTC 2021-08-10T08:10:10-10:00 2021-08-10T07:10:10-11:00  21.31312 -157.88864     105   0.0 Hikianalia
  2021-08-10T17:18:34UTC 2021-08-10T07:18:34-10:00 2021-08-10T06:18:34-11:00  21.31299 -157.88879     118   0.0 Hōkūleʻa
  2021-08-10T17:10:35UTC 2021-08-10T07:10:35-10:00 2021-08-10T06:10:35-11:00  21.31314 -157.88873     278   0.0 Hikianalia
  2021-08-10T16:18:24UTC 2021-08-10T06:18:24-10:00 2021-08-10T05:18:24-11:00  21.31302 -157.88883     180   0.0 Hōkūleʻa
  2021-08-10T16:10:39UTC 2021-08-10T06:10:39-10:00 2021-08-10T05:10:39-11:00  21.31313 -157.88864     317   0.0 Hikianalia
  2021-08-10T15:18:23UTC 2021-08-10T05:18:23-10:00 2021-08-10T04:18:23-11:00  21.31303 -157.88883       0   0.0 Hōkūleʻa
  2021-08-10T15:17:56UTC 2021-08-10T05:17:56-10:00 2021-08-10T04:17:56-11:00  21.31311 -157.88862      90   0.0 Hikianalia
  2021-08-10T14:17:47UTC 2021-08-10T04:17:47-10:00 2021-08-10T03:17:47-11:00  21.31302 -157.88883     118   0.0 Hōkūleʻa
  2021-08-10T14:11:09UTC 2021-08-10T04:11:09-10:00 2021-08-10T03:11:09-11:00  21.31311 -157.88866      90   0.0 Hikianalia
  2021-08-10T13:18:27UTC 2021-08-10T03:18:27-10:00 2021-08-10T02:18:27-11:00  21.31303 -157.88886     317   0.0 Hōkūleʻa
  2021-08-10T13:10:39UTC 2021-08-10T03:10:39-10:00 2021-08-10T02:10:39-11:00  21.31311 -157.88868     270   0.0 Hikianalia
  2021-08-10T12:18:32UTC 2021-08-10T02:18:32-10:00 2021-08-10T01:18:32-11:00  21.31300 -157.88883     180   0.0 Hōkūleʻa
  2021-08-10T12:11:17UTC 2021-08-10T02:11:17-10:00 2021-08-10T01:11:17-11:00  21.31311 -157.88864     328   0.0 Hikianalia
  2021-08-10T11:18:24UTC 2021-08-10T01:18:24-10:00 2021-08-10T00:18:24-11:00  21.31302 -157.88883     180   0.0 Hōkūleʻa
  2021-08-10T11:10:43UTC 2021-08-10T01:10:43-10:00 2021-08-10T00:10:43-11:00  21.31308 -157.88862     180   0.0 Hikianalia
  2021-08-10T10:18:41UTC 2021-08-10T00:18:41-10:00 2021-08-09T23:18:41-11:00  21.31303 -157.88883     306   0.0 Hōkūleʻa
  2021-08-10T10:10:40UTC 2021-08-10T00:10:40-10:00 2021-08-09T23:10:40-11:00  21.31310 -157.88862      90   0.0 Hikianalia
  2021-08-10T09:30:08UTC 2021-08-09T23:30:08-10:00 2021-08-09T22:30:08-11:00  21.31310 -157.88864     241   0.0 Hikianalia
  2021-08-10T09:18:38UTC 2021-08-09T23:18:38-10:00 2021-08-09T22:18:38-11:00  21.31298 -157.88877     137   0.0 Hōkūleʻa
  2021-08-10T08:18:30UTC 2021-08-09T22:18:30-10:00 2021-08-09T21:18:30-11:00  21.31305 -157.88883     328   0.0 Hōkūleʻa
  2021-08-10T08:11:09UTC 2021-08-09T22:11:09-10:00 2021-08-09T21:11:09-11:00  21.31311 -157.88862       0   0.0 Hikianalia
  2021-08-10T07:18:29UTC 2021-08-09T21:18:29-10:00 2021-08-09T20:18:29-11:00  21.31302 -157.88881     299   0.0 Hōkūleʻa
  2021-08-10T07:10:46UTC 2021-08-09T21:10:46-10:00 2021-08-09T20:10:46-11:00  21.31310 -157.88862     180   0.0 Hikianalia
  2021-08-10T06:18:41UTC 2021-08-09T20:18:41-10:00 2021-08-09T19:18:41-11:00  21.31300 -157.88879      90   0.0 Hōkūleʻa
  2021-08-10T06:10:38UTC 2021-08-09T20:10:38-10:00 2021-08-09T19:10:38-11:00  21.31312 -157.88862     180   0.0 Hikianalia
  2021-08-10T05:23:31UTC 2021-08-09T19:23:31-10:00 2021-08-09T18:23:31-11:00  21.31313 -157.88862       0   0.0 Hikianalia
  2021-08-10T05:18:36UTC 2021-08-09T19:18:36-10:00 2021-08-09T18:18:36-11:00  21.31300 -157.88883     197   0.0 Hōkūleʻa
  2021-08-10T04:17:31UTC 2021-08-09T18:17:31-10:00 2021-08-09T17:17:31-11:00  21.31307 -157.88881      42   0.0 Hōkūleʻa
  2021-08-10T04:10:47UTC 2021-08-09T18:10:47-10:00 2021-08-09T17:10:47-11:00  21.31311 -157.88862     332   0.0 Hikianalia
  2021-08-10T03:18:23UTC 2021-08-09T17:18:23-10:00 2021-08-09T16:18:23-11:00  21.31305 -157.88883       0   0.0 Hōkūleʻa
  2021-08-10T03:10:46UTC 2021-08-09T17:10:46-10:00 2021-08-09T16:10:46-11:00  21.31304 -157.88858     155   0.0 Hikianalia
  2021-08-10T02:18:45UTC 2021-08-09T16:18:45-10:00 2021-08-09T15:18:45-11:00  21.31305 -157.88883     289   0.0 Hōkūleʻa
  2021-08-10T02:10:09UTC 2021-08-09T16:10:09-10:00 2021-08-09T15:10:09-11:00  21.31312 -157.88862     180   0.0 Hikianalia
  2021-08-10T01:17:43UTC 2021-08-09T15:17:43-10:00 2021-08-09T14:17:43-11:00  21.31303 -157.88877      90   0.0 Hōkūleʻa
  2021-08-10T01:10:38UTC 2021-08-09T15:10:38-10:00 2021-08-09T14:10:38-11:00  21.31318 -157.88862     219   0.0 Hikianalia
  2021-08-10T00:18:33UTC 2021-08-09T14:18:33-10:00 2021-08-09T13:18:33-11:00  21.31303 -157.88879     119   0.0 Hōkūleʻa
  2021-08-10T00:09:42UTC 2021-08-09T14:09:42-10:00 2021-08-09T13:09:42-11:00  21.31325 -157.88856      32   0.0 Hikianalia
  2021-08-09T23:17:31UTC 2021-08-09T13:17:31-10:00 2021-08-09T12:17:31-11:00  21.31304 -157.88881       0   0.0 Hōkūleʻa
  2021-08-09T23:10:45UTC 2021-08-09T13:10:45-10:00 2021-08-09T12:10:45-11:00  21.31315 -157.88862       0   0.0 Hikianalia
  2021-08-09T22:18:46UTC 2021-08-09T12:18:46-10:00 2021-08-09T11:18:46-11:00  21.31302 -157.88881     119   0.0 Hōkūleʻa
  2021-08-09T22:10:17UTC 2021-08-09T12:10:17-10:00 2021-08-09T11:10:17-11:00  21.31311 -157.88862     119   0.0 Hikianalia
  2021-08-09T21:17:42UTC 2021-08-09T11:17:42-10:00 2021-08-09T10:17:42-11:00  21.31303 -157.88883     270   0.0 Hōkūleʻa
  2021-08-09T21:10:30UTC 2021-08-09T11:10:30-10:00 2021-08-09T10:10:30-11:00  21.31312 -157.88864     330   0.0 Hikianalia
  2021-08-09T20:18:21UTC 2021-08-09T10:18:21-10:00 2021-08-09T09:18:21-11:00  21.31303 -157.88881     119   0.0 Hōkūleʻa
  2021-08-09T20:09:41UTC 2021-08-09T10:09:41-10:00 2021-08-09T09:09:41-11:00  21.31298 -157.88856     137   0.0 Hikianalia
  2021-08-09T19:20:45UTC 2021-08-09T09:20:45-10:00 2021-08-09T08:20:45-11:00  21.31307 -157.88864     180   0.0 Hikianalia
  2021-08-09T19:17:32UTC 2021-08-09T09:17:32-10:00 2021-08-09T08:17:32-11:00  21.31304 -157.88883       0   0.0 Hōkūleʻa
  2021-08-09T18:18:48UTC 2021-08-09T08:18:48-10:00 2021-08-09T07:18:48-11:00  21.31303 -157.88883     309   0.0 Hōkūleʻa
  2021-08-09T18:11:17UTC 2021-08-09T08:11:17-10:00 2021-08-09T07:11:17-11:00  21.31311 -157.88864     290   0.0 Hikianalia
  2021-08-09T17:18:35UTC 2021-08-09T07:18:35-10:00 2021-08-09T06:18:35-11:00  21.31299 -157.88879     117   0.0 Hōkūleʻa
  2021-08-09T17:10:58UTC 2021-08-09T07:10:58-10:00 2021-08-09T06:10:58-11:00  21.31309 -157.88858      62   0.0 Hikianalia
  2021-08-09T16:18:24UTC 2021-08-09T06:18:24-10:00 2021-08-09T05:18:24-11:00  21.31300 -157.88881       0   0.0 Hōkūleʻa
  2021-08-09T16:10:39UTC 2021-08-09T06:10:39-10:00 2021-08-09T05:10:39-11:00  21.31307 -157.88862     180   0.0 Hikianalia
  2021-08-09T15:18:34UTC 2021-08-09T05:18:34-10:00 2021-08-09T04:18:34-11:00  21.31300 -157.88881      90   0.0 Hōkūleʻa
  2021-08-09T15:11:12UTC 2021-08-09T05:11:12-10:00 2021-08-09T04:11:12-11:00  21.31310 -157.88862     119   0.0 Hikianalia
  2021-08-09T14:18:49UTC 2021-08-09T04:18:49-10:00 2021-08-09T03:18:49-11:00  21.31300 -157.88883      90   0.0 Hōkūleʻa
  2021-08-09T14:10:43UTC 2021-08-09T04:10:43-10:00 2021-08-09T03:10:43-11:00  21.31311 -157.88864     270   0.0 Hikianalia
  2021-08-09T13:18:51UTC 2021-08-09T03:18:51-10:00 2021-08-09T02:18:51-11:00  21.31300 -157.88886     284   0.0 Hōkūleʻa
  2021-08-09T13:11:15UTC 2021-08-09T03:11:15-10:00 2021-08-09T02:11:15-11:00  21.31311 -157.88862       0   0.0 Hikianalia
  2021-08-09T12:18:33UTC 2021-08-09T02:18:33-10:00 2021-08-09T01:18:33-11:00  21.31299 -157.88881     148   0.0 Hōkūleʻa
  2021-08-09T12:10:46UTC 2021-08-09T02:10:46-10:00 2021-08-09T01:10:46-11:00  21.31302 -157.88862     171   0.0 Hikianalia
  2021-08-09T11:18:31UTC 2021-08-09T01:18:31-10:00 2021-08-09T00:18:31-11:00  21.31303 -157.88883     318   0.0 Hōkūleʻa
  2021-08-09T11:10:43UTC 2021-08-09T01:10:43-10:00 2021-08-09T00:10:43-11:00  21.31313 -157.88864       0   0.0 Hikianalia
  2021-08-09T10:18:37UTC 2021-08-09T00:18:37-10:00 2021-08-08T23:18:37-11:00  21.31300 -157.88881     305   0.0 Hōkūleʻa
  2021-08-09T10:11:06UTC 2021-08-09T00:11:06-10:00 2021-08-08T23:11:06-11:00  21.31310 -157.88864     328   0.0 Hikianalia
  2021-08-09T09:18:35UTC 2021-08-08T23:18:35-10:00 2021-08-08T22:18:35-11:00  21.31296 -157.88875     137   0.0 Hōkūleʻa
  2021-08-09T09:11:46UTC 2021-08-08T23:11:46-10:00 2021-08-08T22:11:46-11:00  21.31307 -157.88862     224   0.0 Hikianalia
  2021-08-09T08:18:22UTC 2021-08-08T22:18:22-10:00 2021-08-08T21:18:22-11:00  21.31298 -157.88877     118   0.0 Hōkūleʻa
  2021-08-09T08:11:41UTC 2021-08-08T22:11:41-10:00 2021-08-08T21:11:41-11:00  21.31309 -157.88860     317   0.0 Hikianalia
  2021-08-09T07:18:33UTC 2021-08-08T21:18:33-10:00 2021-08-08T20:18:33-11:00  21.31300 -157.88881       0   0.0 Hōkūleʻa
  2021-08-09T07:10:48UTC 2021-08-08T21:10:48-10:00 2021-08-08T20:10:48-11:00  21.31307 -157.88858     105   0.0 Hikianalia
  2021-08-09T06:18:49UTC 2021-08-08T20:18:49-10:00 2021-08-08T19:18:49-11:00  21.31299 -157.88881     242   0.0 Hōkūleʻa
  2021-08-09T06:11:17UTC 2021-08-08T20:11:17-10:00 2021-08-08T19:11:17-11:00  21.31308 -157.88862     270   0.0 Hikianalia
  2021-08-09T05:26:21UTC 2021-08-08T19:26:21-10:00 2021-08-08T18:26:21-11:00  21.31308 -157.88860     105   0.0 Hikianalia
  2021-08-09T05:18:37UTC 2021-08-08T19:18:37-10:00 2021-08-08T18:18:37-11:00  21.31302 -157.88877     105   0.0 Hōkūleʻa
  2021-08-09T04:18:30UTC 2021-08-08T18:18:30-10:00 2021-08-08T17:18:30-11:00  21.31303 -157.88881     119   0.0 Hōkūleʻa
  2021-08-09T04:10:39UTC 2021-08-08T18:10:39-10:00 2021-08-08T17:10:39-11:00  21.31310 -157.88868     260   0.0 Hikianalia
  2021-08-09T03:17:33UTC 2021-08-08T17:17:33-10:00 2021-08-08T16:17:33-11:00  21.31304 -157.88883     299   0.0 Hōkūleʻa
  2021-08-09T03:10:11UTC 2021-08-08T17:10:11-10:00 2021-08-08T16:10:11-11:00  21.31311 -157.88862       0   0.0 Hikianalia
  2021-08-09T02:18:39UTC 2021-08-08T16:18:39-10:00 2021-08-08T15:18:39-11:00  21.31303 -157.88881     270   0.0 Hōkūleʻa
  2021-08-09T02:10:36UTC 2021-08-08T16:10:36-10:00 2021-08-08T15:10:36-11:00  21.31311 -157.88862      43   0.0 Hikianalia
  2021-08-09T01:17:41UTC 2021-08-08T15:17:41-10:00 2021-08-08T14:17:41-11:00  21.31303 -157.88862      84   0.0 Hōkūleʻa
  2021-08-09T01:09:47UTC 2021-08-08T15:09:47-10:00 2021-08-08T14:09:47-11:00  21.31300 -157.88873     226   0.0 Hikianalia
  2021-08-09T00:27:54UTC 2021-08-08T14:27:54-10:00 2021-08-08T13:27:54-11:00  21.31300 -157.88883     284   0.0 Hōkūleʻa
  2021-08-09T00:10:09UTC 2021-08-08T14:10:09-10:00 2021-08-08T13:10:09-11:00  21.31310 -157.88862       0   0.0 Hikianalia
  2021-08-08T23:18:28UTC 2021-08-08T13:18:28-10:00 2021-08-08T12:18:28-11:00  21.31299 -157.88879     148   0.0 Hōkūleʻa
  2021-08-08T23:10:40UTC 2021-08-08T13:10:40-10:00 2021-08-08T12:10:40-11:00  21.31310 -157.88862     180   0.0 Hikianalia
  2021-08-08T22:17:49UTC 2021-08-08T12:17:49-10:00 2021-08-08T11:17:49-11:00  21.31303 -157.88881      61   0.0 Hōkūleʻa
  2021-08-08T22:10:09UTC 2021-08-08T12:10:09-10:00 2021-08-08T11:10:09-11:00  21.31311 -157.88862       0   0.0 Hikianalia
  2021-08-08T21:17:32UTC 2021-08-08T11:17:32-10:00 2021-08-08T10:17:32-11:00  21.31302 -157.88883     222   0.0 Hōkūleʻa
  2021-08-08T21:10:09UTC 2021-08-08T11:10:09-10:00 2021-08-08T10:10:09-11:00  21.31310 -157.88862     180   0.0 Hikianalia
  2021-08-08T20:18:32UTC 2021-08-08T10:18:32-10:00 2021-08-08T09:18:32-11:00  21.31304 -157.88881      31   0.0 Hōkūleʻa
  2021-08-08T20:11:23UTC 2021-08-08T10:11:23-10:00 2021-08-08T09:11:23-11:00  21.31311 -157.88862      90   0.0 Hikianalia
  2021-08-08T19:17:30UTC 2021-08-08T09:17:30-10:00 2021-08-08T08:17:30-11:00  21.31300 -157.88883     180   0.0 Hōkūleʻa
  2021-08-08T19:10:16UTC 2021-08-08T09:10:16-10:00 2021-08-08T08:10:16-11:00  21.31311 -157.88864     270   0.0 Hikianalia
  2021-08-08T18:18:41UTC 2021-08-08T08:18:41-10:00 2021-08-08T07:18:41-11:00  21.31303 -157.88883     309   0.0 Hōkūleʻa
  2021-08-08T18:10:38UTC 2021-08-08T08:10:38-10:00 2021-08-08T07:10:38-11:00  21.31311 -157.88862       0   0.0 Hikianalia
  2021-08-08T17:18:38UTC 2021-08-08T07:18:38-10:00 2021-08-08T06:18:38-11:00  21.31299 -157.88879     129   0.0 Hōkūleʻa
  2021-08-08T17:11:14UTC 2021-08-08T07:11:14-10:00 2021-08-08T06:11:14-11:00  21.31311 -157.88862     317   0.0 Hikianalia
  2021-08-08T16:18:27UTC 2021-08-08T06:18:27-10:00 2021-08-08T05:18:27-11:00  21.31303 -157.88883       0   0.0 Hōkūleʻa
  2021-08-08T16:10:46UTC 2021-08-08T06:10:46-10:00 2021-08-08T05:10:46-11:00  21.31309 -157.88860     125   0.0 Hikianalia
  2021-08-08T15:18:31UTC 2021-08-08T05:18:31-10:00 2021-08-08T04:18:31-11:00  21.31299 -157.88883     180   0.0 Hōkūleʻa
  2021-08-08T15:10:38UTC 2021-08-08T05:10:38-10:00 2021-08-08T04:10:38-11:00  21.31313 -157.88866     334   0.0 Hikianalia
  2021-08-08T14:18:46UTC 2021-08-08T04:18:46-10:00 2021-08-08T03:18:46-11:00  21.31300 -157.88883     298   0.0 Hōkūleʻa
  2021-08-08T14:11:18UTC 2021-08-08T04:11:18-10:00 2021-08-08T03:11:18-11:00  21.31309 -157.88864     255   0.0 Hikianalia
  2021-08-08T13:17:37UTC 2021-08-08T03:17:37-10:00 2021-08-08T02:17:37-11:00  21.31297 -157.88877     137   0.0 Hōkūleʻa
  2021-08-08T13:10:46UTC 2021-08-08T03:10:46-10:00 2021-08-08T02:10:46-11:00  21.31310 -157.88860      62   0.0 Hikianalia
  2021-08-08T12:18:24UTC 2021-08-08T02:18:24-10:00 2021-08-08T01:18:24-11:00  21.31302 -157.88881     138   0.0 Hōkūleʻa
  2021-08-08T12:10:37UTC 2021-08-08T02:10:37-10:00 2021-08-08T01:10:37-11:00  21.31309 -157.88862     180   0.0 Hikianalia
  2021-08-08T11:18:33UTC 2021-08-08T01:18:33-10:00 2021-08-08T00:18:33-11:00  21.31304 -157.88883       0   0.0 Hōkūleʻa
  2021-08-08T11:16:36UTC 2021-08-08T01:16:36-10:00 2021-08-08T00:16:36-11:00  21.31311 -157.88862       0   0.0 Hikianalia
  2021-08-08T10:18:37UTC 2021-08-08T00:18:37-10:00 2021-08-07T23:18:37-11:00  21.31300 -157.88883     289   0.0 Hōkūleʻa
  2021-08-08T10:11:15UTC 2021-08-08T00:11:15-10:00 2021-08-07T23:11:15-11:00  21.31311 -157.88862      52   0.0 Hikianalia
  2021-08-08T09:18:30UTC 2021-08-07T23:18:30-10:00 2021-08-07T22:18:30-11:00  21.31298 -157.88877     137   0.0 Hōkūleʻa
  2021-08-08T09:10:38UTC 2021-08-07T23:10:38-10:00 2021-08-07T22:10:38-11:00  21.31308 -157.88866     256   0.0 Hikianalia
  2021-08-08T08:18:33UTC 2021-08-07T22:18:33-10:00 2021-08-07T21:18:33-11:00  21.31303 -157.88881       0   0.0 Hōkūleʻa
  2021-08-08T08:16:36UTC 2021-08-07T22:16:36-10:00 2021-08-07T21:16:36-11:00  21.31309 -157.88862      71   0.0 Hikianalia
  2021-08-08T07:17:32UTC 2021-08-07T21:17:32-10:00 2021-08-07T20:17:32-11:00  21.31300 -157.88881     180   0.0 Hōkūleʻa
  2021-08-08T07:10:40UTC 2021-08-07T21:10:40-10:00 2021-08-07T20:10:40-11:00  21.31307 -157.88868     212   0.0 Hikianalia
  2021-08-08T06:28:27UTC 2021-08-07T20:28:27-10:00 2021-08-07T19:28:27-11:00  21.31302 -157.88881     242   0.0 Hōkūleʻa
  2021-08-08T06:10:46UTC 2021-08-07T20:10:46-10:00 2021-08-07T19:10:46-11:00  21.31310 -157.88866     241   0.0 Hikianalia
  2021-08-08T05:17:27UTC 2021-08-07T19:17:27-10:00 2021-08-07T18:17:27-11:00  21.31305 -157.88875      71   0.0 Hōkūleʻa
  2021-08-08T05:10:38UTC 2021-08-07T19:10:38-10:00 2021-08-07T18:10:38-11:00  21.31312 -157.88862       0   0.0 Hikianalia
  2021-08-08T04:18:25UTC 2021-08-07T18:18:25-10:00 2021-08-07T17:18:25-11:00  21.31303 -157.88881       0   0.0 Hōkūleʻa
  2021-08-08T04:10:06UTC 2021-08-07T18:10:06-10:00 2021-08-07T17:10:06-11:00  21.31310 -157.88862     312   0.0 Hikianalia
  2021-08-08T03:18:33UTC 2021-08-07T17:18:33-10:00 2021-08-07T16:18:33-11:00  21.31303 -157.88881      90   0.0 Hōkūleʻa
  2021-08-08T03:10:45UTC 2021-08-07T17:10:45-10:00 2021-08-07T16:10:45-11:00  21.31305 -157.88856     132   0.0 Hikianalia
  2021-08-08T02:17:47UTC 2021-08-07T16:17:47-10:00 2021-08-07T15:17:47-11:00  21.31303 -157.88883     254   0.0 Hōkūleʻa
  2021-08-08T02:10:16UTC 2021-08-07T16:10:16-10:00 2021-08-07T15:10:16-11:00  21.31310 -157.88862     180   0.0 Hikianalia
  2021-08-08T01:17:27UTC 2021-08-07T15:17:27-10:00 2021-08-07T14:17:27-11:00  21.31304 -157.88879      61   0.0 Hōkūleʻa
  2021-08-08T01:10:47UTC 2021-08-07T15:10:47-10:00 2021-08-07T14:10:47-11:00  21.31314 -157.88862     327   0.0 Hikianalia
  2021-08-08T00:18:24UTC 2021-08-07T14:18:24-10:00 2021-08-07T13:18:24-11:00  21.31302 -157.88883     270   0.0 Hōkūleʻa
  2021-08-08T00:09:37UTC 2021-08-07T14:09:37-10:00 2021-08-07T13:09:37-11:00  21.31311 -157.88860      52   0.0 Hikianalia
  2021-08-07T23:17:33UTC 2021-08-07T13:17:33-10:00 2021-08-07T12:17:33-11:00  21.31302 -157.88879      90   0.0 Hōkūleʻa
  2021-08-07T23:10:40UTC 2021-08-07T13:10:40-10:00 2021-08-07T12:10:40-11:00  21.31308 -157.88864     232   0.0 Hikianalia
  2021-08-07T22:17:49UTC 2021-08-07T12:17:49-10:00 2021-08-07T11:17:49-11:00  21.31302 -157.88881     138   0.0 Hōkūleʻa
  2021-08-07T22:10:12UTC 2021-08-07T12:10:12-10:00 2021-08-07T11:10:12-11:00  21.31311 -157.88860     118   0.0 Hikianalia
  2021-08-07T21:25:45UTC 2021-08-07T11:25:45-10:00 2021-08-07T10:25:45-11:00  21.31304 -157.88883     318   0.0 Hōkūleʻa
  2021-08-07T21:10:18UTC 2021-08-07T11:10:18-10:00 2021-08-07T10:10:18-11:00  21.31312 -157.88862     123   0.0 Hikianalia
  2021-08-07T20:18:30UTC 2021-08-07T10:18:30-10:00 2021-08-07T09:18:30-11:00  21.31302 -157.88881      90   0.0 Hōkūleʻa
  2021-08-07T20:10:43UTC 2021-08-07T10:10:43-10:00 2021-08-07T09:10:43-11:00  21.31319 -157.88873     311   0.0 Hikianalia
  2021-08-07T19:17:33UTC 2021-08-07T09:17:33-10:00 2021-08-07T08:17:33-11:00  21.31302 -157.88883       0   0.0 Hōkūleʻa
  2021-08-07T19:10:05UTC 2021-08-07T09:10:05-10:00 2021-08-07T08:10:05-11:00  21.31310 -157.88862     128   0.0 Hikianalia
  2021-08-07T18:18:49UTC 2021-08-07T08:18:49-10:00 2021-08-07T07:18:49-11:00  21.31300 -157.88883       0   0.0 Hōkūleʻa
  2021-08-07T18:10:44UTC 2021-08-07T08:10:44-10:00 2021-08-07T07:10:44-11:00  21.31313 -157.88866     347   0.0 Hikianalia
  2021-08-07T17:18:36UTC 2021-08-07T07:18:36-10:00 2021-08-07T06:18:36-11:00  21.31300 -157.88883     297   0.0 Hōkūleʻa
  2021-08-07T17:10:42UTC 2021-08-07T07:10:42-10:00 2021-08-07T06:10:42-11:00  21.31305 -157.88864     205   0.0 Hikianalia
  2021-08-07T16:18:29UTC 2021-08-07T06:18:29-10:00 2021-08-07T05:18:29-11:00  21.31299 -157.88881     180   0.0 Hōkūleʻa
  2021-08-07T16:11:13UTC 2021-08-07T06:11:13-10:00 2021-08-07T05:11:13-11:00  21.31309 -157.88862      90   0.0 Hikianalia
  2021-08-07T15:17:49UTC 2021-08-07T05:17:49-10:00 2021-08-07T04:17:49-11:00  21.31302 -157.88881      48   0.0 Hōkūleʻa
  2021-08-07T15:10:49UTC 2021-08-07T05:10:49-10:00 2021-08-07T04:10:49-11:00  21.31309 -157.88868     200   0.0 Hikianalia
  2021-08-07T14:18:30UTC 2021-08-07T04:18:30-10:00 2021-08-07T03:18:30-11:00  21.31291 -157.88894     232   0.0 Hōkūleʻa
  2021-08-07T14:10:36UTC 2021-08-07T04:10:36-10:00 2021-08-07T03:10:36-11:00  21.31314 -157.88866     317   0.0 Hikianalia
  2021-08-07T13:18:24UTC 2021-08-07T03:18:24-10:00 2021-08-07T02:18:24-11:00  21.31300 -157.88881     119   0.0 Hōkūleʻa
  2021-08-07T13:10:41UTC 2021-08-07T03:10:41-10:00 2021-08-07T02:10:41-11:00  21.31310 -157.88862       0   0.0 Hikianalia
  2021-08-07T12:18:46UTC 2021-08-07T02:18:46-10:00 2021-08-07T01:18:46-11:00  21.31302 -157.88883       0   0.0 Hōkūleʻa
  2021-08-07T12:11:19UTC 2021-08-07T02:11:19-10:00 2021-08-07T01:11:19-11:00  21.31310 -157.88862       0   0.0 Hikianalia
  2021-08-07T11:18:38UTC 2021-08-07T01:18:38-10:00 2021-08-07T00:18:38-11:00  21.31300 -157.88883       0   0.0 Hōkūleʻa
  2021-08-07T11:10:49UTC 2021-08-07T01:10:49-10:00 2021-08-07T00:10:49-11:00  21.31309 -157.88862     141   0.0 Hikianalia
  2021-08-07T10:18:24UTC 2021-08-07T00:18:24-10:00 2021-08-06T23:18:24-11:00  21.31300 -157.88883     241   0.0 Hōkūleʻa
  2021-08-07T10:10:47UTC 2021-08-07T00:10:47-10:00 2021-08-06T23:10:47-11:00  21.31317 -157.88868     325   0.0 Hikianalia
  2021-08-07T09:18:30UTC 2021-08-06T23:18:30-10:00 2021-08-06T22:18:30-11:00  21.31302 -157.88881       0   0.0 Hōkūleʻa
  2021-08-07T09:10:46UTC 2021-08-06T23:10:46-10:00 2021-08-06T22:10:46-11:00  21.31308 -157.88862     180   0.0 Hikianalia
  2021-08-07T08:17:48UTC 2021-08-06T22:17:48-10:00 2021-08-06T21:17:48-11:00  21.31302 -157.88881     328   0.0 Hōkūleʻa
  2021-08-07T08:11:15UTC 2021-08-06T22:11:15-10:00 2021-08-06T21:11:15-11:00  21.31311 -157.88862     354   0.0 Hikianalia
  2021-08-07T07:18:32UTC 2021-08-06T21:18:32-10:00 2021-08-06T20:18:32-11:00  21.31298 -157.88879     242   0.0 Hōkūleʻa
  2021-08-07T07:10:47UTC 2021-08-06T21:10:47-10:00 2021-08-06T20:10:47-11:00  21.31292 -157.88860     174   0.0 Hikianalia
  2021-08-07T06:18:32UTC 2021-08-06T20:18:32-10:00 2021-08-06T19:18:32-11:00  21.31299 -157.88877      90   0.0 Hōkūleʻa
  2021-08-07T06:09:37UTC 2021-08-06T20:09:37-10:00 2021-08-06T19:09:37-11:00  21.31311 -157.88862     242   0.0 Hikianalia
  2021-08-07T05:18:36UTC 2021-08-06T19:18:36-10:00 2021-08-06T18:18:36-11:00  21.31299 -157.88883     322   2.6 Hōkūleʻa
  2021-08-07T05:11:10UTC 2021-08-06T19:11:10-10:00 2021-08-06T18:11:10-11:00  21.31312 -157.88860      62   0.0 Hikianalia
  2021-08-07T04:18:52UTC 2021-08-06T18:18:52-10:00 2021-08-06T17:18:52-11:00  21.27897 -157.86079     142   2.6 Hōkūleʻa
  2021-08-07T04:10:55UTC 2021-08-06T18:10:55-10:00 2021-08-06T17:10:55-11:00  21.31311 -157.88862       0   0.0 Hikianalia
  2021-08-07T03:18:33UTC 2021-08-06T17:18:33-10:00 2021-08-06T16:18:33-11:00  21.31296 -157.88886     206   0.0 Hōkūleʻa
  2021-08-07T03:10:46UTC 2021-08-06T17:10:46-10:00 2021-08-06T16:10:46-11:00  21.31311 -157.88862     148   0.0 Hikianalia
  2021-08-07T02:25:32UTC 2021-08-06T16:25:32-10:00 2021-08-06T15:25:32-11:00  21.31300 -157.88883     180   0.0 Hōkūleʻa
  2021-08-07T02:20:05UTC 2021-08-06T16:20:05-10:00 2021-08-06T15:20:05-11:00  21.31314 -157.88864     328   0.0 Hikianalia
  2021-08-07T01:17:31UTC 2021-08-06T15:17:31-10:00 2021-08-06T14:17:31-11:00  21.31302 -157.88883     299   0.0 Hōkūleʻa
  2021-08-07T01:10:39UTC 2021-08-06T15:10:39-10:00 2021-08-06T14:10:39-11:00  21.31311 -157.88862       0   0.0 Hikianalia
  2021-08-07T00:18:49UTC 2021-08-06T14:18:49-10:00 2021-08-06T13:18:49-11:00  21.31300 -157.88881     297   0.0 Hōkūleʻa
  2021-08-07T00:09:43UTC 2021-08-06T14:09:43-10:00 2021-08-06T13:09:43-11:00  21.31311 -157.88862       0   0.0 Hikianalia
  2021-08-06T23:17:29UTC 2021-08-06T13:17:29-10:00 2021-08-06T12:17:29-11:00  21.31299 -157.88879     143   0.0 Hōkūleʻa
  2021-08-06T23:10:45UTC 2021-08-06T13:10:45-10:00 2021-08-06T12:10:45-11:00  21.31311 -157.88862     180   0.0 Hikianalia
  2021-08-06T22:17:44UTC 2021-08-06T12:17:44-10:00 2021-08-06T11:17:44-11:00  21.31305 -157.88883       0   0.0 Hōkūleʻa
  2021-08-06T22:10:14UTC 2021-08-06T12:10:14-10:00 2021-08-06T11:10:14-11:00  21.31313 -157.88862       0   0.0 Hikianalia
  2021-08-06T21:18:30UTC 2021-08-06T11:18:30-10:00 2021-08-06T10:18:30-11:00  21.31304 -157.88883     243   0.0 Hōkūleʻa
  2021-08-06T21:09:44UTC 2021-08-06T11:09:44-10:00 2021-08-06T10:09:44-11:00  21.31311 -157.88862     180   0.0 Hikianalia
  2021-08-06T20:17:46UTC 2021-08-06T10:17:46-10:00 2021-08-06T09:17:46-11:00  21.31305 -157.88881      43   0.0 Hōkūleʻa
  2021-08-06T20:10:43UTC 2021-08-06T10:10:43-10:00 2021-08-06T09:10:43-11:00  21.31314 -157.88862       0   0.0 Hikianalia
  2021-08-06T19:17:27UTC 2021-08-06T09:17:27-10:00 2021-08-06T08:17:27-11:00  21.31303 -157.88883       0   0.0 Hōkūleʻa
  2021-08-06T19:10:15UTC 2021-08-06T09:10:15-10:00 2021-08-06T08:10:15-11:00  21.31310 -157.88862     180   0.0 Hikianalia
  2021-08-06T18:19:34UTC 2021-08-06T08:19:34-10:00 2021-08-06T07:19:34-11:00  21.31319 -157.88862       0   0.0 Hikianalia
  2021-08-06T18:18:32UTC 2021-08-06T08:18:32-10:00 2021-08-06T07:18:32-11:00  21.31302 -157.88883       0   0.0 Hōkūleʻa
  2021-08-06T17:18:31UTC 2021-08-06T07:18:31-10:00 2021-08-06T06:18:31-11:00  21.31302 -157.88883     180   0.0 Hōkūleʻa
  2021-08-06T17:11:15UTC 2021-08-06T07:11:15-10:00 2021-08-06T06:11:15-11:00  21.31311 -157.88862      43   0.0 Hikianalia
  2021-08-06T16:18:44UTC 2021-08-06T06:18:44-10:00 2021-08-06T05:18:44-11:00  21.31303 -157.88883      33   0.0 Hōkūleʻa
  2021-08-06T16:10:46UTC 2021-08-06T06:10:46-10:00 2021-08-06T05:10:46-11:00  21.31307 -157.88866     255   0.0 Hikianalia
  2021-08-06T15:18:34UTC 2021-08-06T05:18:34-10:00 2021-08-06T04:18:34-11:00  21.31299 -157.88886     213   0.0 Hōkūleʻa
  2021-08-06T15:10:46UTC 2021-08-06T05:10:46-10:00 2021-08-06T04:10:46-11:00  21.31309 -157.88858     119   0.0 Hikianalia
  2021-08-06T14:18:22UTC 2021-08-06T04:18:22-10:00 2021-08-06T03:18:22-11:00  21.31303 -157.88883       0   0.0 Hōkūleʻa
  2021-08-06T14:11:16UTC 2021-08-06T04:11:16-10:00 2021-08-06T03:11:16-11:00  21.31311 -157.88862       0   0.0 Hikianalia
  2021-08-06T13:18:32UTC 2021-08-06T03:18:32-10:00 2021-08-06T02:18:32-11:00  21.31303 -157.88883     180   0.0 Hōkūleʻa
  2021-08-06T13:11:17UTC 2021-08-06T03:11:17-10:00 2021-08-06T02:11:17-11:00  21.31310 -157.88862     323   0.0 Hikianalia
  2021-08-06T12:18:48UTC 2021-08-06T02:18:48-10:00 2021-08-06T01:18:48-11:00  21.31304 -157.88883       0   0.0 Hōkūleʻa
  2021-08-06T12:10:43UTC 2021-08-06T02:10:43-10:00 2021-08-06T01:10:43-11:00  21.31299 -157.88853     139   0.0 Hikianalia
  2021-08-06T11:18:31UTC 2021-08-06T01:18:31-10:00 2021-08-06T00:18:31-11:00  21.31303 -157.88883     180   0.0 Hōkūleʻa
  2021-08-06T11:10:46UTC 2021-08-06T01:10:46-10:00 2021-08-06T00:10:46-11:00  21.31313 -157.88866     316   0.0 Hikianalia
  2021-08-06T10:18:24UTC 2021-08-06T00:18:24-10:00 2021-08-05T23:18:24-11:00  21.31305 -157.88883       0   0.0 Hōkūleʻa
  2021-08-06T10:11:06UTC 2021-08-06T00:11:06-10:00 2021-08-05T23:11:06-11:00  21.31311 -157.88864     299   0.0 Hikianalia
  2021-08-06T09:17:30UTC 2021-08-05T23:17:30-10:00 2021-08-05T22:17:30-11:00  21.31303 -157.88883       0   0.0 Hōkūleʻa
  2021-08-06T09:10:12UTC 2021-08-05T23:10:12-10:00 2021-08-05T22:10:12-11:00  21.31310 -157.88862     328   0.0 Hikianalia
  2021-08-06T08:18:38UTC 2021-08-05T22:18:38-10:00 2021-08-05T21:18:38-11:00  21.31303 -157.88883     180   0.0 Hōkūleʻa
  2021-08-06T08:10:42UTC 2021-08-05T22:10:42-10:00 2021-08-05T21:10:42-11:00  21.31300 -157.88856     180   0.0 Hikianalia
  2021-08-06T07:28:42UTC 2021-08-05T21:28:42-10:00 2021-08-05T20:28:42-11:00  21.31307 -157.88883       0   0.0 Hōkūleʻa
  2021-08-06T07:10:39UTC 2021-08-05T21:10:39-10:00 2021-08-05T20:10:39-11:00  21.31302 -157.88856     141   0.0 Hikianalia
  2021-08-06T06:18:39UTC 2021-08-05T20:18:39-10:00 2021-08-05T19:18:39-11:00  21.31303 -157.88883     223   0.0 Hōkūleʻa
  2021-08-06T06:11:10UTC 2021-08-05T20:11:10-10:00 2021-08-05T19:11:10-11:00  21.31309 -157.88862     137   0.0 Hikianalia
  2021-08-06T05:21:16UTC 2021-08-05T19:21:16-10:00 2021-08-05T18:21:16-11:00  21.31313 -157.88866     128   0.0 Hikianalia
  2021-08-06T05:18:32UTC 2021-08-05T19:18:32-10:00 2021-08-05T18:18:32-11:00  21.31305 -157.88881      90   0.0 Hōkūleʻa
  2021-08-06T04:18:39UTC 2021-08-05T18:18:39-10:00 2021-08-05T17:18:39-11:00  21.31305 -157.88883     180   0.0 Hōkūleʻa
  2021-08-06T04:10:46UTC 2021-08-05T18:10:46-10:00 2021-08-05T17:10:46-11:00  21.31317 -157.88871     231   0.0 Hikianalia
  2021-08-06T03:17:32UTC 2021-08-05T17:17:32-10:00 2021-08-05T16:17:32-11:00  21.31307 -157.88883       0   0.0 Hōkūleʻa
  2021-08-06T03:10:46UTC 2021-08-05T17:10:46-10:00 2021-08-05T16:10:46-11:00  21.31320 -157.88866     345   0.0 Hikianalia
  2021-08-06T02:17:21UTC 2021-08-05T16:17:21-10:00 2021-08-05T15:17:21-11:00  21.31305 -157.88883       0   0.0 Hōkūleʻa
  2021-08-06T02:11:15UTC 2021-08-05T16:11:15-10:00 2021-08-05T15:11:15-11:00  21.31312 -157.88864     339   0.0 Hikianalia
  2021-08-06T01:18:43UTC 2021-08-05T15:18:43-10:00 2021-08-05T14:18:43-11:00  21.31292 -157.88856     163   0.0 Hikianalia
  2021-08-06T01:18:23UTC 2021-08-05T15:18:23-10:00 2021-08-05T14:18:23-11:00  21.31305 -157.88883       0   0.0 Hōkūleʻa
  2021-08-06T00:17:48UTC 2021-08-05T14:17:48-10:00 2021-08-05T13:17:48-11:00  21.31305 -157.88883     306   0.0 Hōkūleʻa
  2021-08-06T00:09:45UTC 2021-08-05T14:09:45-10:00 2021-08-05T13:09:45-11:00  21.31311 -157.88862     321   0.0 Hikianalia
  2021-08-05T23:27:26UTC 2021-08-05T13:27:26-10:00 2021-08-05T12:27:26-11:00  21.31300 -157.88877     119   0.0 Hōkūleʻa
  2021-08-05T23:10:44UTC 2021-08-05T13:10:44-10:00 2021-08-05T12:10:44-11:00  21.31304 -157.88856     141   0.0 Hikianalia
  2021-08-05T22:17:24UTC 2021-08-05T12:17:24-10:00 2021-08-05T11:17:24-11:00  21.31303 -157.88881       0   0.0 Hōkūleʻa
  2021-08-05T22:10:08UTC 2021-08-05T12:10:08-10:00 2021-08-05T11:10:08-11:00  21.31311 -157.88862       0   0.0 Hikianalia
  2021-08-05T21:17:24UTC 2021-08-05T11:17:24-10:00 2021-08-05T10:17:24-11:00  21.31303 -157.88881     180   0.0 Hōkūleʻa
  2021-08-05T21:10:09UTC 2021-08-05T11:10:09-10:00 2021-08-05T10:10:09-11:00  21.31311 -157.88862     148   0.0 Hikianalia
  2021-08-05T20:18:47UTC 2021-08-05T10:18:47-10:00 2021-08-05T09:18:47-11:00  21.31305 -157.88881      90   0.0 Hōkūleʻa
  2021-08-05T20:11:14UTC 2021-08-05T10:11:14-10:00 2021-08-05T09:11:14-11:00  21.31314 -157.88864       0   0.0 Hikianalia
  2021-08-05T19:17:35UTC 2021-08-05T09:17:35-10:00 2021-08-05T08:17:35-11:00  21.31305 -157.88883       0   0.0 Hōkūleʻa
  2021-08-05T19:10:13UTC 2021-08-05T09:10:13-10:00 2021-08-05T08:10:13-11:00  21.31311 -157.88864     270   0.0 Hikianalia
  2021-08-05T18:18:31UTC 2021-08-05T08:18:31-10:00 2021-08-05T07:18:31-11:00  21.31303 -157.88883     180   0.0 Hōkūleʻa
  2021-08-05T18:10:08UTC 2021-08-05T08:10:08-10:00 2021-08-05T07:10:08-11:00  21.31311 -157.88862      61   0.0 Hikianalia
  2021-08-05T17:18:29UTC 2021-08-05T07:18:29-10:00 2021-08-05T06:18:29-11:00  21.31305 -157.88883       0   0.0 Hōkūleʻa
  2021-08-05T17:11:09UTC 2021-08-05T07:11:09-10:00 2021-08-05T06:11:09-11:00  21.31310 -157.88864       0   0.0 Hikianalia
  2021-08-05T16:18:46UTC 2021-08-05T06:18:46-10:00 2021-08-05T05:18:46-11:00  21.31303 -157.88883       0   0.0 Hōkūleʻa
  2021-08-05T16:10:47UTC 2021-08-05T06:10:47-10:00 2021-08-05T05:10:47-11:00  21.31308 -157.88864     154   0.0 Hikianalia
  2021-08-05T15:18:32UTC 2021-08-05T05:18:32-10:00 2021-08-05T04:18:32-11:00  21.31303 -157.88883     180   0.0 Hōkūleʻa
  2021-08-05T15:10:43UTC 2021-08-05T05:10:43-10:00 2021-08-05T04:10:43-11:00  21.31312 -157.88866     180   0.0 Hikianalia
  2021-08-05T14:18:35UTC 2021-08-05T04:18:35-10:00 2021-08-05T03:18:35-11:00  21.31306 -157.88883     328   0.0 Hōkūleʻa
  2021-08-05T14:11:17UTC 2021-08-05T04:11:17-10:00 2021-08-05T03:11:17-11:00  21.31313 -157.88866     308   0.0 Hikianalia
  2021-08-05T13:18:33UTC 2021-08-05T03:18:33-10:00 2021-08-05T02:18:33-11:00  21.31303 -157.88881      90   0.0 Hōkūleʻa
  2021-08-05T13:11:14UTC 2021-08-05T03:11:14-10:00 2021-08-05T02:11:14-11:00  21.31310 -157.88862     308   0.0 Hikianalia
  2021-08-05T12:18:40UTC 2021-08-05T02:18:40-10:00 2021-08-05T01:18:40-11:00  21.31303 -157.88883     137   0.0 Hōkūleʻa
  2021-08-05T12:09:36UTC 2021-08-05T02:09:36-10:00 2021-08-05T01:09:36-11:00  21.31307 -157.88858     270   0.0 Hikianalia
  2021-08-05T11:18:37UTC 2021-08-05T01:18:37-10:00 2021-08-05T00:18:37-11:00  21.31307 -157.88888     299   0.0 Hōkūleʻa
  2021-08-05T11:10:35UTC 2021-08-05T01:10:35-10:00 2021-08-05T00:10:35-11:00  21.31307 -157.88856     118   0.0 Hikianalia
  2021-08-05T10:18:32UTC 2021-08-05T00:18:32-10:00 2021-08-04T23:18:32-11:00  21.31306 -157.88886     327   0.0 Hōkūleʻa
  2021-08-05T10:11:15UTC 2021-08-05T00:11:15-10:00 2021-08-04T23:11:15-11:00  21.31311 -157.88864     299   0.0 Hikianalia
  2021-08-05T09:18:25UTC 2021-08-04T23:18:25-10:00 2021-08-04T22:18:25-11:00  21.31303 -157.88883     223   0.0 Hōkūleʻa
  2021-08-05T09:11:05UTC 2021-08-04T23:11:05-10:00 2021-08-04T22:11:05-11:00  21.31310 -157.88862     137   0.0 Hikianalia
  2021-08-05T08:18:49UTC 2021-08-04T22:18:49-10:00 2021-08-04T21:18:49-11:00  21.31305 -157.88881       0   0.0 Hōkūleʻa
  2021-08-05T08:10:46UTC 2021-08-04T22:10:46-10:00 2021-08-04T21:10:46-11:00  21.31317 -157.88868     321   0.0 Hikianalia
  2021-08-05T07:18:30UTC 2021-08-04T21:18:30-10:00 2021-08-04T20:18:30-11:00  21.31304 -157.88881       0   0.0 Hōkūleʻa
  2021-08-05T07:10:51UTC 2021-08-04T21:10:51-10:00 2021-08-04T20:10:51-11:00  21.31309 -157.88862     180   0.0 Hikianalia
  2021-08-05T06:18:32UTC 2021-08-04T20:18:32-10:00 2021-08-04T19:18:32-11:00  21.31303 -157.88881     223   0.0 Hōkūleʻa
  2021-08-05T06:11:19UTC 2021-08-04T20:11:19-10:00 2021-08-04T19:11:19-11:00  21.31313 -157.88862      90   0.0 Hikianalia
  2021-08-05T05:17:32UTC 2021-08-04T19:17:32-10:00 2021-08-04T18:17:32-11:00  21.31305 -157.88879      76   0.0 Hōkūleʻa
  2021-08-05T05:09:41UTC 2021-08-04T19:09:41-10:00 2021-08-04T18:09:41-11:00  21.31313 -157.88864       0   0.0 Hikianalia
  2021-08-05T04:18:41UTC 2021-08-04T18:18:41-10:00 2021-08-04T17:18:41-11:00  21.31304 -157.88883      90   0.0 Hōkūleʻa
  2021-08-05T04:10:39UTC 2021-08-04T18:10:39-10:00 2021-08-04T17:10:39-11:00  21.31311 -157.88864     212   0.0 Hikianalia
  2021-08-05T03:18:31UTC 2021-08-04T17:18:31-10:00 2021-08-04T16:18:31-11:00  21.31304 -157.88888     242   0.0 Hōkūleʻa
  2021-08-05T03:11:14UTC 2021-08-04T17:11:14-10:00 2021-08-04T16:11:14-11:00  21.31314 -157.88862       0   0.0 Hikianalia
  2021-08-05T02:17:32UTC 2021-08-04T16:17:32-10:00 2021-08-04T15:17:32-11:00  21.31306 -157.88883       0   0.0 Hōkūleʻa
  2021-08-05T02:10:16UTC 2021-08-04T16:10:16-10:00 2021-08-04T15:10:16-11:00  21.31314 -157.88862      48   0.0 Hikianalia
  2021-08-05T01:18:32UTC 2021-08-04T15:18:32-10:00 2021-08-04T14:18:32-11:00  21.31306 -157.88883       0   0.0 Hōkūleʻa
  2021-08-05T01:10:48UTC 2021-08-04T15:10:48-10:00 2021-08-04T14:10:48-11:00  21.31304 -157.88875     232   0.0 Hikianalia
  2021-08-05T00:17:41UTC 2021-08-04T14:17:41-10:00 2021-08-04T13:17:41-11:00  21.31305 -157.88883     295   0.0 Hōkūleʻa
  2021-08-05T00:10:05UTC 2021-08-04T14:10:05-10:00 2021-08-04T13:10:05-11:00  21.31313 -157.88862       0   0.0 Hikianalia
  2021-08-04T23:17:39UTC 2021-08-04T13:17:39-10:00 2021-08-04T12:17:39-11:00  21.31297 -157.88866     120   0.0 Hōkūleʻa
  2021-08-04T23:10:43UTC 2021-08-04T13:10:43-10:00 2021-08-04T12:10:43-11:00  21.31310 -157.88862     213   0.0 Hikianalia
  2021-08-04T22:18:32UTC 2021-08-04T12:18:32-10:00 2021-08-04T11:18:32-11:00  21.31309 -157.88888     308   0.0 Hōkūleʻa
  2021-08-04T22:09:45UTC 2021-08-04T12:09:45-10:00 2021-08-04T11:09:45-11:00  21.31313 -157.88860      64   0.0 Hikianalia
  2021-08-04T21:17:32UTC 2021-08-04T11:17:32-10:00 2021-08-04T10:17:32-11:00  21.31306 -157.88883     317   0.0 Hōkūleʻa
  2021-08-04T21:10:08UTC 2021-08-04T11:10:08-10:00 2021-08-04T10:10:08-11:00  21.31312 -157.88862      90   0.0 Hikianalia
  2021-08-04T20:18:45UTC 2021-08-04T10:18:45-10:00 2021-08-04T09:18:45-11:00  21.31304 -157.88881     117   0.0 Hōkūleʻa
  2021-08-04T20:10:14UTC 2021-08-04T10:10:14-10:00 2021-08-04T09:10:14-11:00  21.31312 -157.88866     285   0.0 Hikianalia
  2021-08-04T19:17:35UTC 2021-08-04T09:17:35-10:00 2021-08-04T08:17:35-11:00  21.31305 -157.88883       0   0.0 Hōkūleʻa
  2021-08-04T19:10:39UTC 2021-08-04T09:10:39-10:00 2021-08-04T08:10:39-11:00  21.31311 -157.88862       0   0.0 Hikianalia
  2021-08-04T18:18:34UTC 2021-08-04T08:18:34-10:00 2021-08-04T07:18:34-11:00  21.31304 -157.88883       0   0.0 Hōkūleʻa
  2021-08-04T18:10:16UTC 2021-08-04T08:10:16-10:00 2021-08-04T07:10:16-11:00  21.31310 -157.88862     143   0.0 Hikianalia
  2021-08-04T17:18:22UTC 2021-08-04T07:18:22-10:00 2021-08-04T06:18:22-11:00  21.31304 -157.88883       0   0.0 Hōkūleʻa
  2021-08-04T17:10:41UTC 2021-08-04T07:10:41-10:00 2021-08-04T06:10:41-11:00  21.31315 -157.88866     317   0.0 Hikianalia
  2021-08-04T16:18:49UTC 2021-08-04T06:18:49-10:00 2021-08-04T05:18:49-11:00  21.31303 -157.88883       0   0.0 Hōkūleʻa
  2021-08-04T16:11:12UTC 2021-08-04T06:11:12-10:00 2021-08-04T05:11:12-11:00  21.31311 -157.88862       0   0.0 Hikianalia
  2021-08-04T15:26:20UTC 2021-08-04T05:26:20-10:00 2021-08-04T04:26:20-11:00  21.31303 -157.88883       0   0.0 Hōkūleʻa
  2021-08-04T15:11:11UTC 2021-08-04T05:11:11-10:00 2021-08-04T04:11:11-11:00  21.31309 -157.88862     180   0.0 Hikianalia
  2021-08-04T14:18:30UTC 2021-08-04T04:18:30-10:00 2021-08-04T03:18:30-11:00  21.31303 -157.88883     180   0.0 Hōkūleʻa
  2021-08-04T14:10:47UTC 2021-08-04T04:10:47-10:00 2021-08-04T03:10:47-11:00  21.31311 -157.88862       0   0.0 Hikianalia
  2021-08-04T13:17:24UTC 2021-08-04T03:17:24-10:00 2021-08-04T02:17:24-11:00  21.31304 -157.88883       0   0.0 Hōkūleʻa
  2021-08-04T13:10:39UTC 2021-08-04T03:10:39-10:00 2021-08-04T02:10:39-11:00  21.31307 -157.88862     180   0.0 Hikianalia
  2021-08-04T12:18:41UTC 2021-08-04T02:18:41-10:00 2021-08-04T01:18:41-11:00  21.31303 -157.88883       0   0.0 Hōkūleʻa
  2021-08-04T12:11:16UTC 2021-08-04T02:11:16-10:00 2021-08-04T01:11:16-11:00  21.31311 -157.88862     137   0.0 Hikianalia
  2021-08-04T11:18:29UTC 2021-08-04T01:18:29-10:00 2021-08-04T00:18:29-11:00  21.31302 -157.88883     180   0.0 Hōkūleʻa
  2021-08-04T11:10:45UTC 2021-08-04T01:10:45-10:00 2021-08-04T00:10:45-11:00  21.31313 -157.88864     317   0.0 Hikianalia
  2021-08-04T10:18:32UTC 2021-08-04T00:18:32-10:00 2021-08-03T23:18:32-11:00  21.31305 -157.88883     270   0.0 Hōkūleʻa
  2021-08-04T10:10:48UTC 2021-08-04T00:10:48-10:00 2021-08-03T23:10:48-11:00  21.31305 -157.88856     127   0.0 Hikianalia
  2021-08-04T09:18:29UTC 2021-08-03T23:18:29-10:00 2021-08-03T22:18:29-11:00  21.31305 -157.88881      43   0.0 Hōkūleʻa
  2021-08-04T09:10:42UTC 2021-08-03T23:10:42-10:00 2021-08-03T22:10:42-11:00  21.31312 -157.88866     299   0.0 Hikianalia
  2021-08-04T08:18:39UTC 2021-08-03T22:18:39-10:00 2021-08-03T21:18:39-11:00  21.31303 -157.88883     318   0.0 Hōkūleʻa
  2021-08-04T08:11:16UTC 2021-08-03T22:11:16-10:00 2021-08-03T21:11:16-11:00  21.31310 -157.88862     333   0.0 Hikianalia
  2021-08-04T07:18:30UTC 2021-08-03T21:18:30-10:00 2021-08-03T20:18:30-11:00  21.31300 -157.88881     149   0.0 Hōkūleʻa
  2021-08-04T07:10:48UTC 2021-08-03T21:10:48-10:00 2021-08-03T20:10:48-11:00  21.31298 -157.88856     163   0.0 Hikianalia
  2021-08-04T06:18:38UTC 2021-08-03T20:18:38-10:00 2021-08-03T19:18:38-11:00  21.31304 -157.88883       0   0.0 Hōkūleʻa
  2021-08-04T06:10:46UTC 2021-08-03T20:10:46-10:00 2021-08-03T19:10:46-11:00  21.31305 -157.88858     148   0.0 Hikianalia
  2021-08-04T05:18:28UTC 2021-08-03T19:18:28-10:00 2021-08-03T18:18:28-11:00  21.31304 -157.88883       0   0.0 Hōkūleʻa
  2021-08-04T05:11:18UTC 2021-08-03T19:11:18-10:00 2021-08-03T18:11:18-11:00  21.31311 -157.88862       0   0.0 Hikianalia
  2021-08-04T04:17:46UTC 2021-08-03T18:17:46-10:00 2021-08-03T17:17:46-11:00  21.31304 -157.88883       0   0.0 Hōkūleʻa
  2021-08-04T04:11:16UTC 2021-08-03T18:11:16-10:00 2021-08-03T17:11:16-11:00  21.31309 -157.88862     180   0.0 Hikianalia
  2021-08-04T03:18:33UTC 2021-08-03T17:18:33-10:00 2021-08-03T16:18:33-11:00  21.31304 -157.88883       0   0.0 Hōkūleʻa
  2021-08-04T03:09:46UTC 2021-08-03T17:09:46-10:00 2021-08-03T16:09:46-11:00  21.31311 -157.88862       0   0.0 Hikianalia
  2021-08-04T02:17:32UTC 2021-08-03T16:17:32-10:00 2021-08-03T15:17:32-11:00  21.31304 -157.88883       0   0.0 Hōkūleʻa
  2021-08-04T02:10:40UTC 2021-08-03T16:10:40-10:00 2021-08-03T15:10:40-11:00  21.31311 -157.88862       0   0.0 Hikianalia
  2021-08-04T01:18:24UTC 2021-08-03T15:18:24-10:00 2021-08-03T14:18:24-11:00  21.31304 -157.88883     180   0.0 Hōkūleʻa
  2021-08-04T01:09:47UTC 2021-08-03T15:09:47-10:00 2021-08-03T14:09:47-11:00  21.31311 -157.88862      61   0.0 Hikianalia
  2021-08-04T00:17:41UTC 2021-08-03T14:17:41-10:00 2021-08-03T13:17:41-11:00  21.31305 -157.88883       0   0.0 Hōkūleʻa
  2021-08-04T00:11:20UTC 2021-08-03T14:11:20-10:00 2021-08-03T13:11:20-11:00  21.31310 -157.88864     241   0.0 Hikianalia
  2021-08-03T23:17:38UTC 2021-08-03T13:17:38-10:00 2021-08-03T12:17:38-11:00  21.31303 -157.88883     180   0.0 Hōkūleʻa
  2021-08-03T23:09:47UTC 2021-08-03T13:09:47-10:00 2021-08-03T12:09:47-11:00  21.31311 -157.88862       0   0.0 Hikianalia
  2021-08-03T22:17:31UTC 2021-08-03T12:17:31-10:00 2021-08-03T11:17:31-11:00  21.31305 -157.88883     317   0.0 Hōkūleʻa
  2021-08-03T22:10:48UTC 2021-08-03T12:10:48-10:00 2021-08-03T11:10:48-11:00  21.31311 -157.88862      90   0.0 Hikianalia
  2021-08-03T21:18:31UTC 2021-08-03T11:18:31-10:00 2021-08-03T10:18:31-11:00  21.31303 -157.88881     180   0.0 Hōkūleʻa
  2021-08-03T21:10:45UTC 2021-08-03T11:10:45-10:00 2021-08-03T10:10:45-11:00  21.31311 -157.88873     270   0.0 Hikianalia
  2021-08-03T20:17:48UTC 2021-08-03T10:17:48-10:00 2021-08-03T09:17:48-11:00  21.31304 -157.88881       0   0.0 Hōkūleʻa
  2021-08-03T20:10:34UTC 2021-08-03T10:10:34-10:00 2021-08-03T09:10:34-11:00  21.31311 -157.88864     242   0.0 Hikianalia
  2021-08-03T19:18:25UTC 2021-08-03T09:18:25-10:00 2021-08-03T08:18:25-11:00  21.31303 -157.88881       0   0.0 Hōkūleʻa
  2021-08-03T19:10:06UTC 2021-08-03T09:10:06-10:00 2021-08-03T08:10:06-11:00  21.31313 -157.88860      49   0.0 Hikianalia
  2021-08-03T18:18:33UTC 2021-08-03T08:18:33-10:00 2021-08-03T07:18:33-11:00  21.31303 -157.88881      61   0.0 Hōkūleʻa
  2021-08-03T18:10:46UTC 2021-08-03T08:10:46-10:00 2021-08-03T07:10:46-11:00  21.31308 -157.88866     208   0.0 Hikianalia
  2021-08-03T17:18:50UTC 2021-08-03T07:18:50-10:00 2021-08-03T06:18:50-11:00  21.31302 -157.88883     270   0.0 Hōkūleʻa
  2021-08-03T17:10:48UTC 2021-08-03T07:10:48-10:00 2021-08-03T06:10:48-11:00  21.31315 -157.88862       0   0.0 Hikianalia
  2021-08-03T16:18:24UTC 2021-08-03T06:18:24-10:00 2021-08-03T05:18:24-11:00  21.31302 -157.88881      90   0.0 Hōkūleʻa
  2021-08-03T16:11:14UTC 2021-08-03T06:11:14-10:00 2021-08-03T05:11:14-11:00  21.31311 -157.88862       0   0.0 Hikianalia
  2021-08-03T15:17:30UTC 2021-08-03T05:17:30-10:00 2021-08-03T04:17:30-11:00  21.31302 -157.88883     180   0.0 Hōkūleʻa
  2021-08-03T15:10:44UTC 2021-08-03T05:10:44-10:00 2021-08-03T04:10:44-11:00  21.31311 -157.88862       0   0.0 Hikianalia
  2021-08-03T14:22:22UTC 2021-08-03T04:22:22-10:00 2021-08-03T03:22:22-11:00  21.31311 -157.88862       0   0.0 Hikianalia
  2021-08-03T14:18:40UTC 2021-08-03T04:18:40-10:00 2021-08-03T03:18:40-11:00  21.31304 -157.88883       0   0.0 Hōkūleʻa
  2021-08-03T13:18:35UTC 2021-08-03T03:18:35-10:00 2021-08-03T02:18:35-11:00  21.31302 -157.88883     180   0.0 Hōkūleʻa
  2021-08-03T13:11:19UTC 2021-08-03T03:11:19-10:00 2021-08-03T02:11:19-11:00  21.31311 -157.88862     292   0.1 Hikianalia
  2021-08-03T12:18:31UTC 2021-08-03T02:18:31-10:00 2021-08-03T01:18:31-11:00  21.31303 -157.88883     180   0.0 Hōkūleʻa
  2021-08-03T12:10:38UTC 2021-08-03T02:10:38-10:00 2021-08-03T01:10:38-11:00  21.31235 -157.88660     108   0.1 Hikianalia
  2021-08-03T11:18:31UTC 2021-08-03T01:18:31-10:00 2021-08-03T00:18:31-11:00  21.31304 -157.88883     180   0.0 Hōkūleʻa
  2021-08-03T11:10:41UTC 2021-08-03T01:10:41-10:00 2021-08-03T00:10:41-11:00  21.31300 -157.88873     214   0.0 Hikianalia
  2021-08-03T10:18:44UTC 2021-08-03T00:18:44-10:00 2021-08-02T23:18:44-11:00  21.31305 -157.88883     180   0.0 Hōkūleʻa
  2021-08-03T10:11:41UTC 2021-08-03T00:11:41-10:00 2021-08-02T23:11:41-11:00  21.31312 -157.88864     328   0.0 Hikianalia
  2021-08-03T09:19:34UTC 2021-08-02T23:19:34-10:00 2021-08-02T22:19:34-11:00  21.31306 -157.88883     270   0.0 Hōkūleʻa
  2021-08-03T09:10:46UTC 2021-08-02T23:10:46-10:00 2021-08-02T22:10:46-11:00  21.31306 -157.88860      66   0.0 Hikianalia
  2021-08-03T08:18:39UTC 2021-08-02T22:18:39-10:00 2021-08-02T21:18:39-11:00  21.31306 -157.88881     180   0.0 Hōkūleʻa
  2021-08-03T08:09:49UTC 2021-08-02T22:09:49-10:00 2021-08-02T21:09:49-11:00  21.31300 -157.88873     266   0.0 Hikianalia
  2021-08-03T07:18:27UTC 2021-08-02T21:18:27-10:00 2021-08-02T20:18:27-11:00  21.31307 -157.88881       0   0.0 Hōkūleʻa
  2021-08-03T07:10:39UTC 2021-08-02T21:10:39-10:00 2021-08-02T20:10:39-11:00  21.31302 -157.88856     145   0.0 Hikianalia
  2021-08-03T06:18:49UTC 2021-08-02T20:18:49-10:00 2021-08-02T19:18:49-11:00  21.31303 -157.88881     119   0.0 Hōkūleʻa
  2021-08-03T06:11:18UTC 2021-08-02T20:11:18-10:00 2021-08-02T19:11:18-11:00  21.31310 -157.88862      46   0.0 Hikianalia
  2021-08-03T05:17:38UTC 2021-08-02T19:17:38-10:00 2021-08-02T18:17:38-11:00  21.31304 -157.88883     299   0.0 Hōkūleʻa
  2021-08-03T05:10:45UTC 2021-08-02T19:10:45-10:00 2021-08-02T18:10:45-11:00  21.31300 -157.88873     323   0.0 Hikianalia
  2021-08-03T04:18:27UTC 2021-08-02T18:18:27-10:00 2021-08-02T17:18:27-11:00  21.31303 -157.88881     223   0.0 Hōkūleʻa
  2021-08-03T04:10:48UTC 2021-08-02T18:10:48-10:00 2021-08-02T17:10:48-11:00  21.31290 -157.88864     195   0.0 Hikianalia
  2021-08-03T03:18:32UTC 2021-08-02T17:18:32-10:00 2021-08-02T16:18:32-11:00  21.31305 -157.88879      90   0.0 Hōkūleʻa
  2021-08-03T03:10:46UTC 2021-08-02T17:10:46-10:00 2021-08-02T16:10:46-11:00  21.31312 -157.88858      97   0.0 Hikianalia
  2021-08-03T02:17:46UTC 2021-08-02T16:17:46-10:00 2021-08-02T15:17:46-11:00  21.31305 -157.88883       0   0.0 Hōkūleʻa
  2021-08-03T02:10:45UTC 2021-08-02T16:10:45-10:00 2021-08-02T15:10:45-11:00  21.31313 -157.88866      25   0.0 Hikianalia
  2021-08-03T01:17:24UTC 2021-08-02T15:17:24-10:00 2021-08-02T14:17:24-11:00  21.31304 -157.88883       0   0.0 Hōkūleʻa
  2021-08-03T01:10:47UTC 2021-08-02T15:10:47-10:00 2021-08-02T14:10:47-11:00  21.31300 -157.88873     226   0.0 Hikianalia
  2021-08-03T00:18:30UTC 2021-08-02T14:18:30-10:00 2021-08-02T13:18:30-11:00  21.31302 -157.88883     212   0.0 Hōkūleʻa
  2021-08-03T00:10:12UTC 2021-08-02T14:10:12-10:00 2021-08-02T13:10:12-11:00  21.31310 -157.88862      46   0.0 Hikianalia
  2021-08-02T23:17:31UTC 2021-08-02T13:17:31-10:00 2021-08-02T12:17:31-11:00  21.31305 -157.88881      63   0.0 Hōkūleʻa
  2021-08-02T23:09:56UTC 2021-08-02T13:09:56-10:00 2021-08-02T12:09:56-11:00  21.31300 -157.88873       0   0.0 Hikianalia
  2021-08-02T22:17:45UTC 2021-08-02T12:17:45-10:00 2021-08-02T11:17:45-11:00  21.31304 -157.88883     290   0.0 Hōkūleʻa
  2021-08-02T22:10:48UTC 2021-08-02T12:10:48-10:00 2021-08-02T11:10:48-11:00  21.31300 -157.88873     226   0.0 Hikianalia
  2021-08-02T21:18:24UTC 2021-08-02T11:18:24-10:00 2021-08-02T10:18:24-11:00  21.31302 -157.88877     119   0.0 Hōkūleʻa
  2021-08-02T21:09:37UTC 2021-08-02T11:09:37-10:00 2021-08-02T10:09:37-11:00  21.31310 -157.88862     119   0.0 Hikianalia
  2021-08-02T20:17:29UTC 2021-08-02T10:17:29-10:00 2021-08-02T09:17:29-11:00  21.31304 -157.88881     180   0.0 Hōkūleʻa
  2021-08-02T20:11:16UTC 2021-08-02T10:11:16-10:00 2021-08-02T09:11:16-11:00  21.31311 -157.88864      56   0.0 Hikianalia
  2021-08-02T19:18:24UTC 2021-08-02T09:18:24-10:00 2021-08-02T08:18:24-11:00  21.31305 -157.88881      63   0.0 Hōkūleʻa
  2021-08-02T19:10:48UTC 2021-08-02T09:10:48-10:00 2021-08-02T08:10:48-11:00  21.31306 -157.88873     205   0.0 Hikianalia
  2021-08-02T18:18:45UTC 2021-08-02T08:18:45-10:00 2021-08-02T07:18:45-11:00  21.31304 -157.88883     212   0.0 Hōkūleʻa
  2021-08-02T18:09:48UTC 2021-08-02T08:09:48-10:00 2021-08-02T07:09:48-11:00  21.31310 -157.88871     262   0.0 Hikianalia
  2021-08-02T17:18:37UTC 2021-08-02T07:18:37-10:00 2021-08-02T06:18:37-11:00  21.31313 -157.88877      25   0.0 Hōkūleʻa
  2021-08-02T17:10:35UTC 2021-08-02T07:10:35-10:00 2021-08-02T06:10:35-11:00  21.31311 -157.88862      75   0.0 Hikianalia
  2021-08-02T16:18:40UTC 2021-08-02T06:18:40-10:00 2021-08-02T05:18:40-11:00  21.31300 -157.88883     180   0.0 Hōkūleʻa
  2021-08-02T16:11:17UTC 2021-08-02T06:11:17-10:00 2021-08-02T05:11:17-11:00  21.31310 -157.88866     270   0.0 Hikianalia
  2021-08-02T15:18:24UTC 2021-08-02T05:18:24-10:00 2021-08-02T04:18:24-11:00  21.31302 -157.88883     241   0.0 Hōkūleʻa
  2021-08-02T15:10:43UTC 2021-08-02T05:10:43-10:00 2021-08-02T04:10:43-11:00  21.31310 -157.88856      72   0.0 Hikianalia
  2021-08-02T14:18:56UTC 2021-08-02T04:18:56-10:00 2021-08-02T03:18:56-11:00  21.31303 -157.88881     270   0.0 Hōkūleʻa
  2021-08-02T14:10:44UTC 2021-08-02T04:10:44-10:00 2021-08-02T03:10:44-11:00  21.31307 -157.88866     180   0.0 Hikianalia
  2021-08-02T13:18:37UTC 2021-08-02T03:18:37-10:00 2021-08-02T02:18:37-11:00  21.31303 -157.88879     106   0.0 Hōkūleʻa
  2021-08-02T13:10:48UTC 2021-08-02T03:10:48-10:00 2021-08-02T02:10:48-11:00  21.31310 -157.88866     255   0.0 Hikianalia
  2021-08-02T12:27:36UTC 2021-08-02T02:27:36-10:00 2021-08-02T01:27:36-11:00  21.31304 -157.88883     299   0.0 Hōkūleʻa
  2021-08-02T12:11:17UTC 2021-08-02T02:11:17-10:00 2021-08-02T01:11:17-11:00  21.31311 -157.88862     334   0.0 Hikianalia
  2021-08-02T11:18:21UTC 2021-08-02T01:18:21-10:00 2021-08-02T00:18:21-11:00  21.31303 -157.88881      90   0.0 Hōkūleʻa
  2021-08-02T11:10:36UTC 2021-08-02T01:10:36-10:00 2021-08-02T00:10:36-11:00  21.31307 -157.88860     148   0.0 Hikianalia
  2021-08-02T10:18:38UTC 2021-08-02T00:18:38-10:00 2021-08-01T23:18:38-11:00  21.31317 -157.88866     316   0.0 Hikianalia
  2021-08-02T10:18:38UTC 2021-08-02T00:18:38-10:00 2021-08-01T23:18:38-11:00  21.31303 -157.88883     180   0.0 Hōkūleʻa
  2021-08-02T09:18:30UTC 2021-08-01T23:18:30-10:00 2021-08-01T22:18:30-11:00  21.31305 -157.88883     270   0.0 Hōkūleʻa
  2021-08-02T09:10:38UTC 2021-08-01T23:10:38-10:00 2021-08-01T22:10:38-11:00  21.31310 -157.88860      90   0.0 Hikianalia
  2021-08-02T08:17:38UTC 2021-08-01T22:17:38-10:00 2021-08-01T21:17:38-11:00  21.31305 -157.88881       0   0.0 Hōkūleʻa
  2021-08-02T08:11:15UTC 2021-08-01T22:11:15-10:00 2021-08-01T21:11:15-11:00  21.31310 -157.88862      46   0.0 Hikianalia
  2021-08-02T07:18:25UTC 2021-08-01T21:18:25-10:00 2021-08-01T20:18:25-11:00  21.31299 -157.88881     180   0.0 Hōkūleʻa
  2021-08-02T07:10:45UTC 2021-08-01T21:10:45-10:00 2021-08-01T20:10:45-11:00  21.31300 -157.88873     223   0.0 Hikianalia
  2021-08-02T06:18:41UTC 2021-08-01T20:18:41-10:00 2021-08-01T19:18:41-11:00  21.31303 -157.88881     223   0.0 Hōkūleʻa
  2021-08-02T06:11:17UTC 2021-08-01T20:11:17-10:00 2021-08-01T19:11:17-11:00  21.31311 -157.88862      43   0.0 Hikianalia
  2021-08-02T05:18:56UTC 2021-08-01T19:18:56-10:00 2021-08-01T18:18:56-11:00  21.31300 -157.88873       0   0.0 Hikianalia
  2021-08-02T05:18:30UTC 2021-08-01T19:18:30-10:00 2021-08-01T18:18:30-11:00  21.31305 -157.88879      90   0.0 Hōkūleʻa
  2021-08-02T04:17:33UTC 2021-08-01T18:17:33-10:00 2021-08-01T17:17:33-11:00  21.31305 -157.88881       0   0.0 Hōkūleʻa
  2021-08-02T04:10:47UTC 2021-08-01T18:10:47-10:00 2021-08-01T17:10:47-11:00  21.31300 -157.88873       0   0.0 Hikianalia
  2021-08-02T03:18:24UTC 2021-08-01T17:18:24-10:00 2021-08-01T16:18:24-11:00  21.31305 -157.88881      90   0.0 Hōkūleʻa
  2021-08-02T03:10:46UTC 2021-08-01T17:10:46-10:00 2021-08-01T16:10:46-11:00  21.31300 -157.88873     205   0.0 Hikianalia
  2021-08-02T02:18:49UTC 2021-08-01T16:18:49-10:00 2021-08-01T15:18:49-11:00  21.31305 -157.88883     284   0.0 Hōkūleʻa
  2021-08-02T02:10:19UTC 2021-08-01T16:10:19-10:00 2021-08-01T15:10:19-11:00  21.31313 -157.88866      25   0.0 Hikianalia
  2021-08-02T01:17:35UTC 2021-08-01T15:17:35-10:00 2021-08-01T14:17:35-11:00  21.31304 -157.88879     317   0.0 Hōkūleʻa
  2021-08-02T01:10:49UTC 2021-08-01T15:10:49-10:00 2021-08-01T14:10:49-11:00  21.31300 -157.88873       0   0.0 Hikianalia
  2021-08-02T00:17:32UTC 2021-08-01T14:17:32-10:00 2021-08-01T13:17:32-11:00  21.31302 -157.88877     118   0.0 Hōkūleʻa
  2021-08-02T00:09:46UTC 2021-08-01T14:09:46-10:00 2021-08-01T13:09:46-11:00  21.31300 -157.88873       0   0.0 Hikianalia
  2021-08-01T23:18:30UTC 2021-08-01T13:18:30-10:00 2021-08-01T12:18:30-11:00  21.31303 -157.88879       0   0.0 Hōkūleʻa
  2021-08-01T23:10:35UTC 2021-08-01T13:10:35-10:00 2021-08-01T12:10:35-11:00  21.31300 -157.88873     223   0.0 Hikianalia
  2021-08-01T22:17:48UTC 2021-08-01T12:17:48-10:00 2021-08-01T11:17:48-11:00  21.31303 -157.88879     123   0.0 Hōkūleʻa
  2021-08-01T22:10:20UTC 2021-08-01T12:10:20-10:00 2021-08-01T11:10:20-11:00  21.31311 -157.88862     100   0.0 Hikianalia
  2021-08-01T21:17:25UTC 2021-08-01T11:17:25-10:00 2021-08-01T10:17:25-11:00  21.31309 -157.88890     305   0.0 Hōkūleʻa
  2021-08-01T21:10:47UTC 2021-08-01T11:10:47-10:00 2021-08-01T10:10:47-11:00  21.31313 -157.88875     255   0.0 Hikianalia
  2021-08-01T20:18:45UTC 2021-08-01T10:18:45-10:00 2021-08-01T09:18:45-11:00  21.31305 -157.88883     297   0.0 Hōkūleʻa
  2021-08-01T20:09:49UTC 2021-08-01T10:09:49-10:00 2021-08-01T09:09:49-11:00  21.31315 -157.88866     317   0.0 Hikianalia
  2021-08-01T19:18:33UTC 2021-08-01T09:18:33-10:00 2021-08-01T08:18:33-11:00  21.31304 -157.88881      42   0.0 Hōkūleʻa
  2021-08-01T19:10:50UTC 2021-08-01T09:10:50-10:00 2021-08-01T08:10:50-11:00  21.31311 -157.88862       0   0.0 Hikianalia
  2021-08-01T18:17:49UTC 2021-08-01T08:17:49-10:00 2021-08-01T07:17:49-11:00  21.31302 -157.88883      75   0.0 Hōkūleʻa
  2021-08-01T18:11:18UTC 2021-08-01T08:11:18-10:00 2021-08-01T07:11:18-11:00  21.31311 -157.88862      43   0.0 Hikianalia
  2021-08-01T17:18:31UTC 2021-08-01T07:18:31-10:00 2021-08-01T06:18:31-11:00  21.31300 -157.88888     241   0.0 Hōkūleʻa
  2021-08-01T17:10:36UTC 2021-08-01T07:10:36-10:00 2021-08-01T06:10:36-11:00  21.31303 -157.88871     236   0.0 Hikianalia
  2021-08-01T16:26:41UTC 2021-08-01T06:26:41-10:00 2021-08-01T05:26:41-11:00  21.31303 -157.88883     299   0.0 Hōkūleʻa
  2021-08-01T16:10:48UTC 2021-08-01T06:10:48-10:00 2021-08-01T05:10:48-11:00  21.31308 -157.88862     137   0.0 Hikianalia
  2021-08-01T15:18:34UTC 2021-08-01T05:18:34-10:00 2021-08-01T04:18:34-11:00  21.31302 -157.88881     119   0.0 Hōkūleʻa
  2021-08-01T15:10:56UTC 2021-08-01T05:10:56-10:00 2021-08-01T04:10:56-11:00  21.31310 -157.88864     241   0.0 Hikianalia
  2021-08-01T14:18:41UTC 2021-08-01T04:18:41-10:00 2021-08-01T03:18:41-11:00  21.31303 -157.88883      90   0.0 Hōkūleʻa
  2021-08-01T14:11:19UTC 2021-08-01T04:11:19-10:00 2021-08-01T03:11:19-11:00  21.31311 -157.88862     255   0.0 Hikianalia
  2021-08-01T13:18:26UTC 2021-08-01T03:18:26-10:00 2021-08-01T02:18:26-11:00  21.31303 -157.88886     298   0.0 Hōkūleʻa
  2021-08-01T13:09:41UTC 2021-08-01T03:09:41-10:00 2021-08-01T02:09:41-11:00  21.31312 -157.88858      37   0.0 Hikianalia
  2021-08-01T12:18:31UTC 2021-08-01T02:18:31-10:00 2021-08-01T01:18:31-11:00  21.31302 -157.88883     180   0.0 Hōkūleʻa
  2021-08-01T12:10:39UTC 2021-08-01T02:10:39-10:00 2021-08-01T01:10:39-11:00  21.31307 -157.88862     180   0.0 Hikianalia
  2021-08-01T11:18:30UTC 2021-08-01T01:18:30-10:00 2021-08-01T00:18:30-11:00  21.31304 -157.88883     299   0.0 Hōkūleʻa
  2021-08-01T11:10:47UTC 2021-08-01T01:10:47-10:00 2021-08-01T00:10:47-11:00  21.31308 -157.88862     180   0.0 Hikianalia
  2021-08-01T10:17:47UTC 2021-08-01T00:17:47-10:00 2021-07-31T23:17:47-11:00  21.31303 -157.88881     180   0.0 Hōkūleʻa
  2021-08-01T10:11:09UTC 2021-08-01T00:11:09-10:00 2021-07-31T23:11:09-11:00  21.31310 -157.88862       0   0.0 Hikianalia
  2021-08-01T09:18:25UTC 2021-07-31T23:18:25-10:00 2021-07-31T22:18:25-11:00  21.31305 -157.88881     328   0.0 Hōkūleʻa
  2021-08-01T09:10:38UTC 2021-07-31T23:10:38-10:00 2021-07-31T22:10:38-11:00  21.31310 -157.88862       0   0.0 Hikianalia
  2021-08-01T08:18:34UTC 2021-07-31T22:18:34-10:00 2021-07-31T21:18:34-11:00  21.31302 -157.88879      90   0.0 Hōkūleʻa
  2021-08-01T08:10:45UTC 2021-07-31T22:10:45-10:00 2021-07-31T21:10:45-11:00  21.31306 -157.88862     180   0.0 Hikianalia
  2021-08-01T07:18:34UTC 2021-07-31T21:18:34-10:00 2021-07-31T20:18:34-11:00  21.31302 -157.88881     222   0.0 Hōkūleʻa
  2021-08-01T07:11:07UTC 2021-07-31T21:11:07-10:00 2021-07-31T20:11:07-11:00  21.31310 -157.88862      46   0.0 Hikianalia
  2021-08-01T06:17:40UTC 2021-07-31T20:17:40-10:00 2021-07-31T19:17:40-11:00  21.31304 -157.88879      90   0.0 Hōkūleʻa
  2021-08-01T06:10:52UTC 2021-07-31T20:10:52-10:00 2021-07-31T19:10:52-11:00  21.31300 -157.88873     233   0.0 Hikianalia
  2021-08-01T05:18:22UTC 2021-07-31T19:18:22-10:00 2021-07-31T18:18:22-11:00  21.31304 -157.88886     270   0.0 Hōkūleʻa
  2021-08-01T05:10:45UTC 2021-07-31T19:10:45-10:00 2021-07-31T18:10:45-11:00  21.31308 -157.88862     180   0.0 Hikianalia
  2021-08-01T04:18:35UTC 2021-07-31T18:18:35-10:00 2021-07-31T17:18:35-11:00  21.31304 -157.88883     223   0.0 Hōkūleʻa
  2021-08-01T04:10:09UTC 2021-07-31T18:10:09-10:00 2021-07-31T17:10:09-11:00  21.31311 -157.88862      43   0.0 Hikianalia
  2021-08-01T03:18:32UTC 2021-07-31T17:18:32-10:00 2021-07-31T16:18:32-11:00  21.31306 -157.88881      43   0.0 Hōkūleʻa
  2021-08-01T03:10:45UTC 2021-07-31T17:10:45-10:00 2021-07-31T16:10:45-11:00  21.31300 -157.88873     212   0.0 Hikianalia
  2021-08-01T02:17:39UTC 2021-07-31T16:17:39-10:00 2021-07-31T15:17:39-11:00  21.31304 -157.88883     256   0.0 Hōkūleʻa
  2021-08-01T02:10:20UTC 2021-07-31T16:10:20-10:00 2021-07-31T15:10:20-11:00  21.31310 -157.88866      32   0.0 Hikianalia
  2021-08-01T01:17:36UTC 2021-07-31T15:17:36-10:00 2021-07-31T14:17:36-11:00  21.31305 -157.88879      43   0.0 Hōkūleʻa
  2021-08-01T01:10:41UTC 2021-07-31T15:10:41-10:00 2021-07-31T14:10:41-11:00  21.31300 -157.88873       0   0.0 Hikianalia
  2021-08-01T00:18:31UTC 2021-07-31T14:18:31-10:00 2021-07-31T13:18:31-11:00  21.31303 -157.88881     180   0.0 Hōkūleʻa
  2021-08-01T00:10:45UTC 2021-07-31T14:10:45-10:00 2021-07-31T13:10:45-11:00  21.31300 -157.88873       0   0.0 Hikianalia
  2021-07-31T23:17:30UTC 2021-07-31T13:17:30-10:00 2021-07-31T12:17:30-11:00  21.31304 -157.88881     117   0.0 Hōkūleʻa
  2021-07-31T23:09:46UTC 2021-07-31T13:09:46-10:00 2021-07-31T12:09:46-11:00  21.31300 -157.88873     223   0.0 Hikianalia
  2021-07-31T22:17:47UTC 2021-07-31T12:17:47-10:00 2021-07-31T11:17:47-11:00  21.31305 -157.88883     118   0.0 Hōkūleʻa
  2021-07-31T22:10:15UTC 2021-07-31T12:10:15-10:00 2021-07-31T11:10:15-11:00  21.31311 -157.88862       0   0.0 Hikianalia
  2021-07-31T21:18:32UTC 2021-07-31T11:18:32-10:00 2021-07-31T10:18:32-11:00  21.31306 -157.88886     316   0.0 Hōkūleʻa
  2021-07-31T21:10:48UTC 2021-07-31T11:10:48-10:00 2021-07-31T10:10:48-11:00  21.31306 -157.88862     316   0.0 Hikianalia
  2021-07-31T20:18:04UTC 2021-07-31T10:18:04-10:00 2021-07-31T09:18:04-11:00  21.31304 -157.88860     148   0.0 Hikianalia
  2021-07-31T20:17:32UTC 2021-07-31T10:17:32-10:00 2021-07-31T09:17:32-11:00  21.31304 -157.88883       0   0.0 Hōkūleʻa
  2021-07-31T19:18:25UTC 2021-07-31T09:18:25-10:00 2021-07-31T08:18:25-11:00  21.31303 -157.88883       0   0.0 Hōkūleʻa
  2021-07-31T19:10:46UTC 2021-07-31T09:10:46-10:00 2021-07-31T08:10:46-11:00  21.31310 -157.88864     180   0.0 Hikianalia
  2021-07-31T18:17:42UTC 2021-07-31T08:17:42-10:00 2021-07-31T07:17:42-11:00  21.31303 -157.88883       0   0.0 Hōkūleʻa
  2021-07-31T18:10:11UTC 2021-07-31T08:10:11-10:00 2021-07-31T07:10:11-11:00  21.31311 -157.88864       0   0.0 Hikianalia
  2021-07-31T17:19:56UTC 2021-07-31T07:19:56-10:00 2021-07-31T06:19:56-11:00  21.31308 -157.88864     212   0.0 Hikianalia
  2021-07-31T17:18:37UTC 2021-07-31T07:18:37-10:00 2021-07-31T06:18:37-11:00  21.31299 -157.88883     180   0.0 Hōkūleʻa
  2021-07-31T16:18:34UTC 2021-07-31T06:18:34-10:00 2021-07-31T05:18:34-11:00  21.31302 -157.88883     299   0.0 Hōkūleʻa
  2021-07-31T16:10:34UTC 2021-07-31T06:10:34-10:00 2021-07-31T05:10:34-11:00  21.31311 -157.88862       0   0.0 Hikianalia
  2021-07-31T15:17:25UTC 2021-07-31T05:17:25-10:00 2021-07-31T04:17:25-11:00  21.31300 -157.88881     149   0.0 Hōkūleʻa
  2021-07-31T15:10:39UTC 2021-07-31T05:10:39-10:00 2021-07-31T04:10:39-11:00  21.31308 -157.88862     270   0.0 Hikianalia
  2021-07-31T14:18:39UTC 2021-07-31T04:18:39-10:00 2021-07-31T03:18:39-11:00  21.31304 -157.88883      43   0.0 Hōkūleʻa
  2021-07-31T14:10:42UTC 2021-07-31T04:10:42-10:00 2021-07-31T03:10:42-11:00  21.31308 -157.88856     138   0.0 Hikianalia
  2021-07-31T13:18:36UTC 2021-07-31T03:18:36-10:00 2021-07-31T02:18:36-11:00  21.31302 -157.88886     241   0.0 Hōkūleʻa
  2021-07-31T13:10:46UTC 2021-07-31T03:10:46-10:00 2021-07-31T02:10:46-11:00  21.31312 -157.88860      90   0.0 Hikianalia
  2021-07-31T12:18:33UTC 2021-07-31T02:18:33-10:00 2021-07-31T01:18:33-11:00  21.31304 -157.88881       0   0.0 Hōkūleʻa
  2021-07-31T12:11:20UTC 2021-07-31T02:11:20-10:00 2021-07-31T01:11:20-11:00  21.31312 -157.88862     306   0.0 Hikianalia
  2021-07-31T11:18:31UTC 2021-07-31T01:18:31-10:00 2021-07-31T00:18:31-11:00  21.31303 -157.88881     180   0.0 Hōkūleʻa
  2021-07-31T11:10:45UTC 2021-07-31T01:10:45-10:00 2021-07-31T00:10:45-11:00  21.31308 -157.88856     131   0.0 Hikianalia
  2021-07-31T10:18:41UTC 2021-07-31T00:18:41-10:00 2021-07-30T23:18:41-11:00  21.31304 -157.88881       0   0.0 Hōkūleʻa
  2021-07-31T10:10:49UTC 2021-07-31T00:10:49-10:00 2021-07-30T23:10:49-11:00  21.31313 -157.88862       0   0.0 Hikianalia
  2021-07-31T09:18:33UTC 2021-07-30T23:18:33-10:00 2021-07-30T22:18:33-11:00  21.31304 -157.88881     299   0.0 Hōkūleʻa
  2021-07-31T09:10:39UTC 2021-07-30T23:10:39-10:00 2021-07-30T22:10:39-11:00  21.31311 -157.88862       0   0.0 Hikianalia
  2021-07-31T08:27:50UTC 2021-07-30T22:27:50-10:00 2021-07-30T21:27:50-11:00  21.31303 -157.88879       0   0.0 Hōkūleʻa
  2021-07-31T08:11:16UTC 2021-07-30T22:11:16-10:00 2021-07-30T21:11:16-11:00  21.31311 -157.88862      43   0.0 Hikianalia
  2021-07-31T07:18:26UTC 2021-07-30T21:18:26-10:00 2021-07-30T20:18:26-11:00  21.31300 -157.88879     180   0.0 Hōkūleʻa
  2021-07-31T07:09:53UTC 2021-07-30T21:09:53-10:00 2021-07-30T20:09:53-11:00  21.31300 -157.88873     255   0.0 Hikianalia
  2021-07-31T06:18:48UTC 2021-07-30T20:18:48-10:00 2021-07-30T19:18:48-11:00  21.31302 -157.88879     180   0.0 Hōkūleʻa
  2021-07-31T06:10:36UTC 2021-07-30T20:10:36-10:00 2021-07-30T19:10:36-11:00  21.31305 -157.88856     137   0.0 Hikianalia
  2021-07-31T05:18:28UTC 2021-07-30T19:18:28-10:00 2021-07-30T18:18:28-11:00  21.31304 -157.88879      42   0.0 Hōkūleʻa
  2021-07-31T05:10:47UTC 2021-07-30T19:10:47-10:00 2021-07-30T18:10:47-11:00  21.31311 -157.88862     180   0.0 Hikianalia
  2021-07-31T04:18:34UTC 2021-07-30T18:18:34-10:00 2021-07-30T17:18:34-11:00  21.31302 -157.88881     255   0.0 Hōkūleʻa
  2021-07-31T04:11:14UTC 2021-07-30T18:11:14-10:00 2021-07-30T17:11:14-11:00  21.31312 -157.88862     109   0.0 Hikianalia
  2021-07-31T03:18:31UTC 2021-07-30T17:18:31-10:00 2021-07-30T16:18:31-11:00  21.31303 -157.88877      80   0.0 Hōkūleʻa
  2021-07-31T03:10:45UTC 2021-07-30T17:10:45-10:00 2021-07-30T16:10:45-11:00  21.31314 -157.88868     298   0.0 Hikianalia
  2021-07-31T02:18:48UTC 2021-07-30T16:18:48-10:00 2021-07-30T15:18:48-11:00  21.31302 -157.88883       0   0.0 Hōkūleʻa
  2021-07-31T02:10:18UTC 2021-07-30T16:10:18-10:00 2021-07-30T15:10:18-11:00  21.31311 -157.88862      37   0.0 Hikianalia
  2021-07-31T01:17:26UTC 2021-07-30T15:17:26-10:00 2021-07-30T14:17:26-11:00  21.31302 -157.88883     241   0.0 Hōkūleʻa
  2021-07-31T01:09:39UTC 2021-07-30T15:09:39-10:00 2021-07-30T14:09:39-11:00  21.31295 -157.88875     200   0.0 Hikianalia
  2021-07-31T00:18:33UTC 2021-07-30T14:18:33-10:00 2021-07-30T13:18:33-11:00  21.31303 -157.88881     299   0.0 Hōkūleʻa
  2021-07-31T00:10:47UTC 2021-07-30T14:10:47-10:00 2021-07-30T13:10:47-11:00  21.31312 -157.88868     270   0.0 Hikianalia
  2021-07-30T23:17:33UTC 2021-07-30T13:17:33-10:00 2021-07-30T12:17:33-11:00  21.31302 -157.88879       0   0.0 Hōkūleʻa
  2021-07-30T23:10:19UTC 2021-07-30T13:10:19-10:00 2021-07-30T12:10:19-11:00  21.31312 -157.88862     104   0.0 Hikianalia
  2021-07-30T22:26:58UTC 2021-07-30T12:26:58-10:00 2021-07-30T11:26:58-11:00  21.31302 -157.88879     126   0.0 Hōkūleʻa
  2021-07-30T22:11:21UTC 2021-07-30T12:11:21-10:00 2021-07-30T11:11:21-11:00  21.31313 -157.88866     223   0.0 Hikianalia
  2021-07-30T21:17:26UTC 2021-07-30T11:17:26-10:00 2021-07-30T10:17:26-11:00  21.31306 -157.88886     312   0.0 Hōkūleʻa
  2021-07-30T21:09:47UTC 2021-07-30T11:09:47-10:00 2021-07-30T10:09:47-11:00  21.31318 -157.88862       0   0.0 Hikianalia
  2021-07-30T20:18:23UTC 2021-07-30T10:18:23-10:00 2021-07-30T09:18:23-11:00  21.31300 -157.88879     119   0.0 Hōkūleʻa
  2021-07-30T20:11:09UTC 2021-07-30T10:11:09-10:00 2021-07-30T09:11:09-11:00  21.31312 -157.88862     298   0.0 Hikianalia
  2021-07-30T19:18:33UTC 2021-07-30T09:18:33-10:00 2021-07-30T08:18:33-11:00  21.31302 -157.88881       0   0.0 Hōkūleʻa
  2021-07-30T19:09:47UTC 2021-07-30T09:09:47-10:00 2021-07-30T08:09:47-11:00  21.31311 -157.88860      75   0.0 Hikianalia
  2021-07-30T18:25:46UTC 2021-07-30T08:25:46-10:00 2021-07-30T07:25:46-11:00  21.31302 -157.88881     128   0.0 Hōkūleʻa
  2021-07-30T18:11:16UTC 2021-07-30T08:11:16-10:00 2021-07-30T07:11:16-11:00  21.31309 -157.88868     348   0.0 Hikianalia
  2021-07-30T17:17:30UTC 2021-07-30T07:17:30-10:00 2021-07-30T06:17:30-11:00  21.31305 -157.88886     217   0.0 Hōkūleʻa
  2021-07-30T17:10:44UTC 2021-07-30T07:10:44-10:00 2021-07-30T06:10:44-11:00  21.31299 -157.88866     111   0.0 Hikianalia
  2021-07-30T16:18:26UTC 2021-07-30T06:18:26-10:00 2021-07-30T05:18:26-11:00  21.31310 -157.88881     180   0.0 Hōkūleʻa
  2021-07-30T16:10:43UTC 2021-07-30T06:10:43-10:00 2021-07-30T05:10:43-11:00  21.31305 -157.88881     298   0.0 Hikianalia
  2021-07-30T15:18:33UTC 2021-07-30T05:18:33-10:00 2021-07-30T04:18:33-11:00  21.31311 -157.88881     270   0.0 Hōkūleʻa
  2021-07-30T15:10:47UTC 2021-07-30T05:10:47-10:00 2021-07-30T04:10:47-11:00  21.31303 -157.88877     270   0.0 Hikianalia
  2021-07-30T14:18:46UTC 2021-07-30T04:18:46-10:00 2021-07-30T03:18:46-11:00  21.31311 -157.88879     327   0.0 Hōkūleʻa
  2021-07-30T14:11:15UTC 2021-07-30T04:11:15-10:00 2021-07-30T03:11:15-11:00  21.31303 -157.88875     119   0.0 Hikianalia
  2021-07-30T13:18:28UTC 2021-07-30T03:18:28-10:00 2021-07-30T02:18:28-11:00  21.31308 -157.88877     128   0.0 Hōkūleʻa
  2021-07-30T13:10:50UTC 2021-07-30T03:10:50-10:00 2021-07-30T02:10:50-11:00  21.31304 -157.88877     309   0.0 Hikianalia
  2021-07-30T12:25:04UTC 2021-07-30T02:25:04-10:00 2021-07-30T01:25:04-11:00  21.31311 -157.88881     270   0.0 Hōkūleʻa
  2021-07-30T12:10:47UTC 2021-07-30T02:10:47-10:00 2021-07-30T01:10:47-11:00  21.31300 -157.88873       0   0.0 Hikianalia
  2021-07-30T11:18:24UTC 2021-07-30T01:18:24-10:00 2021-07-30T00:18:24-11:00  21.31311 -157.88879       0   0.0 Hōkūleʻa
  2021-07-30T11:11:40UTC 2021-07-30T01:11:40-10:00 2021-07-30T00:11:40-11:00  21.31300 -157.88873     154   0.0 Hikianalia
  2021-07-30T10:25:26UTC 2021-07-30T00:25:26-10:00 2021-07-29T23:25:26-11:00  21.31310 -157.88879     349   0.0 Hōkūleʻa
  2021-07-30T10:10:53UTC 2021-07-30T00:10:53-10:00 2021-07-29T23:10:53-11:00  21.31305 -157.88875     334   0.0 Hikianalia
  2021-07-30T09:18:25UTC 2021-07-29T23:18:25-10:00 2021-07-29T22:18:25-11:00  21.31299 -157.88877     170   0.0 Hōkūleʻa
  2021-07-30T09:10:46UTC 2021-07-29T23:10:46-10:00 2021-07-29T22:10:46-11:00  21.31300 -157.88873      90   0.0 Hikianalia
  2021-07-30T08:18:31UTC 2021-07-29T22:18:31-10:00 2021-07-29T21:18:31-11:00  21.31311 -157.88879     119   0.0 Hōkūleʻa
  2021-07-30T08:10:44UTC 2021-07-29T22:10:44-10:00 2021-07-29T21:10:44-11:00  21.31300 -157.88877     153   0.0 Hikianalia
  2021-07-30T07:18:28UTC 2021-07-29T21:18:28-10:00 2021-07-29T20:18:28-11:00  21.31312 -157.88881     299   0.0 Hōkūleʻa
  2021-07-30T07:10:47UTC 2021-07-29T21:10:47-10:00 2021-07-29T20:10:47-11:00  21.31312 -157.88883     311   0.0 Hikianalia
  2021-07-30T06:18:39UTC 2021-07-29T20:18:39-10:00 2021-07-29T19:18:39-11:00  21.31310 -157.88877     180   0.0 Hōkūleʻa
  2021-07-30T06:11:19UTC 2021-07-29T20:11:19-10:00 2021-07-29T19:11:19-11:00  21.31304 -157.88873     232   0.0 Hikianalia
  2021-07-30T05:18:31UTC 2021-07-29T19:18:31-10:00 2021-07-29T18:18:31-11:00  21.31311 -157.88877      90   0.0 Hōkūleʻa
  2021-07-30T05:10:44UTC 2021-07-29T19:10:44-10:00 2021-07-29T18:10:44-11:00  21.31310 -157.88864      24   0.0 Hikianalia
  2021-07-30T04:17:35UTC 2021-07-29T18:17:35-10:00 2021-07-29T17:17:35-11:00  21.31311 -157.88879     270   0.0 Hōkūleʻa
  2021-07-30T04:10:50UTC 2021-07-29T18:10:50-10:00 2021-07-29T17:10:50-11:00  21.31296 -157.88871     167   0.0 Hikianalia
  2021-07-30T03:18:27UTC 2021-07-29T17:18:27-10:00 2021-07-29T16:18:27-11:00  21.31311 -157.88877       0   0.0 Hōkūleʻa
  2021-07-30T03:10:49UTC 2021-07-29T17:10:49-10:00 2021-07-29T16:10:49-11:00  21.31305 -157.88873      90   0.0 Hikianalia
  2021-07-30T02:17:50UTC 2021-07-29T16:17:50-10:00 2021-07-29T15:17:50-11:00  21.31311 -157.88877     180   0.0 Hōkūleʻa
  2021-07-30T02:10:19UTC 2021-07-29T16:10:19-10:00 2021-07-29T15:10:19-11:00  21.31305 -157.88875     311   0.0 Hikianalia
  2021-07-30T01:18:37UTC 2021-07-29T15:18:37-10:00 2021-07-29T14:18:37-11:00  21.31312 -157.88877       0   0.0 Hōkūleʻa
  2021-07-30T01:10:40UTC 2021-07-29T15:10:40-10:00 2021-07-29T14:10:40-11:00  21.31299 -157.88868     159   0.0 Hikianalia
  2021-07-30T00:21:03UTC 2021-07-29T14:21:03-10:00 2021-07-29T13:21:03-11:00  21.31305 -157.88871     270   0.0 Hikianalia
  2021-07-30T00:17:30UTC 2021-07-29T14:17:30-10:00 2021-07-29T13:17:30-11:00  21.31311 -157.88877       0   0.0 Hōkūleʻa
  2021-07-29T23:18:23UTC 2021-07-29T13:18:23-10:00 2021-07-29T12:18:23-11:00  21.31311 -157.88877       0   0.0 Hōkūleʻa
  2021-07-29T23:09:36UTC 2021-07-29T13:09:36-10:00 2021-07-29T12:09:36-11:00  21.31305 -157.88868     105   0.0 Hikianalia
  2021-07-29T22:17:44UTC 2021-07-29T12:17:44-10:00 2021-07-29T11:17:44-11:00  21.31310 -157.88877     180   0.0 Hōkūleʻa
  2021-07-29T22:10:08UTC 2021-07-29T12:10:08-10:00 2021-07-29T11:10:08-11:00  21.31306 -157.88873     319   0.0 Hikianalia
  2021-07-29T21:17:32UTC 2021-07-29T11:17:32-10:00 2021-07-29T10:17:32-11:00  21.31311 -157.88877     118   0.0 Hōkūleʻa
  2021-07-29T21:10:47UTC 2021-07-29T11:10:47-10:00 2021-07-29T10:10:47-11:00  21.31290 -157.88858     139   0.0 Hikianalia
  2021-07-29T20:18:30UTC 2021-07-29T10:18:30-10:00 2021-07-29T09:18:30-11:00  21.31313 -157.88881     317   0.0 Hōkūleʻa
  2021-07-29T20:09:43UTC 2021-07-29T10:09:43-10:00 2021-07-29T09:09:43-11:00  21.31306 -157.88873       0   0.0 Hikianalia
  2021-07-29T19:18:33UTC 2021-07-29T09:18:33-10:00 2021-07-29T08:18:33-11:00  21.31311 -157.88879       0   0.0 Hōkūleʻa
  2021-07-29T19:10:40UTC 2021-07-29T09:10:40-10:00 2021-07-29T08:10:40-11:00  21.31305 -157.88873      44   0.0 Hikianalia
  2021-07-29T18:17:49UTC 2021-07-29T08:17:49-10:00 2021-07-29T07:17:49-11:00  21.31310 -157.88879      61   0.0 Hōkūleʻa
  2021-07-29T18:10:18UTC 2021-07-29T08:10:18-10:00 2021-07-29T07:10:18-11:00  21.31303 -157.88875     206   0.0 Hikianalia
  2021-07-29T17:18:23UTC 2021-07-29T07:18:23-10:00 2021-07-29T06:18:23-11:00  21.31309 -157.88881     222   0.0 Hōkūleʻa
  2021-07-29T17:10:41UTC 2021-07-29T07:10:41-10:00 2021-07-29T06:10:41-11:00  21.31307 -157.88873       0   0.0 Hikianalia
  2021-07-29T16:18:32UTC 2021-07-29T06:18:32-10:00 2021-07-29T05:18:32-11:00  21.31311 -157.88879     242   0.0 Hōkūleʻa
  2021-07-29T16:10:40UTC 2021-07-29T06:10:40-10:00 2021-07-29T05:10:40-11:00  21.31305 -157.88873      44   0.0 Hikianalia
  2021-07-29T15:18:30UTC 2021-07-29T05:18:30-10:00 2021-07-29T04:18:30-11:00  21.31312 -157.88877      75   0.0 Hōkūleʻa
  2021-07-29T15:18:30UTC 2021-07-29T05:18:30-10:00 2021-07-29T04:18:30-11:00  21.31303 -157.88875     213   0.0 Hikianalia
  2021-07-29T14:18:49UTC 2021-07-29T04:18:49-10:00 2021-07-29T03:18:49-11:00  21.31311 -157.88881      61   0.0 Hōkūleʻa
  2021-07-29T14:11:20UTC 2021-07-29T04:11:20-10:00 2021-07-29T03:11:20-11:00  21.31306 -157.88873      44   0.0 Hikianalia
  2021-07-29T13:18:36UTC 2021-07-29T03:18:36-10:00 2021-07-29T02:18:36-11:00  21.31310 -157.88883     280   0.0 Hōkūleʻa
  2021-07-29T13:10:41UTC 2021-07-29T03:10:41-10:00 2021-07-29T02:10:41-11:00  21.31304 -157.88875      61   0.0 Hikianalia
  2021-07-29T12:19:32UTC 2021-07-29T02:19:32-10:00 2021-07-29T01:19:32-11:00  21.31309 -157.88877     137   0.0 Hōkūleʻa
  2021-07-29T12:10:40UTC 2021-07-29T02:10:40-10:00 2021-07-29T01:10:40-11:00  21.31303 -157.88877     205   0.0 Hikianalia
  2021-07-29T11:18:31UTC 2021-07-29T01:18:31-10:00 2021-07-29T00:18:31-11:00  21.31311 -157.88879     180   0.0 Hōkūleʻa
  2021-07-29T11:10:44UTC 2021-07-29T01:10:44-10:00 2021-07-29T00:10:44-11:00  21.31307 -157.88875      61   0.0 Hikianalia
  2021-07-29T10:18:55UTC 2021-07-29T00:18:55-10:00 2021-07-28T23:18:55-11:00  21.31312 -157.88879     298   0.0 Hōkūleʻa
  2021-07-29T10:10:16UTC 2021-07-29T00:10:16-10:00 2021-07-28T23:10:16-11:00  21.31306 -157.88877     214   0.0 Hikianalia
  2021-07-29T09:18:34UTC 2021-07-28T23:18:34-10:00 2021-07-28T22:18:34-11:00  21.31311 -157.88877      62   0.0 Hōkūleʻa
  2021-07-29T09:10:55UTC 2021-07-28T23:10:55-10:00 2021-07-28T22:10:55-11:00  21.31318 -157.88868      27   0.0 Hikianalia
  2021-07-29T08:17:31UTC 2021-07-28T22:17:31-10:00 2021-07-28T21:17:31-11:00  21.31310 -157.88879      90   0.0 Hōkūleʻa
  2021-07-29T08:10:09UTC 2021-07-28T22:10:09-10:00 2021-07-28T21:10:09-11:00  21.31302 -157.88877     299   0.0 Hikianalia
  2021-07-29T07:18:26UTC 2021-07-28T21:18:26-10:00 2021-07-28T20:18:26-11:00  21.31310 -157.88881       0   0.0 Hōkūleʻa
  2021-07-29T07:11:08UTC 2021-07-28T21:11:08-10:00 2021-07-28T20:11:08-11:00  21.31300 -157.88875     250   0.0 Hikianalia
  2021-07-29T06:18:49UTC 2021-07-28T20:18:49-10:00 2021-07-28T19:18:49-11:00  21.31309 -157.88881     241   0.0 Hōkūleʻa
  2021-07-29T06:10:39UTC 2021-07-28T20:10:39-10:00 2021-07-28T19:10:39-11:00  21.31305 -157.88862      86   0.0 Hikianalia
  2021-07-29T05:18:23UTC 2021-07-28T19:18:23-10:00 2021-07-28T18:18:23-11:00  21.31310 -157.88879      90   0.0 Hōkūleʻa
  2021-07-29T05:10:37UTC 2021-07-28T19:10:37-10:00 2021-07-28T18:10:37-11:00  21.31304 -157.88877     180   0.0 Hikianalia
  2021-07-29T04:18:34UTC 2021-07-28T18:18:34-10:00 2021-07-28T17:18:34-11:00  21.31310 -157.88881       0   0.0 Hōkūleʻa
  2021-07-29T04:11:21UTC 2021-07-28T18:11:21-10:00 2021-07-28T17:11:21-11:00  21.31305 -157.88877     317   0.0 Hikianalia
  2021-07-29T03:18:34UTC 2021-07-28T17:18:34-10:00 2021-07-28T16:18:34-11:00  21.31310 -157.88881       0   0.0 Hōkūleʻa
  2021-07-29T03:09:46UTC 2021-07-28T17:09:46-10:00 2021-07-28T16:09:46-11:00  21.31300 -157.88873     180   0.0 Hikianalia
  2021-07-29T02:19:16UTC 2021-07-28T16:19:16-10:00 2021-07-28T15:19:16-11:00  21.31303 -157.88873       0   0.0 Hikianalia
  2021-07-29T02:18:50UTC 2021-07-28T16:18:50-10:00 2021-07-28T15:18:50-11:00  21.31310 -157.88881     270   0.0 Hōkūleʻa
  2021-07-29T01:17:36UTC 2021-07-28T15:17:36-10:00 2021-07-28T14:17:36-11:00  21.31310 -157.88879     242   0.0 Hōkūleʻa
  2021-07-29T01:10:42UTC 2021-07-28T15:10:42-10:00 2021-07-28T14:10:42-11:00  21.31300 -157.88873       0   0.0 Hikianalia
  2021-07-29T00:18:34UTC 2021-07-28T14:18:34-10:00 2021-07-28T13:18:34-11:00  21.31311 -157.88877     118   0.0 Hōkūleʻa
  2021-07-29T00:09:43UTC 2021-07-28T14:09:43-10:00 2021-07-28T13:09:43-11:00  21.31300 -157.88873       0   0.0 Hikianalia
  2021-07-28T23:18:32UTC 2021-07-28T13:18:32-10:00 2021-07-28T12:18:32-11:00  21.31313 -157.88881     328   0.0 Hōkūleʻa
  2021-07-28T23:10:45UTC 2021-07-28T13:10:45-10:00 2021-07-28T12:10:45-11:00  21.31300 -157.88873     137   0.0 Hikianalia
  2021-07-28T22:18:44UTC 2021-07-28T12:18:44-10:00 2021-07-28T11:18:44-11:00  21.31310 -157.88879       0   0.0 Hōkūleʻa
  2021-07-28T22:11:19UTC 2021-07-28T12:11:19-10:00 2021-07-28T11:11:19-11:00  21.31303 -157.88875     317   0.0 Hikianalia
  2021-07-28T21:17:34UTC 2021-07-28T11:17:34-10:00 2021-07-28T10:17:34-11:00  21.31310 -157.88879      90   0.0 Hōkūleʻa
  2021-07-28T21:09:47UTC 2021-07-28T11:09:47-10:00 2021-07-28T10:09:47-11:00  21.31300 -157.88873     339   0.0 Hikianalia
  2021-07-28T20:25:58UTC 2021-07-28T10:25:58-10:00 2021-07-28T09:25:58-11:00  21.31310 -157.88881     180   0.0 Hōkūleʻa
  2021-07-28T20:10:37UTC 2021-07-28T10:10:37-10:00 2021-07-28T09:10:37-11:00  21.31284 -157.88866     125   0.0 Hikianalia
  2021-07-28T19:18:27UTC 2021-07-28T09:18:27-10:00 2021-07-28T08:18:27-11:00  21.31311 -157.88881       0   0.0 Hōkūleʻa
  2021-07-28T19:09:42UTC 2021-07-28T09:09:42-10:00 2021-07-28T08:09:42-11:00  21.31298 -157.88888     246   0.0 Hikianalia
  2021-07-28T18:17:47UTC 2021-07-28T08:17:47-10:00 2021-07-28T07:17:47-11:00  21.31309 -157.88881      90   0.0 Hōkūleʻa
  2021-07-28T18:11:19UTC 2021-07-28T08:11:19-10:00 2021-07-28T07:11:19-11:00  21.31304 -157.88875       0   0.0 Hikianalia
  2021-07-28T17:28:32UTC 2021-07-28T07:28:32-10:00 2021-07-28T06:28:32-11:00  21.31309 -157.88883       0   0.0 Hōkūleʻa
  2021-07-28T17:10:46UTC 2021-07-28T07:10:46-10:00 2021-07-28T06:10:46-11:00  21.31304 -157.88875       0   0.0 Hikianalia
  2021-07-28T16:17:34UTC 2021-07-28T06:17:34-10:00 2021-07-28T05:17:34-11:00  21.31309 -157.88883     270   0.0 Hōkūleʻa
  2021-07-28T16:10:48UTC 2021-07-28T06:10:48-10:00 2021-07-28T05:10:48-11:00  21.31300 -157.88875       0   0.0 Hikianalia
  2021-07-28T15:18:25UTC 2021-07-28T05:18:25-10:00 2021-07-28T04:18:25-11:00  21.31309 -157.88879      90   0.0 Hōkūleʻa
  2021-07-28T15:10:46UTC 2021-07-28T05:10:46-10:00 2021-07-28T04:10:46-11:00  21.31296 -157.88875     180   0.0 Hikianalia
  2021-07-28T14:18:48UTC 2021-07-28T04:18:48-10:00 2021-07-28T03:18:48-11:00  21.31309 -157.88881      90   0.0 Hōkūleʻa
  2021-07-28T14:11:09UTC 2021-07-28T04:11:09-10:00 2021-07-28T03:11:09-11:00  21.31304 -157.88875     328   0.0 Hikianalia
  2021-07-28T13:18:26UTC 2021-07-28T03:18:26-10:00 2021-07-28T02:18:26-11:00  21.31309 -157.88886     284   0.0 Hōkūleʻa
  2021-07-28T13:10:46UTC 2021-07-28T03:10:46-10:00 2021-07-28T02:10:46-11:00  21.31300 -157.88873      90   0.0 Hikianalia
  2021-07-28T12:18:32UTC 2021-07-28T02:18:32-10:00 2021-07-28T01:18:32-11:00  21.31308 -157.88881     180   0.0 Hōkūleʻa
  2021-07-28T12:10:47UTC 2021-07-28T02:10:47-10:00 2021-07-28T01:10:47-11:00  21.31300 -157.88877     180   0.0 Hikianalia
  2021-07-28T11:18:29UTC 2021-07-28T01:18:29-10:00 2021-07-28T00:18:29-11:00  21.31309 -157.88881       0   0.0 Hōkūleʻa
  2021-07-28T11:10:43UTC 2021-07-28T01:10:43-10:00 2021-07-28T00:10:43-11:00  21.31303 -157.88877     241   0.0 Hikianalia
  2021-07-28T10:18:50UTC 2021-07-28T00:18:50-10:00 2021-07-27T23:18:50-11:00  21.31308 -157.88881       0   0.0 Hōkūleʻa
  2021-07-28T10:10:13UTC 2021-07-28T00:10:13-10:00 2021-07-27T23:10:13-11:00  21.31304 -157.88875     313   0.0 Hikianalia
  2021-07-28T09:18:31UTC 2021-07-27T23:18:31-10:00 2021-07-27T22:18:31-11:00  21.31308 -157.88881       0   0.0 Hōkūleʻa
  2021-07-28T09:10:53UTC 2021-07-27T23:10:53-10:00 2021-07-27T22:10:53-11:00  21.31296 -157.88866     128   0.0 Hikianalia
  2021-07-28T08:18:37UTC 2021-07-27T22:18:37-10:00 2021-07-27T21:18:37-11:00  21.31306 -157.88881     285   0.0 Hōkūleʻa
  2021-07-28T08:10:58UTC 2021-07-27T22:10:58-10:00 2021-07-27T21:10:58-11:00  21.31303 -157.88875     335   0.1 Hikianalia
  2021-07-28T07:18:25UTC 2021-07-27T21:18:25-10:00 2021-07-27T20:18:25-11:00  21.31305 -157.88877     137   0.0 Hōkūleʻa
  2021-07-28T07:10:42UTC 2021-07-27T21:10:42-10:00 2021-07-27T20:10:42-11:00  21.31086 -157.88765     155   0.1 Hikianalia
  2021-07-28T06:18:50UTC 2021-07-27T20:18:50-10:00 2021-07-27T19:18:50-11:00  21.31309 -157.88881     119   0.0 Hōkūleʻa
  2021-07-28T06:11:12UTC 2021-07-27T20:11:12-10:00 2021-07-27T19:11:12-11:00  21.31304 -157.88875     235   0.0 Hikianalia
  2021-07-28T05:18:31UTC 2021-07-27T19:18:31-10:00 2021-07-27T18:18:31-11:00  21.31310 -157.88883     298   0.0 Hōkūleʻa
  2021-07-28T05:10:55UTC 2021-07-27T19:10:55-10:00 2021-07-27T18:10:55-11:00  21.31312 -157.88862       0   0.0 Hikianalia
  2021-07-28T04:17:32UTC 2021-07-27T18:17:32-10:00 2021-07-27T17:17:32-11:00  21.31308 -157.88879     137   0.0 Hōkūleʻa
  2021-07-28T04:09:50UTC 2021-07-27T18:09:50-10:00 2021-07-27T17:09:50-11:00  21.31312 -157.88862       0   0.0 Hikianalia
  2021-07-28T03:18:26UTC 2021-07-27T17:18:26-10:00 2021-07-27T16:18:26-11:00  21.31310 -157.88881       0   0.0 Hōkūleʻa
  2021-07-28T03:10:39UTC 2021-07-27T17:10:39-10:00 2021-07-27T16:10:39-11:00  21.31312 -157.88862      59   0.0 Hikianalia
  2021-07-28T02:17:48UTC 2021-07-27T16:17:48-10:00 2021-07-27T15:17:48-11:00  21.31308 -157.88881     137   0.0 Hōkūleʻa
  2021-07-28T02:10:18UTC 2021-07-27T16:10:18-10:00 2021-07-27T15:10:18-11:00  21.31304 -157.88877     239   0.0 Hikianalia
  2021-07-28T01:18:25UTC 2021-07-27T15:18:25-10:00 2021-07-27T14:18:25-11:00  21.31310 -157.88883     309   0.0 Hōkūleʻa
  2021-07-28T01:10:50UTC 2021-07-27T15:10:50-10:00 2021-07-27T14:10:50-11:00  21.31312 -157.88862       0   0.0 Hikianalia
  2021-07-28T00:17:31UTC 2021-07-27T14:17:31-10:00 2021-07-27T13:17:31-11:00  21.31307 -157.88879     180   0.0 Hōkūleʻa
  2021-07-28T00:09:46UTC 2021-07-27T14:09:46-10:00 2021-07-27T13:09:46-11:00  21.31312 -157.88862       0   0.0 Hikianalia
  2021-07-27T23:25:26UTC 2021-07-27T13:25:26-10:00 2021-07-27T12:25:26-11:00  21.31308 -157.88879       0   0.0 Hōkūleʻa
  2021-07-27T23:10:45UTC 2021-07-27T13:10:45-10:00 2021-07-27T12:10:45-11:00  21.31312 -157.88862      55   0.0 Hikianalia
  2021-07-27T22:25:22UTC 2021-07-27T12:25:22-10:00 2021-07-27T11:25:22-11:00  21.31308 -157.88879     117   0.0 Hōkūleʻa
  2021-07-27T22:10:12UTC 2021-07-27T12:10:12-10:00 2021-07-27T11:10:12-11:00  21.31303 -157.88877     235   0.0 Hikianalia
  2021-07-27T21:20:09UTC 2021-07-27T11:20:09-10:00 2021-07-27T10:20:09-11:00  21.31312 -157.88862      14   0.0 Hikianalia
  2021-07-27T21:17:33UTC 2021-07-27T11:17:33-10:00 2021-07-27T10:17:33-11:00  21.31309 -157.88881       0   0.0 Hōkūleʻa
  2021-07-27T20:18:31UTC 2021-07-27T10:18:31-10:00 2021-07-27T09:18:31-11:00  21.31308 -157.88881     117   0.0 Hōkūleʻa
  2021-07-27T20:10:36UTC 2021-07-27T10:10:36-10:00 2021-07-27T09:10:36-11:00  21.31296 -157.88866     118   0.0 Hikianalia
  2021-07-27T19:17:34UTC 2021-07-27T09:17:34-10:00 2021-07-27T08:17:34-11:00  21.31309 -157.88883     297   0.0 Hōkūleʻa
  2021-07-27T19:09:49UTC 2021-07-27T09:09:49-10:00 2021-07-27T08:09:49-11:00  21.31302 -157.88877     180   0.0 Hikianalia
  2021-07-27T18:18:48UTC 2021-07-27T08:18:48-10:00 2021-07-27T07:18:48-11:00  21.31308 -157.88881      10   0.0 Hōkūleʻa
  2021-07-27T18:11:15UTC 2021-07-27T08:11:15-10:00 2021-07-27T07:11:15-11:00  21.31304 -157.88877     233   0.0 Hikianalia
  2021-07-27T17:18:31UTC 2021-07-27T07:18:31-10:00 2021-07-27T06:18:31-11:00  21.31297 -157.88883     180   0.0 Hōkūleʻa
  2021-07-27T17:10:43UTC 2021-07-27T07:10:43-10:00 2021-07-27T06:10:43-11:00  21.31314 -157.88862       0   0.0 Hikianalia
  2021-07-27T16:18:34UTC 2021-07-27T06:18:34-10:00 2021-07-27T05:18:34-11:00  21.31300 -157.88883     180   0.0 Hōkūleʻa
  2021-07-27T16:10:07UTC 2021-07-27T06:10:07-10:00 2021-07-27T05:10:07-11:00  21.31310 -157.88862     148   0.0 Hikianalia
  2021-07-27T15:18:42UTC 2021-07-27T05:18:42-10:00 2021-07-27T04:18:42-11:00  21.31302 -157.88883     105   0.0 Hōkūleʻa
  2021-07-27T15:10:39UTC 2021-07-27T05:10:39-10:00 2021-07-27T04:10:39-11:00  21.31313 -157.88864     297   0.0 Hikianalia
  2021-07-27T14:18:38UTC 2021-07-27T04:18:38-10:00 2021-07-27T03:18:38-11:00  21.31304 -157.88892     299   0.0 Hōkūleʻa
  2021-07-27T14:10:41UTC 2021-07-27T04:10:41-10:00 2021-07-27T03:10:41-11:00  21.31312 -157.88862       0   0.0 Hikianalia
  2021-07-27T13:20:10UTC 2021-07-27T03:20:10-10:00 2021-07-27T02:20:10-11:00  21.31312 -157.88862     310   0.2 Hikianalia
  2021-07-27T13:18:33UTC 2021-07-27T03:18:33-10:00 2021-07-27T02:18:33-11:00  21.31300 -157.88886     242   0.0 Hōkūleʻa
  2021-07-27T12:28:10UTC 2021-07-27T02:28:10-10:00 2021-07-27T01:28:10-11:00  21.31302 -157.88883       0   0.0 Hōkūleʻa
  2021-07-27T12:10:53UTC 2021-07-27T02:10:53-10:00 2021-07-27T01:10:53-11:00  21.31084 -157.88568      96   0.1 Hikianalia
  2021-07-27T11:19:57UTC 2021-07-27T01:19:57-10:00 2021-07-27T00:19:57-11:00  21.31095 -157.88673     141   0.1 Hikianalia
  2021-07-27T11:18:31UTC 2021-07-27T01:18:31-10:00 2021-07-27T00:18:31-11:00  21.31302 -157.88883     180   0.0 Hōkūleʻa
  2021-07-27T10:38:23UTC 2021-07-27T00:38:23-10:00 2021-07-26T23:38:23-11:00  21.31303 -157.88883       0   0.0 Hōkūleʻa
  2021-07-27T10:11:17UTC 2021-07-27T00:11:17-10:00 2021-07-26T23:11:17-11:00  21.31313 -157.88862     288   0.0 Hikianalia
  2021-07-27T09:18:31UTC 2021-07-26T23:18:31-10:00 2021-07-26T22:18:31-11:00  21.31303 -157.88883       0   0.0 Hōkūleʻa
  2021-07-27T09:10:47UTC 2021-07-26T23:10:47-10:00 2021-07-26T22:10:47-11:00  21.31310 -157.88851       0   0.0 Hikianalia
  2021-07-27T08:18:46UTC 2021-07-26T22:18:46-10:00 2021-07-26T21:18:46-11:00  21.31302 -157.88883     180   0.0 Hōkūleʻa
  2021-07-27T08:10:41UTC 2021-07-26T22:10:41-10:00 2021-07-26T21:10:41-11:00  21.31310 -157.88851      96   0.0 Hikianalia
  2021-07-27T07:18:34UTC 2021-07-26T21:18:34-10:00 2021-07-26T20:18:34-11:00  21.31303 -157.88883       0   0.0 Hōkūleʻa
  2021-07-27T07:11:19UTC 2021-07-26T21:11:19-10:00 2021-07-26T20:11:19-11:00  21.31311 -157.88862     276   0.0 Hikianalia
  2021-07-27T06:18:32UTC 2021-07-26T20:18:32-10:00 2021-07-26T19:18:32-11:00  21.31302 -157.88883     180   0.0 Hōkūleʻa
  2021-07-27T06:09:49UTC 2021-07-26T20:09:49-10:00 2021-07-26T19:09:49-11:00  21.31310 -157.88851       0   0.0 Hikianalia
  2021-07-27T05:18:31UTC 2021-07-26T19:18:31-10:00 2021-07-26T18:18:31-11:00  21.31303 -157.88883       0   0.0 Hōkūleʻa
  2021-07-27T05:10:37UTC 2021-07-26T19:10:37-10:00 2021-07-26T18:10:37-11:00  21.31310 -157.88851     108   0.0 Hikianalia
  2021-07-27T04:28:33UTC 2021-07-26T18:28:33-10:00 2021-07-26T17:28:33-11:00  21.31302 -157.88883     147   0.0 Hōkūleʻa
  2021-07-27T04:11:13UTC 2021-07-26T18:11:13-10:00 2021-07-26T17:11:13-11:00  21.31313 -157.88862     288   0.0 Hikianalia
  2021-07-27T03:17:27UTC 2021-07-26T17:17:27-10:00 2021-07-26T16:17:27-11:00  21.31305 -157.88886     289   0.0 Hōkūleʻa
  2021-07-27T03:09:38UTC 2021-07-26T17:09:38-10:00 2021-07-26T16:09:38-11:00  21.31310 -157.88851       0   0.0 Hikianalia
  2021-07-27T02:18:29UTC 2021-07-26T16:18:29-10:00 2021-07-26T15:18:29-11:00  21.31303 -157.88879      61   0.0 Hōkūleʻa
  2021-07-27T02:10:41UTC 2021-07-26T16:10:41-10:00 2021-07-26T15:10:41-11:00  21.31310 -157.88851      29   0.0 Hikianalia
  2021-07-27T01:18:33UTC 2021-07-26T15:18:33-10:00 2021-07-26T14:18:33-11:00  21.31300 -157.88883     180   0.0 Hōkūleʻa
  2021-07-27T01:09:49UTC 2021-07-26T15:09:49-10:00 2021-07-26T14:09:49-11:00  21.31299 -157.88858     163   0.0 Hikianalia
  2021-07-27T00:17:49UTC 2021-07-26T14:17:49-10:00 2021-07-26T13:17:49-11:00  21.31302 -157.88883       0   0.0 Hōkūleʻa
  2021-07-27T00:10:10UTC 2021-07-26T14:10:10-10:00 2021-07-26T13:10:10-11:00  21.31312 -157.88862       0   0.0 Hikianalia
  2021-07-26T23:17:38UTC 2021-07-26T13:17:38-10:00 2021-07-26T12:17:38-11:00  21.31302 -157.88883     309   0.0 Hōkūleʻa
  2021-07-26T23:10:39UTC 2021-07-26T13:10:39-10:00 2021-07-26T12:10:39-11:00  21.31310 -157.88862     180   0.0 Hikianalia
  2021-07-26T22:18:30UTC 2021-07-26T12:18:30-10:00 2021-07-26T11:18:30-11:00  21.31298 -157.88879     129   0.0 Hōkūleʻa
  2021-07-26T22:10:08UTC 2021-07-26T12:10:08-10:00 2021-07-26T11:10:08-11:00  21.31312 -157.88862       0   0.0 Hikianalia
  2021-07-26T21:17:30UTC 2021-07-26T11:17:30-10:00 2021-07-26T10:17:30-11:00  21.31302 -157.88883     180   0.0 Hōkūleʻa
  2021-07-26T21:10:19UTC 2021-07-26T11:10:19-10:00 2021-07-26T10:10:19-11:00  21.31312 -157.88862     282   0.0 Hikianalia
  2021-07-26T20:17:46UTC 2021-07-26T10:17:46-10:00 2021-07-26T09:17:46-11:00  21.31303 -157.88883       0   0.0 Hōkūleʻa
  2021-07-26T20:09:50UTC 2021-07-26T10:09:50-10:00 2021-07-26T09:09:50-11:00  21.31310 -157.88851      98   0.0 Hikianalia
  2021-07-26T19:18:39UTC 2021-07-26T09:18:39-10:00 2021-07-26T08:18:39-11:00  21.31302 -157.88883     180   0.0 Hōkūleʻa
  2021-07-26T19:10:43UTC 2021-07-26T09:10:43-10:00 2021-07-26T08:10:43-11:00  21.31312 -157.88868     299   0.0 Hikianalia
  2021-07-26T18:17:36UTC 2021-07-26T08:17:36-10:00 2021-07-26T07:17:36-11:00  21.31303 -157.88883       0   0.0 Hōkūleʻa
  2021-07-26T18:10:19UTC 2021-07-26T08:10:19-10:00 2021-07-26T07:10:19-11:00  21.31311 -157.88866     105   0.0 Hikianalia
  2021-07-26T17:18:22UTC 2021-07-26T07:18:22-10:00 2021-07-26T06:18:22-11:00  21.31298 -157.88883     180   0.0 Hōkūleʻa
  2021-07-26T17:10:42UTC 2021-07-26T07:10:42-10:00 2021-07-26T06:10:42-11:00  21.31312 -157.88871     309   0.0 Hikianalia
  2021-07-26T16:18:45UTC 2021-07-26T06:18:45-10:00 2021-07-26T05:18:45-11:00  21.31300 -157.88883      75   0.0 Hōkūleʻa
  2021-07-26T16:10:49UTC 2021-07-26T06:10:49-10:00 2021-07-26T05:10:49-11:00  21.31306 -157.88862     180   0.0 Hikianalia
  2021-07-26T15:18:31UTC 2021-07-26T05:18:31-10:00 2021-07-26T04:18:31-11:00  21.31298 -157.88892     255   0.0 Hōkūleʻa
  2021-07-26T15:10:47UTC 2021-07-26T05:10:47-10:00 2021-07-26T04:10:47-11:00  21.31308 -157.88862     180   0.0 Hikianalia
  2021-07-26T14:21:51UTC 2021-07-26T04:21:51-10:00 2021-07-26T03:21:51-11:00  21.31311 -157.88862      90   0.0 Hikianalia
  2021-07-26T14:17:31UTC 2021-07-26T04:17:31-10:00 2021-07-26T03:17:31-11:00  21.31300 -157.88883     118   0.0 Hōkūleʻa
  2021-07-26T13:18:25UTC 2021-07-26T03:18:25-10:00 2021-07-26T02:18:25-11:00  21.31302 -157.88886     270   0.0 Hōkūleʻa
  2021-07-26T13:10:41UTC 2021-07-26T03:10:41-10:00 2021-07-26T02:10:41-11:00  21.31311 -157.88868     251   0.0 Hikianalia
  2021-07-26T12:18:40UTC 2021-07-26T02:18:40-10:00 2021-07-26T01:18:40-11:00  21.31302 -157.88883     118   0.0 Hōkūleʻa
  2021-07-26T12:10:45UTC 2021-07-26T02:10:45-10:00 2021-07-26T01:10:45-11:00  21.31313 -157.88862       0   0.0 Hikianalia
  2021-07-26T11:18:31UTC 2021-07-26T01:18:31-10:00 2021-07-26T00:18:31-11:00  21.31303 -157.88886     298   0.0 Hōkūleʻa
  2021-07-26T11:11:19UTC 2021-07-26T01:11:19-10:00 2021-07-26T00:11:19-11:00  21.31311 -157.88862     276   0.0 Hikianalia
  2021-07-26T10:18:34UTC 2021-07-26T00:18:34-10:00 2021-07-25T23:18:34-11:00  21.31302 -157.88883       0   0.0 Hōkūleʻa
  2021-07-26T10:18:19UTC 2021-07-26T00:18:19-10:00 2021-07-25T23:18:19-11:00  21.31310 -157.88851      98   0.0 Hikianalia
  2021-07-26T09:25:29UTC 2021-07-25T23:25:29-10:00 2021-07-25T22:25:29-11:00  21.31300 -157.88883       0   0.0 Hōkūleʻa
  2021-07-26T09:10:45UTC 2021-07-25T23:10:45-10:00 2021-07-25T22:10:45-11:00  21.31311 -157.88860      90   0.0 Hikianalia
  2021-07-26T08:18:45UTC 2021-07-25T22:18:45-10:00 2021-07-25T21:18:45-11:00  21.31299 -157.88883     328   0.0 Hōkūleʻa
  2021-07-26T08:11:17UTC 2021-07-25T22:11:17-10:00 2021-07-25T21:11:17-11:00  21.31311 -157.88862     180   0.0 Hikianalia
  2021-07-26T07:18:34UTC 2021-07-25T21:18:34-10:00 2021-07-25T20:18:34-11:00  21.31296 -157.88881     155   0.0 Hōkūleʻa
  2021-07-26T07:12:08UTC 2021-07-25T21:12:08-10:00 2021-07-25T20:12:08-11:00  21.31317 -157.88862     338   0.0 Hikianalia
  2021-07-26T06:18:32UTC 2021-07-25T20:18:32-10:00 2021-07-25T19:18:32-11:00  21.31300 -157.88883       0   0.0 Hōkūleʻa
  2021-07-26T06:09:57UTC 2021-07-25T20:09:57-10:00 2021-07-25T19:09:57-11:00  21.31302 -157.88856     180   0.0 Hikianalia
  2021-07-26T05:18:23UTC 2021-07-25T19:18:23-10:00 2021-07-25T18:18:23-11:00  21.31299 -157.88883     180   0.0 Hōkūleʻa
  2021-07-26T05:10:41UTC 2021-07-25T19:10:41-10:00 2021-07-25T18:10:41-11:00  21.31317 -157.88856      43   0.0 Hikianalia
  2021-07-26T04:18:41UTC 2021-07-25T18:18:41-10:00 2021-07-25T17:18:41-11:00  21.31302 -157.88883      62   0.0 Hōkūleʻa
  2021-07-26T04:11:08UTC 2021-07-25T18:11:08-10:00 2021-07-25T17:11:08-11:00  21.31310 -157.88862       0   0.0 Hikianalia
  2021-07-26T03:17:39UTC 2021-07-25T17:17:39-10:00 2021-07-25T16:17:39-11:00  21.31299 -157.88888     270   0.0 Hōkūleʻa
  2021-07-26T03:09:49UTC 2021-07-25T17:09:49-10:00 2021-07-25T16:09:49-11:00  21.31310 -157.88862      61   0.0 Hikianalia
  2021-07-26T02:26:50UTC 2021-07-25T16:26:50-10:00 2021-07-25T15:26:50-11:00  21.31299 -157.88886     298   0.0 Hōkūleʻa
  2021-07-26T02:10:51UTC 2021-07-25T16:10:51-10:00 2021-07-25T15:10:51-11:00  21.31309 -157.88864     264   0.0 Hikianalia
  2021-07-26T01:18:25UTC 2021-07-25T15:18:25-10:00 2021-07-25T14:18:25-11:00  21.31298 -157.88883       0   0.0 Hōkūleʻa
  2021-07-26T01:10:08UTC 2021-07-25T15:10:08-10:00 2021-07-25T14:10:08-11:00  21.31312 -157.88830     338   2.9 Hikianalia
  2021-07-26T00:17:47UTC 2021-07-25T14:17:47-10:00 2021-07-25T13:17:47-11:00  21.31298 -157.88883     136   0.0 Hōkūleʻa
  2021-07-26T00:09:53UTC 2021-07-25T14:09:53-10:00 2021-07-25T13:09:53-11:00  21.26773 -157.86903     325   1.8 Hikianalia
  2021-07-25T23:17:30UTC 2021-07-25T13:17:30-10:00 2021-07-25T12:17:30-11:00  21.31300 -157.88886     296   0.0 Hōkūleʻa
  2021-07-25T23:09:41UTC 2021-07-25T13:09:41-10:00 2021-07-25T12:09:41-11:00  21.24246 -157.84989     127   2.9 Hikianalia
  2021-07-25T22:18:26UTC 2021-07-25T12:18:26-10:00 2021-07-25T11:18:26-11:00  21.31299 -157.88883       0   0.0 Hōkūleʻa
  2021-07-25T22:10:21UTC 2021-07-25T12:10:21-10:00 2021-07-25T11:10:21-11:00  21.27137 -157.89092     183   2.5 Hikianalia
  2021-07-25T21:17:34UTC 2021-07-25T11:17:34-10:00 2021-07-25T10:17:34-11:00  21.31297 -157.88883     180   0.0 Hōkūleʻa
  2021-07-25T21:10:57UTC 2021-07-25T11:10:57-10:00 2021-07-25T10:10:57-11:00  21.31336 -157.88875       0   0.0 Hikianalia
  2021-07-25T20:17:49UTC 2021-07-25T10:17:49-10:00 2021-07-25T09:17:49-11:00  21.31299 -157.88883     180   0.0 Hōkūleʻa
  2021-07-25T20:09:44UTC 2021-07-25T10:09:44-10:00 2021-07-25T09:09:44-11:00  21.31336 -157.88875       0   0.0 Hikianalia
  2021-07-25T19:17:37UTC 2021-07-25T09:17:37-10:00 2021-07-25T08:17:37-11:00  21.31302 -157.88883     241   0.0 Hōkūleʻa
  2021-07-25T19:10:49UTC 2021-07-25T09:10:49-10:00 2021-07-25T08:10:49-11:00  21.31336 -157.88875       0   0.0 Hikianalia
  2021-07-25T18:18:25UTC 2021-07-25T08:18:25-10:00 2021-07-25T07:18:25-11:00  21.31303 -157.88881      42   0.0 Hōkūleʻa
  2021-07-25T18:11:12UTC 2021-07-25T08:11:12-10:00 2021-07-25T07:11:12-11:00  21.31336 -157.88875     295   0.0 Hikianalia
  2021-07-25T17:18:31UTC 2021-07-25T07:18:31-10:00 2021-07-25T06:18:31-11:00  21.31300 -157.88883       0   0.0 Hōkūleʻa
  2021-07-25T17:10:49UTC 2021-07-25T07:10:49-10:00 2021-07-25T06:10:49-11:00  21.31329 -157.88860     115   0.0 Hikianalia
  2021-07-25T16:18:53UTC 2021-07-25T06:18:53-10:00 2021-07-25T05:18:53-11:00  21.31300 -157.88883     180   0.0 Hōkūleʻa
  2021-07-25T16:10:47UTC 2021-07-25T06:10:47-10:00 2021-07-25T05:10:47-11:00  21.31336 -157.88875       0   0.0 Hikianalia
  2021-07-25T15:18:37UTC 2021-07-25T05:18:37-10:00 2021-07-25T04:18:37-11:00  21.31302 -157.88883     270   0.0 Hōkūleʻa
  2021-07-25T15:11:19UTC 2021-07-25T05:11:19-10:00 2021-07-25T04:11:19-11:00  21.31336 -157.88875       0   0.0 Hikianalia
  2021-07-25T14:18:34UTC 2021-07-25T04:18:34-10:00 2021-07-25T03:18:34-11:00  21.31302 -157.88881      90   0.0 Hōkūleʻa
  2021-07-25T14:12:19UTC 2021-07-25T04:12:19-10:00 2021-07-25T03:12:19-11:00  21.31336 -157.88875       0   0.0 Hikianalia
  2021-07-25T13:18:33UTC 2021-07-25T03:18:33-10:00 2021-07-25T02:18:33-11:00  21.31302 -157.88883     241   0.0 Hōkūleʻa
  2021-07-25T13:10:57UTC 2021-07-25T03:10:57-10:00 2021-07-25T02:10:57-11:00  21.31336 -157.88875       0   0.0 Hikianalia
  2021-07-25T12:18:42UTC 2021-07-25T02:18:42-10:00 2021-07-25T01:18:42-11:00  21.31303 -157.88881     328   0.0 Hōkūleʻa
  2021-07-25T12:10:48UTC 2021-07-25T02:10:48-10:00 2021-07-25T01:10:48-11:00  21.31336 -157.88875       0   0.0 Hikianalia
  2021-07-25T11:17:39UTC 2021-07-25T01:17:39-10:00 2021-07-25T00:17:39-11:00  21.31299 -157.88879     104   0.0 Hōkūleʻa
  2021-07-25T11:09:53UTC 2021-07-25T01:09:53-10:00 2021-07-25T00:09:53-11:00  21.31336 -157.88875       0   0.0 Hikianalia
  2021-07-25T10:26:29UTC 2021-07-25T00:26:29-10:00 2021-07-24T23:26:29-11:00  21.31336 -157.88875     305   0.0 Hikianalia
  2021-07-25T10:18:29UTC 2021-07-25T00:18:29-10:00 2021-07-24T23:18:29-11:00  21.31300 -157.88883     180   0.0 Hōkūleʻa
  2021-07-25T09:18:25UTC 2021-07-24T23:18:25-10:00 2021-07-24T22:18:25-11:00  21.31302 -157.88883     180   0.0 Hōkūleʻa
  2021-07-25T09:10:47UTC 2021-07-24T23:10:47-10:00 2021-07-24T22:10:47-11:00  21.31327 -157.88862     125   0.0 Hikianalia
  2021-07-25T08:18:49UTC 2021-07-24T22:18:49-10:00 2021-07-24T21:18:49-11:00  21.31303 -157.88883     309   0.0 Hōkūleʻa
  2021-07-25T08:10:44UTC 2021-07-24T22:10:44-10:00 2021-07-24T21:10:44-11:00  21.31336 -157.88875       0   0.0 Hikianalia
  2021-07-25T07:18:25UTC 2021-07-24T21:18:25-10:00 2021-07-24T20:18:25-11:00  21.31299 -157.88879     137   0.0 Hōkūleʻa
  2021-07-25T07:10:41UTC 2021-07-24T21:10:41-10:00 2021-07-24T20:10:41-11:00  21.31336 -157.88875       0   0.0 Hikianalia
  2021-07-25T06:18:33UTC 2021-07-24T20:18:33-10:00 2021-07-24T19:18:33-11:00  21.31302 -157.88881     299   0.0 Hōkūleʻa
  2021-07-25T06:11:19UTC 2021-07-24T20:11:19-10:00 2021-07-24T19:11:19-11:00  21.31336 -157.88875     194   0.0 Hikianalia
  2021-07-25T05:28:01UTC 2021-07-24T19:28:01-10:00 2021-07-24T18:28:01-11:00  21.31300 -157.88879     138   0.0 Hōkūleʻa
  2021-07-25T05:10:50UTC 2021-07-24T19:10:50-10:00 2021-07-24T18:10:50-11:00  21.31344 -157.88873      21   0.0 Hikianalia
  2021-07-25T04:17:49UTC 2021-07-24T18:17:49-10:00 2021-07-24T17:17:49-11:00  21.31303 -157.88881      90   0.0 Hōkūleʻa
  2021-07-25T04:09:42UTC 2021-07-24T18:09:42-10:00 2021-07-24T17:09:42-11:00  21.31334 -157.88877     341   0.0 Hikianalia
  2021-07-25T03:18:33UTC 2021-07-24T17:18:33-10:00 2021-07-24T16:18:33-11:00  21.31303 -157.88894     270   0.0 Hōkūleʻa
  2021-07-25T03:10:39UTC 2021-07-24T17:10:39-10:00 2021-07-24T16:10:39-11:00  21.31317 -157.88871     168   0.0 Hikianalia
  2021-07-25T02:17:53UTC 2021-07-24T16:17:53-10:00 2021-07-24T15:17:53-11:00  21.31303 -157.88883       0   0.0 Hōkūleʻa
  2021-07-25T02:11:18UTC 2021-07-24T16:11:18-10:00 2021-07-24T15:11:18-11:00  21.31336 -157.88875       0   0.0 Hikianalia
  2021-07-25T01:17:24UTC 2021-07-24T15:17:24-10:00 2021-07-24T14:17:24-11:00  21.31303 -157.88883     299   0.0 Hōkūleʻa
  2021-07-25T01:09:47UTC 2021-07-24T15:09:47-10:00 2021-07-24T14:09:47-11:00  21.31336 -157.88875       0   0.0 Hikianalia
  2021-07-25T00:18:51UTC 2021-07-24T14:18:51-10:00 2021-07-24T13:18:51-11:00  21.31302 -157.88881     241   0.0 Hōkūleʻa
  2021-07-25T00:17:33UTC 2021-07-24T14:17:33-10:00 2021-07-24T13:17:33-11:00  21.31336 -157.88875       0   0.0 Hikianalia
  2021-07-24T23:17:33UTC 2021-07-24T13:17:33-10:00 2021-07-24T12:17:33-11:00  21.31304 -157.88877      70   0.0 Hōkūleʻa
  2021-07-24T23:09:46UTC 2021-07-24T13:09:46-10:00 2021-07-24T12:09:46-11:00  21.31336 -157.88875       0   0.0 Hikianalia
  2021-07-24T22:18:33UTC 2021-07-24T12:18:33-10:00 2021-07-24T11:18:33-11:00  21.31302 -157.88883     180   0.0 Hōkūleʻa
  2021-07-24T22:10:12UTC 2021-07-24T12:10:12-10:00 2021-07-24T11:10:12-11:00  21.31336 -157.88875       0   0.0 Hikianalia
  2021-07-24T21:17:36UTC 2021-07-24T11:17:36-10:00 2021-07-24T10:17:36-11:00  21.31304 -157.88883       0   0.0 Hōkūleʻa
  2021-07-24T21:10:48UTC 2021-07-24T11:10:48-10:00 2021-07-24T10:10:48-11:00  21.31336 -157.88875       0   0.0 Hikianalia
  2021-07-24T20:17:39UTC 2021-07-24T10:17:39-10:00 2021-07-24T09:17:39-11:00  21.31303 -157.88883       0   0.0 Hōkūleʻa
  2021-07-24T20:16:56UTC 2021-07-24T10:16:56-10:00 2021-07-24T09:16:56-11:00  21.31336 -157.88875       0   0.0 Hikianalia
  2021-07-24T19:17:36UTC 2021-07-24T09:17:36-10:00 2021-07-24T08:17:36-11:00  21.31302 -157.88883     180   0.0 Hōkūleʻa
  2021-07-24T19:10:48UTC 2021-07-24T09:10:48-10:00 2021-07-24T08:10:48-11:00  21.31336 -157.88875       0   0.0 Hikianalia
  2021-07-24T18:18:32UTC 2021-07-24T08:18:32-10:00 2021-07-24T07:18:32-11:00  21.31303 -157.88883       0   0.0 Hōkūleʻa
  2021-07-24T18:11:14UTC 2021-07-24T08:11:14-10:00 2021-07-24T07:11:14-11:00  21.31336 -157.88875       0   0.0 Hikianalia
  2021-07-24T17:18:27UTC 2021-07-24T07:18:27-10:00 2021-07-24T06:18:27-11:00  21.31302 -157.88883       0   0.0 Hōkūleʻa
  2021-07-24T17:10:43UTC 2021-07-24T07:10:43-10:00 2021-07-24T06:10:43-11:00  21.31336 -157.88875       0   0.0 Hikianalia
  2021-07-24T16:18:46UTC 2021-07-24T06:18:46-10:00 2021-07-24T05:18:46-11:00  21.31302 -157.88883     270   0.0 Hōkūleʻa
  2021-07-24T16:10:50UTC 2021-07-24T06:10:50-10:00 2021-07-24T05:10:50-11:00  21.31336 -157.88875       0   0.0 Hikianalia
  2021-07-24T15:18:33UTC 2021-07-24T05:18:33-10:00 2021-07-24T04:18:33-11:00  21.31302 -157.88879     106   0.0 Hōkūleʻa
  2021-07-24T15:10:39UTC 2021-07-24T05:10:39-10:00 2021-07-24T04:10:39-11:00  21.31336 -157.88875       0   0.0 Hikianalia
  2021-07-24T14:18:29UTC 2021-07-24T04:18:29-10:00 2021-07-24T03:18:29-11:00  21.31303 -157.88883       0   0.0 Hōkūleʻa
  2021-07-24T14:11:17UTC 2021-07-24T04:11:17-10:00 2021-07-24T03:11:17-11:00  21.31336 -157.88875       0   0.0 Hikianalia
  2021-07-24T13:18:48UTC 2021-07-24T03:18:48-10:00 2021-07-24T02:18:48-11:00  21.31302 -157.88883     148   0.0 Hōkūleʻa
  2021-07-24T13:10:41UTC 2021-07-24T03:10:41-10:00 2021-07-24T02:10:41-11:00  21.31336 -157.88875       0   0.0 Hikianalia
  2021-07-24T12:26:28UTC 2021-07-24T02:26:28-10:00 2021-07-24T01:26:28-11:00  21.31308 -157.88888     323   0.0 Hōkūleʻa
  2021-07-24T12:10:49UTC 2021-07-24T02:10:49-10:00 2021-07-24T01:10:49-11:00  21.31336 -157.88875       0   0.0 Hikianalia
  2021-07-24T11:18:24UTC 2021-07-24T01:18:24-10:00 2021-07-24T00:18:24-11:00  21.31303 -157.88883     270   0.0 Hōkūleʻa
  2021-07-24T11:10:48UTC 2021-07-24T01:10:48-10:00 2021-07-24T00:10:48-11:00  21.31336 -157.88875       0   0.0 Hikianalia
  2021-07-24T10:19:00UTC 2021-07-24T00:19:00-10:00 2021-07-23T23:19:00-11:00  21.31303 -157.88881      61   0.0 Hōkūleʻa
  2021-07-24T10:11:08UTC 2021-07-24T00:11:08-10:00 2021-07-23T23:11:08-11:00  21.31336 -157.88875       0   0.0 Hikianalia
  2021-07-24T09:18:32UTC 2021-07-23T23:18:32-10:00 2021-07-23T22:18:32-11:00  21.31300 -157.88886     223   0.0 Hōkūleʻa
  2021-07-24T09:10:48UTC 2021-07-23T23:10:48-10:00 2021-07-23T22:10:48-11:00  21.31336 -157.88875       0   0.0 Hikianalia
  2021-07-24T08:18:22UTC 2021-07-23T22:18:22-10:00 2021-07-23T21:18:22-11:00  21.31303 -157.88883     318   0.0 Hōkūleʻa
  2021-07-24T08:10:44UTC 2021-07-23T22:10:44-10:00 2021-07-23T21:10:44-11:00  21.31336 -157.88875       0   0.0 Hikianalia
  2021-07-24T07:20:48UTC 2021-07-23T21:20:48-10:00 2021-07-23T20:20:48-11:00  21.31336 -157.88875       0   0.0 Hikianalia
  2021-07-24T07:17:30UTC 2021-07-23T21:17:30-10:00 2021-07-23T20:17:30-11:00  21.31300 -157.88881     180   0.0 Hōkūleʻa
  2021-07-24T06:18:43UTC 2021-07-23T20:18:43-10:00 2021-07-23T19:18:43-11:00  21.31302 -157.88881      90   0.0 Hōkūleʻa
  2021-07-24T06:11:15UTC 2021-07-23T20:11:15-10:00 2021-07-23T19:11:15-11:00  21.31336 -157.88875       0   0.0 Hikianalia
  2021-07-24T05:18:34UTC 2021-07-23T19:18:34-10:00 2021-07-23T18:18:34-11:00  21.31302 -157.88883     180   0.0 Hōkūleʻa
  2021-07-24T05:10:44UTC 2021-07-23T19:10:44-10:00 2021-07-23T18:10:44-11:00  21.31336 -157.88875       0   0.0 Hikianalia
  2021-07-24T04:18:35UTC 2021-07-23T18:18:35-10:00 2021-07-23T17:18:35-11:00  21.31303 -157.88883     180   0.0 Hōkūleʻa
  2021-07-24T04:10:48UTC 2021-07-23T18:10:48-10:00 2021-07-23T17:10:48-11:00  21.31336 -157.88875       0   0.0 Hikianalia
  2021-07-24T03:18:34UTC 2021-07-23T17:18:34-10:00 2021-07-23T16:18:34-11:00  21.31304 -157.88883       0   0.0 Hōkūleʻa
  2021-07-24T03:10:45UTC 2021-07-23T17:10:45-10:00 2021-07-23T16:10:45-11:00  21.31336 -157.88875       0   0.0 Hikianalia
  2021-07-24T02:17:47UTC 2021-07-23T16:17:47-10:00 2021-07-23T15:17:47-11:00  21.31303 -157.88883     254   0.0 Hōkūleʻa
  2021-07-24T02:10:15UTC 2021-07-23T16:10:15-10:00 2021-07-23T15:10:15-11:00  21.31336 -157.88875       0   0.0 Hikianalia
  2021-07-24T01:18:38UTC 2021-07-23T15:18:38-10:00 2021-07-23T14:18:38-11:00  21.31304 -157.88879      61   0.0 Hōkūleʻa
  2021-07-24T01:10:50UTC 2021-07-23T15:10:50-10:00 2021-07-23T14:10:50-11:00  21.31336 -157.88875     321   0.0 Hikianalia
  2021-07-24T00:24:32UTC 2021-07-23T14:24:32-10:00 2021-07-23T13:24:32-11:00  21.31302 -157.88883       0   0.0 Hōkūleʻa
  2021-07-24T00:10:46UTC 2021-07-23T14:10:46-10:00 2021-07-23T13:10:46-11:00  21.31328 -157.88868     141   0.0 Hikianalia
  2021-07-23T23:17:36UTC 2021-07-23T13:17:36-10:00 2021-07-23T12:17:36-11:00  21.31302 -157.88883     180   0.0 Hōkūleʻa
  2021-07-23T23:09:43UTC 2021-07-23T13:09:43-10:00 2021-07-23T12:09:43-11:00  21.31336 -157.88875       0   0.0 Hikianalia
  2021-07-23T22:17:46UTC 2021-07-23T12:17:46-10:00 2021-07-23T11:17:46-11:00  21.31303 -157.88883     180   0.0 Hōkūleʻa
  2021-07-23T22:10:08UTC 2021-07-23T12:10:08-10:00 2021-07-23T11:10:08-11:00  21.31336 -157.88875       0   0.0 Hikianalia
  2021-07-23T21:18:39UTC 2021-07-23T11:18:39-10:00 2021-07-23T10:18:39-11:00  21.31305 -157.88883       0   0.0 Hōkūleʻa
  2021-07-23T21:10:37UTC 2021-07-23T11:10:37-10:00 2021-07-23T10:10:37-11:00  21.31336 -157.88875       0   0.0 Hikianalia
  2021-07-23T20:17:22UTC 2021-07-23T10:17:22-10:00 2021-07-23T09:17:22-11:00  21.31304 -157.88883       0   0.0 Hōkūleʻa
  2021-07-23T20:10:49UTC 2021-07-23T10:10:49-10:00 2021-07-23T09:10:49-11:00  21.31336 -157.88875       0   0.0 Hikianalia
  2021-07-23T19:18:33UTC 2021-07-23T09:18:33-10:00 2021-07-23T08:18:33-11:00  21.31304 -157.88883       0   0.0 Hōkūleʻa
  2021-07-23T19:10:47UTC 2021-07-23T09:10:47-10:00 2021-07-23T08:10:47-11:00  21.31336 -157.88875       0   0.0 Hikianalia
  2021-07-23T18:18:49UTC 2021-07-23T08:18:49-10:00 2021-07-23T07:18:49-11:00  21.31302 -157.88883     180   0.0 Hōkūleʻa
  2021-07-23T18:10:21UTC 2021-07-23T08:10:21-10:00 2021-07-23T07:10:21-11:00  21.31336 -157.88875       0   0.0 Hikianalia
  2021-07-23T17:18:29UTC 2021-07-23T07:18:29-10:00 2021-07-23T06:18:29-11:00  21.31304 -157.88883     243   0.0 Hōkūleʻa
  2021-07-23T17:18:02UTC 2021-07-23T07:18:02-10:00 2021-07-23T06:18:02-11:00  21.31336 -157.88875       0   0.0 Hikianalia
  2021-07-23T16:18:25UTC 2021-07-23T06:18:25-10:00 2021-07-23T05:18:25-11:00  21.31305 -157.88881      43   0.0 Hōkūleʻa
  2021-07-23T16:11:15UTC 2021-07-23T06:11:15-10:00 2021-07-23T05:11:15-11:00  21.31336 -157.88875       0   0.0 Hikianalia
  2021-07-23T15:18:33UTC 2021-07-23T05:18:33-10:00 2021-07-23T04:18:33-11:00  21.31303 -157.88883       0   0.0 Hōkūleʻa
  2021-07-23T15:10:48UTC 2021-07-23T05:10:48-10:00 2021-07-23T04:10:48-11:00  21.31336 -157.88875       0   0.0 Hikianalia
  2021-07-23T14:18:51UTC 2021-07-23T04:18:51-10:00 2021-07-23T03:18:51-11:00  21.31303 -157.88883       0   0.0 Hōkūleʻa
  2021-07-23T14:10:41UTC 2021-07-23T04:10:41-10:00 2021-07-23T03:10:41-11:00  21.31336 -157.88875       0   0.0 Hikianalia
  2021-07-23T13:18:34UTC 2021-07-23T03:18:34-10:00 2021-07-23T02:18:34-11:00  21.31300 -157.88883     180   0.0 Hōkūleʻa
  2021-07-23T13:11:15UTC 2021-07-23T03:11:15-10:00 2021-07-23T02:11:15-11:00  21.31336 -157.88875       0   0.0 Hikianalia
  2021-07-23T12:17:33UTC 2021-07-23T02:17:33-10:00 2021-07-23T01:17:33-11:00  21.31304 -157.88883       0   0.0 Hōkūleʻa
  2021-07-23T12:10:48UTC 2021-07-23T02:10:48-10:00 2021-07-23T01:10:48-11:00  21.31336 -157.88875       0   0.0 Hikianalia
  2021-07-23T11:20:34UTC 2021-07-23T01:20:34-10:00 2021-07-23T00:20:34-11:00  21.31336 -157.88875       0   0.0 Hikianalia
  2021-07-23T11:18:25UTC 2021-07-23T01:18:25-10:00 2021-07-23T00:18:25-11:00  21.31304 -157.88883       0   0.0 Hōkūleʻa
  2021-07-23T10:18:42UTC 2021-07-23T00:18:42-10:00 2021-07-22T23:18:42-11:00  21.31303 -157.88883     286   0.0 Hōkūleʻa
  2021-07-23T10:11:15UTC 2021-07-23T00:11:15-10:00 2021-07-22T23:11:15-11:00  21.31336 -157.88875       0   0.0 Hikianalia
  2021-07-23T09:17:26UTC 2021-07-22T23:17:26-10:00 2021-07-22T22:17:26-11:00  21.31302 -157.88879     119   0.0 Hōkūleʻa
  2021-07-23T09:10:45UTC 2021-07-22T23:10:45-10:00 2021-07-22T22:10:45-11:00  21.31336 -157.88875       0   0.0 Hikianalia
  2021-07-23T08:21:33UTC 2021-07-22T22:21:33-10:00 2021-07-22T21:21:33-11:00  21.31336 -157.88875       0   0.0 Hikianalia
  2021-07-23T08:18:23UTC 2021-07-22T22:18:23-10:00 2021-07-22T21:18:23-11:00  21.31303 -157.88881      90   0.0 Hōkūleʻa
  2021-07-23T07:18:21UTC 2021-07-22T21:18:21-10:00 2021-07-22T20:18:21-11:00  21.31303 -157.88883     270   0.0 Hōkūleʻa
  2021-07-23T07:10:47UTC 2021-07-22T21:10:47-10:00 2021-07-22T20:10:47-11:00  21.31336 -157.88875       0   0.0 Hikianalia
  2021-07-23T06:18:49UTC 2021-07-22T20:18:49-10:00 2021-07-22T19:18:49-11:00  21.31303 -157.88881      61   0.0 Hōkūleʻa
  2021-07-23T06:10:18UTC 2021-07-22T20:10:18-10:00 2021-07-22T19:10:18-11:00  21.31336 -157.88875       0   0.0 Hikianalia
  2021-07-23T05:17:22UTC 2021-07-22T19:17:22-10:00 2021-07-22T18:17:22-11:00  21.31302 -157.88883     222   0.0 Hōkūleʻa
  2021-07-23T05:10:41UTC 2021-07-22T19:10:41-10:00 2021-07-22T18:10:41-11:00  21.31336 -157.88875       0   0.0 Hikianalia
  2021-07-23T04:18:25UTC 2021-07-22T18:18:25-10:00 2021-07-22T17:18:25-11:00  21.31304 -157.88881     180   0.0 Hōkūleʻa
  2021-07-23T04:10:46UTC 2021-07-22T18:10:46-10:00 2021-07-22T17:10:46-11:00  21.31336 -157.88875      95   0.0 Hikianalia
  2021-07-23T03:18:34UTC 2021-07-22T17:18:34-10:00 2021-07-22T16:18:34-11:00  21.31305 -157.88881      43   0.0 Hōkūleʻa
  2021-07-23T03:10:54UTC 2021-07-22T17:10:54-10:00 2021-07-22T16:10:54-11:00  21.31337 -157.88888     317   0.0 Hikianalia
  2021-07-23T02:17:50UTC 2021-07-22T16:17:50-10:00 2021-07-22T15:17:50-11:00  21.31303 -157.88883     260   0.0 Hōkūleʻa
  2021-07-23T02:10:19UTC 2021-07-22T16:10:19-10:00 2021-07-22T15:10:19-11:00  21.31311 -157.88862     269   0.1 Hikianalia
  2021-07-23T01:18:28UTC 2021-07-22T15:18:28-10:00 2021-07-22T14:18:28-11:00  21.31304 -157.88877      90   0.0 Hōkūleʻa
  2021-07-23T01:10:42UTC 2021-07-22T15:10:42-10:00 2021-07-22T14:10:42-11:00  21.31315 -157.88639      89   0.1 Hikianalia
  2021-07-23T00:17:32UTC 2021-07-22T14:17:32-10:00 2021-07-22T13:17:32-11:00  21.31304 -157.88883       0   0.0 Hōkūleʻa
  2021-07-23T00:09:48UTC 2021-07-22T14:09:48-10:00 2021-07-22T13:09:48-11:00  21.31310 -157.88862     161   0.0 Hikianalia
  2021-07-22T23:18:39UTC 2021-07-22T13:18:39-10:00 2021-07-22T12:18:39-11:00  21.31302 -157.88883     180   0.0 Hōkūleʻa
  2021-07-22T23:10:37UTC 2021-07-22T13:10:37-10:00 2021-07-22T12:10:37-11:00  21.31322 -157.88866     339   0.0 Hikianalia
  2021-07-22T22:17:42UTC 2021-07-22T12:17:42-10:00 2021-07-22T11:17:42-11:00  21.31303 -157.88883     180   0.0 Hōkūleʻa
  2021-07-22T22:10:08UTC 2021-07-22T12:10:08-10:00 2021-07-22T11:10:08-11:00  21.31311 -157.88862      25   0.0 Hikianalia
  2021-07-22T21:17:36UTC 2021-07-22T11:17:36-10:00 2021-07-22T10:17:36-11:00  21.31304 -157.88883     180   0.0 Hōkūleʻa
  2021-07-22T21:09:45UTC 2021-07-22T11:09:45-10:00 2021-07-22T10:09:45-11:00  21.31303 -157.88866     203   0.0 Hikianalia
  2021-07-22T20:17:31UTC 2021-07-22T10:17:31-10:00 2021-07-22T09:17:31-11:00  21.31305 -157.88883       0   0.0 Hōkūleʻa
  2021-07-22T20:11:01UTC 2021-07-22T10:11:01-10:00 2021-07-22T09:11:01-11:00  21.31312 -157.88862       0   0.0 Hikianalia
  2021-07-22T19:18:34UTC 2021-07-22T09:18:34-10:00 2021-07-22T08:18:34-11:00  21.31303 -157.88883       0   0.0 Hōkūleʻa
  2021-07-22T19:10:08UTC 2021-07-22T09:10:08-10:00 2021-07-22T08:10:08-11:00  21.31309 -157.88862     149   0.0 Hikianalia
  2021-07-22T18:17:50UTC 2021-07-22T08:17:50-10:00 2021-07-22T07:17:50-11:00  21.31302 -157.88883     299   0.0 Hōkūleʻa
  2021-07-22T18:11:06UTC 2021-07-22T08:11:06-10:00 2021-07-22T07:11:06-11:00  21.31312 -157.88864     318   0.0 Hikianalia
  2021-07-22T17:18:34UTC 2021-07-22T07:18:34-10:00 2021-07-22T06:18:34-11:00  21.31300 -157.88881     270   0.0 Hōkūleʻa
  2021-07-22T17:10:49UTC 2021-07-22T07:10:49-10:00 2021-07-22T06:10:49-11:00  21.31310 -157.88862       0   0.0 Hikianalia
  2021-07-22T16:18:34UTC 2021-07-22T06:18:34-10:00 2021-07-22T05:18:34-11:00  21.31300 -157.88879     106   0.0 Hōkūleʻa
  2021-07-22T16:10:49UTC 2021-07-22T06:10:49-10:00 2021-07-22T05:10:49-11:00  21.31310 -157.88862       0   0.0 Hikianalia
  2021-07-22T15:18:33UTC 2021-07-22T05:18:33-10:00 2021-07-22T04:18:33-11:00  21.31302 -157.88883       0   0.0 Hōkūleʻa
  2021-07-22T15:09:47UTC 2021-07-22T05:09:47-10:00 2021-07-22T04:09:47-11:00  21.31310 -157.88862      61   0.0 Hikianalia
  2021-07-22T14:18:47UTC 2021-07-22T04:18:47-10:00 2021-07-22T03:18:47-11:00  21.31302 -157.88883       0   0.0 Hōkūleʻa
  2021-07-22T14:11:10UTC 2021-07-22T04:11:10-10:00 2021-07-22T03:11:10-11:00  21.31309 -157.88864     241   0.0 Hikianalia
  2021-07-22T13:18:35UTC 2021-07-22T03:18:35-10:00 2021-07-22T02:18:35-11:00  21.31298 -157.88883     180   0.0 Hōkūleʻa
  2021-07-22T13:10:48UTC 2021-07-22T03:10:48-10:00 2021-07-22T02:10:48-11:00  21.31310 -157.88862     316   0.0 Hikianalia
  2021-07-22T12:18:34UTC 2021-07-22T02:18:34-10:00 2021-07-22T01:18:34-11:00  21.31303 -157.88883       0   0.0 Hōkūleʻa
  2021-07-22T12:10:46UTC 2021-07-22T02:10:46-10:00 2021-07-22T01:10:46-11:00  21.31308 -157.88860     136   0.0 Hikianalia
  2021-07-22T11:26:45UTC 2021-07-22T01:26:45-10:00 2021-07-22T00:26:45-11:00  21.31303 -157.88883       0   0.0 Hōkūleʻa
  2021-07-22T11:10:37UTC 2021-07-22T01:10:37-10:00 2021-07-22T00:10:37-11:00  21.31310 -157.88862     180   0.0 Hikianalia
  2021-07-22T10:18:45UTC 2021-07-22T00:18:45-10:00 2021-07-21T23:18:45-11:00  21.31303 -157.88883     299   0.0 Hōkūleʻa
  2021-07-22T10:11:16UTC 2021-07-22T00:11:16-10:00 2021-07-21T23:11:16-11:00  21.31312 -157.88862     137   0.0 Hikianalia
  2021-07-22T09:18:31UTC 2021-07-21T23:18:31-10:00 2021-07-21T22:18:31-11:00  21.31302 -157.88881     299   0.0 Hōkūleʻa
  2021-07-22T09:10:47UTC 2021-07-21T23:10:47-10:00 2021-07-21T22:10:47-11:00  21.31319 -157.88868     325   0.0 Hikianalia
  2021-07-22T08:18:32UTC 2021-07-21T22:18:32-10:00 2021-07-21T21:18:32-11:00  21.31300 -157.88879      90   0.0 Hōkūleʻa
  2021-07-22T08:10:49UTC 2021-07-21T22:10:49-10:00 2021-07-21T21:10:49-11:00  21.31310 -157.88862     228   0.0 Hikianalia
  2021-07-22T07:18:34UTC 2021-07-21T21:18:34-10:00 2021-07-21T20:18:34-11:00  21.31300 -157.88881     180   0.0 Hōkūleʻa
  2021-07-22T07:10:47UTC 2021-07-21T21:10:47-10:00 2021-07-21T20:10:47-11:00  21.31315 -157.88856      54   0.0 Hikianalia
  2021-07-22T06:18:41UTC 2021-07-21T20:18:41-10:00 2021-07-21T19:18:41-11:00  21.31303 -157.88881      61   0.0 Hōkūleʻa
  2021-07-22T06:11:10UTC 2021-07-21T20:11:10-10:00 2021-07-21T19:11:10-11:00  21.31311 -157.88862     328   0.0 Hikianalia
  2021-07-22T05:18:33UTC 2021-07-21T19:18:33-10:00 2021-07-21T18:18:33-11:00  21.31302 -157.88883       0   0.0 Hōkūleʻa
  2021-07-22T05:10:55UTC 2021-07-21T19:10:55-10:00 2021-07-21T18:10:55-11:00  21.31305 -157.88858     143   0.0 Hikianalia
  2021-07-22T04:17:32UTC 2021-07-21T18:17:32-10:00 2021-07-21T17:17:32-11:00  21.31302 -157.88883     180   0.0 Hōkūleʻa
  2021-07-22T04:11:01UTC 2021-07-21T18:11:01-10:00 2021-07-21T17:11:01-11:00  21.31310 -157.88862     295   0.0 Hikianalia
  2021-07-22T03:18:27UTC 2021-07-21T17:18:27-10:00 2021-07-21T16:18:27-11:00  21.31304 -157.88883       0   0.0 Hōkūleʻa
  2021-07-22T03:10:58UTC 2021-07-21T17:10:58-10:00 2021-07-21T16:10:58-11:00  21.31303 -157.88845     118   0.0 Hikianalia
  2021-07-22T02:17:51UTC 2021-07-21T16:17:51-10:00 2021-07-21T15:17:51-11:00  21.31303 -157.88883     241   0.0 Hōkūleʻa
  2021-07-22T02:10:18UTC 2021-07-21T16:10:18-10:00 2021-07-21T15:10:18-11:00  21.31310 -157.88860     189   0.0 Hikianalia
  2021-07-22T01:17:34UTC 2021-07-21T15:17:34-10:00 2021-07-21T14:17:34-11:00  21.31304 -157.88881      90   0.0 Hōkūleʻa
  2021-07-22T01:10:48UTC 2021-07-21T15:10:48-10:00 2021-07-21T14:10:48-11:00  21.31323 -157.88858      56   0.0 Hikianalia
  2021-07-22T00:18:25UTC 2021-07-21T14:18:25-10:00 2021-07-21T13:18:25-11:00  21.31304 -157.88883     270   0.0 Hōkūleʻa
  2021-07-22T00:09:45UTC 2021-07-21T14:09:45-10:00 2021-07-21T13:09:45-11:00  21.31318 -157.88866     332   0.0 Hikianalia
  2021-07-21T23:17:29UTC 2021-07-21T13:17:29-10:00 2021-07-21T12:17:29-11:00  21.31304 -157.88881       0   0.0 Hōkūleʻa
  2021-07-21T23:10:43UTC 2021-07-21T13:10:43-10:00 2021-07-21T12:10:43-11:00  21.31310 -157.88862     180   0.0 Hikianalia
  2021-07-21T22:17:50UTC 2021-07-21T12:17:50-10:00 2021-07-21T11:17:50-11:00  21.31303 -157.88881     137   0.0 Hōkūleʻa
  2021-07-21T22:10:20UTC 2021-07-21T12:10:20-10:00 2021-07-21T11:10:20-11:00  21.31311 -157.88862     312   0.0 Hikianalia
  2021-07-21T21:18:31UTC 2021-07-21T11:18:31-10:00 2021-07-21T10:18:31-11:00  21.31305 -157.88883     317   0.0 Hōkūleʻa
  2021-07-21T21:11:06UTC 2021-07-21T11:11:06-10:00 2021-07-21T10:11:06-11:00  21.31306 -157.88856     132   0.0 Hikianalia
  2021-07-21T20:17:34UTC 2021-07-21T10:17:34-10:00 2021-07-21T09:17:34-11:00  21.31303 -157.88881       0   0.0 Hōkūleʻa
  2021-07-21T20:10:09UTC 2021-07-21T10:10:09-10:00 2021-07-21T09:10:09-11:00  21.31311 -157.88862     137   0.0 Hikianalia
  2021-07-21T19:18:33UTC 2021-07-21T09:18:33-10:00 2021-07-21T08:18:33-11:00  21.31303 -157.88881      61   0.0 Hōkūleʻa
  2021-07-21T19:10:43UTC 2021-07-21T09:10:43-10:00 2021-07-21T08:10:43-11:00  21.31318 -157.88868     317   0.0 Hikianalia
  2021-07-21T18:18:42UTC 2021-07-21T08:18:42-10:00 2021-07-21T07:18:42-11:00  21.31302 -157.88883     118   0.0 Hōkūleʻa
  2021-07-21T18:11:18UTC 2021-07-21T08:11:18-10:00 2021-07-21T07:11:18-11:00  21.31311 -157.88862      61   0.0 Hikianalia
  2021-07-21T17:17:33UTC 2021-07-21T07:17:33-10:00 2021-07-21T06:17:33-11:00  21.31303 -157.88886     270   0.0 Hōkūleʻa
  2021-07-21T17:09:49UTC 2021-07-21T07:09:49-10:00 2021-07-21T06:09:49-11:00  21.31310 -157.88864     105   0.0 Hikianalia
  2021-07-21T16:19:25UTC 2021-07-21T06:19:25-10:00 2021-07-21T05:19:25-11:00  21.31303 -157.88883       0   0.0 Hōkūleʻa
  2021-07-21T16:10:41UTC 2021-07-21T06:10:41-10:00 2021-07-21T05:10:41-11:00  21.31311 -157.88868     290   0.0 Hikianalia
  2021-07-21T15:18:42UTC 2021-07-21T05:18:42-10:00 2021-07-21T04:18:42-11:00  21.31302 -157.88883       0   0.0 Hōkūleʻa
  2021-07-21T15:10:43UTC 2021-07-21T05:10:43-10:00 2021-07-21T04:10:43-11:00  21.31309 -157.88862     180   0.0 Hikianalia
  2021-07-21T14:18:47UTC 2021-07-21T04:18:47-10:00 2021-07-21T03:18:47-11:00  21.31302 -157.88883     105   0.0 Hōkūleʻa
  2021-07-21T14:11:19UTC 2021-07-21T04:11:19-10:00 2021-07-21T03:11:19-11:00  21.31312 -157.88862     322   0.0 Hikianalia
  2021-07-21T13:18:33UTC 2021-07-21T03:18:33-10:00 2021-07-21T02:18:33-11:00  21.31303 -157.88888     270   0.0 Hōkūleʻa
  2021-07-21T13:10:40UTC 2021-07-21T03:10:40-10:00 2021-07-21T02:10:40-11:00  21.31305 -157.88856     105   0.0 Hikianalia
  2021-07-21T12:18:36UTC 2021-07-21T02:18:36-10:00 2021-07-21T01:18:36-11:00  21.31303 -157.88883       0   0.0 Hōkūleʻa
  2021-07-21T12:10:44UTC 2021-07-21T02:10:44-10:00 2021-07-21T01:10:44-11:00  21.31307 -157.88864     205   0.0 Hikianalia
  2021-07-21T11:18:33UTC 2021-07-21T01:18:33-10:00 2021-07-21T00:18:33-11:00  21.31303 -157.88883     270   0.0 Hōkūleʻa
  2021-07-21T11:10:43UTC 2021-07-21T01:10:43-10:00 2021-07-21T00:10:43-11:00  21.31311 -157.88862     180   0.0 Hikianalia
  2021-07-21T10:29:05UTC 2021-07-21T00:29:05-10:00 2021-07-20T23:29:05-11:00  21.31303 -157.88881      90   0.0 Hōkūleʻa
  2021-07-21T10:11:15UTC 2021-07-21T00:11:15-10:00 2021-07-20T23:11:15-11:00  21.31312 -157.88862     317   0.0 Hikianalia
  2021-07-21T09:18:30UTC 2021-07-20T23:18:30-10:00 2021-07-20T22:18:30-11:00  21.31303 -157.88883       0   0.0 Hōkūleʻa
  2021-07-21T09:10:48UTC 2021-07-20T23:10:48-10:00 2021-07-20T22:10:48-11:00  21.31306 -157.88856     118   0.0 Hikianalia
  2021-07-21T08:18:22UTC 2021-07-20T22:18:22-10:00 2021-07-20T21:18:22-11:00  21.31300 -157.88883     222   0.0 Hōkūleʻa
  2021-07-21T08:10:52UTC 2021-07-20T22:10:52-10:00 2021-07-20T21:10:52-11:00  21.31309 -157.88862     180   0.0 Hikianalia
  2021-07-21T07:18:36UTC 2021-07-20T21:18:36-10:00 2021-07-20T20:18:36-11:00  21.31303 -157.88881       0   0.0 Hōkūleʻa
  2021-07-21T07:11:00UTC 2021-07-20T21:11:00-10:00 2021-07-20T20:11:00-11:00  21.31310 -157.88862     180   0.0 Hikianalia
  2021-07-21T06:18:41UTC 2021-07-20T20:18:41-10:00 2021-07-20T19:18:41-11:00  21.31302 -157.88881      43   0.0 Hōkūleʻa
  2021-07-21T06:11:23UTC 2021-07-20T20:11:23-10:00 2021-07-20T19:11:23-11:00  21.31312 -157.88862     236   0.1 Hikianalia
  2021-07-21T05:18:33UTC 2021-07-20T19:18:33-10:00 2021-07-20T18:18:33-11:00  21.31299 -157.88883     231   0.0 Hōkūleʻa
  2021-07-21T05:09:53UTC 2021-07-20T19:09:53-10:00 2021-07-20T18:09:53-11:00  21.31442 -157.88656      56   0.1 Hikianalia
  2021-07-21T04:17:34UTC 2021-07-20T18:17:34-10:00 2021-07-20T17:17:34-11:00  21.31303 -157.88879     118   0.0 Hōkūleʻa
  2021-07-21T04:10:39UTC 2021-07-20T18:10:39-10:00 2021-07-20T17:10:39-11:00  21.31310 -157.88862       0   0.0 Hikianalia
  2021-07-21T03:18:25UTC 2021-07-20T17:18:25-10:00 2021-07-20T16:18:25-11:00  21.31305 -157.88883     328   0.0 Hōkūleʻa
  2021-07-21T03:10:47UTC 2021-07-20T17:10:47-10:00 2021-07-20T16:10:47-11:00  21.31310 -157.88862     258   0.0 Hikianalia
  2021-07-21T02:17:39UTC 2021-07-20T16:17:39-10:00 2021-07-20T15:17:39-11:00  21.31302 -157.88881     270   0.0 Hōkūleʻa
  2021-07-21T02:11:17UTC 2021-07-20T16:11:17-10:00 2021-07-20T15:11:17-11:00  21.31312 -157.88851      78   0.0 Hikianalia
  2021-07-21T01:18:38UTC 2021-07-20T15:18:38-10:00 2021-07-20T14:18:38-11:00  21.31302 -157.88877     105   0.0 Hōkūleʻa
  2021-07-21T01:10:50UTC 2021-07-20T15:10:50-10:00 2021-07-20T14:10:50-11:00  21.31310 -157.88862       0   0.0 Hikianalia
  2021-07-21T00:19:00UTC 2021-07-20T14:19:00-10:00 2021-07-20T13:19:00-11:00  21.31303 -157.88881       0   0.0 Hōkūleʻa
  2021-07-21T00:09:58UTC 2021-07-20T14:09:58-10:00 2021-07-20T13:09:58-11:00  21.31310 -157.88862       0   0.0 Hikianalia
  2021-07-20T23:17:32UTC 2021-07-20T13:17:32-10:00 2021-07-20T12:17:32-11:00  21.31303 -157.88881       0   0.0 Hōkūleʻa
  2021-07-20T23:10:48UTC 2021-07-20T13:10:48-10:00 2021-07-20T12:10:48-11:00  21.31310 -157.88862     180   0.0 Hikianalia
  2021-07-20T22:18:38UTC 2021-07-20T12:18:38-10:00 2021-07-20T11:18:38-11:00  21.31303 -157.88881     137   0.0 Hōkūleʻa
  2021-07-20T22:10:15UTC 2021-07-20T12:10:15-10:00 2021-07-20T11:10:15-11:00  21.31312 -157.88862     317   0.0 Hikianalia
  2021-07-20T21:17:39UTC 2021-07-20T11:17:39-10:00 2021-07-20T10:17:39-11:00  21.31305 -157.88883       0   0.0 Hōkūleʻa
  2021-07-20T21:09:47UTC 2021-07-20T11:09:47-10:00 2021-07-20T10:09:47-11:00  21.31299 -157.88849     122   0.0 Hikianalia
  2021-07-20T20:17:36UTC 2021-07-20T10:17:36-10:00 2021-07-20T09:17:36-11:00  21.31303 -157.88883       0   0.0 Hōkūleʻa
  2021-07-20T20:09:40UTC 2021-07-20T10:09:40-10:00 2021-07-20T09:09:40-11:00  21.31307 -157.88862     180   0.0 Hikianalia
  2021-07-20T19:18:42UTC 2021-07-20T09:18:42-10:00 2021-07-20T08:18:42-11:00  21.31302 -157.88883     180   0.0 Hōkūleʻa
  2021-07-20T19:10:47UTC 2021-07-20T09:10:47-10:00 2021-07-20T08:10:47-11:00  21.31311 -157.88862       0   0.0 Hikianalia
  2021-07-20T18:18:50UTC 2021-07-20T08:18:50-10:00 2021-07-20T07:18:50-11:00  21.31303 -157.88883       0   0.0 Hōkūleʻa
  2021-07-20T18:11:12UTC 2021-07-20T08:11:12-10:00 2021-07-20T07:11:12-11:00  21.31311 -157.88862       0   0.0 Hikianalia
  2021-07-20T17:18:33UTC 2021-07-20T07:18:33-10:00 2021-07-20T06:18:33-11:00  21.31300 -157.88883     241   0.0 Hōkūleʻa
  2021-07-20T17:17:45UTC 2021-07-20T07:17:45-10:00 2021-07-20T06:17:45-11:00  21.31309 -157.88862     180   0.0 Hikianalia
  2021-07-20T16:18:25UTC 2021-07-20T06:18:25-10:00 2021-07-20T05:18:25-11:00  21.31302 -157.88881      61   0.0 Hōkūleʻa
  2021-07-20T16:10:42UTC 2021-07-20T06:10:42-10:00 2021-07-20T05:10:42-11:00  21.31312 -157.88862     317   0.0 Hikianalia
  2021-07-20T15:18:42UTC 2021-07-20T05:18:42-10:00 2021-07-20T04:18:42-11:00  21.31300 -157.88883     180   0.0 Hōkūleʻa
  2021-07-20T15:10:45UTC 2021-07-20T05:10:45-10:00 2021-07-20T04:10:45-11:00  21.31310 -157.88860      90   0.0 Hikianalia
  2021-07-20T14:18:49UTC 2021-07-20T04:18:49-10:00 2021-07-20T03:18:49-11:00  21.31303 -157.88883     118   0.0 Hōkūleʻa
  2021-07-20T14:12:10UTC 2021-07-20T04:12:10-10:00 2021-07-20T03:12:10-11:00  21.31310 -157.88864     241   0.0 Hikianalia
  2021-07-20T13:18:28UTC 2021-07-20T03:18:28-10:00 2021-07-20T02:18:28-11:00  21.31305 -157.88888     284   0.0 Hōkūleʻa
  2021-07-20T13:11:26UTC 2021-07-20T03:11:26-10:00 2021-07-20T02:11:26-11:00  21.31311 -157.88862       0   0.0 Hikianalia
  2021-07-20T12:18:25UTC 2021-07-20T02:18:25-10:00 2021-07-20T01:18:25-11:00  21.31304 -157.88883     318   0.0 Hōkūleʻa
  2021-07-20T12:10:45UTC 2021-07-20T02:10:45-10:00 2021-07-20T01:10:45-11:00  21.31310 -157.88862       0   0.0 Hikianalia
  2021-07-20T11:27:33UTC 2021-07-20T01:27:33-10:00 2021-07-20T00:27:33-11:00  21.31310 -157.88862       0   0.0 Hikianalia
  2021-07-20T11:19:07UTC 2021-07-20T01:19:07-10:00 2021-07-20T00:19:07-11:00  21.31302 -157.88881     180   0.0 Hōkūleʻa
  2021-07-20T10:18:46UTC 2021-07-20T00:18:46-10:00 2021-07-19T23:18:46-11:00  21.31303 -157.88881     180   0.0 Hōkūleʻa
  2021-07-20T10:11:15UTC 2021-07-20T00:11:15-10:00 2021-07-19T23:11:15-11:00  21.31310 -157.88862     289   0.0 Hikianalia
  2021-07-20T09:18:34UTC 2021-07-19T23:18:34-10:00 2021-07-19T22:18:34-11:00  21.31305 -157.88881     138   0.0 Hōkūleʻa
  2021-07-20T09:10:47UTC 2021-07-19T23:10:47-10:00 2021-07-19T22:10:47-11:00  21.31308 -157.88856     109   0.0 Hikianalia
  2021-07-20T08:18:30UTC 2021-07-19T22:18:30-10:00 2021-07-19T21:18:30-11:00  21.31307 -157.88883     324   0.0 Hōkūleʻa
  2021-07-20T08:10:44UTC 2021-07-19T22:10:44-10:00 2021-07-19T21:10:44-11:00  21.31310 -157.88862       0   0.0 Hikianalia
  2021-07-20T07:18:25UTC 2021-07-19T21:18:25-10:00 2021-07-19T20:18:25-11:00  21.31302 -157.88879     119   0.0 Hōkūleʻa
  2021-07-20T07:10:56UTC 2021-07-19T21:10:56-10:00 2021-07-19T20:10:56-11:00  21.31305 -157.88862     198   0.0 Hikianalia
  2021-07-20T06:18:50UTC 2021-07-19T20:18:50-10:00 2021-07-19T19:18:50-11:00  21.31303 -157.88881      90   0.0 Hōkūleʻa
  2021-07-20T06:11:12UTC 2021-07-19T20:11:12-10:00 2021-07-19T19:11:12-11:00  21.31311 -157.88860      11   0.0 Hikianalia
  2021-07-20T05:17:32UTC 2021-07-19T19:17:32-10:00 2021-07-19T18:17:32-11:00  21.31303 -157.88883     270   0.0 Hōkūleʻa
  2021-07-20T05:09:49UTC 2021-07-19T19:09:49-10:00 2021-07-19T18:09:49-11:00  21.31300 -157.88862     180   0.0 Hikianalia
  2021-07-20T04:18:25UTC 2021-07-19T18:18:25-10:00 2021-07-19T17:18:25-11:00  21.31303 -157.88881      90   0.0 Hōkūleʻa
  2021-07-20T04:10:40UTC 2021-07-19T18:10:40-10:00 2021-07-19T17:10:40-11:00  21.31309 -157.88862     180   0.0 Hikianalia
  2021-07-20T03:18:31UTC 2021-07-19T17:18:31-10:00 2021-07-19T16:18:31-11:00  21.31303 -157.88883       0   0.0 Hōkūleʻa
  2021-07-20T03:10:14UTC 2021-07-19T17:10:14-10:00 2021-07-19T16:10:14-11:00  21.31310 -157.88862     158   0.0 Hikianalia
  2021-07-20T02:17:46UTC 2021-07-19T16:17:46-10:00 2021-07-19T15:17:46-11:00  21.31303 -157.88883     299   0.0 Hōkūleʻa
  2021-07-20T02:11:10UTC 2021-07-19T16:11:10-10:00 2021-07-19T15:11:10-11:00  21.31325 -157.88868     338   0.0 Hikianalia
  2021-07-20T01:18:33UTC 2021-07-19T15:18:33-10:00 2021-07-19T14:18:33-11:00  21.31302 -157.88881       0   0.0 Hōkūleʻa
  2021-07-20T01:09:49UTC 2021-07-19T15:09:49-10:00 2021-07-19T14:09:49-11:00  21.31310 -157.88862     155   0.0 Hikianalia
  2021-07-20T00:17:34UTC 2021-07-19T14:17:34-10:00 2021-07-19T13:17:34-11:00  21.31300 -157.88881       0   0.0 Hōkūleʻa
  2021-07-20T00:10:09UTC 2021-07-19T14:10:09-10:00 2021-07-19T13:10:09-11:00  21.31314 -157.88864      52   0.0 Hikianalia
  2021-07-19T23:17:58UTC 2021-07-19T13:17:58-10:00 2021-07-19T12:17:58-11:00  21.31300 -157.88881     180   0.0 Hōkūleʻa
  2021-07-19T23:09:58UTC 2021-07-19T13:09:58-10:00 2021-07-19T12:09:58-11:00  21.31308 -157.88873     294   0.0 Hikianalia
  2021-07-19T22:18:45UTC 2021-07-19T12:18:45-10:00 2021-07-19T11:18:45-11:00  21.31302 -157.88881       0   0.0 Hōkūleʻa
  2021-07-19T22:10:48UTC 2021-07-19T12:10:48-10:00 2021-07-19T11:10:48-11:00  21.31298 -157.88849     137   0.0 Hikianalia
  2021-07-19T21:17:33UTC 2021-07-19T11:17:33-10:00 2021-07-19T10:17:33-11:00  21.31302 -157.88881       0   0.0 Hōkūleʻa
  2021-07-19T21:10:17UTC 2021-07-19T11:10:17-10:00 2021-07-19T10:10:17-11:00  21.31311 -157.88862       0   0.0 Hikianalia
  2021-07-19T20:18:32UTC 2021-07-19T10:18:32-10:00 2021-07-19T09:18:32-11:00  21.31302 -157.88881     119   0.0 Hōkūleʻa
  2021-07-19T20:10:42UTC 2021-07-19T10:10:42-10:00 2021-07-19T09:10:42-11:00  21.31310 -157.88862     180   0.0 Hikianalia
  2021-07-19T19:17:25UTC 2021-07-19T09:17:25-10:00 2021-07-19T08:17:25-11:00  21.31303 -157.88883       0   0.0 Hōkūleʻa
  2021-07-19T19:10:13UTC 2021-07-19T09:10:13-10:00 2021-07-19T08:10:13-11:00  21.31313 -157.88862       0   0.0 Hikianalia
  2021-07-19T18:18:42UTC 2021-07-19T08:18:42-10:00 2021-07-19T07:18:42-11:00  21.31302 -157.88883     299   0.0 Hōkūleʻa
  2021-07-19T18:11:06UTC 2021-07-19T08:11:06-10:00 2021-07-19T07:11:06-11:00  21.31310 -157.88862     306   0.0 Hikianalia
  2021-07-19T17:18:33UTC 2021-07-19T07:18:33-10:00 2021-07-19T06:18:33-11:00  21.31300 -157.88881     180   0.0 Hōkūleʻa
  2021-07-19T17:10:43UTC 2021-07-19T07:10:43-10:00 2021-07-19T06:10:43-11:00  21.31306 -157.88856     114   0.0 Hikianalia
  2021-07-19T16:18:34UTC 2021-07-19T06:18:34-10:00 2021-07-19T05:18:34-11:00  21.31303 -157.88881      61   0.0 Hōkūleʻa
  2021-07-19T16:09:47UTC 2021-07-19T06:09:47-10:00 2021-07-19T05:09:47-11:00  21.31311 -157.88868     328   0.0 Hikianalia
  2021-07-19T15:18:33UTC 2021-07-19T05:18:33-10:00 2021-07-19T04:18:33-11:00  21.31302 -157.88883     270   0.0 Hōkūleʻa
  2021-07-19T15:10:36UTC 2021-07-19T05:10:36-10:00 2021-07-19T04:10:36-11:00  21.31308 -157.88866     242   0.0 Hikianalia
  2021-07-19T14:18:40UTC 2021-07-19T04:18:40-10:00 2021-07-19T03:18:40-11:00  21.31302 -157.88881     119   0.0 Hōkūleʻa
  2021-07-19T14:11:11UTC 2021-07-19T04:11:11-10:00 2021-07-19T03:11:11-11:00  21.31310 -157.88862     148   0.0 Hikianalia
  2021-07-19T13:18:33UTC 2021-07-19T03:18:33-10:00 2021-07-19T02:18:33-11:00  21.31304 -157.88886     298   0.0 Hōkūleʻa
  2021-07-19T13:10:48UTC 2021-07-19T03:10:48-10:00 2021-07-19T02:10:48-11:00  21.31313 -157.88864     340   0.0 Hikianalia
  2021-07-19T12:18:32UTC 2021-07-19T02:18:32-10:00 2021-07-19T01:18:32-11:00  21.31303 -157.88883       0   0.0 Hōkūleʻa
  2021-07-19T12:10:47UTC 2021-07-19T02:10:47-10:00 2021-07-19T01:10:47-11:00  21.31308 -157.88862     180   0.0 Hikianalia
  2021-07-19T11:18:34UTC 2021-07-19T01:18:34-10:00 2021-07-19T00:18:34-11:00  21.31302 -157.88883     180   0.0 Hōkūleʻa
  2021-07-19T11:10:37UTC 2021-07-19T01:10:37-10:00 2021-07-19T00:10:37-11:00  21.31312 -157.88862       0   0.0 Hikianalia
  2021-07-19T10:18:46UTC 2021-07-19T00:18:46-10:00 2021-07-18T23:18:46-11:00  21.31303 -157.88883     180   0.0 Hōkūleʻa
  2021-07-19T10:11:18UTC 2021-07-19T00:11:18-10:00 2021-07-18T23:11:18-11:00  21.31310 -157.88862     180   0.0 Hikianalia
  2021-07-19T09:18:34UTC 2021-07-18T23:18:34-10:00 2021-07-18T22:18:34-11:00  21.31305 -157.88883     180   0.0 Hōkūleʻa
  2021-07-19T09:10:10UTC 2021-07-18T23:10:10-10:00 2021-07-18T22:10:10-11:00  21.31311 -157.88862       0   0.0 Hikianalia
  2021-07-19T08:18:32UTC 2021-07-18T22:18:32-10:00 2021-07-18T21:18:32-11:00  21.31307 -157.88883       0   0.0 Hōkūleʻa
  2021-07-19T08:12:08UTC 2021-07-18T22:12:08-10:00 2021-07-18T21:12:08-11:00  21.31310 -157.88862       0   0.0 Hikianalia
  2021-07-19T07:18:47UTC 2021-07-18T21:18:47-10:00 2021-07-18T20:18:47-11:00  21.31300 -157.88883     222   0.0 Hōkūleʻa
  2021-07-19T07:10:42UTC 2021-07-18T21:10:42-10:00 2021-07-18T20:10:42-11:00  21.31308 -157.88862     292   0.0 Hikianalia
  2021-07-19T06:18:43UTC 2021-07-18T20:18:43-10:00 2021-07-18T19:18:43-11:00  21.31303 -157.88881     299   0.0 Hōkūleʻa
  2021-07-19T06:10:39UTC 2021-07-18T20:10:39-10:00 2021-07-18T19:10:39-11:00  21.31305 -157.88853     137   0.0 Hikianalia
  2021-07-19T05:18:29UTC 2021-07-18T19:18:29-10:00 2021-07-18T18:18:29-11:00  21.31302 -157.88879     119   0.0 Hōkūleʻa
  2021-07-19T05:11:19UTC 2021-07-18T19:11:19-10:00 2021-07-18T18:11:19-11:00  21.31311 -157.88860       0   0.0 Hikianalia
  2021-07-19T04:17:25UTC 2021-07-18T18:17:25-10:00 2021-07-18T17:17:25-11:00  21.31303 -157.88881      90   0.0 Hōkūleʻa
  2021-07-19T04:10:58UTC 2021-07-18T18:10:58-10:00 2021-07-18T17:10:58-11:00  21.31311 -157.88860       0   0.0 Hikianalia
  2021-07-19T03:18:31UTC 2021-07-18T17:18:31-10:00 2021-07-18T16:18:31-11:00  21.31303 -157.88883     299   0.0 Hōkūleʻa
  2021-07-19T03:10:52UTC 2021-07-18T17:10:52-10:00 2021-07-18T16:10:52-11:00  21.31311 -157.88860       0   0.0 Hikianalia
  2021-07-19T02:18:48UTC 2021-07-18T16:18:48-10:00 2021-07-18T15:18:48-11:00  21.31302 -157.88881      90   0.0 Hōkūleʻa
  2021-07-19T02:10:16UTC 2021-07-18T16:10:16-10:00 2021-07-18T15:10:16-11:00  21.31311 -157.88860     335   0.0 Hikianalia
  2021-07-19T01:17:32UTC 2021-07-18T15:17:32-10:00 2021-07-18T14:17:32-11:00  21.31302 -157.88888     241   0.0 Hōkūleʻa
  2021-07-19T01:10:51UTC 2021-07-18T15:10:51-10:00 2021-07-18T14:10:51-11:00  21.31307 -157.88858     155   0.0 Hikianalia
  2021-07-19T00:17:25UTC 2021-07-18T14:17:25-10:00 2021-07-18T13:17:25-11:00  21.31304 -157.88883       0   0.0 Hōkūleʻa
  2021-07-19T00:10:48UTC 2021-07-18T14:10:48-10:00 2021-07-18T13:10:48-11:00  21.31311 -157.88860      62   0.0 Hikianalia
  2021-07-18T23:18:30UTC 2021-07-18T13:18:30-10:00 2021-07-18T12:18:30-11:00  21.31303 -157.88883       0   0.0 Hōkūleʻa
  2021-07-18T23:10:18UTC 2021-07-18T13:10:18-10:00 2021-07-18T12:10:18-11:00  21.31310 -157.88862       0   0.0 Hikianalia
  2021-07-18T22:27:14UTC 2021-07-18T12:27:14-10:00 2021-07-18T11:27:14-11:00  21.31303 -157.88883     290   0.0 Hōkūleʻa
  2021-07-18T22:10:49UTC 2021-07-18T12:10:49-10:00 2021-07-18T11:10:49-11:00  21.31310 -157.88862     298   0.0 Hikianalia
  2021-07-18T21:18:37UTC 2021-07-18T11:18:37-10:00 2021-07-18T10:18:37-11:00  21.31300 -157.88877     110   0.0 Hōkūleʻa
  2021-07-18T21:09:45UTC 2021-07-18T11:09:45-10:00 2021-07-18T10:09:45-11:00  21.31309 -157.88860     118   0.0 Hikianalia
  2021-07-18T20:17:27UTC 2021-07-18T10:17:27-10:00 2021-07-18T09:17:27-11:00  21.31303 -157.88883       0   0.0 Hōkūleʻa
  2021-07-18T20:10:09UTC 2021-07-18T10:10:09-10:00 2021-07-18T09:10:09-11:00  21.31310 -157.88862       0   0.0 Hikianalia
  2021-07-18T19:17:33UTC 2021-07-18T09:17:33-10:00 2021-07-18T08:17:33-11:00  21.31302 -157.88883       0   0.0 Hōkūleʻa
  2021-07-18T19:10:47UTC 2021-07-18T09:10:47-10:00 2021-07-18T08:10:47-11:00  21.31308 -157.88862     180   0.0 Hikianalia
  2021-07-18T18:18:41UTC 2021-07-18T08:18:41-10:00 2021-07-18T07:18:41-11:00  21.31302 -157.88883       0   0.0 Hōkūleʻa
  2021-07-18T18:10:46UTC 2021-07-18T08:10:46-10:00 2021-07-18T07:10:46-11:00  21.31313 -157.88862       0   0.0 Hikianalia
  2021-07-18T17:18:31UTC 2021-07-18T07:18:31-10:00 2021-07-18T06:18:31-11:00  21.31300 -157.88883       0   0.0 Hōkūleʻa
  2021-07-18T17:11:17UTC 2021-07-18T07:11:17-10:00 2021-07-18T06:11:17-11:00  21.31309 -157.88862     138   0.0 Hikianalia
  2021-07-18T16:18:34UTC 2021-07-18T06:18:34-10:00 2021-07-18T05:18:34-11:00  21.31299 -157.88883     180   0.0 Hōkūleʻa
  2021-07-18T16:10:41UTC 2021-07-18T06:10:41-10:00 2021-07-18T05:10:41-11:00  21.31311 -157.88864     180   0.0 Hikianalia
  2021-07-18T15:18:25UTC 2021-07-18T05:18:25-10:00 2021-07-18T04:18:25-11:00  21.31302 -157.88883       0   0.0 Hōkūleʻa
  2021-07-18T15:09:46UTC 2021-07-18T05:09:46-10:00 2021-07-18T04:09:46-11:00  21.31313 -157.88864       0   0.0 Hikianalia
  2021-07-18T14:19:48UTC 2021-07-18T04:19:48-10:00 2021-07-18T03:19:48-11:00  21.31302 -157.88883       0   0.0 Hōkūleʻa
  2021-07-18T14:11:09UTC 2021-07-18T04:11:09-10:00 2021-07-18T03:11:09-11:00  21.31311 -157.88864       0   0.0 Hikianalia
  2021-07-18T13:18:43UTC 2021-07-18T03:18:43-10:00 2021-07-18T02:18:43-11:00  21.31300 -157.88883     180   0.0 Hōkūleʻa
  2021-07-18T13:10:49UTC 2021-07-18T03:10:49-10:00 2021-07-18T02:10:49-11:00  21.31311 -157.88864     337   0.0 Hikianalia
  2021-07-18T12:17:34UTC 2021-07-18T02:17:34-10:00 2021-07-18T01:17:34-11:00  21.31302 -157.88883       0   0.0 Hōkūleʻa
  2021-07-18T12:10:40UTC 2021-07-18T02:10:40-10:00 2021-07-18T01:10:40-11:00  21.31302 -157.88860     155   0.0 Hikianalia
  2021-07-18T11:18:24UTC 2021-07-18T01:18:24-10:00 2021-07-18T00:18:24-11:00  21.31302 -157.88883       0   0.0 Hōkūleʻa
  2021-07-18T11:10:37UTC 2021-07-18T01:10:37-10:00 2021-07-18T00:10:37-11:00  21.31314 -157.88866     285   0.0 Hikianalia
  2021-07-18T10:18:50UTC 2021-07-18T00:18:50-10:00 2021-07-17T23:18:50-11:00  21.31300 -157.88883     241   0.0 Hōkūleʻa
  2021-07-18T10:11:14UTC 2021-07-18T00:11:14-10:00 2021-07-17T23:11:14-11:00  21.31313 -157.88862     126   0.0 Hikianalia
  2021-07-18T09:18:32UTC 2021-07-17T23:18:32-10:00 2021-07-17T22:18:32-11:00  21.31302 -157.88881      90   0.0 Hōkūleʻa
  2021-07-18T09:09:47UTC 2021-07-17T23:09:47-10:00 2021-07-17T22:09:47-11:00  21.31318 -157.88868     321   0.0 Hikianalia
  2021-07-18T08:18:22UTC 2021-07-17T22:18:22-10:00 2021-07-17T21:18:22-11:00  21.31302 -157.88883     299   0.0 Hōkūleʻa
  2021-07-18T08:10:36UTC 2021-07-17T22:10:36-10:00 2021-07-17T21:10:36-11:00  21.31310 -157.88862     180   0.0 Hikianalia
  2021-07-18T07:17:42UTC 2021-07-17T21:17:42-10:00 2021-07-17T20:17:42-11:00  21.31300 -157.88881     222   0.0 Hōkūleʻa
  2021-07-18T07:10:48UTC 2021-07-17T21:10:48-10:00 2021-07-17T20:10:48-11:00  21.31313 -157.88862       0   0.0 Hikianalia
  2021-07-18T06:18:26UTC 2021-07-17T20:18:26-10:00 2021-07-17T19:18:26-11:00  21.31303 -157.88879      74   0.0 Hōkūleʻa
  2021-07-18T06:11:19UTC 2021-07-17T20:11:19-10:00 2021-07-17T19:11:19-11:00  21.31312 -157.88862     298   0.0 Hikianalia
  2021-07-18T05:18:23UTC 2021-07-17T19:18:23-10:00 2021-07-17T18:18:23-11:00  21.31302 -157.88883     241   0.0 Hōkūleʻa
  2021-07-18T05:11:17UTC 2021-07-17T19:11:17-10:00 2021-07-17T18:11:17-11:00  21.31311 -157.88860      62   0.0 Hikianalia
  2021-07-18T04:18:50UTC 2021-07-17T18:18:50-10:00 2021-07-17T17:18:50-11:00  21.31303 -157.88881     270   0.0 Hōkūleʻa
  2021-07-18T04:10:41UTC 2021-07-17T18:10:41-10:00 2021-07-17T17:10:41-11:00  21.31310 -157.88862     212   0.0 Hikianalia
  2021-07-18T03:18:39UTC 2021-07-17T17:18:39-10:00 2021-07-17T16:18:39-11:00  21.31303 -157.88877      61   0.0 Hōkūleʻa
  2021-07-18T03:10:04UTC 2021-07-17T17:10:04-10:00 2021-07-17T16:10:04-11:00  21.31317 -157.88858      44   0.0 Hikianalia
  2021-07-18T02:17:22UTC 2021-07-17T16:17:22-10:00 2021-07-17T15:17:22-11:00  21.31300 -157.88881     180   0.0 Hōkūleʻa
  2021-07-18T02:10:10UTC 2021-07-17T16:10:10-10:00 2021-07-17T15:10:10-11:00  21.31312 -157.88862       0   0.0 Hikianalia
  2021-07-18T01:18:34UTC 2021-07-17T15:18:34-10:00 2021-07-17T14:18:34-11:00  21.31302 -157.88881     180   0.0 Hōkūleʻa
  2021-07-18T01:17:35UTC 2021-07-17T15:17:35-10:00 2021-07-17T14:17:35-11:00  21.31310 -157.88862       0   0.0 Hikianalia
  2021-07-18T00:17:50UTC 2021-07-17T14:17:50-10:00 2021-07-17T13:17:50-11:00  21.31303 -157.88881      61   0.0 Hōkūleʻa
  2021-07-18T00:10:40UTC 2021-07-17T14:10:40-10:00 2021-07-17T13:10:40-11:00  21.31310 -157.88862      13   0.0 Hikianalia
  2021-07-17T23:17:33UTC 2021-07-17T13:17:33-10:00 2021-07-17T12:17:33-11:00  21.31302 -157.88883     180   0.0 Hōkūleʻa
  2021-07-17T23:09:47UTC 2021-07-17T13:09:47-10:00 2021-07-17T12:09:47-11:00  21.31302 -157.88864     180   0.0 Hikianalia
  2021-07-17T22:18:28UTC 2021-07-17T12:18:28-10:00 2021-07-17T11:18:28-11:00  21.31303 -157.88883       0   0.0 Hōkūleʻa
  2021-07-17T22:10:15UTC 2021-07-17T12:10:15-10:00 2021-07-17T11:10:15-11:00  21.31310 -157.88864     315   0.0 Hikianalia
  2021-07-17T21:17:30UTC 2021-07-17T11:17:30-10:00 2021-07-17T10:17:30-11:00  21.31303 -157.88883     270   0.0 Hōkūleʻa
  2021-07-17T21:10:39UTC 2021-07-17T11:10:39-10:00 2021-07-17T10:10:39-11:00  21.31298 -157.88851     140   0.0 Hikianalia
  2021-07-17T20:17:39UTC 2021-07-17T10:17:39-10:00 2021-07-17T09:17:39-11:00  21.31303 -157.88881     257   0.0 Hōkūleʻa
  2021-07-17T20:10:47UTC 2021-07-17T10:10:47-10:00 2021-07-17T09:10:47-11:00  21.31310 -157.88862      90   0.0 Hikianalia
  2021-07-17T19:18:35UTC 2021-07-17T09:18:35-10:00 2021-07-17T08:18:35-11:00  21.31307 -157.88862      67   0.0 Hōkūleʻa
  2021-07-17T19:09:38UTC 2021-07-17T09:09:38-10:00 2021-07-17T08:09:38-11:00  21.31310 -157.88866     270   0.0 Hikianalia
  2021-07-17T18:18:39UTC 2021-07-17T08:18:39-10:00 2021-07-17T07:18:39-11:00  21.31298 -157.88883     180   0.0 Hōkūleʻa
  2021-07-17T18:11:13UTC 2021-07-17T08:11:13-10:00 2021-07-17T07:11:13-11:00  21.31310 -157.88862     123   0.0 Hikianalia
  2021-07-17T17:18:33UTC 2021-07-17T07:18:33-10:00 2021-07-17T06:18:33-11:00  21.31303 -157.88883       0   0.0 Hōkūleʻa
  2021-07-17T17:10:48UTC 2021-07-17T07:10:48-10:00 2021-07-17T06:10:48-11:00  21.31317 -157.88873     321   0.0 Hikianalia
  2021-07-17T16:18:42UTC 2021-07-17T06:18:42-10:00 2021-07-17T05:18:42-11:00  21.31302 -157.88883     105   0.0 Hōkūleʻa
  2021-07-17T16:10:50UTC 2021-07-17T06:10:50-10:00 2021-07-17T05:10:50-11:00  21.31309 -157.88866     242   0.0 Hikianalia
  2021-07-17T15:18:31UTC 2021-07-17T05:18:31-10:00 2021-07-17T04:18:31-11:00  21.31303 -157.88888     308   0.0 Hōkūleʻa
  2021-07-17T15:09:39UTC 2021-07-17T05:09:39-10:00 2021-07-17T04:09:39-11:00  21.31313 -157.88858      76   0.0 Hikianalia
  2021-07-17T14:18:27UTC 2021-07-17T04:18:27-10:00 2021-07-17T03:18:27-11:00  21.31299 -157.88883     223   0.0 Hōkūleʻa
  2021-07-17T14:11:10UTC 2021-07-17T04:11:10-10:00 2021-07-17T03:11:10-11:00  21.31312 -157.88862     180   0.0 Hikianalia
  2021-07-17T13:17:32UTC 2021-07-17T03:17:32-10:00 2021-07-17T02:17:32-11:00  21.31302 -157.88881       0   0.0 Hōkūleʻa
  2021-07-17T13:10:49UTC 2021-07-17T03:10:49-10:00 2021-07-17T02:10:49-11:00  21.31315 -157.88862     331   0.0 Hikianalia
  2021-07-17T12:26:36UTC 2021-07-17T02:26:36-10:00 2021-07-17T01:26:36-11:00  21.31300 -157.88881     155   0.0 Hōkūleʻa
  2021-07-17T12:10:40UTC 2021-07-17T02:10:40-10:00 2021-07-17T01:10:40-11:00  21.31305 -157.88856     132   0.0 Hikianalia
  2021-07-17T11:18:28UTC 2021-07-17T01:18:28-10:00 2021-07-17T00:18:28-11:00  21.31305 -157.88883     340   0.0 Hōkūleʻa
  2021-07-17T11:10:45UTC 2021-07-17T01:10:45-10:00 2021-07-17T00:10:45-11:00  21.31310 -157.88862     180   0.0 Hikianalia
  2021-07-17T10:18:26UTC 2021-07-17T00:18:26-10:00 2021-07-16T23:18:26-11:00  21.31299 -157.88881     137   0.0 Hōkūleʻa
  2021-07-17T10:11:15UTC 2021-07-17T00:11:15-10:00 2021-07-16T23:11:15-11:00  21.31311 -157.88862     137   0.0 Hikianalia
  2021-07-17T09:18:34UTC 2021-07-16T23:18:34-10:00 2021-07-16T22:18:34-11:00  21.31302 -157.88883     299   0.0 Hōkūleʻa
  2021-07-17T09:11:13UTC 2021-07-16T23:11:13-10:00 2021-07-16T22:11:13-11:00  21.31313 -157.88864     137   0.0 Hikianalia
  2021-07-17T08:18:48UTC 2021-07-16T22:18:48-10:00 2021-07-16T21:18:48-11:00  21.31300 -157.88881     270   0.0 Hōkūleʻa
  2021-07-17T08:10:59UTC 2021-07-16T22:10:59-10:00 2021-07-16T21:10:59-11:00  21.31318 -157.88868     325   0.0 Hikianalia
  2021-07-17T07:18:44UTC 2021-07-16T21:18:44-10:00 2021-07-16T20:18:44-11:00  21.31309 -157.88862     180   0.0 Hikianalia
  2021-07-17T07:18:36UTC 2021-07-16T21:18:36-10:00 2021-07-16T20:18:36-11:00  21.31300 -157.88877     100   0.0 Hōkūleʻa
  2021-07-17T06:18:33UTC 2021-07-16T20:18:33-10:00 2021-07-16T19:18:33-11:00  21.31302 -157.88883     299   0.0 Hōkūleʻa
  2021-07-17T06:11:13UTC 2021-07-16T20:11:13-10:00 2021-07-16T19:11:13-11:00  21.31310 -157.88862     186   0.0 Hikianalia
  2021-07-17T05:17:33UTC 2021-07-16T19:17:33-10:00 2021-07-16T18:17:33-11:00  21.31300 -157.88881     180   0.0 Hōkūleʻa
  2021-07-17T05:10:49UTC 2021-07-16T19:10:49-10:00 2021-07-16T18:10:49-11:00  21.31328 -157.88860       7   0.0 Hikianalia
  2021-07-17T04:18:42UTC 2021-07-16T18:18:42-10:00 2021-07-16T17:18:42-11:00  21.31303 -157.88881     119   0.0 Hōkūleʻa
  2021-07-17T04:10:15UTC 2021-07-16T18:10:15-10:00 2021-07-16T17:10:15-11:00  21.31312 -157.88862      16   0.0 Hikianalia
  2021-07-17T03:18:31UTC 2021-07-16T17:18:31-10:00 2021-07-16T16:18:31-11:00  21.31304 -157.88883     270   0.0 Hōkūleʻa
  2021-07-17T03:10:38UTC 2021-07-16T17:10:38-10:00 2021-07-16T16:10:38-11:00  21.31298 -157.88866     255   0.0 Hikianalia
  2021-07-17T02:21:03UTC 2021-07-16T16:21:03-10:00 2021-07-16T15:21:03-11:00  21.31299 -157.88862     180   0.0 Hikianalia
  2021-07-17T02:17:36UTC 2021-07-16T16:17:36-10:00 2021-07-16T15:17:36-11:00  21.31304 -157.88881       0   0.0 Hōkūleʻa
  2021-07-17T01:18:26UTC 2021-07-16T15:18:26-10:00 2021-07-16T14:18:26-11:00  21.31302 -157.88881     180   0.0 Hōkūleʻa
  2021-07-17T01:10:18UTC 2021-07-16T15:10:18-10:00 2021-07-16T14:10:18-11:00  21.31311 -157.88862     180   0.0 Hikianalia
  2021-07-17T00:17:49UTC 2021-07-16T14:17:49-10:00 2021-07-16T13:17:49-11:00  21.31303 -157.88881     285   0.0 Hōkūleʻa
  2021-07-17T00:10:11UTC 2021-07-16T14:10:11-10:00 2021-07-16T13:10:11-11:00  21.31313 -157.88862       0   0.0 Hikianalia
  2021-07-16T23:18:31UTC 2021-07-16T13:18:31-10:00 2021-07-16T12:18:31-11:00  21.31302 -157.88877     126   0.0 Hōkūleʻa
  2021-07-16T23:10:37UTC 2021-07-16T13:10:37-10:00 2021-07-16T12:10:37-11:00  21.31310 -157.88862     180   0.0 Hikianalia
  2021-07-16T22:17:31UTC 2021-07-16T12:17:31-10:00 2021-07-16T11:17:31-11:00  21.31306 -157.88883       0   0.0 Hōkūleʻa
  2021-07-16T22:10:18UTC 2021-07-16T12:10:18-10:00 2021-07-16T11:10:18-11:00  21.31312 -157.88862     335   0.0 Hikianalia
  2021-07-16T21:17:33UTC 2021-07-16T11:17:33-10:00 2021-07-16T10:17:33-11:00  21.31303 -157.88883       0   0.0 Hōkūleʻa
  2021-07-16T21:10:45UTC 2021-07-16T11:10:45-10:00 2021-07-16T10:10:45-11:00  21.31299 -157.88856     151   0.0 Hikianalia
  2021-07-16T20:18:48UTC 2021-07-16T10:18:48-10:00 2021-07-16T09:18:48-11:00  21.31302 -157.88883      80   0.0 Hōkūleʻa
  2021-07-16T20:10:08UTC 2021-07-16T10:10:08-10:00 2021-07-16T09:10:08-11:00  21.31310 -157.88862     180   0.0 Hikianalia
  2021-07-16T19:17:50UTC 2021-07-16T09:17:50-10:00 2021-07-16T08:17:50-11:00  21.31300 -157.88890     258   0.0 Hōkūleʻa
  2021-07-16T19:11:16UTC 2021-07-16T09:11:16-10:00 2021-07-16T08:11:16-11:00  21.31312 -157.88862      32   0.0 Hikianalia
  2021-07-16T18:18:31UTC 2021-07-16T08:18:31-10:00 2021-07-16T07:18:31-11:00  21.31303 -157.88879      61   0.0 Hōkūleʻa
  2021-07-16T18:10:53UTC 2021-07-16T08:10:53-10:00 2021-07-16T07:10:53-11:00  21.31306 -157.88866     298   0.0 Hikianalia
  2021-07-16T17:18:29UTC 2021-07-16T07:18:29-10:00 2021-07-16T06:18:29-11:00  21.31300 -157.88883       0   0.0 Hōkūleʻa
  2021-07-16T17:10:44UTC 2021-07-16T07:10:44-10:00 2021-07-16T06:10:44-11:00  21.31300 -157.88856     148   0.0 Hikianalia
  2021-07-16T16:18:48UTC 2021-07-16T06:18:48-10:00 2021-07-16T05:18:48-11:00  21.31299 -157.88883     299   0.0 Hōkūleʻa
  2021-07-16T16:11:17UTC 2021-07-16T06:11:17-10:00 2021-07-16T05:11:17-11:00  21.31310 -157.88862      96   0.0 Hikianalia
  2021-07-16T15:18:40UTC 2021-07-16T05:18:40-10:00 2021-07-16T04:18:40-11:00  21.31298 -157.88881       0   0.0 Hōkūleʻa
  2021-07-16T15:10:49UTC 2021-07-16T05:10:49-10:00 2021-07-16T04:10:49-11:00  21.31311 -157.88873     276   0.0 Hikianalia
  2021-07-16T14:18:31UTC 2021-07-16T04:18:31-10:00 2021-07-16T03:18:31-11:00  21.31298 -157.88881     137   0.0 Hōkūleʻa
  2021-07-16T14:10:43UTC 2021-07-16T04:10:43-10:00 2021-07-16T03:10:43-11:00  21.31310 -157.88862     298   0.0 Hikianalia
  2021-07-16T13:18:33UTC 2021-07-16T03:18:33-10:00 2021-07-16T02:18:33-11:00  21.31300 -157.88883     297   0.0 Hōkūleʻa
  2021-07-16T13:10:47UTC 2021-07-16T03:10:47-10:00 2021-07-16T02:10:47-11:00  21.31307 -157.88856     132   0.0 Hikianalia
  2021-07-16T12:21:44UTC 2021-07-16T02:21:44-10:00 2021-07-16T01:21:44-11:00  21.31312 -157.88862       0   0.0 Hikianalia
  2021-07-16T12:17:42UTC 2021-07-16T02:17:42-10:00 2021-07-16T01:17:42-11:00  21.31299 -157.88881     299   0.0 Hōkūleʻa
  2021-07-16T11:18:29UTC 2021-07-16T01:18:29-10:00 2021-07-16T00:18:29-11:00  21.31298 -157.88879     180   0.0 Hōkūleʻa
  2021-07-16T11:10:44UTC 2021-07-16T01:10:44-10:00 2021-07-16T00:10:44-11:00  21.31312 -157.88862     242   0.0 Hikianalia
  2021-07-16T10:18:28UTC 2021-07-16T00:18:28-10:00 2021-07-15T23:18:28-11:00  21.31302 -157.88879       0   0.0 Hōkūleʻa
  2021-07-16T10:10:47UTC 2021-07-16T00:10:47-10:00 2021-07-15T23:10:47-11:00  21.31314 -157.88858      43   0.0 Hikianalia
  2021-07-16T09:18:34UTC 2021-07-15T23:18:34-10:00 2021-07-15T22:18:34-11:00  21.31298 -157.88879      90   0.0 Hōkūleʻa
  2021-07-16T09:11:19UTC 2021-07-15T23:11:19-10:00 2021-07-15T22:11:19-11:00  21.31310 -157.88862     308   0.0 Hikianalia
  2021-07-16T08:18:46UTC 2021-07-15T22:18:46-10:00 2021-07-15T21:18:46-11:00  21.31298 -157.88881     270   0.0 Hōkūleʻa
  2021-07-16T08:10:50UTC 2021-07-15T22:10:50-10:00 2021-07-15T21:10:50-11:00  21.31307 -157.88858     118   0.0 Hikianalia
  2021-07-16T07:18:46UTC 2021-07-15T21:18:46-10:00 2021-07-15T20:18:46-11:00  21.31298 -157.88873     109   0.0 Hōkūleʻa
  2021-07-16T07:10:48UTC 2021-07-15T21:10:48-10:00 2021-07-15T20:10:48-11:00  21.31310 -157.88864     255   0.0 Hikianalia
  2021-07-16T06:18:26UTC 2021-07-15T20:18:26-10:00 2021-07-15T19:18:26-11:00  21.31300 -157.88879      41   0.5 Hōkūleʻa
  2021-07-16T06:11:12UTC 2021-07-15T20:11:12-10:00 2021-07-15T19:11:12-11:00  21.31311 -157.88860     317   0.0 Hikianalia
  2021-07-16T05:18:39UTC 2021-07-15T19:18:39-10:00 2021-07-15T18:18:39-11:00  21.30620 -157.89512     346   3.4 Hōkūleʻa
  2021-07-16T05:10:36UTC 2021-07-15T19:10:36-10:00 2021-07-15T18:10:36-11:00  21.31303 -157.88851     141   0.0 Hikianalia
  2021-07-16T04:18:52UTC 2021-07-15T18:18:52-10:00 2021-07-15T17:18:52-11:00  21.25127 -157.88057     173   3.6 Hōkūleʻa
  2021-07-16T04:11:18UTC 2021-07-15T18:11:18-10:00 2021-07-15T17:11:18-11:00  21.31312 -157.88860      43   0.0 Hikianalia
  2021-07-16T03:17:33UTC 2021-07-15T17:17:33-10:00 2021-07-15T16:17:33-11:00  21.31311 -157.88862       0   0.0 Hōkūleʻa
  2021-07-16T03:09:48UTC 2021-07-15T17:09:48-10:00 2021-07-15T16:09:48-11:00  21.31310 -157.88862     166   0.0 Hikianalia
  2021-07-16T02:18:23UTC 2021-07-15T16:18:23-10:00 2021-07-15T15:18:23-11:00  21.31311 -157.88862       0   0.0 Hōkūleʻa
  2021-07-16T02:10:37UTC 2021-07-15T16:10:37-10:00 2021-07-15T15:10:37-11:00  21.31326 -157.88866      62   0.0 Hikianalia
  2021-07-16T01:17:36UTC 2021-07-15T15:17:36-10:00 2021-07-15T14:17:36-11:00  21.31311 -157.88862       0   0.0 Hōkūleʻa
  2021-07-16T01:09:45UTC 2021-07-15T15:09:45-10:00 2021-07-15T14:09:45-11:00  21.31323 -157.88873     322   0.0 Hikianalia
  2021-07-16T00:24:45UTC 2021-07-15T14:24:45-10:00 2021-07-15T13:24:45-11:00  21.31311 -157.88862       0   0.0 Hōkūleʻa
  2021-07-16T00:10:12UTC 2021-07-15T14:10:12-10:00 2021-07-15T13:10:12-11:00  21.31310 -157.88862       0   0.0 Hikianalia
  2021-07-15T23:18:57UTC 2021-07-15T13:18:57-10:00 2021-07-15T12:18:57-11:00  21.31311 -157.88862      65   0.0 Hōkūleʻa
  2021-07-15T23:10:47UTC 2021-07-15T13:10:47-10:00 2021-07-15T12:10:47-11:00  21.31310 -157.88862     312   0.0 Hikianalia
  2021-07-15T22:17:34UTC 2021-07-15T12:17:34-10:00 2021-07-15T11:17:34-11:00  21.31303 -157.88881     245   0.0 Hōkūleʻa
  2021-07-15T22:10:48UTC 2021-07-15T12:10:48-10:00 2021-07-15T11:10:48-11:00  21.31305 -157.88856     119   0.0 Hikianalia
  2021-07-15T21:17:32UTC 2021-07-15T11:17:32-10:00 2021-07-15T10:17:32-11:00  21.31311 -157.88862       0   0.0 Hōkūleʻa
  2021-07-15T21:09:47UTC 2021-07-15T11:09:47-10:00 2021-07-15T10:09:47-11:00  21.31308 -157.88862     180   0.0 Hikianalia
  2021-07-15T20:18:47UTC 2021-07-15T10:18:47-10:00 2021-07-15T09:18:47-11:00  21.31311 -157.88862       0   0.0 Hōkūleʻa
  2021-07-15T20:10:15UTC 2021-07-15T10:10:15-10:00 2021-07-15T09:10:15-11:00  21.31309 -157.88862      90   0.0 Hikianalia
  2021-07-15T19:17:42UTC 2021-07-15T09:17:42-10:00 2021-07-15T08:17:42-11:00  21.31311 -157.88862       0   0.0 Hōkūleʻa
  2021-07-15T19:10:40UTC 2021-07-15T09:10:40-10:00 2021-07-15T08:10:40-11:00  21.31309 -157.88877     260   0.0 Hikianalia
  2021-07-15T18:20:40UTC 2021-07-15T08:20:40-10:00 2021-07-15T07:20:40-11:00  21.31310 -157.88871     280   0.0 Hikianalia
  2021-07-15T18:17:26UTC 2021-07-15T08:17:26-10:00 2021-07-15T07:17:26-11:00  21.31311 -157.88862       0   0.0 Hōkūleʻa
  2021-07-15T17:18:25UTC 2021-07-15T07:18:25-10:00 2021-07-15T06:18:25-11:00  21.31311 -157.88862       0   0.0 Hōkūleʻa
  2021-07-15T17:11:17UTC 2021-07-15T07:11:17-10:00 2021-07-15T06:11:17-11:00  21.31309 -157.88864     105   0.0 Hikianalia
  2021-07-15T16:18:48UTC 2021-07-15T06:18:48-10:00 2021-07-15T05:18:48-11:00  21.31311 -157.88862       0   0.0 Hōkūleʻa
  2021-07-15T16:10:45UTC 2021-07-15T06:10:45-10:00 2021-07-15T05:10:45-11:00  21.31310 -157.88868      62   0.0 Hikianalia
  2021-07-15T15:18:33UTC 2021-07-15T05:18:33-10:00 2021-07-15T04:18:33-11:00  21.31311 -157.88862       0   0.0 Hōkūleʻa
  2021-07-15T15:10:39UTC 2021-07-15T05:10:39-10:00 2021-07-15T04:10:39-11:00  21.31309 -157.88871     260   0.0 Hikianalia
  2021-07-15T14:17:22UTC 2021-07-15T04:17:22-10:00 2021-07-15T03:17:22-11:00  21.31311 -157.88862       0   0.0 Hōkūleʻa
  2021-07-15T14:11:17UTC 2021-07-15T04:11:17-10:00 2021-07-15T03:11:17-11:00  21.31310 -157.88864     351   0.0 Hikianalia
  2021-07-15T13:18:25UTC 2021-07-15T03:18:25-10:00 2021-07-15T02:18:25-11:00  21.31311 -157.88862       0   0.0 Hōkūleʻa
  2021-07-15T13:10:49UTC 2021-07-15T03:10:49-10:00 2021-07-15T02:10:49-11:00  21.31297 -157.88862     180   0.0 Hikianalia
  2021-07-15T12:24:19UTC 2021-07-15T02:24:19-10:00 2021-07-15T01:24:19-11:00  21.31311 -157.88862       0   0.0 Hōkūleʻa
  2021-07-15T12:10:57UTC 2021-07-15T02:10:57-10:00 2021-07-15T01:10:57-11:00  21.31309 -157.88862     119   0.0 Hikianalia
  2021-07-15T11:18:38UTC 2021-07-15T01:18:38-10:00 2021-07-15T00:18:38-11:00  21.31311 -157.88862      59   0.0 Hōkūleʻa
  2021-07-15T11:10:59UTC 2021-07-15T01:10:59-10:00 2021-07-15T00:10:59-11:00  21.31310 -157.88864       0   0.0 Hikianalia
  2021-07-15T10:18:39UTC 2021-07-15T00:18:39-10:00 2021-07-14T23:18:39-11:00  21.31303 -157.88877     239   0.0 Hōkūleʻa
  2021-07-15T10:11:19UTC 2021-07-15T00:11:19-10:00 2021-07-14T23:11:19-11:00  21.31310 -157.88864     327   0.1 Hikianalia
  2021-07-15T09:35:49UTC 2021-07-14T23:35:49-10:00 2021-07-14T22:35:49-11:00  21.31311 -157.88862       0   0.0 Hōkūleʻa
  2021-07-15T09:10:53UTC 2021-07-14T23:10:53-10:00 2021-07-14T22:10:53-11:00  21.31112 -157.88729     157   0.1 Hikianalia
  2021-07-15T08:18:45UTC 2021-07-14T22:18:45-10:00 2021-07-14T21:18:45-11:00  21.31311 -157.88862       0   0.0 Hōkūleʻa
  2021-07-15T08:11:02UTC 2021-07-14T22:11:02-10:00 2021-07-14T21:11:02-11:00  21.31298 -157.88815     285   0.1 Hikianalia
  2021-07-15T07:18:28UTC 2021-07-14T21:18:28-10:00 2021-07-14T20:18:28-11:00  21.31311 -157.88862      67   0.0 Hōkūleʻa
  2021-07-15T07:10:42UTC 2021-07-14T21:10:42-10:00 2021-07-14T20:10:42-11:00  21.31274 -157.88714     105   0.1 Hikianalia
  2021-07-15T06:18:42UTC 2021-07-14T20:18:42-10:00 2021-07-14T19:18:42-11:00  21.31304 -157.88881     247   0.0 Hōkūleʻa
  2021-07-15T06:11:19UTC 2021-07-14T20:11:19-10:00 2021-07-14T19:11:19-11:00  21.31311 -157.88862     218   0.1 Hikianalia
  2021-07-15T05:26:16UTC 2021-07-14T19:26:16-10:00 2021-07-14T18:26:16-11:00  21.31311 -157.88862       0   0.0 Hōkūleʻa
  2021-07-15T05:09:53UTC 2021-07-14T19:09:53-10:00 2021-07-14T18:09:53-11:00  21.31506 -157.88701      40   0.2 Hikianalia
  2021-07-15T04:18:45UTC 2021-07-14T18:18:45-10:00 2021-07-14T17:18:45-11:00  21.31311 -157.88862       0   0.0 Hōkūleʻa
  2021-07-15T04:10:39UTC 2021-07-14T18:10:39-10:00 2021-07-14T17:10:39-11:00  21.31303 -157.88886       0   0.0 Hikianalia
  2021-07-15T03:17:34UTC 2021-07-14T17:17:34-10:00 2021-07-14T16:17:34-11:00  21.31311 -157.88862       0   0.0 Hōkūleʻa
  2021-07-15T03:10:47UTC 2021-07-14T17:10:47-10:00 2021-07-14T16:10:47-11:00  21.31303 -157.88886       0   0.0 Hikianalia
  2021-07-15T02:18:22UTC 2021-07-14T16:18:22-10:00 2021-07-14T15:18:22-11:00  21.31311 -157.88862       0   0.0 Hōkūleʻa
  2021-07-15T02:10:10UTC 2021-07-14T16:10:10-10:00 2021-07-14T15:10:10-11:00  21.31303 -157.88886       0   0.0 Hikianalia
  2021-07-15T01:18:27UTC 2021-07-14T15:18:27-10:00 2021-07-14T14:18:27-11:00  21.31311 -157.88862       0   0.0 Hōkūleʻa
  2021-07-15T01:10:49UTC 2021-07-14T15:10:49-10:00 2021-07-14T14:10:49-11:00  21.31303 -157.88886       0   0.0 Hikianalia
  2021-07-15T00:17:48UTC 2021-07-14T14:17:48-10:00 2021-07-14T13:17:48-11:00  21.31311 -157.88862       0   0.0 Hōkūleʻa
  2021-07-15T00:09:47UTC 2021-07-14T14:09:47-10:00 2021-07-14T13:09:47-11:00  21.31303 -157.88886       0   0.0 Hikianalia
  2021-07-14T23:17:41UTC 2021-07-14T13:17:41-10:00 2021-07-14T12:17:41-11:00  21.31311 -157.88862      50   0.0 Hōkūleʻa
  2021-07-14T23:10:45UTC 2021-07-14T13:10:45-10:00 2021-07-14T12:10:45-11:00  21.31303 -157.88886       0   0.0 Hikianalia
  2021-07-14T22:18:33UTC 2021-07-14T12:18:33-10:00 2021-07-14T11:18:33-11:00  21.31299 -157.88877     230   0.0 Hōkūleʻa
  2021-07-14T22:10:17UTC 2021-07-14T12:10:17-10:00 2021-07-14T11:10:17-11:00  21.31303 -157.88886       0   0.0 Hikianalia
  2021-07-14T21:17:31UTC 2021-07-14T11:17:31-10:00 2021-07-14T10:17:31-11:00  21.31311 -157.88862       0   0.0 Hōkūleʻa
  2021-07-14T21:10:41UTC 2021-07-14T11:10:41-10:00 2021-07-14T10:10:41-11:00  21.31303 -157.88886       0   0.0 Hikianalia
  2021-07-14T20:17:44UTC 2021-07-14T10:17:44-10:00 2021-07-14T09:17:44-11:00  21.31311 -157.88862       0   0.0 Hōkūleʻa
  2021-07-14T20:10:58UTC 2021-07-14T10:10:58-10:00 2021-07-14T09:10:58-11:00  21.31303 -157.88886     263   0.0 Hikianalia
  2021-07-14T19:17:33UTC 2021-07-14T09:17:33-10:00 2021-07-14T08:17:33-11:00  21.31311 -157.88862       0   0.0 Hōkūleʻa
  2021-07-14T19:09:48UTC 2021-07-14T09:09:48-10:00 2021-07-14T08:09:48-11:00  21.31305 -157.88866      83   0.0 Hikianalia
  2021-07-14T18:18:34UTC 2021-07-14T08:18:34-10:00 2021-07-14T07:18:34-11:00  21.31311 -157.88862       0   0.0 Hōkūleʻa
  2021-07-14T18:11:19UTC 2021-07-14T08:11:19-10:00 2021-07-14T07:11:19-11:00  21.31303 -157.88886       0   0.0 Hikianalia
  2021-07-14T17:17:33UTC 2021-07-14T07:17:33-10:00 2021-07-14T06:17:33-11:00  21.31311 -157.88862       0   0.0 Hōkūleʻa
  2021-07-14T17:10:37UTC 2021-07-14T07:10:37-10:00 2021-07-14T06:10:37-11:00  21.31303 -157.88886     251   0.0 Hikianalia
  2021-07-14T16:18:41UTC 2021-07-14T06:18:41-10:00 2021-07-14T05:18:41-11:00  21.31311 -157.88862       0   0.0 Hōkūleʻa
  2021-07-14T16:10:48UTC 2021-07-14T06:10:48-10:00 2021-07-14T05:10:48-11:00  21.31309 -157.88866      71   0.0 Hikianalia
  2021-07-14T15:18:39UTC 2021-07-14T05:18:39-10:00 2021-07-14T04:18:39-11:00  21.31311 -157.88862       0   0.0 Hōkūleʻa
  2021-07-14T15:10:46UTC 2021-07-14T05:10:46-10:00 2021-07-14T04:10:46-11:00  21.31303 -157.88886       0   0.0 Hikianalia
  2021-07-14T14:18:25UTC 2021-07-14T04:18:25-10:00 2021-07-14T03:18:25-11:00  21.31311 -157.88862       0   0.0 Hōkūleʻa
  2021-07-14T14:11:17UTC 2021-07-14T04:11:17-10:00 2021-07-14T03:11:17-11:00  21.31303 -157.88886       0   0.0 Hikianalia
  2021-07-14T13:27:38UTC 2021-07-14T03:27:38-10:00 2021-07-14T02:27:38-11:00  21.31311 -157.88862       0   0.0 Hōkūleʻa
  2021-07-14T13:10:56UTC 2021-07-14T03:10:56-10:00 2021-07-14T02:10:56-11:00  21.31303 -157.88886       0   0.0 Hikianalia
  2021-07-14T12:18:49UTC 2021-07-14T02:18:49-10:00 2021-07-14T01:18:49-11:00  21.31311 -157.88862       0   0.0 Hōkūleʻa
  2021-07-14T12:10:47UTC 2021-07-14T02:10:47-10:00 2021-07-14T01:10:47-11:00  21.31303 -157.88886       0   0.0 Hikianalia
  2021-07-14T11:18:42UTC 2021-07-14T01:18:42-10:00 2021-07-14T00:18:42-11:00  21.31311 -157.88862      62   0.0 Hōkūleʻa
  2021-07-14T11:11:12UTC 2021-07-14T01:11:12-10:00 2021-07-14T00:11:12-11:00  21.31303 -157.88886       0   0.0 Hikianalia
  2021-07-14T10:18:33UTC 2021-07-14T00:18:33-10:00 2021-07-13T23:18:33-11:00  21.31303 -157.88879     242   0.0 Hōkūleʻa
  2021-07-14T10:10:42UTC 2021-07-14T00:10:42-10:00 2021-07-13T23:10:42-11:00  21.31303 -157.88886       0   0.0 Hikianalia
  2021-07-14T09:18:33UTC 2021-07-13T23:18:33-10:00 2021-07-13T22:18:33-11:00  21.31311 -157.88862       0   0.0 Hōkūleʻa
  2021-07-14T09:10:39UTC 2021-07-13T23:10:39-10:00 2021-07-13T22:10:39-11:00  21.31303 -157.88886       0   0.0 Hikianalia
  2021-07-14T08:18:51UTC 2021-07-13T22:18:51-10:00 2021-07-13T21:18:51-11:00  21.31311 -157.88862      56   0.0 Hōkūleʻa
  2021-07-14T08:11:16UTC 2021-07-13T22:11:16-10:00 2021-07-13T21:11:16-11:00  21.31303 -157.88886       0   0.0 Hikianalia
  2021-07-14T07:18:37UTC 2021-07-13T21:18:37-10:00 2021-07-13T20:18:37-11:00  21.31300 -157.88879     180   0.0 Hōkūleʻa
  2021-07-14T07:10:49UTC 2021-07-13T21:10:49-10:00 2021-07-13T20:10:49-11:00  21.31303 -157.88886       0   0.0 Hikianalia
  2021-07-14T06:18:25UTC 2021-07-13T20:18:25-10:00 2021-07-13T19:18:25-11:00  21.31303 -157.88879     242   0.0 Hōkūleʻa
  2021-07-14T06:10:50UTC 2021-07-13T20:10:50-10:00 2021-07-13T19:10:50-11:00  21.31303 -157.88886       0   0.0 Hikianalia
  2021-07-14T05:17:31UTC 2021-07-13T19:17:31-10:00 2021-07-13T18:17:31-11:00  21.31311 -157.88862       0   0.0 Hōkūleʻa
  2021-07-14T05:10:39UTC 2021-07-13T19:10:39-10:00 2021-07-13T18:10:39-11:00  21.31303 -157.88886       0   0.0 Hikianalia
  2021-07-14T04:18:38UTC 2021-07-13T18:18:38-10:00 2021-07-13T17:18:38-11:00  21.31311 -157.88862       0   0.0 Hōkūleʻa
  2021-07-14T04:10:17UTC 2021-07-13T18:10:17-10:00 2021-07-13T17:10:17-11:00  21.31303 -157.88886       0   0.0 Hikianalia
  2021-07-14T03:17:32UTC 2021-07-13T17:17:32-10:00 2021-07-13T16:17:32-11:00  21.31311 -157.88862       0   0.0 Hōkūleʻa
  2021-07-14T03:10:40UTC 2021-07-13T17:10:40-10:00 2021-07-13T16:10:40-11:00  21.31303 -157.88886       0   0.0 Hikianalia
  2021-07-14T02:18:33UTC 2021-07-13T16:18:33-10:00 2021-07-13T15:18:33-11:00  21.31311 -157.88862      65   0.0 Hōkūleʻa
  2021-07-14T02:10:16UTC 2021-07-13T16:10:16-10:00 2021-07-13T15:10:16-11:00  21.31303 -157.88886       0   0.0 Hikianalia
  2021-07-14T01:27:13UTC 2021-07-13T15:27:13-10:00 2021-07-13T14:27:13-11:00  21.31303 -157.88886       0   0.0 Hikianalia
  2021-07-14T01:17:36UTC 2021-07-13T15:17:36-10:00 2021-07-13T14:17:36-11:00  21.31303 -157.88881     245   0.0 Hōkūleʻa
  2021-07-14T00:18:42UTC 2021-07-13T14:18:42-10:00 2021-07-13T13:18:42-11:00  21.31311 -157.88862       0   0.0 Hōkūleʻa
  2021-07-14T00:10:16UTC 2021-07-13T14:10:16-10:00 2021-07-13T13:10:16-11:00  21.31303 -157.88886       0   0.0 Hikianalia
  2021-07-13T23:17:33UTC 2021-07-13T13:17:33-10:00 2021-07-13T12:17:33-11:00  21.31311 -157.88862      65   0.0 Hōkūleʻa
  2021-07-13T23:10:10UTC 2021-07-13T13:10:10-10:00 2021-07-13T12:10:10-11:00  21.31303 -157.88886       0   0.0 Hikianalia
  2021-07-13T22:18:32UTC 2021-07-13T12:18:32-10:00 2021-07-13T11:18:32-11:00  21.31303 -157.88881     245   0.0 Hōkūleʻa
  2021-07-13T22:10:52UTC 2021-07-13T12:10:52-10:00 2021-07-13T11:10:52-11:00  21.31303 -157.88886     247   0.0 Hikianalia
  2021-07-13T21:17:33UTC 2021-07-13T11:17:33-10:00 2021-07-13T10:17:33-11:00  21.31311 -157.88862      65   0.0 Hōkūleʻa
  2021-07-13T21:10:19UTC 2021-07-13T11:10:19-10:00 2021-07-13T10:10:19-11:00  21.31310 -157.88866      67   0.0 Hikianalia
  2021-07-13T20:18:46UTC 2021-07-13T10:18:46-10:00 2021-07-13T09:18:46-11:00  21.31303 -157.88881     245   0.0 Hōkūleʻa
  2021-07-13T20:09:42UTC 2021-07-13T10:09:42-10:00 2021-07-13T09:09:42-11:00  21.31303 -157.88886       0   0.0 Hikianalia
  2021-07-13T19:17:39UTC 2021-07-13T09:17:39-10:00 2021-07-13T08:17:39-11:00  21.31311 -157.88862       0   0.0 Hōkūleʻa
  2021-07-13T19:10:48UTC 2021-07-13T09:10:48-10:00 2021-07-13T08:10:48-11:00  21.31303 -157.88886       0   0.0 Hikianalia
  2021-07-13T18:18:34UTC 2021-07-13T08:18:34-10:00 2021-07-13T07:18:34-11:00  21.31311 -157.88862       0   0.0 Hōkūleʻa
  2021-07-13T18:11:17UTC 2021-07-13T08:11:17-10:00 2021-07-13T07:11:17-11:00  21.31303 -157.88886       0   0.0 Hikianalia
  2021-07-13T17:18:28UTC 2021-07-13T07:18:28-10:00 2021-07-13T06:18:28-11:00  21.31311 -157.88862       0   0.0 Hōkūleʻa
  2021-07-13T17:10:41UTC 2021-07-13T07:10:41-10:00 2021-07-13T06:10:41-11:00  21.31303 -157.88886     267   0.0 Hikianalia
  2021-07-13T16:18:48UTC 2021-07-13T06:18:48-10:00 2021-07-13T05:18:48-11:00  21.31311 -157.88862      56   0.0 Hōkūleʻa
  2021-07-13T16:10:49UTC 2021-07-13T06:10:49-10:00 2021-07-13T05:10:49-11:00  21.31304 -157.88866      87   0.0 Hikianalia
  2021-07-13T15:18:37UTC 2021-07-13T05:18:37-10:00 2021-07-13T04:18:37-11:00  21.31300 -157.88879       0   0.0 Hōkūleʻa
  2021-07-13T15:10:48UTC 2021-07-13T05:10:48-10:00 2021-07-13T04:10:48-11:00  21.31303 -157.88886       0   0.0 Hikianalia
  2021-07-13T14:18:30UTC 2021-07-13T04:18:30-10:00 2021-07-13T03:18:30-11:00  21.31300 -157.88879     236   0.0 Hōkūleʻa
  2021-07-13T14:10:19UTC 2021-07-13T04:10:19-10:00 2021-07-13T03:10:19-11:00  21.31303 -157.88886     270   0.0 Hikianalia
  2021-07-13T13:18:28UTC 2021-07-13T03:18:28-10:00 2021-07-13T02:18:28-11:00  21.31311 -157.88862       0   0.0 Hōkūleʻa
  2021-07-13T13:11:39UTC 2021-07-13T03:11:39-10:00 2021-07-13T02:11:39-11:00  21.31303 -157.88866      90   0.0 Hikianalia
  2021-07-13T12:18:47UTC 2021-07-13T02:18:47-10:00 2021-07-13T01:18:47-11:00  21.31311 -157.88862       0   0.0 Hōkūleʻa
  2021-07-13T12:09:55UTC 2021-07-13T02:09:55-10:00 2021-07-13T01:09:55-11:00  21.31303 -157.88886     242   0.0 Hikianalia
  2021-07-13T11:18:39UTC 2021-07-13T01:18:39-10:00 2021-07-13T00:18:39-11:00  21.31311 -157.88862       0   0.0 Hōkūleʻa
  2021-07-13T11:10:37UTC 2021-07-13T01:10:37-10:00 2021-07-13T00:10:37-11:00  21.31312 -157.88866      62   0.0 Hikianalia
  2021-07-13T10:17:33UTC 2021-07-13T00:17:33-10:00 2021-07-12T23:17:33-11:00  21.31311 -157.88862       0   0.0 Hōkūleʻa
  2021-07-13T10:11:14UTC 2021-07-13T00:11:14-10:00 2021-07-12T23:11:14-11:00  21.31303 -157.88886       0   0.0 Hikianalia
  2021-07-13T09:18:25UTC 2021-07-12T23:18:25-10:00 2021-07-12T22:18:25-11:00  21.31311 -157.88862       0   0.0 Hōkūleʻa
  2021-07-13T09:10:46UTC 2021-07-12T23:10:46-10:00 2021-07-12T22:10:46-11:00  21.31303 -157.88886       0   0.0 Hikianalia
  2021-07-13T08:18:41UTC 2021-07-12T22:18:41-10:00 2021-07-12T21:18:41-11:00  21.31311 -157.88862       0   0.0 Hōkūleʻa
  2021-07-13T08:10:39UTC 2021-07-12T22:10:39-10:00 2021-07-12T21:10:39-11:00  21.31303 -157.88886       0   0.0 Hikianalia
  2021-07-13T07:17:38UTC 2021-07-12T21:17:38-10:00 2021-07-12T20:17:38-11:00  21.31311 -157.88862       0   0.0 Hōkūleʻa
  2021-07-13T07:10:48UTC 2021-07-12T21:10:48-10:00 2021-07-12T20:10:48-11:00  21.31303 -157.88886       0   0.0 Hikianalia
  2021-07-13T06:18:25UTC 2021-07-12T20:18:25-10:00 2021-07-12T19:18:25-11:00  21.31311 -157.88862       0   0.0 Hōkūleʻa
  2021-07-13T06:10:11UTC 2021-07-12T20:10:11-10:00 2021-07-12T19:10:11-11:00  21.31303 -157.88886       0   0.0 Hikianalia
  2021-07-13T05:18:30UTC 2021-07-12T19:18:30-10:00 2021-07-12T18:18:30-11:00  21.31311 -157.88862      65   0.0 Hōkūleʻa
  2021-07-13T05:10:51UTC 2021-07-12T19:10:51-10:00 2021-07-12T18:10:51-11:00  21.31303 -157.88886       0   0.0 Hikianalia
  2021-07-13T04:18:47UTC 2021-07-12T18:18:47-10:00 2021-07-12T17:18:47-11:00  21.31303 -157.88881     245   0.0 Hōkūleʻa
  2021-07-13T04:10:47UTC 2021-07-12T18:10:47-10:00 2021-07-12T17:10:47-11:00  21.31303 -157.88886       0   0.0 Hikianalia
  2021-07-13T03:17:32UTC 2021-07-12T17:17:32-10:00 2021-07-12T16:17:32-11:00  21.31311 -157.88862       0   0.0 Hōkūleʻa
  2021-07-13T03:17:18UTC 2021-07-12T17:17:18-10:00 2021-07-12T16:17:18-11:00  21.31303 -157.88886       0   0.0 Hikianalia
  2021-07-13T02:18:26UTC 2021-07-12T16:18:26-10:00 2021-07-12T15:18:26-11:00  21.31311 -157.88862      62   0.0 Hōkūleʻa
  2021-07-13T02:10:18UTC 2021-07-12T16:10:18-10:00 2021-07-12T15:10:18-11:00  21.31303 -157.88886       0   0.0 Hikianalia
  2021-07-13T01:17:24UTC 2021-07-12T15:17:24-10:00 2021-07-12T14:17:24-11:00  21.31303 -157.88879       0   0.0 Hōkūleʻa
  2021-07-13T01:09:46UTC 2021-07-12T15:09:46-10:00 2021-07-12T14:09:46-11:00  21.31303 -157.88886       0   0.0 Hikianalia
  2021-07-13T00:18:52UTC 2021-07-12T14:18:52-10:00 2021-07-12T13:18:52-11:00  21.31302 -157.88879     239   0.0 Hōkūleʻa
  2021-07-13T00:10:50UTC 2021-07-12T14:10:50-10:00 2021-07-12T13:10:50-11:00  21.31303 -157.88886       0   0.0 Hikianalia
  2021-07-12T23:18:22UTC 2021-07-12T13:18:22-10:00 2021-07-12T12:18:22-11:00  21.31311 -157.88862      59   0.0 Hōkūleʻa
  2021-07-12T23:10:44UTC 2021-07-12T13:10:44-10:00 2021-07-12T12:10:44-11:00  21.31303 -157.88886       0   0.0 Hikianalia
  2021-07-12T22:17:34UTC 2021-07-12T12:17:34-10:00 2021-07-12T11:17:34-11:00  21.31302 -157.88879     239   0.0 Hōkūleʻa
  2021-07-12T22:10:16UTC 2021-07-12T12:10:16-10:00 2021-07-12T11:10:16-11:00  21.31303 -157.88886     308   0.0 Hikianalia
  2021-07-12T21:18:34UTC 2021-07-12T11:18:34-10:00 2021-07-12T10:18:34-11:00  21.31311 -157.88862       0   0.0 Hōkūleʻa
  2021-07-12T21:10:46UTC 2021-07-12T11:10:46-10:00 2021-07-12T10:10:46-11:00  21.31296 -157.88877     128   0.0 Hikianalia
  2021-07-12T20:17:48UTC 2021-07-12T10:17:48-10:00 2021-07-12T09:17:48-11:00  21.31311 -157.88862       0   0.0 Hōkūleʻa
  2021-07-12T20:11:15UTC 2021-07-12T10:11:15-10:00 2021-07-12T09:11:15-11:00  21.31303 -157.88886       0   0.0 Hikianalia
  2021-07-12T19:17:46UTC 2021-07-12T09:17:46-10:00 2021-07-12T08:17:46-11:00  21.31303 -157.88886       0   0.0 Hikianalia
  2021-07-12T19:17:30UTC 2021-07-12T09:17:30-10:00 2021-07-12T08:17:30-11:00  21.31311 -157.88862       0   0.0 Hōkūleʻa
  2021-07-12T18:18:25UTC 2021-07-12T08:18:25-10:00 2021-07-12T07:18:25-11:00  21.31311 -157.88862       0   0.0 Hōkūleʻa
  2021-07-12T18:10:48UTC 2021-07-12T08:10:48-10:00 2021-07-12T07:10:48-11:00  21.31303 -157.88886       0   0.0 Hikianalia
  2021-07-12T17:17:22UTC 2021-07-12T07:17:22-10:00 2021-07-12T06:17:22-11:00  21.31311 -157.88862       0   0.0 Hōkūleʻa
  2021-07-12T17:10:48UTC 2021-07-12T07:10:48-10:00 2021-07-12T06:10:48-11:00  21.31303 -157.88886       0   0.0 Hikianalia
  2021-07-12T16:18:37UTC 2021-07-12T06:18:37-10:00 2021-07-12T05:18:37-11:00  21.31311 -157.88862       0   0.0 Hōkūleʻa
  2021-07-12T16:11:13UTC 2021-07-12T06:11:13-10:00 2021-07-12T05:11:13-11:00  21.31303 -157.88886       0   0.0 Hikianalia
  2021-07-12T15:18:25UTC 2021-07-12T05:18:25-10:00 2021-07-12T04:18:25-11:00  21.31311 -157.88862       0   0.0 Hōkūleʻa
  2021-07-12T15:10:47UTC 2021-07-12T05:10:47-10:00 2021-07-12T04:10:47-11:00  21.31303 -157.88886       0   0.0 Hikianalia
  2021-07-12T14:18:30UTC 2021-07-12T04:18:30-10:00 2021-07-12T03:18:30-11:00  21.31311 -157.88862       0   0.0 Hōkūleʻa
  2021-07-12T14:10:46UTC 2021-07-12T04:10:46-10:00 2021-07-12T03:10:46-11:00  21.31303 -157.88886       0   0.0 Hikianalia
  2021-07-12T13:18:34UTC 2021-07-12T03:18:34-10:00 2021-07-12T02:18:34-11:00  21.31311 -157.88862       0   0.0 Hōkūleʻa
  2021-07-12T13:10:48UTC 2021-07-12T03:10:48-10:00 2021-07-12T02:10:48-11:00  21.31303 -157.88886       0   0.0 Hikianalia
  2021-07-12T12:17:40UTC 2021-07-12T02:17:40-10:00 2021-07-12T01:17:40-11:00  21.31311 -157.88862       0   0.0 Hōkūleʻa
  2021-07-12T12:11:21UTC 2021-07-12T02:11:21-10:00 2021-07-12T01:11:21-11:00  21.31303 -157.88886       0   0.0 Hikianalia
  2021-07-12T11:18:31UTC 2021-07-12T01:18:31-10:00 2021-07-12T00:18:31-11:00  21.31311 -157.88862       0   0.0 Hōkūleʻa
  2021-07-12T11:10:42UTC 2021-07-12T01:10:42-10:00 2021-07-12T00:10:42-11:00  21.31303 -157.88886       0   0.0 Hikianalia
  2021-07-12T10:18:35UTC 2021-07-12T00:18:35-10:00 2021-07-11T23:18:35-11:00  21.31311 -157.88862       0   0.0 Hōkūleʻa
  2021-07-12T10:11:26UTC 2021-07-12T00:11:26-10:00 2021-07-11T23:11:26-11:00  21.31303 -157.88886       0   0.0 Hikianalia
  2021-07-12T09:18:31UTC 2021-07-11T23:18:31-10:00 2021-07-11T22:18:31-11:00  21.31311 -157.88862       0   0.0 Hōkūleʻa
  2021-07-12T09:10:45UTC 2021-07-11T23:10:45-10:00 2021-07-11T22:10:45-11:00  21.31303 -157.88886       0   0.0 Hikianalia
  2021-07-12T08:18:48UTC 2021-07-11T22:18:48-10:00 2021-07-11T21:18:48-11:00  21.31311 -157.88862       0   0.0 Hōkūleʻa
  2021-07-12T08:10:45UTC 2021-07-11T22:10:45-10:00 2021-07-11T21:10:45-11:00  21.31303 -157.88886       0   0.0 Hikianalia
  2021-07-12T07:18:32UTC 2021-07-11T21:18:32-10:00 2021-07-11T20:18:32-11:00  21.31311 -157.88862       0   0.0 Hōkūleʻa
  2021-07-12T07:11:08UTC 2021-07-11T21:11:08-10:00 2021-07-11T20:11:08-11:00  21.31303 -157.88886       0   0.0 Hikianalia
  2021-07-12T06:18:31UTC 2021-07-11T20:18:31-10:00 2021-07-11T19:18:31-11:00  21.31311 -157.88862       0   0.0 Hōkūleʻa
  2021-07-12T06:10:50UTC 2021-07-11T20:10:50-10:00 2021-07-11T19:10:50-11:00  21.31303 -157.88886     298   0.0 Hikianalia
  2021-07-12T05:18:26UTC 2021-07-11T19:18:26-10:00 2021-07-11T18:18:26-11:00  21.31311 -157.88862       0   0.0 Hōkūleʻa
  2021-07-12T05:10:47UTC 2021-07-11T19:10:47-10:00 2021-07-11T18:10:47-11:00  21.31295 -157.88871     118   0.0 Hikianalia
  2021-07-12T04:18:40UTC 2021-07-11T18:18:40-10:00 2021-07-11T17:18:40-11:00  21.31311 -157.88862       0   0.0 Hōkūleʻa
  2021-07-12T04:11:21UTC 2021-07-11T18:11:21-10:00 2021-07-11T17:11:21-11:00  21.31303 -157.88886       0   0.0 Hikianalia
  2021-07-12T03:17:40UTC 2021-07-11T17:17:40-10:00 2021-07-11T16:17:40-11:00  21.31311 -157.88862       0   0.0 Hōkūleʻa
  2021-07-12T03:10:46UTC 2021-07-11T17:10:46-10:00 2021-07-11T16:10:46-11:00  21.31303 -157.88886       0   0.0 Hikianalia
  2021-07-12T02:18:23UTC 2021-07-11T16:18:23-10:00 2021-07-11T15:18:23-11:00  21.31311 -157.88862      56   0.0 Hōkūleʻa
  2021-07-12T02:09:43UTC 2021-07-11T16:09:43-10:00 2021-07-11T15:09:43-11:00  21.31303 -157.88886       0   0.0 Hikianalia
  2021-07-12T01:17:26UTC 2021-07-11T15:17:26-10:00 2021-07-11T14:17:26-11:00  21.31300 -157.88879     180   0.0 Hōkūleʻa
  2021-07-12T01:10:39UTC 2021-07-11T15:10:39-10:00 2021-07-11T14:10:39-11:00  21.31303 -157.88886       0   0.0 Hikianalia
  2021-07-12T00:17:49UTC 2021-07-11T14:17:49-10:00 2021-07-11T13:17:49-11:00  21.31302 -157.88879     298   0.0 Hōkūleʻa
  2021-07-12T00:10:11UTC 2021-07-11T14:10:11-10:00 2021-07-11T13:10:11-11:00  21.31303 -157.88886       0   0.0 Hikianalia
  2021-07-11T23:17:31UTC 2021-07-11T13:17:31-10:00 2021-07-11T12:17:31-11:00  21.31300 -157.88877     232   0.0 Hōkūleʻa
  2021-07-11T23:10:51UTC 2021-07-11T13:10:51-10:00 2021-07-11T12:10:51-11:00  21.31303 -157.88886       0   0.0 Hikianalia
  2021-07-11T22:18:25UTC 2021-07-11T12:18:25-10:00 2021-07-11T11:18:25-11:00  21.31311 -157.88862      62   0.0 Hōkūleʻa
  2021-07-11T22:09:53UTC 2021-07-11T12:09:53-10:00 2021-07-11T11:09:53-11:00  21.31303 -157.88886       0   0.0 Hikianalia
  2021-07-11T21:17:34UTC 2021-07-11T11:17:34-10:00 2021-07-11T10:17:34-11:00  21.31302 -157.88881     242   0.0 Hōkūleʻa
  2021-07-11T21:10:10UTC 2021-07-11T11:10:10-10:00 2021-07-11T10:10:10-11:00  21.31303 -157.88886       0   0.0 Hikianalia
  2021-07-11T20:17:39UTC 2021-07-11T10:17:39-10:00 2021-07-11T09:17:39-11:00  21.31311 -157.88862      65   0.0 Hōkūleʻa
  2021-07-11T20:10:47UTC 2021-07-11T10:10:47-10:00 2021-07-11T09:10:47-11:00  21.31303 -157.88886       0   0.0 Hikianalia
  2021-07-11T19:18:36UTC 2021-07-11T09:18:36-10:00 2021-07-11T08:18:36-11:00  21.31303 -157.88881     245   0.0 Hōkūleʻa
  2021-07-11T19:10:07UTC 2021-07-11T09:10:07-10:00 2021-07-11T08:10:07-11:00  21.31303 -157.88886     260   0.0 Hikianalia
  2021-07-11T18:18:30UTC 2021-07-11T08:18:30-10:00 2021-07-11T07:18:30-11:00  21.31311 -157.88862       0   0.0 Hōkūleʻa
  2021-07-11T18:10:29UTC 2021-07-11T08:10:29-10:00 2021-07-11T07:10:29-11:00  21.31306 -157.88866      80   0.0 Hikianalia
  2021-07-11T17:18:29UTC 2021-07-11T07:18:29-10:00 2021-07-11T06:18:29-11:00  21.31311 -157.88862       0   0.0 Hōkūleʻa
  2021-07-11T17:10:44UTC 2021-07-11T07:10:44-10:00 2021-07-11T06:10:44-11:00  21.31303 -157.88886       0   0.0 Hikianalia
  2021-07-11T16:24:29UTC 2021-07-11T06:24:29-10:00 2021-07-11T05:24:29-11:00  21.31311 -157.88862       0   0.0 Hōkūleʻa
  2021-07-11T16:10:48UTC 2021-07-11T06:10:48-10:00 2021-07-11T05:10:48-11:00  21.31303 -157.88886       0   0.0 Hikianalia
  2021-07-11T15:18:26UTC 2021-07-11T05:18:26-10:00 2021-07-11T04:18:26-11:00  21.31311 -157.88862       0   0.0 Hōkūleʻa
  2021-07-11T15:10:39UTC 2021-07-11T05:10:39-10:00 2021-07-11T04:10:39-11:00  21.31303 -157.88886       0   0.0 Hikianalia
  2021-07-11T14:18:31UTC 2021-07-11T04:18:31-10:00 2021-07-11T03:18:31-11:00  21.31311 -157.88862       0   0.0 Hōkūleʻa
  2021-07-11T14:11:17UTC 2021-07-11T04:11:17-10:00 2021-07-11T03:11:17-11:00  21.31303 -157.88886       0   0.0 Hikianalia
  2021-07-11T13:18:34UTC 2021-07-11T03:18:34-10:00 2021-07-11T02:18:34-11:00  21.31311 -157.88862       0   0.0 Hōkūleʻa
  2021-07-11T13:10:49UTC 2021-07-11T03:10:49-10:00 2021-07-11T02:10:49-11:00  21.31303 -157.88886       0   0.0 Hikianalia
  2021-07-11T12:18:50UTC 2021-07-11T02:18:50-10:00 2021-07-11T01:18:50-11:00  21.31311 -157.88862       0   0.0 Hōkūleʻa
  2021-07-11T12:10:38UTC 2021-07-11T02:10:38-10:00 2021-07-11T01:10:38-11:00  21.31303 -157.88886       0   0.0 Hikianalia
  2021-07-11T11:18:36UTC 2021-07-11T01:18:36-10:00 2021-07-11T00:18:36-11:00  21.31311 -157.88862      59   0.0 Hōkūleʻa
  2021-07-11T11:10:45UTC 2021-07-11T01:10:45-10:00 2021-07-11T00:10:45-11:00  21.31303 -157.88886       0   0.0 Hikianalia
  2021-07-11T10:18:34UTC 2021-07-11T00:18:34-10:00 2021-07-10T23:18:34-11:00  21.31302 -157.88879     239   0.0 Hōkūleʻa
  2021-07-11T10:11:15UTC 2021-07-11T00:11:15-10:00 2021-07-10T23:11:15-11:00  21.31303 -157.88886       0   0.0 Hikianalia
  2021-07-11T09:18:25UTC 2021-07-10T23:18:25-10:00 2021-07-10T22:18:25-11:00  21.31311 -157.88862       0   0.0 Hōkūleʻa
  2021-07-11T09:10:39UTC 2021-07-10T23:10:39-10:00 2021-07-10T22:10:39-11:00  21.31303 -157.88886       0   0.0 Hikianalia
  2021-07-11T08:18:48UTC 2021-07-10T22:18:48-10:00 2021-07-10T21:18:48-11:00  21.31311 -157.88862       0   0.0 Hōkūleʻa
  2021-07-11T08:11:16UTC 2021-07-10T22:11:16-10:00 2021-07-10T21:11:16-11:00  21.31303 -157.88886       0   0.0 Hikianalia
  2021-07-11T07:17:28UTC 2021-07-10T21:17:28-10:00 2021-07-10T20:17:28-11:00  21.31311 -157.88862       0   0.0 Hōkūleʻa
  2021-07-11T07:10:47UTC 2021-07-10T21:10:47-10:00 2021-07-10T20:10:47-11:00  21.31303 -157.88886       0   0.0 Hikianalia
  2021-07-11T06:18:25UTC 2021-07-10T20:18:25-10:00 2021-07-10T19:18:25-11:00  21.31311 -157.88862       0   0.0 Hōkūleʻa
  2021-07-11T06:09:47UTC 2021-07-10T20:09:47-10:00 2021-07-10T19:09:47-11:00  21.31303 -157.88886       0   0.0 Hikianalia
  2021-07-11T05:18:40UTC 2021-07-10T19:18:40-10:00 2021-07-10T18:18:40-11:00  21.31311 -157.88862       0   0.0 Hōkūleʻa
  2021-07-11T05:10:37UTC 2021-07-10T19:10:37-10:00 2021-07-10T18:10:37-11:00  21.31303 -157.88886       0   0.0 Hikianalia
  2021-07-11T04:17:41UTC 2021-07-10T18:17:41-10:00 2021-07-10T17:17:41-11:00  21.31311 -157.88862       0   0.0 Hōkūleʻa
  2021-07-11T04:11:18UTC 2021-07-10T18:11:18-10:00 2021-07-10T17:11:18-11:00  21.31303 -157.88886      47   0.0 Hikianalia
  2021-07-11T03:18:31UTC 2021-07-10T17:18:31-10:00 2021-07-10T16:18:31-11:00  21.31311 -157.88862      55   0.0 Hōkūleʻa
  2021-07-11T03:10:47UTC 2021-07-10T17:10:47-10:00 2021-07-10T16:10:47-11:00  21.31295 -157.88894     263   0.0 Hikianalia
  2021-07-11T02:17:36UTC 2021-07-10T16:17:36-10:00 2021-07-10T15:17:36-11:00  21.31302 -157.88877     105   0.0 Hōkūleʻa
  2021-07-11T02:10:54UTC 2021-07-10T16:10:54-10:00 2021-07-10T15:10:54-11:00  21.31298 -157.88866     103   0.0 Hikianalia
  2021-07-11T01:18:33UTC 2021-07-10T15:18:33-10:00 2021-07-10T14:18:33-11:00  21.31303 -157.88881     245   0.0 Hōkūleʻa
  2021-07-11T01:10:18UTC 2021-07-10T15:10:18-10:00 2021-07-10T14:10:18-11:00  21.31303 -157.88886       0   0.0 Hikianalia
  2021-07-11T00:18:03UTC 2021-07-10T14:18:03-10:00 2021-07-10T13:18:03-11:00  21.31311 -157.88862       0   0.0 Hōkūleʻa
  2021-07-11T00:10:36UTC 2021-07-10T14:10:36-10:00 2021-07-10T13:10:36-11:00  21.31303 -157.88886       0   0.0 Hikianalia
  2021-07-10T23:18:28UTC 2021-07-10T13:18:28-10:00 2021-07-10T12:18:28-11:00  21.31311 -157.88862       0   0.0 Hōkūleʻa
  2021-07-10T23:10:48UTC 2021-07-10T13:10:48-10:00 2021-07-10T12:10:48-11:00  21.31303 -157.88886       0   0.0 Hikianalia
  2021-07-10T22:17:33UTC 2021-07-10T12:17:33-10:00 2021-07-10T11:17:33-11:00  21.31311 -157.88862       0   0.0 Hōkūleʻa
  2021-07-10T22:10:16UTC 2021-07-10T12:10:16-10:00 2021-07-10T11:10:16-11:00  21.31303 -157.88886       0   0.0 Hikianalia
  2021-07-10T21:18:33UTC 2021-07-10T11:18:33-10:00 2021-07-10T10:18:33-11:00  21.31311 -157.88862      56   0.0 Hōkūleʻa
  2021-07-10T21:10:17UTC 2021-07-10T11:10:17-10:00 2021-07-10T10:10:17-11:00  21.31303 -157.88886       0   0.0 Hikianalia
  2021-07-10T20:19:06UTC 2021-07-10T10:19:06-10:00 2021-07-10T09:19:06-11:00  21.31300 -157.88879     223   0.0 Hōkūleʻa
  2021-07-10T20:10:49UTC 2021-07-10T10:10:49-10:00 2021-07-10T09:10:49-11:00  21.31303 -157.88886       0   0.0 Hikianalia
  2021-07-10T19:17:36UTC 2021-07-10T09:17:36-10:00 2021-07-10T08:17:36-11:00  21.31305 -157.88875     238   0.0 Hōkūleʻa
  2021-07-10T19:10:49UTC 2021-07-10T09:10:49-10:00 2021-07-10T08:10:49-11:00  21.31303 -157.88886     119   0.0 Hikianalia
  2021-07-10T18:18:31UTC 2021-07-10T08:18:31-10:00 2021-07-10T07:18:31-11:00  21.31312 -157.88862     180   0.0 Hōkūleʻa
  2021-07-10T18:10:30UTC 2021-07-10T08:10:30-10:00 2021-07-10T07:10:30-11:00  21.31304 -157.88888       0   0.0 Hikianalia
  2021-07-10T17:18:24UTC 2021-07-10T07:18:24-10:00 2021-07-10T06:18:24-11:00  21.31313 -157.88862       0   0.0 Hōkūleʻa
  2021-07-10T17:10:44UTC 2021-07-10T07:10:44-10:00 2021-07-10T06:10:44-11:00  21.31302 -157.88888      32   0.0 Hikianalia
  2021-07-10T16:30:10UTC 2021-07-10T06:30:10-10:00 2021-07-10T05:30:10-11:00  21.31313 -157.88862      63   0.0 Hōkūleʻa
  2021-07-10T16:10:49UTC 2021-07-10T06:10:49-10:00 2021-07-10T05:10:49-11:00  21.31292 -157.88894     216   0.0 Hikianalia
  2021-07-10T15:18:32UTC 2021-07-10T05:18:32-10:00 2021-07-10T04:18:32-11:00  21.31312 -157.88864     180   0.0 Hōkūleʻa
  2021-07-10T15:10:48UTC 2021-07-10T05:10:48-10:00 2021-07-10T04:10:48-11:00  21.31300 -157.88888     241   0.0 Hikianalia
  2021-07-10T14:18:23UTC 2021-07-10T04:18:23-10:00 2021-07-10T03:18:23-11:00  21.31313 -157.88864     270   0.0 Hōkūleʻa
  2021-07-10T14:11:45UTC 2021-07-10T04:11:45-10:00 2021-07-10T03:11:45-11:00  21.31303 -157.88883     180   0.0 Hikianalia
  2021-07-10T13:18:34UTC 2021-07-10T03:18:34-10:00 2021-07-10T02:18:34-11:00  21.31313 -157.88862     180   0.0 Hōkūleʻa
  2021-07-10T13:10:40UTC 2021-07-10T03:10:40-10:00 2021-07-10T02:10:40-11:00  21.31304 -157.88883       0   0.0 Hikianalia
  2021-07-10T12:19:16UTC 2021-07-10T02:19:16-10:00 2021-07-10T01:19:16-11:00  21.31314 -157.88862     317   0.0 Hōkūleʻa
  2021-07-10T12:11:20UTC 2021-07-10T02:11:20-10:00 2021-07-10T01:11:20-11:00  21.31302 -157.88883     118   0.0 Hikianalia
  2021-07-10T11:18:39UTC 2021-07-10T01:18:39-10:00 2021-07-10T00:18:39-11:00  21.31310 -157.88858     137   0.0 Hōkūleʻa
  2021-07-10T11:10:54UTC 2021-07-10T01:10:54-10:00 2021-07-10T00:10:54-11:00  21.31303 -157.88886       0   0.0 Hikianalia
  2021-07-10T10:17:24UTC 2021-07-10T00:17:24-10:00 2021-07-09T23:17:24-11:00  21.31314 -157.88862       0   0.0 Hōkūleʻa
  2021-07-10T10:09:46UTC 2021-07-10T00:09:46-10:00 2021-07-09T23:09:46-11:00  21.31303 -157.88886       0   0.0 Hikianalia
  2021-07-10T09:18:25UTC 2021-07-09T23:18:25-10:00 2021-07-09T22:18:25-11:00  21.31313 -157.88862       0   0.0 Hōkūleʻa
  2021-07-10T09:10:39UTC 2021-07-09T23:10:39-10:00 2021-07-09T22:10:39-11:00  21.31303 -157.88886     317   0.0 Hikianalia
  2021-07-10T08:18:48UTC 2021-07-09T22:18:48-10:00 2021-07-09T21:18:48-11:00  21.31312 -157.88862     180   0.0 Hōkūleʻa
  2021-07-10T08:11:17UTC 2021-07-09T22:11:17-10:00 2021-07-09T21:11:17-11:00  21.31300 -157.88883     137   0.0 Hikianalia
  2021-07-10T07:18:37UTC 2021-07-09T21:18:37-10:00 2021-07-09T20:18:37-11:00  21.31313 -157.88862       0   0.0 Hōkūleʻa
  2021-07-10T07:10:51UTC 2021-07-09T21:10:51-10:00 2021-07-09T20:10:51-11:00  21.31303 -157.88886       0   0.0 Hikianalia
  2021-07-10T06:18:36UTC 2021-07-09T20:18:36-10:00 2021-07-09T19:18:36-11:00  21.31312 -157.88862       0   0.0 Hōkūleʻa
  2021-07-10T06:10:48UTC 2021-07-09T20:10:48-10:00 2021-07-09T19:10:48-11:00  21.31303 -157.88886     174   0.0 Hikianalia
  2021-07-10T05:18:20UTC 2021-07-09T19:18:20-10:00 2021-07-09T18:18:20-11:00  21.31311 -157.88862     155   0.0 Hōkūleʻa
  2021-07-10T05:10:41UTC 2021-07-09T19:10:41-10:00 2021-07-09T18:10:41-11:00  21.31321 -157.88888     354   0.0 Hikianalia
  2021-07-10T04:21:12UTC 2021-07-09T18:21:12-10:00 2021-07-09T17:21:12-11:00  21.31303 -157.88886       0   0.0 Hikianalia
  2021-07-10T04:18:48UTC 2021-07-09T18:18:48-10:00 2021-07-09T17:18:48-11:00  21.31315 -157.88864     335   0.0 Hōkūleʻa
  2021-07-10T03:17:27UTC 2021-07-09T17:17:27-10:00 2021-07-09T16:17:27-11:00  21.31311 -157.88862       0   0.0 Hōkūleʻa
  2021-07-10T03:10:45UTC 2021-07-09T17:10:45-10:00 2021-07-09T16:10:45-11:00  21.31303 -157.88886     301   0.0 Hikianalia
  2021-07-10T02:18:19UTC 2021-07-09T16:18:19-10:00 2021-07-09T15:18:19-11:00  21.31311 -157.88862     180   0.0 Hōkūleʻa
  2021-07-10T02:09:49UTC 2021-07-09T16:09:49-10:00 2021-07-09T15:09:49-11:00  21.31294 -157.88871     121   0.0 Hikianalia
  2021-07-10T01:17:53UTC 2021-07-09T15:17:53-10:00 2021-07-09T14:17:53-11:00  21.31314 -157.88862       0   0.0 Hōkūleʻa
  2021-07-10T01:10:40UTC 2021-07-09T15:10:40-10:00 2021-07-09T14:10:40-11:00  21.31303 -157.88886     317   0.0 Hikianalia
  2021-07-10T00:17:33UTC 2021-07-09T14:17:33-10:00 2021-07-09T13:17:33-11:00  21.31311 -157.88862       0   0.0 Hōkūleʻa
  2021-07-10T00:10:13UTC 2021-07-09T14:10:13-10:00 2021-07-09T13:10:13-11:00  21.31300 -157.88883     180   0.0 Hikianalia
  2021-07-09T23:18:19UTC 2021-07-09T13:18:19-10:00 2021-07-09T12:18:19-11:00  21.31311 -157.88862     180   0.0 Hōkūleʻa
  2021-07-09T23:10:10UTC 2021-07-09T13:10:10-10:00 2021-07-09T12:10:10-11:00  21.31302 -157.88883      33   0.0 Hikianalia
  2021-07-09T22:17:50UTC 2021-07-09T12:17:50-10:00 2021-07-09T11:17:50-11:00  21.31315 -157.88862       0   0.0 Hōkūleʻa
  2021-07-09T22:09:42UTC 2021-07-09T12:09:42-10:00 2021-07-09T11:09:42-11:00  21.31298 -157.88886      43   0.0 Hikianalia
  2021-07-09T21:18:33UTC 2021-07-09T11:18:33-10:00 2021-07-09T10:18:33-11:00  21.31311 -157.88862     131   0.0 Hōkūleʻa
  2021-07-09T21:10:48UTC 2021-07-09T11:10:48-10:00 2021-07-09T10:10:48-11:00  21.31296 -157.88888     224   0.0 Hikianalia
  2021-07-09T20:17:30UTC 2021-07-09T10:17:30-10:00 2021-07-09T09:17:30-11:00  21.31320 -157.88873     317   0.0 Hōkūleʻa
  2021-07-09T20:10:41UTC 2021-07-09T10:10:41-10:00 2021-07-09T09:10:41-11:00  21.31300 -157.88883     180   0.0 Hikianalia
  2021-07-09T19:18:19UTC 2021-07-09T09:18:19-10:00 2021-07-09T08:18:19-11:00  21.31311 -157.88864     241   0.0 Hōkūleʻa
  2021-07-09T19:10:08UTC 2021-07-09T09:10:08-10:00 2021-07-09T08:10:08-11:00  21.31304 -157.88883      26   0.0 Hikianalia
  2021-07-09T18:17:47UTC 2021-07-09T08:17:47-10:00 2021-07-09T07:17:47-11:00  21.31312 -157.88862       0   0.0 Hōkūleʻa
  2021-07-09T18:10:39UTC 2021-07-09T08:10:39-10:00 2021-07-09T07:10:39-11:00  21.31299 -157.88886     201   0.0 Hikianalia
  2021-07-09T17:18:22UTC 2021-07-09T07:18:22-10:00 2021-07-09T06:18:22-11:00  21.31311 -157.88862       0   0.0 Hōkūleʻa
  2021-07-09T17:10:01UTC 2021-07-09T07:10:01-10:00 2021-07-09T06:10:01-11:00  21.31305 -157.88883      43   0.0 Hikianalia
  2021-07-09T16:18:28UTC 2021-07-09T06:18:28-10:00 2021-07-09T05:18:28-11:00  21.31311 -157.88862     180   0.0 Hōkūleʻa
  2021-07-09T16:11:08UTC 2021-07-09T06:11:08-10:00 2021-07-09T05:11:08-11:00  21.31300 -157.88888     279   0.0 Hikianalia
  2021-07-09T15:18:51UTC 2021-07-09T05:18:51-10:00 2021-07-09T04:18:51-11:00  21.31312 -157.88862     132   0.1 Hōkūleʻa
  2021-07-09T15:10:47UTC 2021-07-09T05:10:47-10:00 2021-07-09T04:10:47-11:00  21.31299 -157.88881      42   0.0 Hikianalia
  2021-07-09T14:18:26UTC 2021-07-09T04:18:26-10:00 2021-07-09T03:18:26-11:00  21.31461 -157.89040     315   0.1 Hōkūleʻa
  2021-07-09T14:10:36UTC 2021-07-09T04:10:36-10:00 2021-07-09T03:10:36-11:00  21.31297 -157.88883     180   0.0 Hikianalia
  2021-07-09T13:18:27UTC 2021-07-09T03:18:27-10:00 2021-07-09T02:18:27-11:00  21.31300 -157.88868     205   0.0 Hōkūleʻa
  2021-07-09T13:09:40UTC 2021-07-09T03:09:40-10:00 2021-07-09T02:09:40-11:00  21.31299 -157.88883     116   0.0 Hikianalia
  2021-07-09T12:18:48UTC 2021-07-09T02:18:48-10:00 2021-07-09T01:18:48-11:00  21.31313 -157.88862     325   0.0 Hōkūleʻa
  2021-07-09T12:11:10UTC 2021-07-09T02:11:10-10:00 2021-07-09T01:11:10-11:00  21.31300 -157.88886     129   0.0 Hikianalia
  2021-07-09T11:18:21UTC 2021-07-09T01:18:21-10:00 2021-07-09T00:18:21-11:00  21.31305 -157.88856     142   0.0 Hōkūleʻa
  2021-07-09T11:11:42UTC 2021-07-09T01:11:42-10:00 2021-07-09T00:11:42-11:00  21.31310 -157.88898     307   0.0 Hikianalia
  2021-07-09T10:18:26UTC 2021-07-09T00:18:26-10:00 2021-07-08T23:18:26-11:00  21.31312 -157.88862       0   0.0 Hōkūleʻa
  2021-07-09T10:10:49UTC 2021-07-09T00:10:49-10:00 2021-07-08T23:10:49-11:00  21.31303 -157.88888     232   0.0 Hikianalia
  2021-07-09T09:18:25UTC 2021-07-08T23:18:25-10:00 2021-07-08T22:18:25-11:00  21.31312 -157.88862     270   0.0 Hōkūleʻa
  2021-07-09T09:10:16UTC 2021-07-08T23:10:16-10:00 2021-07-08T22:10:16-11:00  21.31306 -157.88883      33   0.0 Hikianalia
  2021-07-09T08:17:45UTC 2021-07-08T22:17:45-10:00 2021-07-08T21:17:45-11:00  21.31312 -157.88860     136   0.0 Hōkūleʻa
  2021-07-09T08:10:38UTC 2021-07-08T22:10:38-10:00 2021-07-08T21:10:38-11:00  21.31303 -157.88886       0   0.0 Hikianalia
  2021-07-09T07:27:25UTC 2021-07-08T21:27:25-10:00 2021-07-08T20:27:25-11:00  21.31319 -157.88866     208   0.0 Hōkūleʻa
  2021-07-09T07:09:41UTC 2021-07-08T21:09:41-10:00 2021-07-08T20:09:41-11:00  21.31303 -157.88886     298   0.0 Hikianalia
  2021-07-09T06:18:26UTC 2021-07-08T20:18:26-10:00 2021-07-08T19:18:26-11:00  21.31326 -157.88862      40   0.0 Hōkūleʻa
  2021-07-09T06:11:10UTC 2021-07-08T20:11:10-10:00 2021-07-08T19:11:10-11:00  21.31302 -157.88883     118   0.0 Hikianalia
  2021-07-09T05:18:28UTC 2021-07-08T19:18:28-10:00 2021-07-08T18:18:28-11:00  21.31317 -157.88871     285   0.0 Hōkūleʻa
  2021-07-09T05:10:45UTC 2021-07-08T19:10:45-10:00 2021-07-08T18:10:45-11:00  21.31303 -157.88886     319   0.0 Hikianalia
  2021-07-09T04:18:40UTC 2021-07-08T18:18:40-10:00 2021-07-08T17:18:40-11:00  21.31314 -157.88862      32   0.0 Hōkūleʻa
  2021-07-09T04:10:48UTC 2021-07-08T18:10:48-10:00 2021-07-08T17:10:48-11:00  21.31289 -157.88873     131   0.0 Hikianalia
  2021-07-09T03:17:41UTC 2021-07-08T17:17:41-10:00 2021-07-08T16:17:41-11:00  21.31311 -157.88864     229   0.0 Hōkūleʻa
  2021-07-09T03:10:46UTC 2021-07-08T17:10:46-10:00 2021-07-08T16:10:46-11:00  21.31297 -157.88883     180   0.0 Hikianalia
  2021-07-09T02:18:23UTC 2021-07-08T16:18:23-10:00 2021-07-08T15:18:23-11:00  21.31317 -157.88858      75   0.0 Hōkūleʻa
  2021-07-09T02:10:19UTC 2021-07-08T16:10:19-10:00 2021-07-08T15:10:19-11:00  21.31300 -157.88883     143   0.0 Hikianalia
  2021-07-09T01:17:27UTC 2021-07-08T15:17:27-10:00 2021-07-08T14:17:27-11:00  21.31314 -157.88866     289   0.0 Hōkūleʻa
  2021-07-09T01:09:51UTC 2021-07-08T15:09:51-10:00 2021-07-08T14:09:51-11:00  21.31306 -157.88888       0   0.0 Hikianalia
  2021-07-09T00:17:50UTC 2021-07-08T14:17:50-10:00 2021-07-08T13:17:50-11:00  21.31312 -157.88860     148   0.0 Hōkūleʻa
  2021-07-09T00:10:47UTC 2021-07-08T14:10:47-10:00 2021-07-08T13:10:47-11:00  21.31306 -157.88888     328   0.0 Hikianalia
  2021-07-08T23:17:20UTC 2021-07-08T13:17:20-10:00 2021-07-08T12:17:20-11:00  21.31319 -157.88864       0   0.0 Hōkūleʻa
  2021-07-08T23:09:45UTC 2021-07-08T13:09:45-10:00 2021-07-08T12:09:45-11:00  21.31299 -157.88883     180   0.0 Hikianalia
  2021-07-08T22:18:26UTC 2021-07-08T12:18:26-10:00 2021-07-08T11:18:26-11:00  21.31311 -157.88864     241   0.0 Hōkūleʻa
  2021-07-08T22:10:19UTC 2021-07-08T12:10:19-10:00 2021-07-08T11:10:19-11:00  21.31302 -157.88883     335   0.0 Hikianalia
  2021-07-08T21:24:46UTC 2021-07-08T11:24:46-10:00 2021-07-08T10:24:46-11:00  21.31312 -157.88862     215   0.0 Hōkūleʻa
  2021-07-08T21:11:06UTC 2021-07-08T11:11:06-10:00 2021-07-08T10:11:06-11:00  21.31297 -157.88881     132   0.0 Hikianalia
  2021-07-08T20:17:31UTC 2021-07-08T10:17:31-10:00 2021-07-08T09:17:31-11:00  21.31321 -157.88856      62   0.0 Hōkūleʻa
  2021-07-08T20:09:48UTC 2021-07-08T10:09:48-10:00 2021-07-08T09:09:48-11:00  21.31303 -157.88888     308   0.0 Hikianalia
  2021-07-08T19:18:28UTC 2021-07-08T09:18:28-10:00 2021-07-08T08:18:28-11:00  21.31315 -157.88866     308   0.0 Hōkūleʻa
  2021-07-08T19:11:20UTC 2021-07-08T09:11:20-10:00 2021-07-08T08:11:20-11:00  21.31299 -157.88883      90   0.0 Hikianalia
  2021-07-08T18:18:47UTC 2021-07-08T08:18:47-10:00 2021-07-08T07:18:47-11:00  21.31312 -157.88862       0   0.0 Hōkūleʻa
  2021-07-08T18:09:47UTC 2021-07-08T08:09:47-10:00 2021-07-08T07:09:47-11:00  21.31299 -157.88886     118   0.0 Hikianalia
  2021-07-08T17:17:29UTC 2021-07-08T07:17:29-10:00 2021-07-08T06:17:29-11:00  21.31311 -157.88862     327   0.0 Hōkūleʻa
  2021-07-08T17:10:36UTC 2021-07-08T07:10:36-10:00 2021-07-08T06:10:36-11:00  21.31302 -157.88890     262   0.0 Hikianalia
  2021-07-08T16:18:18UTC 2021-07-08T06:18:18-10:00 2021-07-08T05:18:18-11:00  21.31308 -157.88860     162   0.0 Hōkūleʻa
  2021-07-08T16:11:16UTC 2021-07-08T06:11:16-10:00 2021-07-08T05:11:16-11:00  21.31303 -157.88881      90   0.0 Hikianalia
  2021-07-08T15:18:42UTC 2021-07-08T05:18:42-10:00 2021-07-08T04:18:42-11:00  21.31314 -157.88862      61   0.0 Hōkūleʻa
  2021-07-08T15:10:10UTC 2021-07-08T05:10:10-10:00 2021-07-08T04:10:10-11:00  21.31303 -157.88886       0   0.0 Hikianalia
  2021-07-08T14:18:29UTC 2021-07-08T04:18:29-10:00 2021-07-08T03:18:29-11:00  21.31313 -157.88864     270   0.0 Hōkūleʻa
  2021-07-08T14:10:37UTC 2021-07-08T04:10:37-10:00 2021-07-08T03:10:37-11:00  21.31302 -157.88886     242   0.0 Hikianalia
  2021-07-08T13:18:29UTC 2021-07-08T03:18:29-10:00 2021-07-08T02:18:29-11:00  21.31313 -157.88862       0   0.0 Hōkūleʻa
  2021-07-08T13:10:48UTC 2021-07-08T03:10:48-10:00 2021-07-08T02:10:48-11:00  21.31303 -157.88883       0   0.0 Hikianalia
  2021-07-08T12:18:50UTC 2021-07-08T02:18:50-10:00 2021-07-08T01:18:50-11:00  21.31312 -157.88862      90   0.0 Hōkūleʻa
  2021-07-08T12:11:10UTC 2021-07-08T02:11:10-10:00 2021-07-08T01:11:10-11:00  21.31300 -157.88883     180   0.0 Hikianalia
  2021-07-08T11:18:28UTC 2021-07-08T01:18:28-10:00 2021-07-08T00:18:28-11:00  21.31312 -157.88866     270   0.0 Hōkūleʻa
  2021-07-08T11:11:19UTC 2021-07-08T01:11:19-10:00 2021-07-08T00:11:19-11:00  21.31302 -157.88883      80   0.0 Hikianalia
  2021-07-08T10:18:22UTC 2021-07-08T00:18:22-10:00 2021-07-07T23:18:22-11:00  21.31312 -157.88860     116   0.0 Hōkūleʻa
  2021-07-08T10:10:48UTC 2021-07-08T00:10:48-10:00 2021-07-07T23:10:48-11:00  21.31300 -157.88890     192   0.0 Hikianalia
  2021-07-08T09:18:51UTC 2021-07-07T23:18:51-10:00 2021-07-07T22:18:51-11:00  21.31313 -157.88862     296   0.0 Hōkūleʻa
  2021-07-08T09:10:39UTC 2021-07-07T23:10:39-10:00 2021-07-07T22:10:39-11:00  21.31310 -157.88888     337   0.0 Hikianalia
  2021-07-08T08:28:16UTC 2021-07-07T22:28:16-10:00 2021-07-07T21:28:16-11:00  21.31312 -157.88860     252   0.1 Hōkūleʻa
  2021-07-08T08:11:09UTC 2021-07-07T22:11:09-10:00 2021-07-07T21:11:09-11:00  21.31300 -157.88883     260   0.0 Hikianalia
  2021-07-08T07:18:28UTC 2021-07-07T21:18:28-10:00 2021-07-07T20:18:28-11:00  21.31378 -157.88645      72   0.1 Hōkūleʻa
  2021-07-08T07:10:47UTC 2021-07-07T21:10:47-10:00 2021-07-07T20:10:47-11:00  21.31302 -157.88877     113   0.0 Hikianalia
  2021-07-08T06:18:43UTC 2021-07-07T20:18:43-10:00 2021-07-07T19:18:43-11:00  21.31311 -157.88862     224   0.1 Hōkūleʻa
  2021-07-08T06:10:48UTC 2021-07-07T20:10:48-10:00 2021-07-07T19:10:48-11:00  21.31306 -157.88888     308   0.0 Hikianalia
  2021-07-08T05:18:23UTC 2021-07-07T19:18:23-10:00 2021-07-07T18:18:23-11:00  21.31457 -157.88714      44   0.1 Hōkūleʻa
  2021-07-08T05:10:18UTC 2021-07-07T19:10:18-10:00 2021-07-07T18:10:18-11:00  21.31303 -157.88883      90   0.0 Hikianalia
  2021-07-08T04:17:28UTC 2021-07-07T18:17:28-10:00 2021-07-07T17:17:28-11:00  21.31311 -157.88862     180   0.0 Hōkūleʻa
  2021-07-08T04:10:42UTC 2021-07-07T18:10:42-10:00 2021-07-07T17:10:42-11:00  21.31303 -157.88886       0   0.0 Hikianalia
  2021-07-08T03:18:18UTC 2021-07-07T17:18:18-10:00 2021-07-07T16:18:18-11:00  21.31313 -157.88862       0   0.0 Hōkūleʻa
  2021-07-08T03:10:47UTC 2021-07-07T17:10:47-10:00 2021-07-07T16:10:47-11:00  21.31303 -157.88886     270   0.0 Hikianalia
  2021-07-08T02:18:49UTC 2021-07-07T16:18:49-10:00 2021-07-07T15:18:49-11:00  21.31313 -157.88862       0   0.0 Hōkūleʻa
  2021-07-08T02:10:17UTC 2021-07-07T16:10:17-10:00 2021-07-07T15:10:17-11:00  21.31303 -157.88883      90   0.0 Hikianalia
  2021-07-08T01:17:26UTC 2021-07-07T15:17:26-10:00 2021-07-07T14:17:26-11:00  21.31311 -157.88862       0   0.0 Hōkūleʻa
  2021-07-08T01:10:52UTC 2021-07-07T15:10:52-10:00 2021-07-07T14:10:52-11:00  21.31303 -157.88886       0   0.0 Hikianalia
  2021-07-08T00:18:36UTC 2021-07-07T14:18:36-10:00 2021-07-07T13:18:36-11:00  21.31311 -157.88862       0   0.0 Hōkūleʻa
  2021-07-08T00:10:50UTC 2021-07-07T14:10:50-10:00 2021-07-07T13:10:50-11:00  21.31303 -157.88886       0   0.0 Hikianalia
  2021-07-07T23:17:28UTC 2021-07-07T13:17:28-10:00 2021-07-07T12:17:28-11:00  21.31311 -157.88862     180   0.0 Hōkūleʻa
  2021-07-07T23:09:44UTC 2021-07-07T13:09:44-10:00 2021-07-07T12:09:44-11:00  21.31303 -157.88886     298   0.0 Hikianalia
  2021-07-07T22:17:46UTC 2021-07-07T12:17:46-10:00 2021-07-07T11:17:46-11:00  21.31314 -157.88862       0   0.0 Hōkūleʻa
  2021-07-07T22:10:21UTC 2021-07-07T12:10:21-10:00 2021-07-07T11:10:21-11:00  21.31302 -157.88883     118   0.0 Hikianalia
  2021-07-07T21:18:17UTC 2021-07-07T11:18:17-10:00 2021-07-07T10:18:17-11:00  21.31311 -157.88862     148   0.0 Hōkūleʻa
  2021-07-07T21:10:59UTC 2021-07-07T11:10:59-10:00 2021-07-07T10:10:59-11:00  21.31303 -157.88886      90   0.0 Hikianalia
  2021-07-07T20:17:29UTC 2021-07-07T10:17:29-10:00 2021-07-07T09:17:29-11:00  21.31318 -157.88866     328   0.0 Hōkūleʻa
  2021-07-07T20:09:43UTC 2021-07-07T10:09:43-10:00 2021-07-07T09:09:43-11:00  21.31303 -157.88890     270   0.0 Hikianalia
  2021-07-07T19:18:26UTC 2021-07-07T09:18:26-10:00 2021-07-07T08:18:26-11:00  21.31311 -157.88862     180   0.0 Hōkūleʻa
  2021-07-07T19:10:48UTC 2021-07-07T09:10:48-10:00 2021-07-07T08:10:48-11:00  21.31303 -157.88883       0   0.0 Hikianalia
  2021-07-07T18:17:48UTC 2021-07-07T08:17:48-10:00 2021-07-07T07:17:48-11:00  21.31312 -157.88862      85   0.0 Hōkūleʻa
  2021-07-07T18:10:19UTC 2021-07-07T08:10:19-10:00 2021-07-07T07:10:19-11:00  21.31300 -157.88883     180   0.0 Hikianalia
  2021-07-07T17:18:21UTC 2021-07-07T07:18:21-10:00 2021-07-07T06:18:21-11:00  21.31311 -157.88875     270   0.0 Hōkūleʻa
  2021-07-07T17:10:41UTC 2021-07-07T07:10:41-10:00 2021-07-07T06:10:41-11:00  21.31304 -157.88883      61   0.0 Hikianalia
  2021-07-07T16:18:26UTC 2021-07-07T06:18:26-10:00 2021-07-07T05:18:26-11:00  21.31311 -157.88862     242   0.0 Hōkūleʻa
  2021-07-07T16:10:40UTC 2021-07-07T06:10:40-10:00 2021-07-07T05:10:40-11:00  21.31302 -157.88888       0   0.0 Hikianalia
  2021-07-07T15:18:28UTC 2021-07-07T05:18:28-10:00 2021-07-07T04:18:28-11:00  21.31314 -157.88856      80   0.0 Hōkūleʻa
  2021-07-07T15:10:46UTC 2021-07-07T05:10:46-10:00 2021-07-07T04:10:46-11:00  21.31299 -157.88888     243   0.0 Hikianalia
  2021-07-07T14:18:40UTC 2021-07-07T04:18:40-10:00 2021-07-07T03:18:40-11:00  21.31313 -157.88862       0   0.0 Hōkūleʻa
  2021-07-07T14:11:29UTC 2021-07-07T04:11:29-10:00 2021-07-07T03:11:29-11:00  21.31300 -157.88886     160   0.0 Hikianalia
  2021-07-07T13:18:20UTC 2021-07-07T03:18:20-10:00 2021-07-07T02:18:20-11:00  21.31311 -157.88862       0   0.0 Hōkūleʻa
  2021-07-07T13:10:39UTC 2021-07-07T03:10:39-10:00 2021-07-07T02:10:39-11:00  21.31306 -157.88888       0   0.0 Hikianalia
  2021-07-07T12:18:27UTC 2021-07-07T02:18:27-10:00 2021-07-07T01:18:27-11:00  21.31311 -157.88862     180   0.0 Hōkūleʻa
  2021-07-07T12:09:38UTC 2021-07-07T02:09:38-10:00 2021-07-07T01:09:38-11:00  21.31306 -157.88888     317   0.0 Hikianalia
  2021-07-07T11:18:46UTC 2021-07-07T01:18:46-10:00 2021-07-07T00:18:46-11:00  21.31312 -157.88862       0   0.0 Hōkūleʻa
  2021-07-07T11:10:37UTC 2021-07-07T01:10:37-10:00 2021-07-07T00:10:37-11:00  21.31304 -157.88886     299   0.0 Hikianalia
  2021-07-07T10:17:28UTC 2021-07-07T00:17:28-10:00 2021-07-06T23:17:28-11:00  21.31311 -157.88862       0   0.0 Hōkūleʻa
  2021-07-07T10:11:14UTC 2021-07-07T00:11:14-10:00 2021-07-06T23:11:14-11:00  21.31302 -157.88881     105   0.0 Hikianalia
  2021-07-07T09:18:17UTC 2021-07-06T23:18:17-10:00 2021-07-06T22:18:17-11:00  21.31311 -157.88862       0   0.0 Hōkūleʻa
  2021-07-07T09:10:45UTC 2021-07-06T23:10:45-10:00 2021-07-06T22:10:45-11:00  21.31303 -157.88886     148   0.0 Hikianalia
  2021-07-07T08:18:40UTC 2021-07-06T22:18:40-10:00 2021-07-06T21:18:40-11:00  21.31311 -157.88862       0   0.0 Hōkūleʻa
  2021-07-07T08:10:49UTC 2021-07-06T22:10:49-10:00 2021-07-06T21:10:49-11:00  21.31306 -157.88888     312   0.0 Hikianalia
  2021-07-07T07:18:27UTC 2021-07-06T21:18:27-10:00 2021-07-06T20:18:27-11:00  21.31311 -157.88862       0   0.0 Hōkūleʻa
  2021-07-07T07:10:49UTC 2021-07-06T21:10:49-10:00 2021-07-06T20:10:49-11:00  21.31300 -157.88881     119   0.0 Hikianalia
  2021-07-07T06:17:19UTC 2021-07-06T20:17:19-10:00 2021-07-06T19:17:19-11:00  21.31311 -157.88862       0   0.0 Hōkūleʻa
  2021-07-07T06:11:19UTC 2021-07-06T20:11:19-10:00 2021-07-06T19:11:19-11:00  21.31302 -157.88883      30   0.0 Hikianalia
  2021-07-07T05:18:21UTC 2021-07-06T19:18:21-10:00 2021-07-06T18:18:21-11:00  21.31311 -157.88862     180   0.0 Hōkūleʻa
  2021-07-07T05:10:51UTC 2021-07-06T19:10:51-10:00 2021-07-06T18:10:51-11:00  21.31291 -157.88890     210   0.0 Hikianalia
  2021-07-07T04:18:43UTC 2021-07-06T18:18:43-10:00 2021-07-06T17:18:43-11:00  21.31314 -157.88862       5   0.0 Hōkūleʻa
  2021-07-07T04:09:48UTC 2021-07-06T18:09:48-10:00 2021-07-06T17:09:48-11:00  21.31302 -157.88883      90   0.0 Hikianalia
  2021-07-07T03:17:25UTC 2021-07-06T17:17:25-10:00 2021-07-06T16:17:25-11:00  21.31293 -157.88864     223   0.0 Hōkūleʻa
  2021-07-07T03:11:03UTC 2021-07-06T17:11:03-10:00 2021-07-06T16:11:03-11:00  21.31302 -157.88886     270   0.0 Hikianalia
  2021-07-07T02:18:20UTC 2021-07-06T16:18:20-10:00 2021-07-06T15:18:20-11:00  21.31308 -157.88849     118   0.0 Hōkūleʻa
  2021-07-07T02:16:47UTC 2021-07-06T16:16:47-10:00 2021-07-06T15:16:47-11:00  21.31302 -157.88883     118   0.0 Hikianalia
  2021-07-07T01:18:50UTC 2021-07-06T15:18:50-10:00 2021-07-06T14:18:50-11:00  21.31313 -157.88860     309   0.0 Hōkūleʻa
  2021-07-07T01:09:39UTC 2021-07-06T15:09:39-10:00 2021-07-06T14:09:39-11:00  21.31303 -157.88886       0   0.0 Hikianalia
  2021-07-07T00:17:27UTC 2021-07-06T14:17:27-10:00 2021-07-06T13:17:27-11:00  21.31310 -157.88856     100   0.0 Hōkūleʻa
  2021-07-07T00:10:46UTC 2021-07-06T14:10:46-10:00 2021-07-06T13:10:46-11:00  21.31303 -157.88886     257   0.0 Hikianalia
  2021-07-06T23:17:19UTC 2021-07-06T13:17:19-10:00 2021-07-06T12:17:19-11:00  21.31311 -157.88862     180   0.0 Hōkūleʻa
  2021-07-06T23:09:48UTC 2021-07-06T13:09:48-10:00 2021-07-06T12:09:48-11:00  21.31307 -157.88866      75   0.0 Hikianalia
  2021-07-06T22:17:50UTC 2021-07-06T12:17:50-10:00 2021-07-06T11:17:50-11:00  21.31314 -157.88862       0   0.0 Hōkūleʻa
  2021-07-06T22:10:14UTC 2021-07-06T12:10:14-10:00 2021-07-06T11:10:14-11:00  21.31303 -157.88883      90   0.0 Hikianalia
  2021-07-06T21:18:20UTC 2021-07-06T11:18:20-10:00 2021-07-06T10:18:20-11:00  21.31311 -157.88862     140   0.0 Hōkūleʻa
  2021-07-06T21:16:57UTC 2021-07-06T11:16:57-10:00 2021-07-06T10:16:57-11:00  21.31303 -157.88886     137   0.0 Hikianalia
  2021-07-06T20:17:28UTC 2021-07-06T10:17:28-10:00 2021-07-06T09:17:28-11:00  21.31323 -157.88873     345   0.0 Hōkūleʻa
  2021-07-06T20:09:50UTC 2021-07-06T10:09:50-10:00 2021-07-06T09:09:50-11:00  21.31311 -157.88894     347   0.0 Hikianalia
  2021-07-06T19:18:20UTC 2021-07-06T09:18:20-10:00 2021-07-06T08:18:20-11:00  21.31308 -157.88868     234   0.0 Hōkūleʻa
  2021-07-06T19:10:41UTC 2021-07-06T09:10:41-10:00 2021-07-06T08:10:41-11:00  21.31294 -157.88890     224   0.0 Hikianalia
  2021-07-06T18:20:00UTC 2021-07-06T08:20:00-10:00 2021-07-06T07:20:00-11:00  21.31300 -157.88883     289   0.0 Hikianalia
  2021-07-06T18:17:50UTC 2021-07-06T08:17:50-10:00 2021-07-06T07:17:50-11:00  21.31312 -157.88862     104   0.0 Hōkūleʻa
  2021-07-06T17:18:20UTC 2021-07-06T07:18:20-10:00 2021-07-06T06:18:20-11:00  21.31313 -157.88866     270   0.0 Hōkūleʻa
  2021-07-06T17:10:46UTC 2021-07-06T07:10:46-10:00 2021-07-06T06:10:46-11:00  21.31298 -157.88877     109   0.0 Hikianalia
  2021-07-06T16:18:28UTC 2021-07-06T06:18:28-10:00 2021-07-06T05:18:28-11:00  21.31313 -157.88862       0   0.0 Hōkūleʻa
  2021-07-06T16:09:48UTC 2021-07-06T06:09:48-10:00 2021-07-06T05:09:48-11:00  21.31300 -157.88883     180   0.0 Hikianalia
  2021-07-06T15:18:42UTC 2021-07-06T05:18:42-10:00 2021-07-06T04:18:42-11:00  21.31311 -157.88862       0   0.0 Hōkūleʻa
  2021-07-06T15:10:38UTC 2021-07-06T05:10:38-10:00 2021-07-06T04:10:38-11:00  21.31302 -157.88883      62   0.0 Hikianalia
  2021-07-06T14:18:30UTC 2021-07-06T04:18:30-10:00 2021-07-06T03:18:30-11:00  21.31307 -157.88862     171   0.0 Hōkūleʻa
  2021-07-06T14:11:11UTC 2021-07-06T04:11:11-10:00 2021-07-06T03:11:11-11:00  21.31300 -157.88886     293   0.0 Hikianalia
  2021-07-06T13:25:50UTC 2021-07-06T03:25:50-10:00 2021-07-06T02:25:50-11:00  21.31319 -157.88864     343   0.0 Hōkūleʻa
  2021-07-06T13:10:39UTC 2021-07-06T03:10:39-10:00 2021-07-06T02:10:39-11:00  21.31296 -157.88875     137   0.0 Hikianalia
  2021-07-06T12:18:50UTC 2021-07-06T02:18:50-10:00 2021-07-06T01:18:50-11:00  21.31312 -157.88862     118   0.0 Hōkūleʻa
  2021-07-06T12:10:47UTC 2021-07-06T02:10:47-10:00 2021-07-06T01:10:47-11:00  21.31305 -157.88883       0   0.0 Hikianalia
  2021-07-06T11:18:24UTC 2021-07-06T01:18:24-10:00 2021-07-06T00:18:24-11:00  21.31314 -157.88866     250   0.0 Hōkūleʻa
  2021-07-06T11:11:18UTC 2021-07-06T01:11:18-10:00 2021-07-06T00:11:18-11:00  21.31300 -157.88883      64   0.0 Hikianalia
  2021-07-06T10:18:25UTC 2021-07-06T00:18:25-10:00 2021-07-05T23:18:25-11:00  21.31319 -157.88853      52   0.0 Hōkūleʻa
  2021-07-06T10:10:41UTC 2021-07-06T00:10:41-10:00 2021-07-05T23:10:41-11:00  21.31299 -157.88886     146   0.0 Hikianalia
  2021-07-06T09:18:27UTC 2021-07-05T23:18:27-10:00 2021-07-05T22:18:27-11:00  21.31312 -157.88862       0   0.0 Hōkūleʻa
  2021-07-06T09:10:44UTC 2021-07-05T23:10:44-10:00 2021-07-05T22:10:44-11:00  21.31311 -157.88894     317   0.0 Hikianalia
  2021-07-06T08:18:51UTC 2021-07-05T22:18:51-10:00 2021-07-05T21:18:51-11:00  21.31311 -157.88862       0   0.0 Hōkūleʻa
  2021-07-06T08:10:23UTC 2021-07-05T22:10:23-10:00 2021-07-05T21:10:23-11:00  21.31300 -157.88883     222   0.0 Hikianalia
  2021-07-06T07:18:28UTC 2021-07-05T21:18:28-10:00 2021-07-05T20:18:28-11:00  21.31311 -157.88862       0   0.0 Hōkūleʻa
  2021-07-06T07:10:40UTC 2021-07-05T21:10:40-10:00 2021-07-05T20:10:40-11:00  21.31303 -157.88881      42   0.0 Hikianalia
  2021-07-06T06:25:01UTC 2021-07-05T20:25:01-10:00 2021-07-05T19:25:01-11:00  21.31310 -157.88862     180   0.0 Hōkūleʻa
  2021-07-06T06:19:08UTC 2021-07-05T20:19:08-10:00 2021-07-05T19:19:08-11:00  21.31300 -157.88883     180   0.0 Hikianalia
  2021-07-06T05:18:28UTC 2021-07-05T19:18:28-10:00 2021-07-05T18:18:28-11:00  21.31311 -157.88862       0   0.0 Hōkūleʻa
  2021-07-06T05:11:29UTC 2021-07-05T19:11:29-10:00 2021-07-05T18:11:29-11:00  21.31302 -157.88883     105   0.0 Hikianalia
  2021-07-06T04:18:46UTC 2021-07-05T18:18:46-10:00 2021-07-05T17:18:46-11:00  21.31310 -157.88862     180   0.0 Hōkūleʻa
  2021-07-06T04:10:18UTC 2021-07-05T18:10:18-10:00 2021-07-05T17:10:18-11:00  21.31303 -157.88888     270   0.0 Hikianalia
  2021-07-06T03:17:17UTC 2021-07-05T17:17:17-10:00 2021-07-05T16:17:17-11:00  21.31311 -157.88862       0   0.0 Hōkūleʻa
  2021-07-06T03:10:38UTC 2021-07-05T17:10:38-10:00 2021-07-05T16:10:38-11:00  21.31303 -157.88886       0   0.0 Hikianalia
  2021-07-06T02:18:21UTC 2021-07-05T16:18:21-10:00 2021-07-05T15:18:21-11:00  21.31311 -157.88862       0   0.0 Hōkūleʻa
  2021-07-06T02:10:01UTC 2021-07-05T16:10:01-10:00 2021-07-05T15:10:01-11:00  21.31303 -157.88886     298   0.0 Hikianalia
  2021-07-06T01:17:19UTC 2021-07-05T15:17:19-10:00 2021-07-05T14:17:19-11:00  21.31311 -157.88862     180   0.0 Hōkūleʻa
  2021-07-06T01:11:07UTC 2021-07-05T15:11:07-10:00 2021-07-05T14:11:07-11:00  21.31302 -157.88883     118   0.0 Hikianalia
  2021-07-06T00:17:50UTC 2021-07-05T14:17:50-10:00 2021-07-05T13:17:50-11:00  21.31313 -157.88862       0   0.0 Hōkūleʻa
  2021-07-06T00:09:47UTC 2021-07-05T14:09:47-10:00 2021-07-05T13:09:47-11:00  21.31303 -157.88886       0   0.0 Hikianalia
  2021-07-05T23:18:29UTC 2021-07-05T13:18:29-10:00 2021-07-05T12:18:29-11:00  21.31311 -157.88862      84   0.0 Hōkūleʻa
  2021-07-05T23:10:47UTC 2021-07-05T13:10:47-10:00 2021-07-05T12:10:47-11:00  21.31303 -157.88886     317   0.0 Hikianalia
  2021-07-05T22:17:27UTC 2021-07-05T12:17:27-10:00 2021-07-05T11:17:27-11:00  21.31310 -157.88873     270   0.0 Hōkūleʻa
  2021-07-05T22:10:21UTC 2021-07-05T12:10:21-10:00 2021-07-05T11:10:21-11:00  21.31300 -157.88883     168   0.0 Hikianalia
  2021-07-05T21:18:25UTC 2021-07-05T11:18:25-10:00 2021-07-05T10:18:25-11:00  21.31310 -157.88868     260   0.0 Hōkūleʻa
  2021-07-05T21:10:47UTC 2021-07-05T11:10:47-10:00 2021-07-05T10:10:47-11:00  21.31320 -157.88888       0   0.0 Hikianalia
  2021-07-05T20:17:46UTC 2021-07-05T10:17:46-10:00 2021-07-05T09:17:46-11:00  21.31311 -157.88862       0   0.0 Hōkūleʻa
  2021-07-05T20:09:44UTC 2021-07-05T10:09:44-10:00 2021-07-05T09:09:44-11:00  21.31303 -157.88888     308   0.0 Hikianalia
  2021-07-05T19:18:36UTC 2021-07-05T09:18:36-10:00 2021-07-05T08:18:36-11:00  21.31311 -157.88862       0   0.0 Hōkūleʻa
  2021-07-05T19:10:48UTC 2021-07-05T09:10:48-10:00 2021-07-05T08:10:48-11:00  21.31299 -157.88883     116   0.0 Hikianalia
  2021-07-05T18:18:42UTC 2021-07-05T08:18:42-10:00 2021-07-05T07:18:42-11:00  21.31310 -157.88862     309   0.2 Hōkūleʻa
  2021-07-05T18:10:19UTC 2021-07-05T08:10:19-10:00 2021-07-05T07:10:19-11:00  21.31300 -157.88886     180   0.0 Hikianalia
  2021-07-05T17:18:31UTC 2021-07-05T07:18:31-10:00 2021-07-05T06:18:31-11:00  21.31122 -157.88617     131   0.2 Hōkūleʻa
  2021-07-05T17:10:41UTC 2021-07-05T07:10:41-10:00 2021-07-05T06:10:41-11:00  21.31302 -157.88886     242   0.0 Hikianalia
  2021-07-05T16:19:02UTC 2021-07-05T06:19:02-10:00 2021-07-05T05:19:02-11:00  21.31391 -157.88952     170   0.0 Hōkūleʻa
  2021-07-05T16:10:41UTC 2021-07-05T06:10:41-10:00 2021-07-05T05:10:41-11:00  21.31303 -157.88883       0   0.0 Hikianalia
  2021-07-05T15:18:25UTC 2021-07-05T05:18:25-10:00 2021-07-05T04:18:25-11:00  21.31473 -157.88967      31   0.1 Hōkūleʻa
  2021-07-05T15:10:43UTC 2021-07-05T05:10:43-10:00 2021-07-05T04:10:43-11:00  21.31303 -157.88883      43   0.0 Hikianalia
  2021-07-05T14:18:32UTC 2021-07-05T04:18:32-10:00 2021-07-05T03:18:32-11:00  21.31387 -157.89023     293   0.1 Hōkūleʻa
  2021-07-05T14:11:26UTC 2021-07-05T04:11:26-10:00 2021-07-05T03:11:26-11:00  21.31300 -157.88886     155   0.0 Hikianalia
  2021-07-05T13:18:29UTC 2021-07-05T03:18:29-10:00 2021-07-05T02:18:29-11:00  21.31308 -157.88825       0   0.0 Hōkūleʻa
  2021-07-05T13:10:50UTC 2021-07-05T03:10:50-10:00 2021-07-05T02:10:50-11:00  21.31305 -157.88888     298   0.0 Hikianalia
  2021-07-05T12:18:42UTC 2021-07-05T02:18:42-10:00 2021-07-05T01:18:42-11:00  21.31308 -157.88825       0   0.0 Hōkūleʻa
  2021-07-05T12:10:39UTC 2021-07-05T02:10:39-10:00 2021-07-05T01:10:39-11:00  21.31302 -157.88881      90   0.0 Hikianalia
  2021-07-05T11:18:28UTC 2021-07-05T01:18:28-10:00 2021-07-05T00:18:28-11:00  21.31308 -157.88825       0   0.0 Hōkūleʻa
  2021-07-05T11:10:46UTC 2021-07-05T01:10:46-10:00 2021-07-05T00:10:46-11:00  21.31302 -157.88888     270   0.0 Hikianalia
  2021-07-05T10:18:27UTC 2021-07-05T00:18:27-10:00 2021-07-04T23:18:27-11:00  21.31308 -157.88825       0   0.0 Hōkūleʻa
  2021-07-05T10:11:16UTC 2021-07-05T00:11:16-10:00 2021-07-04T23:11:16-11:00  21.31302 -157.88883     325   0.0 Hikianalia
  2021-07-05T09:18:25UTC 2021-07-04T23:18:25-10:00 2021-07-04T22:18:25-11:00  21.31308 -157.88825       0   0.0 Hōkūleʻa
  2021-07-05T09:09:55UTC 2021-07-04T23:09:55-10:00 2021-07-04T22:09:55-11:00  21.31293 -157.88877     140   0.0 Hikianalia
  2021-07-05T08:18:40UTC 2021-07-04T22:18:40-10:00 2021-07-04T21:18:40-11:00  21.31308 -157.88825       0   0.0 Hōkūleʻa
  2021-07-05T08:10:36UTC 2021-07-04T22:10:36-10:00 2021-07-04T21:10:36-11:00  21.31303 -157.88886       0   0.0 Hikianalia
  2021-07-05T07:18:28UTC 2021-07-04T21:18:28-10:00 2021-07-04T20:18:28-11:00  21.31308 -157.88825       0   0.0 Hōkūleʻa
  2021-07-05T07:10:48UTC 2021-07-04T21:10:48-10:00 2021-07-04T20:10:48-11:00  21.31303 -157.88886     270   0.0 Hikianalia
  2021-07-05T06:18:26UTC 2021-07-04T20:18:26-10:00 2021-07-04T19:18:26-11:00  21.31308 -157.88825       0   0.0 Hōkūleʻa
  2021-07-05T06:11:15UTC 2021-07-04T20:11:15-10:00 2021-07-04T19:11:15-11:00  21.31303 -157.88883      90   0.0 Hikianalia
  2021-07-05T05:18:27UTC 2021-07-04T19:18:27-10:00 2021-07-04T18:18:27-11:00  21.31308 -157.88825       0   0.0 Hōkūleʻa
  2021-07-05T05:10:42UTC 2021-07-04T19:10:42-10:00 2021-07-04T18:10:42-11:00  21.31303 -157.88886       0   0.0 Hikianalia
  2021-07-05T04:17:47UTC 2021-07-04T18:17:47-10:00 2021-07-04T17:17:47-11:00  21.31308 -157.88825       0   0.0 Hōkūleʻa
  2021-07-05T04:09:48UTC 2021-07-04T18:09:48-10:00 2021-07-04T17:09:48-11:00  21.31303 -157.88886       0   0.0 Hikianalia
  2021-07-05T03:18:21UTC 2021-07-04T17:18:21-10:00 2021-07-04T16:18:21-11:00  21.31308 -157.88825       0   0.0 Hōkūleʻa
  2021-07-05T03:10:40UTC 2021-07-04T17:10:40-10:00 2021-07-04T16:10:40-11:00  21.31303 -157.88886     327   0.0 Hikianalia
  2021-07-05T02:18:28UTC 2021-07-04T16:18:28-10:00 2021-07-04T15:18:28-11:00  21.31308 -157.88825       0   0.0 Hōkūleʻa
  2021-07-05T02:11:28UTC 2021-07-04T16:11:28-10:00 2021-07-04T15:11:28-11:00  21.31299 -157.88883     147   0.0 Hikianalia
  2021-07-05T01:18:26UTC 2021-07-04T15:18:26-10:00 2021-07-04T14:18:26-11:00  21.31308 -157.88825       0   0.0 Hōkūleʻa
  2021-07-05T01:10:50UTC 2021-07-04T15:10:50-10:00 2021-07-04T14:10:50-11:00  21.31303 -157.88886       0   0.0 Hikianalia
  2021-07-05T00:17:49UTC 2021-07-04T14:17:49-10:00 2021-07-04T13:17:49-11:00  21.31308 -157.88825       0   0.0 Hōkūleʻa
  2021-07-05T00:09:48UTC 2021-07-04T14:09:48-10:00 2021-07-04T13:09:48-11:00  21.31303 -157.88886       0   0.0 Hikianalia
  2021-07-04T23:18:19UTC 2021-07-04T13:18:19-10:00 2021-07-04T12:18:19-11:00  21.31308 -157.88825       0   0.0 Hōkūleʻa
  2021-07-04T23:10:48UTC 2021-07-04T13:10:48-10:00 2021-07-04T12:10:48-11:00  21.31303 -157.88886     270   0.0 Hikianalia
  2021-07-04T22:17:25UTC 2021-07-04T12:17:25-10:00 2021-07-04T11:17:25-11:00  21.31308 -157.88825       0   0.0 Hōkūleʻa
  2021-07-04T22:10:07UTC 2021-07-04T12:10:07-10:00 2021-07-04T11:10:07-11:00  21.31303 -157.88883     170   0.0 Hikianalia
  2021-07-04T21:18:24UTC 2021-07-04T11:18:24-10:00 2021-07-04T10:18:24-11:00  21.31308 -157.88825       0   0.0 Hōkūleʻa
  2021-07-04T21:16:47UTC 2021-07-04T11:16:47-10:00 2021-07-04T10:16:47-11:00  21.31314 -157.88886       9   0.0 Hikianalia
  2021-07-04T20:17:39UTC 2021-07-04T10:17:39-10:00 2021-07-04T09:17:39-11:00  21.31308 -157.88825       0   0.0 Hōkūleʻa
  2021-07-04T20:09:38UTC 2021-07-04T10:09:38-10:00 2021-07-04T09:09:38-11:00  21.31303 -157.88888     270   0.0 Hikianalia
  2021-07-04T19:27:56UTC 2021-07-04T09:27:56-10:00 2021-07-04T08:27:56-11:00  21.31308 -157.88825       0   0.0 Hōkūleʻa
  2021-07-04T19:10:39UTC 2021-07-04T09:10:39-10:00 2021-07-04T08:10:39-11:00  21.31303 -157.88886     317   0.0 Hikianalia
  2021-07-04T18:17:26UTC 2021-07-0